<?xml version="1.0" encoding="UTF-8" standalone="no" ?>
<gpx xmlns="http://www.topografix.com/GPX/1/1" xmlns:xsi="http://www.w3.org/2001/XMLSchema-instance" xsi:schemaLocation="http://www.topografix.com/GPX/1/1 http://www.topografix.com/GPX/1/1/gpx.xsd" version="1.1" creator="VisuGPX - https://www.visugpx.com">
  <metadata>
    <name>Le Calvaire de Portes</name>
  </metadata>
  <trk>
    <name><![CDATA[Le Calvaire de Portes_1]]></name>
    <trkseg>
      <trkpt lat="45.61496" lon="5.27456">
        <ele>231</ele>
        <time>2021-06-06T06:53:12.442Z</time>
      </trkpt>
      <trkpt lat="45.61496" lon="5.27456">
        <ele>231</ele>
        <time>2021-06-06T06:53:13.443Z</time>
      </trkpt>
      <trkpt lat="45.61497" lon="5.27456">
        <ele>230</ele>
        <time>2021-06-06T06:53:14.444Z</time>
      </trkpt>
      <trkpt lat="45.61498" lon="5.27456">
        <ele>230</ele>
        <time>2021-06-06T06:53:15.444Z</time>
      </trkpt>
      <trkpt lat="45.61499" lon="5.27456">
        <ele>230</ele>
        <time>2021-06-06T06:53:16.444Z</time>
      </trkpt>
      <trkpt lat="45.61501" lon="5.27456">
        <ele>230</ele>
        <time>2021-06-06T06:53:17.444Z</time>
      </trkpt>
      <trkpt lat="45.61502" lon="5.27457">
        <ele>229</ele>
        <time>2021-06-06T06:53:18.444Z</time>
      </trkpt>
      <trkpt lat="45.61504" lon="5.27457">
        <ele>229</ele>
        <time>2021-06-06T06:53:19.444Z</time>
      </trkpt>
      <trkpt lat="45.61505" lon="5.27459">
        <ele>228</ele>
        <time>2021-06-06T06:53:20.444Z</time>
      </trkpt>
      <trkpt lat="45.61507" lon="5.2746">
        <ele>228</ele>
        <time>2021-06-06T06:53:21.443Z</time>
      </trkpt>
      <trkpt lat="45.61509" lon="5.27461">
        <ele>228</ele>
        <time>2021-06-06T06:53:22.444Z</time>
      </trkpt>
      <trkpt lat="45.61512" lon="5.27463">
        <ele>227</ele>
        <time>2021-06-06T06:53:23.443Z</time>
      </trkpt>
      <trkpt lat="45.61515" lon="5.27464">
        <ele>227</ele>
        <time>2021-06-06T06:53:24.443Z</time>
      </trkpt>
      <trkpt lat="45.61518" lon="5.27466">
        <ele>227</ele>
        <time>2021-06-06T06:53:25.444Z</time>
      </trkpt>
      <trkpt lat="45.61521" lon="5.27467">
        <ele>227</ele>
        <time>2021-06-06T06:53:26.443Z</time>
      </trkpt>
      <trkpt lat="45.61524" lon="5.27468">
        <ele>226</ele>
        <time>2021-06-06T06:53:27.444Z</time>
      </trkpt>
      <trkpt lat="45.61527" lon="5.27469">
        <ele>226</ele>
        <time>2021-06-06T06:53:28.444Z</time>
      </trkpt>
      <trkpt lat="45.61529" lon="5.2747">
        <ele>226</ele>
        <time>2021-06-06T06:53:29.444Z</time>
      </trkpt>
      <trkpt lat="45.61531" lon="5.2747">
        <ele>225</ele>
        <time>2021-06-06T06:53:30.444Z</time>
      </trkpt>
      <trkpt lat="45.61534" lon="5.27471">
        <ele>225</ele>
        <time>2021-06-06T06:53:31.443Z</time>
      </trkpt>
      <trkpt lat="45.61536" lon="5.27473">
        <ele>226</ele>
        <time>2021-06-06T06:53:32.444Z</time>
      </trkpt>
      <trkpt lat="45.61538" lon="5.27475">
        <ele>226</ele>
        <time>2021-06-06T06:53:33.443Z</time>
      </trkpt>
      <trkpt lat="45.61539" lon="5.27478">
        <ele>226</ele>
        <time>2021-06-06T06:53:34.444Z</time>
      </trkpt>
      <trkpt lat="45.6154" lon="5.27482">
        <ele>225</ele>
        <time>2021-06-06T06:53:35.444Z</time>
      </trkpt>
      <trkpt lat="45.6154" lon="5.27486">
        <ele>225</ele>
        <time>2021-06-06T06:53:36.444Z</time>
      </trkpt>
      <trkpt lat="45.61539" lon="5.2749">
        <ele>225</ele>
        <time>2021-06-06T06:53:37.444Z</time>
      </trkpt>
      <trkpt lat="45.61538" lon="5.27496">
        <ele>225</ele>
        <time>2021-06-06T06:53:38.444Z</time>
      </trkpt>
      <trkpt lat="45.61537" lon="5.27501">
        <ele>225</ele>
        <time>2021-06-06T06:53:39.444Z</time>
      </trkpt>
      <trkpt lat="45.61536" lon="5.27506">
        <ele>226</ele>
        <time>2021-06-06T06:53:40.444Z</time>
      </trkpt>
      <trkpt lat="45.61535" lon="5.27511">
        <ele>226</ele>
        <time>2021-06-06T06:53:41.443Z</time>
      </trkpt>
      <trkpt lat="45.61534" lon="5.27515">
        <ele>226</ele>
        <time>2021-06-06T06:53:42.444Z</time>
      </trkpt>
      <trkpt lat="45.61533" lon="5.2752">
        <ele>226</ele>
        <time>2021-06-06T06:53:43.444Z</time>
      </trkpt>
      <trkpt lat="45.61532" lon="5.27526">
        <ele>226</ele>
        <time>2021-06-06T06:53:44.443Z</time>
      </trkpt>
      <trkpt lat="45.61531" lon="5.2753">
        <ele>227</ele>
        <time>2021-06-06T06:53:45.444Z</time>
      </trkpt>
      <trkpt lat="45.6153" lon="5.27535">
        <ele>227</ele>
        <time>2021-06-06T06:53:46.444Z</time>
      </trkpt>
      <trkpt lat="45.61529" lon="5.27539">
        <ele>228</ele>
        <time>2021-06-06T06:53:47.444Z</time>
      </trkpt>
      <trkpt lat="45.61527" lon="5.27543">
        <ele>229</ele>
        <time>2021-06-06T06:53:48.444Z</time>
      </trkpt>
      <trkpt lat="45.61526" lon="5.27547">
        <ele>229</ele>
        <time>2021-06-06T06:53:49.443Z</time>
      </trkpt>
      <trkpt lat="45.61525" lon="5.27551">
        <ele>230</ele>
        <time>2021-06-06T06:53:50.444Z</time>
      </trkpt>
      <trkpt lat="45.61525" lon="5.27554">
        <ele>230</ele>
        <time>2021-06-06T06:53:51.444Z</time>
      </trkpt>
      <trkpt lat="45.61524" lon="5.27557">
        <ele>231</ele>
        <time>2021-06-06T06:53:52.444Z</time>
      </trkpt>
      <trkpt lat="45.61523" lon="5.2756">
        <ele>231</ele>
        <time>2021-06-06T06:53:53.444Z</time>
      </trkpt>
      <trkpt lat="45.61521" lon="5.27563">
        <ele>232</ele>
        <time>2021-06-06T06:53:54.444Z</time>
      </trkpt>
      <trkpt lat="45.6152" lon="5.27566">
        <ele>232</ele>
        <time>2021-06-06T06:53:55.443Z</time>
      </trkpt>
      <trkpt lat="45.61519" lon="5.27569">
        <ele>232</ele>
        <time>2021-06-06T06:53:56.444Z</time>
      </trkpt>
      <trkpt lat="45.6152" lon="5.27573">
        <ele>232</ele>
        <time>2021-06-06T06:53:57.444Z</time>
      </trkpt>
      <trkpt lat="45.61522" lon="5.27576">
        <ele>232</ele>
        <time>2021-06-06T06:53:58.444Z</time>
      </trkpt>
      <trkpt lat="45.61525" lon="5.27579">
        <ele>231</ele>
        <time>2021-06-06T06:53:59.444Z</time>
      </trkpt>
      <trkpt lat="45.61528" lon="5.2758">
        <ele>231</ele>
        <time>2021-06-06T06:54:00.444Z</time>
      </trkpt>
      <trkpt lat="45.61531" lon="5.27583">
        <ele>231</ele>
        <time>2021-06-06T06:54:01.443Z</time>
      </trkpt>
      <trkpt lat="45.61534" lon="5.27585">
        <ele>230</ele>
        <time>2021-06-06T06:54:02.443Z</time>
      </trkpt>
      <trkpt lat="45.61537" lon="5.27586">
        <ele>230</ele>
        <time>2021-06-06T06:54:03.444Z</time>
      </trkpt>
      <trkpt lat="45.61541" lon="5.27588">
        <ele>230</ele>
        <time>2021-06-06T06:54:04.443Z</time>
      </trkpt>
      <trkpt lat="45.61544" lon="5.27589">
        <ele>230</ele>
        <time>2021-06-06T06:54:05.444Z</time>
      </trkpt>
      <trkpt lat="45.61548" lon="5.2759">
        <ele>230</ele>
        <time>2021-06-06T06:54:06.443Z</time>
      </trkpt>
      <trkpt lat="45.61551" lon="5.27592">
        <ele>230</ele>
        <time>2021-06-06T06:54:07.444Z</time>
      </trkpt>
      <trkpt lat="45.61555" lon="5.27594">
        <ele>229</ele>
        <time>2021-06-06T06:54:08.444Z</time>
      </trkpt>
      <trkpt lat="45.61559" lon="5.27596">
        <ele>229</ele>
        <time>2021-06-06T06:54:09.444Z</time>
      </trkpt>
      <trkpt lat="45.61563" lon="5.27597">
        <ele>229</ele>
        <time>2021-06-06T06:54:10.444Z</time>
      </trkpt>
      <trkpt lat="45.61567" lon="5.27599">
        <ele>229</ele>
        <time>2021-06-06T06:54:11.444Z</time>
      </trkpt>
      <trkpt lat="45.61571" lon="5.27601">
        <ele>229</ele>
        <time>2021-06-06T06:54:12.443Z</time>
      </trkpt>
      <trkpt lat="45.61575" lon="5.27602">
        <ele>229</ele>
        <time>2021-06-06T06:54:13.443Z</time>
      </trkpt>
      <trkpt lat="45.61579" lon="5.27604">
        <ele>229</ele>
        <time>2021-06-06T06:54:14.444Z</time>
      </trkpt>
      <trkpt lat="45.61583" lon="5.27606">
        <ele>229</ele>
        <time>2021-06-06T06:54:15.444Z</time>
      </trkpt>
      <trkpt lat="45.61588" lon="5.27607">
        <ele>229</ele>
        <time>2021-06-06T06:54:16.444Z</time>
      </trkpt>
      <trkpt lat="45.61592" lon="5.27609">
        <ele>229</ele>
        <time>2021-06-06T06:54:17.443Z</time>
      </trkpt>
      <trkpt lat="45.61597" lon="5.2761">
        <ele>228</ele>
        <time>2021-06-06T06:54:18.443Z</time>
      </trkpt>
      <trkpt lat="45.61602" lon="5.27612">
        <ele>228</ele>
        <time>2021-06-06T06:54:19.444Z</time>
      </trkpt>
      <trkpt lat="45.61607" lon="5.27613">
        <ele>228</ele>
        <time>2021-06-06T06:54:20.444Z</time>
      </trkpt>
      <trkpt lat="45.61612" lon="5.27614">
        <ele>228</ele>
        <time>2021-06-06T06:54:21.444Z</time>
      </trkpt>
      <trkpt lat="45.61617" lon="5.27615">
        <ele>227</ele>
        <time>2021-06-06T06:54:22.443Z</time>
      </trkpt>
      <trkpt lat="45.61622" lon="5.27617">
        <ele>227</ele>
        <time>2021-06-06T06:54:23.443Z</time>
      </trkpt>
      <trkpt lat="45.61627" lon="5.27619">
        <ele>227</ele>
        <time>2021-06-06T06:54:24.444Z</time>
      </trkpt>
      <trkpt lat="45.61631" lon="5.27622">
        <ele>227</ele>
        <time>2021-06-06T06:54:25.444Z</time>
      </trkpt>
      <trkpt lat="45.61635" lon="5.27624">
        <ele>226</ele>
        <time>2021-06-06T06:54:26.444Z</time>
      </trkpt>
      <trkpt lat="45.6164" lon="5.27626">
        <ele>226</ele>
        <time>2021-06-06T06:54:27.443Z</time>
      </trkpt>
      <trkpt lat="45.61645" lon="5.27628">
        <ele>226</ele>
        <time>2021-06-06T06:54:28.444Z</time>
      </trkpt>
      <trkpt lat="45.61649" lon="5.2763">
        <ele>226</ele>
        <time>2021-06-06T06:54:29.444Z</time>
      </trkpt>
      <trkpt lat="45.61654" lon="5.27633">
        <ele>226</ele>
        <time>2021-06-06T06:54:30.444Z</time>
      </trkpt>
      <trkpt lat="45.61658" lon="5.27635">
        <ele>226</ele>
        <time>2021-06-06T06:54:31.444Z</time>
      </trkpt>
      <trkpt lat="45.61662" lon="5.27637">
        <ele>226</ele>
        <time>2021-06-06T06:54:32.443Z</time>
      </trkpt>
      <trkpt lat="45.61667" lon="5.2764">
        <ele>226</ele>
        <time>2021-06-06T06:54:33.443Z</time>
      </trkpt>
      <trkpt lat="45.61672" lon="5.27642">
        <ele>225</ele>
        <time>2021-06-06T06:54:34.444Z</time>
      </trkpt>
      <trkpt lat="45.61677" lon="5.27644">
        <ele>225</ele>
        <time>2021-06-06T06:54:35.444Z</time>
      </trkpt>
      <trkpt lat="45.61682" lon="5.27647">
        <ele>225</ele>
        <time>2021-06-06T06:54:36.443Z</time>
      </trkpt>
      <trkpt lat="45.61686" lon="5.27649">
        <ele>225</ele>
        <time>2021-06-06T06:54:37.444Z</time>
      </trkpt>
      <trkpt lat="45.61691" lon="5.27652">
        <ele>225</ele>
        <time>2021-06-06T06:54:38.444Z</time>
      </trkpt>
      <trkpt lat="45.61696" lon="5.27654">
        <ele>225</ele>
        <time>2021-06-06T06:54:39.444Z</time>
      </trkpt>
      <trkpt lat="45.617" lon="5.27657">
        <ele>225</ele>
        <time>2021-06-06T06:54:40.444Z</time>
      </trkpt>
      <trkpt lat="45.61705" lon="5.27659">
        <ele>225</ele>
        <time>2021-06-06T06:54:41.444Z</time>
      </trkpt>
      <trkpt lat="45.6171" lon="5.27662">
        <ele>225</ele>
        <time>2021-06-06T06:54:42.443Z</time>
      </trkpt>
      <trkpt lat="45.61715" lon="5.27664">
        <ele>225</ele>
        <time>2021-06-06T06:54:43.444Z</time>
      </trkpt>
      <trkpt lat="45.61719" lon="5.27667">
        <ele>225</ele>
        <time>2021-06-06T06:54:44.444Z</time>
      </trkpt>
      <trkpt lat="45.61723" lon="5.27669">
        <ele>225</ele>
        <time>2021-06-06T06:54:45.444Z</time>
      </trkpt>
      <trkpt lat="45.61727" lon="5.27671">
        <ele>225</ele>
        <time>2021-06-06T06:54:46.444Z</time>
      </trkpt>
      <trkpt lat="45.61732" lon="5.27674">
        <ele>225</ele>
        <time>2021-06-06T06:54:47.443Z</time>
      </trkpt>
      <trkpt lat="45.61737" lon="5.27676">
        <ele>225</ele>
        <time>2021-06-06T06:54:48.444Z</time>
      </trkpt>
      <trkpt lat="45.61742" lon="5.27678">
        <ele>224</ele>
        <time>2021-06-06T06:54:49.444Z</time>
      </trkpt>
      <trkpt lat="45.61747" lon="5.27681">
        <ele>224</ele>
        <time>2021-06-06T06:54:50.444Z</time>
      </trkpt>
      <trkpt lat="45.61751" lon="5.27683">
        <ele>224</ele>
        <time>2021-06-06T06:54:51.443Z</time>
      </trkpt>
      <trkpt lat="45.61756" lon="5.27685">
        <ele>224</ele>
        <time>2021-06-06T06:54:52.444Z</time>
      </trkpt>
      <trkpt lat="45.6176" lon="5.27687">
        <ele>223</ele>
        <time>2021-06-06T06:54:53.444Z</time>
      </trkpt>
      <trkpt lat="45.61764" lon="5.27689">
        <ele>223</ele>
        <time>2021-06-06T06:54:54.444Z</time>
      </trkpt>
      <trkpt lat="45.61768" lon="5.27691">
        <ele>222</ele>
        <time>2021-06-06T06:54:55.444Z</time>
      </trkpt>
      <trkpt lat="45.61773" lon="5.27693">
        <ele>222</ele>
        <time>2021-06-06T06:54:56.443Z</time>
      </trkpt>
      <trkpt lat="45.61777" lon="5.27693">
        <ele>222</ele>
        <time>2021-06-06T06:54:57.444Z</time>
      </trkpt>
      <trkpt lat="45.61781" lon="5.27691">
        <ele>222</ele>
        <time>2021-06-06T06:54:58.443Z</time>
      </trkpt>
      <trkpt lat="45.61784" lon="5.27687">
        <ele>222</ele>
        <time>2021-06-06T06:54:59.444Z</time>
      </trkpt>
      <trkpt lat="45.61788" lon="5.27682">
        <ele>222</ele>
        <time>2021-06-06T06:55:00.444Z</time>
      </trkpt>
      <trkpt lat="45.6179" lon="5.27675">
        <ele>222</ele>
        <time>2021-06-06T06:55:01.444Z</time>
      </trkpt>
      <trkpt lat="45.61793" lon="5.27668">
        <ele>221</ele>
        <time>2021-06-06T06:55:02.443Z</time>
      </trkpt>
      <trkpt lat="45.61796" lon="5.27659">
        <ele>221</ele>
        <time>2021-06-06T06:55:03.444Z</time>
      </trkpt>
      <trkpt lat="45.61798" lon="5.27649">
        <ele>221</ele>
        <time>2021-06-06T06:55:04.444Z</time>
      </trkpt>
      <trkpt lat="45.61801" lon="5.2764">
        <ele>221</ele>
        <time>2021-06-06T06:55:05.443Z</time>
      </trkpt>
      <trkpt lat="45.61803" lon="5.27629">
        <ele>221</ele>
        <time>2021-06-06T06:55:06.444Z</time>
      </trkpt>
      <trkpt lat="45.61806" lon="5.27619">
        <ele>221</ele>
        <time>2021-06-06T06:55:07.443Z</time>
      </trkpt>
      <trkpt lat="45.61808" lon="5.2761">
        <ele>221</ele>
        <time>2021-06-06T06:55:08.444Z</time>
      </trkpt>
      <trkpt lat="45.61811" lon="5.276">
        <ele>220</ele>
        <time>2021-06-06T06:55:09.444Z</time>
      </trkpt>
      <trkpt lat="45.61813" lon="5.2759">
        <ele>220</ele>
        <time>2021-06-06T06:55:10.444Z</time>
      </trkpt>
      <trkpt lat="45.61816" lon="5.2758">
        <ele>220</ele>
        <time>2021-06-06T06:55:11.443Z</time>
      </trkpt>
      <trkpt lat="45.61818" lon="5.27571">
        <ele>220</ele>
        <time>2021-06-06T06:55:12.444Z</time>
      </trkpt>
      <trkpt lat="45.6182" lon="5.27561">
        <ele>220</ele>
        <time>2021-06-06T06:55:13.444Z</time>
      </trkpt>
      <trkpt lat="45.61823" lon="5.27552">
        <ele>220</ele>
        <time>2021-06-06T06:55:14.444Z</time>
      </trkpt>
      <trkpt lat="45.61825" lon="5.27543">
        <ele>220</ele>
        <time>2021-06-06T06:55:15.444Z</time>
      </trkpt>
      <trkpt lat="45.61827" lon="5.27534">
        <ele>220</ele>
        <time>2021-06-06T06:55:16.444Z</time>
      </trkpt>
      <trkpt lat="45.61829" lon="5.27526">
        <ele>220</ele>
        <time>2021-06-06T06:55:17.444Z</time>
      </trkpt>
      <trkpt lat="45.61831" lon="5.27518">
        <ele>220</ele>
        <time>2021-06-06T06:55:18.443Z</time>
      </trkpt>
      <trkpt lat="45.61834" lon="5.2751">
        <ele>220</ele>
        <time>2021-06-06T06:55:19.443Z</time>
      </trkpt>
      <trkpt lat="45.61836" lon="5.27503">
        <ele>220</ele>
        <time>2021-06-06T06:55:20.444Z</time>
      </trkpt>
      <trkpt lat="45.61839" lon="5.27496">
        <ele>220</ele>
        <time>2021-06-06T06:55:21.444Z</time>
      </trkpt>
      <trkpt lat="45.61843" lon="5.27491">
        <ele>220</ele>
        <time>2021-06-06T06:55:22.444Z</time>
      </trkpt>
      <trkpt lat="45.61847" lon="5.27489">
        <ele>219</ele>
        <time>2021-06-06T06:55:23.443Z</time>
      </trkpt>
      <trkpt lat="45.61853" lon="5.27489">
        <ele>219</ele>
        <time>2021-06-06T06:55:24.444Z</time>
      </trkpt>
      <trkpt lat="45.61858" lon="5.27491">
        <ele>219</ele>
        <time>2021-06-06T06:55:25.443Z</time>
      </trkpt>
      <trkpt lat="45.61864" lon="5.27493">
        <ele>219</ele>
        <time>2021-06-06T06:55:26.444Z</time>
      </trkpt>
      <trkpt lat="45.61869" lon="5.27497">
        <ele>219</ele>
        <time>2021-06-06T06:55:27.443Z</time>
      </trkpt>
      <trkpt lat="45.61875" lon="5.27501">
        <ele>219</ele>
        <time>2021-06-06T06:55:28.443Z</time>
      </trkpt>
      <trkpt lat="45.61881" lon="5.27505">
        <ele>219</ele>
        <time>2021-06-06T06:55:29.444Z</time>
      </trkpt>
      <trkpt lat="45.61885" lon="5.27511">
        <ele>218</ele>
        <time>2021-06-06T06:55:30.444Z</time>
      </trkpt>
      <trkpt lat="45.61891" lon="5.27516">
        <ele>218</ele>
        <time>2021-06-06T06:55:31.443Z</time>
      </trkpt>
      <trkpt lat="45.61898" lon="5.2752">
        <ele>218</ele>
        <time>2021-06-06T06:55:32.443Z</time>
      </trkpt>
      <trkpt lat="45.61904" lon="5.27524">
        <ele>218</ele>
        <time>2021-06-06T06:55:33.443Z</time>
      </trkpt>
      <trkpt lat="45.61908" lon="5.27528">
        <ele>218</ele>
        <time>2021-06-06T06:55:34.443Z</time>
      </trkpt>
      <trkpt lat="45.61913" lon="5.27532">
        <ele>217</ele>
        <time>2021-06-06T06:55:35.443Z</time>
      </trkpt>
      <trkpt lat="45.61918" lon="5.27536">
        <ele>217</ele>
        <time>2021-06-06T06:55:36.444Z</time>
      </trkpt>
      <trkpt lat="45.61923" lon="5.2754">
        <ele>217</ele>
        <time>2021-06-06T06:55:37.443Z</time>
      </trkpt>
      <trkpt lat="45.61928" lon="5.27544">
        <ele>217</ele>
        <time>2021-06-06T06:55:38.443Z</time>
      </trkpt>
      <trkpt lat="45.61932" lon="5.27548">
        <ele>217</ele>
        <time>2021-06-06T06:55:39.444Z</time>
      </trkpt>
      <trkpt lat="45.61936" lon="5.27551">
        <ele>217</ele>
        <time>2021-06-06T06:55:40.444Z</time>
      </trkpt>
      <trkpt lat="45.6194" lon="5.27555">
        <ele>217</ele>
        <time>2021-06-06T06:55:41.444Z</time>
      </trkpt>
      <trkpt lat="45.61943" lon="5.27559">
        <ele>217</ele>
        <time>2021-06-06T06:55:42.443Z</time>
      </trkpt>
      <trkpt lat="45.61947" lon="5.27563">
        <ele>217</ele>
        <time>2021-06-06T06:55:43.444Z</time>
      </trkpt>
      <trkpt lat="45.61951" lon="5.27568">
        <ele>217</ele>
        <time>2021-06-06T06:55:44.444Z</time>
      </trkpt>
      <trkpt lat="45.61955" lon="5.27572">
        <ele>217</ele>
        <time>2021-06-06T06:55:45.444Z</time>
      </trkpt>
      <trkpt lat="45.61959" lon="5.27576">
        <ele>217</ele>
        <time>2021-06-06T06:55:46.444Z</time>
      </trkpt>
      <trkpt lat="45.61963" lon="5.27581">
        <ele>217</ele>
        <time>2021-06-06T06:55:47.444Z</time>
      </trkpt>
      <trkpt lat="45.61967" lon="5.27586">
        <ele>217</ele>
        <time>2021-06-06T06:55:48.443Z</time>
      </trkpt>
      <trkpt lat="45.6197" lon="5.2759">
        <ele>217</ele>
        <time>2021-06-06T06:55:49.443Z</time>
      </trkpt>
      <trkpt lat="45.61974" lon="5.27595">
        <ele>217</ele>
        <time>2021-06-06T06:55:50.444Z</time>
      </trkpt>
      <trkpt lat="45.61977" lon="5.27601">
        <ele>218</ele>
        <time>2021-06-06T06:55:51.444Z</time>
      </trkpt>
      <trkpt lat="45.6198" lon="5.27607">
        <ele>218</ele>
        <time>2021-06-06T06:55:52.443Z</time>
      </trkpt>
      <trkpt lat="45.61982" lon="5.27612">
        <ele>218</ele>
        <time>2021-06-06T06:55:53.444Z</time>
      </trkpt>
      <trkpt lat="45.61985" lon="5.27617">
        <ele>218</ele>
        <time>2021-06-06T06:55:54.443Z</time>
      </trkpt>
      <trkpt lat="45.61989" lon="5.2762">
        <ele>218</ele>
        <time>2021-06-06T06:55:55.444Z</time>
      </trkpt>
      <trkpt lat="45.61991" lon="5.27623">
        <ele>219</ele>
        <time>2021-06-06T06:55:56.444Z</time>
      </trkpt>
      <trkpt lat="45.61994" lon="5.27625">
        <ele>219</ele>
        <time>2021-06-06T06:55:57.444Z</time>
      </trkpt>
      <trkpt lat="45.61996" lon="5.27628">
        <ele>219</ele>
        <time>2021-06-06T06:55:58.444Z</time>
      </trkpt>
      <trkpt lat="45.61999" lon="5.27631">
        <ele>219</ele>
        <time>2021-06-06T06:55:59.444Z</time>
      </trkpt>
      <trkpt lat="45.62001" lon="5.27635">
        <ele>219</ele>
        <time>2021-06-06T06:56:00.444Z</time>
      </trkpt>
      <trkpt lat="45.62003" lon="5.27641">
        <ele>219</ele>
        <time>2021-06-06T06:56:01.444Z</time>
      </trkpt>
      <trkpt lat="45.62006" lon="5.27647">
        <ele>220</ele>
        <time>2021-06-06T06:56:02.443Z</time>
      </trkpt>
      <trkpt lat="45.62007" lon="5.27652">
        <ele>220</ele>
        <time>2021-06-06T06:56:03.443Z</time>
      </trkpt>
      <trkpt lat="45.62009" lon="5.27659">
        <ele>220</ele>
        <time>2021-06-06T06:56:04.443Z</time>
      </trkpt>
      <trkpt lat="45.62011" lon="5.27665">
        <ele>220</ele>
        <time>2021-06-06T06:56:05.444Z</time>
      </trkpt>
      <trkpt lat="45.62013" lon="5.27671">
        <ele>220</ele>
        <time>2021-06-06T06:56:06.444Z</time>
      </trkpt>
      <trkpt lat="45.62015" lon="5.27677">
        <ele>220</ele>
        <time>2021-06-06T06:56:07.444Z</time>
      </trkpt>
      <trkpt lat="45.62017" lon="5.27684">
        <ele>220</ele>
        <time>2021-06-06T06:56:08.443Z</time>
      </trkpt>
      <trkpt lat="45.62019" lon="5.2769">
        <ele>220</ele>
        <time>2021-06-06T06:56:09.444Z</time>
      </trkpt>
      <trkpt lat="45.6202" lon="5.27696">
        <ele>220</ele>
        <time>2021-06-06T06:56:10.444Z</time>
      </trkpt>
      <trkpt lat="45.62022" lon="5.27701">
        <ele>220</ele>
        <time>2021-06-06T06:56:11.444Z</time>
      </trkpt>
      <trkpt lat="45.62024" lon="5.27707">
        <ele>220</ele>
        <time>2021-06-06T06:56:12.444Z</time>
      </trkpt>
      <trkpt lat="45.62025" lon="5.27713">
        <ele>221</ele>
        <time>2021-06-06T06:56:13.443Z</time>
      </trkpt>
      <trkpt lat="45.62027" lon="5.27719">
        <ele>221</ele>
        <time>2021-06-06T06:56:14.444Z</time>
      </trkpt>
      <trkpt lat="45.62028" lon="5.27724">
        <ele>221</ele>
        <time>2021-06-06T06:56:15.444Z</time>
      </trkpt>
      <trkpt lat="45.6203" lon="5.2773">
        <ele>221</ele>
        <time>2021-06-06T06:56:16.444Z</time>
      </trkpt>
      <trkpt lat="45.62032" lon="5.27735">
        <ele>221</ele>
        <time>2021-06-06T06:56:17.443Z</time>
      </trkpt>
      <trkpt lat="45.62034" lon="5.27741">
        <ele>221</ele>
        <time>2021-06-06T06:56:18.444Z</time>
      </trkpt>
      <trkpt lat="45.62035" lon="5.27746">
        <ele>221</ele>
        <time>2021-06-06T06:56:19.444Z</time>
      </trkpt>
      <trkpt lat="45.62037" lon="5.27753">
        <ele>221</ele>
        <time>2021-06-06T06:56:20.443Z</time>
      </trkpt>
      <trkpt lat="45.62038" lon="5.27757">
        <ele>221</ele>
        <time>2021-06-06T06:56:21.443Z</time>
      </trkpt>
      <trkpt lat="45.6204" lon="5.27762">
        <ele>221</ele>
        <time>2021-06-06T06:56:22.443Z</time>
      </trkpt>
      <trkpt lat="45.62042" lon="5.27768">
        <ele>221</ele>
        <time>2021-06-06T06:56:23.443Z</time>
      </trkpt>
      <trkpt lat="45.62044" lon="5.27773">
        <ele>221</ele>
        <time>2021-06-06T06:56:24.444Z</time>
      </trkpt>
      <trkpt lat="45.62045" lon="5.27779">
        <ele>222</ele>
        <time>2021-06-06T06:56:25.443Z</time>
      </trkpt>
      <trkpt lat="45.62047" lon="5.27784">
        <ele>222</ele>
        <time>2021-06-06T06:56:26.444Z</time>
      </trkpt>
      <trkpt lat="45.62049" lon="5.27789">
        <ele>222</ele>
        <time>2021-06-06T06:56:27.443Z</time>
      </trkpt>
      <trkpt lat="45.62051" lon="5.27795">
        <ele>222</ele>
        <time>2021-06-06T06:56:28.444Z</time>
      </trkpt>
      <trkpt lat="45.62053" lon="5.27801">
        <ele>222</ele>
        <time>2021-06-06T06:56:29.444Z</time>
      </trkpt>
      <trkpt lat="45.62055" lon="5.27806">
        <ele>222</ele>
        <time>2021-06-06T06:56:30.444Z</time>
      </trkpt>
      <trkpt lat="45.62056" lon="5.27811">
        <ele>222</ele>
        <time>2021-06-06T06:56:31.444Z</time>
      </trkpt>
      <trkpt lat="45.62059" lon="5.27817">
        <ele>223</ele>
        <time>2021-06-06T06:56:32.444Z</time>
      </trkpt>
      <trkpt lat="45.62061" lon="5.27822">
        <ele>223</ele>
        <time>2021-06-06T06:56:33.444Z</time>
      </trkpt>
      <trkpt lat="45.62063" lon="5.27827">
        <ele>223</ele>
        <time>2021-06-06T06:56:34.444Z</time>
      </trkpt>
      <trkpt lat="45.62064" lon="5.27831">
        <ele>224</ele>
        <time>2021-06-06T06:56:35.444Z</time>
      </trkpt>
      <trkpt lat="45.62066" lon="5.27835">
        <ele>224</ele>
        <time>2021-06-06T06:56:36.444Z</time>
      </trkpt>
      <trkpt lat="45.62068" lon="5.2784">
        <ele>224</ele>
        <time>2021-06-06T06:56:37.444Z</time>
      </trkpt>
      <trkpt lat="45.6207" lon="5.27845">
        <ele>225</ele>
        <time>2021-06-06T06:56:38.444Z</time>
      </trkpt>
      <trkpt lat="45.62073" lon="5.2785">
        <ele>225</ele>
        <time>2021-06-06T06:56:39.444Z</time>
      </trkpt>
      <trkpt lat="45.62075" lon="5.27853">
        <ele>225</ele>
        <time>2021-06-06T06:56:40.444Z</time>
      </trkpt>
      <trkpt lat="45.62077" lon="5.27858">
        <ele>225</ele>
        <time>2021-06-06T06:56:41.444Z</time>
      </trkpt>
      <trkpt lat="45.6208" lon="5.27864">
        <ele>226</ele>
        <time>2021-06-06T06:56:42.444Z</time>
      </trkpt>
      <trkpt lat="45.62082" lon="5.27869">
        <ele>226</ele>
        <time>2021-06-06T06:56:43.444Z</time>
      </trkpt>
      <trkpt lat="45.62084" lon="5.27873">
        <ele>226</ele>
        <time>2021-06-06T06:56:44.444Z</time>
      </trkpt>
      <trkpt lat="45.62086" lon="5.27878">
        <ele>226</ele>
        <time>2021-06-06T06:56:45.444Z</time>
      </trkpt>
      <trkpt lat="45.62088" lon="5.27883">
        <ele>226</ele>
        <time>2021-06-06T06:56:46.444Z</time>
      </trkpt>
      <trkpt lat="45.62091" lon="5.27888">
        <ele>227</ele>
        <time>2021-06-06T06:56:47.443Z</time>
      </trkpt>
      <trkpt lat="45.62093" lon="5.27894">
        <ele>227</ele>
        <time>2021-06-06T06:56:48.443Z</time>
      </trkpt>
      <trkpt lat="45.62095" lon="5.27898">
        <ele>227</ele>
        <time>2021-06-06T06:56:49.444Z</time>
      </trkpt>
      <trkpt lat="45.62098" lon="5.27902">
        <ele>227</ele>
        <time>2021-06-06T06:56:50.444Z</time>
      </trkpt>
      <trkpt lat="45.621" lon="5.27907">
        <ele>227</ele>
        <time>2021-06-06T06:56:51.444Z</time>
      </trkpt>
      <trkpt lat="45.62102" lon="5.27913">
        <ele>226</ele>
        <time>2021-06-06T06:56:52.443Z</time>
      </trkpt>
      <trkpt lat="45.62104" lon="5.27916">
        <ele>226</ele>
        <time>2021-06-06T06:56:53.444Z</time>
      </trkpt>
      <trkpt lat="45.62107" lon="5.27921">
        <ele>226</ele>
        <time>2021-06-06T06:56:54.444Z</time>
      </trkpt>
      <trkpt lat="45.6211" lon="5.27927">
        <ele>227</ele>
        <time>2021-06-06T06:56:55.444Z</time>
      </trkpt>
      <trkpt lat="45.62111" lon="5.27931">
        <ele>227</ele>
        <time>2021-06-06T06:56:56.444Z</time>
      </trkpt>
      <trkpt lat="45.62114" lon="5.27936">
        <ele>227</ele>
        <time>2021-06-06T06:56:57.444Z</time>
      </trkpt>
      <trkpt lat="45.62117" lon="5.2794">
        <ele>227</ele>
        <time>2021-06-06T06:56:58.444Z</time>
      </trkpt>
      <trkpt lat="45.62119" lon="5.27945">
        <ele>227</ele>
        <time>2021-06-06T06:56:59.444Z</time>
      </trkpt>
      <trkpt lat="45.62122" lon="5.2795">
        <ele>227</ele>
        <time>2021-06-06T06:57:00.444Z</time>
      </trkpt>
      <trkpt lat="45.62125" lon="5.27955">
        <ele>227</ele>
        <time>2021-06-06T06:57:01.444Z</time>
      </trkpt>
      <trkpt lat="45.62128" lon="5.27959">
        <ele>227</ele>
        <time>2021-06-06T06:57:02.444Z</time>
      </trkpt>
      <trkpt lat="45.6213" lon="5.27964">
        <ele>227</ele>
        <time>2021-06-06T06:57:03.443Z</time>
      </trkpt>
      <trkpt lat="45.62134" lon="5.27969">
        <ele>227</ele>
        <time>2021-06-06T06:57:04.443Z</time>
      </trkpt>
      <trkpt lat="45.62136" lon="5.27973">
        <ele>227</ele>
        <time>2021-06-06T06:57:05.444Z</time>
      </trkpt>
      <trkpt lat="45.62139" lon="5.27978">
        <ele>227</ele>
        <time>2021-06-06T06:57:06.443Z</time>
      </trkpt>
      <trkpt lat="45.62142" lon="5.27982">
        <ele>227</ele>
        <time>2021-06-06T06:57:07.444Z</time>
      </trkpt>
      <trkpt lat="45.62146" lon="5.27987">
        <ele>227</ele>
        <time>2021-06-06T06:57:08.444Z</time>
      </trkpt>
      <trkpt lat="45.62149" lon="5.27992">
        <ele>227</ele>
        <time>2021-06-06T06:57:09.444Z</time>
      </trkpt>
      <trkpt lat="45.62152" lon="5.27997">
        <ele>228</ele>
        <time>2021-06-06T06:57:10.444Z</time>
      </trkpt>
      <trkpt lat="45.62155" lon="5.28001">
        <ele>228</ele>
        <time>2021-06-06T06:57:11.444Z</time>
      </trkpt>
      <trkpt lat="45.62159" lon="5.28006">
        <ele>228</ele>
        <time>2021-06-06T06:57:12.443Z</time>
      </trkpt>
      <trkpt lat="45.62162" lon="5.28011">
        <ele>228</ele>
        <time>2021-06-06T06:57:13.444Z</time>
      </trkpt>
      <trkpt lat="45.62165" lon="5.28016">
        <ele>228</ele>
        <time>2021-06-06T06:57:14.444Z</time>
      </trkpt>
      <trkpt lat="45.62168" lon="5.28021">
        <ele>229</ele>
        <time>2021-06-06T06:57:15.444Z</time>
      </trkpt>
      <trkpt lat="45.62171" lon="5.28026">
        <ele>228</ele>
        <time>2021-06-06T06:57:16.443Z</time>
      </trkpt>
      <trkpt lat="45.62175" lon="5.2803">
        <ele>228</ele>
        <time>2021-06-06T06:57:17.444Z</time>
      </trkpt>
      <trkpt lat="45.62179" lon="5.28035">
        <ele>228</ele>
        <time>2021-06-06T06:57:18.443Z</time>
      </trkpt>
      <trkpt lat="45.62183" lon="5.28041">
        <ele>228</ele>
        <time>2021-06-06T06:57:19.444Z</time>
      </trkpt>
      <trkpt lat="45.62187" lon="5.28047">
        <ele>228</ele>
        <time>2021-06-06T06:57:20.443Z</time>
      </trkpt>
      <trkpt lat="45.62191" lon="5.28051">
        <ele>227</ele>
        <time>2021-06-06T06:57:21.443Z</time>
      </trkpt>
      <trkpt lat="45.62195" lon="5.28057">
        <ele>227</ele>
        <time>2021-06-06T06:57:22.444Z</time>
      </trkpt>
      <trkpt lat="45.622" lon="5.28063">
        <ele>227</ele>
        <time>2021-06-06T06:57:23.444Z</time>
      </trkpt>
      <trkpt lat="45.62203" lon="5.28067">
        <ele>227</ele>
        <time>2021-06-06T06:57:24.444Z</time>
      </trkpt>
      <trkpt lat="45.62208" lon="5.28073">
        <ele>227</ele>
        <time>2021-06-06T06:57:25.444Z</time>
      </trkpt>
      <trkpt lat="45.62212" lon="5.28078">
        <ele>227</ele>
        <time>2021-06-06T06:57:26.444Z</time>
      </trkpt>
      <trkpt lat="45.62218" lon="5.28085">
        <ele>227</ele>
        <time>2021-06-06T06:57:27.443Z</time>
      </trkpt>
      <trkpt lat="45.62222" lon="5.28091">
        <ele>227</ele>
        <time>2021-06-06T06:57:28.443Z</time>
      </trkpt>
      <trkpt lat="45.62228" lon="5.28098">
        <ele>227</ele>
        <time>2021-06-06T06:57:29.443Z</time>
      </trkpt>
      <trkpt lat="45.62233" lon="5.28104">
        <ele>227</ele>
        <time>2021-06-06T06:57:30.444Z</time>
      </trkpt>
      <trkpt lat="45.62238" lon="5.2811">
        <ele>227</ele>
        <time>2021-06-06T06:57:31.443Z</time>
      </trkpt>
      <trkpt lat="45.62244" lon="5.28117">
        <ele>227</ele>
        <time>2021-06-06T06:57:32.444Z</time>
      </trkpt>
      <trkpt lat="45.6225" lon="5.28125">
        <ele>226</ele>
        <time>2021-06-06T06:57:33.444Z</time>
      </trkpt>
      <trkpt lat="45.62256" lon="5.28132">
        <ele>226</ele>
        <time>2021-06-06T06:57:34.444Z</time>
      </trkpt>
      <trkpt lat="45.62261" lon="5.28137">
        <ele>226</ele>
        <time>2021-06-06T06:57:35.443Z</time>
      </trkpt>
      <trkpt lat="45.62266" lon="5.28144">
        <ele>226</ele>
        <time>2021-06-06T06:57:36.444Z</time>
      </trkpt>
      <trkpt lat="45.62272" lon="5.28152">
        <ele>226</ele>
        <time>2021-06-06T06:57:37.443Z</time>
      </trkpt>
      <trkpt lat="45.62279" lon="5.28159">
        <ele>225</ele>
        <time>2021-06-06T06:57:38.444Z</time>
      </trkpt>
      <trkpt lat="45.62285" lon="5.28166">
        <ele>225</ele>
        <time>2021-06-06T06:57:39.443Z</time>
      </trkpt>
      <trkpt lat="45.62291" lon="5.28174">
        <ele>225</ele>
        <time>2021-06-06T06:57:40.444Z</time>
      </trkpt>
      <trkpt lat="45.62297" lon="5.28182">
        <ele>224</ele>
        <time>2021-06-06T06:57:41.444Z</time>
      </trkpt>
      <trkpt lat="45.62303" lon="5.2819">
        <ele>224</ele>
        <time>2021-06-06T06:57:42.444Z</time>
      </trkpt>
      <trkpt lat="45.62311" lon="5.282">
        <ele>224</ele>
        <time>2021-06-06T06:57:43.444Z</time>
      </trkpt>
      <trkpt lat="45.62316" lon="5.28206">
        <ele>224</ele>
        <time>2021-06-06T06:57:44.444Z</time>
      </trkpt>
      <trkpt lat="45.62322" lon="5.28214">
        <ele>224</ele>
        <time>2021-06-06T06:57:45.444Z</time>
      </trkpt>
      <trkpt lat="45.6233" lon="5.28224">
        <ele>223</ele>
        <time>2021-06-06T06:57:46.444Z</time>
      </trkpt>
      <trkpt lat="45.62335" lon="5.2823">
        <ele>223</ele>
        <time>2021-06-06T06:57:47.444Z</time>
      </trkpt>
      <trkpt lat="45.62341" lon="5.28238">
        <ele>223</ele>
        <time>2021-06-06T06:57:48.444Z</time>
      </trkpt>
      <trkpt lat="45.62347" lon="5.28246">
        <ele>222</ele>
        <time>2021-06-06T06:57:49.444Z</time>
      </trkpt>
      <trkpt lat="45.62354" lon="5.28253">
        <ele>222</ele>
        <time>2021-06-06T06:57:50.444Z</time>
      </trkpt>
      <trkpt lat="45.6236" lon="5.28261">
        <ele>222</ele>
        <time>2021-06-06T06:57:51.444Z</time>
      </trkpt>
      <trkpt lat="45.62366" lon="5.2827">
        <ele>221</ele>
        <time>2021-06-06T06:57:52.444Z</time>
      </trkpt>
      <trkpt lat="45.62371" lon="5.28276">
        <ele>221</ele>
        <time>2021-06-06T06:57:53.444Z</time>
      </trkpt>
      <trkpt lat="45.62376" lon="5.28283">
        <ele>221</ele>
        <time>2021-06-06T06:57:54.443Z</time>
      </trkpt>
      <trkpt lat="45.62383" lon="5.28292">
        <ele>221</ele>
        <time>2021-06-06T06:57:55.444Z</time>
      </trkpt>
      <trkpt lat="45.62387" lon="5.28298">
        <ele>220</ele>
        <time>2021-06-06T06:57:56.444Z</time>
      </trkpt>
      <trkpt lat="45.62393" lon="5.28305">
        <ele>220</ele>
        <time>2021-06-06T06:57:57.444Z</time>
      </trkpt>
      <trkpt lat="45.62399" lon="5.28313">
        <ele>220</ele>
        <time>2021-06-06T06:57:58.443Z</time>
      </trkpt>
      <trkpt lat="45.62405" lon="5.2832">
        <ele>220</ele>
        <time>2021-06-06T06:57:59.443Z</time>
      </trkpt>
      <trkpt lat="45.62411" lon="5.28327">
        <ele>220</ele>
        <time>2021-06-06T06:58:00.444Z</time>
      </trkpt>
      <trkpt lat="45.62418" lon="5.28336">
        <ele>219</ele>
        <time>2021-06-06T06:58:01.444Z</time>
      </trkpt>
      <trkpt lat="45.62424" lon="5.28343">
        <ele>219</ele>
        <time>2021-06-06T06:58:02.444Z</time>
      </trkpt>
      <trkpt lat="45.62428" lon="5.28348">
        <ele>219</ele>
        <time>2021-06-06T06:58:03.444Z</time>
      </trkpt>
      <trkpt lat="45.62433" lon="5.28355">
        <ele>219</ele>
        <time>2021-06-06T06:58:04.443Z</time>
      </trkpt>
      <trkpt lat="45.62438" lon="5.28362">
        <ele>219</ele>
        <time>2021-06-06T06:58:05.444Z</time>
      </trkpt>
      <trkpt lat="45.62444" lon="5.2837">
        <ele>219</ele>
        <time>2021-06-06T06:58:06.444Z</time>
      </trkpt>
      <trkpt lat="45.62448" lon="5.28375">
        <ele>219</ele>
        <time>2021-06-06T06:58:07.444Z</time>
      </trkpt>
      <trkpt lat="45.62453" lon="5.28382">
        <ele>219</ele>
        <time>2021-06-06T06:58:08.444Z</time>
      </trkpt>
      <trkpt lat="45.62458" lon="5.2839">
        <ele>219</ele>
        <time>2021-06-06T06:58:09.444Z</time>
      </trkpt>
      <trkpt lat="45.62461" lon="5.28396">
        <ele>219</ele>
        <time>2021-06-06T06:58:10.444Z</time>
      </trkpt>
      <trkpt lat="45.62465" lon="5.28403">
        <ele>219</ele>
        <time>2021-06-06T06:58:11.443Z</time>
      </trkpt>
      <trkpt lat="45.62468" lon="5.2841">
        <ele>219</ele>
        <time>2021-06-06T06:58:12.444Z</time>
      </trkpt>
      <trkpt lat="45.62472" lon="5.28419">
        <ele>219</ele>
        <time>2021-06-06T06:58:13.444Z</time>
      </trkpt>
      <trkpt lat="45.62474" lon="5.28425">
        <ele>218</ele>
        <time>2021-06-06T06:58:14.443Z</time>
      </trkpt>
      <trkpt lat="45.62477" lon="5.28435">
        <ele>218</ele>
        <time>2021-06-06T06:58:15.443Z</time>
      </trkpt>
      <trkpt lat="45.62478" lon="5.28442">
        <ele>218</ele>
        <time>2021-06-06T06:58:16.444Z</time>
      </trkpt>
      <trkpt lat="45.6248" lon="5.2845">
        <ele>218</ele>
        <time>2021-06-06T06:58:17.443Z</time>
      </trkpt>
      <trkpt lat="45.62482" lon="5.28459">
        <ele>218</ele>
        <time>2021-06-06T06:58:18.444Z</time>
      </trkpt>
      <trkpt lat="45.62484" lon="5.28467">
        <ele>218</ele>
        <time>2021-06-06T06:58:19.444Z</time>
      </trkpt>
      <trkpt lat="45.62485" lon="5.28476">
        <ele>218</ele>
        <time>2021-06-06T06:58:20.443Z</time>
      </trkpt>
      <trkpt lat="45.62486" lon="5.28485">
        <ele>218</ele>
        <time>2021-06-06T06:58:21.444Z</time>
      </trkpt>
      <trkpt lat="45.62487" lon="5.28493">
        <ele>218</ele>
        <time>2021-06-06T06:58:22.444Z</time>
      </trkpt>
      <trkpt lat="45.62488" lon="5.28502">
        <ele>219</ele>
        <time>2021-06-06T06:58:23.444Z</time>
      </trkpt>
      <trkpt lat="45.6249" lon="5.2851">
        <ele>219</ele>
        <time>2021-06-06T06:58:24.444Z</time>
      </trkpt>
      <trkpt lat="45.62492" lon="5.2852">
        <ele>219</ele>
        <time>2021-06-06T06:58:25.444Z</time>
      </trkpt>
      <trkpt lat="45.62493" lon="5.28527">
        <ele>219</ele>
        <time>2021-06-06T06:58:26.443Z</time>
      </trkpt>
      <trkpt lat="45.62496" lon="5.28537">
        <ele>220</ele>
        <time>2021-06-06T06:58:27.443Z</time>
      </trkpt>
      <trkpt lat="45.62498" lon="5.28543">
        <ele>220</ele>
        <time>2021-06-06T06:58:28.444Z</time>
      </trkpt>
      <trkpt lat="45.62501" lon="5.2855">
        <ele>220</ele>
        <time>2021-06-06T06:58:29.444Z</time>
      </trkpt>
      <trkpt lat="45.62504" lon="5.28557">
        <ele>220</ele>
        <time>2021-06-06T06:58:30.444Z</time>
      </trkpt>
      <trkpt lat="45.62508" lon="5.28563">
        <ele>220</ele>
        <time>2021-06-06T06:58:31.444Z</time>
      </trkpt>
      <trkpt lat="45.62512" lon="5.2857">
        <ele>220</ele>
        <time>2021-06-06T06:58:32.444Z</time>
      </trkpt>
      <trkpt lat="45.62517" lon="5.28577">
        <ele>220</ele>
        <time>2021-06-06T06:58:33.444Z</time>
      </trkpt>
      <trkpt lat="45.6252" lon="5.28582">
        <ele>220</ele>
        <time>2021-06-06T06:58:34.444Z</time>
      </trkpt>
      <trkpt lat="45.62525" lon="5.28587">
        <ele>220</ele>
        <time>2021-06-06T06:58:35.444Z</time>
      </trkpt>
      <trkpt lat="45.62529" lon="5.28593">
        <ele>220</ele>
        <time>2021-06-06T06:58:36.443Z</time>
      </trkpt>
      <trkpt lat="45.62533" lon="5.28599">
        <ele>221</ele>
        <time>2021-06-06T06:58:37.444Z</time>
      </trkpt>
      <trkpt lat="45.62538" lon="5.28607">
        <ele>221</ele>
        <time>2021-06-06T06:58:38.444Z</time>
      </trkpt>
      <trkpt lat="45.62541" lon="5.28612">
        <ele>221</ele>
        <time>2021-06-06T06:58:39.443Z</time>
      </trkpt>
      <trkpt lat="45.62545" lon="5.28619">
        <ele>221</ele>
        <time>2021-06-06T06:58:40.444Z</time>
      </trkpt>
      <trkpt lat="45.62549" lon="5.28626">
        <ele>221</ele>
        <time>2021-06-06T06:58:41.444Z</time>
      </trkpt>
      <trkpt lat="45.62554" lon="5.28633">
        <ele>221</ele>
        <time>2021-06-06T06:58:42.444Z</time>
      </trkpt>
      <trkpt lat="45.62558" lon="5.28642">
        <ele>221</ele>
        <time>2021-06-06T06:58:43.444Z</time>
      </trkpt>
      <trkpt lat="45.62562" lon="5.28647">
        <ele>221</ele>
        <time>2021-06-06T06:58:44.444Z</time>
      </trkpt>
      <trkpt lat="45.62566" lon="5.28654">
        <ele>221</ele>
        <time>2021-06-06T06:58:45.444Z</time>
      </trkpt>
      <trkpt lat="45.62571" lon="5.28662">
        <ele>221</ele>
        <time>2021-06-06T06:58:46.444Z</time>
      </trkpt>
      <trkpt lat="45.62574" lon="5.28669">
        <ele>221</ele>
        <time>2021-06-06T06:58:47.444Z</time>
      </trkpt>
      <trkpt lat="45.62576" lon="5.28675">
        <ele>221</ele>
        <time>2021-06-06T06:58:48.444Z</time>
      </trkpt>
      <trkpt lat="45.62579" lon="5.28682">
        <ele>221</ele>
        <time>2021-06-06T06:58:49.444Z</time>
      </trkpt>
      <trkpt lat="45.62581" lon="5.2869">
        <ele>221</ele>
        <time>2021-06-06T06:58:50.444Z</time>
      </trkpt>
      <trkpt lat="45.62583" lon="5.28695">
        <ele>221</ele>
        <time>2021-06-06T06:58:51.444Z</time>
      </trkpt>
      <trkpt lat="45.62586" lon="5.28703">
        <ele>221</ele>
        <time>2021-06-06T06:58:52.444Z</time>
      </trkpt>
      <trkpt lat="45.62589" lon="5.28706">
        <ele>220</ele>
        <time>2021-06-06T06:58:53.444Z</time>
      </trkpt>
      <trkpt lat="45.62592" lon="5.2871">
        <ele>220</ele>
        <time>2021-06-06T06:58:54.443Z</time>
      </trkpt>
      <trkpt lat="45.62597" lon="5.28712">
        <ele>220</ele>
        <time>2021-06-06T06:58:55.443Z</time>
      </trkpt>
      <trkpt lat="45.62602" lon="5.28712">
        <ele>219</ele>
        <time>2021-06-06T06:58:56.444Z</time>
      </trkpt>
      <trkpt lat="45.62606" lon="5.28711">
        <ele>219</ele>
        <time>2021-06-06T06:58:57.444Z</time>
      </trkpt>
      <trkpt lat="45.62612" lon="5.28708">
        <ele>219</ele>
        <time>2021-06-06T06:58:58.443Z</time>
      </trkpt>
      <trkpt lat="45.62617" lon="5.28706">
        <ele>219</ele>
        <time>2021-06-06T06:58:59.444Z</time>
      </trkpt>
      <trkpt lat="45.62623" lon="5.28704">
        <ele>219</ele>
        <time>2021-06-06T06:59:00.443Z</time>
      </trkpt>
      <trkpt lat="45.62629" lon="5.28703">
        <ele>219</ele>
        <time>2021-06-06T06:59:01.444Z</time>
      </trkpt>
      <trkpt lat="45.62635" lon="5.28704">
        <ele>219</ele>
        <time>2021-06-06T06:59:02.444Z</time>
      </trkpt>
      <trkpt lat="45.62641" lon="5.28704">
        <ele>219</ele>
        <time>2021-06-06T06:59:03.443Z</time>
      </trkpt>
      <trkpt lat="45.62647" lon="5.28705">
        <ele>219</ele>
        <time>2021-06-06T06:59:04.443Z</time>
      </trkpt>
      <trkpt lat="45.62655" lon="5.28707">
        <ele>219</ele>
        <time>2021-06-06T06:59:05.444Z</time>
      </trkpt>
      <trkpt lat="45.6266" lon="5.28707">
        <ele>219</ele>
        <time>2021-06-06T06:59:06.444Z</time>
      </trkpt>
      <trkpt lat="45.62666" lon="5.28709">
        <ele>219</ele>
        <time>2021-06-06T06:59:07.443Z</time>
      </trkpt>
      <trkpt lat="45.62673" lon="5.2871">
        <ele>218</ele>
        <time>2021-06-06T06:59:08.443Z</time>
      </trkpt>
      <trkpt lat="45.62679" lon="5.28711">
        <ele>219</ele>
        <time>2021-06-06T06:59:09.444Z</time>
      </trkpt>
      <trkpt lat="45.62684" lon="5.28712">
        <ele>219</ele>
        <time>2021-06-06T06:59:10.444Z</time>
      </trkpt>
      <trkpt lat="45.6269" lon="5.28713">
        <ele>219</ele>
        <time>2021-06-06T06:59:11.444Z</time>
      </trkpt>
      <trkpt lat="45.62696" lon="5.28715">
        <ele>218</ele>
        <time>2021-06-06T06:59:12.444Z</time>
      </trkpt>
      <trkpt lat="45.62703" lon="5.28717">
        <ele>218</ele>
        <time>2021-06-06T06:59:13.444Z</time>
      </trkpt>
      <trkpt lat="45.62707" lon="5.28719">
        <ele>218</ele>
        <time>2021-06-06T06:59:14.444Z</time>
      </trkpt>
      <trkpt lat="45.62713" lon="5.28721">
        <ele>218</ele>
        <time>2021-06-06T06:59:15.444Z</time>
      </trkpt>
      <trkpt lat="45.62719" lon="5.28725">
        <ele>218</ele>
        <time>2021-06-06T06:59:16.444Z</time>
      </trkpt>
      <trkpt lat="45.62725" lon="5.2873">
        <ele>218</ele>
        <time>2021-06-06T06:59:17.444Z</time>
      </trkpt>
      <trkpt lat="45.6273" lon="5.28734">
        <ele>218</ele>
        <time>2021-06-06T06:59:18.444Z</time>
      </trkpt>
      <trkpt lat="45.62735" lon="5.28739">
        <ele>217</ele>
        <time>2021-06-06T06:59:19.444Z</time>
      </trkpt>
      <trkpt lat="45.62739" lon="5.28744">
        <ele>217</ele>
        <time>2021-06-06T06:59:20.444Z</time>
      </trkpt>
      <trkpt lat="45.62743" lon="5.28749">
        <ele>217</ele>
        <time>2021-06-06T06:59:21.443Z</time>
      </trkpt>
      <trkpt lat="45.62748" lon="5.28755">
        <ele>217</ele>
        <time>2021-06-06T06:59:22.444Z</time>
      </trkpt>
      <trkpt lat="45.62752" lon="5.28761">
        <ele>217</ele>
        <time>2021-06-06T06:59:23.444Z</time>
      </trkpt>
      <trkpt lat="45.62756" lon="5.28766">
        <ele>217</ele>
        <time>2021-06-06T06:59:24.444Z</time>
      </trkpt>
      <trkpt lat="45.6276" lon="5.28772">
        <ele>217</ele>
        <time>2021-06-06T06:59:25.443Z</time>
      </trkpt>
      <trkpt lat="45.62764" lon="5.28777">
        <ele>218</ele>
        <time>2021-06-06T06:59:26.443Z</time>
      </trkpt>
      <trkpt lat="45.62768" lon="5.28782">
        <ele>218</ele>
        <time>2021-06-06T06:59:27.444Z</time>
      </trkpt>
      <trkpt lat="45.62772" lon="5.28788">
        <ele>218</ele>
        <time>2021-06-06T06:59:28.444Z</time>
      </trkpt>
      <trkpt lat="45.62777" lon="5.28793">
        <ele>218</ele>
        <time>2021-06-06T06:59:29.443Z</time>
      </trkpt>
      <trkpt lat="45.62782" lon="5.28799">
        <ele>218</ele>
        <time>2021-06-06T06:59:30.444Z</time>
      </trkpt>
      <trkpt lat="45.62787" lon="5.28804">
        <ele>218</ele>
        <time>2021-06-06T06:59:31.444Z</time>
      </trkpt>
      <trkpt lat="45.62793" lon="5.28811">
        <ele>217</ele>
        <time>2021-06-06T06:59:32.444Z</time>
      </trkpt>
      <trkpt lat="45.62797" lon="5.28816">
        <ele>217</ele>
        <time>2021-06-06T06:59:33.444Z</time>
      </trkpt>
      <trkpt lat="45.62802" lon="5.28822">
        <ele>218</ele>
        <time>2021-06-06T06:59:34.444Z</time>
      </trkpt>
      <trkpt lat="45.62806" lon="5.28828">
        <ele>218</ele>
        <time>2021-06-06T06:59:35.444Z</time>
      </trkpt>
      <trkpt lat="45.62811" lon="5.28835">
        <ele>219</ele>
        <time>2021-06-06T06:59:36.444Z</time>
      </trkpt>
      <trkpt lat="45.62817" lon="5.28842">
        <ele>219</ele>
        <time>2021-06-06T06:59:37.443Z</time>
      </trkpt>
      <trkpt lat="45.62821" lon="5.28847">
        <ele>218</ele>
        <time>2021-06-06T06:59:38.444Z</time>
      </trkpt>
      <trkpt lat="45.62825" lon="5.28853">
        <ele>218</ele>
        <time>2021-06-06T06:59:39.444Z</time>
      </trkpt>
      <trkpt lat="45.6283" lon="5.28858">
        <ele>218</ele>
        <time>2021-06-06T06:59:40.444Z</time>
      </trkpt>
      <trkpt lat="45.62834" lon="5.28864">
        <ele>218</ele>
        <time>2021-06-06T06:59:41.444Z</time>
      </trkpt>
      <trkpt lat="45.62839" lon="5.2887">
        <ele>218</ele>
        <time>2021-06-06T06:59:42.443Z</time>
      </trkpt>
      <trkpt lat="45.62844" lon="5.28876">
        <ele>219</ele>
        <time>2021-06-06T06:59:43.444Z</time>
      </trkpt>
      <trkpt lat="45.62848" lon="5.28882">
        <ele>218</ele>
        <time>2021-06-06T06:59:44.444Z</time>
      </trkpt>
      <trkpt lat="45.62853" lon="5.28887">
        <ele>218</ele>
        <time>2021-06-06T06:59:45.444Z</time>
      </trkpt>
      <trkpt lat="45.62858" lon="5.28893">
        <ele>218</ele>
        <time>2021-06-06T06:59:46.443Z</time>
      </trkpt>
      <trkpt lat="45.62863" lon="5.28901">
        <ele>218</ele>
        <time>2021-06-06T06:59:47.443Z</time>
      </trkpt>
      <trkpt lat="45.62867" lon="5.28905">
        <ele>218</ele>
        <time>2021-06-06T06:59:48.443Z</time>
      </trkpt>
      <trkpt lat="45.62872" lon="5.28912">
        <ele>217</ele>
        <time>2021-06-06T06:59:49.444Z</time>
      </trkpt>
      <trkpt lat="45.62876" lon="5.28917">
        <ele>217</ele>
        <time>2021-06-06T06:59:50.444Z</time>
      </trkpt>
      <trkpt lat="45.62881" lon="5.28923">
        <ele>217</ele>
        <time>2021-06-06T06:59:51.443Z</time>
      </trkpt>
      <trkpt lat="45.62885" lon="5.28929">
        <ele>217</ele>
        <time>2021-06-06T06:59:52.444Z</time>
      </trkpt>
      <trkpt lat="45.6289" lon="5.28935">
        <ele>216</ele>
        <time>2021-06-06T06:59:53.444Z</time>
      </trkpt>
      <trkpt lat="45.62894" lon="5.28941">
        <ele>216</ele>
        <time>2021-06-06T06:59:54.443Z</time>
      </trkpt>
      <trkpt lat="45.629" lon="5.28947">
        <ele>216</ele>
        <time>2021-06-06T06:59:55.444Z</time>
      </trkpt>
      <trkpt lat="45.62904" lon="5.28953">
        <ele>217</ele>
        <time>2021-06-06T06:59:56.444Z</time>
      </trkpt>
      <trkpt lat="45.62907" lon="5.28957">
        <ele>217</ele>
        <time>2021-06-06T06:59:57.444Z</time>
      </trkpt>
      <trkpt lat="45.6291" lon="5.28963">
        <ele>217</ele>
        <time>2021-06-06T06:59:58.444Z</time>
      </trkpt>
      <trkpt lat="45.62915" lon="5.2897">
        <ele>217</ele>
        <time>2021-06-06T06:59:59.444Z</time>
      </trkpt>
      <trkpt lat="45.62919" lon="5.28975">
        <ele>217</ele>
        <time>2021-06-06T07:00:00.443Z</time>
      </trkpt>
      <trkpt lat="45.62923" lon="5.28981">
        <ele>217</ele>
        <time>2021-06-06T07:00:01.444Z</time>
      </trkpt>
      <trkpt lat="45.62928" lon="5.28987">
        <ele>217</ele>
        <time>2021-06-06T07:00:02.443Z</time>
      </trkpt>
      <trkpt lat="45.62932" lon="5.28992">
        <ele>217</ele>
        <time>2021-06-06T07:00:03.444Z</time>
      </trkpt>
      <trkpt lat="45.62937" lon="5.28998">
        <ele>217</ele>
        <time>2021-06-06T07:00:04.444Z</time>
      </trkpt>
      <trkpt lat="45.62941" lon="5.29004">
        <ele>218</ele>
        <time>2021-06-06T07:00:05.444Z</time>
      </trkpt>
      <trkpt lat="45.62946" lon="5.29009">
        <ele>218</ele>
        <time>2021-06-06T07:00:06.443Z</time>
      </trkpt>
      <trkpt lat="45.62952" lon="5.29016">
        <ele>218</ele>
        <time>2021-06-06T07:00:07.444Z</time>
      </trkpt>
      <trkpt lat="45.62955" lon="5.29021">
        <ele>218</ele>
        <time>2021-06-06T07:00:08.444Z</time>
      </trkpt>
      <trkpt lat="45.62961" lon="5.29028">
        <ele>218</ele>
        <time>2021-06-06T07:00:09.444Z</time>
      </trkpt>
      <trkpt lat="45.62964" lon="5.29033">
        <ele>218</ele>
        <time>2021-06-06T07:00:10.444Z</time>
      </trkpt>
      <trkpt lat="45.62969" lon="5.29039">
        <ele>218</ele>
        <time>2021-06-06T07:00:11.444Z</time>
      </trkpt>
      <trkpt lat="45.62974" lon="5.29046">
        <ele>217</ele>
        <time>2021-06-06T07:00:12.444Z</time>
      </trkpt>
      <trkpt lat="45.62978" lon="5.29052">
        <ele>217</ele>
        <time>2021-06-06T07:00:13.444Z</time>
      </trkpt>
      <trkpt lat="45.62983" lon="5.29058">
        <ele>217</ele>
        <time>2021-06-06T07:00:14.444Z</time>
      </trkpt>
      <trkpt lat="45.62987" lon="5.29063">
        <ele>217</ele>
        <time>2021-06-06T07:00:15.444Z</time>
      </trkpt>
      <trkpt lat="45.62992" lon="5.2907">
        <ele>216</ele>
        <time>2021-06-06T07:00:16.444Z</time>
      </trkpt>
      <trkpt lat="45.62996" lon="5.29075">
        <ele>216</ele>
        <time>2021-06-06T07:00:17.444Z</time>
      </trkpt>
      <trkpt lat="45.63001" lon="5.29081">
        <ele>216</ele>
        <time>2021-06-06T07:00:18.444Z</time>
      </trkpt>
      <trkpt lat="45.63005" lon="5.29086">
        <ele>216</ele>
        <time>2021-06-06T07:00:19.444Z</time>
      </trkpt>
      <trkpt lat="45.63009" lon="5.29092">
        <ele>217</ele>
        <time>2021-06-06T07:00:20.444Z</time>
      </trkpt>
      <trkpt lat="45.63015" lon="5.29099">
        <ele>217</ele>
        <time>2021-06-06T07:00:21.444Z</time>
      </trkpt>
      <trkpt lat="45.6302" lon="5.29105">
        <ele>217</ele>
        <time>2021-06-06T07:00:22.443Z</time>
      </trkpt>
      <trkpt lat="45.63023" lon="5.29109">
        <ele>216</ele>
        <time>2021-06-06T07:00:23.443Z</time>
      </trkpt>
      <trkpt lat="45.63028" lon="5.29115">
        <ele>216</ele>
        <time>2021-06-06T07:00:24.443Z</time>
      </trkpt>
      <trkpt lat="45.63033" lon="5.29122">
        <ele>216</ele>
        <time>2021-06-06T07:00:25.444Z</time>
      </trkpt>
      <trkpt lat="45.63037" lon="5.29127">
        <ele>217</ele>
        <time>2021-06-06T07:00:26.444Z</time>
      </trkpt>
      <trkpt lat="45.63042" lon="5.29133">
        <ele>216</ele>
        <time>2021-06-06T07:00:27.444Z</time>
      </trkpt>
      <trkpt lat="45.63047" lon="5.29139">
        <ele>216</ele>
        <time>2021-06-06T07:00:28.444Z</time>
      </trkpt>
      <trkpt lat="45.63052" lon="5.29144">
        <ele>216</ele>
        <time>2021-06-06T07:00:29.444Z</time>
      </trkpt>
      <trkpt lat="45.63058" lon="5.29152">
        <ele>216</ele>
        <time>2021-06-06T07:00:30.443Z</time>
      </trkpt>
      <trkpt lat="45.63063" lon="5.29158">
        <ele>216</ele>
        <time>2021-06-06T07:00:31.443Z</time>
      </trkpt>
      <trkpt lat="45.63068" lon="5.29165">
        <ele>215</ele>
        <time>2021-06-06T07:00:32.444Z</time>
      </trkpt>
      <trkpt lat="45.63072" lon="5.29169">
        <ele>215</ele>
        <time>2021-06-06T07:00:33.444Z</time>
      </trkpt>
      <trkpt lat="45.63076" lon="5.29175">
        <ele>216</ele>
        <time>2021-06-06T07:00:34.444Z</time>
      </trkpt>
      <trkpt lat="45.63082" lon="5.29182">
        <ele>216</ele>
        <time>2021-06-06T07:00:35.444Z</time>
      </trkpt>
      <trkpt lat="45.63087" lon="5.29188">
        <ele>216</ele>
        <time>2021-06-06T07:00:36.444Z</time>
      </trkpt>
      <trkpt lat="45.63091" lon="5.29193">
        <ele>216</ele>
        <time>2021-06-06T07:00:37.443Z</time>
      </trkpt>
      <trkpt lat="45.63095" lon="5.29199">
        <ele>216</ele>
        <time>2021-06-06T07:00:38.444Z</time>
      </trkpt>
      <trkpt lat="45.63101" lon="5.29206">
        <ele>216</ele>
        <time>2021-06-06T07:00:39.444Z</time>
      </trkpt>
      <trkpt lat="45.63106" lon="5.29212">
        <ele>216</ele>
        <time>2021-06-06T07:00:40.444Z</time>
      </trkpt>
      <trkpt lat="45.6311" lon="5.29217">
        <ele>216</ele>
        <time>2021-06-06T07:00:41.444Z</time>
      </trkpt>
      <trkpt lat="45.63114" lon="5.29222">
        <ele>215</ele>
        <time>2021-06-06T07:00:42.444Z</time>
      </trkpt>
      <trkpt lat="45.63119" lon="5.29228">
        <ele>215</ele>
        <time>2021-06-06T07:00:43.443Z</time>
      </trkpt>
      <trkpt lat="45.63123" lon="5.29234">
        <ele>215</ele>
        <time>2021-06-06T07:00:44.444Z</time>
      </trkpt>
      <trkpt lat="45.63127" lon="5.2924">
        <ele>215</ele>
        <time>2021-06-06T07:00:45.443Z</time>
      </trkpt>
      <trkpt lat="45.63132" lon="5.29245">
        <ele>215</ele>
        <time>2021-06-06T07:00:46.444Z</time>
      </trkpt>
      <trkpt lat="45.63136" lon="5.29251">
        <ele>215</ele>
        <time>2021-06-06T07:00:47.443Z</time>
      </trkpt>
      <trkpt lat="45.63141" lon="5.29256">
        <ele>215</ele>
        <time>2021-06-06T07:00:48.444Z</time>
      </trkpt>
      <trkpt lat="45.63145" lon="5.29262">
        <ele>216</ele>
        <time>2021-06-06T07:00:49.444Z</time>
      </trkpt>
      <trkpt lat="45.6315" lon="5.29267">
        <ele>216</ele>
        <time>2021-06-06T07:00:50.444Z</time>
      </trkpt>
      <trkpt lat="45.63154" lon="5.29273">
        <ele>216</ele>
        <time>2021-06-06T07:00:51.444Z</time>
      </trkpt>
      <trkpt lat="45.63159" lon="5.29279">
        <ele>217</ele>
        <time>2021-06-06T07:00:52.444Z</time>
      </trkpt>
      <trkpt lat="45.63163" lon="5.29285">
        <ele>217</ele>
        <time>2021-06-06T07:00:53.444Z</time>
      </trkpt>
      <trkpt lat="45.63169" lon="5.29291">
        <ele>217</ele>
        <time>2021-06-06T07:00:54.444Z</time>
      </trkpt>
      <trkpt lat="45.63173" lon="5.29297">
        <ele>217</ele>
        <time>2021-06-06T07:00:55.444Z</time>
      </trkpt>
      <trkpt lat="45.63177" lon="5.29302">
        <ele>217</ele>
        <time>2021-06-06T07:00:56.444Z</time>
      </trkpt>
      <trkpt lat="45.63182" lon="5.29307">
        <ele>217</ele>
        <time>2021-06-06T07:00:57.444Z</time>
      </trkpt>
      <trkpt lat="45.63188" lon="5.29314">
        <ele>217</ele>
        <time>2021-06-06T07:00:58.443Z</time>
      </trkpt>
      <trkpt lat="45.63192" lon="5.29319">
        <ele>218</ele>
        <time>2021-06-06T07:00:59.444Z</time>
      </trkpt>
      <trkpt lat="45.63196" lon="5.29324">
        <ele>218</ele>
        <time>2021-06-06T07:01:00.443Z</time>
      </trkpt>
      <trkpt lat="45.632" lon="5.2933">
        <ele>218</ele>
        <time>2021-06-06T07:01:01.444Z</time>
      </trkpt>
      <trkpt lat="45.63205" lon="5.29336">
        <ele>218</ele>
        <time>2021-06-06T07:01:02.444Z</time>
      </trkpt>
      <trkpt lat="45.6321" lon="5.29342">
        <ele>218</ele>
        <time>2021-06-06T07:01:03.443Z</time>
      </trkpt>
      <trkpt lat="45.63215" lon="5.2935">
        <ele>218</ele>
        <time>2021-06-06T07:01:04.444Z</time>
      </trkpt>
      <trkpt lat="45.63219" lon="5.29355">
        <ele>218</ele>
        <time>2021-06-06T07:01:05.444Z</time>
      </trkpt>
      <trkpt lat="45.63224" lon="5.29362">
        <ele>218</ele>
        <time>2021-06-06T07:01:06.444Z</time>
      </trkpt>
      <trkpt lat="45.63229" lon="5.29368">
        <ele>218</ele>
        <time>2021-06-06T07:01:07.444Z</time>
      </trkpt>
      <trkpt lat="45.63233" lon="5.29372">
        <ele>218</ele>
        <time>2021-06-06T07:01:08.444Z</time>
      </trkpt>
      <trkpt lat="45.63238" lon="5.29378">
        <ele>218</ele>
        <time>2021-06-06T07:01:09.444Z</time>
      </trkpt>
      <trkpt lat="45.63243" lon="5.29384">
        <ele>218</ele>
        <time>2021-06-06T07:01:10.444Z</time>
      </trkpt>
      <trkpt lat="45.63248" lon="5.29392">
        <ele>218</ele>
        <time>2021-06-06T07:01:11.444Z</time>
      </trkpt>
      <trkpt lat="45.63253" lon="5.29398">
        <ele>218</ele>
        <time>2021-06-06T07:01:12.444Z</time>
      </trkpt>
      <trkpt lat="45.63256" lon="5.29402">
        <ele>219</ele>
        <time>2021-06-06T07:01:13.444Z</time>
      </trkpt>
      <trkpt lat="45.63261" lon="5.29408">
        <ele>219</ele>
        <time>2021-06-06T07:01:14.444Z</time>
      </trkpt>
      <trkpt lat="45.63266" lon="5.29414">
        <ele>219</ele>
        <time>2021-06-06T07:01:15.444Z</time>
      </trkpt>
      <trkpt lat="45.63271" lon="5.29421">
        <ele>219</ele>
        <time>2021-06-06T07:01:16.444Z</time>
      </trkpt>
      <trkpt lat="45.63275" lon="5.29427">
        <ele>220</ele>
        <time>2021-06-06T07:01:17.444Z</time>
      </trkpt>
      <trkpt lat="45.63279" lon="5.29431">
        <ele>219</ele>
        <time>2021-06-06T07:01:18.443Z</time>
      </trkpt>
      <trkpt lat="45.63283" lon="5.29437">
        <ele>219</ele>
        <time>2021-06-06T07:01:19.444Z</time>
      </trkpt>
      <trkpt lat="45.63289" lon="5.29444">
        <ele>219</ele>
        <time>2021-06-06T07:01:20.444Z</time>
      </trkpt>
      <trkpt lat="45.63292" lon="5.29449">
        <ele>219</ele>
        <time>2021-06-06T07:01:21.444Z</time>
      </trkpt>
      <trkpt lat="45.63296" lon="5.29455">
        <ele>219</ele>
        <time>2021-06-06T07:01:22.444Z</time>
      </trkpt>
      <trkpt lat="45.63301" lon="5.2946">
        <ele>219</ele>
        <time>2021-06-06T07:01:23.443Z</time>
      </trkpt>
      <trkpt lat="45.63305" lon="5.29466">
        <ele>219</ele>
        <time>2021-06-06T07:01:24.443Z</time>
      </trkpt>
      <trkpt lat="45.6331" lon="5.29471">
        <ele>219</ele>
        <time>2021-06-06T07:01:25.444Z</time>
      </trkpt>
      <trkpt lat="45.63315" lon="5.29478">
        <ele>219</ele>
        <time>2021-06-06T07:01:26.444Z</time>
      </trkpt>
      <trkpt lat="45.63319" lon="5.29482">
        <ele>219</ele>
        <time>2021-06-06T07:01:27.444Z</time>
      </trkpt>
      <trkpt lat="45.63323" lon="5.29488">
        <ele>218</ele>
        <time>2021-06-06T07:01:28.443Z</time>
      </trkpt>
      <trkpt lat="45.63329" lon="5.29495">
        <ele>218</ele>
        <time>2021-06-06T07:01:29.443Z</time>
      </trkpt>
      <trkpt lat="45.63332" lon="5.295">
        <ele>219</ele>
        <time>2021-06-06T07:01:30.443Z</time>
      </trkpt>
      <trkpt lat="45.63336" lon="5.29505">
        <ele>219</ele>
        <time>2021-06-06T07:01:31.444Z</time>
      </trkpt>
      <trkpt lat="45.63341" lon="5.29511">
        <ele>219</ele>
        <time>2021-06-06T07:01:32.444Z</time>
      </trkpt>
      <trkpt lat="45.63346" lon="5.29516">
        <ele>219</ele>
        <time>2021-06-06T07:01:33.443Z</time>
      </trkpt>
      <trkpt lat="45.63351" lon="5.29521">
        <ele>219</ele>
        <time>2021-06-06T07:01:34.444Z</time>
      </trkpt>
      <trkpt lat="45.63357" lon="5.29527">
        <ele>219</ele>
        <time>2021-06-06T07:01:35.444Z</time>
      </trkpt>
      <trkpt lat="45.63362" lon="5.29532">
        <ele>219</ele>
        <time>2021-06-06T07:01:36.443Z</time>
      </trkpt>
      <trkpt lat="45.63366" lon="5.29536">
        <ele>219</ele>
        <time>2021-06-06T07:01:37.444Z</time>
      </trkpt>
      <trkpt lat="45.63372" lon="5.29541">
        <ele>219</ele>
        <time>2021-06-06T07:01:38.444Z</time>
      </trkpt>
      <trkpt lat="45.63378" lon="5.29546">
        <ele>219</ele>
        <time>2021-06-06T07:01:39.443Z</time>
      </trkpt>
      <trkpt lat="45.63383" lon="5.2955">
        <ele>219</ele>
        <time>2021-06-06T07:01:40.444Z</time>
      </trkpt>
      <trkpt lat="45.63387" lon="5.29552">
        <ele>219</ele>
        <time>2021-06-06T07:01:41.444Z</time>
      </trkpt>
      <trkpt lat="45.63392" lon="5.29556">
        <ele>219</ele>
        <time>2021-06-06T07:01:42.444Z</time>
      </trkpt>
      <trkpt lat="45.63398" lon="5.29559">
        <ele>220</ele>
        <time>2021-06-06T07:01:43.444Z</time>
      </trkpt>
      <trkpt lat="45.63404" lon="5.29562">
        <ele>220</ele>
        <time>2021-06-06T07:01:44.444Z</time>
      </trkpt>
      <trkpt lat="45.6341" lon="5.29565">
        <ele>220</ele>
        <time>2021-06-06T07:01:45.443Z</time>
      </trkpt>
      <trkpt lat="45.63414" lon="5.29567">
        <ele>220</ele>
        <time>2021-06-06T07:01:46.443Z</time>
      </trkpt>
      <trkpt lat="45.63419" lon="5.2957">
        <ele>220</ele>
        <time>2021-06-06T07:01:47.443Z</time>
      </trkpt>
      <trkpt lat="45.63426" lon="5.29573">
        <ele>220</ele>
        <time>2021-06-06T07:01:48.443Z</time>
      </trkpt>
      <trkpt lat="45.63431" lon="5.29575">
        <ele>220</ele>
        <time>2021-06-06T07:01:49.444Z</time>
      </trkpt>
      <trkpt lat="45.63436" lon="5.29576">
        <ele>219</ele>
        <time>2021-06-06T07:01:50.444Z</time>
      </trkpt>
      <trkpt lat="45.63442" lon="5.29578">
        <ele>219</ele>
        <time>2021-06-06T07:01:51.444Z</time>
      </trkpt>
      <trkpt lat="45.63449" lon="5.2958">
        <ele>219</ele>
        <time>2021-06-06T07:01:52.444Z</time>
      </trkpt>
      <trkpt lat="45.63456" lon="5.29581">
        <ele>219</ele>
        <time>2021-06-06T07:01:53.443Z</time>
      </trkpt>
      <trkpt lat="45.63461" lon="5.29582">
        <ele>219</ele>
        <time>2021-06-06T07:01:54.444Z</time>
      </trkpt>
      <trkpt lat="45.63468" lon="5.29583">
        <ele>219</ele>
        <time>2021-06-06T07:01:55.443Z</time>
      </trkpt>
      <trkpt lat="45.63474" lon="5.29584">
        <ele>219</ele>
        <time>2021-06-06T07:01:56.443Z</time>
      </trkpt>
      <trkpt lat="45.6348" lon="5.29585">
        <ele>219</ele>
        <time>2021-06-06T07:01:57.444Z</time>
      </trkpt>
      <trkpt lat="45.63488" lon="5.29587">
        <ele>219</ele>
        <time>2021-06-06T07:01:58.444Z</time>
      </trkpt>
      <trkpt lat="45.63493" lon="5.29587">
        <ele>219</ele>
        <time>2021-06-06T07:01:59.444Z</time>
      </trkpt>
      <trkpt lat="45.635" lon="5.29588">
        <ele>219</ele>
        <time>2021-06-06T07:02:00.444Z</time>
      </trkpt>
      <trkpt lat="45.63507" lon="5.29589">
        <ele>219</ele>
        <time>2021-06-06T07:02:01.444Z</time>
      </trkpt>
      <trkpt lat="45.63513" lon="5.2959">
        <ele>219</ele>
        <time>2021-06-06T07:02:02.443Z</time>
      </trkpt>
      <trkpt lat="45.6352" lon="5.29591">
        <ele>219</ele>
        <time>2021-06-06T07:02:03.443Z</time>
      </trkpt>
      <trkpt lat="45.63525" lon="5.29591">
        <ele>219</ele>
        <time>2021-06-06T07:02:04.443Z</time>
      </trkpt>
      <trkpt lat="45.63531" lon="5.29592">
        <ele>219</ele>
        <time>2021-06-06T07:02:05.443Z</time>
      </trkpt>
      <trkpt lat="45.63537" lon="5.29593">
        <ele>219</ele>
        <time>2021-06-06T07:02:06.444Z</time>
      </trkpt>
      <trkpt lat="45.63545" lon="5.29594">
        <ele>219</ele>
        <time>2021-06-06T07:02:07.444Z</time>
      </trkpt>
      <trkpt lat="45.6355" lon="5.29595">
        <ele>219</ele>
        <time>2021-06-06T07:02:08.443Z</time>
      </trkpt>
      <trkpt lat="45.63556" lon="5.29595">
        <ele>220</ele>
        <time>2021-06-06T07:02:09.443Z</time>
      </trkpt>
      <trkpt lat="45.63564" lon="5.29596">
        <ele>220</ele>
        <time>2021-06-06T07:02:10.444Z</time>
      </trkpt>
      <trkpt lat="45.6357" lon="5.29596">
        <ele>220</ele>
        <time>2021-06-06T07:02:11.443Z</time>
      </trkpt>
      <trkpt lat="45.63575" lon="5.29597">
        <ele>221</ele>
        <time>2021-06-06T07:02:12.444Z</time>
      </trkpt>
      <trkpt lat="45.63581" lon="5.29598">
        <ele>221</ele>
        <time>2021-06-06T07:02:13.443Z</time>
      </trkpt>
      <trkpt lat="45.63587" lon="5.29599">
        <ele>221</ele>
        <time>2021-06-06T07:02:14.443Z</time>
      </trkpt>
      <trkpt lat="45.63593" lon="5.296">
        <ele>221</ele>
        <time>2021-06-06T07:02:15.443Z</time>
      </trkpt>
      <trkpt lat="45.63601" lon="5.29601">
        <ele>221</ele>
        <time>2021-06-06T07:02:16.443Z</time>
      </trkpt>
      <trkpt lat="45.63607" lon="5.29602">
        <ele>221</ele>
        <time>2021-06-06T07:02:17.444Z</time>
      </trkpt>
      <trkpt lat="45.63611" lon="5.29603">
        <ele>221</ele>
        <time>2021-06-06T07:02:18.444Z</time>
      </trkpt>
      <trkpt lat="45.63617" lon="5.29604">
        <ele>221</ele>
        <time>2021-06-06T07:02:19.444Z</time>
      </trkpt>
      <trkpt lat="45.63625" lon="5.29605">
        <ele>221</ele>
        <time>2021-06-06T07:02:20.443Z</time>
      </trkpt>
      <trkpt lat="45.63631" lon="5.29606">
        <ele>221</ele>
        <time>2021-06-06T07:02:21.444Z</time>
      </trkpt>
      <trkpt lat="45.63636" lon="5.29606">
        <ele>221</ele>
        <time>2021-06-06T07:02:22.444Z</time>
      </trkpt>
      <trkpt lat="45.63642" lon="5.29607">
        <ele>221</ele>
        <time>2021-06-06T07:02:23.444Z</time>
      </trkpt>
      <trkpt lat="45.63648" lon="5.29608">
        <ele>220</ele>
        <time>2021-06-06T07:02:24.444Z</time>
      </trkpt>
      <trkpt lat="45.63656" lon="5.29609">
        <ele>220</ele>
        <time>2021-06-06T07:02:25.444Z</time>
      </trkpt>
      <trkpt lat="45.63662" lon="5.2961">
        <ele>220</ele>
        <time>2021-06-06T07:02:26.444Z</time>
      </trkpt>
      <trkpt lat="45.63667" lon="5.2961">
        <ele>220</ele>
        <time>2021-06-06T07:02:27.443Z</time>
      </trkpt>
      <trkpt lat="45.63674" lon="5.29611">
        <ele>220</ele>
        <time>2021-06-06T07:02:28.444Z</time>
      </trkpt>
      <trkpt lat="45.6368" lon="5.29612">
        <ele>220</ele>
        <time>2021-06-06T07:02:29.444Z</time>
      </trkpt>
      <trkpt lat="45.63684" lon="5.29613">
        <ele>220</ele>
        <time>2021-06-06T07:02:30.444Z</time>
      </trkpt>
      <trkpt lat="45.6369" lon="5.29614">
        <ele>220</ele>
        <time>2021-06-06T07:02:31.443Z</time>
      </trkpt>
      <trkpt lat="45.63696" lon="5.29615">
        <ele>220</ele>
        <time>2021-06-06T07:02:32.444Z</time>
      </trkpt>
      <trkpt lat="45.63701" lon="5.29616">
        <ele>220</ele>
        <time>2021-06-06T07:02:33.444Z</time>
      </trkpt>
      <trkpt lat="45.63707" lon="5.29617">
        <ele>221</ele>
        <time>2021-06-06T07:02:34.444Z</time>
      </trkpt>
      <trkpt lat="45.63713" lon="5.29618">
        <ele>221</ele>
        <time>2021-06-06T07:02:35.443Z</time>
      </trkpt>
      <trkpt lat="45.63719" lon="5.29619">
        <ele>221</ele>
        <time>2021-06-06T07:02:36.444Z</time>
      </trkpt>
      <trkpt lat="45.63725" lon="5.2962">
        <ele>221</ele>
        <time>2021-06-06T07:02:37.443Z</time>
      </trkpt>
      <trkpt lat="45.63731" lon="5.29621">
        <ele>221</ele>
        <time>2021-06-06T07:02:38.444Z</time>
      </trkpt>
      <trkpt lat="45.63737" lon="5.29622">
        <ele>221</ele>
        <time>2021-06-06T07:02:39.444Z</time>
      </trkpt>
      <trkpt lat="45.63742" lon="5.29623">
        <ele>222</ele>
        <time>2021-06-06T07:02:40.444Z</time>
      </trkpt>
      <trkpt lat="45.63748" lon="5.29624">
        <ele>222</ele>
        <time>2021-06-06T07:02:41.444Z</time>
      </trkpt>
      <trkpt lat="45.63754" lon="5.29625">
        <ele>222</ele>
        <time>2021-06-06T07:02:42.444Z</time>
      </trkpt>
      <trkpt lat="45.63761" lon="5.29626">
        <ele>222</ele>
        <time>2021-06-06T07:02:43.444Z</time>
      </trkpt>
      <trkpt lat="45.63767" lon="5.29627">
        <ele>222</ele>
        <time>2021-06-06T07:02:44.444Z</time>
      </trkpt>
      <trkpt lat="45.63772" lon="5.29627">
        <ele>222</ele>
        <time>2021-06-06T07:02:45.444Z</time>
      </trkpt>
      <trkpt lat="45.63778" lon="5.29628">
        <ele>222</ele>
        <time>2021-06-06T07:02:46.444Z</time>
      </trkpt>
      <trkpt lat="45.63786" lon="5.29629">
        <ele>222</ele>
        <time>2021-06-06T07:02:47.443Z</time>
      </trkpt>
      <trkpt lat="45.63792" lon="5.2963">
        <ele>222</ele>
        <time>2021-06-06T07:02:48.443Z</time>
      </trkpt>
      <trkpt lat="45.63797" lon="5.29631">
        <ele>222</ele>
        <time>2021-06-06T07:02:49.444Z</time>
      </trkpt>
      <trkpt lat="45.63803" lon="5.29632">
        <ele>222</ele>
        <time>2021-06-06T07:02:50.444Z</time>
      </trkpt>
      <trkpt lat="45.63811" lon="5.29633">
        <ele>222</ele>
        <time>2021-06-06T07:02:51.443Z</time>
      </trkpt>
      <trkpt lat="45.63817" lon="5.29634">
        <ele>222</ele>
        <time>2021-06-06T07:02:52.444Z</time>
      </trkpt>
      <trkpt lat="45.63824" lon="5.29635">
        <ele>222</ele>
        <time>2021-06-06T07:02:53.444Z</time>
      </trkpt>
      <trkpt lat="45.63829" lon="5.29636">
        <ele>222</ele>
        <time>2021-06-06T07:02:54.444Z</time>
      </trkpt>
      <trkpt lat="45.63835" lon="5.29638">
        <ele>222</ele>
        <time>2021-06-06T07:02:55.444Z</time>
      </trkpt>
      <trkpt lat="45.63842" lon="5.29639">
        <ele>222</ele>
        <time>2021-06-06T07:02:56.444Z</time>
      </trkpt>
      <trkpt lat="45.6385" lon="5.2964">
        <ele>222</ele>
        <time>2021-06-06T07:02:57.444Z</time>
      </trkpt>
      <trkpt lat="45.63856" lon="5.29641">
        <ele>222</ele>
        <time>2021-06-06T07:02:58.444Z</time>
      </trkpt>
      <trkpt lat="45.63862" lon="5.29642">
        <ele>222</ele>
        <time>2021-06-06T07:02:59.444Z</time>
      </trkpt>
      <trkpt lat="45.6387" lon="5.29643">
        <ele>222</ele>
        <time>2021-06-06T07:03:00.443Z</time>
      </trkpt>
      <trkpt lat="45.63875" lon="5.29643">
        <ele>222</ele>
        <time>2021-06-06T07:03:01.444Z</time>
      </trkpt>
      <trkpt lat="45.63883" lon="5.29645">
        <ele>222</ele>
        <time>2021-06-06T07:03:02.443Z</time>
      </trkpt>
      <trkpt lat="45.63889" lon="5.29645">
        <ele>222</ele>
        <time>2021-06-06T07:03:03.444Z</time>
      </trkpt>
      <trkpt lat="45.63896" lon="5.29646">
        <ele>222</ele>
        <time>2021-06-06T07:03:04.443Z</time>
      </trkpt>
      <trkpt lat="45.63904" lon="5.29648">
        <ele>222</ele>
        <time>2021-06-06T07:03:05.444Z</time>
      </trkpt>
      <trkpt lat="45.6391" lon="5.29649">
        <ele>222</ele>
        <time>2021-06-06T07:03:06.444Z</time>
      </trkpt>
      <trkpt lat="45.63916" lon="5.2965">
        <ele>222</ele>
        <time>2021-06-06T07:03:07.444Z</time>
      </trkpt>
      <trkpt lat="45.63923" lon="5.29651">
        <ele>222</ele>
        <time>2021-06-06T07:03:08.444Z</time>
      </trkpt>
      <trkpt lat="45.63931" lon="5.29652">
        <ele>222</ele>
        <time>2021-06-06T07:03:09.444Z</time>
      </trkpt>
      <trkpt lat="45.63938" lon="5.29653">
        <ele>222</ele>
        <time>2021-06-06T07:03:10.444Z</time>
      </trkpt>
      <trkpt lat="45.63945" lon="5.29654">
        <ele>222</ele>
        <time>2021-06-06T07:03:11.444Z</time>
      </trkpt>
      <trkpt lat="45.63951" lon="5.29655">
        <ele>222</ele>
        <time>2021-06-06T07:03:12.443Z</time>
      </trkpt>
      <trkpt lat="45.63958" lon="5.29656">
        <ele>222</ele>
        <time>2021-06-06T07:03:13.444Z</time>
      </trkpt>
      <trkpt lat="45.63965" lon="5.29657">
        <ele>222</ele>
        <time>2021-06-06T07:03:14.444Z</time>
      </trkpt>
      <trkpt lat="45.63973" lon="5.29658">
        <ele>222</ele>
        <time>2021-06-06T07:03:15.444Z</time>
      </trkpt>
      <trkpt lat="45.63979" lon="5.29659">
        <ele>222</ele>
        <time>2021-06-06T07:03:16.444Z</time>
      </trkpt>
      <trkpt lat="45.63987" lon="5.2966">
        <ele>222</ele>
        <time>2021-06-06T07:03:17.443Z</time>
      </trkpt>
      <trkpt lat="45.63994" lon="5.29661">
        <ele>222</ele>
        <time>2021-06-06T07:03:18.444Z</time>
      </trkpt>
      <trkpt lat="45.64001" lon="5.29662">
        <ele>221</ele>
        <time>2021-06-06T07:03:19.444Z</time>
      </trkpt>
      <trkpt lat="45.6401" lon="5.29663">
        <ele>221</ele>
        <time>2021-06-06T07:03:20.443Z</time>
      </trkpt>
      <trkpt lat="45.64016" lon="5.29664">
        <ele>220</ele>
        <time>2021-06-06T07:03:21.444Z</time>
      </trkpt>
      <trkpt lat="45.64023" lon="5.29666">
        <ele>220</ele>
        <time>2021-06-06T07:03:22.443Z</time>
      </trkpt>
      <trkpt lat="45.64032" lon="5.29667">
        <ele>220</ele>
        <time>2021-06-06T07:03:23.444Z</time>
      </trkpt>
      <trkpt lat="45.64039" lon="5.29668">
        <ele>220</ele>
        <time>2021-06-06T07:03:24.444Z</time>
      </trkpt>
      <trkpt lat="45.64045" lon="5.29669">
        <ele>220</ele>
        <time>2021-06-06T07:03:25.443Z</time>
      </trkpt>
      <trkpt lat="45.64053" lon="5.2967">
        <ele>219</ele>
        <time>2021-06-06T07:03:26.444Z</time>
      </trkpt>
      <trkpt lat="45.64061" lon="5.29671">
        <ele>219</ele>
        <time>2021-06-06T07:03:27.444Z</time>
      </trkpt>
      <trkpt lat="45.64067" lon="5.29672">
        <ele>219</ele>
        <time>2021-06-06T07:03:28.443Z</time>
      </trkpt>
      <trkpt lat="45.64074" lon="5.29673">
        <ele>219</ele>
        <time>2021-06-06T07:03:29.443Z</time>
      </trkpt>
      <trkpt lat="45.64082" lon="5.29674">
        <ele>219</ele>
        <time>2021-06-06T07:03:30.444Z</time>
      </trkpt>
      <trkpt lat="45.64089" lon="5.29675">
        <ele>219</ele>
        <time>2021-06-06T07:03:31.444Z</time>
      </trkpt>
      <trkpt lat="45.64097" lon="5.29677">
        <ele>219</ele>
        <time>2021-06-06T07:03:32.444Z</time>
      </trkpt>
      <trkpt lat="45.64103" lon="5.29678">
        <ele>219</ele>
        <time>2021-06-06T07:03:33.443Z</time>
      </trkpt>
      <trkpt lat="45.6411" lon="5.29679">
        <ele>219</ele>
        <time>2021-06-06T07:03:34.444Z</time>
      </trkpt>
      <trkpt lat="45.64117" lon="5.2968">
        <ele>219</ele>
        <time>2021-06-06T07:03:35.444Z</time>
      </trkpt>
      <trkpt lat="45.64124" lon="5.29681">
        <ele>219</ele>
        <time>2021-06-06T07:03:36.444Z</time>
      </trkpt>
      <trkpt lat="45.64131" lon="5.29682">
        <ele>219</ele>
        <time>2021-06-06T07:03:37.443Z</time>
      </trkpt>
      <trkpt lat="45.64138" lon="5.29683">
        <ele>219</ele>
        <time>2021-06-06T07:03:38.444Z</time>
      </trkpt>
      <trkpt lat="45.64145" lon="5.29684">
        <ele>219</ele>
        <time>2021-06-06T07:03:39.444Z</time>
      </trkpt>
      <trkpt lat="45.64152" lon="5.29685">
        <ele>219</ele>
        <time>2021-06-06T07:03:40.444Z</time>
      </trkpt>
      <trkpt lat="45.64161" lon="5.29687">
        <ele>220</ele>
        <time>2021-06-06T07:03:41.444Z</time>
      </trkpt>
      <trkpt lat="45.64166" lon="5.29688">
        <ele>220</ele>
        <time>2021-06-06T07:03:42.444Z</time>
      </trkpt>
      <trkpt lat="45.64173" lon="5.29689">
        <ele>220</ele>
        <time>2021-06-06T07:03:43.444Z</time>
      </trkpt>
      <trkpt lat="45.6418" lon="5.29691">
        <ele>220</ele>
        <time>2021-06-06T07:03:44.444Z</time>
      </trkpt>
      <trkpt lat="45.64187" lon="5.29692">
        <ele>220</ele>
        <time>2021-06-06T07:03:45.443Z</time>
      </trkpt>
      <trkpt lat="45.64194" lon="5.29694">
        <ele>220</ele>
        <time>2021-06-06T07:03:46.444Z</time>
      </trkpt>
      <trkpt lat="45.64201" lon="5.29696">
        <ele>221</ele>
        <time>2021-06-06T07:03:47.444Z</time>
      </trkpt>
      <trkpt lat="45.64207" lon="5.29698">
        <ele>221</ele>
        <time>2021-06-06T07:03:48.443Z</time>
      </trkpt>
      <trkpt lat="45.64214" lon="5.297">
        <ele>221</ele>
        <time>2021-06-06T07:03:49.443Z</time>
      </trkpt>
      <trkpt lat="45.6422" lon="5.29703">
        <ele>221</ele>
        <time>2021-06-06T07:03:50.443Z</time>
      </trkpt>
      <trkpt lat="45.64228" lon="5.29707">
        <ele>221</ele>
        <time>2021-06-06T07:03:51.444Z</time>
      </trkpt>
      <trkpt lat="45.64233" lon="5.29709">
        <ele>221</ele>
        <time>2021-06-06T07:03:52.443Z</time>
      </trkpt>
      <trkpt lat="45.6424" lon="5.29713">
        <ele>221</ele>
        <time>2021-06-06T07:03:53.444Z</time>
      </trkpt>
      <trkpt lat="45.64246" lon="5.29717">
        <ele>221</ele>
        <time>2021-06-06T07:03:54.444Z</time>
      </trkpt>
      <trkpt lat="45.64252" lon="5.29721">
        <ele>221</ele>
        <time>2021-06-06T07:03:55.444Z</time>
      </trkpt>
      <trkpt lat="45.64257" lon="5.29726">
        <ele>221</ele>
        <time>2021-06-06T07:03:56.444Z</time>
      </trkpt>
      <trkpt lat="45.64263" lon="5.2973">
        <ele>221</ele>
        <time>2021-06-06T07:03:57.444Z</time>
      </trkpt>
      <trkpt lat="45.64269" lon="5.29736">
        <ele>221</ele>
        <time>2021-06-06T07:03:58.443Z</time>
      </trkpt>
      <trkpt lat="45.64274" lon="5.29741">
        <ele>221</ele>
        <time>2021-06-06T07:03:59.443Z</time>
      </trkpt>
      <trkpt lat="45.64279" lon="5.29746">
        <ele>221</ele>
        <time>2021-06-06T07:04:00.444Z</time>
      </trkpt>
      <trkpt lat="45.64285" lon="5.29753">
        <ele>221</ele>
        <time>2021-06-06T07:04:01.443Z</time>
      </trkpt>
      <trkpt lat="45.64289" lon="5.29758">
        <ele>221</ele>
        <time>2021-06-06T07:04:02.443Z</time>
      </trkpt>
      <trkpt lat="45.64294" lon="5.29764">
        <ele>221</ele>
        <time>2021-06-06T07:04:03.444Z</time>
      </trkpt>
      <trkpt lat="45.64299" lon="5.29769">
        <ele>221</ele>
        <time>2021-06-06T07:04:04.444Z</time>
      </trkpt>
      <trkpt lat="45.64303" lon="5.29775">
        <ele>221</ele>
        <time>2021-06-06T07:04:05.444Z</time>
      </trkpt>
      <trkpt lat="45.64308" lon="5.29781">
        <ele>221</ele>
        <time>2021-06-06T07:04:06.444Z</time>
      </trkpt>
      <trkpt lat="45.64312" lon="5.29787">
        <ele>221</ele>
        <time>2021-06-06T07:04:07.444Z</time>
      </trkpt>
      <trkpt lat="45.64317" lon="5.29793">
        <ele>221</ele>
        <time>2021-06-06T07:04:08.443Z</time>
      </trkpt>
      <trkpt lat="45.64321" lon="5.298">
        <ele>221</ele>
        <time>2021-06-06T07:04:09.444Z</time>
      </trkpt>
      <trkpt lat="45.64326" lon="5.29806">
        <ele>221</ele>
        <time>2021-06-06T07:04:10.444Z</time>
      </trkpt>
      <trkpt lat="45.6433" lon="5.29812">
        <ele>221</ele>
        <time>2021-06-06T07:04:11.444Z</time>
      </trkpt>
      <trkpt lat="45.64334" lon="5.29819">
        <ele>221</ele>
        <time>2021-06-06T07:04:12.444Z</time>
      </trkpt>
      <trkpt lat="45.64338" lon="5.29825">
        <ele>221</ele>
        <time>2021-06-06T07:04:13.444Z</time>
      </trkpt>
      <trkpt lat="45.64343" lon="5.29832">
        <ele>221</ele>
        <time>2021-06-06T07:04:14.443Z</time>
      </trkpt>
      <trkpt lat="45.64347" lon="5.29838">
        <ele>221</ele>
        <time>2021-06-06T07:04:15.444Z</time>
      </trkpt>
      <trkpt lat="45.64352" lon="5.29845">
        <ele>221</ele>
        <time>2021-06-06T07:04:16.444Z</time>
      </trkpt>
      <trkpt lat="45.64356" lon="5.29851">
        <ele>221</ele>
        <time>2021-06-06T07:04:17.444Z</time>
      </trkpt>
      <trkpt lat="45.6436" lon="5.29857">
        <ele>222</ele>
        <time>2021-06-06T07:04:18.444Z</time>
      </trkpt>
      <trkpt lat="45.64365" lon="5.29863">
        <ele>222</ele>
        <time>2021-06-06T07:04:19.444Z</time>
      </trkpt>
      <trkpt lat="45.64369" lon="5.2987">
        <ele>222</ele>
        <time>2021-06-06T07:04:20.444Z</time>
      </trkpt>
      <trkpt lat="45.64373" lon="5.29876">
        <ele>222</ele>
        <time>2021-06-06T07:04:21.444Z</time>
      </trkpt>
      <trkpt lat="45.64378" lon="5.29883">
        <ele>222</ele>
        <time>2021-06-06T07:04:22.443Z</time>
      </trkpt>
      <trkpt lat="45.64382" lon="5.29889">
        <ele>222</ele>
        <time>2021-06-06T07:04:23.444Z</time>
      </trkpt>
      <trkpt lat="45.64387" lon="5.29896">
        <ele>222</ele>
        <time>2021-06-06T07:04:24.444Z</time>
      </trkpt>
      <trkpt lat="45.64392" lon="5.29903">
        <ele>222</ele>
        <time>2021-06-06T07:04:25.444Z</time>
      </trkpt>
      <trkpt lat="45.64396" lon="5.29908">
        <ele>222</ele>
        <time>2021-06-06T07:04:26.444Z</time>
      </trkpt>
      <trkpt lat="45.644" lon="5.29914">
        <ele>222</ele>
        <time>2021-06-06T07:04:27.443Z</time>
      </trkpt>
      <trkpt lat="45.64405" lon="5.29922">
        <ele>222</ele>
        <time>2021-06-06T07:04:28.444Z</time>
      </trkpt>
      <trkpt lat="45.64409" lon="5.29927">
        <ele>222</ele>
        <time>2021-06-06T07:04:29.444Z</time>
      </trkpt>
      <trkpt lat="45.64414" lon="5.29934">
        <ele>222</ele>
        <time>2021-06-06T07:04:30.443Z</time>
      </trkpt>
      <trkpt lat="45.64418" lon="5.29941">
        <ele>222</ele>
        <time>2021-06-06T07:04:31.443Z</time>
      </trkpt>
      <trkpt lat="45.64423" lon="5.29948">
        <ele>222</ele>
        <time>2021-06-06T07:04:32.444Z</time>
      </trkpt>
      <trkpt lat="45.64428" lon="5.29955">
        <ele>222</ele>
        <time>2021-06-06T07:04:33.444Z</time>
      </trkpt>
      <trkpt lat="45.64433" lon="5.29962">
        <ele>221</ele>
        <time>2021-06-06T07:04:34.444Z</time>
      </trkpt>
      <trkpt lat="45.64438" lon="5.29969">
        <ele>221</ele>
        <time>2021-06-06T07:04:35.443Z</time>
      </trkpt>
      <trkpt lat="45.64443" lon="5.29977">
        <ele>221</ele>
        <time>2021-06-06T07:04:36.444Z</time>
      </trkpt>
      <trkpt lat="45.64448" lon="5.29983">
        <ele>221</ele>
        <time>2021-06-06T07:04:37.443Z</time>
      </trkpt>
      <trkpt lat="45.64453" lon="5.29991">
        <ele>221</ele>
        <time>2021-06-06T07:04:38.444Z</time>
      </trkpt>
      <trkpt lat="45.64458" lon="5.29998">
        <ele>221</ele>
        <time>2021-06-06T07:04:39.444Z</time>
      </trkpt>
      <trkpt lat="45.64463" lon="5.30005">
        <ele>221</ele>
        <time>2021-06-06T07:04:40.443Z</time>
      </trkpt>
      <trkpt lat="45.64468" lon="5.30012">
        <ele>221</ele>
        <time>2021-06-06T07:04:41.443Z</time>
      </trkpt>
      <trkpt lat="45.64473" lon="5.3002">
        <ele>222</ele>
        <time>2021-06-06T07:04:42.444Z</time>
      </trkpt>
      <trkpt lat="45.64478" lon="5.30027">
        <ele>222</ele>
        <time>2021-06-06T07:04:43.443Z</time>
      </trkpt>
      <trkpt lat="45.64483" lon="5.30035">
        <ele>222</ele>
        <time>2021-06-06T07:04:44.444Z</time>
      </trkpt>
      <trkpt lat="45.64488" lon="5.30042">
        <ele>221</ele>
        <time>2021-06-06T07:04:45.444Z</time>
      </trkpt>
      <trkpt lat="45.64494" lon="5.30051">
        <ele>221</ele>
        <time>2021-06-06T07:04:46.444Z</time>
      </trkpt>
      <trkpt lat="45.64499" lon="5.30059">
        <ele>221</ele>
        <time>2021-06-06T07:04:47.444Z</time>
      </trkpt>
      <trkpt lat="45.64502" lon="5.30065">
        <ele>221</ele>
        <time>2021-06-06T07:04:48.444Z</time>
      </trkpt>
      <trkpt lat="45.64507" lon="5.30073">
        <ele>221</ele>
        <time>2021-06-06T07:04:49.443Z</time>
      </trkpt>
      <trkpt lat="45.64512" lon="5.3008">
        <ele>221</ele>
        <time>2021-06-06T07:04:50.443Z</time>
      </trkpt>
      <trkpt lat="45.64517" lon="5.30088">
        <ele>221</ele>
        <time>2021-06-06T07:04:51.444Z</time>
      </trkpt>
      <trkpt lat="45.64523" lon="5.30096">
        <ele>221</ele>
        <time>2021-06-06T07:04:52.443Z</time>
      </trkpt>
      <trkpt lat="45.64527" lon="5.30103">
        <ele>221</ele>
        <time>2021-06-06T07:04:53.444Z</time>
      </trkpt>
      <trkpt lat="45.64532" lon="5.30111">
        <ele>221</ele>
        <time>2021-06-06T07:04:54.444Z</time>
      </trkpt>
      <trkpt lat="45.64536" lon="5.30119">
        <ele>221</ele>
        <time>2021-06-06T07:04:55.444Z</time>
      </trkpt>
      <trkpt lat="45.6454" lon="5.30128">
        <ele>221</ele>
        <time>2021-06-06T07:04:56.444Z</time>
      </trkpt>
      <trkpt lat="45.64545" lon="5.30136">
        <ele>221</ele>
        <time>2021-06-06T07:04:57.444Z</time>
      </trkpt>
      <trkpt lat="45.64549" lon="5.30144">
        <ele>221</ele>
        <time>2021-06-06T07:04:58.444Z</time>
      </trkpt>
      <trkpt lat="45.64555" lon="5.30152">
        <ele>221</ele>
        <time>2021-06-06T07:04:59.444Z</time>
      </trkpt>
      <trkpt lat="45.64559" lon="5.30158">
        <ele>221</ele>
        <time>2021-06-06T07:05:00.443Z</time>
      </trkpt>
      <trkpt lat="45.64565" lon="5.30164">
        <ele>221</ele>
        <time>2021-06-06T07:05:01.444Z</time>
      </trkpt>
      <trkpt lat="45.64569" lon="5.30171">
        <ele>221</ele>
        <time>2021-06-06T07:05:02.443Z</time>
      </trkpt>
      <trkpt lat="45.64573" lon="5.30179">
        <ele>221</ele>
        <time>2021-06-06T07:05:03.444Z</time>
      </trkpt>
      <trkpt lat="45.64575" lon="5.30186">
        <ele>221</ele>
        <time>2021-06-06T07:05:04.443Z</time>
      </trkpt>
      <trkpt lat="45.64576" lon="5.30197">
        <ele>221</ele>
        <time>2021-06-06T07:05:05.444Z</time>
      </trkpt>
      <trkpt lat="45.64576" lon="5.30205">
        <ele>221</ele>
        <time>2021-06-06T07:05:06.443Z</time>
      </trkpt>
      <trkpt lat="45.64577" lon="5.30212">
        <ele>221</ele>
        <time>2021-06-06T07:05:07.444Z</time>
      </trkpt>
      <trkpt lat="45.64578" lon="5.3022">
        <ele>221</ele>
        <time>2021-06-06T07:05:08.444Z</time>
      </trkpt>
      <trkpt lat="45.64582" lon="5.30227">
        <ele>220</ele>
        <time>2021-06-06T07:05:09.443Z</time>
      </trkpt>
      <trkpt lat="45.64586" lon="5.30233">
        <ele>220</ele>
        <time>2021-06-06T07:05:10.444Z</time>
      </trkpt>
      <trkpt lat="45.64592" lon="5.30235">
        <ele>220</ele>
        <time>2021-06-06T07:05:11.444Z</time>
      </trkpt>
      <trkpt lat="45.64598" lon="5.30235">
        <ele>220</ele>
        <time>2021-06-06T07:05:12.444Z</time>
      </trkpt>
      <trkpt lat="45.64603" lon="5.30232">
        <ele>219</ele>
        <time>2021-06-06T07:05:13.444Z</time>
      </trkpt>
      <trkpt lat="45.64608" lon="5.30227">
        <ele>219</ele>
        <time>2021-06-06T07:05:14.443Z</time>
      </trkpt>
      <trkpt lat="45.64612" lon="5.3022">
        <ele>218</ele>
        <time>2021-06-06T07:05:15.443Z</time>
      </trkpt>
      <trkpt lat="45.64616" lon="5.3021">
        <ele>218</ele>
        <time>2021-06-06T07:05:16.444Z</time>
      </trkpt>
      <trkpt lat="45.64619" lon="5.30201">
        <ele>218</ele>
        <time>2021-06-06T07:05:17.444Z</time>
      </trkpt>
      <trkpt lat="45.64624" lon="5.30194">
        <ele>218</ele>
        <time>2021-06-06T07:05:18.444Z</time>
      </trkpt>
      <trkpt lat="45.64629" lon="5.30187">
        <ele>218</ele>
        <time>2021-06-06T07:05:19.443Z</time>
      </trkpt>
      <trkpt lat="45.64635" lon="5.30182">
        <ele>217</ele>
        <time>2021-06-06T07:05:20.444Z</time>
      </trkpt>
      <trkpt lat="45.64642" lon="5.30177">
        <ele>217</ele>
        <time>2021-06-06T07:05:21.444Z</time>
      </trkpt>
      <trkpt lat="45.64648" lon="5.30171">
        <ele>216</ele>
        <time>2021-06-06T07:05:22.444Z</time>
      </trkpt>
      <trkpt lat="45.64654" lon="5.30167">
        <ele>216</ele>
        <time>2021-06-06T07:05:23.444Z</time>
      </trkpt>
      <trkpt lat="45.6466" lon="5.30162">
        <ele>216</ele>
        <time>2021-06-06T07:05:24.444Z</time>
      </trkpt>
      <trkpt lat="45.64666" lon="5.30158">
        <ele>216</ele>
        <time>2021-06-06T07:05:25.444Z</time>
      </trkpt>
      <trkpt lat="45.64672" lon="5.30154">
        <ele>216</ele>
        <time>2021-06-06T07:05:26.443Z</time>
      </trkpt>
      <trkpt lat="45.64677" lon="5.3015">
        <ele>217</ele>
        <time>2021-06-06T07:05:27.444Z</time>
      </trkpt>
      <trkpt lat="45.64683" lon="5.30145">
        <ele>217</ele>
        <time>2021-06-06T07:05:28.443Z</time>
      </trkpt>
      <trkpt lat="45.64689" lon="5.30142">
        <ele>217</ele>
        <time>2021-06-06T07:05:29.443Z</time>
      </trkpt>
      <trkpt lat="45.64695" lon="5.30138">
        <ele>217</ele>
        <time>2021-06-06T07:05:30.444Z</time>
      </trkpt>
      <trkpt lat="45.647" lon="5.30134">
        <ele>217</ele>
        <time>2021-06-06T07:05:31.443Z</time>
      </trkpt>
      <trkpt lat="45.64706" lon="5.3013">
        <ele>217</ele>
        <time>2021-06-06T07:05:32.443Z</time>
      </trkpt>
      <trkpt lat="45.64711" lon="5.30126">
        <ele>217</ele>
        <time>2021-06-06T07:05:33.443Z</time>
      </trkpt>
      <trkpt lat="45.64716" lon="5.30123">
        <ele>217</ele>
        <time>2021-06-06T07:05:34.444Z</time>
      </trkpt>
      <trkpt lat="45.64721" lon="5.3012">
        <ele>217</ele>
        <time>2021-06-06T07:05:35.444Z</time>
      </trkpt>
      <trkpt lat="45.64726" lon="5.30116">
        <ele>216</ele>
        <time>2021-06-06T07:05:36.443Z</time>
      </trkpt>
      <trkpt lat="45.64732" lon="5.30112">
        <ele>216</ele>
        <time>2021-06-06T07:05:37.443Z</time>
      </trkpt>
      <trkpt lat="45.64737" lon="5.30109">
        <ele>216</ele>
        <time>2021-06-06T07:05:38.444Z</time>
      </trkpt>
      <trkpt lat="45.64742" lon="5.30105">
        <ele>216</ele>
        <time>2021-06-06T07:05:39.443Z</time>
      </trkpt>
      <trkpt lat="45.64747" lon="5.30102">
        <ele>216</ele>
        <time>2021-06-06T07:05:40.444Z</time>
      </trkpt>
      <trkpt lat="45.64752" lon="5.30098">
        <ele>217</ele>
        <time>2021-06-06T07:05:41.443Z</time>
      </trkpt>
      <trkpt lat="45.64758" lon="5.30094">
        <ele>217</ele>
        <time>2021-06-06T07:05:42.444Z</time>
      </trkpt>
      <trkpt lat="45.64765" lon="5.30089">
        <ele>218</ele>
        <time>2021-06-06T07:05:43.443Z</time>
      </trkpt>
      <trkpt lat="45.64769" lon="5.30086">
        <ele>218</ele>
        <time>2021-06-06T07:05:44.443Z</time>
      </trkpt>
      <trkpt lat="45.64775" lon="5.30082">
        <ele>218</ele>
        <time>2021-06-06T07:05:45.444Z</time>
      </trkpt>
      <trkpt lat="45.64781" lon="5.30078">
        <ele>217</ele>
        <time>2021-06-06T07:05:46.444Z</time>
      </trkpt>
      <trkpt lat="45.64787" lon="5.30073">
        <ele>217</ele>
        <time>2021-06-06T07:05:47.444Z</time>
      </trkpt>
      <trkpt lat="45.64794" lon="5.30068">
        <ele>217</ele>
        <time>2021-06-06T07:05:48.444Z</time>
      </trkpt>
      <trkpt lat="45.64798" lon="5.30065">
        <ele>216</ele>
        <time>2021-06-06T07:05:49.444Z</time>
      </trkpt>
      <trkpt lat="45.64804" lon="5.30061">
        <ele>216</ele>
        <time>2021-06-06T07:05:50.443Z</time>
      </trkpt>
      <trkpt lat="45.64811" lon="5.30056">
        <ele>215</ele>
        <time>2021-06-06T07:05:51.444Z</time>
      </trkpt>
      <trkpt lat="45.64816" lon="5.30052">
        <ele>215</ele>
        <time>2021-06-06T07:05:52.444Z</time>
      </trkpt>
      <trkpt lat="45.64821" lon="5.30048">
        <ele>215</ele>
        <time>2021-06-06T07:05:53.444Z</time>
      </trkpt>
      <trkpt lat="45.64827" lon="5.30043">
        <ele>215</ele>
        <time>2021-06-06T07:05:54.443Z</time>
      </trkpt>
      <trkpt lat="45.64835" lon="5.30037">
        <ele>215</ele>
        <time>2021-06-06T07:05:55.443Z</time>
      </trkpt>
      <trkpt lat="45.64841" lon="5.30032">
        <ele>215</ele>
        <time>2021-06-06T07:05:56.444Z</time>
      </trkpt>
      <trkpt lat="45.64846" lon="5.30027">
        <ele>214</ele>
        <time>2021-06-06T07:05:57.444Z</time>
      </trkpt>
      <trkpt lat="45.6485" lon="5.30023">
        <ele>214</ele>
        <time>2021-06-06T07:05:58.443Z</time>
      </trkpt>
      <trkpt lat="45.64856" lon="5.30016">
        <ele>214</ele>
        <time>2021-06-06T07:05:59.444Z</time>
      </trkpt>
      <trkpt lat="45.64861" lon="5.3001">
        <ele>214</ele>
        <time>2021-06-06T07:06:00.443Z</time>
      </trkpt>
      <trkpt lat="45.64865" lon="5.30005">
        <ele>213</ele>
        <time>2021-06-06T07:06:01.444Z</time>
      </trkpt>
      <trkpt lat="45.64869" lon="5.29999">
        <ele>213</ele>
        <time>2021-06-06T07:06:02.443Z</time>
      </trkpt>
      <trkpt lat="45.64874" lon="5.29993">
        <ele>213</ele>
        <time>2021-06-06T07:06:03.444Z</time>
      </trkpt>
      <trkpt lat="45.64879" lon="5.29987">
        <ele>213</ele>
        <time>2021-06-06T07:06:04.443Z</time>
      </trkpt>
      <trkpt lat="45.64884" lon="5.29981">
        <ele>213</ele>
        <time>2021-06-06T07:06:05.444Z</time>
      </trkpt>
      <trkpt lat="45.64889" lon="5.29975">
        <ele>213</ele>
        <time>2021-06-06T07:06:06.443Z</time>
      </trkpt>
      <trkpt lat="45.64893" lon="5.29968">
        <ele>213</ele>
        <time>2021-06-06T07:06:07.444Z</time>
      </trkpt>
      <trkpt lat="45.64898" lon="5.29962">
        <ele>213</ele>
        <time>2021-06-06T07:06:08.444Z</time>
      </trkpt>
      <trkpt lat="45.64903" lon="5.29955">
        <ele>213</ele>
        <time>2021-06-06T07:06:09.444Z</time>
      </trkpt>
      <trkpt lat="45.64907" lon="5.29949">
        <ele>213</ele>
        <time>2021-06-06T07:06:10.443Z</time>
      </trkpt>
      <trkpt lat="45.64912" lon="5.29942">
        <ele>213</ele>
        <time>2021-06-06T07:06:11.443Z</time>
      </trkpt>
      <trkpt lat="45.64917" lon="5.29935">
        <ele>213</ele>
        <time>2021-06-06T07:06:12.444Z</time>
      </trkpt>
      <trkpt lat="45.64922" lon="5.29929">
        <ele>213</ele>
        <time>2021-06-06T07:06:13.443Z</time>
      </trkpt>
      <trkpt lat="45.64927" lon="5.29922">
        <ele>213</ele>
        <time>2021-06-06T07:06:14.443Z</time>
      </trkpt>
      <trkpt lat="45.64933" lon="5.29914">
        <ele>213</ele>
        <time>2021-06-06T07:06:15.443Z</time>
      </trkpt>
      <trkpt lat="45.64938" lon="5.29907">
        <ele>214</ele>
        <time>2021-06-06T07:06:16.444Z</time>
      </trkpt>
      <trkpt lat="45.64941" lon="5.29902">
        <ele>214</ele>
        <time>2021-06-06T07:06:17.444Z</time>
      </trkpt>
      <trkpt lat="45.64948" lon="5.29894">
        <ele>214</ele>
        <time>2021-06-06T07:06:18.444Z</time>
      </trkpt>
      <trkpt lat="45.64952" lon="5.29887">
        <ele>214</ele>
        <time>2021-06-06T07:06:19.443Z</time>
      </trkpt>
      <trkpt lat="45.64957" lon="5.29881">
        <ele>214</ele>
        <time>2021-06-06T07:06:20.444Z</time>
      </trkpt>
      <trkpt lat="45.64961" lon="5.29876">
        <ele>214</ele>
        <time>2021-06-06T07:06:21.444Z</time>
      </trkpt>
      <trkpt lat="45.64966" lon="5.29869">
        <ele>214</ele>
        <time>2021-06-06T07:06:22.443Z</time>
      </trkpt>
      <trkpt lat="45.64971" lon="5.29861">
        <ele>214</ele>
        <time>2021-06-06T07:06:23.444Z</time>
      </trkpt>
      <trkpt lat="45.64976" lon="5.29854">
        <ele>214</ele>
        <time>2021-06-06T07:06:24.444Z</time>
      </trkpt>
      <trkpt lat="45.64981" lon="5.29847">
        <ele>214</ele>
        <time>2021-06-06T07:06:25.444Z</time>
      </trkpt>
      <trkpt lat="45.64985" lon="5.29842">
        <ele>214</ele>
        <time>2021-06-06T07:06:26.444Z</time>
      </trkpt>
      <trkpt lat="45.6499" lon="5.29835">
        <ele>213</ele>
        <time>2021-06-06T07:06:27.444Z</time>
      </trkpt>
      <trkpt lat="45.64995" lon="5.29829">
        <ele>213</ele>
        <time>2021-06-06T07:06:28.444Z</time>
      </trkpt>
      <trkpt lat="45.65" lon="5.29822">
        <ele>213</ele>
        <time>2021-06-06T07:06:29.444Z</time>
      </trkpt>
      <trkpt lat="45.65006" lon="5.29814">
        <ele>213</ele>
        <time>2021-06-06T07:06:30.443Z</time>
      </trkpt>
      <trkpt lat="45.6501" lon="5.29809">
        <ele>213</ele>
        <time>2021-06-06T07:06:31.443Z</time>
      </trkpt>
      <trkpt lat="45.65015" lon="5.29802">
        <ele>213</ele>
        <time>2021-06-06T07:06:32.444Z</time>
      </trkpt>
      <trkpt lat="45.65021" lon="5.29795">
        <ele>212</ele>
        <time>2021-06-06T07:06:33.444Z</time>
      </trkpt>
      <trkpt lat="45.65026" lon="5.29788">
        <ele>212</ele>
        <time>2021-06-06T07:06:34.444Z</time>
      </trkpt>
      <trkpt lat="45.65031" lon="5.29781">
        <ele>212</ele>
        <time>2021-06-06T07:06:35.443Z</time>
      </trkpt>
      <trkpt lat="45.65036" lon="5.29775">
        <ele>212</ele>
        <time>2021-06-06T07:06:36.444Z</time>
      </trkpt>
      <trkpt lat="45.65041" lon="5.29769">
        <ele>213</ele>
        <time>2021-06-06T07:06:37.444Z</time>
      </trkpt>
      <trkpt lat="45.65046" lon="5.29762">
        <ele>213</ele>
        <time>2021-06-06T07:06:38.444Z</time>
      </trkpt>
      <trkpt lat="45.6505" lon="5.29756">
        <ele>214</ele>
        <time>2021-06-06T07:06:39.443Z</time>
      </trkpt>
      <trkpt lat="45.65056" lon="5.29748">
        <ele>214</ele>
        <time>2021-06-06T07:06:40.443Z</time>
      </trkpt>
      <trkpt lat="45.6506" lon="5.29742">
        <ele>214</ele>
        <time>2021-06-06T07:06:41.443Z</time>
      </trkpt>
      <trkpt lat="45.65065" lon="5.29735">
        <ele>214</ele>
        <time>2021-06-06T07:06:42.444Z</time>
      </trkpt>
      <trkpt lat="45.6507" lon="5.29728">
        <ele>214</ele>
        <time>2021-06-06T07:06:43.444Z</time>
      </trkpt>
      <trkpt lat="45.65075" lon="5.29722">
        <ele>214</ele>
        <time>2021-06-06T07:06:44.443Z</time>
      </trkpt>
      <trkpt lat="45.6508" lon="5.29716">
        <ele>215</ele>
        <time>2021-06-06T07:06:45.444Z</time>
      </trkpt>
      <trkpt lat="45.65086" lon="5.29708">
        <ele>215</ele>
        <time>2021-06-06T07:06:46.444Z</time>
      </trkpt>
      <trkpt lat="45.65091" lon="5.29703">
        <ele>214</ele>
        <time>2021-06-06T07:06:47.443Z</time>
      </trkpt>
      <trkpt lat="45.65096" lon="5.29696">
        <ele>214</ele>
        <time>2021-06-06T07:06:48.443Z</time>
      </trkpt>
      <trkpt lat="45.65101" lon="5.29689">
        <ele>214</ele>
        <time>2021-06-06T07:06:49.444Z</time>
      </trkpt>
      <trkpt lat="45.65106" lon="5.29682">
        <ele>213</ele>
        <time>2021-06-06T07:06:50.444Z</time>
      </trkpt>
      <trkpt lat="45.65111" lon="5.29675">
        <ele>213</ele>
        <time>2021-06-06T07:06:51.443Z</time>
      </trkpt>
      <trkpt lat="45.65116" lon="5.29669">
        <ele>213</ele>
        <time>2021-06-06T07:06:52.444Z</time>
      </trkpt>
      <trkpt lat="45.65121" lon="5.29662">
        <ele>212</ele>
        <time>2021-06-06T07:06:53.443Z</time>
      </trkpt>
      <trkpt lat="45.65127" lon="5.29654">
        <ele>212</ele>
        <time>2021-06-06T07:06:54.443Z</time>
      </trkpt>
      <trkpt lat="45.65132" lon="5.29647">
        <ele>212</ele>
        <time>2021-06-06T07:06:55.444Z</time>
      </trkpt>
      <trkpt lat="45.65136" lon="5.29641">
        <ele>212</ele>
        <time>2021-06-06T07:06:56.444Z</time>
      </trkpt>
      <trkpt lat="45.65141" lon="5.29635">
        <ele>212</ele>
        <time>2021-06-06T07:06:57.443Z</time>
      </trkpt>
      <trkpt lat="45.65146" lon="5.29628">
        <ele>211</ele>
        <time>2021-06-06T07:06:58.444Z</time>
      </trkpt>
      <trkpt lat="45.65153" lon="5.2962">
        <ele>211</ele>
        <time>2021-06-06T07:06:59.444Z</time>
      </trkpt>
      <trkpt lat="45.65158" lon="5.29613">
        <ele>211</ele>
        <time>2021-06-06T07:07:00.443Z</time>
      </trkpt>
      <trkpt lat="45.65162" lon="5.29608">
        <ele>211</ele>
        <time>2021-06-06T07:07:01.444Z</time>
      </trkpt>
      <trkpt lat="45.65167" lon="5.29602">
        <ele>211</ele>
        <time>2021-06-06T07:07:02.444Z</time>
      </trkpt>
      <trkpt lat="45.65172" lon="5.29595">
        <ele>211</ele>
        <time>2021-06-06T07:07:03.444Z</time>
      </trkpt>
      <trkpt lat="45.65178" lon="5.29587">
        <ele>210</ele>
        <time>2021-06-06T07:07:04.443Z</time>
      </trkpt>
      <trkpt lat="45.65182" lon="5.29582">
        <ele>210</ele>
        <time>2021-06-06T07:07:05.444Z</time>
      </trkpt>
      <trkpt lat="45.65188" lon="5.29576">
        <ele>210</ele>
        <time>2021-06-06T07:07:06.444Z</time>
      </trkpt>
      <trkpt lat="45.65193" lon="5.29569">
        <ele>210</ele>
        <time>2021-06-06T07:07:07.444Z</time>
      </trkpt>
      <trkpt lat="45.65197" lon="5.29563">
        <ele>210</ele>
        <time>2021-06-06T07:07:08.443Z</time>
      </trkpt>
      <trkpt lat="45.65202" lon="5.29556">
        <ele>210</ele>
        <time>2021-06-06T07:07:09.444Z</time>
      </trkpt>
      <trkpt lat="45.65207" lon="5.29549">
        <ele>209</ele>
        <time>2021-06-06T07:07:10.444Z</time>
      </trkpt>
      <trkpt lat="45.65212" lon="5.29542">
        <ele>209</ele>
        <time>2021-06-06T07:07:11.444Z</time>
      </trkpt>
      <trkpt lat="45.65216" lon="5.29536">
        <ele>209</ele>
        <time>2021-06-06T07:07:12.444Z</time>
      </trkpt>
      <trkpt lat="45.65221" lon="5.29529">
        <ele>209</ele>
        <time>2021-06-06T07:07:13.443Z</time>
      </trkpt>
      <trkpt lat="45.65226" lon="5.29522">
        <ele>209</ele>
        <time>2021-06-06T07:07:14.444Z</time>
      </trkpt>
      <trkpt lat="45.6523" lon="5.29516">
        <ele>209</ele>
        <time>2021-06-06T07:07:15.444Z</time>
      </trkpt>
      <trkpt lat="45.65235" lon="5.29509">
        <ele>209</ele>
        <time>2021-06-06T07:07:16.443Z</time>
      </trkpt>
      <trkpt lat="45.6524" lon="5.29503">
        <ele>209</ele>
        <time>2021-06-06T07:07:17.444Z</time>
      </trkpt>
      <trkpt lat="45.65245" lon="5.29497">
        <ele>208</ele>
        <time>2021-06-06T07:07:18.444Z</time>
      </trkpt>
      <trkpt lat="45.65249" lon="5.2949">
        <ele>208</ele>
        <time>2021-06-06T07:07:19.444Z</time>
      </trkpt>
      <trkpt lat="45.65254" lon="5.29483">
        <ele>208</ele>
        <time>2021-06-06T07:07:20.444Z</time>
      </trkpt>
      <trkpt lat="45.65259" lon="5.29476">
        <ele>208</ele>
        <time>2021-06-06T07:07:21.444Z</time>
      </trkpt>
      <trkpt lat="45.65264" lon="5.2947">
        <ele>208</ele>
        <time>2021-06-06T07:07:22.444Z</time>
      </trkpt>
      <trkpt lat="45.65269" lon="5.29463">
        <ele>208</ele>
        <time>2021-06-06T07:07:23.443Z</time>
      </trkpt>
      <trkpt lat="45.65274" lon="5.29457">
        <ele>208</ele>
        <time>2021-06-06T07:07:24.444Z</time>
      </trkpt>
      <trkpt lat="45.65279" lon="5.29451">
        <ele>208</ele>
        <time>2021-06-06T07:07:25.443Z</time>
      </trkpt>
      <trkpt lat="45.65283" lon="5.29444">
        <ele>208</ele>
        <time>2021-06-06T07:07:26.443Z</time>
      </trkpt>
      <trkpt lat="45.65288" lon="5.29438">
        <ele>209</ele>
        <time>2021-06-06T07:07:27.443Z</time>
      </trkpt>
      <trkpt lat="45.65293" lon="5.29432">
        <ele>209</ele>
        <time>2021-06-06T07:07:28.443Z</time>
      </trkpt>
      <trkpt lat="45.65298" lon="5.29425">
        <ele>209</ele>
        <time>2021-06-06T07:07:29.444Z</time>
      </trkpt>
      <trkpt lat="45.65303" lon="5.29419">
        <ele>209</ele>
        <time>2021-06-06T07:07:30.444Z</time>
      </trkpt>
      <trkpt lat="45.65308" lon="5.29413">
        <ele>209</ele>
        <time>2021-06-06T07:07:31.444Z</time>
      </trkpt>
      <trkpt lat="45.65313" lon="5.29407">
        <ele>209</ele>
        <time>2021-06-06T07:07:32.443Z</time>
      </trkpt>
      <trkpt lat="45.65318" lon="5.29401">
        <ele>209</ele>
        <time>2021-06-06T07:07:33.443Z</time>
      </trkpt>
      <trkpt lat="45.65323" lon="5.29395">
        <ele>209</ele>
        <time>2021-06-06T07:07:34.444Z</time>
      </trkpt>
      <trkpt lat="45.65328" lon="5.29389">
        <ele>209</ele>
        <time>2021-06-06T07:07:35.444Z</time>
      </trkpt>
      <trkpt lat="45.65333" lon="5.29383">
        <ele>210</ele>
        <time>2021-06-06T07:07:36.443Z</time>
      </trkpt>
      <trkpt lat="45.65338" lon="5.29377">
        <ele>210</ele>
        <time>2021-06-06T07:07:37.443Z</time>
      </trkpt>
      <trkpt lat="45.65343" lon="5.29371">
        <ele>210</ele>
        <time>2021-06-06T07:07:38.444Z</time>
      </trkpt>
      <trkpt lat="45.65348" lon="5.29365">
        <ele>210</ele>
        <time>2021-06-06T07:07:39.444Z</time>
      </trkpt>
      <trkpt lat="45.65353" lon="5.29359">
        <ele>210</ele>
        <time>2021-06-06T07:07:40.444Z</time>
      </trkpt>
      <trkpt lat="45.65358" lon="5.29354">
        <ele>211</ele>
        <time>2021-06-06T07:07:41.444Z</time>
      </trkpt>
      <trkpt lat="45.65363" lon="5.29348">
        <ele>211</ele>
        <time>2021-06-06T07:07:42.444Z</time>
      </trkpt>
      <trkpt lat="45.65368" lon="5.29342">
        <ele>211</ele>
        <time>2021-06-06T07:07:43.444Z</time>
      </trkpt>
      <trkpt lat="45.65373" lon="5.29337">
        <ele>211</ele>
        <time>2021-06-06T07:07:44.444Z</time>
      </trkpt>
      <trkpt lat="45.65378" lon="5.29331">
        <ele>210</ele>
        <time>2021-06-06T07:07:45.443Z</time>
      </trkpt>
      <trkpt lat="45.65383" lon="5.29325">
        <ele>210</ele>
        <time>2021-06-06T07:07:46.444Z</time>
      </trkpt>
      <trkpt lat="45.65387" lon="5.29319">
        <ele>211</ele>
        <time>2021-06-06T07:07:47.444Z</time>
      </trkpt>
      <trkpt lat="45.65392" lon="5.29314">
        <ele>211</ele>
        <time>2021-06-06T07:07:48.444Z</time>
      </trkpt>
      <trkpt lat="45.65397" lon="5.29308">
        <ele>211</ele>
        <time>2021-06-06T07:07:49.443Z</time>
      </trkpt>
      <trkpt lat="45.65402" lon="5.29303">
        <ele>211</ele>
        <time>2021-06-06T07:07:50.444Z</time>
      </trkpt>
      <trkpt lat="45.65407" lon="5.29297">
        <ele>211</ele>
        <time>2021-06-06T07:07:51.444Z</time>
      </trkpt>
      <trkpt lat="45.65412" lon="5.29292">
        <ele>211</ele>
        <time>2021-06-06T07:07:52.443Z</time>
      </trkpt>
      <trkpt lat="45.65417" lon="5.29286">
        <ele>211</ele>
        <time>2021-06-06T07:07:53.444Z</time>
      </trkpt>
      <trkpt lat="45.65421" lon="5.29281">
        <ele>211</ele>
        <time>2021-06-06T07:07:54.443Z</time>
      </trkpt>
      <trkpt lat="45.65426" lon="5.29276">
        <ele>211</ele>
        <time>2021-06-06T07:07:55.443Z</time>
      </trkpt>
      <trkpt lat="45.65431" lon="5.2927">
        <ele>211</ele>
        <time>2021-06-06T07:07:56.444Z</time>
      </trkpt>
      <trkpt lat="45.65436" lon="5.29265">
        <ele>211</ele>
        <time>2021-06-06T07:07:57.444Z</time>
      </trkpt>
      <trkpt lat="45.65441" lon="5.29259">
        <ele>211</ele>
        <time>2021-06-06T07:07:58.444Z</time>
      </trkpt>
      <trkpt lat="45.65446" lon="5.29254">
        <ele>211</ele>
        <time>2021-06-06T07:07:59.444Z</time>
      </trkpt>
      <trkpt lat="45.65451" lon="5.29248">
        <ele>211</ele>
        <time>2021-06-06T07:08:00.444Z</time>
      </trkpt>
      <trkpt lat="45.65456" lon="5.29242">
        <ele>211</ele>
        <time>2021-06-06T07:08:01.444Z</time>
      </trkpt>
      <trkpt lat="45.65461" lon="5.29237">
        <ele>211</ele>
        <time>2021-06-06T07:08:02.443Z</time>
      </trkpt>
      <trkpt lat="45.65467" lon="5.29231">
        <ele>211</ele>
        <time>2021-06-06T07:08:03.443Z</time>
      </trkpt>
      <trkpt lat="45.65472" lon="5.29225">
        <ele>211</ele>
        <time>2021-06-06T07:08:04.444Z</time>
      </trkpt>
      <trkpt lat="45.65477" lon="5.29219">
        <ele>211</ele>
        <time>2021-06-06T07:08:05.444Z</time>
      </trkpt>
      <trkpt lat="45.65482" lon="5.29213">
        <ele>210</ele>
        <time>2021-06-06T07:08:06.444Z</time>
      </trkpt>
      <trkpt lat="45.65487" lon="5.29207">
        <ele>210</ele>
        <time>2021-06-06T07:08:07.444Z</time>
      </trkpt>
      <trkpt lat="45.65493" lon="5.29201">
        <ele>210</ele>
        <time>2021-06-06T07:08:08.444Z</time>
      </trkpt>
      <trkpt lat="45.65498" lon="5.29195">
        <ele>209</ele>
        <time>2021-06-06T07:08:09.443Z</time>
      </trkpt>
      <trkpt lat="45.65503" lon="5.29189">
        <ele>209</ele>
        <time>2021-06-06T07:08:10.443Z</time>
      </trkpt>
      <trkpt lat="45.65508" lon="5.29183">
        <ele>209</ele>
        <time>2021-06-06T07:08:11.443Z</time>
      </trkpt>
      <trkpt lat="45.65513" lon="5.29176">
        <ele>210</ele>
        <time>2021-06-06T07:08:12.443Z</time>
      </trkpt>
      <trkpt lat="45.65519" lon="5.2917">
        <ele>210</ele>
        <time>2021-06-06T07:08:13.443Z</time>
      </trkpt>
      <trkpt lat="45.65524" lon="5.29164">
        <ele>210</ele>
        <time>2021-06-06T07:08:14.444Z</time>
      </trkpt>
      <trkpt lat="45.65529" lon="5.29159">
        <ele>210</ele>
        <time>2021-06-06T07:08:15.443Z</time>
      </trkpt>
      <trkpt lat="45.65534" lon="5.29153">
        <ele>210</ele>
        <time>2021-06-06T07:08:16.444Z</time>
      </trkpt>
      <trkpt lat="45.65539" lon="5.29148">
        <ele>210</ele>
        <time>2021-06-06T07:08:17.444Z</time>
      </trkpt>
      <trkpt lat="45.65544" lon="5.29142">
        <ele>210</ele>
        <time>2021-06-06T07:08:18.443Z</time>
      </trkpt>
      <trkpt lat="45.6555" lon="5.29137">
        <ele>210</ele>
        <time>2021-06-06T07:08:19.443Z</time>
      </trkpt>
      <trkpt lat="45.65555" lon="5.29132">
        <ele>211</ele>
        <time>2021-06-06T07:08:20.444Z</time>
      </trkpt>
      <trkpt lat="45.6556" lon="5.29126">
        <ele>211</ele>
        <time>2021-06-06T07:08:21.444Z</time>
      </trkpt>
      <trkpt lat="45.65565" lon="5.29121">
        <ele>211</ele>
        <time>2021-06-06T07:08:22.444Z</time>
      </trkpt>
      <trkpt lat="45.6557" lon="5.29116">
        <ele>211</ele>
        <time>2021-06-06T07:08:23.443Z</time>
      </trkpt>
      <trkpt lat="45.65575" lon="5.2911">
        <ele>211</ele>
        <time>2021-06-06T07:08:24.444Z</time>
      </trkpt>
      <trkpt lat="45.65581" lon="5.29104">
        <ele>211</ele>
        <time>2021-06-06T07:08:25.444Z</time>
      </trkpt>
      <trkpt lat="45.65586" lon="5.29098">
        <ele>210</ele>
        <time>2021-06-06T07:08:26.444Z</time>
      </trkpt>
      <trkpt lat="45.65591" lon="5.29092">
        <ele>210</ele>
        <time>2021-06-06T07:08:27.444Z</time>
      </trkpt>
      <trkpt lat="45.65597" lon="5.29086">
        <ele>210</ele>
        <time>2021-06-06T07:08:28.444Z</time>
      </trkpt>
      <trkpt lat="45.65602" lon="5.29079">
        <ele>209</ele>
        <time>2021-06-06T07:08:29.444Z</time>
      </trkpt>
      <trkpt lat="45.65608" lon="5.29074">
        <ele>209</ele>
        <time>2021-06-06T07:08:30.444Z</time>
      </trkpt>
      <trkpt lat="45.65613" lon="5.29068">
        <ele>209</ele>
        <time>2021-06-06T07:08:31.444Z</time>
      </trkpt>
      <trkpt lat="45.6562" lon="5.2906">
        <ele>209</ele>
        <time>2021-06-06T07:08:32.444Z</time>
      </trkpt>
      <trkpt lat="45.65624" lon="5.29055">
        <ele>209</ele>
        <time>2021-06-06T07:08:33.444Z</time>
      </trkpt>
      <trkpt lat="45.65629" lon="5.29049">
        <ele>209</ele>
        <time>2021-06-06T07:08:34.444Z</time>
      </trkpt>
      <trkpt lat="45.65635" lon="5.29043">
        <ele>210</ele>
        <time>2021-06-06T07:08:35.444Z</time>
      </trkpt>
      <trkpt lat="45.6564" lon="5.29037">
        <ele>210</ele>
        <time>2021-06-06T07:08:36.444Z</time>
      </trkpt>
      <trkpt lat="45.65645" lon="5.2903">
        <ele>210</ele>
        <time>2021-06-06T07:08:37.443Z</time>
      </trkpt>
      <trkpt lat="45.65651" lon="5.29024">
        <ele>210</ele>
        <time>2021-06-06T07:08:38.443Z</time>
      </trkpt>
      <trkpt lat="45.65656" lon="5.29018">
        <ele>211</ele>
        <time>2021-06-06T07:08:39.444Z</time>
      </trkpt>
      <trkpt lat="45.65661" lon="5.29012">
        <ele>212</ele>
        <time>2021-06-06T07:08:40.444Z</time>
      </trkpt>
      <trkpt lat="45.65665" lon="5.29006">
        <ele>212</ele>
        <time>2021-06-06T07:08:41.444Z</time>
      </trkpt>
      <trkpt lat="45.65671" lon="5.29">
        <ele>213</ele>
        <time>2021-06-06T07:08:42.444Z</time>
      </trkpt>
      <trkpt lat="45.65676" lon="5.28995">
        <ele>213</ele>
        <time>2021-06-06T07:08:43.444Z</time>
      </trkpt>
      <trkpt lat="45.65681" lon="5.28989">
        <ele>214</ele>
        <time>2021-06-06T07:08:44.444Z</time>
      </trkpt>
      <trkpt lat="45.65686" lon="5.28982">
        <ele>214</ele>
        <time>2021-06-06T07:08:45.444Z</time>
      </trkpt>
      <trkpt lat="45.65691" lon="5.28976">
        <ele>215</ele>
        <time>2021-06-06T07:08:46.444Z</time>
      </trkpt>
      <trkpt lat="45.65696" lon="5.2897">
        <ele>215</ele>
        <time>2021-06-06T07:08:47.443Z</time>
      </trkpt>
      <trkpt lat="45.65702" lon="5.28963">
        <ele>215</ele>
        <time>2021-06-06T07:08:48.443Z</time>
      </trkpt>
      <trkpt lat="45.65708" lon="5.28957">
        <ele>215</ele>
        <time>2021-06-06T07:08:49.443Z</time>
      </trkpt>
      <trkpt lat="45.65714" lon="5.28951">
        <ele>215</ele>
        <time>2021-06-06T07:08:50.444Z</time>
      </trkpt>
      <trkpt lat="45.6572" lon="5.28946">
        <ele>215</ele>
        <time>2021-06-06T07:08:51.444Z</time>
      </trkpt>
      <trkpt lat="45.65726" lon="5.2894">
        <ele>215</ele>
        <time>2021-06-06T07:08:52.444Z</time>
      </trkpt>
      <trkpt lat="45.65732" lon="5.28935">
        <ele>215</ele>
        <time>2021-06-06T07:08:53.444Z</time>
      </trkpt>
      <trkpt lat="45.65739" lon="5.2893">
        <ele>215</ele>
        <time>2021-06-06T07:08:54.444Z</time>
      </trkpt>
      <trkpt lat="45.65745" lon="5.28926">
        <ele>215</ele>
        <time>2021-06-06T07:08:55.444Z</time>
      </trkpt>
      <trkpt lat="45.65752" lon="5.28921">
        <ele>215</ele>
        <time>2021-06-06T07:08:56.444Z</time>
      </trkpt>
      <trkpt lat="45.65759" lon="5.28917">
        <ele>215</ele>
        <time>2021-06-06T07:08:57.444Z</time>
      </trkpt>
      <trkpt lat="45.65765" lon="5.28914">
        <ele>215</ele>
        <time>2021-06-06T07:08:58.444Z</time>
      </trkpt>
      <trkpt lat="45.65771" lon="5.28911">
        <ele>215</ele>
        <time>2021-06-06T07:08:59.444Z</time>
      </trkpt>
      <trkpt lat="45.65778" lon="5.28908">
        <ele>214</ele>
        <time>2021-06-06T07:09:00.443Z</time>
      </trkpt>
      <trkpt lat="45.65784" lon="5.28906">
        <ele>214</ele>
        <time>2021-06-06T07:09:01.444Z</time>
      </trkpt>
      <trkpt lat="45.65791" lon="5.28903">
        <ele>215</ele>
        <time>2021-06-06T07:09:02.444Z</time>
      </trkpt>
      <trkpt lat="45.65797" lon="5.28901">
        <ele>215</ele>
        <time>2021-06-06T07:09:03.444Z</time>
      </trkpt>
      <trkpt lat="45.65803" lon="5.289">
        <ele>216</ele>
        <time>2021-06-06T07:09:04.443Z</time>
      </trkpt>
      <trkpt lat="45.65809" lon="5.28898">
        <ele>216</ele>
        <time>2021-06-06T07:09:05.444Z</time>
      </trkpt>
      <trkpt lat="45.65815" lon="5.28898">
        <ele>217</ele>
        <time>2021-06-06T07:09:06.444Z</time>
      </trkpt>
      <trkpt lat="45.65821" lon="5.28897">
        <ele>217</ele>
        <time>2021-06-06T07:09:07.444Z</time>
      </trkpt>
      <trkpt lat="45.65827" lon="5.28896">
        <ele>217</ele>
        <time>2021-06-06T07:09:08.444Z</time>
      </trkpt>
      <trkpt lat="45.65833" lon="5.28896">
        <ele>217</ele>
        <time>2021-06-06T07:09:09.444Z</time>
      </trkpt>
      <trkpt lat="45.65839" lon="5.28896">
        <ele>217</ele>
        <time>2021-06-06T07:09:10.444Z</time>
      </trkpt>
      <trkpt lat="45.65845" lon="5.28896">
        <ele>217</ele>
        <time>2021-06-06T07:09:11.443Z</time>
      </trkpt>
      <trkpt lat="45.65851" lon="5.28896">
        <ele>217</ele>
        <time>2021-06-06T07:09:12.443Z</time>
      </trkpt>
      <trkpt lat="45.65857" lon="5.28896">
        <ele>217</ele>
        <time>2021-06-06T07:09:13.444Z</time>
      </trkpt>
      <trkpt lat="45.65863" lon="5.28897">
        <ele>217</ele>
        <time>2021-06-06T07:09:14.444Z</time>
      </trkpt>
      <trkpt lat="45.65869" lon="5.28898">
        <ele>217</ele>
        <time>2021-06-06T07:09:15.444Z</time>
      </trkpt>
      <trkpt lat="45.65875" lon="5.28899">
        <ele>217</ele>
        <time>2021-06-06T07:09:16.444Z</time>
      </trkpt>
      <trkpt lat="45.65881" lon="5.28901">
        <ele>217</ele>
        <time>2021-06-06T07:09:17.444Z</time>
      </trkpt>
      <trkpt lat="45.65887" lon="5.28903">
        <ele>216</ele>
        <time>2021-06-06T07:09:18.444Z</time>
      </trkpt>
      <trkpt lat="45.65893" lon="5.28905">
        <ele>216</ele>
        <time>2021-06-06T07:09:19.444Z</time>
      </trkpt>
      <trkpt lat="45.65899" lon="5.28907">
        <ele>216</ele>
        <time>2021-06-06T07:09:20.444Z</time>
      </trkpt>
      <trkpt lat="45.65905" lon="5.2891">
        <ele>216</ele>
        <time>2021-06-06T07:09:21.443Z</time>
      </trkpt>
      <trkpt lat="45.65911" lon="5.28913">
        <ele>216</ele>
        <time>2021-06-06T07:09:22.444Z</time>
      </trkpt>
      <trkpt lat="45.65916" lon="5.28916">
        <ele>217</ele>
        <time>2021-06-06T07:09:23.443Z</time>
      </trkpt>
      <trkpt lat="45.65922" lon="5.28919">
        <ele>217</ele>
        <time>2021-06-06T07:09:24.444Z</time>
      </trkpt>
      <trkpt lat="45.65928" lon="5.28923">
        <ele>217</ele>
        <time>2021-06-06T07:09:25.444Z</time>
      </trkpt>
      <trkpt lat="45.65934" lon="5.28926">
        <ele>217</ele>
        <time>2021-06-06T07:09:26.444Z</time>
      </trkpt>
      <trkpt lat="45.6594" lon="5.28929">
        <ele>216</ele>
        <time>2021-06-06T07:09:27.443Z</time>
      </trkpt>
      <trkpt lat="45.65946" lon="5.28933">
        <ele>216</ele>
        <time>2021-06-06T07:09:28.444Z</time>
      </trkpt>
      <trkpt lat="45.65951" lon="5.28937">
        <ele>216</ele>
        <time>2021-06-06T07:09:29.443Z</time>
      </trkpt>
      <trkpt lat="45.65957" lon="5.28941">
        <ele>216</ele>
        <time>2021-06-06T07:09:30.444Z</time>
      </trkpt>
      <trkpt lat="45.65962" lon="5.28945">
        <ele>216</ele>
        <time>2021-06-06T07:09:31.444Z</time>
      </trkpt>
      <trkpt lat="45.65968" lon="5.2895">
        <ele>215</ele>
        <time>2021-06-06T07:09:32.444Z</time>
      </trkpt>
      <trkpt lat="45.65973" lon="5.28954">
        <ele>215</ele>
        <time>2021-06-06T07:09:33.444Z</time>
      </trkpt>
      <trkpt lat="45.65979" lon="5.28958">
        <ele>215</ele>
        <time>2021-06-06T07:09:34.444Z</time>
      </trkpt>
      <trkpt lat="45.65984" lon="5.28963">
        <ele>215</ele>
        <time>2021-06-06T07:09:35.444Z</time>
      </trkpt>
      <trkpt lat="45.6599" lon="5.28967">
        <ele>215</ele>
        <time>2021-06-06T07:09:36.444Z</time>
      </trkpt>
      <trkpt lat="45.65996" lon="5.28971">
        <ele>215</ele>
        <time>2021-06-06T07:09:37.443Z</time>
      </trkpt>
      <trkpt lat="45.66001" lon="5.28976">
        <ele>215</ele>
        <time>2021-06-06T07:09:38.444Z</time>
      </trkpt>
      <trkpt lat="45.66007" lon="5.2898">
        <ele>215</ele>
        <time>2021-06-06T07:09:39.444Z</time>
      </trkpt>
      <trkpt lat="45.66013" lon="5.28984">
        <ele>215</ele>
        <time>2021-06-06T07:09:40.444Z</time>
      </trkpt>
      <trkpt lat="45.6602" lon="5.28988">
        <ele>215</ele>
        <time>2021-06-06T07:09:41.443Z</time>
      </trkpt>
      <trkpt lat="45.66026" lon="5.28992">
        <ele>215</ele>
        <time>2021-06-06T07:09:42.444Z</time>
      </trkpt>
      <trkpt lat="45.66032" lon="5.28996">
        <ele>215</ele>
        <time>2021-06-06T07:09:43.444Z</time>
      </trkpt>
      <trkpt lat="45.66037" lon="5.29">
        <ele>215</ele>
        <time>2021-06-06T07:09:44.443Z</time>
      </trkpt>
      <trkpt lat="45.66043" lon="5.29005">
        <ele>215</ele>
        <time>2021-06-06T07:09:45.444Z</time>
      </trkpt>
      <trkpt lat="45.66049" lon="5.29009">
        <ele>215</ele>
        <time>2021-06-06T07:09:46.444Z</time>
      </trkpt>
      <trkpt lat="45.66054" lon="5.29013">
        <ele>215</ele>
        <time>2021-06-06T07:09:47.444Z</time>
      </trkpt>
      <trkpt lat="45.6606" lon="5.29017">
        <ele>215</ele>
        <time>2021-06-06T07:09:48.444Z</time>
      </trkpt>
      <trkpt lat="45.66066" lon="5.29021">
        <ele>214</ele>
        <time>2021-06-06T07:09:49.443Z</time>
      </trkpt>
      <trkpt lat="45.66071" lon="5.29025">
        <ele>214</ele>
        <time>2021-06-06T07:09:50.444Z</time>
      </trkpt>
      <trkpt lat="45.66077" lon="5.2903">
        <ele>214</ele>
        <time>2021-06-06T07:09:51.444Z</time>
      </trkpt>
      <trkpt lat="45.66083" lon="5.29034">
        <ele>214</ele>
        <time>2021-06-06T07:09:52.444Z</time>
      </trkpt>
      <trkpt lat="45.66089" lon="5.29038">
        <ele>213</ele>
        <time>2021-06-06T07:09:53.444Z</time>
      </trkpt>
      <trkpt lat="45.66094" lon="5.29041">
        <ele>213</ele>
        <time>2021-06-06T07:09:54.444Z</time>
      </trkpt>
      <trkpt lat="45.661" lon="5.29045">
        <ele>213</ele>
        <time>2021-06-06T07:09:55.444Z</time>
      </trkpt>
      <trkpt lat="45.66105" lon="5.29049">
        <ele>213</ele>
        <time>2021-06-06T07:09:56.444Z</time>
      </trkpt>
      <trkpt lat="45.66111" lon="5.29053">
        <ele>214</ele>
        <time>2021-06-06T07:09:57.443Z</time>
      </trkpt>
      <trkpt lat="45.66116" lon="5.29056">
        <ele>214</ele>
        <time>2021-06-06T07:09:58.444Z</time>
      </trkpt>
      <trkpt lat="45.66121" lon="5.2906">
        <ele>215</ele>
        <time>2021-06-06T07:09:59.444Z</time>
      </trkpt>
      <trkpt lat="45.66126" lon="5.29064">
        <ele>215</ele>
        <time>2021-06-06T07:10:00.444Z</time>
      </trkpt>
      <trkpt lat="45.66131" lon="5.29067">
        <ele>215</ele>
        <time>2021-06-06T07:10:01.444Z</time>
      </trkpt>
      <trkpt lat="45.66137" lon="5.2907">
        <ele>216</ele>
        <time>2021-06-06T07:10:02.443Z</time>
      </trkpt>
      <trkpt lat="45.66142" lon="5.29074">
        <ele>216</ele>
        <time>2021-06-06T07:10:03.444Z</time>
      </trkpt>
      <trkpt lat="45.66147" lon="5.29078">
        <ele>216</ele>
        <time>2021-06-06T07:10:04.444Z</time>
      </trkpt>
      <trkpt lat="45.66153" lon="5.29082">
        <ele>216</ele>
        <time>2021-06-06T07:10:05.444Z</time>
      </trkpt>
      <trkpt lat="45.66158" lon="5.29086">
        <ele>215</ele>
        <time>2021-06-06T07:10:06.444Z</time>
      </trkpt>
      <trkpt lat="45.66163" lon="5.29091">
        <ele>215</ele>
        <time>2021-06-06T07:10:07.444Z</time>
      </trkpt>
      <trkpt lat="45.66169" lon="5.29096">
        <ele>215</ele>
        <time>2021-06-06T07:10:08.443Z</time>
      </trkpt>
      <trkpt lat="45.66174" lon="5.29101">
        <ele>215</ele>
        <time>2021-06-06T07:10:09.444Z</time>
      </trkpt>
      <trkpt lat="45.6618" lon="5.29106">
        <ele>215</ele>
        <time>2021-06-06T07:10:10.443Z</time>
      </trkpt>
      <trkpt lat="45.66185" lon="5.29111">
        <ele>215</ele>
        <time>2021-06-06T07:10:11.443Z</time>
      </trkpt>
      <trkpt lat="45.6619" lon="5.29117">
        <ele>215</ele>
        <time>2021-06-06T07:10:12.443Z</time>
      </trkpt>
      <trkpt lat="45.66195" lon="5.29123">
        <ele>215</ele>
        <time>2021-06-06T07:10:13.444Z</time>
      </trkpt>
      <trkpt lat="45.662" lon="5.29129">
        <ele>215</ele>
        <time>2021-06-06T07:10:14.444Z</time>
      </trkpt>
      <trkpt lat="45.66205" lon="5.29136">
        <ele>215</ele>
        <time>2021-06-06T07:10:15.443Z</time>
      </trkpt>
      <trkpt lat="45.6621" lon="5.29142">
        <ele>215</ele>
        <time>2021-06-06T07:10:16.444Z</time>
      </trkpt>
      <trkpt lat="45.66215" lon="5.29149">
        <ele>215</ele>
        <time>2021-06-06T07:10:17.443Z</time>
      </trkpt>
      <trkpt lat="45.6622" lon="5.29155">
        <ele>215</ele>
        <time>2021-06-06T07:10:18.444Z</time>
      </trkpt>
      <trkpt lat="45.66225" lon="5.29161">
        <ele>215</ele>
        <time>2021-06-06T07:10:19.444Z</time>
      </trkpt>
      <trkpt lat="45.66229" lon="5.29167">
        <ele>215</ele>
        <time>2021-06-06T07:10:20.444Z</time>
      </trkpt>
      <trkpt lat="45.66234" lon="5.29173">
        <ele>215</ele>
        <time>2021-06-06T07:10:21.444Z</time>
      </trkpt>
      <trkpt lat="45.66239" lon="5.2918">
        <ele>215</ele>
        <time>2021-06-06T07:10:22.443Z</time>
      </trkpt>
      <trkpt lat="45.66244" lon="5.29186">
        <ele>215</ele>
        <time>2021-06-06T07:10:23.444Z</time>
      </trkpt>
      <trkpt lat="45.66249" lon="5.29193">
        <ele>215</ele>
        <time>2021-06-06T07:10:24.444Z</time>
      </trkpt>
      <trkpt lat="45.66254" lon="5.29199">
        <ele>215</ele>
        <time>2021-06-06T07:10:25.444Z</time>
      </trkpt>
      <trkpt lat="45.66259" lon="5.29206">
        <ele>215</ele>
        <time>2021-06-06T07:10:26.444Z</time>
      </trkpt>
      <trkpt lat="45.66264" lon="5.29213">
        <ele>215</ele>
        <time>2021-06-06T07:10:27.444Z</time>
      </trkpt>
      <trkpt lat="45.6627" lon="5.29219">
        <ele>215</ele>
        <time>2021-06-06T07:10:28.444Z</time>
      </trkpt>
      <trkpt lat="45.66275" lon="5.29226">
        <ele>215</ele>
        <time>2021-06-06T07:10:29.444Z</time>
      </trkpt>
      <trkpt lat="45.6628" lon="5.29233">
        <ele>215</ele>
        <time>2021-06-06T07:10:30.444Z</time>
      </trkpt>
      <trkpt lat="45.66285" lon="5.29239">
        <ele>215</ele>
        <time>2021-06-06T07:10:31.443Z</time>
      </trkpt>
      <trkpt lat="45.6629" lon="5.29246">
        <ele>216</ele>
        <time>2021-06-06T07:10:32.444Z</time>
      </trkpt>
      <trkpt lat="45.66295" lon="5.29253">
        <ele>216</ele>
        <time>2021-06-06T07:10:33.444Z</time>
      </trkpt>
      <trkpt lat="45.66301" lon="5.29261">
        <ele>216</ele>
        <time>2021-06-06T07:10:34.443Z</time>
      </trkpt>
      <trkpt lat="45.66306" lon="5.29267">
        <ele>216</ele>
        <time>2021-06-06T07:10:35.443Z</time>
      </trkpt>
      <trkpt lat="45.6631" lon="5.29272">
        <ele>216</ele>
        <time>2021-06-06T07:10:36.444Z</time>
      </trkpt>
      <trkpt lat="45.66315" lon="5.29278">
        <ele>215</ele>
        <time>2021-06-06T07:10:37.444Z</time>
      </trkpt>
      <trkpt lat="45.6632" lon="5.29284">
        <ele>215</ele>
        <time>2021-06-06T07:10:38.443Z</time>
      </trkpt>
      <trkpt lat="45.66325" lon="5.2929">
        <ele>215</ele>
        <time>2021-06-06T07:10:39.443Z</time>
      </trkpt>
      <trkpt lat="45.6633" lon="5.29296">
        <ele>216</ele>
        <time>2021-06-06T07:10:40.444Z</time>
      </trkpt>
      <trkpt lat="45.66335" lon="5.29302">
        <ele>215</ele>
        <time>2021-06-06T07:10:41.443Z</time>
      </trkpt>
      <trkpt lat="45.66339" lon="5.29308">
        <ele>215</ele>
        <time>2021-06-06T07:10:42.444Z</time>
      </trkpt>
      <trkpt lat="45.66344" lon="5.29313">
        <ele>215</ele>
        <time>2021-06-06T07:10:43.444Z</time>
      </trkpt>
      <trkpt lat="45.66349" lon="5.29319">
        <ele>215</ele>
        <time>2021-06-06T07:10:44.444Z</time>
      </trkpt>
      <trkpt lat="45.66354" lon="5.29326">
        <ele>215</ele>
        <time>2021-06-06T07:10:45.444Z</time>
      </trkpt>
      <trkpt lat="45.66359" lon="5.29332">
        <ele>215</ele>
        <time>2021-06-06T07:10:46.444Z</time>
      </trkpt>
      <trkpt lat="45.66364" lon="5.29338">
        <ele>216</ele>
        <time>2021-06-06T07:10:47.444Z</time>
      </trkpt>
      <trkpt lat="45.66369" lon="5.29345">
        <ele>216</ele>
        <time>2021-06-06T07:10:48.444Z</time>
      </trkpt>
      <trkpt lat="45.66374" lon="5.29351">
        <ele>216</ele>
        <time>2021-06-06T07:10:49.443Z</time>
      </trkpt>
      <trkpt lat="45.66378" lon="5.29357">
        <ele>216</ele>
        <time>2021-06-06T07:10:50.444Z</time>
      </trkpt>
      <trkpt lat="45.66383" lon="5.29363">
        <ele>217</ele>
        <time>2021-06-06T07:10:51.444Z</time>
      </trkpt>
      <trkpt lat="45.66387" lon="5.2937">
        <ele>217</ele>
        <time>2021-06-06T07:10:52.444Z</time>
      </trkpt>
      <trkpt lat="45.66392" lon="5.29376">
        <ele>218</ele>
        <time>2021-06-06T07:10:53.444Z</time>
      </trkpt>
      <trkpt lat="45.66396" lon="5.29382">
        <ele>218</ele>
        <time>2021-06-06T07:10:54.444Z</time>
      </trkpt>
      <trkpt lat="45.66401" lon="5.29388">
        <ele>218</ele>
        <time>2021-06-06T07:10:55.444Z</time>
      </trkpt>
      <trkpt lat="45.66406" lon="5.29394">
        <ele>218</ele>
        <time>2021-06-06T07:10:56.444Z</time>
      </trkpt>
      <trkpt lat="45.6641" lon="5.294">
        <ele>218</ele>
        <time>2021-06-06T07:10:57.444Z</time>
      </trkpt>
      <trkpt lat="45.66415" lon="5.29405">
        <ele>218</ele>
        <time>2021-06-06T07:10:58.444Z</time>
      </trkpt>
      <trkpt lat="45.66419" lon="5.29411">
        <ele>218</ele>
        <time>2021-06-06T07:10:59.444Z</time>
      </trkpt>
      <trkpt lat="45.66424" lon="5.29417">
        <ele>218</ele>
        <time>2021-06-06T07:11:00.444Z</time>
      </trkpt>
      <trkpt lat="45.66428" lon="5.29422">
        <ele>219</ele>
        <time>2021-06-06T07:11:01.444Z</time>
      </trkpt>
      <trkpt lat="45.66432" lon="5.29428">
        <ele>219</ele>
        <time>2021-06-06T07:11:02.444Z</time>
      </trkpt>
      <trkpt lat="45.66436" lon="5.29434">
        <ele>220</ele>
        <time>2021-06-06T07:11:03.444Z</time>
      </trkpt>
      <trkpt lat="45.66441" lon="5.2944">
        <ele>220</ele>
        <time>2021-06-06T07:11:04.443Z</time>
      </trkpt>
      <trkpt lat="45.66445" lon="5.29445">
        <ele>220</ele>
        <time>2021-06-06T07:11:05.444Z</time>
      </trkpt>
      <trkpt lat="45.66449" lon="5.29451">
        <ele>221</ele>
        <time>2021-06-06T07:11:06.444Z</time>
      </trkpt>
      <trkpt lat="45.66454" lon="5.29457">
        <ele>221</ele>
        <time>2021-06-06T07:11:07.444Z</time>
      </trkpt>
      <trkpt lat="45.66458" lon="5.29462">
        <ele>221</ele>
        <time>2021-06-06T07:11:08.443Z</time>
      </trkpt>
      <trkpt lat="45.66462" lon="5.29467">
        <ele>221</ele>
        <time>2021-06-06T07:11:09.443Z</time>
      </trkpt>
      <trkpt lat="45.66466" lon="5.29473">
        <ele>221</ele>
        <time>2021-06-06T07:11:10.444Z</time>
      </trkpt>
      <trkpt lat="45.6647" lon="5.29478">
        <ele>221</ele>
        <time>2021-06-06T07:11:11.444Z</time>
      </trkpt>
      <trkpt lat="45.66474" lon="5.29483">
        <ele>222</ele>
        <time>2021-06-06T07:11:12.444Z</time>
      </trkpt>
      <trkpt lat="45.66478" lon="5.29488">
        <ele>222</ele>
        <time>2021-06-06T07:11:13.443Z</time>
      </trkpt>
      <trkpt lat="45.66482" lon="5.29493">
        <ele>222</ele>
        <time>2021-06-06T07:11:14.444Z</time>
      </trkpt>
      <trkpt lat="45.66486" lon="5.29498">
        <ele>222</ele>
        <time>2021-06-06T07:11:15.443Z</time>
      </trkpt>
      <trkpt lat="45.66489" lon="5.29503">
        <ele>223</ele>
        <time>2021-06-06T07:11:16.443Z</time>
      </trkpt>
      <trkpt lat="45.66493" lon="5.29509">
        <ele>223</ele>
        <time>2021-06-06T07:11:17.444Z</time>
      </trkpt>
      <trkpt lat="45.66497" lon="5.29514">
        <ele>223</ele>
        <time>2021-06-06T07:11:18.443Z</time>
      </trkpt>
      <trkpt lat="45.66501" lon="5.29519">
        <ele>223</ele>
        <time>2021-06-06T07:11:19.444Z</time>
      </trkpt>
      <trkpt lat="45.66505" lon="5.29525">
        <ele>224</ele>
        <time>2021-06-06T07:11:20.443Z</time>
      </trkpt>
      <trkpt lat="45.66509" lon="5.2953">
        <ele>224</ele>
        <time>2021-06-06T07:11:21.444Z</time>
      </trkpt>
      <trkpt lat="45.66513" lon="5.29535">
        <ele>223</ele>
        <time>2021-06-06T07:11:22.444Z</time>
      </trkpt>
      <trkpt lat="45.66517" lon="5.2954">
        <ele>223</ele>
        <time>2021-06-06T07:11:23.444Z</time>
      </trkpt>
      <trkpt lat="45.66522" lon="5.29544">
        <ele>223</ele>
        <time>2021-06-06T07:11:24.444Z</time>
      </trkpt>
      <trkpt lat="45.66526" lon="5.29549">
        <ele>222</ele>
        <time>2021-06-06T07:11:25.444Z</time>
      </trkpt>
      <trkpt lat="45.6653" lon="5.29554">
        <ele>222</ele>
        <time>2021-06-06T07:11:26.443Z</time>
      </trkpt>
      <trkpt lat="45.66534" lon="5.29559">
        <ele>222</ele>
        <time>2021-06-06T07:11:27.443Z</time>
      </trkpt>
      <trkpt lat="45.66538" lon="5.29565">
        <ele>221</ele>
        <time>2021-06-06T07:11:28.443Z</time>
      </trkpt>
      <trkpt lat="45.66542" lon="5.2957">
        <ele>221</ele>
        <time>2021-06-06T07:11:29.444Z</time>
      </trkpt>
      <trkpt lat="45.66546" lon="5.29575">
        <ele>222</ele>
        <time>2021-06-06T07:11:30.443Z</time>
      </trkpt>
      <trkpt lat="45.6655" lon="5.2958">
        <ele>222</ele>
        <time>2021-06-06T07:11:31.444Z</time>
      </trkpt>
      <trkpt lat="45.66554" lon="5.29586">
        <ele>222</ele>
        <time>2021-06-06T07:11:32.443Z</time>
      </trkpt>
      <trkpt lat="45.66558" lon="5.29591">
        <ele>222</ele>
        <time>2021-06-06T07:11:33.444Z</time>
      </trkpt>
      <trkpt lat="45.66563" lon="5.29596">
        <ele>222</ele>
        <time>2021-06-06T07:11:34.444Z</time>
      </trkpt>
      <trkpt lat="45.66567" lon="5.29602">
        <ele>222</ele>
        <time>2021-06-06T07:11:35.444Z</time>
      </trkpt>
      <trkpt lat="45.66571" lon="5.29607">
        <ele>223</ele>
        <time>2021-06-06T07:11:36.443Z</time>
      </trkpt>
      <trkpt lat="45.66575" lon="5.29613">
        <ele>224</ele>
        <time>2021-06-06T07:11:37.443Z</time>
      </trkpt>
      <trkpt lat="45.66579" lon="5.29618">
        <ele>224</ele>
        <time>2021-06-06T07:11:38.444Z</time>
      </trkpt>
      <trkpt lat="45.66583" lon="5.29624">
        <ele>225</ele>
        <time>2021-06-06T07:11:39.443Z</time>
      </trkpt>
      <trkpt lat="45.66587" lon="5.29629">
        <ele>225</ele>
        <time>2021-06-06T07:11:40.444Z</time>
      </trkpt>
      <trkpt lat="45.66591" lon="5.29634">
        <ele>225</ele>
        <time>2021-06-06T07:11:41.444Z</time>
      </trkpt>
      <trkpt lat="45.66596" lon="5.29639">
        <ele>225</ele>
        <time>2021-06-06T07:11:42.443Z</time>
      </trkpt>
      <trkpt lat="45.666" lon="5.29645">
        <ele>225</ele>
        <time>2021-06-06T07:11:43.444Z</time>
      </trkpt>
      <trkpt lat="45.66605" lon="5.2965">
        <ele>225</ele>
        <time>2021-06-06T07:11:44.443Z</time>
      </trkpt>
      <trkpt lat="45.6661" lon="5.29656">
        <ele>225</ele>
        <time>2021-06-06T07:11:45.443Z</time>
      </trkpt>
      <trkpt lat="45.66615" lon="5.29661">
        <ele>224</ele>
        <time>2021-06-06T07:11:46.444Z</time>
      </trkpt>
      <trkpt lat="45.66619" lon="5.29667">
        <ele>224</ele>
        <time>2021-06-06T07:11:47.443Z</time>
      </trkpt>
      <trkpt lat="45.66624" lon="5.29673">
        <ele>224</ele>
        <time>2021-06-06T07:11:48.444Z</time>
      </trkpt>
      <trkpt lat="45.66629" lon="5.29678">
        <ele>224</ele>
        <time>2021-06-06T07:11:49.444Z</time>
      </trkpt>
      <trkpt lat="45.66634" lon="5.29683">
        <ele>224</ele>
        <time>2021-06-06T07:11:50.444Z</time>
      </trkpt>
      <trkpt lat="45.6664" lon="5.29688">
        <ele>224</ele>
        <time>2021-06-06T07:11:51.443Z</time>
      </trkpt>
      <trkpt lat="45.66645" lon="5.29693">
        <ele>223</ele>
        <time>2021-06-06T07:11:52.443Z</time>
      </trkpt>
      <trkpt lat="45.66651" lon="5.29698">
        <ele>223</ele>
        <time>2021-06-06T07:11:53.444Z</time>
      </trkpt>
      <trkpt lat="45.66656" lon="5.29703">
        <ele>223</ele>
        <time>2021-06-06T07:11:54.444Z</time>
      </trkpt>
      <trkpt lat="45.66662" lon="5.29708">
        <ele>224</ele>
        <time>2021-06-06T07:11:55.444Z</time>
      </trkpt>
      <trkpt lat="45.66667" lon="5.29712">
        <ele>224</ele>
        <time>2021-06-06T07:11:56.443Z</time>
      </trkpt>
      <trkpt lat="45.66674" lon="5.29717">
        <ele>224</ele>
        <time>2021-06-06T07:11:57.443Z</time>
      </trkpt>
      <trkpt lat="45.66679" lon="5.2972">
        <ele>223</ele>
        <time>2021-06-06T07:11:58.443Z</time>
      </trkpt>
      <trkpt lat="45.66684" lon="5.29724">
        <ele>223</ele>
        <time>2021-06-06T07:11:59.443Z</time>
      </trkpt>
      <trkpt lat="45.6669" lon="5.29728">
        <ele>223</ele>
        <time>2021-06-06T07:12:00.443Z</time>
      </trkpt>
      <trkpt lat="45.66695" lon="5.29733">
        <ele>224</ele>
        <time>2021-06-06T07:12:01.443Z</time>
      </trkpt>
      <trkpt lat="45.66701" lon="5.29737">
        <ele>224</ele>
        <time>2021-06-06T07:12:02.443Z</time>
      </trkpt>
      <trkpt lat="45.66706" lon="5.2974">
        <ele>224</ele>
        <time>2021-06-06T07:12:03.443Z</time>
      </trkpt>
      <trkpt lat="45.66711" lon="5.29744">
        <ele>224</ele>
        <time>2021-06-06T07:12:04.444Z</time>
      </trkpt>
      <trkpt lat="45.66716" lon="5.29748">
        <ele>224</ele>
        <time>2021-06-06T07:12:05.444Z</time>
      </trkpt>
      <trkpt lat="45.66721" lon="5.29751">
        <ele>224</ele>
        <time>2021-06-06T07:12:06.443Z</time>
      </trkpt>
      <trkpt lat="45.66727" lon="5.29755">
        <ele>224</ele>
        <time>2021-06-06T07:12:07.443Z</time>
      </trkpt>
      <trkpt lat="45.66731" lon="5.29758">
        <ele>225</ele>
        <time>2021-06-06T07:12:08.443Z</time>
      </trkpt>
      <trkpt lat="45.66736" lon="5.29762">
        <ele>225</ele>
        <time>2021-06-06T07:12:09.443Z</time>
      </trkpt>
      <trkpt lat="45.66741" lon="5.29766">
        <ele>225</ele>
        <time>2021-06-06T07:12:10.444Z</time>
      </trkpt>
      <trkpt lat="45.66746" lon="5.2977">
        <ele>226</ele>
        <time>2021-06-06T07:12:11.443Z</time>
      </trkpt>
      <trkpt lat="45.66752" lon="5.29775">
        <ele>226</ele>
        <time>2021-06-06T07:12:12.443Z</time>
      </trkpt>
      <trkpt lat="45.66757" lon="5.29779">
        <ele>225</ele>
        <time>2021-06-06T07:12:13.443Z</time>
      </trkpt>
      <trkpt lat="45.66762" lon="5.29782">
        <ele>225</ele>
        <time>2021-06-06T07:12:14.443Z</time>
      </trkpt>
      <trkpt lat="45.66768" lon="5.29787">
        <ele>226</ele>
        <time>2021-06-06T07:12:15.443Z</time>
      </trkpt>
      <trkpt lat="45.66773" lon="5.29791">
        <ele>226</ele>
        <time>2021-06-06T07:12:16.444Z</time>
      </trkpt>
      <trkpt lat="45.66778" lon="5.29794">
        <ele>226</ele>
        <time>2021-06-06T07:12:17.443Z</time>
      </trkpt>
      <trkpt lat="45.66783" lon="5.29798">
        <ele>226</ele>
        <time>2021-06-06T07:12:18.443Z</time>
      </trkpt>
      <trkpt lat="45.66789" lon="5.29801">
        <ele>225</ele>
        <time>2021-06-06T07:12:19.444Z</time>
      </trkpt>
      <trkpt lat="45.66795" lon="5.29806">
        <ele>225</ele>
        <time>2021-06-06T07:12:20.444Z</time>
      </trkpt>
      <trkpt lat="45.668" lon="5.2981">
        <ele>225</ele>
        <time>2021-06-06T07:12:21.444Z</time>
      </trkpt>
      <trkpt lat="45.66804" lon="5.29813">
        <ele>225</ele>
        <time>2021-06-06T07:12:22.444Z</time>
      </trkpt>
      <trkpt lat="45.6681" lon="5.29816">
        <ele>225</ele>
        <time>2021-06-06T07:12:23.444Z</time>
      </trkpt>
      <trkpt lat="45.66815" lon="5.2982">
        <ele>225</ele>
        <time>2021-06-06T07:12:24.443Z</time>
      </trkpt>
      <trkpt lat="45.6682" lon="5.29824">
        <ele>225</ele>
        <time>2021-06-06T07:12:25.444Z</time>
      </trkpt>
      <trkpt lat="45.66827" lon="5.29828">
        <ele>225</ele>
        <time>2021-06-06T07:12:26.444Z</time>
      </trkpt>
      <trkpt lat="45.66832" lon="5.29832">
        <ele>225</ele>
        <time>2021-06-06T07:12:27.444Z</time>
      </trkpt>
      <trkpt lat="45.66836" lon="5.29835">
        <ele>225</ele>
        <time>2021-06-06T07:12:28.443Z</time>
      </trkpt>
      <trkpt lat="45.66841" lon="5.29839">
        <ele>225</ele>
        <time>2021-06-06T07:12:29.443Z</time>
      </trkpt>
      <trkpt lat="45.66846" lon="5.29842">
        <ele>225</ele>
        <time>2021-06-06T07:12:30.444Z</time>
      </trkpt>
      <trkpt lat="45.66851" lon="5.29846">
        <ele>225</ele>
        <time>2021-06-06T07:12:31.443Z</time>
      </trkpt>
      <trkpt lat="45.66855" lon="5.29849">
        <ele>225</ele>
        <time>2021-06-06T07:12:32.444Z</time>
      </trkpt>
      <trkpt lat="45.6686" lon="5.29853">
        <ele>225</ele>
        <time>2021-06-06T07:12:33.443Z</time>
      </trkpt>
      <trkpt lat="45.66865" lon="5.29856">
        <ele>225</ele>
        <time>2021-06-06T07:12:34.443Z</time>
      </trkpt>
      <trkpt lat="45.6687" lon="5.29859">
        <ele>225</ele>
        <time>2021-06-06T07:12:35.444Z</time>
      </trkpt>
      <trkpt lat="45.66874" lon="5.29862">
        <ele>225</ele>
        <time>2021-06-06T07:12:36.443Z</time>
      </trkpt>
      <trkpt lat="45.66877" lon="5.29866">
        <ele>225</ele>
        <time>2021-06-06T07:12:37.444Z</time>
      </trkpt>
      <trkpt lat="45.66879" lon="5.29872">
        <ele>225</ele>
        <time>2021-06-06T07:12:38.444Z</time>
      </trkpt>
      <trkpt lat="45.66879" lon="5.29878">
        <ele>225</ele>
        <time>2021-06-06T07:12:39.443Z</time>
      </trkpt>
      <trkpt lat="45.66877" lon="5.29884">
        <ele>224</ele>
        <time>2021-06-06T07:12:40.444Z</time>
      </trkpt>
      <trkpt lat="45.66874" lon="5.29892">
        <ele>224</ele>
        <time>2021-06-06T07:12:41.443Z</time>
      </trkpt>
      <trkpt lat="45.66871" lon="5.299">
        <ele>225</ele>
        <time>2021-06-06T07:12:42.443Z</time>
      </trkpt>
      <trkpt lat="45.66869" lon="5.29909">
        <ele>225</ele>
        <time>2021-06-06T07:12:43.443Z</time>
      </trkpt>
      <trkpt lat="45.66866" lon="5.29918">
        <ele>224</ele>
        <time>2021-06-06T07:12:44.444Z</time>
      </trkpt>
      <trkpt lat="45.66863" lon="5.29927">
        <ele>224</ele>
        <time>2021-06-06T07:12:45.444Z</time>
      </trkpt>
      <trkpt lat="45.6686" lon="5.29937">
        <ele>223</ele>
        <time>2021-06-06T07:12:46.444Z</time>
      </trkpt>
      <trkpt lat="45.66857" lon="5.29947">
        <ele>223</ele>
        <time>2021-06-06T07:12:47.444Z</time>
      </trkpt>
      <trkpt lat="45.66854" lon="5.29959">
        <ele>222</ele>
        <time>2021-06-06T07:12:48.444Z</time>
      </trkpt>
      <trkpt lat="45.66851" lon="5.29968">
        <ele>222</ele>
        <time>2021-06-06T07:12:49.444Z</time>
      </trkpt>
      <trkpt lat="45.66848" lon="5.29978">
        <ele>222</ele>
        <time>2021-06-06T07:12:50.444Z</time>
      </trkpt>
      <trkpt lat="45.66844" lon="5.29989">
        <ele>222</ele>
        <time>2021-06-06T07:12:51.443Z</time>
      </trkpt>
      <trkpt lat="45.6684" lon="5.3">
        <ele>222</ele>
        <time>2021-06-06T07:12:52.444Z</time>
      </trkpt>
      <trkpt lat="45.66837" lon="5.30011">
        <ele>222</ele>
        <time>2021-06-06T07:12:53.443Z</time>
      </trkpt>
      <trkpt lat="45.66833" lon="5.30023">
        <ele>222</ele>
        <time>2021-06-06T07:12:54.444Z</time>
      </trkpt>
      <trkpt lat="45.6683" lon="5.30035">
        <ele>222</ele>
        <time>2021-06-06T07:12:55.444Z</time>
      </trkpt>
      <trkpt lat="45.66827" lon="5.30046">
        <ele>222</ele>
        <time>2021-06-06T07:12:56.444Z</time>
      </trkpt>
      <trkpt lat="45.66824" lon="5.30058">
        <ele>222</ele>
        <time>2021-06-06T07:12:57.444Z</time>
      </trkpt>
      <trkpt lat="45.66822" lon="5.30069">
        <ele>222</ele>
        <time>2021-06-06T07:12:58.444Z</time>
      </trkpt>
      <trkpt lat="45.6682" lon="5.30081">
        <ele>222</ele>
        <time>2021-06-06T07:12:59.444Z</time>
      </trkpt>
      <trkpt lat="45.6682" lon="5.30092">
        <ele>222</ele>
        <time>2021-06-06T07:13:00.444Z</time>
      </trkpt>
      <trkpt lat="45.66821" lon="5.30104">
        <ele>221</ele>
        <time>2021-06-06T07:13:01.444Z</time>
      </trkpt>
      <trkpt lat="45.66823" lon="5.30115">
        <ele>221</ele>
        <time>2021-06-06T07:13:02.444Z</time>
      </trkpt>
      <trkpt lat="45.66827" lon="5.30125">
        <ele>221</ele>
        <time>2021-06-06T07:13:03.444Z</time>
      </trkpt>
      <trkpt lat="45.66831" lon="5.30135">
        <ele>221</ele>
        <time>2021-06-06T07:13:04.443Z</time>
      </trkpt>
      <trkpt lat="45.66836" lon="5.30144">
        <ele>221</ele>
        <time>2021-06-06T07:13:05.444Z</time>
      </trkpt>
      <trkpt lat="45.66843" lon="5.30152">
        <ele>221</ele>
        <time>2021-06-06T07:13:06.443Z</time>
      </trkpt>
      <trkpt lat="45.66849" lon="5.30161">
        <ele>221</ele>
        <time>2021-06-06T07:13:07.443Z</time>
      </trkpt>
      <trkpt lat="45.66855" lon="5.30169">
        <ele>221</ele>
        <time>2021-06-06T07:13:08.443Z</time>
      </trkpt>
      <trkpt lat="45.66861" lon="5.30177">
        <ele>221</ele>
        <time>2021-06-06T07:13:09.444Z</time>
      </trkpt>
      <trkpt lat="45.66867" lon="5.30186">
        <ele>221</ele>
        <time>2021-06-06T07:13:10.443Z</time>
      </trkpt>
      <trkpt lat="45.66872" lon="5.30195">
        <ele>221</ele>
        <time>2021-06-06T07:13:11.444Z</time>
      </trkpt>
      <trkpt lat="45.66877" lon="5.30204">
        <ele>221</ele>
        <time>2021-06-06T07:13:12.444Z</time>
      </trkpt>
      <trkpt lat="45.66881" lon="5.30214">
        <ele>221</ele>
        <time>2021-06-06T07:13:13.443Z</time>
      </trkpt>
      <trkpt lat="45.66885" lon="5.30224">
        <ele>221</ele>
        <time>2021-06-06T07:13:14.444Z</time>
      </trkpt>
      <trkpt lat="45.66888" lon="5.30234">
        <ele>221</ele>
        <time>2021-06-06T07:13:15.444Z</time>
      </trkpt>
      <trkpt lat="45.66892" lon="5.30243">
        <ele>221</ele>
        <time>2021-06-06T07:13:16.444Z</time>
      </trkpt>
      <trkpt lat="45.66896" lon="5.30252">
        <ele>221</ele>
        <time>2021-06-06T07:13:17.444Z</time>
      </trkpt>
      <trkpt lat="45.669" lon="5.30261">
        <ele>220</ele>
        <time>2021-06-06T07:13:18.444Z</time>
      </trkpt>
      <trkpt lat="45.66905" lon="5.30268">
        <ele>220</ele>
        <time>2021-06-06T07:13:19.444Z</time>
      </trkpt>
      <trkpt lat="45.66911" lon="5.30275">
        <ele>220</ele>
        <time>2021-06-06T07:13:20.443Z</time>
      </trkpt>
      <trkpt lat="45.66916" lon="5.30282">
        <ele>220</ele>
        <time>2021-06-06T07:13:21.444Z</time>
      </trkpt>
      <trkpt lat="45.66921" lon="5.30289">
        <ele>220</ele>
        <time>2021-06-06T07:13:22.443Z</time>
      </trkpt>
      <trkpt lat="45.66926" lon="5.30295">
        <ele>221</ele>
        <time>2021-06-06T07:13:23.444Z</time>
      </trkpt>
      <trkpt lat="45.66931" lon="5.30302">
        <ele>221</ele>
        <time>2021-06-06T07:13:24.444Z</time>
      </trkpt>
      <trkpt lat="45.66936" lon="5.30308">
        <ele>221</ele>
        <time>2021-06-06T07:13:25.443Z</time>
      </trkpt>
      <trkpt lat="45.66941" lon="5.30314">
        <ele>221</ele>
        <time>2021-06-06T07:13:26.443Z</time>
      </trkpt>
      <trkpt lat="45.66946" lon="5.30321">
        <ele>221</ele>
        <time>2021-06-06T07:13:27.444Z</time>
      </trkpt>
      <trkpt lat="45.6695" lon="5.30327">
        <ele>221</ele>
        <time>2021-06-06T07:13:28.444Z</time>
      </trkpt>
      <trkpt lat="45.66954" lon="5.30334">
        <ele>221</ele>
        <time>2021-06-06T07:13:29.443Z</time>
      </trkpt>
      <trkpt lat="45.66957" lon="5.30341">
        <ele>222</ele>
        <time>2021-06-06T07:13:30.443Z</time>
      </trkpt>
      <trkpt lat="45.66961" lon="5.30347">
        <ele>222</ele>
        <time>2021-06-06T07:13:31.444Z</time>
      </trkpt>
      <trkpt lat="45.66964" lon="5.30353">
        <ele>221</ele>
        <time>2021-06-06T07:13:32.443Z</time>
      </trkpt>
      <trkpt lat="45.66967" lon="5.30359">
        <ele>222</ele>
        <time>2021-06-06T07:13:33.444Z</time>
      </trkpt>
      <trkpt lat="45.6697" lon="5.30365">
        <ele>222</ele>
        <time>2021-06-06T07:13:34.444Z</time>
      </trkpt>
      <trkpt lat="45.66973" lon="5.30371">
        <ele>222</ele>
        <time>2021-06-06T07:13:35.444Z</time>
      </trkpt>
      <trkpt lat="45.66977" lon="5.30376">
        <ele>222</ele>
        <time>2021-06-06T07:13:36.443Z</time>
      </trkpt>
      <trkpt lat="45.6698" lon="5.30382">
        <ele>222</ele>
        <time>2021-06-06T07:13:37.444Z</time>
      </trkpt>
      <trkpt lat="45.66983" lon="5.30387">
        <ele>221</ele>
        <time>2021-06-06T07:13:38.444Z</time>
      </trkpt>
      <trkpt lat="45.66986" lon="5.30392">
        <ele>221</ele>
        <time>2021-06-06T07:13:39.444Z</time>
      </trkpt>
      <trkpt lat="45.66989" lon="5.30398">
        <ele>221</ele>
        <time>2021-06-06T07:13:40.444Z</time>
      </trkpt>
      <trkpt lat="45.66992" lon="5.30403">
        <ele>221</ele>
        <time>2021-06-06T07:13:41.444Z</time>
      </trkpt>
      <trkpt lat="45.66995" lon="5.30409">
        <ele>221</ele>
        <time>2021-06-06T07:13:42.444Z</time>
      </trkpt>
      <trkpt lat="45.66998" lon="5.30414">
        <ele>221</ele>
        <time>2021-06-06T07:13:43.443Z</time>
      </trkpt>
      <trkpt lat="45.67" lon="5.3042">
        <ele>221</ele>
        <time>2021-06-06T07:13:44.443Z</time>
      </trkpt>
      <trkpt lat="45.67004" lon="5.30426">
        <ele>221</ele>
        <time>2021-06-06T07:13:45.444Z</time>
      </trkpt>
      <trkpt lat="45.67007" lon="5.30431">
        <ele>221</ele>
        <time>2021-06-06T07:13:46.444Z</time>
      </trkpt>
      <trkpt lat="45.6701" lon="5.30436">
        <ele>221</ele>
        <time>2021-06-06T07:13:47.444Z</time>
      </trkpt>
      <trkpt lat="45.67013" lon="5.30441">
        <ele>222</ele>
        <time>2021-06-06T07:13:48.444Z</time>
      </trkpt>
      <trkpt lat="45.67016" lon="5.30446">
        <ele>222</ele>
        <time>2021-06-06T07:13:49.443Z</time>
      </trkpt>
      <trkpt lat="45.67018" lon="5.30451">
        <ele>222</ele>
        <time>2021-06-06T07:13:50.444Z</time>
      </trkpt>
      <trkpt lat="45.67021" lon="5.30456">
        <ele>223</ele>
        <time>2021-06-06T07:13:51.444Z</time>
      </trkpt>
      <trkpt lat="45.67023" lon="5.30461">
        <ele>224</ele>
        <time>2021-06-06T07:13:52.444Z</time>
      </trkpt>
      <trkpt lat="45.67026" lon="5.30466">
        <ele>224</ele>
        <time>2021-06-06T07:13:53.444Z</time>
      </trkpt>
      <trkpt lat="45.67028" lon="5.3047">
        <ele>224</ele>
        <time>2021-06-06T07:13:54.444Z</time>
      </trkpt>
      <trkpt lat="45.6703" lon="5.30475">
        <ele>225</ele>
        <time>2021-06-06T07:13:55.444Z</time>
      </trkpt>
      <trkpt lat="45.67033" lon="5.30479">
        <ele>225</ele>
        <time>2021-06-06T07:13:56.444Z</time>
      </trkpt>
      <trkpt lat="45.67036" lon="5.30484">
        <ele>226</ele>
        <time>2021-06-06T07:13:57.443Z</time>
      </trkpt>
      <trkpt lat="45.67038" lon="5.30488">
        <ele>226</ele>
        <time>2021-06-06T07:13:58.444Z</time>
      </trkpt>
      <trkpt lat="45.67041" lon="5.30493">
        <ele>226</ele>
        <time>2021-06-06T07:13:59.444Z</time>
      </trkpt>
      <trkpt lat="45.67044" lon="5.30497">
        <ele>226</ele>
        <time>2021-06-06T07:14:00.443Z</time>
      </trkpt>
      <trkpt lat="45.67047" lon="5.30502">
        <ele>227</ele>
        <time>2021-06-06T07:14:01.444Z</time>
      </trkpt>
      <trkpt lat="45.67049" lon="5.30507">
        <ele>227</ele>
        <time>2021-06-06T07:14:02.444Z</time>
      </trkpt>
      <trkpt lat="45.67052" lon="5.30512">
        <ele>227</ele>
        <time>2021-06-06T07:14:03.443Z</time>
      </trkpt>
      <trkpt lat="45.67055" lon="5.30517">
        <ele>227</ele>
        <time>2021-06-06T07:14:04.443Z</time>
      </trkpt>
      <trkpt lat="45.67058" lon="5.30521">
        <ele>228</ele>
        <time>2021-06-06T07:14:05.443Z</time>
      </trkpt>
      <trkpt lat="45.67061" lon="5.30526">
        <ele>228</ele>
        <time>2021-06-06T07:14:06.444Z</time>
      </trkpt>
      <trkpt lat="45.67064" lon="5.30531">
        <ele>228</ele>
        <time>2021-06-06T07:14:07.443Z</time>
      </trkpt>
      <trkpt lat="45.67067" lon="5.30535">
        <ele>229</ele>
        <time>2021-06-06T07:14:08.444Z</time>
      </trkpt>
      <trkpt lat="45.67069" lon="5.3054">
        <ele>229</ele>
        <time>2021-06-06T07:14:09.443Z</time>
      </trkpt>
      <trkpt lat="45.67071" lon="5.30544">
        <ele>229</ele>
        <time>2021-06-06T07:14:10.443Z</time>
      </trkpt>
      <trkpt lat="45.67074" lon="5.30549">
        <ele>230</ele>
        <time>2021-06-06T07:14:11.443Z</time>
      </trkpt>
      <trkpt lat="45.67076" lon="5.30553">
        <ele>230</ele>
        <time>2021-06-06T07:14:12.443Z</time>
      </trkpt>
      <trkpt lat="45.67079" lon="5.30557">
        <ele>230</ele>
        <time>2021-06-06T07:14:13.444Z</time>
      </trkpt>
      <trkpt lat="45.67082" lon="5.30561">
        <ele>231</ele>
        <time>2021-06-06T07:14:14.443Z</time>
      </trkpt>
      <trkpt lat="45.67085" lon="5.30566">
        <ele>231</ele>
        <time>2021-06-06T07:14:15.444Z</time>
      </trkpt>
      <trkpt lat="45.67088" lon="5.3057">
        <ele>231</ele>
        <time>2021-06-06T07:14:16.443Z</time>
      </trkpt>
      <trkpt lat="45.67092" lon="5.30575">
        <ele>231</ele>
        <time>2021-06-06T07:14:17.443Z</time>
      </trkpt>
      <trkpt lat="45.67095" lon="5.3058">
        <ele>231</ele>
        <time>2021-06-06T07:14:18.444Z</time>
      </trkpt>
      <trkpt lat="45.67099" lon="5.30585">
        <ele>231</ele>
        <time>2021-06-06T07:14:19.444Z</time>
      </trkpt>
      <trkpt lat="45.67102" lon="5.30589">
        <ele>231</ele>
        <time>2021-06-06T07:14:20.444Z</time>
      </trkpt>
      <trkpt lat="45.67105" lon="5.30594">
        <ele>231</ele>
        <time>2021-06-06T07:14:21.444Z</time>
      </trkpt>
      <trkpt lat="45.67109" lon="5.30599">
        <ele>231</ele>
        <time>2021-06-06T07:14:22.443Z</time>
      </trkpt>
      <trkpt lat="45.67112" lon="5.30604">
        <ele>231</ele>
        <time>2021-06-06T07:14:23.444Z</time>
      </trkpt>
      <trkpt lat="45.67115" lon="5.30609">
        <ele>231</ele>
        <time>2021-06-06T07:14:24.444Z</time>
      </trkpt>
      <trkpt lat="45.67119" lon="5.30614">
        <ele>231</ele>
        <time>2021-06-06T07:14:25.443Z</time>
      </trkpt>
      <trkpt lat="45.67122" lon="5.30619">
        <ele>231</ele>
        <time>2021-06-06T07:14:26.444Z</time>
      </trkpt>
      <trkpt lat="45.67126" lon="5.30624">
        <ele>230</ele>
        <time>2021-06-06T07:14:27.444Z</time>
      </trkpt>
      <trkpt lat="45.67129" lon="5.30629">
        <ele>230</ele>
        <time>2021-06-06T07:14:28.443Z</time>
      </trkpt>
      <trkpt lat="45.67132" lon="5.30633">
        <ele>230</ele>
        <time>2021-06-06T07:14:29.444Z</time>
      </trkpt>
      <trkpt lat="45.67136" lon="5.30638">
        <ele>231</ele>
        <time>2021-06-06T07:14:30.444Z</time>
      </trkpt>
      <trkpt lat="45.67139" lon="5.30643">
        <ele>231</ele>
        <time>2021-06-06T07:14:31.443Z</time>
      </trkpt>
      <trkpt lat="45.67142" lon="5.30647">
        <ele>231</ele>
        <time>2021-06-06T07:14:32.443Z</time>
      </trkpt>
      <trkpt lat="45.67145" lon="5.30651">
        <ele>231</ele>
        <time>2021-06-06T07:14:33.443Z</time>
      </trkpt>
      <trkpt lat="45.67148" lon="5.30656">
        <ele>232</ele>
        <time>2021-06-06T07:14:34.444Z</time>
      </trkpt>
      <trkpt lat="45.67152" lon="5.30659">
        <ele>232</ele>
        <time>2021-06-06T07:14:35.443Z</time>
      </trkpt>
      <trkpt lat="45.67155" lon="5.30663">
        <ele>232</ele>
        <time>2021-06-06T07:14:36.444Z</time>
      </trkpt>
      <trkpt lat="45.67158" lon="5.30667">
        <ele>232</ele>
        <time>2021-06-06T07:14:37.444Z</time>
      </trkpt>
      <trkpt lat="45.67161" lon="5.30671">
        <ele>232</ele>
        <time>2021-06-06T07:14:38.444Z</time>
      </trkpt>
      <trkpt lat="45.67164" lon="5.30674">
        <ele>232</ele>
        <time>2021-06-06T07:14:39.444Z</time>
      </trkpt>
      <trkpt lat="45.67168" lon="5.30678">
        <ele>232</ele>
        <time>2021-06-06T07:14:40.444Z</time>
      </trkpt>
      <trkpt lat="45.67172" lon="5.30681">
        <ele>232</ele>
        <time>2021-06-06T07:14:41.444Z</time>
      </trkpt>
      <trkpt lat="45.67176" lon="5.30685">
        <ele>232</ele>
        <time>2021-06-06T07:14:42.444Z</time>
      </trkpt>
      <trkpt lat="45.6718" lon="5.30689">
        <ele>232</ele>
        <time>2021-06-06T07:14:43.444Z</time>
      </trkpt>
      <trkpt lat="45.67185" lon="5.30693">
        <ele>232</ele>
        <time>2021-06-06T07:14:44.444Z</time>
      </trkpt>
      <trkpt lat="45.6719" lon="5.30697">
        <ele>232</ele>
        <time>2021-06-06T07:14:45.444Z</time>
      </trkpt>
      <trkpt lat="45.67194" lon="5.30701">
        <ele>232</ele>
        <time>2021-06-06T07:14:46.444Z</time>
      </trkpt>
      <trkpt lat="45.672" lon="5.30706">
        <ele>231</ele>
        <time>2021-06-06T07:14:47.444Z</time>
      </trkpt>
      <trkpt lat="45.67204" lon="5.30711">
        <ele>231</ele>
        <time>2021-06-06T07:14:48.444Z</time>
      </trkpt>
      <trkpt lat="45.67209" lon="5.30716">
        <ele>231</ele>
        <time>2021-06-06T07:14:49.444Z</time>
      </trkpt>
      <trkpt lat="45.67214" lon="5.30721">
        <ele>231</ele>
        <time>2021-06-06T07:14:50.443Z</time>
      </trkpt>
      <trkpt lat="45.67219" lon="5.30727">
        <ele>231</ele>
        <time>2021-06-06T07:14:51.444Z</time>
      </trkpt>
      <trkpt lat="45.67223" lon="5.30734">
        <ele>231</ele>
        <time>2021-06-06T07:14:52.443Z</time>
      </trkpt>
      <trkpt lat="45.67228" lon="5.3074">
        <ele>231</ele>
        <time>2021-06-06T07:14:53.444Z</time>
      </trkpt>
      <trkpt lat="45.67232" lon="5.30747">
        <ele>231</ele>
        <time>2021-06-06T07:14:54.443Z</time>
      </trkpt>
      <trkpt lat="45.67236" lon="5.30754">
        <ele>231</ele>
        <time>2021-06-06T07:14:55.444Z</time>
      </trkpt>
      <trkpt lat="45.6724" lon="5.30762">
        <ele>231</ele>
        <time>2021-06-06T07:14:56.443Z</time>
      </trkpt>
      <trkpt lat="45.67244" lon="5.30769">
        <ele>232</ele>
        <time>2021-06-06T07:14:57.443Z</time>
      </trkpt>
      <trkpt lat="45.67248" lon="5.30776">
        <ele>232</ele>
        <time>2021-06-06T07:14:58.444Z</time>
      </trkpt>
      <trkpt lat="45.67252" lon="5.30783">
        <ele>232</ele>
        <time>2021-06-06T07:14:59.443Z</time>
      </trkpt>
      <trkpt lat="45.67256" lon="5.30789">
        <ele>233</ele>
        <time>2021-06-06T07:15:00.444Z</time>
      </trkpt>
      <trkpt lat="45.67261" lon="5.30795">
        <ele>233</ele>
        <time>2021-06-06T07:15:01.443Z</time>
      </trkpt>
      <trkpt lat="45.67266" lon="5.30802">
        <ele>233</ele>
        <time>2021-06-06T07:15:02.444Z</time>
      </trkpt>
      <trkpt lat="45.67271" lon="5.30808">
        <ele>233</ele>
        <time>2021-06-06T07:15:03.444Z</time>
      </trkpt>
      <trkpt lat="45.67277" lon="5.30813">
        <ele>232</ele>
        <time>2021-06-06T07:15:04.444Z</time>
      </trkpt>
      <trkpt lat="45.67283" lon="5.30819">
        <ele>232</ele>
        <time>2021-06-06T07:15:05.444Z</time>
      </trkpt>
      <trkpt lat="45.67289" lon="5.30824">
        <ele>232</ele>
        <time>2021-06-06T07:15:06.444Z</time>
      </trkpt>
      <trkpt lat="45.67295" lon="5.30829">
        <ele>231</ele>
        <time>2021-06-06T07:15:07.444Z</time>
      </trkpt>
      <trkpt lat="45.67302" lon="5.30834">
        <ele>231</ele>
        <time>2021-06-06T07:15:08.443Z</time>
      </trkpt>
      <trkpt lat="45.67309" lon="5.30838">
        <ele>230</ele>
        <time>2021-06-06T07:15:09.444Z</time>
      </trkpt>
      <trkpt lat="45.67315" lon="5.30843">
        <ele>230</ele>
        <time>2021-06-06T07:15:10.444Z</time>
      </trkpt>
      <trkpt lat="45.67322" lon="5.30846">
        <ele>230</ele>
        <time>2021-06-06T07:15:11.444Z</time>
      </trkpt>
      <trkpt lat="45.67329" lon="5.3085">
        <ele>229</ele>
        <time>2021-06-06T07:15:12.444Z</time>
      </trkpt>
      <trkpt lat="45.67336" lon="5.30852">
        <ele>229</ele>
        <time>2021-06-06T07:15:13.444Z</time>
      </trkpt>
      <trkpt lat="45.67343" lon="5.30856">
        <ele>228</ele>
        <time>2021-06-06T07:15:14.444Z</time>
      </trkpt>
      <trkpt lat="45.67349" lon="5.30859">
        <ele>228</ele>
        <time>2021-06-06T07:15:15.444Z</time>
      </trkpt>
      <trkpt lat="45.67356" lon="5.30862">
        <ele>228</ele>
        <time>2021-06-06T07:15:16.443Z</time>
      </trkpt>
      <trkpt lat="45.67362" lon="5.30866">
        <ele>228</ele>
        <time>2021-06-06T07:15:17.443Z</time>
      </trkpt>
      <trkpt lat="45.67367" lon="5.30871">
        <ele>228</ele>
        <time>2021-06-06T07:15:18.443Z</time>
      </trkpt>
      <trkpt lat="45.67373" lon="5.30876">
        <ele>228</ele>
        <time>2021-06-06T07:15:19.444Z</time>
      </trkpt>
      <trkpt lat="45.67378" lon="5.30883">
        <ele>227</ele>
        <time>2021-06-06T07:15:20.444Z</time>
      </trkpt>
      <trkpt lat="45.67383" lon="5.30889">
        <ele>227</ele>
        <time>2021-06-06T07:15:21.444Z</time>
      </trkpt>
      <trkpt lat="45.67387" lon="5.30895">
        <ele>227</ele>
        <time>2021-06-06T07:15:22.444Z</time>
      </trkpt>
      <trkpt lat="45.67391" lon="5.30902">
        <ele>227</ele>
        <time>2021-06-06T07:15:23.443Z</time>
      </trkpt>
      <trkpt lat="45.67396" lon="5.30909">
        <ele>227</ele>
        <time>2021-06-06T07:15:24.444Z</time>
      </trkpt>
      <trkpt lat="45.674" lon="5.30915">
        <ele>227</ele>
        <time>2021-06-06T07:15:25.444Z</time>
      </trkpt>
      <trkpt lat="45.67404" lon="5.30922">
        <ele>228</ele>
        <time>2021-06-06T07:15:26.443Z</time>
      </trkpt>
      <trkpt lat="45.67408" lon="5.30929">
        <ele>228</ele>
        <time>2021-06-06T07:15:27.443Z</time>
      </trkpt>
      <trkpt lat="45.67412" lon="5.30936">
        <ele>228</ele>
        <time>2021-06-06T07:15:28.444Z</time>
      </trkpt>
      <trkpt lat="45.67416" lon="5.30943">
        <ele>228</ele>
        <time>2021-06-06T07:15:29.443Z</time>
      </trkpt>
      <trkpt lat="45.6742" lon="5.30949">
        <ele>228</ele>
        <time>2021-06-06T07:15:30.443Z</time>
      </trkpt>
      <trkpt lat="45.67424" lon="5.30956">
        <ele>228</ele>
        <time>2021-06-06T07:15:31.443Z</time>
      </trkpt>
      <trkpt lat="45.67429" lon="5.30962">
        <ele>229</ele>
        <time>2021-06-06T07:15:32.443Z</time>
      </trkpt>
      <trkpt lat="45.67433" lon="5.30968">
        <ele>229</ele>
        <time>2021-06-06T07:15:33.443Z</time>
      </trkpt>
      <trkpt lat="45.67437" lon="5.30974">
        <ele>229</ele>
        <time>2021-06-06T07:15:34.443Z</time>
      </trkpt>
      <trkpt lat="45.67441" lon="5.30979">
        <ele>229</ele>
        <time>2021-06-06T07:15:35.443Z</time>
      </trkpt>
      <trkpt lat="45.67445" lon="5.30984">
        <ele>230</ele>
        <time>2021-06-06T07:15:36.444Z</time>
      </trkpt>
      <trkpt lat="45.67449" lon="5.30988">
        <ele>231</ele>
        <time>2021-06-06T07:15:37.444Z</time>
      </trkpt>
      <trkpt lat="45.67452" lon="5.30993">
        <ele>231</ele>
        <time>2021-06-06T07:15:38.444Z</time>
      </trkpt>
      <trkpt lat="45.67457" lon="5.30997">
        <ele>232</ele>
        <time>2021-06-06T07:15:39.444Z</time>
      </trkpt>
      <trkpt lat="45.67461" lon="5.31001">
        <ele>233</ele>
        <time>2021-06-06T07:15:40.443Z</time>
      </trkpt>
      <trkpt lat="45.67465" lon="5.31005">
        <ele>232</ele>
        <time>2021-06-06T07:15:41.444Z</time>
      </trkpt>
      <trkpt lat="45.67469" lon="5.31009">
        <ele>232</ele>
        <time>2021-06-06T07:15:42.443Z</time>
      </trkpt>
      <trkpt lat="45.67473" lon="5.31013">
        <ele>232</ele>
        <time>2021-06-06T07:15:43.444Z</time>
      </trkpt>
      <trkpt lat="45.67478" lon="5.31016">
        <ele>232</ele>
        <time>2021-06-06T07:15:44.444Z</time>
      </trkpt>
      <trkpt lat="45.67482" lon="5.3102">
        <ele>232</ele>
        <time>2021-06-06T07:15:45.444Z</time>
      </trkpt>
      <trkpt lat="45.67486" lon="5.31024">
        <ele>232</ele>
        <time>2021-06-06T07:15:46.444Z</time>
      </trkpt>
      <trkpt lat="45.6749" lon="5.31028">
        <ele>232</ele>
        <time>2021-06-06T07:15:47.443Z</time>
      </trkpt>
      <trkpt lat="45.67494" lon="5.31032">
        <ele>232</ele>
        <time>2021-06-06T07:15:48.444Z</time>
      </trkpt>
      <trkpt lat="45.67498" lon="5.31036">
        <ele>232</ele>
        <time>2021-06-06T07:15:49.444Z</time>
      </trkpt>
      <trkpt lat="45.67502" lon="5.3104">
        <ele>232</ele>
        <time>2021-06-06T07:15:50.444Z</time>
      </trkpt>
      <trkpt lat="45.67505" lon="5.31044">
        <ele>232</ele>
        <time>2021-06-06T07:15:51.443Z</time>
      </trkpt>
      <trkpt lat="45.67509" lon="5.31048">
        <ele>233</ele>
        <time>2021-06-06T07:15:52.443Z</time>
      </trkpt>
      <trkpt lat="45.67513" lon="5.31052">
        <ele>233</ele>
        <time>2021-06-06T07:15:53.443Z</time>
      </trkpt>
      <trkpt lat="45.67517" lon="5.31056">
        <ele>233</ele>
        <time>2021-06-06T07:15:54.444Z</time>
      </trkpt>
      <trkpt lat="45.67521" lon="5.3106">
        <ele>234</ele>
        <time>2021-06-06T07:15:55.444Z</time>
      </trkpt>
      <trkpt lat="45.67525" lon="5.31064">
        <ele>234</ele>
        <time>2021-06-06T07:15:56.444Z</time>
      </trkpt>
      <trkpt lat="45.67529" lon="5.31068">
        <ele>235</ele>
        <time>2021-06-06T07:15:57.444Z</time>
      </trkpt>
      <trkpt lat="45.67533" lon="5.31073">
        <ele>235</ele>
        <time>2021-06-06T07:15:58.443Z</time>
      </trkpt>
      <trkpt lat="45.67536" lon="5.31077">
        <ele>235</ele>
        <time>2021-06-06T07:15:59.443Z</time>
      </trkpt>
      <trkpt lat="45.6754" lon="5.31081">
        <ele>235</ele>
        <time>2021-06-06T07:16:00.444Z</time>
      </trkpt>
      <trkpt lat="45.67543" lon="5.31086">
        <ele>236</ele>
        <time>2021-06-06T07:16:01.443Z</time>
      </trkpt>
      <trkpt lat="45.67547" lon="5.3109">
        <ele>236</ele>
        <time>2021-06-06T07:16:02.444Z</time>
      </trkpt>
      <trkpt lat="45.6755" lon="5.31094">
        <ele>236</ele>
        <time>2021-06-06T07:16:03.444Z</time>
      </trkpt>
      <trkpt lat="45.67554" lon="5.31098">
        <ele>236</ele>
        <time>2021-06-06T07:16:04.444Z</time>
      </trkpt>
      <trkpt lat="45.67558" lon="5.31102">
        <ele>236</ele>
        <time>2021-06-06T07:16:05.443Z</time>
      </trkpt>
      <trkpt lat="45.67561" lon="5.31106">
        <ele>236</ele>
        <time>2021-06-06T07:16:06.443Z</time>
      </trkpt>
      <trkpt lat="45.67565" lon="5.3111">
        <ele>236</ele>
        <time>2021-06-06T07:16:07.444Z</time>
      </trkpt>
      <trkpt lat="45.67569" lon="5.31114">
        <ele>236</ele>
        <time>2021-06-06T07:16:08.444Z</time>
      </trkpt>
      <trkpt lat="45.67573" lon="5.31118">
        <ele>236</ele>
        <time>2021-06-06T07:16:09.444Z</time>
      </trkpt>
      <trkpt lat="45.67577" lon="5.31122">
        <ele>236</ele>
        <time>2021-06-06T07:16:10.443Z</time>
      </trkpt>
      <trkpt lat="45.67581" lon="5.31126">
        <ele>236</ele>
        <time>2021-06-06T07:16:11.444Z</time>
      </trkpt>
      <trkpt lat="45.67585" lon="5.3113">
        <ele>236</ele>
        <time>2021-06-06T07:16:12.443Z</time>
      </trkpt>
      <trkpt lat="45.67589" lon="5.31134">
        <ele>236</ele>
        <time>2021-06-06T07:16:13.444Z</time>
      </trkpt>
      <trkpt lat="45.67593" lon="5.31138">
        <ele>236</ele>
        <time>2021-06-06T07:16:14.444Z</time>
      </trkpt>
      <trkpt lat="45.67596" lon="5.31142">
        <ele>236</ele>
        <time>2021-06-06T07:16:15.444Z</time>
      </trkpt>
      <trkpt lat="45.676" lon="5.31146">
        <ele>236</ele>
        <time>2021-06-06T07:16:16.444Z</time>
      </trkpt>
      <trkpt lat="45.67604" lon="5.3115">
        <ele>236</ele>
        <time>2021-06-06T07:16:17.443Z</time>
      </trkpt>
      <trkpt lat="45.67609" lon="5.31153">
        <ele>236</ele>
        <time>2021-06-06T07:16:18.444Z</time>
      </trkpt>
      <trkpt lat="45.67613" lon="5.31157">
        <ele>235</ele>
        <time>2021-06-06T07:16:19.444Z</time>
      </trkpt>
      <trkpt lat="45.67617" lon="5.31161">
        <ele>236</ele>
        <time>2021-06-06T07:16:20.444Z</time>
      </trkpt>
      <trkpt lat="45.67622" lon="5.31164">
        <ele>236</ele>
        <time>2021-06-06T07:16:21.443Z</time>
      </trkpt>
      <trkpt lat="45.67626" lon="5.31167">
        <ele>236</ele>
        <time>2021-06-06T07:16:22.444Z</time>
      </trkpt>
      <trkpt lat="45.67631" lon="5.31169">
        <ele>237</ele>
        <time>2021-06-06T07:16:23.444Z</time>
      </trkpt>
      <trkpt lat="45.67635" lon="5.31171">
        <ele>237</ele>
        <time>2021-06-06T07:16:24.444Z</time>
      </trkpt>
      <trkpt lat="45.6764" lon="5.31172">
        <ele>237</ele>
        <time>2021-06-06T07:16:25.443Z</time>
      </trkpt>
      <trkpt lat="45.67645" lon="5.31172">
        <ele>237</ele>
        <time>2021-06-06T07:16:26.444Z</time>
      </trkpt>
      <trkpt lat="45.6765" lon="5.31173">
        <ele>237</ele>
        <time>2021-06-06T07:16:27.444Z</time>
      </trkpt>
      <trkpt lat="45.67655" lon="5.31173">
        <ele>237</ele>
        <time>2021-06-06T07:16:28.443Z</time>
      </trkpt>
      <trkpt lat="45.67659" lon="5.31172">
        <ele>237</ele>
        <time>2021-06-06T07:16:29.444Z</time>
      </trkpt>
      <trkpt lat="45.67664" lon="5.31171">
        <ele>237</ele>
        <time>2021-06-06T07:16:30.444Z</time>
      </trkpt>
      <trkpt lat="45.67669" lon="5.31171">
        <ele>237</ele>
        <time>2021-06-06T07:16:31.444Z</time>
      </trkpt>
      <trkpt lat="45.67674" lon="5.3117">
        <ele>237</ele>
        <time>2021-06-06T07:16:32.444Z</time>
      </trkpt>
      <trkpt lat="45.67678" lon="5.3117">
        <ele>237</ele>
        <time>2021-06-06T07:16:33.443Z</time>
      </trkpt>
      <trkpt lat="45.67683" lon="5.3117">
        <ele>238</ele>
        <time>2021-06-06T07:16:34.444Z</time>
      </trkpt>
      <trkpt lat="45.67687" lon="5.3117">
        <ele>239</ele>
        <time>2021-06-06T07:16:35.443Z</time>
      </trkpt>
      <trkpt lat="45.67691" lon="5.31169">
        <ele>239</ele>
        <time>2021-06-06T07:16:36.444Z</time>
      </trkpt>
      <trkpt lat="45.67695" lon="5.31169">
        <ele>240</ele>
        <time>2021-06-06T07:16:37.444Z</time>
      </trkpt>
      <trkpt lat="45.67699" lon="5.31169">
        <ele>240</ele>
        <time>2021-06-06T07:16:38.444Z</time>
      </trkpt>
      <trkpt lat="45.67703" lon="5.31169">
        <ele>240</ele>
        <time>2021-06-06T07:16:39.443Z</time>
      </trkpt>
      <trkpt lat="45.67707" lon="5.31169">
        <ele>241</ele>
        <time>2021-06-06T07:16:40.443Z</time>
      </trkpt>
      <trkpt lat="45.67711" lon="5.31168">
        <ele>241</ele>
        <time>2021-06-06T07:16:41.443Z</time>
      </trkpt>
      <trkpt lat="45.67715" lon="5.31168">
        <ele>242</ele>
        <time>2021-06-06T07:16:42.444Z</time>
      </trkpt>
      <trkpt lat="45.67719" lon="5.31168">
        <ele>241</ele>
        <time>2021-06-06T07:16:43.444Z</time>
      </trkpt>
      <trkpt lat="45.67723" lon="5.31168">
        <ele>241</ele>
        <time>2021-06-06T07:16:44.444Z</time>
      </trkpt>
      <trkpt lat="45.67727" lon="5.31168">
        <ele>241</ele>
        <time>2021-06-06T07:16:45.444Z</time>
      </trkpt>
      <trkpt lat="45.67731" lon="5.31167">
        <ele>241</ele>
        <time>2021-06-06T07:16:46.444Z</time>
      </trkpt>
      <trkpt lat="45.67735" lon="5.31167">
        <ele>242</ele>
        <time>2021-06-06T07:16:47.444Z</time>
      </trkpt>
      <trkpt lat="45.67739" lon="5.31167">
        <ele>242</ele>
        <time>2021-06-06T07:16:48.444Z</time>
      </trkpt>
      <trkpt lat="45.67742" lon="5.31166">
        <ele>242</ele>
        <time>2021-06-06T07:16:49.444Z</time>
      </trkpt>
      <trkpt lat="45.67746" lon="5.31165">
        <ele>243</ele>
        <time>2021-06-06T07:16:50.444Z</time>
      </trkpt>
      <trkpt lat="45.6775" lon="5.31164">
        <ele>243</ele>
        <time>2021-06-06T07:16:51.444Z</time>
      </trkpt>
      <trkpt lat="45.67754" lon="5.31163">
        <ele>244</ele>
        <time>2021-06-06T07:16:52.443Z</time>
      </trkpt>
      <trkpt lat="45.67757" lon="5.31162">
        <ele>244</ele>
        <time>2021-06-06T07:16:53.443Z</time>
      </trkpt>
      <trkpt lat="45.67761" lon="5.3116">
        <ele>244</ele>
        <time>2021-06-06T07:16:54.444Z</time>
      </trkpt>
      <trkpt lat="45.67765" lon="5.31158">
        <ele>245</ele>
        <time>2021-06-06T07:16:55.444Z</time>
      </trkpt>
      <trkpt lat="45.67769" lon="5.31156">
        <ele>245</ele>
        <time>2021-06-06T07:16:56.444Z</time>
      </trkpt>
      <trkpt lat="45.67773" lon="5.31154">
        <ele>245</ele>
        <time>2021-06-06T07:16:57.444Z</time>
      </trkpt>
      <trkpt lat="45.67777" lon="5.31153">
        <ele>245</ele>
        <time>2021-06-06T07:16:58.443Z</time>
      </trkpt>
      <trkpt lat="45.6778" lon="5.31151">
        <ele>245</ele>
        <time>2021-06-06T07:16:59.443Z</time>
      </trkpt>
      <trkpt lat="45.67784" lon="5.3115">
        <ele>245</ele>
        <time>2021-06-06T07:17:00.444Z</time>
      </trkpt>
      <trkpt lat="45.67789" lon="5.31148">
        <ele>245</ele>
        <time>2021-06-06T07:17:01.444Z</time>
      </trkpt>
      <trkpt lat="45.67793" lon="5.31148">
        <ele>245</ele>
        <time>2021-06-06T07:17:02.443Z</time>
      </trkpt>
      <trkpt lat="45.67797" lon="5.31147">
        <ele>245</ele>
        <time>2021-06-06T07:17:03.444Z</time>
      </trkpt>
      <trkpt lat="45.67801" lon="5.31147">
        <ele>245</ele>
        <time>2021-06-06T07:17:04.443Z</time>
      </trkpt>
      <trkpt lat="45.67806" lon="5.31147">
        <ele>245</ele>
        <time>2021-06-06T07:17:05.444Z</time>
      </trkpt>
      <trkpt lat="45.67811" lon="5.31148">
        <ele>245</ele>
        <time>2021-06-06T07:17:06.444Z</time>
      </trkpt>
      <trkpt lat="45.67816" lon="5.31149">
        <ele>245</ele>
        <time>2021-06-06T07:17:07.444Z</time>
      </trkpt>
      <trkpt lat="45.6782" lon="5.31151">
        <ele>245</ele>
        <time>2021-06-06T07:17:08.443Z</time>
      </trkpt>
      <trkpt lat="45.67825" lon="5.31154">
        <ele>245</ele>
        <time>2021-06-06T07:17:09.444Z</time>
      </trkpt>
      <trkpt lat="45.6783" lon="5.31156">
        <ele>245</ele>
        <time>2021-06-06T07:17:10.444Z</time>
      </trkpt>
      <trkpt lat="45.67834" lon="5.31159">
        <ele>245</ele>
        <time>2021-06-06T07:17:11.443Z</time>
      </trkpt>
      <trkpt lat="45.67839" lon="5.31163">
        <ele>244</ele>
        <time>2021-06-06T07:17:12.444Z</time>
      </trkpt>
      <trkpt lat="45.67845" lon="5.31166">
        <ele>244</ele>
        <time>2021-06-06T07:17:13.443Z</time>
      </trkpt>
      <trkpt lat="45.6785" lon="5.3117">
        <ele>244</ele>
        <time>2021-06-06T07:17:14.444Z</time>
      </trkpt>
      <trkpt lat="45.67854" lon="5.31175">
        <ele>244</ele>
        <time>2021-06-06T07:17:15.444Z</time>
      </trkpt>
      <trkpt lat="45.67859" lon="5.31179">
        <ele>243</ele>
        <time>2021-06-06T07:17:16.444Z</time>
      </trkpt>
      <trkpt lat="45.67864" lon="5.31184">
        <ele>243</ele>
        <time>2021-06-06T07:17:17.444Z</time>
      </trkpt>
      <trkpt lat="45.67869" lon="5.31188">
        <ele>243</ele>
        <time>2021-06-06T07:17:18.444Z</time>
      </trkpt>
      <trkpt lat="45.67875" lon="5.31193">
        <ele>243</ele>
        <time>2021-06-06T07:17:19.444Z</time>
      </trkpt>
      <trkpt lat="45.67879" lon="5.31198">
        <ele>242</ele>
        <time>2021-06-06T07:17:20.444Z</time>
      </trkpt>
      <trkpt lat="45.67884" lon="5.31204">
        <ele>242</ele>
        <time>2021-06-06T07:17:21.444Z</time>
      </trkpt>
      <trkpt lat="45.67889" lon="5.3121">
        <ele>242</ele>
        <time>2021-06-06T07:17:22.443Z</time>
      </trkpt>
      <trkpt lat="45.67894" lon="5.31216">
        <ele>242</ele>
        <time>2021-06-06T07:17:23.443Z</time>
      </trkpt>
      <trkpt lat="45.67898" lon="5.31222">
        <ele>242</ele>
        <time>2021-06-06T07:17:24.444Z</time>
      </trkpt>
      <trkpt lat="45.67903" lon="5.31229">
        <ele>242</ele>
        <time>2021-06-06T07:17:25.444Z</time>
      </trkpt>
      <trkpt lat="45.67907" lon="5.31236">
        <ele>241</ele>
        <time>2021-06-06T07:17:26.444Z</time>
      </trkpt>
      <trkpt lat="45.67911" lon="5.31244">
        <ele>242</ele>
        <time>2021-06-06T07:17:27.444Z</time>
      </trkpt>
      <trkpt lat="45.67914" lon="5.31252">
        <ele>242</ele>
        <time>2021-06-06T07:17:28.443Z</time>
      </trkpt>
      <trkpt lat="45.67918" lon="5.3126">
        <ele>242</ele>
        <time>2021-06-06T07:17:29.444Z</time>
      </trkpt>
      <trkpt lat="45.67921" lon="5.31269">
        <ele>242</ele>
        <time>2021-06-06T07:17:30.443Z</time>
      </trkpt>
      <trkpt lat="45.67924" lon="5.31275">
        <ele>242</ele>
        <time>2021-06-06T07:17:31.443Z</time>
      </trkpt>
      <trkpt lat="45.67927" lon="5.31282">
        <ele>242</ele>
        <time>2021-06-06T07:17:32.444Z</time>
      </trkpt>
      <trkpt lat="45.6793" lon="5.3129">
        <ele>242</ele>
        <time>2021-06-06T07:17:33.444Z</time>
      </trkpt>
      <trkpt lat="45.67932" lon="5.31297">
        <ele>242</ele>
        <time>2021-06-06T07:17:34.443Z</time>
      </trkpt>
      <trkpt lat="45.67935" lon="5.31305">
        <ele>242</ele>
        <time>2021-06-06T07:17:35.444Z</time>
      </trkpt>
      <trkpt lat="45.67938" lon="5.31313">
        <ele>242</ele>
        <time>2021-06-06T07:17:36.444Z</time>
      </trkpt>
      <trkpt lat="45.67941" lon="5.31321">
        <ele>243</ele>
        <time>2021-06-06T07:17:37.444Z</time>
      </trkpt>
      <trkpt lat="45.67945" lon="5.31328">
        <ele>243</ele>
        <time>2021-06-06T07:17:38.444Z</time>
      </trkpt>
      <trkpt lat="45.67948" lon="5.31336">
        <ele>243</ele>
        <time>2021-06-06T07:17:39.444Z</time>
      </trkpt>
      <trkpt lat="45.67951" lon="5.31344">
        <ele>243</ele>
        <time>2021-06-06T07:17:40.444Z</time>
      </trkpt>
      <trkpt lat="45.67954" lon="5.31352">
        <ele>244</ele>
        <time>2021-06-06T07:17:41.444Z</time>
      </trkpt>
      <trkpt lat="45.67957" lon="5.31359">
        <ele>244</ele>
        <time>2021-06-06T07:17:42.443Z</time>
      </trkpt>
      <trkpt lat="45.6796" lon="5.31367">
        <ele>244</ele>
        <time>2021-06-06T07:17:43.444Z</time>
      </trkpt>
      <trkpt lat="45.67963" lon="5.31374">
        <ele>245</ele>
        <time>2021-06-06T07:17:44.444Z</time>
      </trkpt>
      <trkpt lat="45.67966" lon="5.31381">
        <ele>245</ele>
        <time>2021-06-06T07:17:45.444Z</time>
      </trkpt>
      <trkpt lat="45.6797" lon="5.31388">
        <ele>245</ele>
        <time>2021-06-06T07:17:46.444Z</time>
      </trkpt>
      <trkpt lat="45.67973" lon="5.31394">
        <ele>245</ele>
        <time>2021-06-06T07:17:47.444Z</time>
      </trkpt>
      <trkpt lat="45.67976" lon="5.31401">
        <ele>245</ele>
        <time>2021-06-06T07:17:48.444Z</time>
      </trkpt>
      <trkpt lat="45.67979" lon="5.31408">
        <ele>245</ele>
        <time>2021-06-06T07:17:49.443Z</time>
      </trkpt>
      <trkpt lat="45.67981" lon="5.31415">
        <ele>244</ele>
        <time>2021-06-06T07:17:50.444Z</time>
      </trkpt>
      <trkpt lat="45.67984" lon="5.31421">
        <ele>245</ele>
        <time>2021-06-06T07:17:51.444Z</time>
      </trkpt>
      <trkpt lat="45.67987" lon="5.31427">
        <ele>245</ele>
        <time>2021-06-06T07:17:52.444Z</time>
      </trkpt>
      <trkpt lat="45.67989" lon="5.31434">
        <ele>245</ele>
        <time>2021-06-06T07:17:53.443Z</time>
      </trkpt>
      <trkpt lat="45.67992" lon="5.3144">
        <ele>245</ele>
        <time>2021-06-06T07:17:54.444Z</time>
      </trkpt>
      <trkpt lat="45.67995" lon="5.31447">
        <ele>245</ele>
        <time>2021-06-06T07:17:55.443Z</time>
      </trkpt>
      <trkpt lat="45.67998" lon="5.31453">
        <ele>245</ele>
        <time>2021-06-06T07:17:56.444Z</time>
      </trkpt>
      <trkpt lat="45.68001" lon="5.31459">
        <ele>245</ele>
        <time>2021-06-06T07:17:57.443Z</time>
      </trkpt>
      <trkpt lat="45.68004" lon="5.31465">
        <ele>245</ele>
        <time>2021-06-06T07:17:58.444Z</time>
      </trkpt>
      <trkpt lat="45.68007" lon="5.31471">
        <ele>245</ele>
        <time>2021-06-06T07:17:59.444Z</time>
      </trkpt>
      <trkpt lat="45.68009" lon="5.31477">
        <ele>245</ele>
        <time>2021-06-06T07:18:00.444Z</time>
      </trkpt>
      <trkpt lat="45.68012" lon="5.31484">
        <ele>245</ele>
        <time>2021-06-06T07:18:01.444Z</time>
      </trkpt>
      <trkpt lat="45.68015" lon="5.31489">
        <ele>245</ele>
        <time>2021-06-06T07:18:02.443Z</time>
      </trkpt>
      <trkpt lat="45.68018" lon="5.31495">
        <ele>245</ele>
        <time>2021-06-06T07:18:03.443Z</time>
      </trkpt>
      <trkpt lat="45.68021" lon="5.31501">
        <ele>245</ele>
        <time>2021-06-06T07:18:04.444Z</time>
      </trkpt>
      <trkpt lat="45.68024" lon="5.31508">
        <ele>245</ele>
        <time>2021-06-06T07:18:05.443Z</time>
      </trkpt>
      <trkpt lat="45.68027" lon="5.31512">
        <ele>245</ele>
        <time>2021-06-06T07:18:06.444Z</time>
      </trkpt>
      <trkpt lat="45.6803" lon="5.31518">
        <ele>245</ele>
        <time>2021-06-06T07:18:07.444Z</time>
      </trkpt>
      <trkpt lat="45.68032" lon="5.31524">
        <ele>244</ele>
        <time>2021-06-06T07:18:08.444Z</time>
      </trkpt>
      <trkpt lat="45.68035" lon="5.3153">
        <ele>244</ele>
        <time>2021-06-06T07:18:09.444Z</time>
      </trkpt>
      <trkpt lat="45.68038" lon="5.31535">
        <ele>244</ele>
        <time>2021-06-06T07:18:10.443Z</time>
      </trkpt>
      <trkpt lat="45.68041" lon="5.31541">
        <ele>245</ele>
        <time>2021-06-06T07:18:11.444Z</time>
      </trkpt>
      <trkpt lat="45.68044" lon="5.31547">
        <ele>245</ele>
        <time>2021-06-06T07:18:12.444Z</time>
      </trkpt>
      <trkpt lat="45.68047" lon="5.31553">
        <ele>245</ele>
        <time>2021-06-06T07:18:13.444Z</time>
      </trkpt>
      <trkpt lat="45.6805" lon="5.31559">
        <ele>245</ele>
        <time>2021-06-06T07:18:14.444Z</time>
      </trkpt>
      <trkpt lat="45.68053" lon="5.31564">
        <ele>245</ele>
        <time>2021-06-06T07:18:15.444Z</time>
      </trkpt>
      <trkpt lat="45.68056" lon="5.3157">
        <ele>245</ele>
        <time>2021-06-06T07:18:16.444Z</time>
      </trkpt>
      <trkpt lat="45.68059" lon="5.31576">
        <ele>245</ele>
        <time>2021-06-06T07:18:17.444Z</time>
      </trkpt>
      <trkpt lat="45.68061" lon="5.31582">
        <ele>245</ele>
        <time>2021-06-06T07:18:18.444Z</time>
      </trkpt>
      <trkpt lat="45.68064" lon="5.31587">
        <ele>245</ele>
        <time>2021-06-06T07:18:19.444Z</time>
      </trkpt>
      <trkpt lat="45.68066" lon="5.31592">
        <ele>245</ele>
        <time>2021-06-06T07:18:20.443Z</time>
      </trkpt>
      <trkpt lat="45.68068" lon="5.31596">
        <ele>245</ele>
        <time>2021-06-06T07:18:21.444Z</time>
      </trkpt>
      <trkpt lat="45.68071" lon="5.31599">
        <ele>245</ele>
        <time>2021-06-06T07:18:22.444Z</time>
      </trkpt>
      <trkpt lat="45.68073" lon="5.31603">
        <ele>245</ele>
        <time>2021-06-06T07:18:23.444Z</time>
      </trkpt>
      <trkpt lat="45.68076" lon="5.31606">
        <ele>245</ele>
        <time>2021-06-06T07:18:24.443Z</time>
      </trkpt>
      <trkpt lat="45.68078" lon="5.31609">
        <ele>244</ele>
        <time>2021-06-06T07:18:25.444Z</time>
      </trkpt>
      <trkpt lat="45.68079" lon="5.31612">
        <ele>245</ele>
        <time>2021-06-06T07:18:26.444Z</time>
      </trkpt>
      <trkpt lat="45.6808" lon="5.31616">
        <ele>245</ele>
        <time>2021-06-06T07:18:27.444Z</time>
      </trkpt>
      <trkpt lat="45.68081" lon="5.31618">
        <ele>245</ele>
        <time>2021-06-06T07:18:28.444Z</time>
      </trkpt>
      <trkpt lat="45.68082" lon="5.31621">
        <ele>244</ele>
        <time>2021-06-06T07:18:29.444Z</time>
      </trkpt>
      <trkpt lat="45.68083" lon="5.31623">
        <ele>244</ele>
        <time>2021-06-06T07:18:30.444Z</time>
      </trkpt>
      <trkpt lat="45.68084" lon="5.31625">
        <ele>244</ele>
        <time>2021-06-06T07:18:31.444Z</time>
      </trkpt>
      <trkpt lat="45.68087" lon="5.31626">
        <ele>243</ele>
        <time>2021-06-06T07:18:32.444Z</time>
      </trkpt>
      <trkpt lat="45.68089" lon="5.31628">
        <ele>244</ele>
        <time>2021-06-06T07:18:33.443Z</time>
      </trkpt>
      <trkpt lat="45.68092" lon="5.31629">
        <ele>244</ele>
        <time>2021-06-06T07:18:34.444Z</time>
      </trkpt>
      <trkpt lat="45.68096" lon="5.3163">
        <ele>244</ele>
        <time>2021-06-06T07:18:35.443Z</time>
      </trkpt>
      <trkpt lat="45.681" lon="5.31631">
        <ele>245</ele>
        <time>2021-06-06T07:18:36.444Z</time>
      </trkpt>
      <trkpt lat="45.68104" lon="5.31631">
        <ele>245</ele>
        <time>2021-06-06T07:18:37.443Z</time>
      </trkpt>
      <trkpt lat="45.68108" lon="5.31632">
        <ele>244</ele>
        <time>2021-06-06T07:18:38.443Z</time>
      </trkpt>
      <trkpt lat="45.68113" lon="5.31634">
        <ele>244</ele>
        <time>2021-06-06T07:18:39.443Z</time>
      </trkpt>
      <trkpt lat="45.68118" lon="5.31635">
        <ele>244</ele>
        <time>2021-06-06T07:18:40.444Z</time>
      </trkpt>
      <trkpt lat="45.68123" lon="5.31636">
        <ele>244</ele>
        <time>2021-06-06T07:18:41.444Z</time>
      </trkpt>
      <trkpt lat="45.68128" lon="5.31638">
        <ele>244</ele>
        <time>2021-06-06T07:18:42.443Z</time>
      </trkpt>
      <trkpt lat="45.68133" lon="5.31639">
        <ele>244</ele>
        <time>2021-06-06T07:18:43.443Z</time>
      </trkpt>
      <trkpt lat="45.68139" lon="5.3164">
        <ele>245</ele>
        <time>2021-06-06T07:18:44.444Z</time>
      </trkpt>
      <trkpt lat="45.68144" lon="5.31642">
        <ele>245</ele>
        <time>2021-06-06T07:18:45.444Z</time>
      </trkpt>
      <trkpt lat="45.68149" lon="5.31642">
        <ele>245</ele>
        <time>2021-06-06T07:18:46.444Z</time>
      </trkpt>
      <trkpt lat="45.68153" lon="5.31644">
        <ele>246</ele>
        <time>2021-06-06T07:18:47.444Z</time>
      </trkpt>
      <trkpt lat="45.68158" lon="5.31644">
        <ele>246</ele>
        <time>2021-06-06T07:18:48.444Z</time>
      </trkpt>
      <trkpt lat="45.68163" lon="5.31645">
        <ele>246</ele>
        <time>2021-06-06T07:18:49.443Z</time>
      </trkpt>
      <trkpt lat="45.68167" lon="5.31645">
        <ele>246</ele>
        <time>2021-06-06T07:18:50.443Z</time>
      </trkpt>
      <trkpt lat="45.68172" lon="5.31646">
        <ele>247</ele>
        <time>2021-06-06T07:18:51.444Z</time>
      </trkpt>
      <trkpt lat="45.68176" lon="5.31647">
        <ele>247</ele>
        <time>2021-06-06T07:18:52.444Z</time>
      </trkpt>
      <trkpt lat="45.68181" lon="5.31648">
        <ele>247</ele>
        <time>2021-06-06T07:18:53.443Z</time>
      </trkpt>
      <trkpt lat="45.68186" lon="5.31649">
        <ele>247</ele>
        <time>2021-06-06T07:18:54.444Z</time>
      </trkpt>
      <trkpt lat="45.68191" lon="5.31651">
        <ele>248</ele>
        <time>2021-06-06T07:18:55.444Z</time>
      </trkpt>
      <trkpt lat="45.68195" lon="5.31653">
        <ele>248</ele>
        <time>2021-06-06T07:18:56.444Z</time>
      </trkpt>
      <trkpt lat="45.682" lon="5.31654">
        <ele>248</ele>
        <time>2021-06-06T07:18:57.443Z</time>
      </trkpt>
      <trkpt lat="45.68204" lon="5.31655">
        <ele>248</ele>
        <time>2021-06-06T07:18:58.444Z</time>
      </trkpt>
      <trkpt lat="45.68208" lon="5.31657">
        <ele>248</ele>
        <time>2021-06-06T07:18:59.444Z</time>
      </trkpt>
      <trkpt lat="45.68213" lon="5.31658">
        <ele>249</ele>
        <time>2021-06-06T07:19:00.444Z</time>
      </trkpt>
      <trkpt lat="45.68217" lon="5.31659">
        <ele>249</ele>
        <time>2021-06-06T07:19:01.444Z</time>
      </trkpt>
      <trkpt lat="45.68222" lon="5.31661">
        <ele>248</ele>
        <time>2021-06-06T07:19:02.444Z</time>
      </trkpt>
      <trkpt lat="45.68226" lon="5.31663">
        <ele>248</ele>
        <time>2021-06-06T07:19:03.443Z</time>
      </trkpt>
      <trkpt lat="45.6823" lon="5.31664">
        <ele>248</ele>
        <time>2021-06-06T07:19:04.444Z</time>
      </trkpt>
      <trkpt lat="45.68235" lon="5.31666">
        <ele>248</ele>
        <time>2021-06-06T07:19:05.444Z</time>
      </trkpt>
      <trkpt lat="45.68239" lon="5.31668">
        <ele>248</ele>
        <time>2021-06-06T07:19:06.443Z</time>
      </trkpt>
      <trkpt lat="45.68244" lon="5.3167">
        <ele>248</ele>
        <time>2021-06-06T07:19:07.444Z</time>
      </trkpt>
      <trkpt lat="45.68249" lon="5.31672">
        <ele>248</ele>
        <time>2021-06-06T07:19:08.443Z</time>
      </trkpt>
      <trkpt lat="45.68253" lon="5.31674">
        <ele>248</ele>
        <time>2021-06-06T07:19:09.443Z</time>
      </trkpt>
      <trkpt lat="45.68257" lon="5.31675">
        <ele>248</ele>
        <time>2021-06-06T07:19:10.444Z</time>
      </trkpt>
      <trkpt lat="45.68263" lon="5.31677">
        <ele>248</ele>
        <time>2021-06-06T07:19:11.444Z</time>
      </trkpt>
      <trkpt lat="45.68268" lon="5.31679">
        <ele>248</ele>
        <time>2021-06-06T07:19:12.443Z</time>
      </trkpt>
      <trkpt lat="45.68272" lon="5.31681">
        <ele>248</ele>
        <time>2021-06-06T07:19:13.443Z</time>
      </trkpt>
      <trkpt lat="45.68276" lon="5.31682">
        <ele>248</ele>
        <time>2021-06-06T07:19:14.443Z</time>
      </trkpt>
      <trkpt lat="45.6828" lon="5.31684">
        <ele>248</ele>
        <time>2021-06-06T07:19:15.444Z</time>
      </trkpt>
      <trkpt lat="45.68285" lon="5.31686">
        <ele>248</ele>
        <time>2021-06-06T07:19:16.444Z</time>
      </trkpt>
      <trkpt lat="45.68289" lon="5.31688">
        <ele>248</ele>
        <time>2021-06-06T07:19:17.443Z</time>
      </trkpt>
      <trkpt lat="45.68293" lon="5.31689">
        <ele>248</ele>
        <time>2021-06-06T07:19:18.444Z</time>
      </trkpt>
      <trkpt lat="45.68297" lon="5.31691">
        <ele>248</ele>
        <time>2021-06-06T07:19:19.444Z</time>
      </trkpt>
      <trkpt lat="45.68301" lon="5.31693">
        <ele>249</ele>
        <time>2021-06-06T07:19:20.444Z</time>
      </trkpt>
      <trkpt lat="45.68305" lon="5.31695">
        <ele>249</ele>
        <time>2021-06-06T07:19:21.443Z</time>
      </trkpt>
      <trkpt lat="45.68309" lon="5.31697">
        <ele>249</ele>
        <time>2021-06-06T07:19:22.443Z</time>
      </trkpt>
      <trkpt lat="45.68313" lon="5.31699">
        <ele>249</ele>
        <time>2021-06-06T07:19:23.443Z</time>
      </trkpt>
      <trkpt lat="45.68316" lon="5.317">
        <ele>249</ele>
        <time>2021-06-06T07:19:24.443Z</time>
      </trkpt>
      <trkpt lat="45.6832" lon="5.31702">
        <ele>249</ele>
        <time>2021-06-06T07:19:25.444Z</time>
      </trkpt>
      <trkpt lat="45.68324" lon="5.31703">
        <ele>249</ele>
        <time>2021-06-06T07:19:26.444Z</time>
      </trkpt>
      <trkpt lat="45.68328" lon="5.31704">
        <ele>250</ele>
        <time>2021-06-06T07:19:27.443Z</time>
      </trkpt>
      <trkpt lat="45.68331" lon="5.31706">
        <ele>250</ele>
        <time>2021-06-06T07:19:28.444Z</time>
      </trkpt>
      <trkpt lat="45.68335" lon="5.31708">
        <ele>250</ele>
        <time>2021-06-06T07:19:29.444Z</time>
      </trkpt>
      <trkpt lat="45.68338" lon="5.3171">
        <ele>250</ele>
        <time>2021-06-06T07:19:30.444Z</time>
      </trkpt>
      <trkpt lat="45.68343" lon="5.31712">
        <ele>250</ele>
        <time>2021-06-06T07:19:31.444Z</time>
      </trkpt>
      <trkpt lat="45.68346" lon="5.31713">
        <ele>250</ele>
        <time>2021-06-06T07:19:32.444Z</time>
      </trkpt>
      <trkpt lat="45.68349" lon="5.31715">
        <ele>250</ele>
        <time>2021-06-06T07:19:33.444Z</time>
      </trkpt>
      <trkpt lat="45.68352" lon="5.31716">
        <ele>250</ele>
        <time>2021-06-06T07:19:34.444Z</time>
      </trkpt>
      <trkpt lat="45.68356" lon="5.31718">
        <ele>251</ele>
        <time>2021-06-06T07:19:35.444Z</time>
      </trkpt>
      <trkpt lat="45.68359" lon="5.3172">
        <ele>252</ele>
        <time>2021-06-06T07:19:36.444Z</time>
      </trkpt>
      <trkpt lat="45.68363" lon="5.31721">
        <ele>252</ele>
        <time>2021-06-06T07:19:37.444Z</time>
      </trkpt>
      <trkpt lat="45.68366" lon="5.31723">
        <ele>253</ele>
        <time>2021-06-06T07:19:38.444Z</time>
      </trkpt>
      <trkpt lat="45.6837" lon="5.31724">
        <ele>253</ele>
        <time>2021-06-06T07:19:39.443Z</time>
      </trkpt>
      <trkpt lat="45.68374" lon="5.31726">
        <ele>253</ele>
        <time>2021-06-06T07:19:40.444Z</time>
      </trkpt>
      <trkpt lat="45.68378" lon="5.31727">
        <ele>253</ele>
        <time>2021-06-06T07:19:41.444Z</time>
      </trkpt>
      <trkpt lat="45.68381" lon="5.31729">
        <ele>254</ele>
        <time>2021-06-06T07:19:42.443Z</time>
      </trkpt>
      <trkpt lat="45.68385" lon="5.31731">
        <ele>254</ele>
        <time>2021-06-06T07:19:43.444Z</time>
      </trkpt>
      <trkpt lat="45.68389" lon="5.31732">
        <ele>254</ele>
        <time>2021-06-06T07:19:44.444Z</time>
      </trkpt>
      <trkpt lat="45.68392" lon="5.31734">
        <ele>254</ele>
        <time>2021-06-06T07:19:45.444Z</time>
      </trkpt>
      <trkpt lat="45.68396" lon="5.31735">
        <ele>254</ele>
        <time>2021-06-06T07:19:46.444Z</time>
      </trkpt>
      <trkpt lat="45.684" lon="5.31737">
        <ele>255</ele>
        <time>2021-06-06T07:19:47.444Z</time>
      </trkpt>
      <trkpt lat="45.68404" lon="5.31738">
        <ele>254</ele>
        <time>2021-06-06T07:19:48.444Z</time>
      </trkpt>
      <trkpt lat="45.68408" lon="5.3174">
        <ele>254</ele>
        <time>2021-06-06T07:19:49.443Z</time>
      </trkpt>
      <trkpt lat="45.68412" lon="5.31742">
        <ele>255</ele>
        <time>2021-06-06T07:19:50.444Z</time>
      </trkpt>
      <trkpt lat="45.68415" lon="5.31743">
        <ele>255</ele>
        <time>2021-06-06T07:19:51.444Z</time>
      </trkpt>
      <trkpt lat="45.68419" lon="5.31745">
        <ele>255</ele>
        <time>2021-06-06T07:19:52.443Z</time>
      </trkpt>
      <trkpt lat="45.68422" lon="5.31746">
        <ele>255</ele>
        <time>2021-06-06T07:19:53.443Z</time>
      </trkpt>
      <trkpt lat="45.68426" lon="5.31748">
        <ele>255</ele>
        <time>2021-06-06T07:19:54.444Z</time>
      </trkpt>
      <trkpt lat="45.6843" lon="5.31749">
        <ele>256</ele>
        <time>2021-06-06T07:19:55.444Z</time>
      </trkpt>
      <trkpt lat="45.68434" lon="5.31751">
        <ele>256</ele>
        <time>2021-06-06T07:19:56.444Z</time>
      </trkpt>
      <trkpt lat="45.68438" lon="5.31753">
        <ele>256</ele>
        <time>2021-06-06T07:19:57.444Z</time>
      </trkpt>
      <trkpt lat="45.68441" lon="5.31755">
        <ele>256</ele>
        <time>2021-06-06T07:19:58.444Z</time>
      </trkpt>
      <trkpt lat="45.68444" lon="5.31758">
        <ele>256</ele>
        <time>2021-06-06T07:19:59.444Z</time>
      </trkpt>
      <trkpt lat="45.68448" lon="5.3176">
        <ele>256</ele>
        <time>2021-06-06T07:20:00.444Z</time>
      </trkpt>
      <trkpt lat="45.68452" lon="5.31762">
        <ele>256</ele>
        <time>2021-06-06T07:20:01.444Z</time>
      </trkpt>
      <trkpt lat="45.68455" lon="5.31764">
        <ele>256</ele>
        <time>2021-06-06T07:20:02.444Z</time>
      </trkpt>
      <trkpt lat="45.68459" lon="5.31766">
        <ele>256</ele>
        <time>2021-06-06T07:20:03.444Z</time>
      </trkpt>
      <trkpt lat="45.68463" lon="5.31767">
        <ele>257</ele>
        <time>2021-06-06T07:20:04.444Z</time>
      </trkpt>
      <trkpt lat="45.68467" lon="5.31769">
        <ele>257</ele>
        <time>2021-06-06T07:20:05.444Z</time>
      </trkpt>
      <trkpt lat="45.6847" lon="5.31771">
        <ele>257</ele>
        <time>2021-06-06T07:20:06.444Z</time>
      </trkpt>
      <trkpt lat="45.68474" lon="5.31773">
        <ele>258</ele>
        <time>2021-06-06T07:20:07.443Z</time>
      </trkpt>
      <trkpt lat="45.68478" lon="5.31774">
        <ele>258</ele>
        <time>2021-06-06T07:20:08.444Z</time>
      </trkpt>
      <trkpt lat="45.68483" lon="5.31776">
        <ele>258</ele>
        <time>2021-06-06T07:20:09.444Z</time>
      </trkpt>
      <trkpt lat="45.68487" lon="5.31778">
        <ele>258</ele>
        <time>2021-06-06T07:20:10.444Z</time>
      </trkpt>
      <trkpt lat="45.6849" lon="5.31779">
        <ele>257</ele>
        <time>2021-06-06T07:20:11.444Z</time>
      </trkpt>
      <trkpt lat="45.68493" lon="5.3178">
        <ele>258</ele>
        <time>2021-06-06T07:20:12.444Z</time>
      </trkpt>
      <trkpt lat="45.68497" lon="5.31782">
        <ele>258</ele>
        <time>2021-06-06T07:20:13.444Z</time>
      </trkpt>
      <trkpt lat="45.68501" lon="5.31783">
        <ele>257</ele>
        <time>2021-06-06T07:20:14.443Z</time>
      </trkpt>
      <trkpt lat="45.68504" lon="5.31785">
        <ele>257</ele>
        <time>2021-06-06T07:20:15.444Z</time>
      </trkpt>
      <trkpt lat="45.68508" lon="5.31787">
        <ele>258</ele>
        <time>2021-06-06T07:20:16.444Z</time>
      </trkpt>
      <trkpt lat="45.68511" lon="5.31788">
        <ele>258</ele>
        <time>2021-06-06T07:20:17.443Z</time>
      </trkpt>
      <trkpt lat="45.68516" lon="5.31791">
        <ele>259</ele>
        <time>2021-06-06T07:20:18.444Z</time>
      </trkpt>
      <trkpt lat="45.68519" lon="5.31792">
        <ele>259</ele>
        <time>2021-06-06T07:20:19.444Z</time>
      </trkpt>
      <trkpt lat="45.68523" lon="5.31794">
        <ele>260</ele>
        <time>2021-06-06T07:20:20.444Z</time>
      </trkpt>
      <trkpt lat="45.68526" lon="5.31795">
        <ele>261</ele>
        <time>2021-06-06T07:20:21.444Z</time>
      </trkpt>
      <trkpt lat="45.6853" lon="5.31796">
        <ele>261</ele>
        <time>2021-06-06T07:20:22.444Z</time>
      </trkpt>
      <trkpt lat="45.68534" lon="5.31798">
        <ele>261</ele>
        <time>2021-06-06T07:20:23.444Z</time>
      </trkpt>
      <trkpt lat="45.68537" lon="5.31799">
        <ele>261</ele>
        <time>2021-06-06T07:20:24.443Z</time>
      </trkpt>
      <trkpt lat="45.68542" lon="5.31802">
        <ele>261</ele>
        <time>2021-06-06T07:20:25.444Z</time>
      </trkpt>
      <trkpt lat="45.68545" lon="5.31803">
        <ele>261</ele>
        <time>2021-06-06T07:20:26.443Z</time>
      </trkpt>
      <trkpt lat="45.68548" lon="5.31805">
        <ele>261</ele>
        <time>2021-06-06T07:20:27.444Z</time>
      </trkpt>
      <trkpt lat="45.68552" lon="5.31806">
        <ele>261</ele>
        <time>2021-06-06T07:20:28.444Z</time>
      </trkpt>
      <trkpt lat="45.68555" lon="5.31808">
        <ele>261</ele>
        <time>2021-06-06T07:20:29.444Z</time>
      </trkpt>
      <trkpt lat="45.68559" lon="5.3181">
        <ele>261</ele>
        <time>2021-06-06T07:20:30.444Z</time>
      </trkpt>
      <trkpt lat="45.68562" lon="5.31811">
        <ele>262</ele>
        <time>2021-06-06T07:20:31.444Z</time>
      </trkpt>
      <trkpt lat="45.68565" lon="5.31813">
        <ele>262</ele>
        <time>2021-06-06T07:20:32.444Z</time>
      </trkpt>
      <trkpt lat="45.68569" lon="5.31814">
        <ele>262</ele>
        <time>2021-06-06T07:20:33.444Z</time>
      </trkpt>
      <trkpt lat="45.68573" lon="5.31815">
        <ele>263</ele>
        <time>2021-06-06T07:20:34.443Z</time>
      </trkpt>
      <trkpt lat="45.68577" lon="5.31817">
        <ele>263</ele>
        <time>2021-06-06T07:20:35.444Z</time>
      </trkpt>
      <trkpt lat="45.6858" lon="5.31818">
        <ele>264</ele>
        <time>2021-06-06T07:20:36.444Z</time>
      </trkpt>
      <trkpt lat="45.68584" lon="5.3182">
        <ele>264</ele>
        <time>2021-06-06T07:20:37.444Z</time>
      </trkpt>
      <trkpt lat="45.68588" lon="5.31821">
        <ele>265</ele>
        <time>2021-06-06T07:20:38.444Z</time>
      </trkpt>
      <trkpt lat="45.68591" lon="5.31822">
        <ele>265</ele>
        <time>2021-06-06T07:20:39.443Z</time>
      </trkpt>
      <trkpt lat="45.68595" lon="5.31824">
        <ele>266</ele>
        <time>2021-06-06T07:20:40.444Z</time>
      </trkpt>
      <trkpt lat="45.68598" lon="5.31826">
        <ele>266</ele>
        <time>2021-06-06T07:20:41.444Z</time>
      </trkpt>
      <trkpt lat="45.68601" lon="5.31827">
        <ele>266</ele>
        <time>2021-06-06T07:20:42.443Z</time>
      </trkpt>
      <trkpt lat="45.68605" lon="5.31829">
        <ele>267</ele>
        <time>2021-06-06T07:20:43.443Z</time>
      </trkpt>
      <trkpt lat="45.68609" lon="5.31831">
        <ele>267</ele>
        <time>2021-06-06T07:20:44.444Z</time>
      </trkpt>
      <trkpt lat="45.68612" lon="5.31833">
        <ele>267</ele>
        <time>2021-06-06T07:20:45.444Z</time>
      </trkpt>
      <trkpt lat="45.68616" lon="5.31834">
        <ele>267</ele>
        <time>2021-06-06T07:20:46.444Z</time>
      </trkpt>
      <trkpt lat="45.68619" lon="5.31836">
        <ele>266</ele>
        <time>2021-06-06T07:20:47.443Z</time>
      </trkpt>
      <trkpt lat="45.68623" lon="5.31837">
        <ele>266</ele>
        <time>2021-06-06T07:20:48.443Z</time>
      </trkpt>
      <trkpt lat="45.68626" lon="5.31839">
        <ele>266</ele>
        <time>2021-06-06T07:20:49.444Z</time>
      </trkpt>
      <trkpt lat="45.6863" lon="5.3184">
        <ele>266</ele>
        <time>2021-06-06T07:20:50.444Z</time>
      </trkpt>
      <trkpt lat="45.68633" lon="5.31842">
        <ele>266</ele>
        <time>2021-06-06T07:20:51.444Z</time>
      </trkpt>
      <trkpt lat="45.68636" lon="5.31843">
        <ele>266</ele>
        <time>2021-06-06T07:20:52.444Z</time>
      </trkpt>
      <trkpt lat="45.6864" lon="5.31845">
        <ele>267</ele>
        <time>2021-06-06T07:20:53.444Z</time>
      </trkpt>
      <trkpt lat="45.68643" lon="5.31846">
        <ele>267</ele>
        <time>2021-06-06T07:20:54.443Z</time>
      </trkpt>
      <trkpt lat="45.68646" lon="5.31847">
        <ele>268</ele>
        <time>2021-06-06T07:20:55.444Z</time>
      </trkpt>
      <trkpt lat="45.6865" lon="5.31849">
        <ele>268</ele>
        <time>2021-06-06T07:20:56.443Z</time>
      </trkpt>
      <trkpt lat="45.68651" lon="5.3185">
        <ele>268</ele>
        <time>2021-06-06T07:20:57.444Z</time>
      </trkpt>
      <trkpt lat="45.68653" lon="5.31851">
        <ele>268</ele>
        <time>2021-06-06T07:20:58.444Z</time>
      </trkpt>
      <trkpt lat="45.68656" lon="5.31852">
        <ele>269</ele>
        <time>2021-06-06T07:20:59.444Z</time>
      </trkpt>
      <trkpt lat="45.68658" lon="5.31854">
        <ele>269</ele>
        <time>2021-06-06T07:21:00.444Z</time>
      </trkpt>
      <trkpt lat="45.6866" lon="5.31856">
        <ele>269</ele>
        <time>2021-06-06T07:21:01.444Z</time>
      </trkpt>
      <trkpt lat="45.68662" lon="5.3186">
        <ele>269</ele>
        <time>2021-06-06T07:21:02.443Z</time>
      </trkpt>
      <trkpt lat="45.68665" lon="5.31864">
        <ele>269</ele>
        <time>2021-06-06T07:21:03.444Z</time>
      </trkpt>
      <trkpt lat="45.68667" lon="5.31869">
        <ele>269</ele>
        <time>2021-06-06T07:21:04.443Z</time>
      </trkpt>
      <trkpt lat="45.6867" lon="5.31874">
        <ele>269</ele>
        <time>2021-06-06T07:21:05.444Z</time>
      </trkpt>
      <trkpt lat="45.68673" lon="5.3188">
        <ele>269</ele>
        <time>2021-06-06T07:21:06.444Z</time>
      </trkpt>
      <trkpt lat="45.68676" lon="5.31885">
        <ele>269</ele>
        <time>2021-06-06T07:21:07.444Z</time>
      </trkpt>
      <trkpt lat="45.68679" lon="5.31891">
        <ele>269</ele>
        <time>2021-06-06T07:21:08.443Z</time>
      </trkpt>
      <trkpt lat="45.68682" lon="5.31897">
        <ele>269</ele>
        <time>2021-06-06T07:21:09.444Z</time>
      </trkpt>
      <trkpt lat="45.68685" lon="5.31904">
        <ele>269</ele>
        <time>2021-06-06T07:21:10.444Z</time>
      </trkpt>
      <trkpt lat="45.68689" lon="5.3191">
        <ele>269</ele>
        <time>2021-06-06T07:21:11.444Z</time>
      </trkpt>
      <trkpt lat="45.68691" lon="5.31916">
        <ele>269</ele>
        <time>2021-06-06T07:21:12.444Z</time>
      </trkpt>
      <trkpt lat="45.68694" lon="5.31923">
        <ele>269</ele>
        <time>2021-06-06T07:21:13.444Z</time>
      </trkpt>
      <trkpt lat="45.68697" lon="5.31929">
        <ele>269</ele>
        <time>2021-06-06T07:21:14.444Z</time>
      </trkpt>
      <trkpt lat="45.687" lon="5.31936">
        <ele>269</ele>
        <time>2021-06-06T07:21:15.444Z</time>
      </trkpt>
      <trkpt lat="45.68702" lon="5.31942">
        <ele>269</ele>
        <time>2021-06-06T07:21:16.444Z</time>
      </trkpt>
      <trkpt lat="45.68705" lon="5.31949">
        <ele>269</ele>
        <time>2021-06-06T07:21:17.443Z</time>
      </trkpt>
      <trkpt lat="45.68707" lon="5.31956">
        <ele>269</ele>
        <time>2021-06-06T07:21:18.444Z</time>
      </trkpt>
      <trkpt lat="45.68709" lon="5.31963">
        <ele>268</ele>
        <time>2021-06-06T07:21:19.444Z</time>
      </trkpt>
      <trkpt lat="45.68711" lon="5.31972">
        <ele>268</ele>
        <time>2021-06-06T07:21:20.444Z</time>
      </trkpt>
      <trkpt lat="45.68711" lon="5.31979">
        <ele>268</ele>
        <time>2021-06-06T07:21:21.444Z</time>
      </trkpt>
      <trkpt lat="45.68712" lon="5.31987">
        <ele>268</ele>
        <time>2021-06-06T07:21:22.444Z</time>
      </trkpt>
      <trkpt lat="45.68713" lon="5.31995">
        <ele>268</ele>
        <time>2021-06-06T07:21:23.444Z</time>
      </trkpt>
      <trkpt lat="45.68714" lon="5.32004">
        <ele>268</ele>
        <time>2021-06-06T07:21:24.443Z</time>
      </trkpt>
      <trkpt lat="45.68714" lon="5.32013">
        <ele>268</ele>
        <time>2021-06-06T07:21:25.444Z</time>
      </trkpt>
      <trkpt lat="45.68714" lon="5.32022">
        <ele>268</ele>
        <time>2021-06-06T07:21:26.444Z</time>
      </trkpt>
      <trkpt lat="45.68714" lon="5.3203">
        <ele>268</ele>
        <time>2021-06-06T07:21:27.443Z</time>
      </trkpt>
      <trkpt lat="45.68712" lon="5.32038">
        <ele>268</ele>
        <time>2021-06-06T07:21:28.443Z</time>
      </trkpt>
      <trkpt lat="45.68711" lon="5.32046">
        <ele>268</ele>
        <time>2021-06-06T07:21:29.444Z</time>
      </trkpt>
      <trkpt lat="45.6871" lon="5.32053">
        <ele>267</ele>
        <time>2021-06-06T07:21:30.443Z</time>
      </trkpt>
      <trkpt lat="45.68708" lon="5.32062">
        <ele>268</ele>
        <time>2021-06-06T07:21:31.444Z</time>
      </trkpt>
      <trkpt lat="45.68707" lon="5.32067">
        <ele>268</ele>
        <time>2021-06-06T07:21:32.444Z</time>
      </trkpt>
      <trkpt lat="45.68705" lon="5.32074">
        <ele>268</ele>
        <time>2021-06-06T07:21:33.444Z</time>
      </trkpt>
      <trkpt lat="45.68703" lon="5.3208">
        <ele>269</ele>
        <time>2021-06-06T07:21:34.444Z</time>
      </trkpt>
      <trkpt lat="45.687" lon="5.32086">
        <ele>269</ele>
        <time>2021-06-06T07:21:35.444Z</time>
      </trkpt>
      <trkpt lat="45.68698" lon="5.32093">
        <ele>270</ele>
        <time>2021-06-06T07:21:36.443Z</time>
      </trkpt>
      <trkpt lat="45.68697" lon="5.32097">
        <ele>270</ele>
        <time>2021-06-06T07:21:37.444Z</time>
      </trkpt>
      <trkpt lat="45.68695" lon="5.32103">
        <ele>270</ele>
        <time>2021-06-06T07:21:38.444Z</time>
      </trkpt>
      <trkpt lat="45.68694" lon="5.32109">
        <ele>270</ele>
        <time>2021-06-06T07:21:39.443Z</time>
      </trkpt>
      <trkpt lat="45.68693" lon="5.32114">
        <ele>271</ele>
        <time>2021-06-06T07:21:40.444Z</time>
      </trkpt>
      <trkpt lat="45.68691" lon="5.32119">
        <ele>271</ele>
        <time>2021-06-06T07:21:41.444Z</time>
      </trkpt>
      <trkpt lat="45.68691" lon="5.32122">
        <ele>271</ele>
        <time>2021-06-06T07:21:42.443Z</time>
      </trkpt>
      <trkpt lat="45.68692" lon="5.32124">
        <ele>271</ele>
        <time>2021-06-06T07:21:43.443Z</time>
      </trkpt>
      <trkpt lat="45.68694" lon="5.32127">
        <ele>271</ele>
        <time>2021-06-06T07:21:44.444Z</time>
      </trkpt>
      <trkpt lat="45.68698" lon="5.32128">
        <ele>271</ele>
        <time>2021-06-06T07:21:45.444Z</time>
      </trkpt>
      <trkpt lat="45.68703" lon="5.32129">
        <ele>271</ele>
        <time>2021-06-06T07:21:46.444Z</time>
      </trkpt>
      <trkpt lat="45.68706" lon="5.3213">
        <ele>271</ele>
        <time>2021-06-06T07:21:47.444Z</time>
      </trkpt>
      <trkpt lat="45.6871" lon="5.32132">
        <ele>272</ele>
        <time>2021-06-06T07:21:48.444Z</time>
      </trkpt>
      <trkpt lat="45.68714" lon="5.32133">
        <ele>272</ele>
        <time>2021-06-06T07:21:49.444Z</time>
      </trkpt>
      <trkpt lat="45.68719" lon="5.32134">
        <ele>272</ele>
        <time>2021-06-06T07:21:50.444Z</time>
      </trkpt>
      <trkpt lat="45.68725" lon="5.32136">
        <ele>273</ele>
        <time>2021-06-06T07:21:51.444Z</time>
      </trkpt>
      <trkpt lat="45.68729" lon="5.32137">
        <ele>273</ele>
        <time>2021-06-06T07:21:52.443Z</time>
      </trkpt>
      <trkpt lat="45.68733" lon="5.32138">
        <ele>273</ele>
        <time>2021-06-06T07:21:53.444Z</time>
      </trkpt>
      <trkpt lat="45.68739" lon="5.32139">
        <ele>273</ele>
        <time>2021-06-06T07:21:54.444Z</time>
      </trkpt>
      <trkpt lat="45.68744" lon="5.32139">
        <ele>273</ele>
        <time>2021-06-06T07:21:55.444Z</time>
      </trkpt>
      <trkpt lat="45.68748" lon="5.3214">
        <ele>273</ele>
        <time>2021-06-06T07:21:56.444Z</time>
      </trkpt>
      <trkpt lat="45.68754" lon="5.32139">
        <ele>272</ele>
        <time>2021-06-06T07:21:57.444Z</time>
      </trkpt>
      <trkpt lat="45.68759" lon="5.32139">
        <ele>272</ele>
        <time>2021-06-06T07:21:58.444Z</time>
      </trkpt>
      <trkpt lat="45.68764" lon="5.32139">
        <ele>271</ele>
        <time>2021-06-06T07:21:59.444Z</time>
      </trkpt>
      <trkpt lat="45.68769" lon="5.32139">
        <ele>271</ele>
        <time>2021-06-06T07:22:00.443Z</time>
      </trkpt>
      <trkpt lat="45.68774" lon="5.3214">
        <ele>271</ele>
        <time>2021-06-06T07:22:01.444Z</time>
      </trkpt>
      <trkpt lat="45.68779" lon="5.32141">
        <ele>271</ele>
        <time>2021-06-06T07:22:02.444Z</time>
      </trkpt>
      <trkpt lat="45.68785" lon="5.32142">
        <ele>271</ele>
        <time>2021-06-06T07:22:03.443Z</time>
      </trkpt>
      <trkpt lat="45.6879" lon="5.32143">
        <ele>271</ele>
        <time>2021-06-06T07:22:04.444Z</time>
      </trkpt>
      <trkpt lat="45.68795" lon="5.32145">
        <ele>271</ele>
        <time>2021-06-06T07:22:05.443Z</time>
      </trkpt>
      <trkpt lat="45.688" lon="5.32146">
        <ele>271</ele>
        <time>2021-06-06T07:22:06.444Z</time>
      </trkpt>
      <trkpt lat="45.68805" lon="5.32148">
        <ele>271</ele>
        <time>2021-06-06T07:22:07.444Z</time>
      </trkpt>
      <trkpt lat="45.68811" lon="5.32149">
        <ele>271</ele>
        <time>2021-06-06T07:22:08.444Z</time>
      </trkpt>
      <trkpt lat="45.68817" lon="5.32151">
        <ele>271</ele>
        <time>2021-06-06T07:22:09.444Z</time>
      </trkpt>
      <trkpt lat="45.68821" lon="5.32152">
        <ele>271</ele>
        <time>2021-06-06T07:22:10.444Z</time>
      </trkpt>
      <trkpt lat="45.68827" lon="5.32154">
        <ele>271</ele>
        <time>2021-06-06T07:22:11.444Z</time>
      </trkpt>
      <trkpt lat="45.68832" lon="5.32155">
        <ele>271</ele>
        <time>2021-06-06T07:22:12.444Z</time>
      </trkpt>
      <trkpt lat="45.68836" lon="5.32156">
        <ele>271</ele>
        <time>2021-06-06T07:22:13.443Z</time>
      </trkpt>
      <trkpt lat="45.68842" lon="5.32158">
        <ele>270</ele>
        <time>2021-06-06T07:22:14.443Z</time>
      </trkpt>
      <trkpt lat="45.68846" lon="5.32159">
        <ele>270</ele>
        <time>2021-06-06T07:22:15.444Z</time>
      </trkpt>
      <trkpt lat="45.68851" lon="5.32159">
        <ele>270</ele>
        <time>2021-06-06T07:22:16.444Z</time>
      </trkpt>
      <trkpt lat="45.68856" lon="5.3216">
        <ele>270</ele>
        <time>2021-06-06T07:22:17.443Z</time>
      </trkpt>
      <trkpt lat="45.68862" lon="5.32162">
        <ele>270</ele>
        <time>2021-06-06T07:22:18.443Z</time>
      </trkpt>
      <trkpt lat="45.68866" lon="5.32163">
        <ele>270</ele>
        <time>2021-06-06T07:22:19.444Z</time>
      </trkpt>
      <trkpt lat="45.68872" lon="5.32163">
        <ele>270</ele>
        <time>2021-06-06T07:22:20.443Z</time>
      </trkpt>
      <trkpt lat="45.68878" lon="5.32164">
        <ele>269</ele>
        <time>2021-06-06T07:22:21.443Z</time>
      </trkpt>
      <trkpt lat="45.68884" lon="5.32167">
        <ele>269</ele>
        <time>2021-06-06T07:22:22.443Z</time>
      </trkpt>
      <trkpt lat="45.68887" lon="5.32169">
        <ele>269</ele>
        <time>2021-06-06T07:22:23.444Z</time>
      </trkpt>
      <trkpt lat="45.68892" lon="5.32172">
        <ele>269</ele>
        <time>2021-06-06T07:22:24.444Z</time>
      </trkpt>
      <trkpt lat="45.68897" lon="5.32174">
        <ele>269</ele>
        <time>2021-06-06T07:22:25.444Z</time>
      </trkpt>
      <trkpt lat="45.68901" lon="5.32176">
        <ele>270</ele>
        <time>2021-06-06T07:22:26.444Z</time>
      </trkpt>
      <trkpt lat="45.68906" lon="5.32179">
        <ele>270</ele>
        <time>2021-06-06T07:22:27.444Z</time>
      </trkpt>
      <trkpt lat="45.68911" lon="5.32182">
        <ele>270</ele>
        <time>2021-06-06T07:22:28.444Z</time>
      </trkpt>
      <trkpt lat="45.68914" lon="5.32185">
        <ele>270</ele>
        <time>2021-06-06T07:22:29.444Z</time>
      </trkpt>
      <trkpt lat="45.68918" lon="5.32188">
        <ele>270</ele>
        <time>2021-06-06T07:22:30.444Z</time>
      </trkpt>
      <trkpt lat="45.68921" lon="5.3219">
        <ele>271</ele>
        <time>2021-06-06T07:22:31.444Z</time>
      </trkpt>
      <trkpt lat="45.68925" lon="5.32195">
        <ele>272</ele>
        <time>2021-06-06T07:22:32.444Z</time>
      </trkpt>
      <trkpt lat="45.68929" lon="5.32199">
        <ele>272</ele>
        <time>2021-06-06T07:22:33.444Z</time>
      </trkpt>
      <trkpt lat="45.68933" lon="5.32202">
        <ele>273</ele>
        <time>2021-06-06T07:22:34.444Z</time>
      </trkpt>
      <trkpt lat="45.68937" lon="5.32207">
        <ele>273</ele>
        <time>2021-06-06T07:22:35.443Z</time>
      </trkpt>
      <trkpt lat="45.68941" lon="5.32212">
        <ele>274</ele>
        <time>2021-06-06T07:22:36.444Z</time>
      </trkpt>
      <trkpt lat="45.68944" lon="5.32216">
        <ele>274</ele>
        <time>2021-06-06T07:22:37.443Z</time>
      </trkpt>
      <trkpt lat="45.68948" lon="5.32221">
        <ele>274</ele>
        <time>2021-06-06T07:22:38.444Z</time>
      </trkpt>
      <trkpt lat="45.68951" lon="5.32226">
        <ele>274</ele>
        <time>2021-06-06T07:22:39.443Z</time>
      </trkpt>
      <trkpt lat="45.68954" lon="5.32231">
        <ele>274</ele>
        <time>2021-06-06T07:22:40.444Z</time>
      </trkpt>
      <trkpt lat="45.68957" lon="5.32237">
        <ele>274</ele>
        <time>2021-06-06T07:22:41.443Z</time>
      </trkpt>
      <trkpt lat="45.6896" lon="5.32242">
        <ele>275</ele>
        <time>2021-06-06T07:22:42.444Z</time>
      </trkpt>
      <trkpt lat="45.68964" lon="5.32246">
        <ele>275</ele>
        <time>2021-06-06T07:22:43.443Z</time>
      </trkpt>
      <trkpt lat="45.68968" lon="5.32251">
        <ele>275</ele>
        <time>2021-06-06T07:22:44.444Z</time>
      </trkpt>
      <trkpt lat="45.68972" lon="5.32256">
        <ele>276</ele>
        <time>2021-06-06T07:22:45.444Z</time>
      </trkpt>
      <trkpt lat="45.68976" lon="5.32261">
        <ele>276</ele>
        <time>2021-06-06T07:22:46.444Z</time>
      </trkpt>
      <trkpt lat="45.6898" lon="5.32265">
        <ele>276</ele>
        <time>2021-06-06T07:22:47.443Z</time>
      </trkpt>
      <trkpt lat="45.68984" lon="5.32269">
        <ele>276</ele>
        <time>2021-06-06T07:22:48.444Z</time>
      </trkpt>
      <trkpt lat="45.68989" lon="5.32272">
        <ele>276</ele>
        <time>2021-06-06T07:22:49.444Z</time>
      </trkpt>
      <trkpt lat="45.68993" lon="5.32276">
        <ele>276</ele>
        <time>2021-06-06T07:22:50.444Z</time>
      </trkpt>
      <trkpt lat="45.68998" lon="5.32279">
        <ele>277</ele>
        <time>2021-06-06T07:22:51.444Z</time>
      </trkpt>
      <trkpt lat="45.69003" lon="5.32282">
        <ele>277</ele>
        <time>2021-06-06T07:22:52.444Z</time>
      </trkpt>
      <trkpt lat="45.69008" lon="5.32285">
        <ele>276</ele>
        <time>2021-06-06T07:22:53.444Z</time>
      </trkpt>
      <trkpt lat="45.69013" lon="5.32287">
        <ele>276</ele>
        <time>2021-06-06T07:22:54.444Z</time>
      </trkpt>
      <trkpt lat="45.69017" lon="5.3229">
        <ele>276</ele>
        <time>2021-06-06T07:22:55.443Z</time>
      </trkpt>
      <trkpt lat="45.69022" lon="5.32291">
        <ele>276</ele>
        <time>2021-06-06T07:22:56.444Z</time>
      </trkpt>
      <trkpt lat="45.69027" lon="5.32293">
        <ele>276</ele>
        <time>2021-06-06T07:22:57.444Z</time>
      </trkpt>
      <trkpt lat="45.69031" lon="5.32295">
        <ele>277</ele>
        <time>2021-06-06T07:22:58.444Z</time>
      </trkpt>
      <trkpt lat="45.69036" lon="5.32296">
        <ele>277</ele>
        <time>2021-06-06T07:22:59.444Z</time>
      </trkpt>
      <trkpt lat="45.69041" lon="5.32298">
        <ele>277</ele>
        <time>2021-06-06T07:23:00.443Z</time>
      </trkpt>
      <trkpt lat="45.69046" lon="5.32299">
        <ele>277</ele>
        <time>2021-06-06T07:23:01.444Z</time>
      </trkpt>
      <trkpt lat="45.69051" lon="5.323">
        <ele>277</ele>
        <time>2021-06-06T07:23:02.443Z</time>
      </trkpt>
      <trkpt lat="45.69055" lon="5.32302">
        <ele>278</ele>
        <time>2021-06-06T07:23:03.443Z</time>
      </trkpt>
      <trkpt lat="45.6906" lon="5.32303">
        <ele>278</ele>
        <time>2021-06-06T07:23:04.444Z</time>
      </trkpt>
      <trkpt lat="45.69065" lon="5.32305">
        <ele>279</ele>
        <time>2021-06-06T07:23:05.444Z</time>
      </trkpt>
      <trkpt lat="45.69069" lon="5.32306">
        <ele>279</ele>
        <time>2021-06-06T07:23:06.444Z</time>
      </trkpt>
      <trkpt lat="45.69074" lon="5.32307">
        <ele>280</ele>
        <time>2021-06-06T07:23:07.444Z</time>
      </trkpt>
      <trkpt lat="45.69078" lon="5.32308">
        <ele>280</ele>
        <time>2021-06-06T07:23:08.444Z</time>
      </trkpt>
      <trkpt lat="45.69083" lon="5.32308">
        <ele>281</ele>
        <time>2021-06-06T07:23:09.444Z</time>
      </trkpt>
      <trkpt lat="45.69088" lon="5.32309">
        <ele>281</ele>
        <time>2021-06-06T07:23:10.444Z</time>
      </trkpt>
      <trkpt lat="45.69092" lon="5.3231">
        <ele>282</ele>
        <time>2021-06-06T07:23:11.444Z</time>
      </trkpt>
      <trkpt lat="45.69097" lon="5.32311">
        <ele>282</ele>
        <time>2021-06-06T07:23:12.443Z</time>
      </trkpt>
      <trkpt lat="45.69101" lon="5.32313">
        <ele>283</ele>
        <time>2021-06-06T07:23:13.444Z</time>
      </trkpt>
      <trkpt lat="45.69106" lon="5.32317">
        <ele>283</ele>
        <time>2021-06-06T07:23:14.444Z</time>
      </trkpt>
      <trkpt lat="45.6911" lon="5.32321">
        <ele>283</ele>
        <time>2021-06-06T07:23:15.443Z</time>
      </trkpt>
      <trkpt lat="45.69114" lon="5.32325">
        <ele>284</ele>
        <time>2021-06-06T07:23:16.444Z</time>
      </trkpt>
      <trkpt lat="45.69118" lon="5.32328">
        <ele>284</ele>
        <time>2021-06-06T07:23:17.444Z</time>
      </trkpt>
      <trkpt lat="45.69123" lon="5.32332">
        <ele>284</ele>
        <time>2021-06-06T07:23:18.444Z</time>
      </trkpt>
      <trkpt lat="45.69127" lon="5.32335">
        <ele>285</ele>
        <time>2021-06-06T07:23:19.444Z</time>
      </trkpt>
      <trkpt lat="45.69132" lon="5.32338">
        <ele>285</ele>
        <time>2021-06-06T07:23:20.444Z</time>
      </trkpt>
      <trkpt lat="45.69137" lon="5.32342">
        <ele>285</ele>
        <time>2021-06-06T07:23:21.444Z</time>
      </trkpt>
      <trkpt lat="45.69142" lon="5.32345">
        <ele>286</ele>
        <time>2021-06-06T07:23:22.443Z</time>
      </trkpt>
      <trkpt lat="45.69147" lon="5.32348">
        <ele>286</ele>
        <time>2021-06-06T07:23:23.444Z</time>
      </trkpt>
      <trkpt lat="45.69152" lon="5.32351">
        <ele>286</ele>
        <time>2021-06-06T07:23:24.443Z</time>
      </trkpt>
      <trkpt lat="45.69157" lon="5.32354">
        <ele>286</ele>
        <time>2021-06-06T07:23:25.443Z</time>
      </trkpt>
      <trkpt lat="45.69161" lon="5.32357">
        <ele>286</ele>
        <time>2021-06-06T07:23:26.444Z</time>
      </trkpt>
      <trkpt lat="45.69166" lon="5.3236">
        <ele>286</ele>
        <time>2021-06-06T07:23:27.443Z</time>
      </trkpt>
      <trkpt lat="45.69171" lon="5.32363">
        <ele>286</ele>
        <time>2021-06-06T07:23:28.444Z</time>
      </trkpt>
      <trkpt lat="45.69177" lon="5.32367">
        <ele>286</ele>
        <time>2021-06-06T07:23:29.444Z</time>
      </trkpt>
      <trkpt lat="45.69181" lon="5.32369">
        <ele>286</ele>
        <time>2021-06-06T07:23:30.444Z</time>
      </trkpt>
      <trkpt lat="45.69185" lon="5.32372">
        <ele>287</ele>
        <time>2021-06-06T07:23:31.444Z</time>
      </trkpt>
      <trkpt lat="45.6919" lon="5.32376">
        <ele>287</ele>
        <time>2021-06-06T07:23:32.444Z</time>
      </trkpt>
      <trkpt lat="45.69195" lon="5.32379">
        <ele>287</ele>
        <time>2021-06-06T07:23:33.444Z</time>
      </trkpt>
      <trkpt lat="45.692" lon="5.32382">
        <ele>287</ele>
        <time>2021-06-06T07:23:34.444Z</time>
      </trkpt>
      <trkpt lat="45.69204" lon="5.32385">
        <ele>287</ele>
        <time>2021-06-06T07:23:35.444Z</time>
      </trkpt>
      <trkpt lat="45.69209" lon="5.32388">
        <ele>287</ele>
        <time>2021-06-06T07:23:36.444Z</time>
      </trkpt>
      <trkpt lat="45.69214" lon="5.32391">
        <ele>287</ele>
        <time>2021-06-06T07:23:37.443Z</time>
      </trkpt>
      <trkpt lat="45.69219" lon="5.32394">
        <ele>287</ele>
        <time>2021-06-06T07:23:38.444Z</time>
      </trkpt>
      <trkpt lat="45.69224" lon="5.32397">
        <ele>287</ele>
        <time>2021-06-06T07:23:39.443Z</time>
      </trkpt>
      <trkpt lat="45.69228" lon="5.32401">
        <ele>287</ele>
        <time>2021-06-06T07:23:40.444Z</time>
      </trkpt>
      <trkpt lat="45.69233" lon="5.32404">
        <ele>286</ele>
        <time>2021-06-06T07:23:41.443Z</time>
      </trkpt>
      <trkpt lat="45.69238" lon="5.32407">
        <ele>286</ele>
        <time>2021-06-06T07:23:42.443Z</time>
      </trkpt>
      <trkpt lat="45.69243" lon="5.32409">
        <ele>286</ele>
        <time>2021-06-06T07:23:43.444Z</time>
      </trkpt>
      <trkpt lat="45.69248" lon="5.32412">
        <ele>287</ele>
        <time>2021-06-06T07:23:44.443Z</time>
      </trkpt>
      <trkpt lat="45.69253" lon="5.32414">
        <ele>287</ele>
        <time>2021-06-06T07:23:45.443Z</time>
      </trkpt>
      <trkpt lat="45.69258" lon="5.32416">
        <ele>287</ele>
        <time>2021-06-06T07:23:46.443Z</time>
      </trkpt>
      <trkpt lat="45.69263" lon="5.32418">
        <ele>287</ele>
        <time>2021-06-06T07:23:47.444Z</time>
      </trkpt>
      <trkpt lat="45.69268" lon="5.3242">
        <ele>288</ele>
        <time>2021-06-06T07:23:48.444Z</time>
      </trkpt>
      <trkpt lat="45.69273" lon="5.32421">
        <ele>288</ele>
        <time>2021-06-06T07:23:49.444Z</time>
      </trkpt>
      <trkpt lat="45.69278" lon="5.32422">
        <ele>288</ele>
        <time>2021-06-06T07:23:50.443Z</time>
      </trkpt>
      <trkpt lat="45.69283" lon="5.32423">
        <ele>288</ele>
        <time>2021-06-06T07:23:51.444Z</time>
      </trkpt>
      <trkpt lat="45.69288" lon="5.32424">
        <ele>288</ele>
        <time>2021-06-06T07:23:52.443Z</time>
      </trkpt>
      <trkpt lat="45.69293" lon="5.32425">
        <ele>288</ele>
        <time>2021-06-06T07:23:53.444Z</time>
      </trkpt>
      <trkpt lat="45.69298" lon="5.32425">
        <ele>288</ele>
        <time>2021-06-06T07:23:54.443Z</time>
      </trkpt>
      <trkpt lat="45.69303" lon="5.32426">
        <ele>289</ele>
        <time>2021-06-06T07:23:55.444Z</time>
      </trkpt>
      <trkpt lat="45.69308" lon="5.32426">
        <ele>289</ele>
        <time>2021-06-06T07:23:56.444Z</time>
      </trkpt>
      <trkpt lat="45.69313" lon="5.32426">
        <ele>289</ele>
        <time>2021-06-06T07:23:57.443Z</time>
      </trkpt>
      <trkpt lat="45.69318" lon="5.32426">
        <ele>289</ele>
        <time>2021-06-06T07:23:58.444Z</time>
      </trkpt>
      <trkpt lat="45.69323" lon="5.32427">
        <ele>289</ele>
        <time>2021-06-06T07:23:59.444Z</time>
      </trkpt>
      <trkpt lat="45.69327" lon="5.32427">
        <ele>289</ele>
        <time>2021-06-06T07:24:00.443Z</time>
      </trkpt>
      <trkpt lat="45.69332" lon="5.32427">
        <ele>289</ele>
        <time>2021-06-06T07:24:01.444Z</time>
      </trkpt>
      <trkpt lat="45.69337" lon="5.32427">
        <ele>289</ele>
        <time>2021-06-06T07:24:02.444Z</time>
      </trkpt>
      <trkpt lat="45.69343" lon="5.32427">
        <ele>289</ele>
        <time>2021-06-06T07:24:03.444Z</time>
      </trkpt>
      <trkpt lat="45.69348" lon="5.32428">
        <ele>289</ele>
        <time>2021-06-06T07:24:04.443Z</time>
      </trkpt>
      <trkpt lat="45.69353" lon="5.32428">
        <ele>289</ele>
        <time>2021-06-06T07:24:05.444Z</time>
      </trkpt>
      <trkpt lat="45.69359" lon="5.32428">
        <ele>289</ele>
        <time>2021-06-06T07:24:06.444Z</time>
      </trkpt>
      <trkpt lat="45.69364" lon="5.32428">
        <ele>290</ele>
        <time>2021-06-06T07:24:07.443Z</time>
      </trkpt>
      <trkpt lat="45.69369" lon="5.32429">
        <ele>290</ele>
        <time>2021-06-06T07:24:08.443Z</time>
      </trkpt>
      <trkpt lat="45.69373" lon="5.3243">
        <ele>291</ele>
        <time>2021-06-06T07:24:09.443Z</time>
      </trkpt>
      <trkpt lat="45.69378" lon="5.32431">
        <ele>291</ele>
        <time>2021-06-06T07:24:10.444Z</time>
      </trkpt>
      <trkpt lat="45.69382" lon="5.32432">
        <ele>292</ele>
        <time>2021-06-06T07:24:11.443Z</time>
      </trkpt>
      <trkpt lat="45.69386" lon="5.32433">
        <ele>292</ele>
        <time>2021-06-06T07:24:12.444Z</time>
      </trkpt>
      <trkpt lat="45.6939" lon="5.32434">
        <ele>292</ele>
        <time>2021-06-06T07:24:13.444Z</time>
      </trkpt>
      <trkpt lat="45.69394" lon="5.32436">
        <ele>292</ele>
        <time>2021-06-06T07:24:14.443Z</time>
      </trkpt>
      <trkpt lat="45.69399" lon="5.32438">
        <ele>292</ele>
        <time>2021-06-06T07:24:15.444Z</time>
      </trkpt>
      <trkpt lat="45.69403" lon="5.3244">
        <ele>292</ele>
        <time>2021-06-06T07:24:16.444Z</time>
      </trkpt>
      <trkpt lat="45.69407" lon="5.32442">
        <ele>292</ele>
        <time>2021-06-06T07:24:17.444Z</time>
      </trkpt>
      <trkpt lat="45.69412" lon="5.32444">
        <ele>293</ele>
        <time>2021-06-06T07:24:18.444Z</time>
      </trkpt>
      <trkpt lat="45.69417" lon="5.32447">
        <ele>293</ele>
        <time>2021-06-06T07:24:19.444Z</time>
      </trkpt>
      <trkpt lat="45.69421" lon="5.32449">
        <ele>293</ele>
        <time>2021-06-06T07:24:20.444Z</time>
      </trkpt>
      <trkpt lat="45.69426" lon="5.32451">
        <ele>293</ele>
        <time>2021-06-06T07:24:21.444Z</time>
      </trkpt>
      <trkpt lat="45.69431" lon="5.32453">
        <ele>293</ele>
        <time>2021-06-06T07:24:22.443Z</time>
      </trkpt>
      <trkpt lat="45.69436" lon="5.32456">
        <ele>293</ele>
        <time>2021-06-06T07:24:23.444Z</time>
      </trkpt>
      <trkpt lat="45.6944" lon="5.32458">
        <ele>293</ele>
        <time>2021-06-06T07:24:24.444Z</time>
      </trkpt>
      <trkpt lat="45.69444" lon="5.3246">
        <ele>293</ele>
        <time>2021-06-06T07:24:25.444Z</time>
      </trkpt>
      <trkpt lat="45.69449" lon="5.32463">
        <ele>293</ele>
        <time>2021-06-06T07:24:26.444Z</time>
      </trkpt>
      <trkpt lat="45.69453" lon="5.32465">
        <ele>292</ele>
        <time>2021-06-06T07:24:27.444Z</time>
      </trkpt>
      <trkpt lat="45.69458" lon="5.32467">
        <ele>292</ele>
        <time>2021-06-06T07:24:28.443Z</time>
      </trkpt>
      <trkpt lat="45.69462" lon="5.32469">
        <ele>292</ele>
        <time>2021-06-06T07:24:29.443Z</time>
      </trkpt>
      <trkpt lat="45.69466" lon="5.32471">
        <ele>292</ele>
        <time>2021-06-06T07:24:30.444Z</time>
      </trkpt>
      <trkpt lat="45.69471" lon="5.32473">
        <ele>293</ele>
        <time>2021-06-06T07:24:31.444Z</time>
      </trkpt>
      <trkpt lat="45.69475" lon="5.32475">
        <ele>293</ele>
        <time>2021-06-06T07:24:32.444Z</time>
      </trkpt>
      <trkpt lat="45.6948" lon="5.32477">
        <ele>293</ele>
        <time>2021-06-06T07:24:33.443Z</time>
      </trkpt>
      <trkpt lat="45.69485" lon="5.32479">
        <ele>293</ele>
        <time>2021-06-06T07:24:34.444Z</time>
      </trkpt>
      <trkpt lat="45.69489" lon="5.32481">
        <ele>293</ele>
        <time>2021-06-06T07:24:35.444Z</time>
      </trkpt>
      <trkpt lat="45.69494" lon="5.32483">
        <ele>293</ele>
        <time>2021-06-06T07:24:36.443Z</time>
      </trkpt>
      <trkpt lat="45.69498" lon="5.32485">
        <ele>293</ele>
        <time>2021-06-06T07:24:37.444Z</time>
      </trkpt>
      <trkpt lat="45.69503" lon="5.32487">
        <ele>293</ele>
        <time>2021-06-06T07:24:38.443Z</time>
      </trkpt>
      <trkpt lat="45.69508" lon="5.32489">
        <ele>293</ele>
        <time>2021-06-06T07:24:39.444Z</time>
      </trkpt>
      <trkpt lat="45.69513" lon="5.32491">
        <ele>293</ele>
        <time>2021-06-06T07:24:40.444Z</time>
      </trkpt>
      <trkpt lat="45.69518" lon="5.32493">
        <ele>293</ele>
        <time>2021-06-06T07:24:41.444Z</time>
      </trkpt>
      <trkpt lat="45.69523" lon="5.32495">
        <ele>293</ele>
        <time>2021-06-06T07:24:42.443Z</time>
      </trkpt>
      <trkpt lat="45.69528" lon="5.32498">
        <ele>292</ele>
        <time>2021-06-06T07:24:43.443Z</time>
      </trkpt>
      <trkpt lat="45.69533" lon="5.325">
        <ele>292</ele>
        <time>2021-06-06T07:24:44.444Z</time>
      </trkpt>
      <trkpt lat="45.69537" lon="5.32503">
        <ele>292</ele>
        <time>2021-06-06T07:24:45.443Z</time>
      </trkpt>
      <trkpt lat="45.69542" lon="5.32505">
        <ele>292</ele>
        <time>2021-06-06T07:24:46.444Z</time>
      </trkpt>
      <trkpt lat="45.69547" lon="5.32508">
        <ele>292</ele>
        <time>2021-06-06T07:24:47.444Z</time>
      </trkpt>
      <trkpt lat="45.69553" lon="5.3251">
        <ele>292</ele>
        <time>2021-06-06T07:24:48.444Z</time>
      </trkpt>
      <trkpt lat="45.69558" lon="5.32512">
        <ele>292</ele>
        <time>2021-06-06T07:24:49.443Z</time>
      </trkpt>
      <trkpt lat="45.69563" lon="5.32515">
        <ele>292</ele>
        <time>2021-06-06T07:24:50.444Z</time>
      </trkpt>
      <trkpt lat="45.69568" lon="5.32517">
        <ele>292</ele>
        <time>2021-06-06T07:24:51.444Z</time>
      </trkpt>
      <trkpt lat="45.69573" lon="5.3252">
        <ele>293</ele>
        <time>2021-06-06T07:24:52.443Z</time>
      </trkpt>
      <trkpt lat="45.69578" lon="5.32522">
        <ele>293</ele>
        <time>2021-06-06T07:24:53.444Z</time>
      </trkpt>
      <trkpt lat="45.69583" lon="5.32525">
        <ele>293</ele>
        <time>2021-06-06T07:24:54.443Z</time>
      </trkpt>
      <trkpt lat="45.69588" lon="5.32527">
        <ele>293</ele>
        <time>2021-06-06T07:24:55.443Z</time>
      </trkpt>
      <trkpt lat="45.69593" lon="5.32529">
        <ele>293</ele>
        <time>2021-06-06T07:24:56.444Z</time>
      </trkpt>
      <trkpt lat="45.69598" lon="5.32532">
        <ele>293</ele>
        <time>2021-06-06T07:24:57.444Z</time>
      </trkpt>
      <trkpt lat="45.69603" lon="5.32535">
        <ele>293</ele>
        <time>2021-06-06T07:24:58.444Z</time>
      </trkpt>
      <trkpt lat="45.69608" lon="5.32537">
        <ele>292</ele>
        <time>2021-06-06T07:24:59.443Z</time>
      </trkpt>
      <trkpt lat="45.69613" lon="5.3254">
        <ele>292</ele>
        <time>2021-06-06T07:25:00.444Z</time>
      </trkpt>
      <trkpt lat="45.69618" lon="5.32542">
        <ele>292</ele>
        <time>2021-06-06T07:25:01.444Z</time>
      </trkpt>
      <trkpt lat="45.69623" lon="5.32544">
        <ele>292</ele>
        <time>2021-06-06T07:25:02.444Z</time>
      </trkpt>
      <trkpt lat="45.69628" lon="5.32547">
        <ele>292</ele>
        <time>2021-06-06T07:25:03.443Z</time>
      </trkpt>
      <trkpt lat="45.69633" lon="5.32549">
        <ele>292</ele>
        <time>2021-06-06T07:25:04.444Z</time>
      </trkpt>
      <trkpt lat="45.69638" lon="5.32552">
        <ele>293</ele>
        <time>2021-06-06T07:25:05.443Z</time>
      </trkpt>
      <trkpt lat="45.69643" lon="5.32554">
        <ele>292</ele>
        <time>2021-06-06T07:25:06.443Z</time>
      </trkpt>
      <trkpt lat="45.69648" lon="5.32557">
        <ele>292</ele>
        <time>2021-06-06T07:25:07.444Z</time>
      </trkpt>
      <trkpt lat="45.69654" lon="5.32559">
        <ele>292</ele>
        <time>2021-06-06T07:25:08.443Z</time>
      </trkpt>
      <trkpt lat="45.6966" lon="5.32561">
        <ele>292</ele>
        <time>2021-06-06T07:25:09.444Z</time>
      </trkpt>
      <trkpt lat="45.69666" lon="5.32564">
        <ele>292</ele>
        <time>2021-06-06T07:25:10.444Z</time>
      </trkpt>
      <trkpt lat="45.69671" lon="5.32567">
        <ele>292</ele>
        <time>2021-06-06T07:25:11.443Z</time>
      </trkpt>
      <trkpt lat="45.69677" lon="5.32569">
        <ele>292</ele>
        <time>2021-06-06T07:25:12.443Z</time>
      </trkpt>
      <trkpt lat="45.69683" lon="5.32572">
        <ele>291</ele>
        <time>2021-06-06T07:25:13.444Z</time>
      </trkpt>
      <trkpt lat="45.69689" lon="5.32576">
        <ele>291</ele>
        <time>2021-06-06T07:25:14.444Z</time>
      </trkpt>
      <trkpt lat="45.69695" lon="5.3258">
        <ele>291</ele>
        <time>2021-06-06T07:25:15.443Z</time>
      </trkpt>
      <trkpt lat="45.69702" lon="5.32585">
        <ele>291</ele>
        <time>2021-06-06T07:25:16.444Z</time>
      </trkpt>
      <trkpt lat="45.69708" lon="5.3259">
        <ele>290</ele>
        <time>2021-06-06T07:25:17.444Z</time>
      </trkpt>
      <trkpt lat="45.69715" lon="5.32595">
        <ele>290</ele>
        <time>2021-06-06T07:25:18.443Z</time>
      </trkpt>
      <trkpt lat="45.69722" lon="5.326">
        <ele>290</ele>
        <time>2021-06-06T07:25:19.443Z</time>
      </trkpt>
      <trkpt lat="45.6973" lon="5.32604">
        <ele>290</ele>
        <time>2021-06-06T07:25:20.444Z</time>
      </trkpt>
      <trkpt lat="45.69738" lon="5.32607">
        <ele>289</ele>
        <time>2021-06-06T07:25:21.444Z</time>
      </trkpt>
      <trkpt lat="45.69747" lon="5.3261">
        <ele>289</ele>
        <time>2021-06-06T07:25:22.444Z</time>
      </trkpt>
      <trkpt lat="45.69755" lon="5.32612">
        <ele>288</ele>
        <time>2021-06-06T07:25:23.444Z</time>
      </trkpt>
      <trkpt lat="45.69764" lon="5.32614">
        <ele>288</ele>
        <time>2021-06-06T07:25:24.444Z</time>
      </trkpt>
      <trkpt lat="45.69773" lon="5.32615">
        <ele>288</ele>
        <time>2021-06-06T07:25:25.444Z</time>
      </trkpt>
      <trkpt lat="45.69782" lon="5.32617">
        <ele>287</ele>
        <time>2021-06-06T07:25:26.444Z</time>
      </trkpt>
      <trkpt lat="45.69791" lon="5.32618">
        <ele>286</ele>
        <time>2021-06-06T07:25:27.444Z</time>
      </trkpt>
      <trkpt lat="45.698" lon="5.32619">
        <ele>285</ele>
        <time>2021-06-06T07:25:28.444Z</time>
      </trkpt>
      <trkpt lat="45.69809" lon="5.32621">
        <ele>284</ele>
        <time>2021-06-06T07:25:29.444Z</time>
      </trkpt>
      <trkpt lat="45.69818" lon="5.32623">
        <ele>284</ele>
        <time>2021-06-06T07:25:30.443Z</time>
      </trkpt>
      <trkpt lat="45.69827" lon="5.32627">
        <ele>283</ele>
        <time>2021-06-06T07:25:31.444Z</time>
      </trkpt>
      <trkpt lat="45.69836" lon="5.32633">
        <ele>282</ele>
        <time>2021-06-06T07:25:32.444Z</time>
      </trkpt>
      <trkpt lat="45.69844" lon="5.3264">
        <ele>282</ele>
        <time>2021-06-06T07:25:33.444Z</time>
      </trkpt>
      <trkpt lat="45.69851" lon="5.32648">
        <ele>281</ele>
        <time>2021-06-06T07:25:34.443Z</time>
      </trkpt>
      <trkpt lat="45.69858" lon="5.32656">
        <ele>281</ele>
        <time>2021-06-06T07:25:35.444Z</time>
      </trkpt>
      <trkpt lat="45.69864" lon="5.32664">
        <ele>280</ele>
        <time>2021-06-06T07:25:36.444Z</time>
      </trkpt>
      <trkpt lat="45.6987" lon="5.32672">
        <ele>280</ele>
        <time>2021-06-06T07:25:37.443Z</time>
      </trkpt>
      <trkpt lat="45.69876" lon="5.32679">
        <ele>280</ele>
        <time>2021-06-06T07:25:38.444Z</time>
      </trkpt>
      <trkpt lat="45.69882" lon="5.32685">
        <ele>280</ele>
        <time>2021-06-06T07:25:39.443Z</time>
      </trkpt>
      <trkpt lat="45.69888" lon="5.3269">
        <ele>280</ele>
        <time>2021-06-06T07:25:40.444Z</time>
      </trkpt>
      <trkpt lat="45.69894" lon="5.32694">
        <ele>280</ele>
        <time>2021-06-06T07:25:41.444Z</time>
      </trkpt>
      <trkpt lat="45.699" lon="5.32697">
        <ele>280</ele>
        <time>2021-06-06T07:25:42.444Z</time>
      </trkpt>
      <trkpt lat="45.69906" lon="5.32701">
        <ele>279</ele>
        <time>2021-06-06T07:25:43.444Z</time>
      </trkpt>
      <trkpt lat="45.69911" lon="5.32704">
        <ele>279</ele>
        <time>2021-06-06T07:25:44.444Z</time>
      </trkpt>
      <trkpt lat="45.69917" lon="5.32708">
        <ele>280</ele>
        <time>2021-06-06T07:25:45.443Z</time>
      </trkpt>
      <trkpt lat="45.69923" lon="5.32711">
        <ele>280</ele>
        <time>2021-06-06T07:25:46.444Z</time>
      </trkpt>
      <trkpt lat="45.69928" lon="5.32715">
        <ele>280</ele>
        <time>2021-06-06T07:25:47.443Z</time>
      </trkpt>
      <trkpt lat="45.69933" lon="5.32719">
        <ele>280</ele>
        <time>2021-06-06T07:25:48.444Z</time>
      </trkpt>
      <trkpt lat="45.69939" lon="5.32724">
        <ele>280</ele>
        <time>2021-06-06T07:25:49.444Z</time>
      </trkpt>
      <trkpt lat="45.69944" lon="5.32729">
        <ele>280</ele>
        <time>2021-06-06T07:25:50.443Z</time>
      </trkpt>
      <trkpt lat="45.69949" lon="5.32734">
        <ele>280</ele>
        <time>2021-06-06T07:25:51.443Z</time>
      </trkpt>
      <trkpt lat="45.69954" lon="5.3274">
        <ele>280</ele>
        <time>2021-06-06T07:25:52.443Z</time>
      </trkpt>
      <trkpt lat="45.69959" lon="5.32745">
        <ele>280</ele>
        <time>2021-06-06T07:25:53.443Z</time>
      </trkpt>
      <trkpt lat="45.69964" lon="5.3275">
        <ele>280</ele>
        <time>2021-06-06T07:25:54.443Z</time>
      </trkpt>
      <trkpt lat="45.69969" lon="5.32755">
        <ele>280</ele>
        <time>2021-06-06T07:25:55.444Z</time>
      </trkpt>
      <trkpt lat="45.69974" lon="5.32761">
        <ele>281</ele>
        <time>2021-06-06T07:25:56.443Z</time>
      </trkpt>
      <trkpt lat="45.69978" lon="5.32767">
        <ele>281</ele>
        <time>2021-06-06T07:25:57.444Z</time>
      </trkpt>
      <trkpt lat="45.69983" lon="5.32773">
        <ele>281</ele>
        <time>2021-06-06T07:25:58.444Z</time>
      </trkpt>
      <trkpt lat="45.69986" lon="5.3278">
        <ele>281</ele>
        <time>2021-06-06T07:25:59.444Z</time>
      </trkpt>
      <trkpt lat="45.69989" lon="5.32787">
        <ele>281</ele>
        <time>2021-06-06T07:26:00.444Z</time>
      </trkpt>
      <trkpt lat="45.69992" lon="5.32796">
        <ele>281</ele>
        <time>2021-06-06T07:26:01.444Z</time>
      </trkpt>
      <trkpt lat="45.69993" lon="5.32805">
        <ele>281</ele>
        <time>2021-06-06T07:26:02.444Z</time>
      </trkpt>
      <trkpt lat="45.69994" lon="5.32815">
        <ele>281</ele>
        <time>2021-06-06T07:26:03.444Z</time>
      </trkpt>
      <trkpt lat="45.69994" lon="5.32826">
        <ele>281</ele>
        <time>2021-06-06T07:26:04.444Z</time>
      </trkpt>
      <trkpt lat="45.69994" lon="5.32836">
        <ele>280</ele>
        <time>2021-06-06T07:26:05.443Z</time>
      </trkpt>
      <trkpt lat="45.69994" lon="5.32847">
        <ele>280</ele>
        <time>2021-06-06T07:26:06.444Z</time>
      </trkpt>
      <trkpt lat="45.69995" lon="5.32857">
        <ele>280</ele>
        <time>2021-06-06T07:26:07.444Z</time>
      </trkpt>
      <trkpt lat="45.69997" lon="5.32867">
        <ele>280</ele>
        <time>2021-06-06T07:26:08.444Z</time>
      </trkpt>
      <trkpt lat="45.70001" lon="5.32875">
        <ele>280</ele>
        <time>2021-06-06T07:26:09.444Z</time>
      </trkpt>
      <trkpt lat="45.70005" lon="5.32883">
        <ele>280</ele>
        <time>2021-06-06T07:26:10.443Z</time>
      </trkpt>
      <trkpt lat="45.70011" lon="5.32889">
        <ele>280</ele>
        <time>2021-06-06T07:26:11.444Z</time>
      </trkpt>
      <trkpt lat="45.70017" lon="5.32894">
        <ele>280</ele>
        <time>2021-06-06T07:26:12.444Z</time>
      </trkpt>
      <trkpt lat="45.70023" lon="5.32898">
        <ele>280</ele>
        <time>2021-06-06T07:26:13.444Z</time>
      </trkpt>
      <trkpt lat="45.7003" lon="5.32901">
        <ele>280</ele>
        <time>2021-06-06T07:26:14.444Z</time>
      </trkpt>
      <trkpt lat="45.70036" lon="5.32904">
        <ele>280</ele>
        <time>2021-06-06T07:26:15.444Z</time>
      </trkpt>
      <trkpt lat="45.70042" lon="5.32907">
        <ele>280</ele>
        <time>2021-06-06T07:26:16.444Z</time>
      </trkpt>
      <trkpt lat="45.70048" lon="5.32908">
        <ele>280</ele>
        <time>2021-06-06T07:26:17.444Z</time>
      </trkpt>
      <trkpt lat="45.70054" lon="5.32908">
        <ele>280</ele>
        <time>2021-06-06T07:26:18.443Z</time>
      </trkpt>
      <trkpt lat="45.70061" lon="5.32908">
        <ele>280</ele>
        <time>2021-06-06T07:26:19.444Z</time>
      </trkpt>
      <trkpt lat="45.70066" lon="5.32907">
        <ele>280</ele>
        <time>2021-06-06T07:26:20.444Z</time>
      </trkpt>
      <trkpt lat="45.70072" lon="5.32906">
        <ele>280</ele>
        <time>2021-06-06T07:26:21.444Z</time>
      </trkpt>
      <trkpt lat="45.70078" lon="5.32904">
        <ele>280</ele>
        <time>2021-06-06T07:26:22.444Z</time>
      </trkpt>
      <trkpt lat="45.70084" lon="5.32902">
        <ele>280</ele>
        <time>2021-06-06T07:26:23.444Z</time>
      </trkpt>
      <trkpt lat="45.7009" lon="5.329">
        <ele>280</ele>
        <time>2021-06-06T07:26:24.444Z</time>
      </trkpt>
      <trkpt lat="45.70096" lon="5.32899">
        <ele>281</ele>
        <time>2021-06-06T07:26:25.444Z</time>
      </trkpt>
      <trkpt lat="45.70101" lon="5.32897">
        <ele>281</ele>
        <time>2021-06-06T07:26:26.444Z</time>
      </trkpt>
      <trkpt lat="45.70108" lon="5.32895">
        <ele>281</ele>
        <time>2021-06-06T07:26:27.444Z</time>
      </trkpt>
      <trkpt lat="45.70114" lon="5.32893">
        <ele>281</ele>
        <time>2021-06-06T07:26:28.444Z</time>
      </trkpt>
      <trkpt lat="45.70121" lon="5.32891">
        <ele>281</ele>
        <time>2021-06-06T07:26:29.444Z</time>
      </trkpt>
      <trkpt lat="45.70128" lon="5.32889">
        <ele>281</ele>
        <time>2021-06-06T07:26:30.443Z</time>
      </trkpt>
      <trkpt lat="45.70134" lon="5.32887">
        <ele>280</ele>
        <time>2021-06-06T07:26:31.443Z</time>
      </trkpt>
      <trkpt lat="45.70141" lon="5.32885">
        <ele>281</ele>
        <time>2021-06-06T07:26:32.444Z</time>
      </trkpt>
      <trkpt lat="45.70148" lon="5.32883">
        <ele>282</ele>
        <time>2021-06-06T07:26:33.443Z</time>
      </trkpt>
      <trkpt lat="45.70156" lon="5.32882">
        <ele>282</ele>
        <time>2021-06-06T07:26:34.443Z</time>
      </trkpt>
      <trkpt lat="45.70163" lon="5.32881">
        <ele>282</ele>
        <time>2021-06-06T07:26:35.444Z</time>
      </trkpt>
      <trkpt lat="45.70171" lon="5.3288">
        <ele>283</ele>
        <time>2021-06-06T07:26:36.443Z</time>
      </trkpt>
      <trkpt lat="45.70179" lon="5.3288">
        <ele>283</ele>
        <time>2021-06-06T07:26:37.444Z</time>
      </trkpt>
      <trkpt lat="45.70188" lon="5.32881">
        <ele>282</ele>
        <time>2021-06-06T07:26:38.443Z</time>
      </trkpt>
      <trkpt lat="45.70196" lon="5.32881">
        <ele>282</ele>
        <time>2021-06-06T07:26:39.444Z</time>
      </trkpt>
      <trkpt lat="45.70205" lon="5.32882">
        <ele>281</ele>
        <time>2021-06-06T07:26:40.444Z</time>
      </trkpt>
      <trkpt lat="45.70213" lon="5.32883">
        <ele>281</ele>
        <time>2021-06-06T07:26:41.444Z</time>
      </trkpt>
      <trkpt lat="45.70221" lon="5.32883">
        <ele>280</ele>
        <time>2021-06-06T07:26:42.444Z</time>
      </trkpt>
      <trkpt lat="45.70229" lon="5.32883">
        <ele>279</ele>
        <time>2021-06-06T07:26:43.443Z</time>
      </trkpt>
      <trkpt lat="45.70236" lon="5.32884">
        <ele>278</ele>
        <time>2021-06-06T07:26:44.444Z</time>
      </trkpt>
      <trkpt lat="45.70243" lon="5.32884">
        <ele>278</ele>
        <time>2021-06-06T07:26:45.444Z</time>
      </trkpt>
      <trkpt lat="45.70251" lon="5.32884">
        <ele>277</ele>
        <time>2021-06-06T07:26:46.443Z</time>
      </trkpt>
      <trkpt lat="45.70257" lon="5.32887">
        <ele>276</ele>
        <time>2021-06-06T07:26:47.443Z</time>
      </trkpt>
      <trkpt lat="45.70263" lon="5.32892">
        <ele>276</ele>
        <time>2021-06-06T07:26:48.444Z</time>
      </trkpt>
      <trkpt lat="45.70267" lon="5.329">
        <ele>275</ele>
        <time>2021-06-06T07:26:49.444Z</time>
      </trkpt>
      <trkpt lat="45.70271" lon="5.3291">
        <ele>274</ele>
        <time>2021-06-06T07:26:50.443Z</time>
      </trkpt>
      <trkpt lat="45.70273" lon="5.32922">
        <ele>273</ele>
        <time>2021-06-06T07:26:51.443Z</time>
      </trkpt>
      <trkpt lat="45.70276" lon="5.32934">
        <ele>273</ele>
        <time>2021-06-06T07:26:52.443Z</time>
      </trkpt>
      <trkpt lat="45.70278" lon="5.32947">
        <ele>272</ele>
        <time>2021-06-06T07:26:53.443Z</time>
      </trkpt>
      <trkpt lat="45.70281" lon="5.32961">
        <ele>272</ele>
        <time>2021-06-06T07:26:54.443Z</time>
      </trkpt>
      <trkpt lat="45.70285" lon="5.32974">
        <ele>272</ele>
        <time>2021-06-06T07:26:55.443Z</time>
      </trkpt>
      <trkpt lat="45.7029" lon="5.32986">
        <ele>272</ele>
        <time>2021-06-06T07:26:56.444Z</time>
      </trkpt>
      <trkpt lat="45.70294" lon="5.32998">
        <ele>271</ele>
        <time>2021-06-06T07:26:57.444Z</time>
      </trkpt>
      <trkpt lat="45.703" lon="5.33009">
        <ele>271</ele>
        <time>2021-06-06T07:26:58.444Z</time>
      </trkpt>
      <trkpt lat="45.70305" lon="5.33019">
        <ele>271</ele>
        <time>2021-06-06T07:26:59.443Z</time>
      </trkpt>
      <trkpt lat="45.70311" lon="5.33029">
        <ele>271</ele>
        <time>2021-06-06T07:27:00.444Z</time>
      </trkpt>
      <trkpt lat="45.70316" lon="5.33038">
        <ele>271</ele>
        <time>2021-06-06T07:27:01.444Z</time>
      </trkpt>
      <trkpt lat="45.7032" lon="5.33047">
        <ele>271</ele>
        <time>2021-06-06T07:27:02.443Z</time>
      </trkpt>
      <trkpt lat="45.70324" lon="5.33056">
        <ele>271</ele>
        <time>2021-06-06T07:27:03.443Z</time>
      </trkpt>
      <trkpt lat="45.70326" lon="5.33064">
        <ele>271</ele>
        <time>2021-06-06T07:27:04.443Z</time>
      </trkpt>
      <trkpt lat="45.70329" lon="5.33072">
        <ele>271</ele>
        <time>2021-06-06T07:27:05.443Z</time>
      </trkpt>
      <trkpt lat="45.70331" lon="5.3308">
        <ele>271</ele>
        <time>2021-06-06T07:27:06.443Z</time>
      </trkpt>
      <trkpt lat="45.70333" lon="5.33088">
        <ele>271</ele>
        <time>2021-06-06T07:27:07.444Z</time>
      </trkpt>
      <trkpt lat="45.70335" lon="5.33096">
        <ele>272</ele>
        <time>2021-06-06T07:27:08.443Z</time>
      </trkpt>
      <trkpt lat="45.70337" lon="5.33104">
        <ele>272</ele>
        <time>2021-06-06T07:27:09.444Z</time>
      </trkpt>
      <trkpt lat="45.70338" lon="5.33111">
        <ele>272</ele>
        <time>2021-06-06T07:27:10.444Z</time>
      </trkpt>
      <trkpt lat="45.70338" lon="5.3312">
        <ele>272</ele>
        <time>2021-06-06T07:27:11.444Z</time>
      </trkpt>
      <trkpt lat="45.70338" lon="5.33128">
        <ele>272</ele>
        <time>2021-06-06T07:27:12.444Z</time>
      </trkpt>
      <trkpt lat="45.70339" lon="5.33135">
        <ele>272</ele>
        <time>2021-06-06T07:27:13.443Z</time>
      </trkpt>
      <trkpt lat="45.7034" lon="5.33143">
        <ele>271</ele>
        <time>2021-06-06T07:27:14.444Z</time>
      </trkpt>
      <trkpt lat="45.70341" lon="5.33151">
        <ele>271</ele>
        <time>2021-06-06T07:27:15.444Z</time>
      </trkpt>
      <trkpt lat="45.70343" lon="5.33158">
        <ele>271</ele>
        <time>2021-06-06T07:27:16.444Z</time>
      </trkpt>
      <trkpt lat="45.70344" lon="5.33166">
        <ele>272</ele>
        <time>2021-06-06T07:27:17.444Z</time>
      </trkpt>
      <trkpt lat="45.70346" lon="5.33174">
        <ele>272</ele>
        <time>2021-06-06T07:27:18.444Z</time>
      </trkpt>
      <trkpt lat="45.70348" lon="5.33181">
        <ele>272</ele>
        <time>2021-06-06T07:27:19.443Z</time>
      </trkpt>
      <trkpt lat="45.7035" lon="5.33189">
        <ele>272</ele>
        <time>2021-06-06T07:27:20.443Z</time>
      </trkpt>
      <trkpt lat="45.70352" lon="5.33194">
        <ele>273</ele>
        <time>2021-06-06T07:27:21.444Z</time>
      </trkpt>
      <trkpt lat="45.70354" lon="5.332">
        <ele>273</ele>
        <time>2021-06-06T07:27:22.444Z</time>
      </trkpt>
      <trkpt lat="45.70357" lon="5.33206">
        <ele>273</ele>
        <time>2021-06-06T07:27:23.444Z</time>
      </trkpt>
      <trkpt lat="45.70359" lon="5.33212">
        <ele>273</ele>
        <time>2021-06-06T07:27:24.444Z</time>
      </trkpt>
      <trkpt lat="45.70361" lon="5.33218">
        <ele>273</ele>
        <time>2021-06-06T07:27:25.444Z</time>
      </trkpt>
      <trkpt lat="45.70364" lon="5.33222">
        <ele>274</ele>
        <time>2021-06-06T07:27:26.443Z</time>
      </trkpt>
      <trkpt lat="45.70367" lon="5.33227">
        <ele>274</ele>
        <time>2021-06-06T07:27:27.443Z</time>
      </trkpt>
      <trkpt lat="45.70369" lon="5.33232">
        <ele>274</ele>
        <time>2021-06-06T07:27:28.443Z</time>
      </trkpt>
      <trkpt lat="45.70371" lon="5.33236">
        <ele>275</ele>
        <time>2021-06-06T07:27:29.444Z</time>
      </trkpt>
      <trkpt lat="45.70373" lon="5.33241">
        <ele>275</ele>
        <time>2021-06-06T07:27:30.443Z</time>
      </trkpt>
      <trkpt lat="45.70375" lon="5.33245">
        <ele>276</ele>
        <time>2021-06-06T07:27:31.444Z</time>
      </trkpt>
      <trkpt lat="45.70376" lon="5.3325">
        <ele>276</ele>
        <time>2021-06-06T07:27:32.444Z</time>
      </trkpt>
      <trkpt lat="45.70377" lon="5.33255">
        <ele>276</ele>
        <time>2021-06-06T07:27:33.444Z</time>
      </trkpt>
      <trkpt lat="45.70378" lon="5.3326">
        <ele>277</ele>
        <time>2021-06-06T07:27:34.444Z</time>
      </trkpt>
      <trkpt lat="45.70378" lon="5.33265">
        <ele>277</ele>
        <time>2021-06-06T07:27:35.444Z</time>
      </trkpt>
      <trkpt lat="45.70378" lon="5.33271">
        <ele>277</ele>
        <time>2021-06-06T07:27:36.444Z</time>
      </trkpt>
      <trkpt lat="45.70378" lon="5.33276">
        <ele>278</ele>
        <time>2021-06-06T07:27:37.443Z</time>
      </trkpt>
      <trkpt lat="45.70378" lon="5.33281">
        <ele>278</ele>
        <time>2021-06-06T07:27:38.444Z</time>
      </trkpt>
      <trkpt lat="45.70379" lon="5.33287">
        <ele>278</ele>
        <time>2021-06-06T07:27:39.444Z</time>
      </trkpt>
      <trkpt lat="45.70379" lon="5.33292">
        <ele>279</ele>
        <time>2021-06-06T07:27:40.444Z</time>
      </trkpt>
      <trkpt lat="45.7038" lon="5.33297">
        <ele>279</ele>
        <time>2021-06-06T07:27:41.444Z</time>
      </trkpt>
      <trkpt lat="45.70381" lon="5.33301">
        <ele>279</ele>
        <time>2021-06-06T07:27:42.444Z</time>
      </trkpt>
      <trkpt lat="45.70383" lon="5.33306">
        <ele>280</ele>
        <time>2021-06-06T07:27:43.444Z</time>
      </trkpt>
      <trkpt lat="45.70386" lon="5.33311">
        <ele>281</ele>
        <time>2021-06-06T07:27:44.444Z</time>
      </trkpt>
      <trkpt lat="45.70389" lon="5.33316">
        <ele>281</ele>
        <time>2021-06-06T07:27:45.443Z</time>
      </trkpt>
      <trkpt lat="45.70392" lon="5.33321">
        <ele>281</ele>
        <time>2021-06-06T07:27:46.444Z</time>
      </trkpt>
      <trkpt lat="45.70396" lon="5.33325">
        <ele>281</ele>
        <time>2021-06-06T07:27:47.443Z</time>
      </trkpt>
      <trkpt lat="45.70399" lon="5.3333">
        <ele>282</ele>
        <time>2021-06-06T07:27:48.444Z</time>
      </trkpt>
      <trkpt lat="45.70402" lon="5.33335">
        <ele>282</ele>
        <time>2021-06-06T07:27:49.443Z</time>
      </trkpt>
      <trkpt lat="45.70405" lon="5.33339">
        <ele>282</ele>
        <time>2021-06-06T07:27:50.444Z</time>
      </trkpt>
      <trkpt lat="45.70407" lon="5.33344">
        <ele>282</ele>
        <time>2021-06-06T07:27:51.444Z</time>
      </trkpt>
      <trkpt lat="45.70409" lon="5.33349">
        <ele>282</ele>
        <time>2021-06-06T07:27:52.444Z</time>
      </trkpt>
      <trkpt lat="45.70411" lon="5.33354">
        <ele>282</ele>
        <time>2021-06-06T07:27:53.443Z</time>
      </trkpt>
      <trkpt lat="45.70414" lon="5.3336">
        <ele>282</ele>
        <time>2021-06-06T07:27:54.444Z</time>
      </trkpt>
      <trkpt lat="45.70416" lon="5.33366">
        <ele>282</ele>
        <time>2021-06-06T07:27:55.444Z</time>
      </trkpt>
      <trkpt lat="45.70419" lon="5.33372">
        <ele>282</ele>
        <time>2021-06-06T07:27:56.444Z</time>
      </trkpt>
      <trkpt lat="45.70422" lon="5.33379">
        <ele>282</ele>
        <time>2021-06-06T07:27:57.444Z</time>
      </trkpt>
      <trkpt lat="45.70424" lon="5.33387">
        <ele>282</ele>
        <time>2021-06-06T07:27:58.444Z</time>
      </trkpt>
      <trkpt lat="45.70427" lon="5.33394">
        <ele>282</ele>
        <time>2021-06-06T07:27:59.444Z</time>
      </trkpt>
      <trkpt lat="45.7043" lon="5.33402">
        <ele>282</ele>
        <time>2021-06-06T07:28:00.444Z</time>
      </trkpt>
      <trkpt lat="45.70433" lon="5.33411">
        <ele>282</ele>
        <time>2021-06-06T07:28:01.444Z</time>
      </trkpt>
      <trkpt lat="45.70436" lon="5.33419">
        <ele>282</ele>
        <time>2021-06-06T07:28:02.443Z</time>
      </trkpt>
      <trkpt lat="45.70438" lon="5.33427">
        <ele>282</ele>
        <time>2021-06-06T07:28:03.444Z</time>
      </trkpt>
      <trkpt lat="45.7044" lon="5.33436">
        <ele>282</ele>
        <time>2021-06-06T07:28:04.444Z</time>
      </trkpt>
      <trkpt lat="45.70443" lon="5.33445">
        <ele>282</ele>
        <time>2021-06-06T07:28:05.443Z</time>
      </trkpt>
      <trkpt lat="45.70445" lon="5.33455">
        <ele>282</ele>
        <time>2021-06-06T07:28:06.444Z</time>
      </trkpt>
      <trkpt lat="45.70447" lon="5.33465">
        <ele>282</ele>
        <time>2021-06-06T07:28:07.444Z</time>
      </trkpt>
      <trkpt lat="45.70449" lon="5.33475">
        <ele>282</ele>
        <time>2021-06-06T07:28:08.443Z</time>
      </trkpt>
      <trkpt lat="45.7045" lon="5.33486">
        <ele>282</ele>
        <time>2021-06-06T07:28:09.443Z</time>
      </trkpt>
      <trkpt lat="45.70452" lon="5.33497">
        <ele>282</ele>
        <time>2021-06-06T07:28:10.444Z</time>
      </trkpt>
      <trkpt lat="45.70453" lon="5.3351">
        <ele>283</ele>
        <time>2021-06-06T07:28:11.443Z</time>
      </trkpt>
      <trkpt lat="45.70455" lon="5.33522">
        <ele>283</ele>
        <time>2021-06-06T07:28:12.444Z</time>
      </trkpt>
      <trkpt lat="45.70458" lon="5.33535">
        <ele>282</ele>
        <time>2021-06-06T07:28:13.444Z</time>
      </trkpt>
      <trkpt lat="45.70461" lon="5.33547">
        <ele>282</ele>
        <time>2021-06-06T07:28:14.443Z</time>
      </trkpt>
      <trkpt lat="45.70466" lon="5.33558">
        <ele>282</ele>
        <time>2021-06-06T07:28:15.444Z</time>
      </trkpt>
      <trkpt lat="45.70471" lon="5.33568">
        <ele>282</ele>
        <time>2021-06-06T07:28:16.443Z</time>
      </trkpt>
      <trkpt lat="45.70477" lon="5.33577">
        <ele>281</ele>
        <time>2021-06-06T07:28:17.443Z</time>
      </trkpt>
      <trkpt lat="45.70485" lon="5.33584">
        <ele>281</ele>
        <time>2021-06-06T07:28:18.443Z</time>
      </trkpt>
      <trkpt lat="45.70493" lon="5.33592">
        <ele>281</ele>
        <time>2021-06-06T07:28:19.444Z</time>
      </trkpt>
      <trkpt lat="45.705" lon="5.33599">
        <ele>280</ele>
        <time>2021-06-06T07:28:20.444Z</time>
      </trkpt>
      <trkpt lat="45.70506" lon="5.33607">
        <ele>279</ele>
        <time>2021-06-06T07:28:21.444Z</time>
      </trkpt>
      <trkpt lat="45.70512" lon="5.33615">
        <ele>279</ele>
        <time>2021-06-06T07:28:22.444Z</time>
      </trkpt>
      <trkpt lat="45.70518" lon="5.33623">
        <ele>278</ele>
        <time>2021-06-06T07:28:23.444Z</time>
      </trkpt>
      <trkpt lat="45.70524" lon="5.3363">
        <ele>278</ele>
        <time>2021-06-06T07:28:24.444Z</time>
      </trkpt>
      <trkpt lat="45.7053" lon="5.33638">
        <ele>277</ele>
        <time>2021-06-06T07:28:25.444Z</time>
      </trkpt>
      <trkpt lat="45.70534" lon="5.33646">
        <ele>277</ele>
        <time>2021-06-06T07:28:26.444Z</time>
      </trkpt>
      <trkpt lat="45.7054" lon="5.33652">
        <ele>277</ele>
        <time>2021-06-06T07:28:27.444Z</time>
      </trkpt>
      <trkpt lat="45.70545" lon="5.33659">
        <ele>276</ele>
        <time>2021-06-06T07:28:28.443Z</time>
      </trkpt>
      <trkpt lat="45.7055" lon="5.33665">
        <ele>276</ele>
        <time>2021-06-06T07:28:29.443Z</time>
      </trkpt>
      <trkpt lat="45.70555" lon="5.3367">
        <ele>276</ele>
        <time>2021-06-06T07:28:30.443Z</time>
      </trkpt>
      <trkpt lat="45.70561" lon="5.33673">
        <ele>276</ele>
        <time>2021-06-06T07:28:31.443Z</time>
      </trkpt>
      <trkpt lat="45.70566" lon="5.33675">
        <ele>276</ele>
        <time>2021-06-06T07:28:32.444Z</time>
      </trkpt>
      <trkpt lat="45.70572" lon="5.33674">
        <ele>276</ele>
        <time>2021-06-06T07:28:33.444Z</time>
      </trkpt>
      <trkpt lat="45.70576" lon="5.33673">
        <ele>276</ele>
        <time>2021-06-06T07:28:34.443Z</time>
      </trkpt>
      <trkpt lat="45.70581" lon="5.33672">
        <ele>277</ele>
        <time>2021-06-06T07:28:35.444Z</time>
      </trkpt>
      <trkpt lat="45.70585" lon="5.3367">
        <ele>277</ele>
        <time>2021-06-06T07:28:36.444Z</time>
      </trkpt>
      <trkpt lat="45.70588" lon="5.33669">
        <ele>277</ele>
        <time>2021-06-06T07:28:37.444Z</time>
      </trkpt>
      <trkpt lat="45.70592" lon="5.33668">
        <ele>278</ele>
        <time>2021-06-06T07:28:38.444Z</time>
      </trkpt>
      <trkpt lat="45.70596" lon="5.33668">
        <ele>278</ele>
        <time>2021-06-06T07:28:39.444Z</time>
      </trkpt>
      <trkpt lat="45.70601" lon="5.33668">
        <ele>279</ele>
        <time>2021-06-06T07:28:40.443Z</time>
      </trkpt>
      <trkpt lat="45.70606" lon="5.33669">
        <ele>279</ele>
        <time>2021-06-06T07:28:41.444Z</time>
      </trkpt>
      <trkpt lat="45.7061" lon="5.3367">
        <ele>279</ele>
        <time>2021-06-06T07:28:42.444Z</time>
      </trkpt>
      <trkpt lat="45.70613" lon="5.33672">
        <ele>280</ele>
        <time>2021-06-06T07:28:43.443Z</time>
      </trkpt>
      <trkpt lat="45.70617" lon="5.33674">
        <ele>281</ele>
        <time>2021-06-06T07:28:44.444Z</time>
      </trkpt>
      <trkpt lat="45.70621" lon="5.33677">
        <ele>281</ele>
        <time>2021-06-06T07:28:45.444Z</time>
      </trkpt>
      <trkpt lat="45.70625" lon="5.33679">
        <ele>282</ele>
        <time>2021-06-06T07:28:46.444Z</time>
      </trkpt>
      <trkpt lat="45.70628" lon="5.33682">
        <ele>283</ele>
        <time>2021-06-06T07:28:47.443Z</time>
      </trkpt>
      <trkpt lat="45.70632" lon="5.33685">
        <ele>283</ele>
        <time>2021-06-06T07:28:48.444Z</time>
      </trkpt>
      <trkpt lat="45.70636" lon="5.33688">
        <ele>284</ele>
        <time>2021-06-06T07:28:49.444Z</time>
      </trkpt>
      <trkpt lat="45.7064" lon="5.33692">
        <ele>284</ele>
        <time>2021-06-06T07:28:50.444Z</time>
      </trkpt>
      <trkpt lat="45.70643" lon="5.33696">
        <ele>284</ele>
        <time>2021-06-06T07:28:51.443Z</time>
      </trkpt>
      <trkpt lat="45.70647" lon="5.337">
        <ele>285</ele>
        <time>2021-06-06T07:28:52.444Z</time>
      </trkpt>
      <trkpt lat="45.70651" lon="5.33704">
        <ele>285</ele>
        <time>2021-06-06T07:28:53.444Z</time>
      </trkpt>
      <trkpt lat="45.70654" lon="5.33708">
        <ele>285</ele>
        <time>2021-06-06T07:28:54.444Z</time>
      </trkpt>
      <trkpt lat="45.70658" lon="5.33712">
        <ele>286</ele>
        <time>2021-06-06T07:28:55.444Z</time>
      </trkpt>
      <trkpt lat="45.70662" lon="5.33716">
        <ele>286</ele>
        <time>2021-06-06T07:28:56.444Z</time>
      </trkpt>
      <trkpt lat="45.70666" lon="5.33719">
        <ele>286</ele>
        <time>2021-06-06T07:28:57.443Z</time>
      </trkpt>
      <trkpt lat="45.7067" lon="5.33723">
        <ele>287</ele>
        <time>2021-06-06T07:28:58.443Z</time>
      </trkpt>
      <trkpt lat="45.70674" lon="5.33725">
        <ele>287</ele>
        <time>2021-06-06T07:28:59.443Z</time>
      </trkpt>
      <trkpt lat="45.70678" lon="5.33728">
        <ele>287</ele>
        <time>2021-06-06T07:29:00.444Z</time>
      </trkpt>
      <trkpt lat="45.70682" lon="5.3373">
        <ele>287</ele>
        <time>2021-06-06T07:29:01.444Z</time>
      </trkpt>
      <trkpt lat="45.70687" lon="5.33733">
        <ele>287</ele>
        <time>2021-06-06T07:29:02.444Z</time>
      </trkpt>
      <trkpt lat="45.70691" lon="5.33734">
        <ele>287</ele>
        <time>2021-06-06T07:29:03.444Z</time>
      </trkpt>
      <trkpt lat="45.70696" lon="5.33736">
        <ele>288</ele>
        <time>2021-06-06T07:29:04.444Z</time>
      </trkpt>
      <trkpt lat="45.707" lon="5.33737">
        <ele>288</ele>
        <time>2021-06-06T07:29:05.444Z</time>
      </trkpt>
      <trkpt lat="45.70704" lon="5.33738">
        <ele>288</ele>
        <time>2021-06-06T07:29:06.443Z</time>
      </trkpt>
      <trkpt lat="45.70707" lon="5.33738">
        <ele>289</ele>
        <time>2021-06-06T07:29:07.444Z</time>
      </trkpt>
      <trkpt lat="45.7071" lon="5.33739">
        <ele>289</ele>
        <time>2021-06-06T07:29:08.444Z</time>
      </trkpt>
      <trkpt lat="45.70714" lon="5.33739">
        <ele>290</ele>
        <time>2021-06-06T07:29:09.444Z</time>
      </trkpt>
      <trkpt lat="45.70718" lon="5.33739">
        <ele>290</ele>
        <time>2021-06-06T07:29:10.444Z</time>
      </trkpt>
      <trkpt lat="45.70722" lon="5.33739">
        <ele>290</ele>
        <time>2021-06-06T07:29:11.444Z</time>
      </trkpt>
      <trkpt lat="45.70725" lon="5.33738">
        <ele>290</ele>
        <time>2021-06-06T07:29:12.444Z</time>
      </trkpt>
      <trkpt lat="45.70729" lon="5.33737">
        <ele>291</ele>
        <time>2021-06-06T07:29:13.444Z</time>
      </trkpt>
      <trkpt lat="45.70733" lon="5.33737">
        <ele>291</ele>
        <time>2021-06-06T07:29:14.444Z</time>
      </trkpt>
      <trkpt lat="45.70737" lon="5.33736">
        <ele>291</ele>
        <time>2021-06-06T07:29:15.444Z</time>
      </trkpt>
      <trkpt lat="45.70741" lon="5.33736">
        <ele>292</ele>
        <time>2021-06-06T07:29:16.444Z</time>
      </trkpt>
      <trkpt lat="45.70746" lon="5.33736">
        <ele>292</ele>
        <time>2021-06-06T07:29:17.443Z</time>
      </trkpt>
      <trkpt lat="45.7075" lon="5.33737">
        <ele>292</ele>
        <time>2021-06-06T07:29:18.444Z</time>
      </trkpt>
      <trkpt lat="45.70755" lon="5.33738">
        <ele>293</ele>
        <time>2021-06-06T07:29:19.444Z</time>
      </trkpt>
      <trkpt lat="45.70759" lon="5.3374">
        <ele>293</ele>
        <time>2021-06-06T07:29:20.444Z</time>
      </trkpt>
      <trkpt lat="45.70764" lon="5.33742">
        <ele>293</ele>
        <time>2021-06-06T07:29:21.443Z</time>
      </trkpt>
      <trkpt lat="45.70769" lon="5.33745">
        <ele>293</ele>
        <time>2021-06-06T07:29:22.444Z</time>
      </trkpt>
      <trkpt lat="45.70773" lon="5.33748">
        <ele>294</ele>
        <time>2021-06-06T07:29:23.444Z</time>
      </trkpt>
      <trkpt lat="45.70777" lon="5.33753">
        <ele>294</ele>
        <time>2021-06-06T07:29:24.444Z</time>
      </trkpt>
      <trkpt lat="45.70781" lon="5.33757">
        <ele>294</ele>
        <time>2021-06-06T07:29:25.443Z</time>
      </trkpt>
      <trkpt lat="45.70786" lon="5.33761">
        <ele>294</ele>
        <time>2021-06-06T07:29:26.444Z</time>
      </trkpt>
      <trkpt lat="45.7079" lon="5.33765">
        <ele>293</ele>
        <time>2021-06-06T07:29:27.444Z</time>
      </trkpt>
      <trkpt lat="45.70794" lon="5.33769">
        <ele>293</ele>
        <time>2021-06-06T07:29:28.444Z</time>
      </trkpt>
      <trkpt lat="45.70799" lon="5.33772">
        <ele>294</ele>
        <time>2021-06-06T07:29:29.444Z</time>
      </trkpt>
      <trkpt lat="45.70804" lon="5.33774">
        <ele>294</ele>
        <time>2021-06-06T07:29:30.444Z</time>
      </trkpt>
      <trkpt lat="45.70808" lon="5.33777">
        <ele>295</ele>
        <time>2021-06-06T07:29:31.443Z</time>
      </trkpt>
      <trkpt lat="45.70813" lon="5.3378">
        <ele>296</ele>
        <time>2021-06-06T07:29:32.443Z</time>
      </trkpt>
      <trkpt lat="45.70818" lon="5.33783">
        <ele>297</ele>
        <time>2021-06-06T07:29:33.444Z</time>
      </trkpt>
      <trkpt lat="45.70823" lon="5.33786">
        <ele>297</ele>
        <time>2021-06-06T07:29:34.444Z</time>
      </trkpt>
      <trkpt lat="45.70828" lon="5.33789">
        <ele>298</ele>
        <time>2021-06-06T07:29:35.444Z</time>
      </trkpt>
      <trkpt lat="45.70833" lon="5.33792">
        <ele>298</ele>
        <time>2021-06-06T07:29:36.444Z</time>
      </trkpt>
      <trkpt lat="45.70837" lon="5.33795">
        <ele>297</ele>
        <time>2021-06-06T07:29:37.444Z</time>
      </trkpt>
      <trkpt lat="45.70841" lon="5.33798">
        <ele>297</ele>
        <time>2021-06-06T07:29:38.443Z</time>
      </trkpt>
      <trkpt lat="45.70846" lon="5.33801">
        <ele>297</ele>
        <time>2021-06-06T07:29:39.444Z</time>
      </trkpt>
      <trkpt lat="45.70852" lon="5.33804">
        <ele>297</ele>
        <time>2021-06-06T07:29:40.444Z</time>
      </trkpt>
      <trkpt lat="45.70857" lon="5.33807">
        <ele>297</ele>
        <time>2021-06-06T07:29:41.444Z</time>
      </trkpt>
      <trkpt lat="45.70862" lon="5.3381">
        <ele>297</ele>
        <time>2021-06-06T07:29:42.444Z</time>
      </trkpt>
      <trkpt lat="45.70868" lon="5.33813">
        <ele>296</ele>
        <time>2021-06-06T07:29:43.444Z</time>
      </trkpt>
      <trkpt lat="45.70873" lon="5.33817">
        <ele>296</ele>
        <time>2021-06-06T07:29:44.444Z</time>
      </trkpt>
      <trkpt lat="45.70878" lon="5.3382">
        <ele>297</ele>
        <time>2021-06-06T07:29:45.443Z</time>
      </trkpt>
      <trkpt lat="45.70883" lon="5.33823">
        <ele>297</ele>
        <time>2021-06-06T07:29:46.444Z</time>
      </trkpt>
      <trkpt lat="45.70888" lon="5.33827">
        <ele>298</ele>
        <time>2021-06-06T07:29:47.443Z</time>
      </trkpt>
      <trkpt lat="45.70893" lon="5.33831">
        <ele>298</ele>
        <time>2021-06-06T07:29:48.444Z</time>
      </trkpt>
      <trkpt lat="45.70897" lon="5.33836">
        <ele>299</ele>
        <time>2021-06-06T07:29:49.444Z</time>
      </trkpt>
      <trkpt lat="45.70902" lon="5.3384">
        <ele>299</ele>
        <time>2021-06-06T07:29:50.444Z</time>
      </trkpt>
      <trkpt lat="45.70906" lon="5.33845">
        <ele>299</ele>
        <time>2021-06-06T07:29:51.443Z</time>
      </trkpt>
      <trkpt lat="45.70911" lon="5.33849">
        <ele>299</ele>
        <time>2021-06-06T07:29:52.444Z</time>
      </trkpt>
      <trkpt lat="45.70916" lon="5.33854">
        <ele>299</ele>
        <time>2021-06-06T07:29:53.444Z</time>
      </trkpt>
      <trkpt lat="45.7092" lon="5.33858">
        <ele>299</ele>
        <time>2021-06-06T07:29:54.443Z</time>
      </trkpt>
      <trkpt lat="45.70924" lon="5.33863">
        <ele>299</ele>
        <time>2021-06-06T07:29:55.444Z</time>
      </trkpt>
      <trkpt lat="45.70928" lon="5.33868">
        <ele>299</ele>
        <time>2021-06-06T07:29:56.444Z</time>
      </trkpt>
      <trkpt lat="45.70931" lon="5.33872">
        <ele>299</ele>
        <time>2021-06-06T07:29:57.444Z</time>
      </trkpt>
      <trkpt lat="45.70935" lon="5.33875">
        <ele>299</ele>
        <time>2021-06-06T07:29:58.444Z</time>
      </trkpt>
      <trkpt lat="45.70938" lon="5.33879">
        <ele>299</ele>
        <time>2021-06-06T07:29:59.444Z</time>
      </trkpt>
      <trkpt lat="45.70942" lon="5.33882">
        <ele>299</ele>
        <time>2021-06-06T07:30:00.444Z</time>
      </trkpt>
      <trkpt lat="45.70946" lon="5.33885">
        <ele>299</ele>
        <time>2021-06-06T07:30:01.444Z</time>
      </trkpt>
      <trkpt lat="45.7095" lon="5.33888">
        <ele>300</ele>
        <time>2021-06-06T07:30:02.443Z</time>
      </trkpt>
      <trkpt lat="45.70954" lon="5.33891">
        <ele>300</ele>
        <time>2021-06-06T07:30:03.444Z</time>
      </trkpt>
      <trkpt lat="45.70958" lon="5.33895">
        <ele>301</ele>
        <time>2021-06-06T07:30:04.444Z</time>
      </trkpt>
      <trkpt lat="45.70961" lon="5.33898">
        <ele>301</ele>
        <time>2021-06-06T07:30:05.443Z</time>
      </trkpt>
      <trkpt lat="45.70965" lon="5.33902">
        <ele>301</ele>
        <time>2021-06-06T07:30:06.444Z</time>
      </trkpt>
      <trkpt lat="45.70969" lon="5.33905">
        <ele>301</ele>
        <time>2021-06-06T07:30:07.444Z</time>
      </trkpt>
      <trkpt lat="45.70974" lon="5.33908">
        <ele>301</ele>
        <time>2021-06-06T07:30:08.444Z</time>
      </trkpt>
      <trkpt lat="45.70979" lon="5.33911">
        <ele>300</ele>
        <time>2021-06-06T07:30:09.444Z</time>
      </trkpt>
      <trkpt lat="45.70984" lon="5.33913">
        <ele>300</ele>
        <time>2021-06-06T07:30:10.444Z</time>
      </trkpt>
      <trkpt lat="45.70988" lon="5.33915">
        <ele>300</ele>
        <time>2021-06-06T07:30:11.443Z</time>
      </trkpt>
      <trkpt lat="45.70993" lon="5.33917">
        <ele>300</ele>
        <time>2021-06-06T07:30:12.444Z</time>
      </trkpt>
      <trkpt lat="45.70998" lon="5.33919">
        <ele>300</ele>
        <time>2021-06-06T07:30:13.444Z</time>
      </trkpt>
      <trkpt lat="45.71003" lon="5.3392">
        <ele>300</ele>
        <time>2021-06-06T07:30:14.443Z</time>
      </trkpt>
      <trkpt lat="45.71008" lon="5.33922">
        <ele>300</ele>
        <time>2021-06-06T07:30:15.444Z</time>
      </trkpt>
      <trkpt lat="45.71013" lon="5.33923">
        <ele>300</ele>
        <time>2021-06-06T07:30:16.444Z</time>
      </trkpt>
      <trkpt lat="45.71018" lon="5.33924">
        <ele>301</ele>
        <time>2021-06-06T07:30:17.444Z</time>
      </trkpt>
      <trkpt lat="45.71023" lon="5.33925">
        <ele>301</ele>
        <time>2021-06-06T07:30:18.443Z</time>
      </trkpt>
      <trkpt lat="45.71029" lon="5.33926">
        <ele>301</ele>
        <time>2021-06-06T07:30:19.444Z</time>
      </trkpt>
      <trkpt lat="45.71033" lon="5.33927">
        <ele>301</ele>
        <time>2021-06-06T07:30:20.444Z</time>
      </trkpt>
      <trkpt lat="45.71038" lon="5.33928">
        <ele>301</ele>
        <time>2021-06-06T07:30:21.444Z</time>
      </trkpt>
      <trkpt lat="45.71044" lon="5.33929">
        <ele>301</ele>
        <time>2021-06-06T07:30:22.443Z</time>
      </trkpt>
      <trkpt lat="45.71049" lon="5.3393">
        <ele>301</ele>
        <time>2021-06-06T07:30:23.443Z</time>
      </trkpt>
      <trkpt lat="45.71054" lon="5.33932">
        <ele>301</ele>
        <time>2021-06-06T07:30:24.444Z</time>
      </trkpt>
      <trkpt lat="45.71059" lon="5.33934">
        <ele>301</ele>
        <time>2021-06-06T07:30:25.444Z</time>
      </trkpt>
      <trkpt lat="45.71064" lon="5.33938">
        <ele>301</ele>
        <time>2021-06-06T07:30:26.444Z</time>
      </trkpt>
      <trkpt lat="45.71068" lon="5.33943">
        <ele>301</ele>
        <time>2021-06-06T07:30:27.443Z</time>
      </trkpt>
      <trkpt lat="45.71072" lon="5.33949">
        <ele>301</ele>
        <time>2021-06-06T07:30:28.444Z</time>
      </trkpt>
      <trkpt lat="45.71076" lon="5.33958">
        <ele>301</ele>
        <time>2021-06-06T07:30:29.444Z</time>
      </trkpt>
      <trkpt lat="45.71077" lon="5.33965">
        <ele>301</ele>
        <time>2021-06-06T07:30:30.444Z</time>
      </trkpt>
      <trkpt lat="45.71078" lon="5.33974">
        <ele>301</ele>
        <time>2021-06-06T07:30:31.443Z</time>
      </trkpt>
      <trkpt lat="45.7108" lon="5.33982">
        <ele>301</ele>
        <time>2021-06-06T07:30:32.444Z</time>
      </trkpt>
      <trkpt lat="45.71081" lon="5.3399">
        <ele>301</ele>
        <time>2021-06-06T07:30:33.444Z</time>
      </trkpt>
      <trkpt lat="45.71082" lon="5.33998">
        <ele>301</ele>
        <time>2021-06-06T07:30:34.443Z</time>
      </trkpt>
      <trkpt lat="45.71084" lon="5.34005">
        <ele>301</ele>
        <time>2021-06-06T07:30:35.444Z</time>
      </trkpt>
      <trkpt lat="45.71085" lon="5.34013">
        <ele>301</ele>
        <time>2021-06-06T07:30:36.444Z</time>
      </trkpt>
      <trkpt lat="45.71087" lon="5.3402">
        <ele>301</ele>
        <time>2021-06-06T07:30:37.444Z</time>
      </trkpt>
      <trkpt lat="45.71089" lon="5.34028">
        <ele>301</ele>
        <time>2021-06-06T07:30:38.444Z</time>
      </trkpt>
      <trkpt lat="45.7109" lon="5.34036">
        <ele>301</ele>
        <time>2021-06-06T07:30:39.444Z</time>
      </trkpt>
      <trkpt lat="45.71091" lon="5.34043">
        <ele>301</ele>
        <time>2021-06-06T07:30:40.444Z</time>
      </trkpt>
      <trkpt lat="45.71091" lon="5.34051">
        <ele>300</ele>
        <time>2021-06-06T07:30:41.443Z</time>
      </trkpt>
      <trkpt lat="45.71091" lon="5.34059">
        <ele>300</ele>
        <time>2021-06-06T07:30:42.443Z</time>
      </trkpt>
      <trkpt lat="45.71091" lon="5.34067">
        <ele>300</ele>
        <time>2021-06-06T07:30:43.443Z</time>
      </trkpt>
      <trkpt lat="45.71091" lon="5.34076">
        <ele>301</ele>
        <time>2021-06-06T07:30:44.444Z</time>
      </trkpt>
      <trkpt lat="45.71091" lon="5.34085">
        <ele>301</ele>
        <time>2021-06-06T07:30:45.444Z</time>
      </trkpt>
      <trkpt lat="45.71091" lon="5.34093">
        <ele>301</ele>
        <time>2021-06-06T07:30:46.443Z</time>
      </trkpt>
      <trkpt lat="45.71091" lon="5.34102">
        <ele>301</ele>
        <time>2021-06-06T07:30:47.444Z</time>
      </trkpt>
      <trkpt lat="45.71091" lon="5.3411">
        <ele>301</ele>
        <time>2021-06-06T07:30:48.443Z</time>
      </trkpt>
      <trkpt lat="45.71091" lon="5.34119">
        <ele>301</ele>
        <time>2021-06-06T07:30:49.444Z</time>
      </trkpt>
      <trkpt lat="45.71091" lon="5.34129">
        <ele>302</ele>
        <time>2021-06-06T07:30:50.443Z</time>
      </trkpt>
      <trkpt lat="45.71091" lon="5.34138">
        <ele>302</ele>
        <time>2021-06-06T07:30:51.444Z</time>
      </trkpt>
      <trkpt lat="45.71091" lon="5.34146">
        <ele>302</ele>
        <time>2021-06-06T07:30:52.443Z</time>
      </trkpt>
      <trkpt lat="45.71092" lon="5.34154">
        <ele>302</ele>
        <time>2021-06-06T07:30:53.444Z</time>
      </trkpt>
      <trkpt lat="45.71093" lon="5.34162">
        <ele>303</ele>
        <time>2021-06-06T07:30:54.444Z</time>
      </trkpt>
      <trkpt lat="45.71095" lon="5.34169">
        <ele>303</ele>
        <time>2021-06-06T07:30:55.444Z</time>
      </trkpt>
      <trkpt lat="45.71097" lon="5.34175">
        <ele>303</ele>
        <time>2021-06-06T07:30:56.444Z</time>
      </trkpt>
      <trkpt lat="45.71098" lon="5.34182">
        <ele>303</ele>
        <time>2021-06-06T07:30:57.444Z</time>
      </trkpt>
      <trkpt lat="45.71101" lon="5.34188">
        <ele>303</ele>
        <time>2021-06-06T07:30:58.444Z</time>
      </trkpt>
      <trkpt lat="45.71102" lon="5.34194">
        <ele>302</ele>
        <time>2021-06-06T07:30:59.444Z</time>
      </trkpt>
      <trkpt lat="45.71104" lon="5.34199">
        <ele>302</ele>
        <time>2021-06-06T07:31:00.444Z</time>
      </trkpt>
      <trkpt lat="45.71106" lon="5.34205">
        <ele>302</ele>
        <time>2021-06-06T07:31:01.444Z</time>
      </trkpt>
      <trkpt lat="45.71108" lon="5.3421">
        <ele>302</ele>
        <time>2021-06-06T07:31:02.443Z</time>
      </trkpt>
      <trkpt lat="45.71109" lon="5.34216">
        <ele>302</ele>
        <time>2021-06-06T07:31:03.444Z</time>
      </trkpt>
      <trkpt lat="45.7111" lon="5.34222">
        <ele>302</ele>
        <time>2021-06-06T07:31:04.444Z</time>
      </trkpt>
      <trkpt lat="45.71111" lon="5.34228">
        <ele>302</ele>
        <time>2021-06-06T07:31:05.444Z</time>
      </trkpt>
      <trkpt lat="45.71112" lon="5.34234">
        <ele>302</ele>
        <time>2021-06-06T07:31:06.444Z</time>
      </trkpt>
      <trkpt lat="45.71112" lon="5.34242">
        <ele>302</ele>
        <time>2021-06-06T07:31:07.443Z</time>
      </trkpt>
      <trkpt lat="45.71113" lon="5.34249">
        <ele>302</ele>
        <time>2021-06-06T07:31:08.444Z</time>
      </trkpt>
      <trkpt lat="45.71113" lon="5.34256">
        <ele>302</ele>
        <time>2021-06-06T07:31:09.444Z</time>
      </trkpt>
      <trkpt lat="45.71113" lon="5.34263">
        <ele>302</ele>
        <time>2021-06-06T07:31:10.443Z</time>
      </trkpt>
      <trkpt lat="45.71113" lon="5.34271">
        <ele>302</ele>
        <time>2021-06-06T07:31:11.444Z</time>
      </trkpt>
      <trkpt lat="45.71112" lon="5.34278">
        <ele>303</ele>
        <time>2021-06-06T07:31:12.443Z</time>
      </trkpt>
      <trkpt lat="45.71112" lon="5.34285">
        <ele>303</ele>
        <time>2021-06-06T07:31:13.444Z</time>
      </trkpt>
      <trkpt lat="45.71112" lon="5.34292">
        <ele>303</ele>
        <time>2021-06-06T07:31:14.443Z</time>
      </trkpt>
      <trkpt lat="45.71112" lon="5.34299">
        <ele>303</ele>
        <time>2021-06-06T07:31:15.443Z</time>
      </trkpt>
      <trkpt lat="45.71112" lon="5.34307">
        <ele>303</ele>
        <time>2021-06-06T07:31:16.443Z</time>
      </trkpt>
      <trkpt lat="45.71111" lon="5.34314">
        <ele>304</ele>
        <time>2021-06-06T07:31:17.444Z</time>
      </trkpt>
      <trkpt lat="45.71111" lon="5.34322">
        <ele>304</ele>
        <time>2021-06-06T07:31:18.443Z</time>
      </trkpt>
      <trkpt lat="45.7111" lon="5.34329">
        <ele>304</ele>
        <time>2021-06-06T07:31:19.443Z</time>
      </trkpt>
      <trkpt lat="45.7111" lon="5.34337">
        <ele>304</ele>
        <time>2021-06-06T07:31:20.443Z</time>
      </trkpt>
      <trkpt lat="45.71109" lon="5.34344">
        <ele>305</ele>
        <time>2021-06-06T07:31:21.443Z</time>
      </trkpt>
      <trkpt lat="45.71108" lon="5.34351">
        <ele>305</ele>
        <time>2021-06-06T07:31:22.444Z</time>
      </trkpt>
      <trkpt lat="45.71107" lon="5.34358">
        <ele>305</ele>
        <time>2021-06-06T07:31:23.444Z</time>
      </trkpt>
      <trkpt lat="45.71105" lon="5.34365">
        <ele>305</ele>
        <time>2021-06-06T07:31:24.443Z</time>
      </trkpt>
      <trkpt lat="45.71104" lon="5.34371">
        <ele>306</ele>
        <time>2021-06-06T07:31:25.444Z</time>
      </trkpt>
      <trkpt lat="45.71103" lon="5.34378">
        <ele>306</ele>
        <time>2021-06-06T07:31:26.444Z</time>
      </trkpt>
      <trkpt lat="45.71101" lon="5.34384">
        <ele>306</ele>
        <time>2021-06-06T07:31:27.444Z</time>
      </trkpt>
      <trkpt lat="45.711" lon="5.3439">
        <ele>306</ele>
        <time>2021-06-06T07:31:28.444Z</time>
      </trkpt>
      <trkpt lat="45.71098" lon="5.34396">
        <ele>306</ele>
        <time>2021-06-06T07:31:29.443Z</time>
      </trkpt>
      <trkpt lat="45.71097" lon="5.34402">
        <ele>306</ele>
        <time>2021-06-06T07:31:30.444Z</time>
      </trkpt>
      <trkpt lat="45.71095" lon="5.34408">
        <ele>306</ele>
        <time>2021-06-06T07:31:31.444Z</time>
      </trkpt>
      <trkpt lat="45.71094" lon="5.34414">
        <ele>306</ele>
        <time>2021-06-06T07:31:32.444Z</time>
      </trkpt>
      <trkpt lat="45.71092" lon="5.34421">
        <ele>306</ele>
        <time>2021-06-06T07:31:33.444Z</time>
      </trkpt>
      <trkpt lat="45.71091" lon="5.34427">
        <ele>306</ele>
        <time>2021-06-06T07:31:34.443Z</time>
      </trkpt>
      <trkpt lat="45.71089" lon="5.34433">
        <ele>306</ele>
        <time>2021-06-06T07:31:35.443Z</time>
      </trkpt>
      <trkpt lat="45.71088" lon="5.34439">
        <ele>306</ele>
        <time>2021-06-06T07:31:36.444Z</time>
      </trkpt>
      <trkpt lat="45.71086" lon="5.34445">
        <ele>306</ele>
        <time>2021-06-06T07:31:37.444Z</time>
      </trkpt>
      <trkpt lat="45.71085" lon="5.34451">
        <ele>306</ele>
        <time>2021-06-06T07:31:38.443Z</time>
      </trkpt>
      <trkpt lat="45.71083" lon="5.34457">
        <ele>306</ele>
        <time>2021-06-06T07:31:39.444Z</time>
      </trkpt>
      <trkpt lat="45.71082" lon="5.34464">
        <ele>306</ele>
        <time>2021-06-06T07:31:40.443Z</time>
      </trkpt>
      <trkpt lat="45.7108" lon="5.3447">
        <ele>306</ele>
        <time>2021-06-06T07:31:41.443Z</time>
      </trkpt>
      <trkpt lat="45.71079" lon="5.34476">
        <ele>306</ele>
        <time>2021-06-06T07:31:42.444Z</time>
      </trkpt>
      <trkpt lat="45.71077" lon="5.34482">
        <ele>307</ele>
        <time>2021-06-06T07:31:43.443Z</time>
      </trkpt>
      <trkpt lat="45.71076" lon="5.34489">
        <ele>307</ele>
        <time>2021-06-06T07:31:44.443Z</time>
      </trkpt>
      <trkpt lat="45.71074" lon="5.34495">
        <ele>307</ele>
        <time>2021-06-06T07:31:45.443Z</time>
      </trkpt>
      <trkpt lat="45.71073" lon="5.34502">
        <ele>307</ele>
        <time>2021-06-06T07:31:46.444Z</time>
      </trkpt>
      <trkpt lat="45.71072" lon="5.34508">
        <ele>307</ele>
        <time>2021-06-06T07:31:47.444Z</time>
      </trkpt>
      <trkpt lat="45.71071" lon="5.34515">
        <ele>307</ele>
        <time>2021-06-06T07:31:48.444Z</time>
      </trkpt>
      <trkpt lat="45.7107" lon="5.34522">
        <ele>306</ele>
        <time>2021-06-06T07:31:49.444Z</time>
      </trkpt>
      <trkpt lat="45.71069" lon="5.34529">
        <ele>306</ele>
        <time>2021-06-06T07:31:50.443Z</time>
      </trkpt>
      <trkpt lat="45.71069" lon="5.34536">
        <ele>305</ele>
        <time>2021-06-06T07:31:51.443Z</time>
      </trkpt>
      <trkpt lat="45.71068" lon="5.34543">
        <ele>306</ele>
        <time>2021-06-06T07:31:52.444Z</time>
      </trkpt>
      <trkpt lat="45.71068" lon="5.34551">
        <ele>306</ele>
        <time>2021-06-06T07:31:53.443Z</time>
      </trkpt>
      <trkpt lat="45.71068" lon="5.34558">
        <ele>306</ele>
        <time>2021-06-06T07:31:54.444Z</time>
      </trkpt>
      <trkpt lat="45.71068" lon="5.34565">
        <ele>306</ele>
        <time>2021-06-06T07:31:55.444Z</time>
      </trkpt>
      <trkpt lat="45.71068" lon="5.34572">
        <ele>305</ele>
        <time>2021-06-06T07:31:56.444Z</time>
      </trkpt>
      <trkpt lat="45.71068" lon="5.34579">
        <ele>305</ele>
        <time>2021-06-06T07:31:57.444Z</time>
      </trkpt>
      <trkpt lat="45.71068" lon="5.34587">
        <ele>305</ele>
        <time>2021-06-06T07:31:58.444Z</time>
      </trkpt>
      <trkpt lat="45.71068" lon="5.34594">
        <ele>305</ele>
        <time>2021-06-06T07:31:59.444Z</time>
      </trkpt>
      <trkpt lat="45.71068" lon="5.34602">
        <ele>305</ele>
        <time>2021-06-06T07:32:00.444Z</time>
      </trkpt>
      <trkpt lat="45.71068" lon="5.34609">
        <ele>305</ele>
        <time>2021-06-06T07:32:01.444Z</time>
      </trkpt>
      <trkpt lat="45.71068" lon="5.34617">
        <ele>305</ele>
        <time>2021-06-06T07:32:02.443Z</time>
      </trkpt>
      <trkpt lat="45.71068" lon="5.34625">
        <ele>305</ele>
        <time>2021-06-06T07:32:03.444Z</time>
      </trkpt>
      <trkpt lat="45.71067" lon="5.34632">
        <ele>305</ele>
        <time>2021-06-06T07:32:04.443Z</time>
      </trkpt>
      <trkpt lat="45.71066" lon="5.3464">
        <ele>306</ele>
        <time>2021-06-06T07:32:05.443Z</time>
      </trkpt>
      <trkpt lat="45.71065" lon="5.34648">
        <ele>306</ele>
        <time>2021-06-06T07:32:06.443Z</time>
      </trkpt>
      <trkpt lat="45.71064" lon="5.34655">
        <ele>307</ele>
        <time>2021-06-06T07:32:07.444Z</time>
      </trkpt>
      <trkpt lat="45.71062" lon="5.34662">
        <ele>307</ele>
        <time>2021-06-06T07:32:08.443Z</time>
      </trkpt>
      <trkpt lat="45.71061" lon="5.3467">
        <ele>307</ele>
        <time>2021-06-06T07:32:09.444Z</time>
      </trkpt>
      <trkpt lat="45.71059" lon="5.34677">
        <ele>308</ele>
        <time>2021-06-06T07:32:10.444Z</time>
      </trkpt>
      <trkpt lat="45.71057" lon="5.34684">
        <ele>308</ele>
        <time>2021-06-06T07:32:11.444Z</time>
      </trkpt>
      <trkpt lat="45.71055" lon="5.34691">
        <ele>308</ele>
        <time>2021-06-06T07:32:12.444Z</time>
      </trkpt>
      <trkpt lat="45.71053" lon="5.34699">
        <ele>308</ele>
        <time>2021-06-06T07:32:13.444Z</time>
      </trkpt>
      <trkpt lat="45.71051" lon="5.34706">
        <ele>308</ele>
        <time>2021-06-06T07:32:14.443Z</time>
      </trkpt>
      <trkpt lat="45.71049" lon="5.34713">
        <ele>307</ele>
        <time>2021-06-06T07:32:15.444Z</time>
      </trkpt>
      <trkpt lat="45.71047" lon="5.3472">
        <ele>308</ele>
        <time>2021-06-06T07:32:16.444Z</time>
      </trkpt>
      <trkpt lat="45.71046" lon="5.34727">
        <ele>308</ele>
        <time>2021-06-06T07:32:17.444Z</time>
      </trkpt>
      <trkpt lat="45.71044" lon="5.34734">
        <ele>308</ele>
        <time>2021-06-06T07:32:18.444Z</time>
      </trkpt>
      <trkpt lat="45.71042" lon="5.34741">
        <ele>308</ele>
        <time>2021-06-06T07:32:19.444Z</time>
      </trkpt>
      <trkpt lat="45.71041" lon="5.34748">
        <ele>308</ele>
        <time>2021-06-06T07:32:20.444Z</time>
      </trkpt>
      <trkpt lat="45.71039" lon="5.34755">
        <ele>308</ele>
        <time>2021-06-06T07:32:21.443Z</time>
      </trkpt>
      <trkpt lat="45.71038" lon="5.34762">
        <ele>308</ele>
        <time>2021-06-06T07:32:22.443Z</time>
      </trkpt>
      <trkpt lat="45.71036" lon="5.34769">
        <ele>308</ele>
        <time>2021-06-06T07:32:23.444Z</time>
      </trkpt>
      <trkpt lat="45.71035" lon="5.34777">
        <ele>308</ele>
        <time>2021-06-06T07:32:24.444Z</time>
      </trkpt>
      <trkpt lat="45.71033" lon="5.34784">
        <ele>309</ele>
        <time>2021-06-06T07:32:25.443Z</time>
      </trkpt>
      <trkpt lat="45.71032" lon="5.34792">
        <ele>309</ele>
        <time>2021-06-06T07:32:26.443Z</time>
      </trkpt>
      <trkpt lat="45.71032" lon="5.34799">
        <ele>309</ele>
        <time>2021-06-06T07:32:27.443Z</time>
      </trkpt>
      <trkpt lat="45.71032" lon="5.34807">
        <ele>309</ele>
        <time>2021-06-06T07:32:28.444Z</time>
      </trkpt>
      <trkpt lat="45.71031" lon="5.34814">
        <ele>309</ele>
        <time>2021-06-06T07:32:29.444Z</time>
      </trkpt>
      <trkpt lat="45.7103" lon="5.34822">
        <ele>309</ele>
        <time>2021-06-06T07:32:30.444Z</time>
      </trkpt>
      <trkpt lat="45.71029" lon="5.3483">
        <ele>309</ele>
        <time>2021-06-06T07:32:31.443Z</time>
      </trkpt>
      <trkpt lat="45.71029" lon="5.34837">
        <ele>309</ele>
        <time>2021-06-06T07:32:32.444Z</time>
      </trkpt>
      <trkpt lat="45.71029" lon="5.34844">
        <ele>309</ele>
        <time>2021-06-06T07:32:33.444Z</time>
      </trkpt>
      <trkpt lat="45.71029" lon="5.34852">
        <ele>309</ele>
        <time>2021-06-06T07:32:34.444Z</time>
      </trkpt>
      <trkpt lat="45.71028" lon="5.34859">
        <ele>309</ele>
        <time>2021-06-06T07:32:35.444Z</time>
      </trkpt>
      <trkpt lat="45.71028" lon="5.34866">
        <ele>309</ele>
        <time>2021-06-06T07:32:36.444Z</time>
      </trkpt>
      <trkpt lat="45.71028" lon="5.34873">
        <ele>310</ele>
        <time>2021-06-06T07:32:37.444Z</time>
      </trkpt>
      <trkpt lat="45.71027" lon="5.34879">
        <ele>310</ele>
        <time>2021-06-06T07:32:38.444Z</time>
      </trkpt>
      <trkpt lat="45.71027" lon="5.34885">
        <ele>310</ele>
        <time>2021-06-06T07:32:39.444Z</time>
      </trkpt>
      <trkpt lat="45.71026" lon="5.34891">
        <ele>310</ele>
        <time>2021-06-06T07:32:40.444Z</time>
      </trkpt>
      <trkpt lat="45.71025" lon="5.34897">
        <ele>310</ele>
        <time>2021-06-06T07:32:41.444Z</time>
      </trkpt>
      <trkpt lat="45.71024" lon="5.34902">
        <ele>310</ele>
        <time>2021-06-06T07:32:42.444Z</time>
      </trkpt>
      <trkpt lat="45.71022" lon="5.34907">
        <ele>310</ele>
        <time>2021-06-06T07:32:43.444Z</time>
      </trkpt>
      <trkpt lat="45.71021" lon="5.34913">
        <ele>310</ele>
        <time>2021-06-06T07:32:44.444Z</time>
      </trkpt>
      <trkpt lat="45.71021" lon="5.34918">
        <ele>309</ele>
        <time>2021-06-06T07:32:45.444Z</time>
      </trkpt>
      <trkpt lat="45.71021" lon="5.34923">
        <ele>309</ele>
        <time>2021-06-06T07:32:46.444Z</time>
      </trkpt>
      <trkpt lat="45.71021" lon="5.34927">
        <ele>309</ele>
        <time>2021-06-06T07:32:47.443Z</time>
      </trkpt>
      <trkpt lat="45.71022" lon="5.34932">
        <ele>309</ele>
        <time>2021-06-06T07:32:48.443Z</time>
      </trkpt>
      <trkpt lat="45.71022" lon="5.34937">
        <ele>310</ele>
        <time>2021-06-06T07:32:49.444Z</time>
      </trkpt>
      <trkpt lat="45.71023" lon="5.34942">
        <ele>310</ele>
        <time>2021-06-06T07:32:50.444Z</time>
      </trkpt>
      <trkpt lat="45.71025" lon="5.34946">
        <ele>310</ele>
        <time>2021-06-06T07:32:51.444Z</time>
      </trkpt>
      <trkpt lat="45.71027" lon="5.3495">
        <ele>310</ele>
        <time>2021-06-06T07:32:52.443Z</time>
      </trkpt>
      <trkpt lat="45.7103" lon="5.34955">
        <ele>310</ele>
        <time>2021-06-06T07:32:53.444Z</time>
      </trkpt>
      <trkpt lat="45.71032" lon="5.34959">
        <ele>311</ele>
        <time>2021-06-06T07:32:54.443Z</time>
      </trkpt>
      <trkpt lat="45.71035" lon="5.34963">
        <ele>311</ele>
        <time>2021-06-06T07:32:55.443Z</time>
      </trkpt>
      <trkpt lat="45.71039" lon="5.34966">
        <ele>311</ele>
        <time>2021-06-06T07:32:56.444Z</time>
      </trkpt>
      <trkpt lat="45.71042" lon="5.3497">
        <ele>312</ele>
        <time>2021-06-06T07:32:57.444Z</time>
      </trkpt>
      <trkpt lat="45.71046" lon="5.34974">
        <ele>312</ele>
        <time>2021-06-06T07:32:58.443Z</time>
      </trkpt>
      <trkpt lat="45.71049" lon="5.34978">
        <ele>312</ele>
        <time>2021-06-06T07:32:59.444Z</time>
      </trkpt>
      <trkpt lat="45.71053" lon="5.34981">
        <ele>313</ele>
        <time>2021-06-06T07:33:00.443Z</time>
      </trkpt>
      <trkpt lat="45.71057" lon="5.34985">
        <ele>313</ele>
        <time>2021-06-06T07:33:01.443Z</time>
      </trkpt>
      <trkpt lat="45.7106" lon="5.34989">
        <ele>313</ele>
        <time>2021-06-06T07:33:02.443Z</time>
      </trkpt>
      <trkpt lat="45.71064" lon="5.34992">
        <ele>313</ele>
        <time>2021-06-06T07:33:03.444Z</time>
      </trkpt>
      <trkpt lat="45.71067" lon="5.34996">
        <ele>313</ele>
        <time>2021-06-06T07:33:04.444Z</time>
      </trkpt>
      <trkpt lat="45.71071" lon="5.34999">
        <ele>313</ele>
        <time>2021-06-06T07:33:05.444Z</time>
      </trkpt>
      <trkpt lat="45.71075" lon="5.35002">
        <ele>313</ele>
        <time>2021-06-06T07:33:06.444Z</time>
      </trkpt>
      <trkpt lat="45.71078" lon="5.35006">
        <ele>313</ele>
        <time>2021-06-06T07:33:07.443Z</time>
      </trkpt>
      <trkpt lat="45.71082" lon="5.35009">
        <ele>313</ele>
        <time>2021-06-06T07:33:08.444Z</time>
      </trkpt>
      <trkpt lat="45.71085" lon="5.35012">
        <ele>313</ele>
        <time>2021-06-06T07:33:09.443Z</time>
      </trkpt>
      <trkpt lat="45.71089" lon="5.35016">
        <ele>313</ele>
        <time>2021-06-06T07:33:10.444Z</time>
      </trkpt>
      <trkpt lat="45.71092" lon="5.35019">
        <ele>314</ele>
        <time>2021-06-06T07:33:11.444Z</time>
      </trkpt>
      <trkpt lat="45.71096" lon="5.35023">
        <ele>314</ele>
        <time>2021-06-06T07:33:12.444Z</time>
      </trkpt>
      <trkpt lat="45.711" lon="5.35026">
        <ele>314</ele>
        <time>2021-06-06T07:33:13.443Z</time>
      </trkpt>
      <trkpt lat="45.71103" lon="5.3503">
        <ele>314</ele>
        <time>2021-06-06T07:33:14.444Z</time>
      </trkpt>
      <trkpt lat="45.71107" lon="5.35034">
        <ele>314</ele>
        <time>2021-06-06T07:33:15.444Z</time>
      </trkpt>
      <trkpt lat="45.7111" lon="5.35037">
        <ele>315</ele>
        <time>2021-06-06T07:33:16.443Z</time>
      </trkpt>
      <trkpt lat="45.71114" lon="5.35041">
        <ele>315</ele>
        <time>2021-06-06T07:33:17.444Z</time>
      </trkpt>
      <trkpt lat="45.71117" lon="5.35044">
        <ele>315</ele>
        <time>2021-06-06T07:33:18.444Z</time>
      </trkpt>
      <trkpt lat="45.71121" lon="5.35048">
        <ele>315</ele>
        <time>2021-06-06T07:33:19.444Z</time>
      </trkpt>
      <trkpt lat="45.71124" lon="5.35051">
        <ele>316</ele>
        <time>2021-06-06T07:33:20.443Z</time>
      </trkpt>
      <trkpt lat="45.71128" lon="5.35055">
        <ele>316</ele>
        <time>2021-06-06T07:33:21.444Z</time>
      </trkpt>
      <trkpt lat="45.71131" lon="5.35059">
        <ele>316</ele>
        <time>2021-06-06T07:33:22.444Z</time>
      </trkpt>
      <trkpt lat="45.71135" lon="5.35062">
        <ele>317</ele>
        <time>2021-06-06T07:33:23.444Z</time>
      </trkpt>
      <trkpt lat="45.71138" lon="5.35066">
        <ele>317</ele>
        <time>2021-06-06T07:33:24.443Z</time>
      </trkpt>
      <trkpt lat="45.71142" lon="5.3507">
        <ele>317</ele>
        <time>2021-06-06T07:33:25.444Z</time>
      </trkpt>
      <trkpt lat="45.71146" lon="5.35073">
        <ele>317</ele>
        <time>2021-06-06T07:33:26.444Z</time>
      </trkpt>
      <trkpt lat="45.71149" lon="5.35077">
        <ele>318</ele>
        <time>2021-06-06T07:33:27.444Z</time>
      </trkpt>
      <trkpt lat="45.71153" lon="5.3508">
        <ele>318</ele>
        <time>2021-06-06T07:33:28.444Z</time>
      </trkpt>
      <trkpt lat="45.71156" lon="5.35084">
        <ele>318</ele>
        <time>2021-06-06T07:33:29.444Z</time>
      </trkpt>
      <trkpt lat="45.7116" lon="5.35088">
        <ele>318</ele>
        <time>2021-06-06T07:33:30.443Z</time>
      </trkpt>
      <trkpt lat="45.71164" lon="5.35091">
        <ele>318</ele>
        <time>2021-06-06T07:33:31.444Z</time>
      </trkpt>
      <trkpt lat="45.71168" lon="5.35095">
        <ele>318</ele>
        <time>2021-06-06T07:33:32.443Z</time>
      </trkpt>
      <trkpt lat="45.71172" lon="5.35099">
        <ele>319</ele>
        <time>2021-06-06T07:33:33.443Z</time>
      </trkpt>
      <trkpt lat="45.71176" lon="5.35103">
        <ele>319</ele>
        <time>2021-06-06T07:33:34.443Z</time>
      </trkpt>
      <trkpt lat="45.7118" lon="5.35108">
        <ele>319</ele>
        <time>2021-06-06T07:33:35.444Z</time>
      </trkpt>
      <trkpt lat="45.71184" lon="5.35112">
        <ele>318</ele>
        <time>2021-06-06T07:33:36.443Z</time>
      </trkpt>
      <trkpt lat="45.71188" lon="5.35116">
        <ele>318</ele>
        <time>2021-06-06T07:33:37.444Z</time>
      </trkpt>
      <trkpt lat="45.71192" lon="5.35121">
        <ele>318</ele>
        <time>2021-06-06T07:33:38.443Z</time>
      </trkpt>
      <trkpt lat="45.71197" lon="5.35125">
        <ele>317</ele>
        <time>2021-06-06T07:33:39.444Z</time>
      </trkpt>
      <trkpt lat="45.71201" lon="5.3513">
        <ele>317</ele>
        <time>2021-06-06T07:33:40.444Z</time>
      </trkpt>
      <trkpt lat="45.71206" lon="5.35135">
        <ele>317</ele>
        <time>2021-06-06T07:33:41.444Z</time>
      </trkpt>
      <trkpt lat="45.71211" lon="5.35139">
        <ele>316</ele>
        <time>2021-06-06T07:33:42.444Z</time>
      </trkpt>
      <trkpt lat="45.71216" lon="5.35145">
        <ele>316</ele>
        <time>2021-06-06T07:33:43.444Z</time>
      </trkpt>
      <trkpt lat="45.71221" lon="5.3515">
        <ele>316</ele>
        <time>2021-06-06T07:33:44.444Z</time>
      </trkpt>
      <trkpt lat="45.71226" lon="5.35156">
        <ele>316</ele>
        <time>2021-06-06T07:33:45.443Z</time>
      </trkpt>
      <trkpt lat="45.71231" lon="5.35162">
        <ele>316</ele>
        <time>2021-06-06T07:33:46.444Z</time>
      </trkpt>
      <trkpt lat="45.71237" lon="5.35168">
        <ele>316</ele>
        <time>2021-06-06T07:33:47.443Z</time>
      </trkpt>
      <trkpt lat="45.71243" lon="5.35175">
        <ele>316</ele>
        <time>2021-06-06T07:33:48.443Z</time>
      </trkpt>
      <trkpt lat="45.7125" lon="5.35181">
        <ele>316</ele>
        <time>2021-06-06T07:33:49.443Z</time>
      </trkpt>
      <trkpt lat="45.71256" lon="5.35188">
        <ele>316</ele>
        <time>2021-06-06T07:33:50.444Z</time>
      </trkpt>
      <trkpt lat="45.71263" lon="5.35195">
        <ele>316</ele>
        <time>2021-06-06T07:33:51.444Z</time>
      </trkpt>
      <trkpt lat="45.7127" lon="5.35202">
        <ele>316</ele>
        <time>2021-06-06T07:33:52.444Z</time>
      </trkpt>
      <trkpt lat="45.71277" lon="5.35209">
        <ele>316</ele>
        <time>2021-06-06T07:33:53.443Z</time>
      </trkpt>
      <trkpt lat="45.71284" lon="5.35217">
        <ele>316</ele>
        <time>2021-06-06T07:33:54.443Z</time>
      </trkpt>
      <trkpt lat="45.71291" lon="5.35224">
        <ele>316</ele>
        <time>2021-06-06T07:33:55.444Z</time>
      </trkpt>
      <trkpt lat="45.71298" lon="5.35231">
        <ele>316</ele>
        <time>2021-06-06T07:33:56.443Z</time>
      </trkpt>
      <trkpt lat="45.71306" lon="5.35239">
        <ele>316</ele>
        <time>2021-06-06T07:33:57.443Z</time>
      </trkpt>
      <trkpt lat="45.71313" lon="5.35247">
        <ele>316</ele>
        <time>2021-06-06T07:33:58.444Z</time>
      </trkpt>
      <trkpt lat="45.71321" lon="5.35255">
        <ele>315</ele>
        <time>2021-06-06T07:33:59.444Z</time>
      </trkpt>
      <trkpt lat="45.71329" lon="5.35263">
        <ele>315</ele>
        <time>2021-06-06T07:34:00.444Z</time>
      </trkpt>
      <trkpt lat="45.71337" lon="5.35272">
        <ele>315</ele>
        <time>2021-06-06T07:34:01.443Z</time>
      </trkpt>
      <trkpt lat="45.71345" lon="5.3528">
        <ele>314</ele>
        <time>2021-06-06T07:34:02.444Z</time>
      </trkpt>
      <trkpt lat="45.71353" lon="5.3529">
        <ele>314</ele>
        <time>2021-06-06T07:34:03.443Z</time>
      </trkpt>
      <trkpt lat="45.7136" lon="5.35299">
        <ele>314</ele>
        <time>2021-06-06T07:34:04.444Z</time>
      </trkpt>
      <trkpt lat="45.71368" lon="5.35308">
        <ele>313</ele>
        <time>2021-06-06T07:34:05.444Z</time>
      </trkpt>
      <trkpt lat="45.71375" lon="5.35317">
        <ele>313</ele>
        <time>2021-06-06T07:34:06.443Z</time>
      </trkpt>
      <trkpt lat="45.71382" lon="5.35326">
        <ele>313</ele>
        <time>2021-06-06T07:34:07.443Z</time>
      </trkpt>
      <trkpt lat="45.71391" lon="5.35337">
        <ele>312</ele>
        <time>2021-06-06T07:34:08.443Z</time>
      </trkpt>
      <trkpt lat="45.71398" lon="5.35346">
        <ele>312</ele>
        <time>2021-06-06T07:34:09.444Z</time>
      </trkpt>
      <trkpt lat="45.71404" lon="5.35355">
        <ele>312</ele>
        <time>2021-06-06T07:34:10.444Z</time>
      </trkpt>
      <trkpt lat="45.7141" lon="5.35363">
        <ele>311</ele>
        <time>2021-06-06T07:34:11.444Z</time>
      </trkpt>
      <trkpt lat="45.71417" lon="5.35374">
        <ele>311</ele>
        <time>2021-06-06T07:34:12.444Z</time>
      </trkpt>
      <trkpt lat="45.71423" lon="5.35384">
        <ele>310</ele>
        <time>2021-06-06T07:34:13.444Z</time>
      </trkpt>
      <trkpt lat="45.71429" lon="5.35394">
        <ele>310</ele>
        <time>2021-06-06T07:34:14.443Z</time>
      </trkpt>
      <trkpt lat="45.71433" lon="5.35402">
        <ele>310</ele>
        <time>2021-06-06T07:34:15.443Z</time>
      </trkpt>
      <trkpt lat="45.71438" lon="5.35413">
        <ele>310</ele>
        <time>2021-06-06T07:34:16.443Z</time>
      </trkpt>
      <trkpt lat="45.71443" lon="5.35424">
        <ele>309</ele>
        <time>2021-06-06T07:34:17.444Z</time>
      </trkpt>
      <trkpt lat="45.71449" lon="5.35438">
        <ele>309</ele>
        <time>2021-06-06T07:34:18.443Z</time>
      </trkpt>
      <trkpt lat="45.71453" lon="5.3545">
        <ele>308</ele>
        <time>2021-06-06T07:34:19.444Z</time>
      </trkpt>
      <trkpt lat="45.71457" lon="5.3546">
        <ele>307</ele>
        <time>2021-06-06T07:34:20.443Z</time>
      </trkpt>
      <trkpt lat="45.71462" lon="5.35474">
        <ele>306</ele>
        <time>2021-06-06T07:34:21.444Z</time>
      </trkpt>
      <trkpt lat="45.71467" lon="5.35486">
        <ele>305</ele>
        <time>2021-06-06T07:34:22.443Z</time>
      </trkpt>
      <trkpt lat="45.71472" lon="5.35497">
        <ele>305</ele>
        <time>2021-06-06T07:34:23.444Z</time>
      </trkpt>
      <trkpt lat="45.71476" lon="5.35506">
        <ele>305</ele>
        <time>2021-06-06T07:34:24.444Z</time>
      </trkpt>
      <trkpt lat="45.71482" lon="5.35517">
        <ele>305</ele>
        <time>2021-06-06T07:34:25.444Z</time>
      </trkpt>
      <trkpt lat="45.71489" lon="5.35528">
        <ele>305</ele>
        <time>2021-06-06T07:34:26.444Z</time>
      </trkpt>
      <trkpt lat="45.71495" lon="5.35538">
        <ele>304</ele>
        <time>2021-06-06T07:34:27.444Z</time>
      </trkpt>
      <trkpt lat="45.71501" lon="5.35548">
        <ele>304</ele>
        <time>2021-06-06T07:34:28.443Z</time>
      </trkpt>
      <trkpt lat="45.71507" lon="5.35558">
        <ele>304</ele>
        <time>2021-06-06T07:34:29.444Z</time>
      </trkpt>
      <trkpt lat="45.71514" lon="5.35568">
        <ele>304</ele>
        <time>2021-06-06T07:34:30.443Z</time>
      </trkpt>
      <trkpt lat="45.71521" lon="5.35579">
        <ele>303</ele>
        <time>2021-06-06T07:34:31.444Z</time>
      </trkpt>
      <trkpt lat="45.71528" lon="5.35588">
        <ele>303</ele>
        <time>2021-06-06T07:34:32.444Z</time>
      </trkpt>
      <trkpt lat="45.71533" lon="5.35596">
        <ele>303</ele>
        <time>2021-06-06T07:34:33.443Z</time>
      </trkpt>
      <trkpt lat="45.71539" lon="5.35605">
        <ele>303</ele>
        <time>2021-06-06T07:34:34.443Z</time>
      </trkpt>
      <trkpt lat="45.71545" lon="5.35614">
        <ele>303</ele>
        <time>2021-06-06T07:34:35.444Z</time>
      </trkpt>
      <trkpt lat="45.7155" lon="5.35624">
        <ele>304</ele>
        <time>2021-06-06T07:34:36.444Z</time>
      </trkpt>
      <trkpt lat="45.71555" lon="5.35633">
        <ele>304</ele>
        <time>2021-06-06T07:34:37.444Z</time>
      </trkpt>
      <trkpt lat="45.7156" lon="5.35643">
        <ele>304</ele>
        <time>2021-06-06T07:34:38.443Z</time>
      </trkpt>
      <trkpt lat="45.71564" lon="5.35653">
        <ele>304</ele>
        <time>2021-06-06T07:34:39.444Z</time>
      </trkpt>
      <trkpt lat="45.71569" lon="5.35665">
        <ele>304</ele>
        <time>2021-06-06T07:34:40.444Z</time>
      </trkpt>
      <trkpt lat="45.71573" lon="5.35675">
        <ele>304</ele>
        <time>2021-06-06T07:34:41.444Z</time>
      </trkpt>
      <trkpt lat="45.71576" lon="5.35683">
        <ele>303</ele>
        <time>2021-06-06T07:34:42.443Z</time>
      </trkpt>
      <trkpt lat="45.71579" lon="5.35693">
        <ele>303</ele>
        <time>2021-06-06T07:34:43.443Z</time>
      </trkpt>
      <trkpt lat="45.71583" lon="5.35705">
        <ele>303</ele>
        <time>2021-06-06T07:34:44.444Z</time>
      </trkpt>
      <trkpt lat="45.71586" lon="5.35713">
        <ele>303</ele>
        <time>2021-06-06T07:34:45.443Z</time>
      </trkpt>
      <trkpt lat="45.71589" lon="5.35725">
        <ele>304</ele>
        <time>2021-06-06T07:34:46.443Z</time>
      </trkpt>
      <trkpt lat="45.71591" lon="5.35733">
        <ele>304</ele>
        <time>2021-06-06T07:34:47.443Z</time>
      </trkpt>
      <trkpt lat="45.71593" lon="5.35744">
        <ele>304</ele>
        <time>2021-06-06T07:34:48.444Z</time>
      </trkpt>
      <trkpt lat="45.71595" lon="5.35754">
        <ele>304</ele>
        <time>2021-06-06T07:34:49.444Z</time>
      </trkpt>
      <trkpt lat="45.71597" lon="5.35765">
        <ele>304</ele>
        <time>2021-06-06T07:34:50.444Z</time>
      </trkpt>
      <trkpt lat="45.71599" lon="5.35776">
        <ele>304</ele>
        <time>2021-06-06T07:34:51.443Z</time>
      </trkpt>
      <trkpt lat="45.71601" lon="5.35784">
        <ele>304</ele>
        <time>2021-06-06T07:34:52.444Z</time>
      </trkpt>
      <trkpt lat="45.71603" lon="5.35793">
        <ele>304</ele>
        <time>2021-06-06T07:34:53.444Z</time>
      </trkpt>
      <trkpt lat="45.71605" lon="5.35803">
        <ele>304</ele>
        <time>2021-06-06T07:34:54.444Z</time>
      </trkpt>
      <trkpt lat="45.71607" lon="5.35813">
        <ele>304</ele>
        <time>2021-06-06T07:34:55.444Z</time>
      </trkpt>
      <trkpt lat="45.71609" lon="5.35823">
        <ele>303</ele>
        <time>2021-06-06T07:34:56.443Z</time>
      </trkpt>
      <trkpt lat="45.71611" lon="5.35832">
        <ele>303</ele>
        <time>2021-06-06T07:34:57.444Z</time>
      </trkpt>
      <trkpt lat="45.71613" lon="5.35842">
        <ele>303</ele>
        <time>2021-06-06T07:34:58.443Z</time>
      </trkpt>
      <trkpt lat="45.71615" lon="5.35853">
        <ele>303</ele>
        <time>2021-06-06T07:34:59.443Z</time>
      </trkpt>
      <trkpt lat="45.71616" lon="5.35861">
        <ele>303</ele>
        <time>2021-06-06T07:35:00.443Z</time>
      </trkpt>
      <trkpt lat="45.71618" lon="5.35871">
        <ele>303</ele>
        <time>2021-06-06T07:35:01.444Z</time>
      </trkpt>
      <trkpt lat="45.7162" lon="5.35881">
        <ele>303</ele>
        <time>2021-06-06T07:35:02.444Z</time>
      </trkpt>
      <trkpt lat="45.71622" lon="5.35893">
        <ele>303</ele>
        <time>2021-06-06T07:35:03.444Z</time>
      </trkpt>
      <trkpt lat="45.71624" lon="5.35903">
        <ele>303</ele>
        <time>2021-06-06T07:35:04.444Z</time>
      </trkpt>
      <trkpt lat="45.71626" lon="5.35911">
        <ele>303</ele>
        <time>2021-06-06T07:35:05.444Z</time>
      </trkpt>
      <trkpt lat="45.71628" lon="5.35922">
        <ele>303</ele>
        <time>2021-06-06T07:35:06.444Z</time>
      </trkpt>
      <trkpt lat="45.7163" lon="5.35934">
        <ele>303</ele>
        <time>2021-06-06T07:35:07.443Z</time>
      </trkpt>
      <trkpt lat="45.71632" lon="5.35944">
        <ele>303</ele>
        <time>2021-06-06T07:35:08.443Z</time>
      </trkpt>
      <trkpt lat="45.71634" lon="5.35952">
        <ele>303</ele>
        <time>2021-06-06T07:35:09.444Z</time>
      </trkpt>
      <trkpt lat="45.71636" lon="5.35962">
        <ele>303</ele>
        <time>2021-06-06T07:35:10.444Z</time>
      </trkpt>
      <trkpt lat="45.7164" lon="5.35972">
        <ele>303</ele>
        <time>2021-06-06T07:35:11.443Z</time>
      </trkpt>
      <trkpt lat="45.71643" lon="5.35982">
        <ele>302</ele>
        <time>2021-06-06T07:35:12.444Z</time>
      </trkpt>
      <trkpt lat="45.71647" lon="5.35991">
        <ele>302</ele>
        <time>2021-06-06T07:35:13.443Z</time>
      </trkpt>
      <trkpt lat="45.71653" lon="5.36002">
        <ele>302</ele>
        <time>2021-06-06T07:35:14.444Z</time>
      </trkpt>
      <trkpt lat="45.71657" lon="5.36009">
        <ele>302</ele>
        <time>2021-06-06T07:35:15.443Z</time>
      </trkpt>
      <trkpt lat="45.71661" lon="5.36018">
        <ele>302</ele>
        <time>2021-06-06T07:35:16.443Z</time>
      </trkpt>
      <trkpt lat="45.71666" lon="5.36026">
        <ele>302</ele>
        <time>2021-06-06T07:35:17.443Z</time>
      </trkpt>
      <trkpt lat="45.71672" lon="5.36035">
        <ele>301</ele>
        <time>2021-06-06T07:35:18.443Z</time>
      </trkpt>
      <trkpt lat="45.71677" lon="5.36043">
        <ele>301</ele>
        <time>2021-06-06T07:35:19.444Z</time>
      </trkpt>
      <trkpt lat="45.71682" lon="5.36051">
        <ele>301</ele>
        <time>2021-06-06T07:35:20.443Z</time>
      </trkpt>
      <trkpt lat="45.71687" lon="5.3606">
        <ele>301</ele>
        <time>2021-06-06T07:35:21.444Z</time>
      </trkpt>
      <trkpt lat="45.71692" lon="5.36068">
        <ele>301</ele>
        <time>2021-06-06T07:35:22.444Z</time>
      </trkpt>
      <trkpt lat="45.71698" lon="5.36078">
        <ele>300</ele>
        <time>2021-06-06T07:35:23.444Z</time>
      </trkpt>
      <trkpt lat="45.71702" lon="5.36084">
        <ele>301</ele>
        <time>2021-06-06T07:35:24.443Z</time>
      </trkpt>
      <trkpt lat="45.71707" lon="5.36093">
        <ele>301</ele>
        <time>2021-06-06T07:35:25.444Z</time>
      </trkpt>
      <trkpt lat="45.71711" lon="5.361">
        <ele>300</ele>
        <time>2021-06-06T07:35:26.444Z</time>
      </trkpt>
      <trkpt lat="45.71715" lon="5.36107">
        <ele>300</ele>
        <time>2021-06-06T07:35:27.444Z</time>
      </trkpt>
      <trkpt lat="45.7172" lon="5.36114">
        <ele>300</ele>
        <time>2021-06-06T07:35:28.444Z</time>
      </trkpt>
      <trkpt lat="45.71725" lon="5.36122">
        <ele>300</ele>
        <time>2021-06-06T07:35:29.443Z</time>
      </trkpt>
      <trkpt lat="45.71729" lon="5.3613">
        <ele>300</ele>
        <time>2021-06-06T07:35:30.444Z</time>
      </trkpt>
      <trkpt lat="45.71734" lon="5.36137">
        <ele>299</ele>
        <time>2021-06-06T07:35:31.444Z</time>
      </trkpt>
      <trkpt lat="45.71739" lon="5.36145">
        <ele>299</ele>
        <time>2021-06-06T07:35:32.444Z</time>
      </trkpt>
      <trkpt lat="45.71744" lon="5.36152">
        <ele>299</ele>
        <time>2021-06-06T07:35:33.443Z</time>
      </trkpt>
      <trkpt lat="45.71748" lon="5.3616">
        <ele>299</ele>
        <time>2021-06-06T07:35:34.443Z</time>
      </trkpt>
      <trkpt lat="45.71752" lon="5.36167">
        <ele>299</ele>
        <time>2021-06-06T07:35:35.444Z</time>
      </trkpt>
      <trkpt lat="45.71757" lon="5.36176">
        <ele>299</ele>
        <time>2021-06-06T07:35:36.444Z</time>
      </trkpt>
      <trkpt lat="45.71761" lon="5.36183">
        <ele>299</ele>
        <time>2021-06-06T07:35:37.443Z</time>
      </trkpt>
      <trkpt lat="45.71765" lon="5.36188">
        <ele>298</ele>
        <time>2021-06-06T07:35:38.444Z</time>
      </trkpt>
      <trkpt lat="45.7177" lon="5.36196">
        <ele>298</ele>
        <time>2021-06-06T07:35:39.444Z</time>
      </trkpt>
      <trkpt lat="45.71773" lon="5.36202">
        <ele>298</ele>
        <time>2021-06-06T07:35:40.444Z</time>
      </trkpt>
      <trkpt lat="45.71777" lon="5.36209">
        <ele>297</ele>
        <time>2021-06-06T07:35:41.444Z</time>
      </trkpt>
      <trkpt lat="45.71781" lon="5.36216">
        <ele>297</ele>
        <time>2021-06-06T07:35:42.444Z</time>
      </trkpt>
      <trkpt lat="45.71785" lon="5.36223">
        <ele>297</ele>
        <time>2021-06-06T07:35:43.443Z</time>
      </trkpt>
      <trkpt lat="45.71789" lon="5.36229">
        <ele>297</ele>
        <time>2021-06-06T07:35:44.444Z</time>
      </trkpt>
      <trkpt lat="45.71793" lon="5.36237">
        <ele>297</ele>
        <time>2021-06-06T07:35:45.444Z</time>
      </trkpt>
      <trkpt lat="45.71796" lon="5.36242">
        <ele>297</ele>
        <time>2021-06-06T07:35:46.444Z</time>
      </trkpt>
      <trkpt lat="45.718" lon="5.36248">
        <ele>297</ele>
        <time>2021-06-06T07:35:47.443Z</time>
      </trkpt>
      <trkpt lat="45.71804" lon="5.36254">
        <ele>297</ele>
        <time>2021-06-06T07:35:48.444Z</time>
      </trkpt>
      <trkpt lat="45.71807" lon="5.36259">
        <ele>297</ele>
        <time>2021-06-06T07:35:49.443Z</time>
      </trkpt>
      <trkpt lat="45.71811" lon="5.36266">
        <ele>297</ele>
        <time>2021-06-06T07:35:50.444Z</time>
      </trkpt>
      <trkpt lat="45.71813" lon="5.36271">
        <ele>297</ele>
        <time>2021-06-06T07:35:51.444Z</time>
      </trkpt>
      <trkpt lat="45.71817" lon="5.36276">
        <ele>298</ele>
        <time>2021-06-06T07:35:52.444Z</time>
      </trkpt>
      <trkpt lat="45.7182" lon="5.36283">
        <ele>298</ele>
        <time>2021-06-06T07:35:53.444Z</time>
      </trkpt>
      <trkpt lat="45.71823" lon="5.36289">
        <ele>298</ele>
        <time>2021-06-06T07:35:54.444Z</time>
      </trkpt>
      <trkpt lat="45.71826" lon="5.36293">
        <ele>299</ele>
        <time>2021-06-06T07:35:55.444Z</time>
      </trkpt>
      <trkpt lat="45.71829" lon="5.36299">
        <ele>299</ele>
        <time>2021-06-06T07:35:56.443Z</time>
      </trkpt>
      <trkpt lat="45.71831" lon="5.36304">
        <ele>299</ele>
        <time>2021-06-06T07:35:57.443Z</time>
      </trkpt>
      <trkpt lat="45.71834" lon="5.3631">
        <ele>299</ele>
        <time>2021-06-06T07:35:58.444Z</time>
      </trkpt>
      <trkpt lat="45.71837" lon="5.36317">
        <ele>299</ele>
        <time>2021-06-06T07:35:59.444Z</time>
      </trkpt>
      <trkpt lat="45.7184" lon="5.36323">
        <ele>300</ele>
        <time>2021-06-06T07:36:00.444Z</time>
      </trkpt>
      <trkpt lat="45.71842" lon="5.36328">
        <ele>300</ele>
        <time>2021-06-06T07:36:01.444Z</time>
      </trkpt>
      <trkpt lat="45.71844" lon="5.36334">
        <ele>300</ele>
        <time>2021-06-06T07:36:02.443Z</time>
      </trkpt>
      <trkpt lat="45.71847" lon="5.36341">
        <ele>300</ele>
        <time>2021-06-06T07:36:03.444Z</time>
      </trkpt>
      <trkpt lat="45.7185" lon="5.36347">
        <ele>300</ele>
        <time>2021-06-06T07:36:04.444Z</time>
      </trkpt>
      <trkpt lat="45.71852" lon="5.36353">
        <ele>300</ele>
        <time>2021-06-06T07:36:05.443Z</time>
      </trkpt>
      <trkpt lat="45.71855" lon="5.36359">
        <ele>300</ele>
        <time>2021-06-06T07:36:06.444Z</time>
      </trkpt>
      <trkpt lat="45.71858" lon="5.36367">
        <ele>300</ele>
        <time>2021-06-06T07:36:07.443Z</time>
      </trkpt>
      <trkpt lat="45.71861" lon="5.36373">
        <ele>300</ele>
        <time>2021-06-06T07:36:08.444Z</time>
      </trkpt>
      <trkpt lat="45.71863" lon="5.36379">
        <ele>300</ele>
        <time>2021-06-06T07:36:09.444Z</time>
      </trkpt>
      <trkpt lat="45.71866" lon="5.36384">
        <ele>300</ele>
        <time>2021-06-06T07:36:10.444Z</time>
      </trkpt>
      <trkpt lat="45.71869" lon="5.36391">
        <ele>300</ele>
        <time>2021-06-06T07:36:11.444Z</time>
      </trkpt>
      <trkpt lat="45.71872" lon="5.36399">
        <ele>300</ele>
        <time>2021-06-06T07:36:12.444Z</time>
      </trkpt>
      <trkpt lat="45.71873" lon="5.36404">
        <ele>300</ele>
        <time>2021-06-06T07:36:13.443Z</time>
      </trkpt>
      <trkpt lat="45.71876" lon="5.36411">
        <ele>300</ele>
        <time>2021-06-06T07:36:14.444Z</time>
      </trkpt>
      <trkpt lat="45.71878" lon="5.36418">
        <ele>300</ele>
        <time>2021-06-06T07:36:15.443Z</time>
      </trkpt>
      <trkpt lat="45.71882" lon="5.36426">
        <ele>300</ele>
        <time>2021-06-06T07:36:16.444Z</time>
      </trkpt>
      <trkpt lat="45.71884" lon="5.36431">
        <ele>300</ele>
        <time>2021-06-06T07:36:17.444Z</time>
      </trkpt>
      <trkpt lat="45.71888" lon="5.36439">
        <ele>300</ele>
        <time>2021-06-06T07:36:18.443Z</time>
      </trkpt>
      <trkpt lat="45.7189" lon="5.36445">
        <ele>300</ele>
        <time>2021-06-06T07:36:19.443Z</time>
      </trkpt>
      <trkpt lat="45.71894" lon="5.36453">
        <ele>300</ele>
        <time>2021-06-06T07:36:20.444Z</time>
      </trkpt>
      <trkpt lat="45.71898" lon="5.36459">
        <ele>300</ele>
        <time>2021-06-06T07:36:21.444Z</time>
      </trkpt>
      <trkpt lat="45.71902" lon="5.36466">
        <ele>300</ele>
        <time>2021-06-06T07:36:22.443Z</time>
      </trkpt>
      <trkpt lat="45.71905" lon="5.36471">
        <ele>300</ele>
        <time>2021-06-06T07:36:23.444Z</time>
      </trkpt>
      <trkpt lat="45.7191" lon="5.36478">
        <ele>301</ele>
        <time>2021-06-06T07:36:24.443Z</time>
      </trkpt>
      <trkpt lat="45.71915" lon="5.36486">
        <ele>301</ele>
        <time>2021-06-06T07:36:25.444Z</time>
      </trkpt>
      <trkpt lat="45.71919" lon="5.36492">
        <ele>301</ele>
        <time>2021-06-06T07:36:26.443Z</time>
      </trkpt>
      <trkpt lat="45.71924" lon="5.36499">
        <ele>301</ele>
        <time>2021-06-06T07:36:27.444Z</time>
      </trkpt>
      <trkpt lat="45.71928" lon="5.36504">
        <ele>301</ele>
        <time>2021-06-06T07:36:28.444Z</time>
      </trkpt>
      <trkpt lat="45.71932" lon="5.36511">
        <ele>301</ele>
        <time>2021-06-06T07:36:29.443Z</time>
      </trkpt>
      <trkpt lat="45.71938" lon="5.36519">
        <ele>301</ele>
        <time>2021-06-06T07:36:30.444Z</time>
      </trkpt>
      <trkpt lat="45.71942" lon="5.36524">
        <ele>301</ele>
        <time>2021-06-06T07:36:31.444Z</time>
      </trkpt>
      <trkpt lat="45.71946" lon="5.36531">
        <ele>301</ele>
        <time>2021-06-06T07:36:32.444Z</time>
      </trkpt>
      <trkpt lat="45.71951" lon="5.36537">
        <ele>301</ele>
        <time>2021-06-06T07:36:33.444Z</time>
      </trkpt>
      <trkpt lat="45.71955" lon="5.36543">
        <ele>301</ele>
        <time>2021-06-06T07:36:34.443Z</time>
      </trkpt>
      <trkpt lat="45.7196" lon="5.3655">
        <ele>300</ele>
        <time>2021-06-06T07:36:35.443Z</time>
      </trkpt>
      <trkpt lat="45.71964" lon="5.36556">
        <ele>300</ele>
        <time>2021-06-06T07:36:36.443Z</time>
      </trkpt>
      <trkpt lat="45.7197" lon="5.36564">
        <ele>300</ele>
        <time>2021-06-06T07:36:37.444Z</time>
      </trkpt>
      <trkpt lat="45.71974" lon="5.36568">
        <ele>300</ele>
        <time>2021-06-06T07:36:38.444Z</time>
      </trkpt>
      <trkpt lat="45.71978" lon="5.36574">
        <ele>299</ele>
        <time>2021-06-06T07:36:39.444Z</time>
      </trkpt>
      <trkpt lat="45.71983" lon="5.3658">
        <ele>300</ele>
        <time>2021-06-06T07:36:40.444Z</time>
      </trkpt>
      <trkpt lat="45.71987" lon="5.36586">
        <ele>300</ele>
        <time>2021-06-06T07:36:41.444Z</time>
      </trkpt>
      <trkpt lat="45.71991" lon="5.36592">
        <ele>300</ele>
        <time>2021-06-06T07:36:42.444Z</time>
      </trkpt>
      <trkpt lat="45.71995" lon="5.36598">
        <ele>300</ele>
        <time>2021-06-06T07:36:43.444Z</time>
      </trkpt>
      <trkpt lat="45.72" lon="5.36603">
        <ele>301</ele>
        <time>2021-06-06T07:36:44.444Z</time>
      </trkpt>
      <trkpt lat="45.72004" lon="5.36608">
        <ele>301</ele>
        <time>2021-06-06T07:36:45.443Z</time>
      </trkpt>
      <trkpt lat="45.72009" lon="5.36614">
        <ele>301</ele>
        <time>2021-06-06T07:36:46.444Z</time>
      </trkpt>
      <trkpt lat="45.72014" lon="5.36619">
        <ele>302</ele>
        <time>2021-06-06T07:36:47.443Z</time>
      </trkpt>
      <trkpt lat="45.72018" lon="5.36624">
        <ele>302</ele>
        <time>2021-06-06T07:36:48.443Z</time>
      </trkpt>
      <trkpt lat="45.72023" lon="5.36628">
        <ele>302</ele>
        <time>2021-06-06T07:36:49.443Z</time>
      </trkpt>
      <trkpt lat="45.72028" lon="5.36633">
        <ele>302</ele>
        <time>2021-06-06T07:36:50.444Z</time>
      </trkpt>
      <trkpt lat="45.72033" lon="5.36638">
        <ele>302</ele>
        <time>2021-06-06T07:36:51.443Z</time>
      </trkpt>
      <trkpt lat="45.72038" lon="5.36643">
        <ele>302</ele>
        <time>2021-06-06T07:36:52.444Z</time>
      </trkpt>
      <trkpt lat="45.72043" lon="5.36648">
        <ele>302</ele>
        <time>2021-06-06T07:36:53.444Z</time>
      </trkpt>
      <trkpt lat="45.72048" lon="5.36652">
        <ele>302</ele>
        <time>2021-06-06T07:36:54.444Z</time>
      </trkpt>
      <trkpt lat="45.72053" lon="5.36657">
        <ele>302</ele>
        <time>2021-06-06T07:36:55.443Z</time>
      </trkpt>
      <trkpt lat="45.72057" lon="5.36661">
        <ele>302</ele>
        <time>2021-06-06T07:36:56.444Z</time>
      </trkpt>
      <trkpt lat="45.72062" lon="5.36666">
        <ele>302</ele>
        <time>2021-06-06T07:36:57.444Z</time>
      </trkpt>
      <trkpt lat="45.72066" lon="5.3667">
        <ele>301</ele>
        <time>2021-06-06T07:36:58.443Z</time>
      </trkpt>
      <trkpt lat="45.72071" lon="5.36675">
        <ele>301</ele>
        <time>2021-06-06T07:36:59.444Z</time>
      </trkpt>
      <trkpt lat="45.72075" lon="5.36679">
        <ele>302</ele>
        <time>2021-06-06T07:37:00.443Z</time>
      </trkpt>
      <trkpt lat="45.72079" lon="5.36683">
        <ele>302</ele>
        <time>2021-06-06T07:37:01.444Z</time>
      </trkpt>
      <trkpt lat="45.72084" lon="5.36688">
        <ele>302</ele>
        <time>2021-06-06T07:37:02.443Z</time>
      </trkpt>
      <trkpt lat="45.72088" lon="5.36692">
        <ele>302</ele>
        <time>2021-06-06T07:37:03.443Z</time>
      </trkpt>
      <trkpt lat="45.72093" lon="5.36696">
        <ele>302</ele>
        <time>2021-06-06T07:37:04.444Z</time>
      </trkpt>
      <trkpt lat="45.72097" lon="5.36701">
        <ele>302</ele>
        <time>2021-06-06T07:37:05.443Z</time>
      </trkpt>
      <trkpt lat="45.72101" lon="5.36705">
        <ele>302</ele>
        <time>2021-06-06T07:37:06.443Z</time>
      </trkpt>
      <trkpt lat="45.72106" lon="5.3671">
        <ele>303</ele>
        <time>2021-06-06T07:37:07.443Z</time>
      </trkpt>
      <trkpt lat="45.7211" lon="5.36714">
        <ele>302</ele>
        <time>2021-06-06T07:37:08.444Z</time>
      </trkpt>
      <trkpt lat="45.72116" lon="5.36719">
        <ele>302</ele>
        <time>2021-06-06T07:37:09.444Z</time>
      </trkpt>
      <trkpt lat="45.72121" lon="5.36723">
        <ele>302</ele>
        <time>2021-06-06T07:37:10.444Z</time>
      </trkpt>
      <trkpt lat="45.72124" lon="5.36727">
        <ele>302</ele>
        <time>2021-06-06T07:37:11.443Z</time>
      </trkpt>
      <trkpt lat="45.7213" lon="5.36732">
        <ele>302</ele>
        <time>2021-06-06T07:37:12.444Z</time>
      </trkpt>
      <trkpt lat="45.72134" lon="5.36737">
        <ele>302</ele>
        <time>2021-06-06T07:37:13.444Z</time>
      </trkpt>
      <trkpt lat="45.72139" lon="5.36742">
        <ele>302</ele>
        <time>2021-06-06T07:37:14.444Z</time>
      </trkpt>
      <trkpt lat="45.72143" lon="5.36747">
        <ele>302</ele>
        <time>2021-06-06T07:37:15.444Z</time>
      </trkpt>
      <trkpt lat="45.72147" lon="5.36753">
        <ele>302</ele>
        <time>2021-06-06T07:37:16.443Z</time>
      </trkpt>
      <trkpt lat="45.72151" lon="5.3676">
        <ele>303</ele>
        <time>2021-06-06T07:37:17.444Z</time>
      </trkpt>
      <trkpt lat="45.72154" lon="5.36768">
        <ele>303</ele>
        <time>2021-06-06T07:37:18.444Z</time>
      </trkpt>
      <trkpt lat="45.72157" lon="5.36778">
        <ele>303</ele>
        <time>2021-06-06T07:37:19.444Z</time>
      </trkpt>
      <trkpt lat="45.72159" lon="5.36785">
        <ele>303</ele>
        <time>2021-06-06T07:37:20.443Z</time>
      </trkpt>
      <trkpt lat="45.72161" lon="5.36794">
        <ele>303</ele>
        <time>2021-06-06T07:37:21.443Z</time>
      </trkpt>
      <trkpt lat="45.72163" lon="5.36803">
        <ele>303</ele>
        <time>2021-06-06T07:37:22.443Z</time>
      </trkpt>
      <trkpt lat="45.72164" lon="5.36812">
        <ele>303</ele>
        <time>2021-06-06T07:37:23.443Z</time>
      </trkpt>
      <trkpt lat="45.72166" lon="5.36822">
        <ele>304</ele>
        <time>2021-06-06T07:37:24.443Z</time>
      </trkpt>
      <trkpt lat="45.72167" lon="5.36832">
        <ele>303</ele>
        <time>2021-06-06T07:37:25.443Z</time>
      </trkpt>
      <trkpt lat="45.72169" lon="5.36841">
        <ele>303</ele>
        <time>2021-06-06T07:37:26.444Z</time>
      </trkpt>
      <trkpt lat="45.7217" lon="5.36851">
        <ele>304</ele>
        <time>2021-06-06T07:37:27.444Z</time>
      </trkpt>
      <trkpt lat="45.72172" lon="5.36861">
        <ele>304</ele>
        <time>2021-06-06T07:37:28.444Z</time>
      </trkpt>
      <trkpt lat="45.72174" lon="5.3687">
        <ele>304</ele>
        <time>2021-06-06T07:37:29.444Z</time>
      </trkpt>
      <trkpt lat="45.72177" lon="5.3688">
        <ele>304</ele>
        <time>2021-06-06T07:37:30.444Z</time>
      </trkpt>
      <trkpt lat="45.7218" lon="5.36888">
        <ele>304</ele>
        <time>2021-06-06T07:37:31.444Z</time>
      </trkpt>
      <trkpt lat="45.72184" lon="5.36896">
        <ele>304</ele>
        <time>2021-06-06T07:37:32.443Z</time>
      </trkpt>
      <trkpt lat="45.72188" lon="5.36904">
        <ele>304</ele>
        <time>2021-06-06T07:37:33.443Z</time>
      </trkpt>
      <trkpt lat="45.72192" lon="5.36911">
        <ele>304</ele>
        <time>2021-06-06T07:37:34.444Z</time>
      </trkpt>
      <trkpt lat="45.72197" lon="5.36917">
        <ele>304</ele>
        <time>2021-06-06T07:37:35.444Z</time>
      </trkpt>
      <trkpt lat="45.72202" lon="5.36922">
        <ele>304</ele>
        <time>2021-06-06T07:37:36.444Z</time>
      </trkpt>
      <trkpt lat="45.72207" lon="5.36927">
        <ele>304</ele>
        <time>2021-06-06T07:37:37.444Z</time>
      </trkpt>
      <trkpt lat="45.72212" lon="5.36931">
        <ele>304</ele>
        <time>2021-06-06T07:37:38.444Z</time>
      </trkpt>
      <trkpt lat="45.72217" lon="5.36936">
        <ele>304</ele>
        <time>2021-06-06T07:37:39.443Z</time>
      </trkpt>
      <trkpt lat="45.72222" lon="5.3694">
        <ele>304</ele>
        <time>2021-06-06T07:37:40.444Z</time>
      </trkpt>
      <trkpt lat="45.72227" lon="5.36945">
        <ele>304</ele>
        <time>2021-06-06T07:37:41.444Z</time>
      </trkpt>
      <trkpt lat="45.72232" lon="5.36949">
        <ele>305</ele>
        <time>2021-06-06T07:37:42.444Z</time>
      </trkpt>
      <trkpt lat="45.72236" lon="5.36954">
        <ele>305</ele>
        <time>2021-06-06T07:37:43.443Z</time>
      </trkpt>
      <trkpt lat="45.7224" lon="5.36959">
        <ele>304</ele>
        <time>2021-06-06T07:37:44.443Z</time>
      </trkpt>
      <trkpt lat="45.72244" lon="5.36964">
        <ele>304</ele>
        <time>2021-06-06T07:37:45.444Z</time>
      </trkpt>
      <trkpt lat="45.72248" lon="5.36969">
        <ele>304</ele>
        <time>2021-06-06T07:37:46.444Z</time>
      </trkpt>
      <trkpt lat="45.72252" lon="5.36974">
        <ele>304</ele>
        <time>2021-06-06T07:37:47.444Z</time>
      </trkpt>
      <trkpt lat="45.72256" lon="5.36979">
        <ele>304</ele>
        <time>2021-06-06T07:37:48.443Z</time>
      </trkpt>
      <trkpt lat="45.72259" lon="5.36984">
        <ele>304</ele>
        <time>2021-06-06T07:37:49.444Z</time>
      </trkpt>
      <trkpt lat="45.72263" lon="5.36989">
        <ele>303</ele>
        <time>2021-06-06T07:37:50.444Z</time>
      </trkpt>
      <trkpt lat="45.72266" lon="5.36994">
        <ele>303</ele>
        <time>2021-06-06T07:37:51.443Z</time>
      </trkpt>
      <trkpt lat="45.7227" lon="5.37">
        <ele>303</ele>
        <time>2021-06-06T07:37:52.443Z</time>
      </trkpt>
      <trkpt lat="45.72273" lon="5.37005">
        <ele>303</ele>
        <time>2021-06-06T07:37:53.443Z</time>
      </trkpt>
      <trkpt lat="45.72277" lon="5.37011">
        <ele>303</ele>
        <time>2021-06-06T07:37:54.443Z</time>
      </trkpt>
      <trkpt lat="45.72281" lon="5.37016">
        <ele>303</ele>
        <time>2021-06-06T07:37:55.443Z</time>
      </trkpt>
      <trkpt lat="45.72285" lon="5.37021">
        <ele>303</ele>
        <time>2021-06-06T07:37:56.443Z</time>
      </trkpt>
      <trkpt lat="45.72289" lon="5.37027">
        <ele>303</ele>
        <time>2021-06-06T07:37:57.443Z</time>
      </trkpt>
      <trkpt lat="45.72293" lon="5.37032">
        <ele>303</ele>
        <time>2021-06-06T07:37:58.444Z</time>
      </trkpt>
      <trkpt lat="45.72296" lon="5.37038">
        <ele>303</ele>
        <time>2021-06-06T07:37:59.443Z</time>
      </trkpt>
      <trkpt lat="45.723" lon="5.37043">
        <ele>303</ele>
        <time>2021-06-06T07:38:00.444Z</time>
      </trkpt>
      <trkpt lat="45.72304" lon="5.37049">
        <ele>304</ele>
        <time>2021-06-06T07:38:01.443Z</time>
      </trkpt>
      <trkpt lat="45.72308" lon="5.37054">
        <ele>304</ele>
        <time>2021-06-06T07:38:02.444Z</time>
      </trkpt>
      <trkpt lat="45.72312" lon="5.3706">
        <ele>304</ele>
        <time>2021-06-06T07:38:03.444Z</time>
      </trkpt>
      <trkpt lat="45.72315" lon="5.37065">
        <ele>304</ele>
        <time>2021-06-06T07:38:04.444Z</time>
      </trkpt>
      <trkpt lat="45.72319" lon="5.37071">
        <ele>304</ele>
        <time>2021-06-06T07:38:05.444Z</time>
      </trkpt>
      <trkpt lat="45.72323" lon="5.37077">
        <ele>304</ele>
        <time>2021-06-06T07:38:06.444Z</time>
      </trkpt>
      <trkpt lat="45.72327" lon="5.37083">
        <ele>304</ele>
        <time>2021-06-06T07:38:07.444Z</time>
      </trkpt>
      <trkpt lat="45.7233" lon="5.37088">
        <ele>304</ele>
        <time>2021-06-06T07:38:08.443Z</time>
      </trkpt>
      <trkpt lat="45.72334" lon="5.37094">
        <ele>304</ele>
        <time>2021-06-06T07:38:09.444Z</time>
      </trkpt>
      <trkpt lat="45.72338" lon="5.371">
        <ele>305</ele>
        <time>2021-06-06T07:38:10.444Z</time>
      </trkpt>
      <trkpt lat="45.72342" lon="5.37105">
        <ele>304</ele>
        <time>2021-06-06T07:38:11.443Z</time>
      </trkpt>
      <trkpt lat="45.72346" lon="5.37111">
        <ele>304</ele>
        <time>2021-06-06T07:38:12.443Z</time>
      </trkpt>
      <trkpt lat="45.72349" lon="5.37117">
        <ele>304</ele>
        <time>2021-06-06T07:38:13.443Z</time>
      </trkpt>
      <trkpt lat="45.72353" lon="5.37122">
        <ele>304</ele>
        <time>2021-06-06T07:38:14.444Z</time>
      </trkpt>
      <trkpt lat="45.72357" lon="5.37128">
        <ele>304</ele>
        <time>2021-06-06T07:38:15.444Z</time>
      </trkpt>
      <trkpt lat="45.72361" lon="5.37134">
        <ele>304</ele>
        <time>2021-06-06T07:38:16.444Z</time>
      </trkpt>
      <trkpt lat="45.72365" lon="5.37139">
        <ele>304</ele>
        <time>2021-06-06T07:38:17.444Z</time>
      </trkpt>
      <trkpt lat="45.72368" lon="5.37145">
        <ele>304</ele>
        <time>2021-06-06T07:38:18.444Z</time>
      </trkpt>
      <trkpt lat="45.72372" lon="5.37151">
        <ele>304</ele>
        <time>2021-06-06T07:38:19.444Z</time>
      </trkpt>
      <trkpt lat="45.72376" lon="5.37156">
        <ele>304</ele>
        <time>2021-06-06T07:38:20.444Z</time>
      </trkpt>
      <trkpt lat="45.7238" lon="5.37162">
        <ele>304</ele>
        <time>2021-06-06T07:38:21.444Z</time>
      </trkpt>
      <trkpt lat="45.72384" lon="5.37168">
        <ele>304</ele>
        <time>2021-06-06T07:38:22.443Z</time>
      </trkpt>
      <trkpt lat="45.72388" lon="5.37176">
        <ele>304</ele>
        <time>2021-06-06T07:38:23.444Z</time>
      </trkpt>
      <trkpt lat="45.72392" lon="5.37182">
        <ele>304</ele>
        <time>2021-06-06T07:38:24.444Z</time>
      </trkpt>
      <trkpt lat="45.72396" lon="5.37189">
        <ele>304</ele>
        <time>2021-06-06T07:38:25.444Z</time>
      </trkpt>
      <trkpt lat="45.72399" lon="5.37195">
        <ele>304</ele>
        <time>2021-06-06T07:38:26.444Z</time>
      </trkpt>
      <trkpt lat="45.72402" lon="5.37203">
        <ele>304</ele>
        <time>2021-06-06T07:38:27.444Z</time>
      </trkpt>
      <trkpt lat="45.72405" lon="5.37211">
        <ele>304</ele>
        <time>2021-06-06T07:38:28.444Z</time>
      </trkpt>
      <trkpt lat="45.72409" lon="5.3722">
        <ele>303</ele>
        <time>2021-06-06T07:38:29.443Z</time>
      </trkpt>
      <trkpt lat="45.72412" lon="5.37228">
        <ele>303</ele>
        <time>2021-06-06T07:38:30.443Z</time>
      </trkpt>
      <trkpt lat="45.72415" lon="5.37235">
        <ele>302</ele>
        <time>2021-06-06T07:38:31.444Z</time>
      </trkpt>
      <trkpt lat="45.72418" lon="5.37244">
        <ele>302</ele>
        <time>2021-06-06T07:38:32.444Z</time>
      </trkpt>
      <trkpt lat="45.72421" lon="5.37252">
        <ele>302</ele>
        <time>2021-06-06T07:38:33.443Z</time>
      </trkpt>
      <trkpt lat="45.72424" lon="5.37261">
        <ele>302</ele>
        <time>2021-06-06T07:38:34.443Z</time>
      </trkpt>
      <trkpt lat="45.72427" lon="5.37271">
        <ele>302</ele>
        <time>2021-06-06T07:38:35.444Z</time>
      </trkpt>
      <trkpt lat="45.7243" lon="5.3728">
        <ele>302</ele>
        <time>2021-06-06T07:38:36.444Z</time>
      </trkpt>
      <trkpt lat="45.72433" lon="5.3729">
        <ele>302</ele>
        <time>2021-06-06T07:38:37.444Z</time>
      </trkpt>
      <trkpt lat="45.72436" lon="5.373">
        <ele>302</ele>
        <time>2021-06-06T07:38:38.444Z</time>
      </trkpt>
      <trkpt lat="45.72438" lon="5.3731">
        <ele>302</ele>
        <time>2021-06-06T07:38:39.443Z</time>
      </trkpt>
      <trkpt lat="45.72441" lon="5.3732">
        <ele>302</ele>
        <time>2021-06-06T07:38:40.444Z</time>
      </trkpt>
      <trkpt lat="45.72443" lon="5.3733">
        <ele>301</ele>
        <time>2021-06-06T07:38:41.444Z</time>
      </trkpt>
      <trkpt lat="45.72446" lon="5.37339">
        <ele>301</ele>
        <time>2021-06-06T07:38:42.444Z</time>
      </trkpt>
      <trkpt lat="45.72448" lon="5.37349">
        <ele>301</ele>
        <time>2021-06-06T07:38:43.444Z</time>
      </trkpt>
      <trkpt lat="45.72451" lon="5.37359">
        <ele>300</ele>
        <time>2021-06-06T07:38:44.444Z</time>
      </trkpt>
      <trkpt lat="45.72454" lon="5.37369">
        <ele>300</ele>
        <time>2021-06-06T07:38:45.443Z</time>
      </trkpt>
      <trkpt lat="45.72456" lon="5.37379">
        <ele>300</ele>
        <time>2021-06-06T07:38:46.444Z</time>
      </trkpt>
      <trkpt lat="45.72458" lon="5.37388">
        <ele>300</ele>
        <time>2021-06-06T07:38:47.443Z</time>
      </trkpt>
      <trkpt lat="45.7246" lon="5.37398">
        <ele>299</ele>
        <time>2021-06-06T07:38:48.444Z</time>
      </trkpt>
      <trkpt lat="45.72463" lon="5.37407">
        <ele>299</ele>
        <time>2021-06-06T07:38:49.444Z</time>
      </trkpt>
      <trkpt lat="45.72465" lon="5.37417">
        <ele>299</ele>
        <time>2021-06-06T07:38:50.444Z</time>
      </trkpt>
      <trkpt lat="45.72467" lon="5.37426">
        <ele>299</ele>
        <time>2021-06-06T07:38:51.443Z</time>
      </trkpt>
      <trkpt lat="45.72469" lon="5.37435">
        <ele>298</ele>
        <time>2021-06-06T07:38:52.444Z</time>
      </trkpt>
      <trkpt lat="45.72471" lon="5.37444">
        <ele>298</ele>
        <time>2021-06-06T07:38:53.444Z</time>
      </trkpt>
      <trkpt lat="45.72474" lon="5.37453">
        <ele>298</ele>
        <time>2021-06-06T07:38:54.443Z</time>
      </trkpt>
      <trkpt lat="45.72476" lon="5.37462">
        <ele>298</ele>
        <time>2021-06-06T07:38:55.443Z</time>
      </trkpt>
      <trkpt lat="45.72479" lon="5.37471">
        <ele>298</ele>
        <time>2021-06-06T07:38:56.444Z</time>
      </trkpt>
      <trkpt lat="45.72481" lon="5.3748">
        <ele>298</ele>
        <time>2021-06-06T07:38:57.444Z</time>
      </trkpt>
      <trkpt lat="45.72483" lon="5.37488">
        <ele>298</ele>
        <time>2021-06-06T07:38:58.444Z</time>
      </trkpt>
      <trkpt lat="45.72485" lon="5.37497">
        <ele>298</ele>
        <time>2021-06-06T07:38:59.444Z</time>
      </trkpt>
      <trkpt lat="45.72487" lon="5.37505">
        <ele>299</ele>
        <time>2021-06-06T07:39:00.443Z</time>
      </trkpt>
      <trkpt lat="45.7249" lon="5.37513">
        <ele>298</ele>
        <time>2021-06-06T07:39:01.443Z</time>
      </trkpt>
      <trkpt lat="45.72492" lon="5.37522">
        <ele>298</ele>
        <time>2021-06-06T07:39:02.443Z</time>
      </trkpt>
      <trkpt lat="45.72494" lon="5.3753">
        <ele>298</ele>
        <time>2021-06-06T07:39:03.444Z</time>
      </trkpt>
      <trkpt lat="45.72495" lon="5.37537">
        <ele>299</ele>
        <time>2021-06-06T07:39:04.443Z</time>
      </trkpt>
      <trkpt lat="45.72497" lon="5.37545">
        <ele>299</ele>
        <time>2021-06-06T07:39:05.444Z</time>
      </trkpt>
      <trkpt lat="45.72499" lon="5.37553">
        <ele>299</ele>
        <time>2021-06-06T07:39:06.443Z</time>
      </trkpt>
      <trkpt lat="45.72501" lon="5.3756">
        <ele>299</ele>
        <time>2021-06-06T07:39:07.443Z</time>
      </trkpt>
      <trkpt lat="45.72503" lon="5.37567">
        <ele>300</ele>
        <time>2021-06-06T07:39:08.444Z</time>
      </trkpt>
      <trkpt lat="45.72505" lon="5.37574">
        <ele>300</ele>
        <time>2021-06-06T07:39:09.444Z</time>
      </trkpt>
      <trkpt lat="45.72507" lon="5.37582">
        <ele>300</ele>
        <time>2021-06-06T07:39:10.443Z</time>
      </trkpt>
      <trkpt lat="45.72508" lon="5.37589">
        <ele>300</ele>
        <time>2021-06-06T07:39:11.444Z</time>
      </trkpt>
      <trkpt lat="45.7251" lon="5.37597">
        <ele>300</ele>
        <time>2021-06-06T07:39:12.444Z</time>
      </trkpt>
      <trkpt lat="45.72512" lon="5.37604">
        <ele>300</ele>
        <time>2021-06-06T07:39:13.443Z</time>
      </trkpt>
      <trkpt lat="45.72514" lon="5.37611">
        <ele>301</ele>
        <time>2021-06-06T07:39:14.444Z</time>
      </trkpt>
      <trkpt lat="45.72517" lon="5.37618">
        <ele>301</ele>
        <time>2021-06-06T07:39:15.443Z</time>
      </trkpt>
      <trkpt lat="45.72519" lon="5.37625">
        <ele>301</ele>
        <time>2021-06-06T07:39:16.443Z</time>
      </trkpt>
      <trkpt lat="45.72522" lon="5.37631">
        <ele>301</ele>
        <time>2021-06-06T07:39:17.444Z</time>
      </trkpt>
      <trkpt lat="45.72525" lon="5.37638">
        <ele>301</ele>
        <time>2021-06-06T07:39:18.444Z</time>
      </trkpt>
      <trkpt lat="45.72528" lon="5.37644">
        <ele>302</ele>
        <time>2021-06-06T07:39:19.444Z</time>
      </trkpt>
      <trkpt lat="45.72532" lon="5.3765">
        <ele>302</ele>
        <time>2021-06-06T07:39:20.443Z</time>
      </trkpt>
      <trkpt lat="45.72536" lon="5.37656">
        <ele>302</ele>
        <time>2021-06-06T07:39:21.443Z</time>
      </trkpt>
      <trkpt lat="45.72539" lon="5.37662">
        <ele>302</ele>
        <time>2021-06-06T07:39:22.444Z</time>
      </trkpt>
      <trkpt lat="45.72543" lon="5.37667">
        <ele>303</ele>
        <time>2021-06-06T07:39:23.444Z</time>
      </trkpt>
      <trkpt lat="45.72547" lon="5.37673">
        <ele>303</ele>
        <time>2021-06-06T07:39:24.443Z</time>
      </trkpt>
      <trkpt lat="45.72551" lon="5.37679">
        <ele>303</ele>
        <time>2021-06-06T07:39:25.444Z</time>
      </trkpt>
      <trkpt lat="45.72554" lon="5.37684">
        <ele>303</ele>
        <time>2021-06-06T07:39:26.443Z</time>
      </trkpt>
      <trkpt lat="45.72558" lon="5.3769">
        <ele>303</ele>
        <time>2021-06-06T07:39:27.443Z</time>
      </trkpt>
      <trkpt lat="45.72562" lon="5.37695">
        <ele>303</ele>
        <time>2021-06-06T07:39:28.444Z</time>
      </trkpt>
      <trkpt lat="45.72566" lon="5.377">
        <ele>303</ele>
        <time>2021-06-06T07:39:29.444Z</time>
      </trkpt>
      <trkpt lat="45.7257" lon="5.37705">
        <ele>303</ele>
        <time>2021-06-06T07:39:30.443Z</time>
      </trkpt>
      <trkpt lat="45.72573" lon="5.3771">
        <ele>303</ele>
        <time>2021-06-06T07:39:31.444Z</time>
      </trkpt>
      <trkpt lat="45.72577" lon="5.37715">
        <ele>303</ele>
        <time>2021-06-06T07:39:32.443Z</time>
      </trkpt>
      <trkpt lat="45.7258" lon="5.3772">
        <ele>303</ele>
        <time>2021-06-06T07:39:33.444Z</time>
      </trkpt>
      <trkpt lat="45.72584" lon="5.37725">
        <ele>303</ele>
        <time>2021-06-06T07:39:34.444Z</time>
      </trkpt>
      <trkpt lat="45.72587" lon="5.37729">
        <ele>303</ele>
        <time>2021-06-06T07:39:35.444Z</time>
      </trkpt>
      <trkpt lat="45.7259" lon="5.37734">
        <ele>303</ele>
        <time>2021-06-06T07:39:36.443Z</time>
      </trkpt>
      <trkpt lat="45.72593" lon="5.37739">
        <ele>303</ele>
        <time>2021-06-06T07:39:37.443Z</time>
      </trkpt>
      <trkpt lat="45.72596" lon="5.37744">
        <ele>303</ele>
        <time>2021-06-06T07:39:38.444Z</time>
      </trkpt>
      <trkpt lat="45.72599" lon="5.37748">
        <ele>303</ele>
        <time>2021-06-06T07:39:39.443Z</time>
      </trkpt>
      <trkpt lat="45.72602" lon="5.37752">
        <ele>304</ele>
        <time>2021-06-06T07:39:40.444Z</time>
      </trkpt>
      <trkpt lat="45.72605" lon="5.37757">
        <ele>304</ele>
        <time>2021-06-06T07:39:41.444Z</time>
      </trkpt>
      <trkpt lat="45.72608" lon="5.37761">
        <ele>304</ele>
        <time>2021-06-06T07:39:42.444Z</time>
      </trkpt>
      <trkpt lat="45.72611" lon="5.37765">
        <ele>304</ele>
        <time>2021-06-06T07:39:43.443Z</time>
      </trkpt>
      <trkpt lat="45.72614" lon="5.37769">
        <ele>304</ele>
        <time>2021-06-06T07:39:44.444Z</time>
      </trkpt>
      <trkpt lat="45.72617" lon="5.37773">
        <ele>304</ele>
        <time>2021-06-06T07:39:45.444Z</time>
      </trkpt>
      <trkpt lat="45.7262" lon="5.37777">
        <ele>304</ele>
        <time>2021-06-06T07:39:46.443Z</time>
      </trkpt>
      <trkpt lat="45.72623" lon="5.37781">
        <ele>304</ele>
        <time>2021-06-06T07:39:47.443Z</time>
      </trkpt>
      <trkpt lat="45.72625" lon="5.37785">
        <ele>304</ele>
        <time>2021-06-06T07:39:48.443Z</time>
      </trkpt>
      <trkpt lat="45.72628" lon="5.37788">
        <ele>304</ele>
        <time>2021-06-06T07:39:49.443Z</time>
      </trkpt>
      <trkpt lat="45.72631" lon="5.37792">
        <ele>305</ele>
        <time>2021-06-06T07:39:50.444Z</time>
      </trkpt>
      <trkpt lat="45.72634" lon="5.37796">
        <ele>305</ele>
        <time>2021-06-06T07:39:51.443Z</time>
      </trkpt>
      <trkpt lat="45.72637" lon="5.378">
        <ele>305</ele>
        <time>2021-06-06T07:39:52.444Z</time>
      </trkpt>
      <trkpt lat="45.7264" lon="5.37804">
        <ele>306</ele>
        <time>2021-06-06T07:39:53.444Z</time>
      </trkpt>
      <trkpt lat="45.72643" lon="5.37808">
        <ele>306</ele>
        <time>2021-06-06T07:39:54.444Z</time>
      </trkpt>
      <trkpt lat="45.72645" lon="5.37812">
        <ele>307</ele>
        <time>2021-06-06T07:39:55.444Z</time>
      </trkpt>
      <trkpt lat="45.72647" lon="5.37816">
        <ele>307</ele>
        <time>2021-06-06T07:39:56.443Z</time>
      </trkpt>
      <trkpt lat="45.72648" lon="5.3782">
        <ele>307</ele>
        <time>2021-06-06T07:39:57.444Z</time>
      </trkpt>
      <trkpt lat="45.7265" lon="5.37824">
        <ele>308</ele>
        <time>2021-06-06T07:39:58.443Z</time>
      </trkpt>
      <trkpt lat="45.72651" lon="5.37829">
        <ele>308</ele>
        <time>2021-06-06T07:39:59.443Z</time>
      </trkpt>
      <trkpt lat="45.72653" lon="5.37834">
        <ele>309</ele>
        <time>2021-06-06T07:40:00.443Z</time>
      </trkpt>
      <trkpt lat="45.72654" lon="5.37839">
        <ele>309</ele>
        <time>2021-06-06T07:40:01.443Z</time>
      </trkpt>
      <trkpt lat="45.72656" lon="5.37844">
        <ele>310</ele>
        <time>2021-06-06T07:40:02.443Z</time>
      </trkpt>
      <trkpt lat="45.72657" lon="5.37849">
        <ele>310</ele>
        <time>2021-06-06T07:40:03.444Z</time>
      </trkpt>
      <trkpt lat="45.72659" lon="5.37854">
        <ele>311</ele>
        <time>2021-06-06T07:40:04.444Z</time>
      </trkpt>
      <trkpt lat="45.7266" lon="5.37859">
        <ele>312</ele>
        <time>2021-06-06T07:40:05.444Z</time>
      </trkpt>
      <trkpt lat="45.72661" lon="5.37864">
        <ele>312</ele>
        <time>2021-06-06T07:40:06.444Z</time>
      </trkpt>
      <trkpt lat="45.72662" lon="5.37869">
        <ele>313</ele>
        <time>2021-06-06T07:40:07.444Z</time>
      </trkpt>
      <trkpt lat="45.72662" lon="5.37875">
        <ele>313</ele>
        <time>2021-06-06T07:40:08.443Z</time>
      </trkpt>
      <trkpt lat="45.72663" lon="5.3788">
        <ele>313</ele>
        <time>2021-06-06T07:40:09.443Z</time>
      </trkpt>
      <trkpt lat="45.72664" lon="5.37886">
        <ele>314</ele>
        <time>2021-06-06T07:40:10.444Z</time>
      </trkpt>
      <trkpt lat="45.72665" lon="5.37892">
        <ele>314</ele>
        <time>2021-06-06T07:40:11.443Z</time>
      </trkpt>
      <trkpt lat="45.72666" lon="5.37898">
        <ele>314</ele>
        <time>2021-06-06T07:40:12.443Z</time>
      </trkpt>
      <trkpt lat="45.72667" lon="5.37904">
        <ele>314</ele>
        <time>2021-06-06T07:40:13.443Z</time>
      </trkpt>
      <trkpt lat="45.72668" lon="5.37909">
        <ele>314</ele>
        <time>2021-06-06T07:40:14.443Z</time>
      </trkpt>
      <trkpt lat="45.7267" lon="5.37915">
        <ele>315</ele>
        <time>2021-06-06T07:40:15.444Z</time>
      </trkpt>
      <trkpt lat="45.72671" lon="5.3792">
        <ele>315</ele>
        <time>2021-06-06T07:40:16.443Z</time>
      </trkpt>
      <trkpt lat="45.72672" lon="5.37926">
        <ele>314</ele>
        <time>2021-06-06T07:40:17.443Z</time>
      </trkpt>
      <trkpt lat="45.72674" lon="5.37932">
        <ele>314</ele>
        <time>2021-06-06T07:40:18.443Z</time>
      </trkpt>
      <trkpt lat="45.72676" lon="5.37937">
        <ele>314</ele>
        <time>2021-06-06T07:40:19.443Z</time>
      </trkpt>
      <trkpt lat="45.72677" lon="5.37943">
        <ele>314</ele>
        <time>2021-06-06T07:40:20.444Z</time>
      </trkpt>
      <trkpt lat="45.72679" lon="5.37948">
        <ele>314</ele>
        <time>2021-06-06T07:40:21.443Z</time>
      </trkpt>
      <trkpt lat="45.72681" lon="5.37954">
        <ele>315</ele>
        <time>2021-06-06T07:40:22.443Z</time>
      </trkpt>
      <trkpt lat="45.72683" lon="5.3796">
        <ele>315</ele>
        <time>2021-06-06T07:40:23.443Z</time>
      </trkpt>
      <trkpt lat="45.72686" lon="5.37965">
        <ele>315</ele>
        <time>2021-06-06T07:40:24.443Z</time>
      </trkpt>
      <trkpt lat="45.72688" lon="5.37971">
        <ele>315</ele>
        <time>2021-06-06T07:40:25.444Z</time>
      </trkpt>
      <trkpt lat="45.7269" lon="5.37977">
        <ele>315</ele>
        <time>2021-06-06T07:40:26.443Z</time>
      </trkpt>
      <trkpt lat="45.72691" lon="5.37983">
        <ele>315</ele>
        <time>2021-06-06T07:40:27.444Z</time>
      </trkpt>
      <trkpt lat="45.72693" lon="5.3799">
        <ele>316</ele>
        <time>2021-06-06T07:40:28.443Z</time>
      </trkpt>
      <trkpt lat="45.72695" lon="5.37996">
        <ele>316</ele>
        <time>2021-06-06T07:40:29.444Z</time>
      </trkpt>
      <trkpt lat="45.72696" lon="5.38002">
        <ele>316</ele>
        <time>2021-06-06T07:40:30.444Z</time>
      </trkpt>
      <trkpt lat="45.72697" lon="5.38008">
        <ele>316</ele>
        <time>2021-06-06T07:40:31.443Z</time>
      </trkpt>
      <trkpt lat="45.72699" lon="5.38014">
        <ele>316</ele>
        <time>2021-06-06T07:40:32.444Z</time>
      </trkpt>
      <trkpt lat="45.72701" lon="5.38021">
        <ele>316</ele>
        <time>2021-06-06T07:40:33.443Z</time>
      </trkpt>
      <trkpt lat="45.72702" lon="5.38027">
        <ele>316</ele>
        <time>2021-06-06T07:40:34.444Z</time>
      </trkpt>
      <trkpt lat="45.72704" lon="5.38033">
        <ele>317</ele>
        <time>2021-06-06T07:40:35.443Z</time>
      </trkpt>
      <trkpt lat="45.72706" lon="5.38039">
        <ele>317</ele>
        <time>2021-06-06T07:40:36.444Z</time>
      </trkpt>
      <trkpt lat="45.72708" lon="5.38045">
        <ele>317</ele>
        <time>2021-06-06T07:40:37.444Z</time>
      </trkpt>
      <trkpt lat="45.7271" lon="5.38051">
        <ele>317</ele>
        <time>2021-06-06T07:40:38.443Z</time>
      </trkpt>
      <trkpt lat="45.72712" lon="5.38057">
        <ele>317</ele>
        <time>2021-06-06T07:40:39.444Z</time>
      </trkpt>
      <trkpt lat="45.72714" lon="5.38064">
        <ele>317</ele>
        <time>2021-06-06T07:40:40.443Z</time>
      </trkpt>
      <trkpt lat="45.72716" lon="5.3807">
        <ele>317</ele>
        <time>2021-06-06T07:40:41.444Z</time>
      </trkpt>
      <trkpt lat="45.72718" lon="5.38075">
        <ele>317</ele>
        <time>2021-06-06T07:40:42.443Z</time>
      </trkpt>
      <trkpt lat="45.72721" lon="5.3808">
        <ele>318</ele>
        <time>2021-06-06T07:40:43.444Z</time>
      </trkpt>
      <trkpt lat="45.72725" lon="5.38085">
        <ele>318</ele>
        <time>2021-06-06T07:40:44.444Z</time>
      </trkpt>
      <trkpt lat="45.72728" lon="5.3809">
        <ele>318</ele>
        <time>2021-06-06T07:40:45.443Z</time>
      </trkpt>
      <trkpt lat="45.72731" lon="5.38094">
        <ele>318</ele>
        <time>2021-06-06T07:40:46.443Z</time>
      </trkpt>
      <trkpt lat="45.72734" lon="5.38098">
        <ele>318</ele>
        <time>2021-06-06T07:40:47.443Z</time>
      </trkpt>
      <trkpt lat="45.72738" lon="5.38103">
        <ele>317</ele>
        <time>2021-06-06T07:40:48.443Z</time>
      </trkpt>
      <trkpt lat="45.72742" lon="5.38107">
        <ele>317</ele>
        <time>2021-06-06T07:40:49.443Z</time>
      </trkpt>
      <trkpt lat="45.72745" lon="5.38111">
        <ele>317</ele>
        <time>2021-06-06T07:40:50.443Z</time>
      </trkpt>
      <trkpt lat="45.72751" lon="5.38115">
        <ele>317</ele>
        <time>2021-06-06T07:40:51.443Z</time>
      </trkpt>
      <trkpt lat="45.72755" lon="5.38119">
        <ele>317</ele>
        <time>2021-06-06T07:40:52.443Z</time>
      </trkpt>
      <trkpt lat="45.72758" lon="5.38123">
        <ele>317</ele>
        <time>2021-06-06T07:40:53.443Z</time>
      </trkpt>
      <trkpt lat="45.72762" lon="5.38126">
        <ele>318</ele>
        <time>2021-06-06T07:40:54.443Z</time>
      </trkpt>
      <trkpt lat="45.72765" lon="5.3813">
        <ele>318</ele>
        <time>2021-06-06T07:40:55.443Z</time>
      </trkpt>
      <trkpt lat="45.72768" lon="5.38134">
        <ele>318</ele>
        <time>2021-06-06T07:40:56.443Z</time>
      </trkpt>
      <trkpt lat="45.72771" lon="5.38138">
        <ele>318</ele>
        <time>2021-06-06T07:40:57.443Z</time>
      </trkpt>
      <trkpt lat="45.72775" lon="5.38143">
        <ele>318</ele>
        <time>2021-06-06T07:40:58.443Z</time>
      </trkpt>
      <trkpt lat="45.72779" lon="5.38147">
        <ele>318</ele>
        <time>2021-06-06T07:40:59.444Z</time>
      </trkpt>
      <trkpt lat="45.72783" lon="5.38152">
        <ele>318</ele>
        <time>2021-06-06T07:41:00.443Z</time>
      </trkpt>
      <trkpt lat="45.72787" lon="5.38156">
        <ele>318</ele>
        <time>2021-06-06T07:41:01.443Z</time>
      </trkpt>
      <trkpt lat="45.72791" lon="5.3816">
        <ele>318</ele>
        <time>2021-06-06T07:41:02.443Z</time>
      </trkpt>
      <trkpt lat="45.72795" lon="5.38164">
        <ele>318</ele>
        <time>2021-06-06T07:41:03.443Z</time>
      </trkpt>
      <trkpt lat="45.728" lon="5.38169">
        <ele>318</ele>
        <time>2021-06-06T07:41:04.444Z</time>
      </trkpt>
      <trkpt lat="45.72804" lon="5.38172">
        <ele>318</ele>
        <time>2021-06-06T07:41:05.444Z</time>
      </trkpt>
      <trkpt lat="45.72808" lon="5.38176">
        <ele>318</ele>
        <time>2021-06-06T07:41:06.443Z</time>
      </trkpt>
      <trkpt lat="45.72813" lon="5.3818">
        <ele>318</ele>
        <time>2021-06-06T07:41:07.444Z</time>
      </trkpt>
      <trkpt lat="45.72817" lon="5.38183">
        <ele>318</ele>
        <time>2021-06-06T07:41:08.443Z</time>
      </trkpt>
      <trkpt lat="45.72821" lon="5.38186">
        <ele>319</ele>
        <time>2021-06-06T07:41:09.443Z</time>
      </trkpt>
      <trkpt lat="45.72826" lon="5.38189">
        <ele>318</ele>
        <time>2021-06-06T07:41:10.444Z</time>
      </trkpt>
      <trkpt lat="45.72832" lon="5.38191">
        <ele>318</ele>
        <time>2021-06-06T07:41:11.443Z</time>
      </trkpt>
      <trkpt lat="45.72837" lon="5.38193">
        <ele>318</ele>
        <time>2021-06-06T07:41:12.443Z</time>
      </trkpt>
      <trkpt lat="45.72843" lon="5.38195">
        <ele>318</ele>
        <time>2021-06-06T07:41:13.444Z</time>
      </trkpt>
      <trkpt lat="45.72849" lon="5.38197">
        <ele>318</ele>
        <time>2021-06-06T07:41:14.443Z</time>
      </trkpt>
      <trkpt lat="45.72855" lon="5.38199">
        <ele>319</ele>
        <time>2021-06-06T07:41:15.443Z</time>
      </trkpt>
      <trkpt lat="45.72862" lon="5.38201">
        <ele>319</ele>
        <time>2021-06-06T07:41:16.443Z</time>
      </trkpt>
      <trkpt lat="45.72869" lon="5.38203">
        <ele>319</ele>
        <time>2021-06-06T07:41:17.443Z</time>
      </trkpt>
      <trkpt lat="45.72876" lon="5.38205">
        <ele>319</ele>
        <time>2021-06-06T07:41:18.444Z</time>
      </trkpt>
      <trkpt lat="45.72883" lon="5.38207">
        <ele>319</ele>
        <time>2021-06-06T07:41:19.443Z</time>
      </trkpt>
      <trkpt lat="45.7289" lon="5.3821">
        <ele>318</ele>
        <time>2021-06-06T07:41:20.443Z</time>
      </trkpt>
      <trkpt lat="45.72897" lon="5.38212">
        <ele>318</ele>
        <time>2021-06-06T07:41:21.443Z</time>
      </trkpt>
      <trkpt lat="45.72905" lon="5.38214">
        <ele>318</ele>
        <time>2021-06-06T07:41:22.443Z</time>
      </trkpt>
      <trkpt lat="45.72912" lon="5.38216">
        <ele>318</ele>
        <time>2021-06-06T07:41:23.443Z</time>
      </trkpt>
      <trkpt lat="45.72919" lon="5.38219">
        <ele>317</ele>
        <time>2021-06-06T07:41:24.443Z</time>
      </trkpt>
      <trkpt lat="45.72926" lon="5.38221">
        <ele>317</ele>
        <time>2021-06-06T07:41:25.443Z</time>
      </trkpt>
      <trkpt lat="45.72933" lon="5.38224">
        <ele>316</ele>
        <time>2021-06-06T07:41:26.443Z</time>
      </trkpt>
      <trkpt lat="45.7294" lon="5.38227">
        <ele>316</ele>
        <time>2021-06-06T07:41:27.443Z</time>
      </trkpt>
      <trkpt lat="45.72947" lon="5.38231">
        <ele>316</ele>
        <time>2021-06-06T07:41:28.443Z</time>
      </trkpt>
      <trkpt lat="45.72953" lon="5.38235">
        <ele>315</ele>
        <time>2021-06-06T07:41:29.443Z</time>
      </trkpt>
      <trkpt lat="45.72959" lon="5.3824">
        <ele>315</ele>
        <time>2021-06-06T07:41:30.444Z</time>
      </trkpt>
      <trkpt lat="45.72966" lon="5.38245">
        <ele>315</ele>
        <time>2021-06-06T07:41:31.443Z</time>
      </trkpt>
      <trkpt lat="45.72972" lon="5.38249">
        <ele>315</ele>
        <time>2021-06-06T07:41:32.444Z</time>
      </trkpt>
      <trkpt lat="45.72979" lon="5.38253">
        <ele>314</ele>
        <time>2021-06-06T07:41:33.443Z</time>
      </trkpt>
      <trkpt lat="45.72985" lon="5.38256">
        <ele>314</ele>
        <time>2021-06-06T07:41:34.444Z</time>
      </trkpt>
      <trkpt lat="45.72992" lon="5.38258">
        <ele>314</ele>
        <time>2021-06-06T07:41:35.443Z</time>
      </trkpt>
      <trkpt lat="45.72999" lon="5.38259">
        <ele>314</ele>
        <time>2021-06-06T07:41:36.443Z</time>
      </trkpt>
      <trkpt lat="45.73006" lon="5.3826">
        <ele>314</ele>
        <time>2021-06-06T07:41:37.443Z</time>
      </trkpt>
      <trkpt lat="45.73013" lon="5.38262">
        <ele>314</ele>
        <time>2021-06-06T07:41:38.444Z</time>
      </trkpt>
      <trkpt lat="45.7302" lon="5.38264">
        <ele>314</ele>
        <time>2021-06-06T07:41:39.443Z</time>
      </trkpt>
      <trkpt lat="45.73027" lon="5.38266">
        <ele>314</ele>
        <time>2021-06-06T07:41:40.443Z</time>
      </trkpt>
      <trkpt lat="45.73033" lon="5.38269">
        <ele>314</ele>
        <time>2021-06-06T07:41:41.444Z</time>
      </trkpt>
      <trkpt lat="45.7304" lon="5.38273">
        <ele>314</ele>
        <time>2021-06-06T07:41:42.443Z</time>
      </trkpt>
      <trkpt lat="45.73046" lon="5.38276">
        <ele>314</ele>
        <time>2021-06-06T07:41:43.444Z</time>
      </trkpt>
      <trkpt lat="45.73053" lon="5.38279">
        <ele>314</ele>
        <time>2021-06-06T07:41:44.444Z</time>
      </trkpt>
      <trkpt lat="45.73059" lon="5.38283">
        <ele>313</ele>
        <time>2021-06-06T07:41:45.444Z</time>
      </trkpt>
      <trkpt lat="45.73066" lon="5.38287">
        <ele>313</ele>
        <time>2021-06-06T07:41:46.444Z</time>
      </trkpt>
      <trkpt lat="45.73072" lon="5.38291">
        <ele>313</ele>
        <time>2021-06-06T07:41:47.444Z</time>
      </trkpt>
      <trkpt lat="45.73079" lon="5.38295">
        <ele>313</ele>
        <time>2021-06-06T07:41:48.444Z</time>
      </trkpt>
      <trkpt lat="45.73085" lon="5.38299">
        <ele>313</ele>
        <time>2021-06-06T07:41:49.444Z</time>
      </trkpt>
      <trkpt lat="45.73092" lon="5.38303">
        <ele>313</ele>
        <time>2021-06-06T07:41:50.444Z</time>
      </trkpt>
      <trkpt lat="45.73099" lon="5.38308">
        <ele>313</ele>
        <time>2021-06-06T07:41:51.444Z</time>
      </trkpt>
      <trkpt lat="45.73105" lon="5.38312">
        <ele>314</ele>
        <time>2021-06-06T07:41:52.444Z</time>
      </trkpt>
      <trkpt lat="45.73111" lon="5.38316">
        <ele>314</ele>
        <time>2021-06-06T07:41:53.444Z</time>
      </trkpt>
      <trkpt lat="45.73117" lon="5.38321">
        <ele>314</ele>
        <time>2021-06-06T07:41:54.443Z</time>
      </trkpt>
      <trkpt lat="45.73123" lon="5.38326">
        <ele>315</ele>
        <time>2021-06-06T07:41:55.444Z</time>
      </trkpt>
      <trkpt lat="45.73129" lon="5.38331">
        <ele>315</ele>
        <time>2021-06-06T07:41:56.444Z</time>
      </trkpt>
      <trkpt lat="45.73136" lon="5.38337">
        <ele>315</ele>
        <time>2021-06-06T07:41:57.443Z</time>
      </trkpt>
      <trkpt lat="45.73142" lon="5.38342">
        <ele>315</ele>
        <time>2021-06-06T07:41:58.444Z</time>
      </trkpt>
      <trkpt lat="45.73149" lon="5.38348">
        <ele>316</ele>
        <time>2021-06-06T07:41:59.444Z</time>
      </trkpt>
      <trkpt lat="45.73155" lon="5.38353">
        <ele>316</ele>
        <time>2021-06-06T07:42:00.444Z</time>
      </trkpt>
      <trkpt lat="45.73161" lon="5.38358">
        <ele>315</ele>
        <time>2021-06-06T07:42:01.443Z</time>
      </trkpt>
      <trkpt lat="45.73167" lon="5.38364">
        <ele>315</ele>
        <time>2021-06-06T07:42:02.444Z</time>
      </trkpt>
      <trkpt lat="45.73173" lon="5.3837">
        <ele>315</ele>
        <time>2021-06-06T07:42:03.444Z</time>
      </trkpt>
      <trkpt lat="45.73179" lon="5.38375">
        <ele>315</ele>
        <time>2021-06-06T07:42:04.443Z</time>
      </trkpt>
      <trkpt lat="45.73185" lon="5.38381">
        <ele>315</ele>
        <time>2021-06-06T07:42:05.444Z</time>
      </trkpt>
      <trkpt lat="45.73191" lon="5.38386">
        <ele>315</ele>
        <time>2021-06-06T07:42:06.444Z</time>
      </trkpt>
      <trkpt lat="45.73198" lon="5.38392">
        <ele>314</ele>
        <time>2021-06-06T07:42:07.443Z</time>
      </trkpt>
      <trkpt lat="45.73204" lon="5.38398">
        <ele>314</ele>
        <time>2021-06-06T07:42:08.444Z</time>
      </trkpt>
      <trkpt lat="45.73211" lon="5.38403">
        <ele>314</ele>
        <time>2021-06-06T07:42:09.444Z</time>
      </trkpt>
      <trkpt lat="45.73217" lon="5.38409">
        <ele>314</ele>
        <time>2021-06-06T07:42:10.443Z</time>
      </trkpt>
      <trkpt lat="45.73223" lon="5.38414">
        <ele>313</ele>
        <time>2021-06-06T07:42:11.443Z</time>
      </trkpt>
      <trkpt lat="45.7323" lon="5.38419">
        <ele>313</ele>
        <time>2021-06-06T07:42:12.443Z</time>
      </trkpt>
      <trkpt lat="45.73236" lon="5.38424">
        <ele>313</ele>
        <time>2021-06-06T07:42:13.444Z</time>
      </trkpt>
      <trkpt lat="45.73242" lon="5.38429">
        <ele>313</ele>
        <time>2021-06-06T07:42:14.444Z</time>
      </trkpt>
      <trkpt lat="45.73248" lon="5.38434">
        <ele>314</ele>
        <time>2021-06-06T07:42:15.444Z</time>
      </trkpt>
      <trkpt lat="45.73254" lon="5.38439">
        <ele>314</ele>
        <time>2021-06-06T07:42:16.443Z</time>
      </trkpt>
      <trkpt lat="45.7326" lon="5.38444">
        <ele>314</ele>
        <time>2021-06-06T07:42:17.443Z</time>
      </trkpt>
      <trkpt lat="45.73266" lon="5.38449">
        <ele>314</ele>
        <time>2021-06-06T07:42:18.444Z</time>
      </trkpt>
      <trkpt lat="45.73271" lon="5.38454">
        <ele>314</ele>
        <time>2021-06-06T07:42:19.444Z</time>
      </trkpt>
      <trkpt lat="45.73277" lon="5.38459">
        <ele>314</ele>
        <time>2021-06-06T07:42:20.444Z</time>
      </trkpt>
      <trkpt lat="45.73283" lon="5.38464">
        <ele>314</ele>
        <time>2021-06-06T07:42:21.444Z</time>
      </trkpt>
      <trkpt lat="45.73289" lon="5.38468">
        <ele>313</ele>
        <time>2021-06-06T07:42:22.444Z</time>
      </trkpt>
      <trkpt lat="45.73294" lon="5.38473">
        <ele>313</ele>
        <time>2021-06-06T07:42:23.444Z</time>
      </trkpt>
      <trkpt lat="45.73299" lon="5.38478">
        <ele>313</ele>
        <time>2021-06-06T07:42:24.444Z</time>
      </trkpt>
      <trkpt lat="45.73305" lon="5.38482">
        <ele>313</ele>
        <time>2021-06-06T07:42:25.444Z</time>
      </trkpt>
      <trkpt lat="45.7331" lon="5.38487">
        <ele>313</ele>
        <time>2021-06-06T07:42:26.444Z</time>
      </trkpt>
      <trkpt lat="45.73315" lon="5.38492">
        <ele>313</ele>
        <time>2021-06-06T07:42:27.443Z</time>
      </trkpt>
      <trkpt lat="45.7332" lon="5.38497">
        <ele>313</ele>
        <time>2021-06-06T07:42:28.443Z</time>
      </trkpt>
      <trkpt lat="45.73325" lon="5.38503">
        <ele>314</ele>
        <time>2021-06-06T07:42:29.444Z</time>
      </trkpt>
      <trkpt lat="45.7333" lon="5.38508">
        <ele>314</ele>
        <time>2021-06-06T07:42:30.443Z</time>
      </trkpt>
      <trkpt lat="45.73335" lon="5.38514">
        <ele>314</ele>
        <time>2021-06-06T07:42:31.444Z</time>
      </trkpt>
      <trkpt lat="45.7334" lon="5.3852">
        <ele>313</ele>
        <time>2021-06-06T07:42:32.443Z</time>
      </trkpt>
      <trkpt lat="45.73345" lon="5.38526">
        <ele>313</ele>
        <time>2021-06-06T07:42:33.444Z</time>
      </trkpt>
      <trkpt lat="45.73351" lon="5.38533">
        <ele>313</ele>
        <time>2021-06-06T07:42:34.443Z</time>
      </trkpt>
      <trkpt lat="45.73356" lon="5.38539">
        <ele>313</ele>
        <time>2021-06-06T07:42:35.443Z</time>
      </trkpt>
      <trkpt lat="45.73361" lon="5.38545">
        <ele>313</ele>
        <time>2021-06-06T07:42:36.444Z</time>
      </trkpt>
      <trkpt lat="45.73367" lon="5.3855">
        <ele>313</ele>
        <time>2021-06-06T07:42:37.444Z</time>
      </trkpt>
      <trkpt lat="45.73373" lon="5.38556">
        <ele>313</ele>
        <time>2021-06-06T07:42:38.443Z</time>
      </trkpt>
      <trkpt lat="45.73378" lon="5.38563">
        <ele>313</ele>
        <time>2021-06-06T07:42:39.444Z</time>
      </trkpt>
      <trkpt lat="45.73383" lon="5.38569">
        <ele>313</ele>
        <time>2021-06-06T07:42:40.444Z</time>
      </trkpt>
      <trkpt lat="45.73388" lon="5.38576">
        <ele>313</ele>
        <time>2021-06-06T07:42:41.443Z</time>
      </trkpt>
      <trkpt lat="45.73394" lon="5.38582">
        <ele>313</ele>
        <time>2021-06-06T07:42:42.444Z</time>
      </trkpt>
      <trkpt lat="45.73398" lon="5.38589">
        <ele>313</ele>
        <time>2021-06-06T07:42:43.444Z</time>
      </trkpt>
      <trkpt lat="45.73403" lon="5.38596">
        <ele>312</ele>
        <time>2021-06-06T07:42:44.444Z</time>
      </trkpt>
      <trkpt lat="45.73408" lon="5.38603">
        <ele>312</ele>
        <time>2021-06-06T07:42:45.444Z</time>
      </trkpt>
      <trkpt lat="45.73413" lon="5.3861">
        <ele>312</ele>
        <time>2021-06-06T07:42:46.444Z</time>
      </trkpt>
      <trkpt lat="45.73418" lon="5.38617">
        <ele>312</ele>
        <time>2021-06-06T07:42:47.444Z</time>
      </trkpt>
      <trkpt lat="45.73423" lon="5.38624">
        <ele>312</ele>
        <time>2021-06-06T07:42:48.443Z</time>
      </trkpt>
      <trkpt lat="45.73427" lon="5.38631">
        <ele>311</ele>
        <time>2021-06-06T07:42:49.444Z</time>
      </trkpt>
      <trkpt lat="45.73432" lon="5.38638">
        <ele>311</ele>
        <time>2021-06-06T07:42:50.444Z</time>
      </trkpt>
      <trkpt lat="45.73436" lon="5.38645">
        <ele>311</ele>
        <time>2021-06-06T07:42:51.444Z</time>
      </trkpt>
      <trkpt lat="45.7344" lon="5.38651">
        <ele>311</ele>
        <time>2021-06-06T07:42:52.444Z</time>
      </trkpt>
      <trkpt lat="45.73444" lon="5.38658">
        <ele>312</ele>
        <time>2021-06-06T07:42:53.444Z</time>
      </trkpt>
      <trkpt lat="45.73448" lon="5.38665">
        <ele>312</ele>
        <time>2021-06-06T07:42:54.444Z</time>
      </trkpt>
      <trkpt lat="45.73453" lon="5.38671">
        <ele>312</ele>
        <time>2021-06-06T07:42:55.443Z</time>
      </trkpt>
      <trkpt lat="45.73458" lon="5.38676">
        <ele>312</ele>
        <time>2021-06-06T07:42:56.444Z</time>
      </trkpt>
      <trkpt lat="45.73463" lon="5.38682">
        <ele>311</ele>
        <time>2021-06-06T07:42:57.444Z</time>
      </trkpt>
      <trkpt lat="45.73468" lon="5.38687">
        <ele>311</ele>
        <time>2021-06-06T07:42:58.444Z</time>
      </trkpt>
      <trkpt lat="45.73473" lon="5.38692">
        <ele>312</ele>
        <time>2021-06-06T07:42:59.444Z</time>
      </trkpt>
      <trkpt lat="45.73478" lon="5.38696">
        <ele>312</ele>
        <time>2021-06-06T07:43:00.444Z</time>
      </trkpt>
      <trkpt lat="45.73484" lon="5.38701">
        <ele>312</ele>
        <time>2021-06-06T07:43:01.444Z</time>
      </trkpt>
      <trkpt lat="45.73489" lon="5.38706">
        <ele>312</ele>
        <time>2021-06-06T07:43:02.444Z</time>
      </trkpt>
      <trkpt lat="45.73494" lon="5.38712">
        <ele>312</ele>
        <time>2021-06-06T07:43:03.444Z</time>
      </trkpt>
      <trkpt lat="45.73498" lon="5.38719">
        <ele>312</ele>
        <time>2021-06-06T07:43:04.443Z</time>
      </trkpt>
      <trkpt lat="45.73502" lon="5.38728">
        <ele>311</ele>
        <time>2021-06-06T07:43:05.443Z</time>
      </trkpt>
      <trkpt lat="45.73504" lon="5.38737">
        <ele>311</ele>
        <time>2021-06-06T07:43:06.444Z</time>
      </trkpt>
      <trkpt lat="45.73506" lon="5.38747">
        <ele>311</ele>
        <time>2021-06-06T07:43:07.444Z</time>
      </trkpt>
      <trkpt lat="45.73507" lon="5.38758">
        <ele>310</ele>
        <time>2021-06-06T07:43:08.444Z</time>
      </trkpt>
      <trkpt lat="45.73508" lon="5.38769">
        <ele>309</ele>
        <time>2021-06-06T07:43:09.444Z</time>
      </trkpt>
      <trkpt lat="45.73508" lon="5.38781">
        <ele>309</ele>
        <time>2021-06-06T07:43:10.444Z</time>
      </trkpt>
      <trkpt lat="45.73508" lon="5.38793">
        <ele>308</ele>
        <time>2021-06-06T07:43:11.444Z</time>
      </trkpt>
      <trkpt lat="45.73507" lon="5.38806">
        <ele>308</ele>
        <time>2021-06-06T07:43:12.443Z</time>
      </trkpt>
      <trkpt lat="45.73507" lon="5.38818">
        <ele>307</ele>
        <time>2021-06-06T07:43:13.443Z</time>
      </trkpt>
      <trkpt lat="45.73507" lon="5.38832">
        <ele>307</ele>
        <time>2021-06-06T07:43:14.444Z</time>
      </trkpt>
      <trkpt lat="45.73507" lon="5.38845">
        <ele>306</ele>
        <time>2021-06-06T07:43:15.444Z</time>
      </trkpt>
      <trkpt lat="45.73507" lon="5.38859">
        <ele>306</ele>
        <time>2021-06-06T07:43:16.444Z</time>
      </trkpt>
      <trkpt lat="45.73507" lon="5.38872">
        <ele>306</ele>
        <time>2021-06-06T07:43:17.444Z</time>
      </trkpt>
      <trkpt lat="45.73507" lon="5.38887">
        <ele>306</ele>
        <time>2021-06-06T07:43:18.443Z</time>
      </trkpt>
      <trkpt lat="45.73507" lon="5.38901">
        <ele>306</ele>
        <time>2021-06-06T07:43:19.444Z</time>
      </trkpt>
      <trkpt lat="45.73507" lon="5.38916">
        <ele>306</ele>
        <time>2021-06-06T07:43:20.443Z</time>
      </trkpt>
      <trkpt lat="45.73507" lon="5.38931">
        <ele>306</ele>
        <time>2021-06-06T07:43:21.443Z</time>
      </trkpt>
      <trkpt lat="45.73507" lon="5.38946">
        <ele>306</ele>
        <time>2021-06-06T07:43:22.444Z</time>
      </trkpt>
      <trkpt lat="45.73507" lon="5.38961">
        <ele>305</ele>
        <time>2021-06-06T07:43:23.444Z</time>
      </trkpt>
      <trkpt lat="45.73508" lon="5.38975">
        <ele>305</ele>
        <time>2021-06-06T07:43:24.443Z</time>
      </trkpt>
      <trkpt lat="45.73509" lon="5.38989">
        <ele>305</ele>
        <time>2021-06-06T07:43:25.443Z</time>
      </trkpt>
      <trkpt lat="45.73513" lon="5.39001">
        <ele>305</ele>
        <time>2021-06-06T07:43:26.444Z</time>
      </trkpt>
      <trkpt lat="45.73518" lon="5.39011">
        <ele>304</ele>
        <time>2021-06-06T07:43:27.443Z</time>
      </trkpt>
      <trkpt lat="45.73525" lon="5.3902">
        <ele>304</ele>
        <time>2021-06-06T07:43:28.443Z</time>
      </trkpt>
      <trkpt lat="45.73533" lon="5.39027">
        <ele>303</ele>
        <time>2021-06-06T07:43:29.443Z</time>
      </trkpt>
      <trkpt lat="45.73542" lon="5.3903">
        <ele>303</ele>
        <time>2021-06-06T07:43:30.444Z</time>
      </trkpt>
      <trkpt lat="45.73552" lon="5.39029">
        <ele>302</ele>
        <time>2021-06-06T07:43:31.444Z</time>
      </trkpt>
      <trkpt lat="45.73562" lon="5.39026">
        <ele>301</ele>
        <time>2021-06-06T07:43:32.444Z</time>
      </trkpt>
      <trkpt lat="45.73571" lon="5.3902">
        <ele>301</ele>
        <time>2021-06-06T07:43:33.444Z</time>
      </trkpt>
      <trkpt lat="45.7358" lon="5.39012">
        <ele>300</ele>
        <time>2021-06-06T07:43:34.443Z</time>
      </trkpt>
      <trkpt lat="45.73589" lon="5.39004">
        <ele>299</ele>
        <time>2021-06-06T07:43:35.444Z</time>
      </trkpt>
      <trkpt lat="45.73598" lon="5.38997">
        <ele>299</ele>
        <time>2021-06-06T07:43:36.444Z</time>
      </trkpt>
      <trkpt lat="45.73607" lon="5.38994">
        <ele>298</ele>
        <time>2021-06-06T07:43:37.444Z</time>
      </trkpt>
      <trkpt lat="45.73616" lon="5.38995">
        <ele>298</ele>
        <time>2021-06-06T07:43:38.444Z</time>
      </trkpt>
      <trkpt lat="45.73625" lon="5.38999">
        <ele>297</ele>
        <time>2021-06-06T07:43:39.444Z</time>
      </trkpt>
      <trkpt lat="45.73634" lon="5.39006">
        <ele>297</ele>
        <time>2021-06-06T07:43:40.444Z</time>
      </trkpt>
      <trkpt lat="45.73642" lon="5.39014">
        <ele>296</ele>
        <time>2021-06-06T07:43:41.444Z</time>
      </trkpt>
      <trkpt lat="45.73651" lon="5.39022">
        <ele>296</ele>
        <time>2021-06-06T07:43:42.444Z</time>
      </trkpt>
      <trkpt lat="45.7366" lon="5.3903">
        <ele>295</ele>
        <time>2021-06-06T07:43:43.443Z</time>
      </trkpt>
      <trkpt lat="45.73669" lon="5.39037">
        <ele>294</ele>
        <time>2021-06-06T07:43:44.444Z</time>
      </trkpt>
      <trkpt lat="45.73679" lon="5.39042">
        <ele>294</ele>
        <time>2021-06-06T07:43:45.443Z</time>
      </trkpt>
      <trkpt lat="45.73688" lon="5.39047">
        <ele>294</ele>
        <time>2021-06-06T07:43:46.444Z</time>
      </trkpt>
      <trkpt lat="45.73698" lon="5.39052">
        <ele>293</ele>
        <time>2021-06-06T07:43:47.444Z</time>
      </trkpt>
      <trkpt lat="45.73707" lon="5.39057">
        <ele>292</ele>
        <time>2021-06-06T07:43:48.444Z</time>
      </trkpt>
      <trkpt lat="45.73716" lon="5.39061">
        <ele>292</ele>
        <time>2021-06-06T07:43:49.444Z</time>
      </trkpt>
      <trkpt lat="45.73725" lon="5.39065">
        <ele>291</ele>
        <time>2021-06-06T07:43:50.443Z</time>
      </trkpt>
      <trkpt lat="45.73733" lon="5.3907">
        <ele>291</ele>
        <time>2021-06-06T07:43:51.443Z</time>
      </trkpt>
      <trkpt lat="45.73742" lon="5.39075">
        <ele>290</ele>
        <time>2021-06-06T07:43:52.443Z</time>
      </trkpt>
      <trkpt lat="45.7375" lon="5.39082">
        <ele>290</ele>
        <time>2021-06-06T07:43:53.444Z</time>
      </trkpt>
      <trkpt lat="45.73757" lon="5.39089">
        <ele>290</ele>
        <time>2021-06-06T07:43:54.444Z</time>
      </trkpt>
      <trkpt lat="45.73764" lon="5.39097">
        <ele>289</ele>
        <time>2021-06-06T07:43:55.444Z</time>
      </trkpt>
      <trkpt lat="45.73771" lon="5.39106">
        <ele>289</ele>
        <time>2021-06-06T07:43:56.444Z</time>
      </trkpt>
      <trkpt lat="45.73777" lon="5.39114">
        <ele>289</ele>
        <time>2021-06-06T07:43:57.443Z</time>
      </trkpt>
      <trkpt lat="45.73783" lon="5.39124">
        <ele>289</ele>
        <time>2021-06-06T07:43:58.444Z</time>
      </trkpt>
      <trkpt lat="45.73788" lon="5.39133">
        <ele>289</ele>
        <time>2021-06-06T07:43:59.444Z</time>
      </trkpt>
      <trkpt lat="45.73794" lon="5.39142">
        <ele>289</ele>
        <time>2021-06-06T07:44:00.444Z</time>
      </trkpt>
      <trkpt lat="45.738" lon="5.39152">
        <ele>289</ele>
        <time>2021-06-06T07:44:01.444Z</time>
      </trkpt>
      <trkpt lat="45.73805" lon="5.39161">
        <ele>289</ele>
        <time>2021-06-06T07:44:02.444Z</time>
      </trkpt>
      <trkpt lat="45.73811" lon="5.3917">
        <ele>289</ele>
        <time>2021-06-06T07:44:03.444Z</time>
      </trkpt>
      <trkpt lat="45.73816" lon="5.3918">
        <ele>289</ele>
        <time>2021-06-06T07:44:04.444Z</time>
      </trkpt>
      <trkpt lat="45.73821" lon="5.39189">
        <ele>289</ele>
        <time>2021-06-06T07:44:05.443Z</time>
      </trkpt>
      <trkpt lat="45.73827" lon="5.39198">
        <ele>289</ele>
        <time>2021-06-06T07:44:06.443Z</time>
      </trkpt>
      <trkpt lat="45.73833" lon="5.39208">
        <ele>289</ele>
        <time>2021-06-06T07:44:07.444Z</time>
      </trkpt>
      <trkpt lat="45.73838" lon="5.39217">
        <ele>289</ele>
        <time>2021-06-06T07:44:08.444Z</time>
      </trkpt>
      <trkpt lat="45.73843" lon="5.39226">
        <ele>289</ele>
        <time>2021-06-06T07:44:09.444Z</time>
      </trkpt>
      <trkpt lat="45.73848" lon="5.39235">
        <ele>289</ele>
        <time>2021-06-06T07:44:10.443Z</time>
      </trkpt>
      <trkpt lat="45.73853" lon="5.39244">
        <ele>289</ele>
        <time>2021-06-06T07:44:11.444Z</time>
      </trkpt>
      <trkpt lat="45.73857" lon="5.39253">
        <ele>289</ele>
        <time>2021-06-06T07:44:12.444Z</time>
      </trkpt>
      <trkpt lat="45.73861" lon="5.39262">
        <ele>289</ele>
        <time>2021-06-06T07:44:13.444Z</time>
      </trkpt>
      <trkpt lat="45.73865" lon="5.39271">
        <ele>289</ele>
        <time>2021-06-06T07:44:14.444Z</time>
      </trkpt>
      <trkpt lat="45.73867" lon="5.39281">
        <ele>289</ele>
        <time>2021-06-06T07:44:15.443Z</time>
      </trkpt>
      <trkpt lat="45.73869" lon="5.39292">
        <ele>289</ele>
        <time>2021-06-06T07:44:16.444Z</time>
      </trkpt>
      <trkpt lat="45.73871" lon="5.39303">
        <ele>288</ele>
        <time>2021-06-06T07:44:17.444Z</time>
      </trkpt>
      <trkpt lat="45.73872" lon="5.39314">
        <ele>288</ele>
        <time>2021-06-06T07:44:18.444Z</time>
      </trkpt>
      <trkpt lat="45.73874" lon="5.39324">
        <ele>287</ele>
        <time>2021-06-06T07:44:19.444Z</time>
      </trkpt>
      <trkpt lat="45.73875" lon="5.39336">
        <ele>287</ele>
        <time>2021-06-06T07:44:20.444Z</time>
      </trkpt>
      <trkpt lat="45.73876" lon="5.39347">
        <ele>286</ele>
        <time>2021-06-06T07:44:21.444Z</time>
      </trkpt>
      <trkpt lat="45.73878" lon="5.39358">
        <ele>286</ele>
        <time>2021-06-06T07:44:22.443Z</time>
      </trkpt>
      <trkpt lat="45.73879" lon="5.39369">
        <ele>285</ele>
        <time>2021-06-06T07:44:23.443Z</time>
      </trkpt>
      <trkpt lat="45.7388" lon="5.3938">
        <ele>285</ele>
        <time>2021-06-06T07:44:24.444Z</time>
      </trkpt>
      <trkpt lat="45.73881" lon="5.39391">
        <ele>285</ele>
        <time>2021-06-06T07:44:25.444Z</time>
      </trkpt>
      <trkpt lat="45.73883" lon="5.39402">
        <ele>285</ele>
        <time>2021-06-06T07:44:26.443Z</time>
      </trkpt>
      <trkpt lat="45.73885" lon="5.39413">
        <ele>284</ele>
        <time>2021-06-06T07:44:27.444Z</time>
      </trkpt>
      <trkpt lat="45.73888" lon="5.39424">
        <ele>284</ele>
        <time>2021-06-06T07:44:28.443Z</time>
      </trkpt>
      <trkpt lat="45.73891" lon="5.39434">
        <ele>284</ele>
        <time>2021-06-06T07:44:29.444Z</time>
      </trkpt>
      <trkpt lat="45.73893" lon="5.39443">
        <ele>284</ele>
        <time>2021-06-06T07:44:30.444Z</time>
      </trkpt>
      <trkpt lat="45.73897" lon="5.39453">
        <ele>285</ele>
        <time>2021-06-06T07:44:31.444Z</time>
      </trkpt>
      <trkpt lat="45.739" lon="5.39461">
        <ele>285</ele>
        <time>2021-06-06T07:44:32.443Z</time>
      </trkpt>
      <trkpt lat="45.73905" lon="5.3947">
        <ele>285</ele>
        <time>2021-06-06T07:44:33.443Z</time>
      </trkpt>
      <trkpt lat="45.73909" lon="5.39478">
        <ele>286</ele>
        <time>2021-06-06T07:44:34.443Z</time>
      </trkpt>
      <trkpt lat="45.73914" lon="5.39485">
        <ele>286</ele>
        <time>2021-06-06T07:44:35.444Z</time>
      </trkpt>
      <trkpt lat="45.73919" lon="5.39493">
        <ele>286</ele>
        <time>2021-06-06T07:44:36.444Z</time>
      </trkpt>
      <trkpt lat="45.73925" lon="5.395">
        <ele>285</ele>
        <time>2021-06-06T07:44:37.444Z</time>
      </trkpt>
      <trkpt lat="45.73931" lon="5.39506">
        <ele>285</ele>
        <time>2021-06-06T07:44:38.444Z</time>
      </trkpt>
      <trkpt lat="45.73937" lon="5.39512">
        <ele>285</ele>
        <time>2021-06-06T07:44:39.443Z</time>
      </trkpt>
      <trkpt lat="45.73944" lon="5.39518">
        <ele>284</ele>
        <time>2021-06-06T07:44:40.444Z</time>
      </trkpt>
      <trkpt lat="45.73951" lon="5.39524">
        <ele>284</ele>
        <time>2021-06-06T07:44:41.444Z</time>
      </trkpt>
      <trkpt lat="45.73957" lon="5.3953">
        <ele>284</ele>
        <time>2021-06-06T07:44:42.444Z</time>
      </trkpt>
      <trkpt lat="45.73963" lon="5.39537">
        <ele>284</ele>
        <time>2021-06-06T07:44:43.443Z</time>
      </trkpt>
      <trkpt lat="45.73969" lon="5.39544">
        <ele>283</ele>
        <time>2021-06-06T07:44:44.444Z</time>
      </trkpt>
      <trkpt lat="45.73975" lon="5.39551">
        <ele>284</ele>
        <time>2021-06-06T07:44:45.443Z</time>
      </trkpt>
      <trkpt lat="45.7398" lon="5.39558">
        <ele>284</ele>
        <time>2021-06-06T07:44:46.444Z</time>
      </trkpt>
      <trkpt lat="45.73985" lon="5.39566">
        <ele>284</ele>
        <time>2021-06-06T07:44:47.444Z</time>
      </trkpt>
      <trkpt lat="45.7399" lon="5.39573">
        <ele>285</ele>
        <time>2021-06-06T07:44:48.443Z</time>
      </trkpt>
      <trkpt lat="45.73995" lon="5.39581">
        <ele>285</ele>
        <time>2021-06-06T07:44:49.443Z</time>
      </trkpt>
      <trkpt lat="45.74" lon="5.39588">
        <ele>285</ele>
        <time>2021-06-06T07:44:50.444Z</time>
      </trkpt>
      <trkpt lat="45.74005" lon="5.39595">
        <ele>285</ele>
        <time>2021-06-06T07:44:51.443Z</time>
      </trkpt>
      <trkpt lat="45.7401" lon="5.39602">
        <ele>285</ele>
        <time>2021-06-06T07:44:52.444Z</time>
      </trkpt>
      <trkpt lat="45.74015" lon="5.39608">
        <ele>284</ele>
        <time>2021-06-06T07:44:53.444Z</time>
      </trkpt>
      <trkpt lat="45.7402" lon="5.39613">
        <ele>284</ele>
        <time>2021-06-06T07:44:54.444Z</time>
      </trkpt>
      <trkpt lat="45.74025" lon="5.39619">
        <ele>284</ele>
        <time>2021-06-06T07:44:55.443Z</time>
      </trkpt>
      <trkpt lat="45.7403" lon="5.39623">
        <ele>284</ele>
        <time>2021-06-06T07:44:56.444Z</time>
      </trkpt>
      <trkpt lat="45.74035" lon="5.39627">
        <ele>284</ele>
        <time>2021-06-06T07:44:57.444Z</time>
      </trkpt>
      <trkpt lat="45.74041" lon="5.39631">
        <ele>284</ele>
        <time>2021-06-06T07:44:58.444Z</time>
      </trkpt>
      <trkpt lat="45.74046" lon="5.39634">
        <ele>285</ele>
        <time>2021-06-06T07:44:59.444Z</time>
      </trkpt>
      <trkpt lat="45.74052" lon="5.39637">
        <ele>285</ele>
        <time>2021-06-06T07:45:00.443Z</time>
      </trkpt>
      <trkpt lat="45.74058" lon="5.3964">
        <ele>285</ele>
        <time>2021-06-06T07:45:01.443Z</time>
      </trkpt>
      <trkpt lat="45.74064" lon="5.39643">
        <ele>286</ele>
        <time>2021-06-06T07:45:02.444Z</time>
      </trkpt>
      <trkpt lat="45.7407" lon="5.39646">
        <ele>286</ele>
        <time>2021-06-06T07:45:03.444Z</time>
      </trkpt>
      <trkpt lat="45.74076" lon="5.3965">
        <ele>286</ele>
        <time>2021-06-06T07:45:04.444Z</time>
      </trkpt>
      <trkpt lat="45.74082" lon="5.39654">
        <ele>286</ele>
        <time>2021-06-06T07:45:05.444Z</time>
      </trkpt>
      <trkpt lat="45.74089" lon="5.39658">
        <ele>286</ele>
        <time>2021-06-06T07:45:06.444Z</time>
      </trkpt>
      <trkpt lat="45.74095" lon="5.39663">
        <ele>285</ele>
        <time>2021-06-06T07:45:07.443Z</time>
      </trkpt>
      <trkpt lat="45.74101" lon="5.39668">
        <ele>285</ele>
        <time>2021-06-06T07:45:08.444Z</time>
      </trkpt>
      <trkpt lat="45.74107" lon="5.39674">
        <ele>285</ele>
        <time>2021-06-06T07:45:09.443Z</time>
      </trkpt>
      <trkpt lat="45.74113" lon="5.39681">
        <ele>284</ele>
        <time>2021-06-06T07:45:10.443Z</time>
      </trkpt>
      <trkpt lat="45.7412" lon="5.39687">
        <ele>283</ele>
        <time>2021-06-06T07:45:11.444Z</time>
      </trkpt>
      <trkpt lat="45.74126" lon="5.39694">
        <ele>283</ele>
        <time>2021-06-06T07:45:12.444Z</time>
      </trkpt>
      <trkpt lat="45.74133" lon="5.397">
        <ele>282</ele>
        <time>2021-06-06T07:45:13.444Z</time>
      </trkpt>
      <trkpt lat="45.74139" lon="5.39707">
        <ele>282</ele>
        <time>2021-06-06T07:45:14.444Z</time>
      </trkpt>
      <trkpt lat="45.74145" lon="5.39713">
        <ele>281</ele>
        <time>2021-06-06T07:45:15.443Z</time>
      </trkpt>
      <trkpt lat="45.74151" lon="5.3972">
        <ele>281</ele>
        <time>2021-06-06T07:45:16.444Z</time>
      </trkpt>
      <trkpt lat="45.74157" lon="5.39727">
        <ele>281</ele>
        <time>2021-06-06T07:45:17.444Z</time>
      </trkpt>
      <trkpt lat="45.74163" lon="5.39735">
        <ele>281</ele>
        <time>2021-06-06T07:45:18.444Z</time>
      </trkpt>
      <trkpt lat="45.74169" lon="5.39742">
        <ele>281</ele>
        <time>2021-06-06T07:45:19.444Z</time>
      </trkpt>
      <trkpt lat="45.74174" lon="5.39751">
        <ele>281</ele>
        <time>2021-06-06T07:45:20.443Z</time>
      </trkpt>
      <trkpt lat="45.7418" lon="5.39759">
        <ele>281</ele>
        <time>2021-06-06T07:45:21.443Z</time>
      </trkpt>
      <trkpt lat="45.74185" lon="5.39768">
        <ele>281</ele>
        <time>2021-06-06T07:45:22.443Z</time>
      </trkpt>
      <trkpt lat="45.7419" lon="5.39777">
        <ele>281</ele>
        <time>2021-06-06T07:45:23.444Z</time>
      </trkpt>
      <trkpt lat="45.74195" lon="5.39786">
        <ele>281</ele>
        <time>2021-06-06T07:45:24.444Z</time>
      </trkpt>
      <trkpt lat="45.74201" lon="5.39795">
        <ele>281</ele>
        <time>2021-06-06T07:45:25.443Z</time>
      </trkpt>
      <trkpt lat="45.74207" lon="5.39806">
        <ele>281</ele>
        <time>2021-06-06T07:45:26.444Z</time>
      </trkpt>
      <trkpt lat="45.74211" lon="5.39813">
        <ele>281</ele>
        <time>2021-06-06T07:45:27.443Z</time>
      </trkpt>
      <trkpt lat="45.74216" lon="5.39823">
        <ele>280</ele>
        <time>2021-06-06T07:45:28.444Z</time>
      </trkpt>
      <trkpt lat="45.74221" lon="5.39832">
        <ele>280</ele>
        <time>2021-06-06T07:45:29.444Z</time>
      </trkpt>
      <trkpt lat="45.74226" lon="5.39842">
        <ele>279</ele>
        <time>2021-06-06T07:45:30.444Z</time>
      </trkpt>
      <trkpt lat="45.74231" lon="5.39851">
        <ele>278</ele>
        <time>2021-06-06T07:45:31.443Z</time>
      </trkpt>
      <trkpt lat="45.74236" lon="5.3986">
        <ele>278</ele>
        <time>2021-06-06T07:45:32.444Z</time>
      </trkpt>
      <trkpt lat="45.74242" lon="5.39869">
        <ele>277</ele>
        <time>2021-06-06T07:45:33.444Z</time>
      </trkpt>
      <trkpt lat="45.74248" lon="5.39878">
        <ele>277</ele>
        <time>2021-06-06T07:45:34.444Z</time>
      </trkpt>
      <trkpt lat="45.74253" lon="5.39886">
        <ele>277</ele>
        <time>2021-06-06T07:45:35.444Z</time>
      </trkpt>
      <trkpt lat="45.74259" lon="5.39894">
        <ele>277</ele>
        <time>2021-06-06T07:45:36.444Z</time>
      </trkpt>
      <trkpt lat="45.74265" lon="5.39902">
        <ele>277</ele>
        <time>2021-06-06T07:45:37.444Z</time>
      </trkpt>
      <trkpt lat="45.74272" lon="5.39909">
        <ele>277</ele>
        <time>2021-06-06T07:45:38.444Z</time>
      </trkpt>
      <trkpt lat="45.74278" lon="5.39917">
        <ele>277</ele>
        <time>2021-06-06T07:45:39.443Z</time>
      </trkpt>
      <trkpt lat="45.74284" lon="5.39924">
        <ele>277</ele>
        <time>2021-06-06T07:45:40.443Z</time>
      </trkpt>
      <trkpt lat="45.74291" lon="5.39931">
        <ele>277</ele>
        <time>2021-06-06T07:45:41.443Z</time>
      </trkpt>
      <trkpt lat="45.74298" lon="5.39938">
        <ele>277</ele>
        <time>2021-06-06T07:45:42.444Z</time>
      </trkpt>
      <trkpt lat="45.74304" lon="5.39944">
        <ele>277</ele>
        <time>2021-06-06T07:45:43.443Z</time>
      </trkpt>
      <trkpt lat="45.74312" lon="5.3995">
        <ele>277</ele>
        <time>2021-06-06T07:45:44.444Z</time>
      </trkpt>
      <trkpt lat="45.74319" lon="5.39956">
        <ele>277</ele>
        <time>2021-06-06T07:45:45.444Z</time>
      </trkpt>
      <trkpt lat="45.74326" lon="5.39962">
        <ele>276</ele>
        <time>2021-06-06T07:45:46.443Z</time>
      </trkpt>
      <trkpt lat="45.74333" lon="5.39969">
        <ele>276</ele>
        <time>2021-06-06T07:45:47.444Z</time>
      </trkpt>
      <trkpt lat="45.74339" lon="5.39975">
        <ele>276</ele>
        <time>2021-06-06T07:45:48.444Z</time>
      </trkpt>
      <trkpt lat="45.74346" lon="5.39982">
        <ele>276</ele>
        <time>2021-06-06T07:45:49.444Z</time>
      </trkpt>
      <trkpt lat="45.74352" lon="5.39989">
        <ele>276</ele>
        <time>2021-06-06T07:45:50.444Z</time>
      </trkpt>
      <trkpt lat="45.74358" lon="5.39996">
        <ele>276</ele>
        <time>2021-06-06T07:45:51.444Z</time>
      </trkpt>
      <trkpt lat="45.74364" lon="5.40004">
        <ele>275</ele>
        <time>2021-06-06T07:45:52.443Z</time>
      </trkpt>
      <trkpt lat="45.74369" lon="5.40012">
        <ele>275</ele>
        <time>2021-06-06T07:45:53.444Z</time>
      </trkpt>
      <trkpt lat="45.74374" lon="5.4002">
        <ele>275</ele>
        <time>2021-06-06T07:45:54.444Z</time>
      </trkpt>
      <trkpt lat="45.7438" lon="5.40028">
        <ele>274</ele>
        <time>2021-06-06T07:45:55.444Z</time>
      </trkpt>
      <trkpt lat="45.74385" lon="5.40036">
        <ele>274</ele>
        <time>2021-06-06T07:45:56.444Z</time>
      </trkpt>
      <trkpt lat="45.7439" lon="5.40043">
        <ele>274</ele>
        <time>2021-06-06T07:45:57.444Z</time>
      </trkpt>
      <trkpt lat="45.74395" lon="5.4005">
        <ele>274</ele>
        <time>2021-06-06T07:45:58.443Z</time>
      </trkpt>
      <trkpt lat="45.744" lon="5.40057">
        <ele>274</ele>
        <time>2021-06-06T07:45:59.444Z</time>
      </trkpt>
      <trkpt lat="45.74406" lon="5.40063">
        <ele>274</ele>
        <time>2021-06-06T07:46:00.444Z</time>
      </trkpt>
      <trkpt lat="45.74411" lon="5.4007">
        <ele>274</ele>
        <time>2021-06-06T07:46:01.444Z</time>
      </trkpt>
      <trkpt lat="45.74417" lon="5.40076">
        <ele>273</ele>
        <time>2021-06-06T07:46:02.444Z</time>
      </trkpt>
      <trkpt lat="45.74423" lon="5.40082">
        <ele>273</ele>
        <time>2021-06-06T07:46:03.443Z</time>
      </trkpt>
      <trkpt lat="45.74429" lon="5.40087">
        <ele>274</ele>
        <time>2021-06-06T07:46:04.443Z</time>
      </trkpt>
      <trkpt lat="45.74435" lon="5.40093">
        <ele>274</ele>
        <time>2021-06-06T07:46:05.444Z</time>
      </trkpt>
      <trkpt lat="45.74441" lon="5.40098">
        <ele>274</ele>
        <time>2021-06-06T07:46:06.443Z</time>
      </trkpt>
      <trkpt lat="45.74446" lon="5.40103">
        <ele>274</ele>
        <time>2021-06-06T07:46:07.443Z</time>
      </trkpt>
      <trkpt lat="45.74452" lon="5.40108">
        <ele>274</ele>
        <time>2021-06-06T07:46:08.444Z</time>
      </trkpt>
      <trkpt lat="45.74458" lon="5.40112">
        <ele>273</ele>
        <time>2021-06-06T07:46:09.444Z</time>
      </trkpt>
      <trkpt lat="45.74464" lon="5.40117">
        <ele>273</ele>
        <time>2021-06-06T07:46:10.444Z</time>
      </trkpt>
      <trkpt lat="45.7447" lon="5.40121">
        <ele>274</ele>
        <time>2021-06-06T07:46:11.443Z</time>
      </trkpt>
      <trkpt lat="45.74476" lon="5.40125">
        <ele>274</ele>
        <time>2021-06-06T07:46:12.444Z</time>
      </trkpt>
      <trkpt lat="45.74482" lon="5.40129">
        <ele>274</ele>
        <time>2021-06-06T07:46:13.444Z</time>
      </trkpt>
      <trkpt lat="45.74488" lon="5.40133">
        <ele>273</ele>
        <time>2021-06-06T07:46:14.444Z</time>
      </trkpt>
      <trkpt lat="45.74494" lon="5.40137">
        <ele>273</ele>
        <time>2021-06-06T07:46:15.443Z</time>
      </trkpt>
      <trkpt lat="45.74501" lon="5.40141">
        <ele>273</ele>
        <time>2021-06-06T07:46:16.444Z</time>
      </trkpt>
      <trkpt lat="45.74507" lon="5.40145">
        <ele>273</ele>
        <time>2021-06-06T07:46:17.444Z</time>
      </trkpt>
      <trkpt lat="45.74513" lon="5.40148">
        <ele>273</ele>
        <time>2021-06-06T07:46:18.444Z</time>
      </trkpt>
      <trkpt lat="45.74519" lon="5.40152">
        <ele>273</ele>
        <time>2021-06-06T07:46:19.444Z</time>
      </trkpt>
      <trkpt lat="45.74525" lon="5.40156">
        <ele>273</ele>
        <time>2021-06-06T07:46:20.444Z</time>
      </trkpt>
      <trkpt lat="45.74531" lon="5.4016">
        <ele>273</ele>
        <time>2021-06-06T07:46:21.444Z</time>
      </trkpt>
      <trkpt lat="45.74537" lon="5.40164">
        <ele>273</ele>
        <time>2021-06-06T07:46:22.444Z</time>
      </trkpt>
      <trkpt lat="45.74543" lon="5.40169">
        <ele>273</ele>
        <time>2021-06-06T07:46:23.443Z</time>
      </trkpt>
      <trkpt lat="45.74549" lon="5.40173">
        <ele>273</ele>
        <time>2021-06-06T07:46:24.444Z</time>
      </trkpt>
      <trkpt lat="45.74555" lon="5.40177">
        <ele>274</ele>
        <time>2021-06-06T07:46:25.444Z</time>
      </trkpt>
      <trkpt lat="45.7456" lon="5.40181">
        <ele>274</ele>
        <time>2021-06-06T07:46:26.444Z</time>
      </trkpt>
      <trkpt lat="45.74566" lon="5.40185">
        <ele>274</ele>
        <time>2021-06-06T07:46:27.444Z</time>
      </trkpt>
      <trkpt lat="45.74572" lon="5.4019">
        <ele>274</ele>
        <time>2021-06-06T07:46:28.444Z</time>
      </trkpt>
      <trkpt lat="45.74578" lon="5.40195">
        <ele>273</ele>
        <time>2021-06-06T07:46:29.444Z</time>
      </trkpt>
      <trkpt lat="45.74584" lon="5.40199">
        <ele>273</ele>
        <time>2021-06-06T07:46:30.444Z</time>
      </trkpt>
      <trkpt lat="45.7459" lon="5.40204">
        <ele>273</ele>
        <time>2021-06-06T07:46:31.443Z</time>
      </trkpt>
      <trkpt lat="45.74596" lon="5.40208">
        <ele>272</ele>
        <time>2021-06-06T07:46:32.444Z</time>
      </trkpt>
      <trkpt lat="45.74602" lon="5.40212">
        <ele>273</ele>
        <time>2021-06-06T07:46:33.444Z</time>
      </trkpt>
      <trkpt lat="45.74608" lon="5.40217">
        <ele>273</ele>
        <time>2021-06-06T07:46:34.444Z</time>
      </trkpt>
      <trkpt lat="45.74614" lon="5.40221">
        <ele>273</ele>
        <time>2021-06-06T07:46:35.443Z</time>
      </trkpt>
      <trkpt lat="45.7462" lon="5.40225">
        <ele>273</ele>
        <time>2021-06-06T07:46:36.444Z</time>
      </trkpt>
      <trkpt lat="45.74626" lon="5.40229">
        <ele>273</ele>
        <time>2021-06-06T07:46:37.443Z</time>
      </trkpt>
      <trkpt lat="45.74632" lon="5.40233">
        <ele>273</ele>
        <time>2021-06-06T07:46:38.443Z</time>
      </trkpt>
      <trkpt lat="45.74639" lon="5.40238">
        <ele>273</ele>
        <time>2021-06-06T07:46:39.444Z</time>
      </trkpt>
      <trkpt lat="45.74645" lon="5.40242">
        <ele>273</ele>
        <time>2021-06-06T07:46:40.444Z</time>
      </trkpt>
      <trkpt lat="45.74652" lon="5.40246">
        <ele>273</ele>
        <time>2021-06-06T07:46:41.443Z</time>
      </trkpt>
      <trkpt lat="45.74658" lon="5.4025">
        <ele>273</ele>
        <time>2021-06-06T07:46:42.443Z</time>
      </trkpt>
      <trkpt lat="45.74665" lon="5.40254">
        <ele>273</ele>
        <time>2021-06-06T07:46:43.444Z</time>
      </trkpt>
      <trkpt lat="45.74671" lon="5.40257">
        <ele>273</ele>
        <time>2021-06-06T07:46:44.443Z</time>
      </trkpt>
      <trkpt lat="45.74678" lon="5.40261">
        <ele>273</ele>
        <time>2021-06-06T07:46:45.444Z</time>
      </trkpt>
      <trkpt lat="45.74684" lon="5.40265">
        <ele>272</ele>
        <time>2021-06-06T07:46:46.444Z</time>
      </trkpt>
      <trkpt lat="45.74691" lon="5.40268">
        <ele>272</ele>
        <time>2021-06-06T07:46:47.444Z</time>
      </trkpt>
      <trkpt lat="45.74698" lon="5.40271">
        <ele>272</ele>
        <time>2021-06-06T07:46:48.444Z</time>
      </trkpt>
      <trkpt lat="45.74704" lon="5.40274">
        <ele>273</ele>
        <time>2021-06-06T07:46:49.443Z</time>
      </trkpt>
      <trkpt lat="45.74711" lon="5.40278">
        <ele>273</ele>
        <time>2021-06-06T07:46:50.444Z</time>
      </trkpt>
      <trkpt lat="45.74718" lon="5.40281">
        <ele>273</ele>
        <time>2021-06-06T07:46:51.444Z</time>
      </trkpt>
      <trkpt lat="45.74724" lon="5.40284">
        <ele>274</ele>
        <time>2021-06-06T07:46:52.444Z</time>
      </trkpt>
      <trkpt lat="45.74731" lon="5.40287">
        <ele>274</ele>
        <time>2021-06-06T07:46:53.444Z</time>
      </trkpt>
      <trkpt lat="45.74738" lon="5.4029">
        <ele>275</ele>
        <time>2021-06-06T07:46:54.443Z</time>
      </trkpt>
      <trkpt lat="45.74745" lon="5.40293">
        <ele>275</ele>
        <time>2021-06-06T07:46:55.443Z</time>
      </trkpt>
      <trkpt lat="45.74752" lon="5.40296">
        <ele>275</ele>
        <time>2021-06-06T07:46:56.444Z</time>
      </trkpt>
      <trkpt lat="45.74759" lon="5.40299">
        <ele>274</ele>
        <time>2021-06-06T07:46:57.444Z</time>
      </trkpt>
      <trkpt lat="45.74766" lon="5.40302">
        <ele>274</ele>
        <time>2021-06-06T07:46:58.444Z</time>
      </trkpt>
      <trkpt lat="45.74772" lon="5.40305">
        <ele>273</ele>
        <time>2021-06-06T07:46:59.443Z</time>
      </trkpt>
      <trkpt lat="45.7478" lon="5.40308">
        <ele>273</ele>
        <time>2021-06-06T07:47:00.444Z</time>
      </trkpt>
      <trkpt lat="45.74787" lon="5.4031">
        <ele>272</ele>
        <time>2021-06-06T07:47:01.443Z</time>
      </trkpt>
      <trkpt lat="45.74794" lon="5.40313">
        <ele>272</ele>
        <time>2021-06-06T07:47:02.444Z</time>
      </trkpt>
      <trkpt lat="45.74801" lon="5.40315">
        <ele>272</ele>
        <time>2021-06-06T07:47:03.444Z</time>
      </trkpt>
      <trkpt lat="45.74808" lon="5.40318">
        <ele>272</ele>
        <time>2021-06-06T07:47:04.444Z</time>
      </trkpt>
      <trkpt lat="45.74816" lon="5.40321">
        <ele>272</ele>
        <time>2021-06-06T07:47:05.443Z</time>
      </trkpt>
      <trkpt lat="45.74823" lon="5.40323">
        <ele>273</ele>
        <time>2021-06-06T07:47:06.443Z</time>
      </trkpt>
      <trkpt lat="45.7483" lon="5.40326">
        <ele>273</ele>
        <time>2021-06-06T07:47:07.443Z</time>
      </trkpt>
      <trkpt lat="45.74837" lon="5.40329">
        <ele>272</ele>
        <time>2021-06-06T07:47:08.444Z</time>
      </trkpt>
      <trkpt lat="45.74845" lon="5.40331">
        <ele>272</ele>
        <time>2021-06-06T07:47:09.444Z</time>
      </trkpt>
      <trkpt lat="45.74852" lon="5.40334">
        <ele>272</ele>
        <time>2021-06-06T07:47:10.444Z</time>
      </trkpt>
      <trkpt lat="45.74859" lon="5.40336">
        <ele>272</ele>
        <time>2021-06-06T07:47:11.444Z</time>
      </trkpt>
      <trkpt lat="45.74866" lon="5.40339">
        <ele>273</ele>
        <time>2021-06-06T07:47:12.444Z</time>
      </trkpt>
      <trkpt lat="45.74874" lon="5.40341">
        <ele>272</ele>
        <time>2021-06-06T07:47:13.444Z</time>
      </trkpt>
      <trkpt lat="45.74881" lon="5.40344">
        <ele>273</ele>
        <time>2021-06-06T07:47:14.444Z</time>
      </trkpt>
      <trkpt lat="45.74888" lon="5.40347">
        <ele>273</ele>
        <time>2021-06-06T07:47:15.444Z</time>
      </trkpt>
      <trkpt lat="45.74895" lon="5.40349">
        <ele>272</ele>
        <time>2021-06-06T07:47:16.443Z</time>
      </trkpt>
      <trkpt lat="45.74902" lon="5.40352">
        <ele>272</ele>
        <time>2021-06-06T07:47:17.444Z</time>
      </trkpt>
      <trkpt lat="45.74909" lon="5.40354">
        <ele>272</ele>
        <time>2021-06-06T07:47:18.444Z</time>
      </trkpt>
      <trkpt lat="45.74916" lon="5.40357">
        <ele>272</ele>
        <time>2021-06-06T07:47:19.444Z</time>
      </trkpt>
      <trkpt lat="45.74923" lon="5.40359">
        <ele>272</ele>
        <time>2021-06-06T07:47:20.444Z</time>
      </trkpt>
      <trkpt lat="45.7493" lon="5.40362">
        <ele>272</ele>
        <time>2021-06-06T07:47:21.443Z</time>
      </trkpt>
      <trkpt lat="45.74936" lon="5.40364">
        <ele>272</ele>
        <time>2021-06-06T07:47:22.443Z</time>
      </trkpt>
      <trkpt lat="45.74942" lon="5.40366">
        <ele>272</ele>
        <time>2021-06-06T07:47:23.444Z</time>
      </trkpt>
      <trkpt lat="45.74948" lon="5.40369">
        <ele>272</ele>
        <time>2021-06-06T07:47:24.443Z</time>
      </trkpt>
      <trkpt lat="45.74953" lon="5.40372">
        <ele>271</ele>
        <time>2021-06-06T07:47:25.444Z</time>
      </trkpt>
      <trkpt lat="45.74958" lon="5.40377">
        <ele>271</ele>
        <time>2021-06-06T07:47:26.444Z</time>
      </trkpt>
      <trkpt lat="45.74961" lon="5.40382">
        <ele>271</ele>
        <time>2021-06-06T07:47:27.444Z</time>
      </trkpt>
      <trkpt lat="45.74964" lon="5.40388">
        <ele>271</ele>
        <time>2021-06-06T07:47:28.444Z</time>
      </trkpt>
      <trkpt lat="45.74967" lon="5.40394">
        <ele>271</ele>
        <time>2021-06-06T07:47:29.444Z</time>
      </trkpt>
      <trkpt lat="45.7497" lon="5.40399">
        <ele>271</ele>
        <time>2021-06-06T07:47:30.444Z</time>
      </trkpt>
      <trkpt lat="45.74974" lon="5.40403">
        <ele>271</ele>
        <time>2021-06-06T07:47:31.444Z</time>
      </trkpt>
      <trkpt lat="45.74979" lon="5.40406">
        <ele>271</ele>
        <time>2021-06-06T07:47:32.443Z</time>
      </trkpt>
      <trkpt lat="45.74984" lon="5.40407">
        <ele>271</ele>
        <time>2021-06-06T07:47:33.444Z</time>
      </trkpt>
      <trkpt lat="45.7499" lon="5.40408">
        <ele>271</ele>
        <time>2021-06-06T07:47:34.444Z</time>
      </trkpt>
      <trkpt lat="45.74996" lon="5.40407">
        <ele>271</ele>
        <time>2021-06-06T07:47:35.444Z</time>
      </trkpt>
      <trkpt lat="45.75002" lon="5.40407">
        <ele>271</ele>
        <time>2021-06-06T07:47:36.444Z</time>
      </trkpt>
      <trkpt lat="45.75009" lon="5.40406">
        <ele>271</ele>
        <time>2021-06-06T07:47:37.443Z</time>
      </trkpt>
      <trkpt lat="45.75015" lon="5.40405">
        <ele>271</ele>
        <time>2021-06-06T07:47:38.444Z</time>
      </trkpt>
      <trkpt lat="45.75021" lon="5.40404">
        <ele>271</ele>
        <time>2021-06-06T07:47:39.443Z</time>
      </trkpt>
      <trkpt lat="45.75028" lon="5.40404">
        <ele>271</ele>
        <time>2021-06-06T07:47:40.443Z</time>
      </trkpt>
      <trkpt lat="45.75034" lon="5.40403">
        <ele>271</ele>
        <time>2021-06-06T07:47:41.444Z</time>
      </trkpt>
      <trkpt lat="45.75041" lon="5.40403">
        <ele>272</ele>
        <time>2021-06-06T07:47:42.443Z</time>
      </trkpt>
      <trkpt lat="45.75047" lon="5.40404">
        <ele>272</ele>
        <time>2021-06-06T07:47:43.444Z</time>
      </trkpt>
      <trkpt lat="45.75053" lon="5.40407">
        <ele>272</ele>
        <time>2021-06-06T07:47:44.444Z</time>
      </trkpt>
      <trkpt lat="45.75059" lon="5.4041">
        <ele>272</ele>
        <time>2021-06-06T07:47:45.443Z</time>
      </trkpt>
      <trkpt lat="45.75065" lon="5.40414">
        <ele>272</ele>
        <time>2021-06-06T07:47:46.444Z</time>
      </trkpt>
      <trkpt lat="45.75071" lon="5.40419">
        <ele>272</ele>
        <time>2021-06-06T07:47:47.444Z</time>
      </trkpt>
      <trkpt lat="45.75077" lon="5.40424">
        <ele>273</ele>
        <time>2021-06-06T07:47:48.444Z</time>
      </trkpt>
      <trkpt lat="45.75083" lon="5.4043">
        <ele>272</ele>
        <time>2021-06-06T07:47:49.444Z</time>
      </trkpt>
      <trkpt lat="45.75089" lon="5.40435">
        <ele>272</ele>
        <time>2021-06-06T07:47:50.444Z</time>
      </trkpt>
      <trkpt lat="45.75095" lon="5.40441">
        <ele>271</ele>
        <time>2021-06-06T07:47:51.444Z</time>
      </trkpt>
      <trkpt lat="45.75101" lon="5.40446">
        <ele>271</ele>
        <time>2021-06-06T07:47:52.444Z</time>
      </trkpt>
      <trkpt lat="45.75107" lon="5.40452">
        <ele>271</ele>
        <time>2021-06-06T07:47:53.444Z</time>
      </trkpt>
      <trkpt lat="45.75113" lon="5.40457">
        <ele>271</ele>
        <time>2021-06-06T07:47:54.444Z</time>
      </trkpt>
      <trkpt lat="45.7512" lon="5.40463">
        <ele>271</ele>
        <time>2021-06-06T07:47:55.444Z</time>
      </trkpt>
      <trkpt lat="45.75126" lon="5.40468">
        <ele>271</ele>
        <time>2021-06-06T07:47:56.444Z</time>
      </trkpt>
      <trkpt lat="45.75133" lon="5.40474">
        <ele>271</ele>
        <time>2021-06-06T07:47:57.444Z</time>
      </trkpt>
      <trkpt lat="45.75139" lon="5.40479">
        <ele>271</ele>
        <time>2021-06-06T07:47:58.443Z</time>
      </trkpt>
      <trkpt lat="45.75146" lon="5.40484">
        <ele>271</ele>
        <time>2021-06-06T07:47:59.443Z</time>
      </trkpt>
      <trkpt lat="45.75154" lon="5.40489">
        <ele>271</ele>
        <time>2021-06-06T07:48:00.444Z</time>
      </trkpt>
      <trkpt lat="45.75161" lon="5.40493">
        <ele>271</ele>
        <time>2021-06-06T07:48:01.444Z</time>
      </trkpt>
      <trkpt lat="45.75168" lon="5.40498">
        <ele>272</ele>
        <time>2021-06-06T07:48:02.444Z</time>
      </trkpt>
      <trkpt lat="45.75175" lon="5.40502">
        <ele>272</ele>
        <time>2021-06-06T07:48:03.444Z</time>
      </trkpt>
      <trkpt lat="45.75183" lon="5.40505">
        <ele>272</ele>
        <time>2021-06-06T07:48:04.444Z</time>
      </trkpt>
      <trkpt lat="45.7519" lon="5.40509">
        <ele>272</ele>
        <time>2021-06-06T07:48:05.444Z</time>
      </trkpt>
      <trkpt lat="45.75198" lon="5.40513">
        <ele>272</ele>
        <time>2021-06-06T07:48:06.444Z</time>
      </trkpt>
      <trkpt lat="45.75206" lon="5.40516">
        <ele>272</ele>
        <time>2021-06-06T07:48:07.444Z</time>
      </trkpt>
      <trkpt lat="45.75213" lon="5.40519">
        <ele>272</ele>
        <time>2021-06-06T07:48:08.444Z</time>
      </trkpt>
      <trkpt lat="45.75221" lon="5.40522">
        <ele>272</ele>
        <time>2021-06-06T07:48:09.443Z</time>
      </trkpt>
      <trkpt lat="45.75229" lon="5.40525">
        <ele>272</ele>
        <time>2021-06-06T07:48:10.443Z</time>
      </trkpt>
      <trkpt lat="45.75236" lon="5.40528">
        <ele>272</ele>
        <time>2021-06-06T07:48:11.443Z</time>
      </trkpt>
      <trkpt lat="45.75244" lon="5.40531">
        <ele>273</ele>
        <time>2021-06-06T07:48:12.444Z</time>
      </trkpt>
      <trkpt lat="45.75252" lon="5.40534">
        <ele>273</ele>
        <time>2021-06-06T07:48:13.444Z</time>
      </trkpt>
      <trkpt lat="45.75259" lon="5.40538">
        <ele>273</ele>
        <time>2021-06-06T07:48:14.443Z</time>
      </trkpt>
      <trkpt lat="45.75267" lon="5.40541">
        <ele>272</ele>
        <time>2021-06-06T07:48:15.443Z</time>
      </trkpt>
      <trkpt lat="45.75275" lon="5.40544">
        <ele>272</ele>
        <time>2021-06-06T07:48:16.444Z</time>
      </trkpt>
      <trkpt lat="45.75282" lon="5.40548">
        <ele>272</ele>
        <time>2021-06-06T07:48:17.444Z</time>
      </trkpt>
      <trkpt lat="45.7529" lon="5.40551">
        <ele>272</ele>
        <time>2021-06-06T07:48:18.444Z</time>
      </trkpt>
      <trkpt lat="45.75297" lon="5.40554">
        <ele>272</ele>
        <time>2021-06-06T07:48:19.444Z</time>
      </trkpt>
      <trkpt lat="45.75306" lon="5.40558">
        <ele>271</ele>
        <time>2021-06-06T07:48:20.443Z</time>
      </trkpt>
      <trkpt lat="45.75312" lon="5.40561">
        <ele>271</ele>
        <time>2021-06-06T07:48:21.443Z</time>
      </trkpt>
      <trkpt lat="45.75319" lon="5.40564">
        <ele>271</ele>
        <time>2021-06-06T07:48:22.444Z</time>
      </trkpt>
      <trkpt lat="45.75326" lon="5.40568">
        <ele>271</ele>
        <time>2021-06-06T07:48:23.444Z</time>
      </trkpt>
      <trkpt lat="45.75333" lon="5.40571">
        <ele>271</ele>
        <time>2021-06-06T07:48:24.443Z</time>
      </trkpt>
      <trkpt lat="45.7534" lon="5.40575">
        <ele>271</ele>
        <time>2021-06-06T07:48:25.444Z</time>
      </trkpt>
      <trkpt lat="45.75346" lon="5.40579">
        <ele>271</ele>
        <time>2021-06-06T07:48:26.443Z</time>
      </trkpt>
      <trkpt lat="45.75353" lon="5.40583">
        <ele>271</ele>
        <time>2021-06-06T07:48:27.444Z</time>
      </trkpt>
      <trkpt lat="45.7536" lon="5.40588">
        <ele>271</ele>
        <time>2021-06-06T07:48:28.444Z</time>
      </trkpt>
      <trkpt lat="45.75367" lon="5.40592">
        <ele>271</ele>
        <time>2021-06-06T07:48:29.444Z</time>
      </trkpt>
      <trkpt lat="45.75374" lon="5.40597">
        <ele>270</ele>
        <time>2021-06-06T07:48:30.443Z</time>
      </trkpt>
      <trkpt lat="45.75381" lon="5.40601">
        <ele>270</ele>
        <time>2021-06-06T07:48:31.443Z</time>
      </trkpt>
      <trkpt lat="45.75388" lon="5.40605">
        <ele>270</ele>
        <time>2021-06-06T07:48:32.444Z</time>
      </trkpt>
      <trkpt lat="45.75395" lon="5.40609">
        <ele>270</ele>
        <time>2021-06-06T07:48:33.444Z</time>
      </trkpt>
      <trkpt lat="45.75403" lon="5.40613">
        <ele>271</ele>
        <time>2021-06-06T07:48:34.444Z</time>
      </trkpt>
      <trkpt lat="45.7541" lon="5.40617">
        <ele>271</ele>
        <time>2021-06-06T07:48:35.444Z</time>
      </trkpt>
      <trkpt lat="45.75418" lon="5.40621">
        <ele>270</ele>
        <time>2021-06-06T07:48:36.444Z</time>
      </trkpt>
      <trkpt lat="45.75425" lon="5.40625">
        <ele>270</ele>
        <time>2021-06-06T07:48:37.443Z</time>
      </trkpt>
      <trkpt lat="45.75433" lon="5.40628">
        <ele>270</ele>
        <time>2021-06-06T07:48:38.443Z</time>
      </trkpt>
      <trkpt lat="45.7544" lon="5.40632">
        <ele>270</ele>
        <time>2021-06-06T07:48:39.444Z</time>
      </trkpt>
      <trkpt lat="45.75448" lon="5.40636">
        <ele>270</ele>
        <time>2021-06-06T07:48:40.444Z</time>
      </trkpt>
      <trkpt lat="45.75455" lon="5.40639">
        <ele>269</ele>
        <time>2021-06-06T07:48:41.444Z</time>
      </trkpt>
      <trkpt lat="45.75462" lon="5.40643">
        <ele>269</ele>
        <time>2021-06-06T07:48:42.444Z</time>
      </trkpt>
      <trkpt lat="45.7547" lon="5.40647">
        <ele>268</ele>
        <time>2021-06-06T07:48:43.444Z</time>
      </trkpt>
      <trkpt lat="45.75477" lon="5.4065">
        <ele>268</ele>
        <time>2021-06-06T07:48:44.443Z</time>
      </trkpt>
      <trkpt lat="45.75484" lon="5.40654">
        <ele>267</ele>
        <time>2021-06-06T07:48:45.444Z</time>
      </trkpt>
      <trkpt lat="45.75491" lon="5.40658">
        <ele>267</ele>
        <time>2021-06-06T07:48:46.444Z</time>
      </trkpt>
      <trkpt lat="45.75499" lon="5.40663">
        <ele>267</ele>
        <time>2021-06-06T07:48:47.444Z</time>
      </trkpt>
      <trkpt lat="45.75505" lon="5.40668">
        <ele>267</ele>
        <time>2021-06-06T07:48:48.444Z</time>
      </trkpt>
      <trkpt lat="45.75512" lon="5.40673">
        <ele>266</ele>
        <time>2021-06-06T07:48:49.443Z</time>
      </trkpt>
      <trkpt lat="45.75519" lon="5.40678">
        <ele>266</ele>
        <time>2021-06-06T07:48:50.443Z</time>
      </trkpt>
      <trkpt lat="45.75526" lon="5.40684">
        <ele>265</ele>
        <time>2021-06-06T07:48:51.444Z</time>
      </trkpt>
      <trkpt lat="45.75532" lon="5.40689">
        <ele>265</ele>
        <time>2021-06-06T07:48:52.443Z</time>
      </trkpt>
      <trkpt lat="45.75539" lon="5.40695">
        <ele>265</ele>
        <time>2021-06-06T07:48:53.444Z</time>
      </trkpt>
      <trkpt lat="45.75545" lon="5.407">
        <ele>264</ele>
        <time>2021-06-06T07:48:54.444Z</time>
      </trkpt>
      <trkpt lat="45.75552" lon="5.40705">
        <ele>264</ele>
        <time>2021-06-06T07:48:55.443Z</time>
      </trkpt>
      <trkpt lat="45.75559" lon="5.40709">
        <ele>264</ele>
        <time>2021-06-06T07:48:56.444Z</time>
      </trkpt>
      <trkpt lat="45.75566" lon="5.40713">
        <ele>264</ele>
        <time>2021-06-06T07:48:57.444Z</time>
      </trkpt>
      <trkpt lat="45.75572" lon="5.40717">
        <ele>264</ele>
        <time>2021-06-06T07:48:58.444Z</time>
      </trkpt>
      <trkpt lat="45.75579" lon="5.40721">
        <ele>264</ele>
        <time>2021-06-06T07:48:59.443Z</time>
      </trkpt>
      <trkpt lat="45.75587" lon="5.40725">
        <ele>265</ele>
        <time>2021-06-06T07:49:00.443Z</time>
      </trkpt>
      <trkpt lat="45.75594" lon="5.40728">
        <ele>265</ele>
        <time>2021-06-06T07:49:01.444Z</time>
      </trkpt>
      <trkpt lat="45.75601" lon="5.40732">
        <ele>265</ele>
        <time>2021-06-06T07:49:02.444Z</time>
      </trkpt>
      <trkpt lat="45.75608" lon="5.40735">
        <ele>265</ele>
        <time>2021-06-06T07:49:03.444Z</time>
      </trkpt>
      <trkpt lat="45.75615" lon="5.4074">
        <ele>265</ele>
        <time>2021-06-06T07:49:04.443Z</time>
      </trkpt>
      <trkpt lat="45.75622" lon="5.40744">
        <ele>265</ele>
        <time>2021-06-06T07:49:05.443Z</time>
      </trkpt>
      <trkpt lat="45.75628" lon="5.40748">
        <ele>265</ele>
        <time>2021-06-06T07:49:06.444Z</time>
      </trkpt>
      <trkpt lat="45.75635" lon="5.40753">
        <ele>265</ele>
        <time>2021-06-06T07:49:07.444Z</time>
      </trkpt>
      <trkpt lat="45.75641" lon="5.40759">
        <ele>265</ele>
        <time>2021-06-06T07:49:08.443Z</time>
      </trkpt>
      <trkpt lat="45.75646" lon="5.40765">
        <ele>265</ele>
        <time>2021-06-06T07:49:09.444Z</time>
      </trkpt>
      <trkpt lat="45.75652" lon="5.40771">
        <ele>265</ele>
        <time>2021-06-06T07:49:10.444Z</time>
      </trkpt>
      <trkpt lat="45.75656" lon="5.40777">
        <ele>265</ele>
        <time>2021-06-06T07:49:11.443Z</time>
      </trkpt>
      <trkpt lat="45.75661" lon="5.40784">
        <ele>265</ele>
        <time>2021-06-06T07:49:12.443Z</time>
      </trkpt>
      <trkpt lat="45.75665" lon="5.4079">
        <ele>265</ele>
        <time>2021-06-06T07:49:13.443Z</time>
      </trkpt>
      <trkpt lat="45.75669" lon="5.40797">
        <ele>266</ele>
        <time>2021-06-06T07:49:14.444Z</time>
      </trkpt>
      <trkpt lat="45.75673" lon="5.40803">
        <ele>266</ele>
        <time>2021-06-06T07:49:15.444Z</time>
      </trkpt>
      <trkpt lat="45.75676" lon="5.4081">
        <ele>267</ele>
        <time>2021-06-06T07:49:16.443Z</time>
      </trkpt>
      <trkpt lat="45.75679" lon="5.40816">
        <ele>267</ele>
        <time>2021-06-06T07:49:17.443Z</time>
      </trkpt>
      <trkpt lat="45.75682" lon="5.40823">
        <ele>267</ele>
        <time>2021-06-06T07:49:18.443Z</time>
      </trkpt>
      <trkpt lat="45.75685" lon="5.40829">
        <ele>267</ele>
        <time>2021-06-06T07:49:19.444Z</time>
      </trkpt>
      <trkpt lat="45.75688" lon="5.40835">
        <ele>267</ele>
        <time>2021-06-06T07:49:20.443Z</time>
      </trkpt>
      <trkpt lat="45.75691" lon="5.40841">
        <ele>267</ele>
        <time>2021-06-06T07:49:21.444Z</time>
      </trkpt>
      <trkpt lat="45.75694" lon="5.40847">
        <ele>268</ele>
        <time>2021-06-06T07:49:22.444Z</time>
      </trkpt>
      <trkpt lat="45.75697" lon="5.40853">
        <ele>268</ele>
        <time>2021-06-06T07:49:23.444Z</time>
      </trkpt>
      <trkpt lat="45.757" lon="5.40858">
        <ele>268</ele>
        <time>2021-06-06T07:49:24.443Z</time>
      </trkpt>
      <trkpt lat="45.75703" lon="5.40864">
        <ele>268</ele>
        <time>2021-06-06T07:49:25.444Z</time>
      </trkpt>
      <trkpt lat="45.75706" lon="5.4087">
        <ele>267</ele>
        <time>2021-06-06T07:49:26.444Z</time>
      </trkpt>
      <trkpt lat="45.75709" lon="5.40875">
        <ele>268</ele>
        <time>2021-06-06T07:49:27.444Z</time>
      </trkpt>
      <trkpt lat="45.75713" lon="5.4088">
        <ele>268</ele>
        <time>2021-06-06T07:49:28.444Z</time>
      </trkpt>
      <trkpt lat="45.75716" lon="5.40885">
        <ele>268</ele>
        <time>2021-06-06T07:49:29.444Z</time>
      </trkpt>
      <trkpt lat="45.75719" lon="5.4089">
        <ele>268</ele>
        <time>2021-06-06T07:49:30.444Z</time>
      </trkpt>
      <trkpt lat="45.75722" lon="5.40895">
        <ele>268</ele>
        <time>2021-06-06T07:49:31.444Z</time>
      </trkpt>
      <trkpt lat="45.75726" lon="5.409">
        <ele>268</ele>
        <time>2021-06-06T07:49:32.443Z</time>
      </trkpt>
      <trkpt lat="45.75729" lon="5.40905">
        <ele>269</ele>
        <time>2021-06-06T07:49:33.444Z</time>
      </trkpt>
      <trkpt lat="45.75732" lon="5.4091">
        <ele>269</ele>
        <time>2021-06-06T07:49:34.443Z</time>
      </trkpt>
      <trkpt lat="45.75735" lon="5.40915">
        <ele>269</ele>
        <time>2021-06-06T07:49:35.444Z</time>
      </trkpt>
      <trkpt lat="45.75738" lon="5.40919">
        <ele>269</ele>
        <time>2021-06-06T07:49:36.444Z</time>
      </trkpt>
      <trkpt lat="45.75741" lon="5.40924">
        <ele>268</ele>
        <time>2021-06-06T07:49:37.444Z</time>
      </trkpt>
      <trkpt lat="45.75744" lon="5.40929">
        <ele>268</ele>
        <time>2021-06-06T07:49:38.444Z</time>
      </trkpt>
      <trkpt lat="45.75747" lon="5.40934">
        <ele>269</ele>
        <time>2021-06-06T07:49:39.444Z</time>
      </trkpt>
      <trkpt lat="45.7575" lon="5.40938">
        <ele>269</ele>
        <time>2021-06-06T07:49:40.444Z</time>
      </trkpt>
      <trkpt lat="45.75752" lon="5.40943">
        <ele>269</ele>
        <time>2021-06-06T07:49:41.444Z</time>
      </trkpt>
      <trkpt lat="45.75755" lon="5.40947">
        <ele>269</ele>
        <time>2021-06-06T07:49:42.444Z</time>
      </trkpt>
      <trkpt lat="45.75758" lon="5.40952">
        <ele>270</ele>
        <time>2021-06-06T07:49:43.443Z</time>
      </trkpt>
      <trkpt lat="45.75761" lon="5.40957">
        <ele>270</ele>
        <time>2021-06-06T07:49:44.443Z</time>
      </trkpt>
      <trkpt lat="45.75763" lon="5.40961">
        <ele>270</ele>
        <time>2021-06-06T07:49:45.444Z</time>
      </trkpt>
      <trkpt lat="45.75765" lon="5.40966">
        <ele>270</ele>
        <time>2021-06-06T07:49:46.443Z</time>
      </trkpt>
      <trkpt lat="45.75768" lon="5.40971">
        <ele>270</ele>
        <time>2021-06-06T07:49:47.444Z</time>
      </trkpt>
      <trkpt lat="45.75771" lon="5.40975">
        <ele>271</ele>
        <time>2021-06-06T07:49:48.443Z</time>
      </trkpt>
      <trkpt lat="45.75774" lon="5.4098">
        <ele>271</ele>
        <time>2021-06-06T07:49:49.444Z</time>
      </trkpt>
      <trkpt lat="45.75777" lon="5.40984">
        <ele>272</ele>
        <time>2021-06-06T07:49:50.443Z</time>
      </trkpt>
      <trkpt lat="45.7578" lon="5.40988">
        <ele>273</ele>
        <time>2021-06-06T07:49:51.444Z</time>
      </trkpt>
      <trkpt lat="45.75783" lon="5.40992">
        <ele>273</ele>
        <time>2021-06-06T07:49:52.444Z</time>
      </trkpt>
      <trkpt lat="45.75786" lon="5.40996">
        <ele>273</ele>
        <time>2021-06-06T07:49:53.444Z</time>
      </trkpt>
      <trkpt lat="45.75789" lon="5.41001">
        <ele>274</ele>
        <time>2021-06-06T07:49:54.443Z</time>
      </trkpt>
      <trkpt lat="45.75793" lon="5.41005">
        <ele>274</ele>
        <time>2021-06-06T07:49:55.444Z</time>
      </trkpt>
      <trkpt lat="45.75797" lon="5.4101">
        <ele>275</ele>
        <time>2021-06-06T07:49:56.444Z</time>
      </trkpt>
      <trkpt lat="45.75801" lon="5.41014">
        <ele>275</ele>
        <time>2021-06-06T07:49:57.444Z</time>
      </trkpt>
      <trkpt lat="45.75805" lon="5.41019">
        <ele>275</ele>
        <time>2021-06-06T07:49:58.444Z</time>
      </trkpt>
      <trkpt lat="45.7581" lon="5.41023">
        <ele>275</ele>
        <time>2021-06-06T07:49:59.444Z</time>
      </trkpt>
      <trkpt lat="45.75814" lon="5.41028">
        <ele>275</ele>
        <time>2021-06-06T07:50:00.443Z</time>
      </trkpt>
      <trkpt lat="45.75819" lon="5.41032">
        <ele>275</ele>
        <time>2021-06-06T07:50:01.444Z</time>
      </trkpt>
      <trkpt lat="45.75824" lon="5.41037">
        <ele>276</ele>
        <time>2021-06-06T07:50:02.444Z</time>
      </trkpt>
      <trkpt lat="45.75828" lon="5.41042">
        <ele>276</ele>
        <time>2021-06-06T07:50:03.444Z</time>
      </trkpt>
      <trkpt lat="45.75833" lon="5.41047">
        <ele>276</ele>
        <time>2021-06-06T07:50:04.444Z</time>
      </trkpt>
      <trkpt lat="45.75838" lon="5.41051">
        <ele>276</ele>
        <time>2021-06-06T07:50:05.444Z</time>
      </trkpt>
      <trkpt lat="45.75844" lon="5.41056">
        <ele>276</ele>
        <time>2021-06-06T07:50:06.443Z</time>
      </trkpt>
      <trkpt lat="45.75849" lon="5.4106">
        <ele>276</ele>
        <time>2021-06-06T07:50:07.443Z</time>
      </trkpt>
      <trkpt lat="45.75854" lon="5.41065">
        <ele>276</ele>
        <time>2021-06-06T07:50:08.444Z</time>
      </trkpt>
      <trkpt lat="45.7586" lon="5.4107">
        <ele>276</ele>
        <time>2021-06-06T07:50:09.443Z</time>
      </trkpt>
      <trkpt lat="45.75865" lon="5.41075">
        <ele>277</ele>
        <time>2021-06-06T07:50:10.444Z</time>
      </trkpt>
      <trkpt lat="45.75871" lon="5.41081">
        <ele>277</ele>
        <time>2021-06-06T07:50:11.444Z</time>
      </trkpt>
      <trkpt lat="45.75877" lon="5.41086">
        <ele>278</ele>
        <time>2021-06-06T07:50:12.444Z</time>
      </trkpt>
      <trkpt lat="45.75883" lon="5.41092">
        <ele>278</ele>
        <time>2021-06-06T07:50:13.444Z</time>
      </trkpt>
      <trkpt lat="45.75889" lon="5.41098">
        <ele>278</ele>
        <time>2021-06-06T07:50:14.444Z</time>
      </trkpt>
      <trkpt lat="45.75896" lon="5.41104">
        <ele>278</ele>
        <time>2021-06-06T07:50:15.443Z</time>
      </trkpt>
      <trkpt lat="45.75902" lon="5.41109">
        <ele>278</ele>
        <time>2021-06-06T07:50:16.443Z</time>
      </trkpt>
      <trkpt lat="45.75909" lon="5.41116">
        <ele>279</ele>
        <time>2021-06-06T07:50:17.444Z</time>
      </trkpt>
      <trkpt lat="45.75916" lon="5.41122">
        <ele>279</ele>
        <time>2021-06-06T07:50:18.444Z</time>
      </trkpt>
      <trkpt lat="45.75923" lon="5.41128">
        <ele>279</ele>
        <time>2021-06-06T07:50:19.443Z</time>
      </trkpt>
      <trkpt lat="45.7593" lon="5.41134">
        <ele>279</ele>
        <time>2021-06-06T07:50:20.444Z</time>
      </trkpt>
      <trkpt lat="45.75937" lon="5.41141">
        <ele>279</ele>
        <time>2021-06-06T07:50:21.444Z</time>
      </trkpt>
      <trkpt lat="45.75944" lon="5.41148">
        <ele>278</ele>
        <time>2021-06-06T07:50:22.443Z</time>
      </trkpt>
      <trkpt lat="45.7595" lon="5.41157">
        <ele>278</ele>
        <time>2021-06-06T07:50:23.443Z</time>
      </trkpt>
      <trkpt lat="45.75954" lon="5.41166">
        <ele>278</ele>
        <time>2021-06-06T07:50:24.443Z</time>
      </trkpt>
      <trkpt lat="45.75958" lon="5.41177">
        <ele>277</ele>
        <time>2021-06-06T07:50:25.444Z</time>
      </trkpt>
      <trkpt lat="45.75962" lon="5.41187">
        <ele>277</ele>
        <time>2021-06-06T07:50:26.444Z</time>
      </trkpt>
      <trkpt lat="45.75965" lon="5.41198">
        <ele>277</ele>
        <time>2021-06-06T07:50:27.444Z</time>
      </trkpt>
      <trkpt lat="45.75968" lon="5.41209">
        <ele>277</ele>
        <time>2021-06-06T07:50:28.444Z</time>
      </trkpt>
      <trkpt lat="45.7597" lon="5.4122">
        <ele>276</ele>
        <time>2021-06-06T07:50:29.444Z</time>
      </trkpt>
      <trkpt lat="45.75973" lon="5.41231">
        <ele>276</ele>
        <time>2021-06-06T07:50:30.443Z</time>
      </trkpt>
      <trkpt lat="45.75975" lon="5.41241">
        <ele>276</ele>
        <time>2021-06-06T07:50:31.444Z</time>
      </trkpt>
      <trkpt lat="45.75978" lon="5.41251">
        <ele>276</ele>
        <time>2021-06-06T07:50:32.444Z</time>
      </trkpt>
      <trkpt lat="45.75981" lon="5.41261">
        <ele>276</ele>
        <time>2021-06-06T07:50:33.443Z</time>
      </trkpt>
      <trkpt lat="45.75984" lon="5.41271">
        <ele>275</ele>
        <time>2021-06-06T07:50:34.443Z</time>
      </trkpt>
      <trkpt lat="45.75987" lon="5.41281">
        <ele>275</ele>
        <time>2021-06-06T07:50:35.444Z</time>
      </trkpt>
      <trkpt lat="45.75992" lon="5.41291">
        <ele>275</ele>
        <time>2021-06-06T07:50:36.444Z</time>
      </trkpt>
      <trkpt lat="45.75996" lon="5.41301">
        <ele>275</ele>
        <time>2021-06-06T07:50:37.443Z</time>
      </trkpt>
      <trkpt lat="45.76002" lon="5.41311">
        <ele>274</ele>
        <time>2021-06-06T07:50:38.444Z</time>
      </trkpt>
      <trkpt lat="45.76006" lon="5.4132">
        <ele>274</ele>
        <time>2021-06-06T07:50:39.444Z</time>
      </trkpt>
      <trkpt lat="45.7601" lon="5.41329">
        <ele>274</ele>
        <time>2021-06-06T07:50:40.443Z</time>
      </trkpt>
      <trkpt lat="45.76015" lon="5.41339">
        <ele>273</ele>
        <time>2021-06-06T07:50:41.443Z</time>
      </trkpt>
      <trkpt lat="45.7602" lon="5.41348">
        <ele>273</ele>
        <time>2021-06-06T07:50:42.444Z</time>
      </trkpt>
      <trkpt lat="45.76025" lon="5.41357">
        <ele>272</ele>
        <time>2021-06-06T07:50:43.444Z</time>
      </trkpt>
      <trkpt lat="45.7603" lon="5.41366">
        <ele>272</ele>
        <time>2021-06-06T07:50:44.443Z</time>
      </trkpt>
      <trkpt lat="45.76036" lon="5.41375">
        <ele>271</ele>
        <time>2021-06-06T07:50:45.443Z</time>
      </trkpt>
      <trkpt lat="45.76041" lon="5.41383">
        <ele>271</ele>
        <time>2021-06-06T07:50:46.444Z</time>
      </trkpt>
      <trkpt lat="45.76047" lon="5.41391">
        <ele>271</ele>
        <time>2021-06-06T07:50:47.444Z</time>
      </trkpt>
      <trkpt lat="45.76053" lon="5.41399">
        <ele>271</ele>
        <time>2021-06-06T07:50:48.443Z</time>
      </trkpt>
      <trkpt lat="45.76059" lon="5.41406">
        <ele>271</ele>
        <time>2021-06-06T07:50:49.444Z</time>
      </trkpt>
      <trkpt lat="45.76065" lon="5.41413">
        <ele>272</ele>
        <time>2021-06-06T07:50:50.443Z</time>
      </trkpt>
      <trkpt lat="45.76072" lon="5.41419">
        <ele>272</ele>
        <time>2021-06-06T07:50:51.443Z</time>
      </trkpt>
      <trkpt lat="45.76079" lon="5.41425">
        <ele>271</ele>
        <time>2021-06-06T07:50:52.444Z</time>
      </trkpt>
      <trkpt lat="45.76086" lon="5.4143">
        <ele>271</ele>
        <time>2021-06-06T07:50:53.444Z</time>
      </trkpt>
      <trkpt lat="45.76093" lon="5.41435">
        <ele>272</ele>
        <time>2021-06-06T07:50:54.443Z</time>
      </trkpt>
      <trkpt lat="45.76101" lon="5.4144">
        <ele>272</ele>
        <time>2021-06-06T07:50:55.443Z</time>
      </trkpt>
      <trkpt lat="45.76109" lon="5.41445">
        <ele>272</ele>
        <time>2021-06-06T07:50:56.444Z</time>
      </trkpt>
      <trkpt lat="45.76117" lon="5.41449">
        <ele>272</ele>
        <time>2021-06-06T07:50:57.443Z</time>
      </trkpt>
      <trkpt lat="45.76124" lon="5.41453">
        <ele>272</ele>
        <time>2021-06-06T07:50:58.444Z</time>
      </trkpt>
      <trkpt lat="45.76132" lon="5.41458">
        <ele>272</ele>
        <time>2021-06-06T07:50:59.443Z</time>
      </trkpt>
      <trkpt lat="45.76141" lon="5.41462">
        <ele>272</ele>
        <time>2021-06-06T07:51:00.444Z</time>
      </trkpt>
      <trkpt lat="45.76149" lon="5.41467">
        <ele>272</ele>
        <time>2021-06-06T07:51:01.443Z</time>
      </trkpt>
      <trkpt lat="45.76157" lon="5.41472">
        <ele>271</ele>
        <time>2021-06-06T07:51:02.444Z</time>
      </trkpt>
      <trkpt lat="45.76165" lon="5.41477">
        <ele>271</ele>
        <time>2021-06-06T07:51:03.443Z</time>
      </trkpt>
      <trkpt lat="45.76172" lon="5.41483">
        <ele>270</ele>
        <time>2021-06-06T07:51:04.444Z</time>
      </trkpt>
      <trkpt lat="45.7618" lon="5.41489">
        <ele>269</ele>
        <time>2021-06-06T07:51:05.443Z</time>
      </trkpt>
      <trkpt lat="45.76187" lon="5.41495">
        <ele>268</ele>
        <time>2021-06-06T07:51:06.444Z</time>
      </trkpt>
      <trkpt lat="45.76195" lon="5.41501">
        <ele>267</ele>
        <time>2021-06-06T07:51:07.444Z</time>
      </trkpt>
      <trkpt lat="45.76202" lon="5.41508">
        <ele>267</ele>
        <time>2021-06-06T07:51:08.443Z</time>
      </trkpt>
      <trkpt lat="45.76209" lon="5.41515">
        <ele>266</ele>
        <time>2021-06-06T07:51:09.443Z</time>
      </trkpt>
      <trkpt lat="45.76217" lon="5.41522">
        <ele>266</ele>
        <time>2021-06-06T07:51:10.444Z</time>
      </trkpt>
      <trkpt lat="45.76224" lon="5.41529">
        <ele>266</ele>
        <time>2021-06-06T07:51:11.444Z</time>
      </trkpt>
      <trkpt lat="45.76231" lon="5.41536">
        <ele>266</ele>
        <time>2021-06-06T07:51:12.444Z</time>
      </trkpt>
      <trkpt lat="45.76239" lon="5.41543">
        <ele>266</ele>
        <time>2021-06-06T07:51:13.444Z</time>
      </trkpt>
      <trkpt lat="45.76246" lon="5.41551">
        <ele>265</ele>
        <time>2021-06-06T07:51:14.444Z</time>
      </trkpt>
      <trkpt lat="45.76253" lon="5.41559">
        <ele>265</ele>
        <time>2021-06-06T07:51:15.444Z</time>
      </trkpt>
      <trkpt lat="45.7626" lon="5.41567">
        <ele>264</ele>
        <time>2021-06-06T07:51:16.444Z</time>
      </trkpt>
      <trkpt lat="45.76267" lon="5.41576">
        <ele>264</ele>
        <time>2021-06-06T07:51:17.444Z</time>
      </trkpt>
      <trkpt lat="45.76273" lon="5.41585">
        <ele>264</ele>
        <time>2021-06-06T07:51:18.444Z</time>
      </trkpt>
      <trkpt lat="45.76279" lon="5.41595">
        <ele>264</ele>
        <time>2021-06-06T07:51:19.443Z</time>
      </trkpt>
      <trkpt lat="45.76284" lon="5.41605">
        <ele>263</ele>
        <time>2021-06-06T07:51:20.444Z</time>
      </trkpt>
      <trkpt lat="45.76289" lon="5.41616">
        <ele>263</ele>
        <time>2021-06-06T07:51:21.443Z</time>
      </trkpt>
      <trkpt lat="45.76294" lon="5.41626">
        <ele>263</ele>
        <time>2021-06-06T07:51:22.444Z</time>
      </trkpt>
      <trkpt lat="45.76299" lon="5.41636">
        <ele>263</ele>
        <time>2021-06-06T07:51:23.444Z</time>
      </trkpt>
      <trkpt lat="45.76304" lon="5.41646">
        <ele>263</ele>
        <time>2021-06-06T07:51:24.444Z</time>
      </trkpt>
      <trkpt lat="45.7631" lon="5.41655">
        <ele>262</ele>
        <time>2021-06-06T07:51:25.444Z</time>
      </trkpt>
      <trkpt lat="45.76316" lon="5.41664">
        <ele>262</ele>
        <time>2021-06-06T07:51:26.444Z</time>
      </trkpt>
      <trkpt lat="45.76322" lon="5.41672">
        <ele>261</ele>
        <time>2021-06-06T07:51:27.443Z</time>
      </trkpt>
      <trkpt lat="45.76329" lon="5.4168">
        <ele>261</ele>
        <time>2021-06-06T07:51:28.444Z</time>
      </trkpt>
      <trkpt lat="45.76336" lon="5.41687">
        <ele>260</ele>
        <time>2021-06-06T07:51:29.444Z</time>
      </trkpt>
      <trkpt lat="45.76343" lon="5.41693">
        <ele>261</ele>
        <time>2021-06-06T07:51:30.444Z</time>
      </trkpt>
      <trkpt lat="45.76351" lon="5.41699">
        <ele>261</ele>
        <time>2021-06-06T07:51:31.444Z</time>
      </trkpt>
      <trkpt lat="45.76359" lon="5.41706">
        <ele>260</ele>
        <time>2021-06-06T07:51:32.444Z</time>
      </trkpt>
      <trkpt lat="45.76367" lon="5.41712">
        <ele>261</ele>
        <time>2021-06-06T07:51:33.444Z</time>
      </trkpt>
      <trkpt lat="45.76375" lon="5.41719">
        <ele>260</ele>
        <time>2021-06-06T07:51:34.443Z</time>
      </trkpt>
      <trkpt lat="45.76383" lon="5.41726">
        <ele>260</ele>
        <time>2021-06-06T07:51:35.444Z</time>
      </trkpt>
      <trkpt lat="45.76391" lon="5.41733">
        <ele>260</ele>
        <time>2021-06-06T07:51:36.444Z</time>
      </trkpt>
      <trkpt lat="45.76398" lon="5.4174">
        <ele>260</ele>
        <time>2021-06-06T07:51:37.444Z</time>
      </trkpt>
      <trkpt lat="45.76406" lon="5.41747">
        <ele>259</ele>
        <time>2021-06-06T07:51:38.444Z</time>
      </trkpt>
      <trkpt lat="45.76414" lon="5.41754">
        <ele>259</ele>
        <time>2021-06-06T07:51:39.444Z</time>
      </trkpt>
      <trkpt lat="45.76422" lon="5.41761">
        <ele>259</ele>
        <time>2021-06-06T07:51:40.443Z</time>
      </trkpt>
      <trkpt lat="45.76429" lon="5.41768">
        <ele>259</ele>
        <time>2021-06-06T07:51:41.444Z</time>
      </trkpt>
      <trkpt lat="45.76436" lon="5.41775">
        <ele>259</ele>
        <time>2021-06-06T07:51:42.443Z</time>
      </trkpt>
      <trkpt lat="45.76443" lon="5.41781">
        <ele>260</ele>
        <time>2021-06-06T07:51:43.443Z</time>
      </trkpt>
      <trkpt lat="45.7645" lon="5.41788">
        <ele>260</ele>
        <time>2021-06-06T07:51:44.443Z</time>
      </trkpt>
      <trkpt lat="45.76457" lon="5.41794">
        <ele>260</ele>
        <time>2021-06-06T07:51:45.444Z</time>
      </trkpt>
      <trkpt lat="45.76465" lon="5.418">
        <ele>259</ele>
        <time>2021-06-06T07:51:46.444Z</time>
      </trkpt>
      <trkpt lat="45.76472" lon="5.41806">
        <ele>259</ele>
        <time>2021-06-06T07:51:47.443Z</time>
      </trkpt>
      <trkpt lat="45.7648" lon="5.41811">
        <ele>259</ele>
        <time>2021-06-06T07:51:48.444Z</time>
      </trkpt>
      <trkpt lat="45.76489" lon="5.41815">
        <ele>258</ele>
        <time>2021-06-06T07:51:49.444Z</time>
      </trkpt>
      <trkpt lat="45.76498" lon="5.41818">
        <ele>258</ele>
        <time>2021-06-06T07:51:50.443Z</time>
      </trkpt>
      <trkpt lat="45.76507" lon="5.4182">
        <ele>258</ele>
        <time>2021-06-06T07:51:51.443Z</time>
      </trkpt>
      <trkpt lat="45.76517" lon="5.41821">
        <ele>257</ele>
        <time>2021-06-06T07:51:52.443Z</time>
      </trkpt>
      <trkpt lat="45.76526" lon="5.41821">
        <ele>257</ele>
        <time>2021-06-06T07:51:53.444Z</time>
      </trkpt>
      <trkpt lat="45.76536" lon="5.41821">
        <ele>256</ele>
        <time>2021-06-06T07:51:54.444Z</time>
      </trkpt>
      <trkpt lat="45.76546" lon="5.41821">
        <ele>255</ele>
        <time>2021-06-06T07:51:55.444Z</time>
      </trkpt>
      <trkpt lat="45.76555" lon="5.41821">
        <ele>255</ele>
        <time>2021-06-06T07:51:56.443Z</time>
      </trkpt>
      <trkpt lat="45.76564" lon="5.41821">
        <ele>255</ele>
        <time>2021-06-06T07:51:57.443Z</time>
      </trkpt>
      <trkpt lat="45.76574" lon="5.41821">
        <ele>255</ele>
        <time>2021-06-06T07:51:58.444Z</time>
      </trkpt>
      <trkpt lat="45.76583" lon="5.4182">
        <ele>255</ele>
        <time>2021-06-06T07:51:59.444Z</time>
      </trkpt>
      <trkpt lat="45.76591" lon="5.4182">
        <ele>254</ele>
        <time>2021-06-06T07:52:00.443Z</time>
      </trkpt>
      <trkpt lat="45.766" lon="5.41819">
        <ele>254</ele>
        <time>2021-06-06T07:52:01.444Z</time>
      </trkpt>
      <trkpt lat="45.76609" lon="5.41819">
        <ele>254</ele>
        <time>2021-06-06T07:52:02.444Z</time>
      </trkpt>
      <trkpt lat="45.76618" lon="5.41819">
        <ele>254</ele>
        <time>2021-06-06T07:52:03.444Z</time>
      </trkpt>
      <trkpt lat="45.76627" lon="5.41819">
        <ele>254</ele>
        <time>2021-06-06T07:52:04.444Z</time>
      </trkpt>
      <trkpt lat="45.76636" lon="5.41818">
        <ele>253</ele>
        <time>2021-06-06T07:52:05.444Z</time>
      </trkpt>
      <trkpt lat="45.76645" lon="5.41818">
        <ele>252</ele>
        <time>2021-06-06T07:52:06.443Z</time>
      </trkpt>
      <trkpt lat="45.76654" lon="5.41818">
        <ele>251</ele>
        <time>2021-06-06T07:52:07.443Z</time>
      </trkpt>
      <trkpt lat="45.76663" lon="5.41818">
        <ele>250</ele>
        <time>2021-06-06T07:52:08.443Z</time>
      </trkpt>
      <trkpt lat="45.76672" lon="5.41817">
        <ele>250</ele>
        <time>2021-06-06T07:52:09.444Z</time>
      </trkpt>
      <trkpt lat="45.76681" lon="5.41817">
        <ele>250</ele>
        <time>2021-06-06T07:52:10.444Z</time>
      </trkpt>
      <trkpt lat="45.7669" lon="5.41817">
        <ele>250</ele>
        <time>2021-06-06T07:52:11.444Z</time>
      </trkpt>
      <trkpt lat="45.76699" lon="5.41818">
        <ele>250</ele>
        <time>2021-06-06T07:52:12.443Z</time>
      </trkpt>
      <trkpt lat="45.76707" lon="5.41819">
        <ele>250</ele>
        <time>2021-06-06T07:52:13.443Z</time>
      </trkpt>
      <trkpt lat="45.76716" lon="5.4182">
        <ele>250</ele>
        <time>2021-06-06T07:52:14.443Z</time>
      </trkpt>
      <trkpt lat="45.76725" lon="5.41822">
        <ele>249</ele>
        <time>2021-06-06T07:52:15.444Z</time>
      </trkpt>
      <trkpt lat="45.76733" lon="5.41824">
        <ele>250</ele>
        <time>2021-06-06T07:52:16.444Z</time>
      </trkpt>
      <trkpt lat="45.76742" lon="5.41827">
        <ele>250</ele>
        <time>2021-06-06T07:52:17.443Z</time>
      </trkpt>
      <trkpt lat="45.7675" lon="5.4183">
        <ele>251</ele>
        <time>2021-06-06T07:52:18.444Z</time>
      </trkpt>
      <trkpt lat="45.7676" lon="5.41834">
        <ele>251</ele>
        <time>2021-06-06T07:52:19.443Z</time>
      </trkpt>
      <trkpt lat="45.76767" lon="5.41837">
        <ele>251</ele>
        <time>2021-06-06T07:52:20.444Z</time>
      </trkpt>
      <trkpt lat="45.76775" lon="5.4184">
        <ele>251</ele>
        <time>2021-06-06T07:52:21.444Z</time>
      </trkpt>
      <trkpt lat="45.76784" lon="5.41844">
        <ele>250</ele>
        <time>2021-06-06T07:52:22.444Z</time>
      </trkpt>
      <trkpt lat="45.76792" lon="5.41848">
        <ele>250</ele>
        <time>2021-06-06T07:52:23.443Z</time>
      </trkpt>
      <trkpt lat="45.76801" lon="5.41852">
        <ele>249</ele>
        <time>2021-06-06T07:52:24.443Z</time>
      </trkpt>
      <trkpt lat="45.76809" lon="5.41856">
        <ele>249</ele>
        <time>2021-06-06T07:52:25.443Z</time>
      </trkpt>
      <trkpt lat="45.76817" lon="5.4186">
        <ele>249</ele>
        <time>2021-06-06T07:52:26.443Z</time>
      </trkpt>
      <trkpt lat="45.76826" lon="5.41864">
        <ele>249</ele>
        <time>2021-06-06T07:52:27.443Z</time>
      </trkpt>
      <trkpt lat="45.76836" lon="5.41869">
        <ele>249</ele>
        <time>2021-06-06T07:52:28.444Z</time>
      </trkpt>
      <trkpt lat="45.76843" lon="5.41872">
        <ele>248</ele>
        <time>2021-06-06T07:52:29.443Z</time>
      </trkpt>
      <trkpt lat="45.76852" lon="5.41876">
        <ele>248</ele>
        <time>2021-06-06T07:52:30.443Z</time>
      </trkpt>
      <trkpt lat="45.7686" lon="5.4188">
        <ele>247</ele>
        <time>2021-06-06T07:52:31.444Z</time>
      </trkpt>
      <trkpt lat="45.76869" lon="5.41884">
        <ele>247</ele>
        <time>2021-06-06T07:52:32.444Z</time>
      </trkpt>
      <trkpt lat="45.76878" lon="5.41888">
        <ele>247</ele>
        <time>2021-06-06T07:52:33.444Z</time>
      </trkpt>
      <trkpt lat="45.76886" lon="5.41891">
        <ele>246</ele>
        <time>2021-06-06T07:52:34.444Z</time>
      </trkpt>
      <trkpt lat="45.76894" lon="5.41895">
        <ele>246</ele>
        <time>2021-06-06T07:52:35.444Z</time>
      </trkpt>
      <trkpt lat="45.76902" lon="5.41899">
        <ele>245</ele>
        <time>2021-06-06T07:52:36.443Z</time>
      </trkpt>
      <trkpt lat="45.7691" lon="5.41904">
        <ele>244</ele>
        <time>2021-06-06T07:52:37.444Z</time>
      </trkpt>
      <trkpt lat="45.76918" lon="5.41909">
        <ele>244</ele>
        <time>2021-06-06T07:52:38.443Z</time>
      </trkpt>
      <trkpt lat="45.76926" lon="5.41916">
        <ele>244</ele>
        <time>2021-06-06T07:52:39.444Z</time>
      </trkpt>
      <trkpt lat="45.76933" lon="5.41922">
        <ele>244</ele>
        <time>2021-06-06T07:52:40.443Z</time>
      </trkpt>
      <trkpt lat="45.76941" lon="5.41929">
        <ele>244</ele>
        <time>2021-06-06T07:52:41.444Z</time>
      </trkpt>
      <trkpt lat="45.76948" lon="5.41936">
        <ele>244</ele>
        <time>2021-06-06T07:52:42.443Z</time>
      </trkpt>
      <trkpt lat="45.76955" lon="5.41944">
        <ele>244</ele>
        <time>2021-06-06T07:52:43.444Z</time>
      </trkpt>
      <trkpt lat="45.76962" lon="5.4195">
        <ele>245</ele>
        <time>2021-06-06T07:52:44.443Z</time>
      </trkpt>
      <trkpt lat="45.76969" lon="5.41958">
        <ele>245</ele>
        <time>2021-06-06T07:52:45.443Z</time>
      </trkpt>
      <trkpt lat="45.76976" lon="5.41965">
        <ele>245</ele>
        <time>2021-06-06T07:52:46.444Z</time>
      </trkpt>
      <trkpt lat="45.76983" lon="5.41972">
        <ele>245</ele>
        <time>2021-06-06T07:52:47.443Z</time>
      </trkpt>
      <trkpt lat="45.7699" lon="5.41979">
        <ele>245</ele>
        <time>2021-06-06T07:52:48.444Z</time>
      </trkpt>
      <trkpt lat="45.76997" lon="5.41986">
        <ele>244</ele>
        <time>2021-06-06T07:52:49.444Z</time>
      </trkpt>
      <trkpt lat="45.77004" lon="5.41993">
        <ele>244</ele>
        <time>2021-06-06T07:52:50.444Z</time>
      </trkpt>
      <trkpt lat="45.77011" lon="5.42">
        <ele>245</ele>
        <time>2021-06-06T07:52:51.444Z</time>
      </trkpt>
      <trkpt lat="45.77018" lon="5.42007">
        <ele>245</ele>
        <time>2021-06-06T07:52:52.444Z</time>
      </trkpt>
      <trkpt lat="45.77025" lon="5.42014">
        <ele>245</ele>
        <time>2021-06-06T07:52:53.444Z</time>
      </trkpt>
      <trkpt lat="45.77033" lon="5.42021">
        <ele>245</ele>
        <time>2021-06-06T07:52:54.444Z</time>
      </trkpt>
      <trkpt lat="45.77038" lon="5.42027">
        <ele>244</ele>
        <time>2021-06-06T07:52:55.443Z</time>
      </trkpt>
      <trkpt lat="45.77045" lon="5.42033">
        <ele>244</ele>
        <time>2021-06-06T07:52:56.444Z</time>
      </trkpt>
      <trkpt lat="45.77052" lon="5.42039">
        <ele>243</ele>
        <time>2021-06-06T07:52:57.444Z</time>
      </trkpt>
      <trkpt lat="45.77059" lon="5.42045">
        <ele>243</ele>
        <time>2021-06-06T07:52:58.444Z</time>
      </trkpt>
      <trkpt lat="45.77066" lon="5.42051">
        <ele>242</ele>
        <time>2021-06-06T07:52:59.444Z</time>
      </trkpt>
      <trkpt lat="45.77073" lon="5.42057">
        <ele>242</ele>
        <time>2021-06-06T07:53:00.444Z</time>
      </trkpt>
      <trkpt lat="45.77079" lon="5.42062">
        <ele>242</ele>
        <time>2021-06-06T07:53:01.443Z</time>
      </trkpt>
      <trkpt lat="45.77086" lon="5.42068">
        <ele>242</ele>
        <time>2021-06-06T07:53:02.443Z</time>
      </trkpt>
      <trkpt lat="45.77092" lon="5.42073">
        <ele>242</ele>
        <time>2021-06-06T07:53:03.443Z</time>
      </trkpt>
      <trkpt lat="45.771" lon="5.4208">
        <ele>242</ele>
        <time>2021-06-06T07:53:04.444Z</time>
      </trkpt>
      <trkpt lat="45.77106" lon="5.42085">
        <ele>241</ele>
        <time>2021-06-06T07:53:05.443Z</time>
      </trkpt>
      <trkpt lat="45.77113" lon="5.42091">
        <ele>241</ele>
        <time>2021-06-06T07:53:06.444Z</time>
      </trkpt>
      <trkpt lat="45.77119" lon="5.42096">
        <ele>241</ele>
        <time>2021-06-06T07:53:07.444Z</time>
      </trkpt>
      <trkpt lat="45.77128" lon="5.42103">
        <ele>241</ele>
        <time>2021-06-06T07:53:08.443Z</time>
      </trkpt>
      <trkpt lat="45.77134" lon="5.42108">
        <ele>240</ele>
        <time>2021-06-06T07:53:09.443Z</time>
      </trkpt>
      <trkpt lat="45.77141" lon="5.42114">
        <ele>240</ele>
        <time>2021-06-06T07:53:10.444Z</time>
      </trkpt>
      <trkpt lat="45.77146" lon="5.42118">
        <ele>239</ele>
        <time>2021-06-06T07:53:11.444Z</time>
      </trkpt>
      <trkpt lat="45.77153" lon="5.42124">
        <ele>239</ele>
        <time>2021-06-06T07:53:12.444Z</time>
      </trkpt>
      <trkpt lat="45.77161" lon="5.42131">
        <ele>239</ele>
        <time>2021-06-06T07:53:13.444Z</time>
      </trkpt>
      <trkpt lat="45.77167" lon="5.42135">
        <ele>239</ele>
        <time>2021-06-06T07:53:14.443Z</time>
      </trkpt>
      <trkpt lat="45.77174" lon="5.4214">
        <ele>238</ele>
        <time>2021-06-06T07:53:15.444Z</time>
      </trkpt>
      <trkpt lat="45.77182" lon="5.42144">
        <ele>238</ele>
        <time>2021-06-06T07:53:16.444Z</time>
      </trkpt>
      <trkpt lat="45.7719" lon="5.42148">
        <ele>238</ele>
        <time>2021-06-06T07:53:17.444Z</time>
      </trkpt>
      <trkpt lat="45.77198" lon="5.42152">
        <ele>237</ele>
        <time>2021-06-06T07:53:18.444Z</time>
      </trkpt>
      <trkpt lat="45.77205" lon="5.42155">
        <ele>237</ele>
        <time>2021-06-06T07:53:19.443Z</time>
      </trkpt>
      <trkpt lat="45.77213" lon="5.42159">
        <ele>236</ele>
        <time>2021-06-06T07:53:20.444Z</time>
      </trkpt>
      <trkpt lat="45.77221" lon="5.42162">
        <ele>236</ele>
        <time>2021-06-06T07:53:21.443Z</time>
      </trkpt>
      <trkpt lat="45.77228" lon="5.42166">
        <ele>236</ele>
        <time>2021-06-06T07:53:22.443Z</time>
      </trkpt>
      <trkpt lat="45.77235" lon="5.4217">
        <ele>236</ele>
        <time>2021-06-06T07:53:23.444Z</time>
      </trkpt>
      <trkpt lat="45.77242" lon="5.42174">
        <ele>236</ele>
        <time>2021-06-06T07:53:24.444Z</time>
      </trkpt>
      <trkpt lat="45.77248" lon="5.42179">
        <ele>237</ele>
        <time>2021-06-06T07:53:25.443Z</time>
      </trkpt>
      <trkpt lat="45.77254" lon="5.42185">
        <ele>237</ele>
        <time>2021-06-06T07:53:26.444Z</time>
      </trkpt>
      <trkpt lat="45.7726" lon="5.4219">
        <ele>237</ele>
        <time>2021-06-06T07:53:27.443Z</time>
      </trkpt>
      <trkpt lat="45.77266" lon="5.42196">
        <ele>236</ele>
        <time>2021-06-06T07:53:28.444Z</time>
      </trkpt>
      <trkpt lat="45.77271" lon="5.42203">
        <ele>236</ele>
        <time>2021-06-06T07:53:29.443Z</time>
      </trkpt>
      <trkpt lat="45.77276" lon="5.42209">
        <ele>236</ele>
        <time>2021-06-06T07:53:30.444Z</time>
      </trkpt>
      <trkpt lat="45.77281" lon="5.42216">
        <ele>235</ele>
        <time>2021-06-06T07:53:31.444Z</time>
      </trkpt>
      <trkpt lat="45.77287" lon="5.42223">
        <ele>235</ele>
        <time>2021-06-06T07:53:32.444Z</time>
      </trkpt>
      <trkpt lat="45.77293" lon="5.4223">
        <ele>235</ele>
        <time>2021-06-06T07:53:33.444Z</time>
      </trkpt>
      <trkpt lat="45.77298" lon="5.42237">
        <ele>234</ele>
        <time>2021-06-06T07:53:34.443Z</time>
      </trkpt>
      <trkpt lat="45.77304" lon="5.42245">
        <ele>234</ele>
        <time>2021-06-06T07:53:35.444Z</time>
      </trkpt>
      <trkpt lat="45.77309" lon="5.42252">
        <ele>234</ele>
        <time>2021-06-06T07:53:36.444Z</time>
      </trkpt>
      <trkpt lat="45.77314" lon="5.42261">
        <ele>233</ele>
        <time>2021-06-06T07:53:37.443Z</time>
      </trkpt>
      <trkpt lat="45.77319" lon="5.42269">
        <ele>233</ele>
        <time>2021-06-06T07:53:38.444Z</time>
      </trkpt>
      <trkpt lat="45.77324" lon="5.42278">
        <ele>233</ele>
        <time>2021-06-06T07:53:39.444Z</time>
      </trkpt>
      <trkpt lat="45.77328" lon="5.42286">
        <ele>233</ele>
        <time>2021-06-06T07:53:40.444Z</time>
      </trkpt>
      <trkpt lat="45.77331" lon="5.42296">
        <ele>232</ele>
        <time>2021-06-06T07:53:41.443Z</time>
      </trkpt>
      <trkpt lat="45.77335" lon="5.42305">
        <ele>232</ele>
        <time>2021-06-06T07:53:42.444Z</time>
      </trkpt>
      <trkpt lat="45.77339" lon="5.42315">
        <ele>231</ele>
        <time>2021-06-06T07:53:43.444Z</time>
      </trkpt>
      <trkpt lat="45.77342" lon="5.42324">
        <ele>231</ele>
        <time>2021-06-06T07:53:44.443Z</time>
      </trkpt>
      <trkpt lat="45.77346" lon="5.42334">
        <ele>231</ele>
        <time>2021-06-06T07:53:45.444Z</time>
      </trkpt>
      <trkpt lat="45.7735" lon="5.42344">
        <ele>231</ele>
        <time>2021-06-06T07:53:46.444Z</time>
      </trkpt>
      <trkpt lat="45.77354" lon="5.42353">
        <ele>231</ele>
        <time>2021-06-06T07:53:47.444Z</time>
      </trkpt>
      <trkpt lat="45.77358" lon="5.42363">
        <ele>231</ele>
        <time>2021-06-06T07:53:48.444Z</time>
      </trkpt>
      <trkpt lat="45.77362" lon="5.42374">
        <ele>231</ele>
        <time>2021-06-06T07:53:49.444Z</time>
      </trkpt>
      <trkpt lat="45.77365" lon="5.42385">
        <ele>231</ele>
        <time>2021-06-06T07:53:50.444Z</time>
      </trkpt>
      <trkpt lat="45.77368" lon="5.42396">
        <ele>231</ele>
        <time>2021-06-06T07:53:51.444Z</time>
      </trkpt>
      <trkpt lat="45.77371" lon="5.42407">
        <ele>230</ele>
        <time>2021-06-06T07:53:52.443Z</time>
      </trkpt>
      <trkpt lat="45.77374" lon="5.42418">
        <ele>230</ele>
        <time>2021-06-06T07:53:53.444Z</time>
      </trkpt>
      <trkpt lat="45.77377" lon="5.4243">
        <ele>230</ele>
        <time>2021-06-06T07:53:54.444Z</time>
      </trkpt>
      <trkpt lat="45.7738" lon="5.42442">
        <ele>230</ele>
        <time>2021-06-06T07:53:55.444Z</time>
      </trkpt>
      <trkpt lat="45.77382" lon="5.42453">
        <ele>230</ele>
        <time>2021-06-06T07:53:56.443Z</time>
      </trkpt>
      <trkpt lat="45.77385" lon="5.42465">
        <ele>230</ele>
        <time>2021-06-06T07:53:57.444Z</time>
      </trkpt>
      <trkpt lat="45.77388" lon="5.42477">
        <ele>229</ele>
        <time>2021-06-06T07:53:58.443Z</time>
      </trkpt>
      <trkpt lat="45.77391" lon="5.42488">
        <ele>229</ele>
        <time>2021-06-06T07:53:59.444Z</time>
      </trkpt>
      <trkpt lat="45.77394" lon="5.425">
        <ele>229</ele>
        <time>2021-06-06T07:54:00.444Z</time>
      </trkpt>
      <trkpt lat="45.77397" lon="5.42512">
        <ele>229</ele>
        <time>2021-06-06T07:54:01.444Z</time>
      </trkpt>
      <trkpt lat="45.774" lon="5.42525">
        <ele>229</ele>
        <time>2021-06-06T07:54:02.444Z</time>
      </trkpt>
      <trkpt lat="45.77402" lon="5.42537">
        <ele>229</ele>
        <time>2021-06-06T07:54:03.444Z</time>
      </trkpt>
      <trkpt lat="45.77404" lon="5.42553">
        <ele>229</ele>
        <time>2021-06-06T07:54:04.444Z</time>
      </trkpt>
      <trkpt lat="45.77405" lon="5.42563">
        <ele>229</ele>
        <time>2021-06-06T07:54:05.443Z</time>
      </trkpt>
      <trkpt lat="45.77406" lon="5.42576">
        <ele>229</ele>
        <time>2021-06-06T07:54:06.444Z</time>
      </trkpt>
      <trkpt lat="45.77407" lon="5.42588">
        <ele>229</ele>
        <time>2021-06-06T07:54:07.443Z</time>
      </trkpt>
      <trkpt lat="45.77407" lon="5.426">
        <ele>229</ele>
        <time>2021-06-06T07:54:08.444Z</time>
      </trkpt>
      <trkpt lat="45.77407" lon="5.42612">
        <ele>229</ele>
        <time>2021-06-06T07:54:09.443Z</time>
      </trkpt>
      <trkpt lat="45.77407" lon="5.42626">
        <ele>228</ele>
        <time>2021-06-06T07:54:10.443Z</time>
      </trkpt>
      <trkpt lat="45.77407" lon="5.42635">
        <ele>228</ele>
        <time>2021-06-06T07:54:11.444Z</time>
      </trkpt>
      <trkpt lat="45.77406" lon="5.42646">
        <ele>228</ele>
        <time>2021-06-06T07:54:12.444Z</time>
      </trkpt>
      <trkpt lat="45.77406" lon="5.42657">
        <ele>228</ele>
        <time>2021-06-06T07:54:13.443Z</time>
      </trkpt>
      <trkpt lat="45.77406" lon="5.42668">
        <ele>227</ele>
        <time>2021-06-06T07:54:14.443Z</time>
      </trkpt>
      <trkpt lat="45.77406" lon="5.42679">
        <ele>227</ele>
        <time>2021-06-06T07:54:15.444Z</time>
      </trkpt>
      <trkpt lat="45.77406" lon="5.42689">
        <ele>227</ele>
        <time>2021-06-06T07:54:16.444Z</time>
      </trkpt>
      <trkpt lat="45.77407" lon="5.427">
        <ele>226</ele>
        <time>2021-06-06T07:54:17.444Z</time>
      </trkpt>
      <trkpt lat="45.77407" lon="5.4271">
        <ele>226</ele>
        <time>2021-06-06T07:54:18.444Z</time>
      </trkpt>
      <trkpt lat="45.77409" lon="5.4272">
        <ele>226</ele>
        <time>2021-06-06T07:54:19.443Z</time>
      </trkpt>
      <trkpt lat="45.7741" lon="5.4273">
        <ele>226</ele>
        <time>2021-06-06T07:54:20.443Z</time>
      </trkpt>
      <trkpt lat="45.77411" lon="5.42742">
        <ele>226</ele>
        <time>2021-06-06T07:54:21.444Z</time>
      </trkpt>
      <trkpt lat="45.77412" lon="5.42749">
        <ele>226</ele>
        <time>2021-06-06T07:54:22.444Z</time>
      </trkpt>
      <trkpt lat="45.77415" lon="5.42761">
        <ele>226</ele>
        <time>2021-06-06T07:54:23.444Z</time>
      </trkpt>
      <trkpt lat="45.77416" lon="5.42769">
        <ele>226</ele>
        <time>2021-06-06T07:54:24.443Z</time>
      </trkpt>
      <trkpt lat="45.77417" lon="5.42778">
        <ele>226</ele>
        <time>2021-06-06T07:54:25.443Z</time>
      </trkpt>
      <trkpt lat="45.77419" lon="5.42788">
        <ele>225</ele>
        <time>2021-06-06T07:54:26.444Z</time>
      </trkpt>
      <trkpt lat="45.77421" lon="5.42798">
        <ele>225</ele>
        <time>2021-06-06T07:54:27.443Z</time>
      </trkpt>
      <trkpt lat="45.77422" lon="5.42809">
        <ele>224</ele>
        <time>2021-06-06T07:54:28.443Z</time>
      </trkpt>
      <trkpt lat="45.77424" lon="5.42819">
        <ele>224</ele>
        <time>2021-06-06T07:54:29.444Z</time>
      </trkpt>
      <trkpt lat="45.77426" lon="5.42829">
        <ele>225</ele>
        <time>2021-06-06T07:54:30.443Z</time>
      </trkpt>
      <trkpt lat="45.77428" lon="5.42839">
        <ele>225</ele>
        <time>2021-06-06T07:54:31.443Z</time>
      </trkpt>
      <trkpt lat="45.7743" lon="5.42849">
        <ele>225</ele>
        <time>2021-06-06T07:54:32.444Z</time>
      </trkpt>
      <trkpt lat="45.77432" lon="5.42859">
        <ele>225</ele>
        <time>2021-06-06T07:54:33.444Z</time>
      </trkpt>
      <trkpt lat="45.77434" lon="5.42869">
        <ele>226</ele>
        <time>2021-06-06T07:54:34.443Z</time>
      </trkpt>
      <trkpt lat="45.77436" lon="5.42879">
        <ele>226</ele>
        <time>2021-06-06T07:54:35.443Z</time>
      </trkpt>
      <trkpt lat="45.77439" lon="5.42891">
        <ele>227</ele>
        <time>2021-06-06T07:54:36.443Z</time>
      </trkpt>
      <trkpt lat="45.77441" lon="5.42898">
        <ele>227</ele>
        <time>2021-06-06T07:54:37.444Z</time>
      </trkpt>
      <trkpt lat="45.77444" lon="5.42909">
        <ele>226</ele>
        <time>2021-06-06T07:54:38.443Z</time>
      </trkpt>
      <trkpt lat="45.77447" lon="5.42916">
        <ele>226</ele>
        <time>2021-06-06T07:54:39.444Z</time>
      </trkpt>
      <trkpt lat="45.7745" lon="5.42927">
        <ele>227</ele>
        <time>2021-06-06T07:54:40.443Z</time>
      </trkpt>
      <trkpt lat="45.77453" lon="5.42934">
        <ele>227</ele>
        <time>2021-06-06T07:54:41.443Z</time>
      </trkpt>
      <trkpt lat="45.77456" lon="5.42943">
        <ele>227</ele>
        <time>2021-06-06T07:54:42.443Z</time>
      </trkpt>
      <trkpt lat="45.77459" lon="5.42951">
        <ele>227</ele>
        <time>2021-06-06T07:54:43.443Z</time>
      </trkpt>
      <trkpt lat="45.77463" lon="5.4296">
        <ele>227</ele>
        <time>2021-06-06T07:54:44.444Z</time>
      </trkpt>
      <trkpt lat="45.77466" lon="5.42971">
        <ele>227</ele>
        <time>2021-06-06T07:54:45.444Z</time>
      </trkpt>
      <trkpt lat="45.7747" lon="5.4298">
        <ele>227</ele>
        <time>2021-06-06T07:54:46.443Z</time>
      </trkpt>
      <trkpt lat="45.77473" lon="5.42987">
        <ele>227</ele>
        <time>2021-06-06T07:54:47.444Z</time>
      </trkpt>
      <trkpt lat="45.77476" lon="5.42996">
        <ele>227</ele>
        <time>2021-06-06T07:54:48.443Z</time>
      </trkpt>
      <trkpt lat="45.77481" lon="5.43006">
        <ele>228</ele>
        <time>2021-06-06T07:54:49.443Z</time>
      </trkpt>
      <trkpt lat="45.77484" lon="5.43015">
        <ele>228</ele>
        <time>2021-06-06T07:54:50.443Z</time>
      </trkpt>
      <trkpt lat="45.77488" lon="5.43024">
        <ele>228</ele>
        <time>2021-06-06T07:54:51.443Z</time>
      </trkpt>
      <trkpt lat="45.77491" lon="5.43032">
        <ele>228</ele>
        <time>2021-06-06T07:54:52.443Z</time>
      </trkpt>
      <trkpt lat="45.77494" lon="5.43041">
        <ele>228</ele>
        <time>2021-06-06T07:54:53.443Z</time>
      </trkpt>
      <trkpt lat="45.77497" lon="5.4305">
        <ele>228</ele>
        <time>2021-06-06T07:54:54.444Z</time>
      </trkpt>
      <trkpt lat="45.77501" lon="5.43061">
        <ele>228</ele>
        <time>2021-06-06T07:54:55.444Z</time>
      </trkpt>
      <trkpt lat="45.77504" lon="5.4307">
        <ele>228</ele>
        <time>2021-06-06T07:54:56.444Z</time>
      </trkpt>
      <trkpt lat="45.77507" lon="5.43076">
        <ele>228</ele>
        <time>2021-06-06T07:54:57.444Z</time>
      </trkpt>
      <trkpt lat="45.77509" lon="5.43085">
        <ele>228</ele>
        <time>2021-06-06T07:54:58.444Z</time>
      </trkpt>
      <trkpt lat="45.77512" lon="5.43094">
        <ele>229</ele>
        <time>2021-06-06T07:54:59.443Z</time>
      </trkpt>
      <trkpt lat="45.77516" lon="5.43104">
        <ele>229</ele>
        <time>2021-06-06T07:55:00.444Z</time>
      </trkpt>
      <trkpt lat="45.77518" lon="5.43111">
        <ele>230</ele>
        <time>2021-06-06T07:55:01.443Z</time>
      </trkpt>
      <trkpt lat="45.77521" lon="5.4312">
        <ele>230</ele>
        <time>2021-06-06T07:55:02.444Z</time>
      </trkpt>
      <trkpt lat="45.77524" lon="5.43131">
        <ele>229</ele>
        <time>2021-06-06T07:55:03.444Z</time>
      </trkpt>
      <trkpt lat="45.77526" lon="5.43138">
        <ele>229</ele>
        <time>2021-06-06T07:55:04.444Z</time>
      </trkpt>
      <trkpt lat="45.77529" lon="5.43148">
        <ele>228</ele>
        <time>2021-06-06T07:55:05.444Z</time>
      </trkpt>
      <trkpt lat="45.77531" lon="5.43159">
        <ele>228</ele>
        <time>2021-06-06T07:55:06.444Z</time>
      </trkpt>
      <trkpt lat="45.77533" lon="5.43167">
        <ele>227</ele>
        <time>2021-06-06T07:55:07.444Z</time>
      </trkpt>
      <trkpt lat="45.77535" lon="5.43177">
        <ele>227</ele>
        <time>2021-06-06T07:55:08.444Z</time>
      </trkpt>
      <trkpt lat="45.77538" lon="5.43186">
        <ele>226</ele>
        <time>2021-06-06T07:55:09.444Z</time>
      </trkpt>
      <trkpt lat="45.7754" lon="5.43197">
        <ele>226</ele>
        <time>2021-06-06T07:55:10.443Z</time>
      </trkpt>
      <trkpt lat="45.77542" lon="5.43207">
        <ele>226</ele>
        <time>2021-06-06T07:55:11.443Z</time>
      </trkpt>
      <trkpt lat="45.77544" lon="5.43217">
        <ele>226</ele>
        <time>2021-06-06T07:55:12.443Z</time>
      </trkpt>
      <trkpt lat="45.77547" lon="5.43228">
        <ele>226</ele>
        <time>2021-06-06T07:55:13.444Z</time>
      </trkpt>
      <trkpt lat="45.77548" lon="5.43239">
        <ele>226</ele>
        <time>2021-06-06T07:55:14.444Z</time>
      </trkpt>
      <trkpt lat="45.7755" lon="5.43249">
        <ele>226</ele>
        <time>2021-06-06T07:55:15.444Z</time>
      </trkpt>
      <trkpt lat="45.77552" lon="5.4326">
        <ele>226</ele>
        <time>2021-06-06T07:55:16.444Z</time>
      </trkpt>
      <trkpt lat="45.77554" lon="5.43271">
        <ele>226</ele>
        <time>2021-06-06T07:55:17.444Z</time>
      </trkpt>
      <trkpt lat="45.77556" lon="5.43282">
        <ele>226</ele>
        <time>2021-06-06T07:55:18.444Z</time>
      </trkpt>
      <trkpt lat="45.77557" lon="5.43292">
        <ele>226</ele>
        <time>2021-06-06T07:55:19.444Z</time>
      </trkpt>
      <trkpt lat="45.77559" lon="5.43303">
        <ele>225</ele>
        <time>2021-06-06T07:55:20.444Z</time>
      </trkpt>
      <trkpt lat="45.7756" lon="5.43314">
        <ele>225</ele>
        <time>2021-06-06T07:55:21.443Z</time>
      </trkpt>
      <trkpt lat="45.77561" lon="5.43324">
        <ele>225</ele>
        <time>2021-06-06T07:55:22.444Z</time>
      </trkpt>
      <trkpt lat="45.77562" lon="5.43335">
        <ele>225</ele>
        <time>2021-06-06T07:55:23.444Z</time>
      </trkpt>
      <trkpt lat="45.77564" lon="5.43345">
        <ele>225</ele>
        <time>2021-06-06T07:55:24.444Z</time>
      </trkpt>
      <trkpt lat="45.77565" lon="5.43356">
        <ele>225</ele>
        <time>2021-06-06T07:55:25.443Z</time>
      </trkpt>
      <trkpt lat="45.77567" lon="5.43367">
        <ele>225</ele>
        <time>2021-06-06T07:55:26.444Z</time>
      </trkpt>
      <trkpt lat="45.77569" lon="5.43377">
        <ele>225</ele>
        <time>2021-06-06T07:55:27.444Z</time>
      </trkpt>
      <trkpt lat="45.7757" lon="5.43387">
        <ele>225</ele>
        <time>2021-06-06T07:55:28.444Z</time>
      </trkpt>
      <trkpt lat="45.77572" lon="5.43398">
        <ele>225</ele>
        <time>2021-06-06T07:55:29.444Z</time>
      </trkpt>
      <trkpt lat="45.77573" lon="5.43408">
        <ele>226</ele>
        <time>2021-06-06T07:55:30.444Z</time>
      </trkpt>
      <trkpt lat="45.77574" lon="5.43419">
        <ele>226</ele>
        <time>2021-06-06T07:55:31.443Z</time>
      </trkpt>
      <trkpt lat="45.77575" lon="5.43429">
        <ele>226</ele>
        <time>2021-06-06T07:55:32.443Z</time>
      </trkpt>
      <trkpt lat="45.77576" lon="5.43439">
        <ele>226</ele>
        <time>2021-06-06T07:55:33.444Z</time>
      </trkpt>
      <trkpt lat="45.77577" lon="5.4345">
        <ele>226</ele>
        <time>2021-06-06T07:55:34.443Z</time>
      </trkpt>
      <trkpt lat="45.77578" lon="5.4346">
        <ele>226</ele>
        <time>2021-06-06T07:55:35.444Z</time>
      </trkpt>
      <trkpt lat="45.77578" lon="5.43471">
        <ele>225</ele>
        <time>2021-06-06T07:55:36.443Z</time>
      </trkpt>
      <trkpt lat="45.77579" lon="5.43481">
        <ele>225</ele>
        <time>2021-06-06T07:55:37.444Z</time>
      </trkpt>
      <trkpt lat="45.7758" lon="5.43492">
        <ele>225</ele>
        <time>2021-06-06T07:55:38.444Z</time>
      </trkpt>
      <trkpt lat="45.77581" lon="5.43502">
        <ele>225</ele>
        <time>2021-06-06T07:55:39.443Z</time>
      </trkpt>
      <trkpt lat="45.77582" lon="5.43511">
        <ele>225</ele>
        <time>2021-06-06T07:55:40.443Z</time>
      </trkpt>
      <trkpt lat="45.77582" lon="5.43522">
        <ele>225</ele>
        <time>2021-06-06T07:55:41.444Z</time>
      </trkpt>
      <trkpt lat="45.77582" lon="5.43532">
        <ele>225</ele>
        <time>2021-06-06T07:55:42.444Z</time>
      </trkpt>
      <trkpt lat="45.77583" lon="5.43542">
        <ele>225</ele>
        <time>2021-06-06T07:55:43.444Z</time>
      </trkpt>
      <trkpt lat="45.77584" lon="5.43552">
        <ele>225</ele>
        <time>2021-06-06T07:55:44.443Z</time>
      </trkpt>
      <trkpt lat="45.77586" lon="5.43562">
        <ele>224</ele>
        <time>2021-06-06T07:55:45.444Z</time>
      </trkpt>
      <trkpt lat="45.77587" lon="5.43573">
        <ele>224</ele>
        <time>2021-06-06T07:55:46.444Z</time>
      </trkpt>
      <trkpt lat="45.77589" lon="5.43582">
        <ele>224</ele>
        <time>2021-06-06T07:55:47.443Z</time>
      </trkpt>
      <trkpt lat="45.77592" lon="5.43592">
        <ele>224</ele>
        <time>2021-06-06T07:55:48.444Z</time>
      </trkpt>
      <trkpt lat="45.77594" lon="5.43602">
        <ele>224</ele>
        <time>2021-06-06T07:55:49.444Z</time>
      </trkpt>
      <trkpt lat="45.77597" lon="5.43612">
        <ele>224</ele>
        <time>2021-06-06T07:55:50.443Z</time>
      </trkpt>
      <trkpt lat="45.77601" lon="5.43621">
        <ele>224</ele>
        <time>2021-06-06T07:55:51.444Z</time>
      </trkpt>
      <trkpt lat="45.77604" lon="5.43631">
        <ele>224</ele>
        <time>2021-06-06T07:55:52.444Z</time>
      </trkpt>
      <trkpt lat="45.77607" lon="5.4364">
        <ele>224</ele>
        <time>2021-06-06T07:55:53.444Z</time>
      </trkpt>
      <trkpt lat="45.7761" lon="5.43649">
        <ele>224</ele>
        <time>2021-06-06T07:55:54.444Z</time>
      </trkpt>
      <trkpt lat="45.77613" lon="5.43659">
        <ele>224</ele>
        <time>2021-06-06T07:55:55.444Z</time>
      </trkpt>
      <trkpt lat="45.77616" lon="5.43668">
        <ele>224</ele>
        <time>2021-06-06T07:55:56.444Z</time>
      </trkpt>
      <trkpt lat="45.7762" lon="5.43677">
        <ele>224</ele>
        <time>2021-06-06T07:55:57.444Z</time>
      </trkpt>
      <trkpt lat="45.77624" lon="5.43685">
        <ele>224</ele>
        <time>2021-06-06T07:55:58.444Z</time>
      </trkpt>
      <trkpt lat="45.77627" lon="5.43695">
        <ele>224</ele>
        <time>2021-06-06T07:55:59.444Z</time>
      </trkpt>
      <trkpt lat="45.7763" lon="5.43704">
        <ele>224</ele>
        <time>2021-06-06T07:56:00.444Z</time>
      </trkpt>
      <trkpt lat="45.77633" lon="5.43713">
        <ele>224</ele>
        <time>2021-06-06T07:56:01.443Z</time>
      </trkpt>
      <trkpt lat="45.77636" lon="5.43722">
        <ele>224</ele>
        <time>2021-06-06T07:56:02.444Z</time>
      </trkpt>
      <trkpt lat="45.77639" lon="5.43732">
        <ele>224</ele>
        <time>2021-06-06T07:56:03.443Z</time>
      </trkpt>
      <trkpt lat="45.77642" lon="5.43741">
        <ele>224</ele>
        <time>2021-06-06T07:56:04.443Z</time>
      </trkpt>
      <trkpt lat="45.77645" lon="5.43751">
        <ele>223</ele>
        <time>2021-06-06T07:56:05.443Z</time>
      </trkpt>
      <trkpt lat="45.77648" lon="5.4376">
        <ele>223</ele>
        <time>2021-06-06T07:56:06.444Z</time>
      </trkpt>
      <trkpt lat="45.77651" lon="5.43769">
        <ele>223</ele>
        <time>2021-06-06T07:56:07.444Z</time>
      </trkpt>
      <trkpt lat="45.77655" lon="5.4378">
        <ele>223</ele>
        <time>2021-06-06T07:56:08.443Z</time>
      </trkpt>
      <trkpt lat="45.77657" lon="5.43788">
        <ele>222</ele>
        <time>2021-06-06T07:56:09.443Z</time>
      </trkpt>
      <trkpt lat="45.7766" lon="5.43798">
        <ele>222</ele>
        <time>2021-06-06T07:56:10.444Z</time>
      </trkpt>
      <trkpt lat="45.77663" lon="5.43807">
        <ele>222</ele>
        <time>2021-06-06T07:56:11.443Z</time>
      </trkpt>
      <trkpt lat="45.77667" lon="5.43816">
        <ele>222</ele>
        <time>2021-06-06T07:56:12.444Z</time>
      </trkpt>
      <trkpt lat="45.7767" lon="5.43825">
        <ele>222</ele>
        <time>2021-06-06T07:56:13.444Z</time>
      </trkpt>
      <trkpt lat="45.77675" lon="5.43837">
        <ele>222</ele>
        <time>2021-06-06T07:56:14.443Z</time>
      </trkpt>
      <trkpt lat="45.77678" lon="5.43844">
        <ele>222</ele>
        <time>2021-06-06T07:56:15.443Z</time>
      </trkpt>
      <trkpt lat="45.77682" lon="5.43853">
        <ele>222</ele>
        <time>2021-06-06T07:56:16.444Z</time>
      </trkpt>
      <trkpt lat="45.77687" lon="5.43862">
        <ele>223</ele>
        <time>2021-06-06T07:56:17.444Z</time>
      </trkpt>
      <trkpt lat="45.77692" lon="5.4387">
        <ele>223</ele>
        <time>2021-06-06T07:56:18.444Z</time>
      </trkpt>
      <trkpt lat="45.77697" lon="5.43881">
        <ele>223</ele>
        <time>2021-06-06T07:56:19.444Z</time>
      </trkpt>
      <trkpt lat="45.77701" lon="5.43888">
        <ele>222</ele>
        <time>2021-06-06T07:56:20.444Z</time>
      </trkpt>
      <trkpt lat="45.77706" lon="5.43896">
        <ele>222</ele>
        <time>2021-06-06T07:56:21.444Z</time>
      </trkpt>
      <trkpt lat="45.7771" lon="5.43905">
        <ele>222</ele>
        <time>2021-06-06T07:56:22.443Z</time>
      </trkpt>
      <trkpt lat="45.77715" lon="5.43914">
        <ele>222</ele>
        <time>2021-06-06T07:56:23.444Z</time>
      </trkpt>
      <trkpt lat="45.7772" lon="5.43922">
        <ele>222</ele>
        <time>2021-06-06T07:56:24.443Z</time>
      </trkpt>
      <trkpt lat="45.77725" lon="5.4393">
        <ele>222</ele>
        <time>2021-06-06T07:56:25.443Z</time>
      </trkpt>
      <trkpt lat="45.7773" lon="5.43938">
        <ele>222</ele>
        <time>2021-06-06T07:56:26.443Z</time>
      </trkpt>
      <trkpt lat="45.77735" lon="5.43945">
        <ele>222</ele>
        <time>2021-06-06T07:56:27.443Z</time>
      </trkpt>
      <trkpt lat="45.7774" lon="5.43953">
        <ele>222</ele>
        <time>2021-06-06T07:56:28.444Z</time>
      </trkpt>
      <trkpt lat="45.77746" lon="5.4396">
        <ele>221</ele>
        <time>2021-06-06T07:56:29.443Z</time>
      </trkpt>
      <trkpt lat="45.77751" lon="5.43966">
        <ele>221</ele>
        <time>2021-06-06T07:56:30.444Z</time>
      </trkpt>
      <trkpt lat="45.77756" lon="5.43973">
        <ele>221</ele>
        <time>2021-06-06T07:56:31.443Z</time>
      </trkpt>
      <trkpt lat="45.77762" lon="5.43979">
        <ele>220</ele>
        <time>2021-06-06T07:56:32.443Z</time>
      </trkpt>
      <trkpt lat="45.77767" lon="5.43986">
        <ele>220</ele>
        <time>2021-06-06T07:56:33.444Z</time>
      </trkpt>
      <trkpt lat="45.77772" lon="5.43992">
        <ele>220</ele>
        <time>2021-06-06T07:56:34.443Z</time>
      </trkpt>
      <trkpt lat="45.77777" lon="5.43998">
        <ele>220</ele>
        <time>2021-06-06T07:56:35.444Z</time>
      </trkpt>
      <trkpt lat="45.77783" lon="5.44004">
        <ele>220</ele>
        <time>2021-06-06T07:56:36.444Z</time>
      </trkpt>
      <trkpt lat="45.77788" lon="5.4401">
        <ele>220</ele>
        <time>2021-06-06T07:56:37.444Z</time>
      </trkpt>
      <trkpt lat="45.77793" lon="5.44016">
        <ele>220</ele>
        <time>2021-06-06T07:56:38.444Z</time>
      </trkpt>
      <trkpt lat="45.77799" lon="5.44022">
        <ele>220</ele>
        <time>2021-06-06T07:56:39.444Z</time>
      </trkpt>
      <trkpt lat="45.77805" lon="5.44029">
        <ele>220</ele>
        <time>2021-06-06T07:56:40.444Z</time>
      </trkpt>
      <trkpt lat="45.7781" lon="5.44033">
        <ele>220</ele>
        <time>2021-06-06T07:56:41.444Z</time>
      </trkpt>
      <trkpt lat="45.77817" lon="5.4404">
        <ele>220</ele>
        <time>2021-06-06T07:56:42.443Z</time>
      </trkpt>
      <trkpt lat="45.77822" lon="5.44044">
        <ele>220</ele>
        <time>2021-06-06T07:56:43.444Z</time>
      </trkpt>
      <trkpt lat="45.77828" lon="5.44048">
        <ele>220</ele>
        <time>2021-06-06T07:56:44.444Z</time>
      </trkpt>
      <trkpt lat="45.77834" lon="5.44052">
        <ele>220</ele>
        <time>2021-06-06T07:56:45.444Z</time>
      </trkpt>
      <trkpt lat="45.7784" lon="5.44057">
        <ele>220</ele>
        <time>2021-06-06T07:56:46.443Z</time>
      </trkpt>
      <trkpt lat="45.77846" lon="5.44061">
        <ele>220</ele>
        <time>2021-06-06T07:56:47.444Z</time>
      </trkpt>
      <trkpt lat="45.77852" lon="5.44065">
        <ele>221</ele>
        <time>2021-06-06T07:56:48.443Z</time>
      </trkpt>
      <trkpt lat="45.77858" lon="5.44069">
        <ele>221</ele>
        <time>2021-06-06T07:56:49.443Z</time>
      </trkpt>
      <trkpt lat="45.77865" lon="5.44073">
        <ele>221</ele>
        <time>2021-06-06T07:56:50.444Z</time>
      </trkpt>
      <trkpt lat="45.77871" lon="5.44077">
        <ele>221</ele>
        <time>2021-06-06T07:56:51.444Z</time>
      </trkpt>
      <trkpt lat="45.77877" lon="5.44081">
        <ele>221</ele>
        <time>2021-06-06T07:56:52.443Z</time>
      </trkpt>
      <trkpt lat="45.77883" lon="5.44085">
        <ele>221</ele>
        <time>2021-06-06T07:56:53.444Z</time>
      </trkpt>
      <trkpt lat="45.77891" lon="5.44089">
        <ele>221</ele>
        <time>2021-06-06T07:56:54.444Z</time>
      </trkpt>
      <trkpt lat="45.77897" lon="5.44094">
        <ele>221</ele>
        <time>2021-06-06T07:56:55.444Z</time>
      </trkpt>
      <trkpt lat="45.77902" lon="5.44097">
        <ele>221</ele>
        <time>2021-06-06T07:56:56.443Z</time>
      </trkpt>
      <trkpt lat="45.77908" lon="5.44101">
        <ele>221</ele>
        <time>2021-06-06T07:56:57.444Z</time>
      </trkpt>
      <trkpt lat="45.77916" lon="5.44105">
        <ele>221</ele>
        <time>2021-06-06T07:56:58.443Z</time>
      </trkpt>
      <trkpt lat="45.77922" lon="5.44109">
        <ele>221</ele>
        <time>2021-06-06T07:56:59.443Z</time>
      </trkpt>
      <trkpt lat="45.77927" lon="5.44113">
        <ele>221</ele>
        <time>2021-06-06T07:57:00.444Z</time>
      </trkpt>
      <trkpt lat="45.77933" lon="5.44117">
        <ele>221</ele>
        <time>2021-06-06T07:57:01.444Z</time>
      </trkpt>
      <trkpt lat="45.77939" lon="5.44121">
        <ele>221</ele>
        <time>2021-06-06T07:57:02.444Z</time>
      </trkpt>
      <trkpt lat="45.77945" lon="5.44125">
        <ele>221</ele>
        <time>2021-06-06T07:57:03.444Z</time>
      </trkpt>
      <trkpt lat="45.77953" lon="5.4413">
        <ele>221</ele>
        <time>2021-06-06T07:57:04.444Z</time>
      </trkpt>
      <trkpt lat="45.77959" lon="5.44133">
        <ele>221</ele>
        <time>2021-06-06T07:57:05.443Z</time>
      </trkpt>
      <trkpt lat="45.77965" lon="5.44137">
        <ele>221</ele>
        <time>2021-06-06T07:57:06.443Z</time>
      </trkpt>
      <trkpt lat="45.77972" lon="5.44141">
        <ele>220</ele>
        <time>2021-06-06T07:57:07.444Z</time>
      </trkpt>
      <trkpt lat="45.77978" lon="5.44145">
        <ele>220</ele>
        <time>2021-06-06T07:57:08.444Z</time>
      </trkpt>
      <trkpt lat="45.77984" lon="5.44149">
        <ele>220</ele>
        <time>2021-06-06T07:57:09.444Z</time>
      </trkpt>
      <trkpt lat="45.7799" lon="5.44153">
        <ele>220</ele>
        <time>2021-06-06T07:57:10.444Z</time>
      </trkpt>
      <trkpt lat="45.77996" lon="5.44157">
        <ele>219</ele>
        <time>2021-06-06T07:57:11.443Z</time>
      </trkpt>
      <trkpt lat="45.78002" lon="5.4416">
        <ele>219</ele>
        <time>2021-06-06T07:57:12.444Z</time>
      </trkpt>
      <trkpt lat="45.78008" lon="5.44164">
        <ele>219</ele>
        <time>2021-06-06T07:57:13.444Z</time>
      </trkpt>
      <trkpt lat="45.78014" lon="5.44168">
        <ele>219</ele>
        <time>2021-06-06T07:57:14.444Z</time>
      </trkpt>
      <trkpt lat="45.78019" lon="5.44171">
        <ele>219</ele>
        <time>2021-06-06T07:57:15.444Z</time>
      </trkpt>
      <trkpt lat="45.78023" lon="5.44174">
        <ele>219</ele>
        <time>2021-06-06T07:57:16.443Z</time>
      </trkpt>
      <trkpt lat="45.78029" lon="5.44178">
        <ele>220</ele>
        <time>2021-06-06T07:57:17.443Z</time>
      </trkpt>
      <trkpt lat="45.78034" lon="5.44181">
        <ele>220</ele>
        <time>2021-06-06T07:57:18.444Z</time>
      </trkpt>
      <trkpt lat="45.78038" lon="5.44183">
        <ele>220</ele>
        <time>2021-06-06T07:57:19.444Z</time>
      </trkpt>
      <trkpt lat="45.78042" lon="5.44186">
        <ele>220</ele>
        <time>2021-06-06T07:57:20.443Z</time>
      </trkpt>
      <trkpt lat="45.78046" lon="5.44188">
        <ele>220</ele>
        <time>2021-06-06T07:57:21.444Z</time>
      </trkpt>
      <trkpt lat="45.78049" lon="5.4419">
        <ele>220</ele>
        <time>2021-06-06T07:57:22.444Z</time>
      </trkpt>
      <trkpt lat="45.78052" lon="5.44192">
        <ele>221</ele>
        <time>2021-06-06T07:57:23.444Z</time>
      </trkpt>
      <trkpt lat="45.78055" lon="5.44195">
        <ele>221</ele>
        <time>2021-06-06T07:57:24.444Z</time>
      </trkpt>
      <trkpt lat="45.78056" lon="5.44198">
        <ele>221</ele>
        <time>2021-06-06T07:57:25.444Z</time>
      </trkpt>
      <trkpt lat="45.78058" lon="5.44203">
        <ele>221</ele>
        <time>2021-06-06T07:57:26.443Z</time>
      </trkpt>
      <trkpt lat="45.78058" lon="5.4421">
        <ele>221</ele>
        <time>2021-06-06T07:57:27.444Z</time>
      </trkpt>
      <trkpt lat="45.78057" lon="5.44217">
        <ele>221</ele>
        <time>2021-06-06T07:57:28.443Z</time>
      </trkpt>
      <trkpt lat="45.78055" lon="5.44224">
        <ele>221</ele>
        <time>2021-06-06T07:57:29.443Z</time>
      </trkpt>
      <trkpt lat="45.78053" lon="5.4423">
        <ele>221</ele>
        <time>2021-06-06T07:57:30.443Z</time>
      </trkpt>
      <trkpt lat="45.78051" lon="5.4424">
        <ele>220</ele>
        <time>2021-06-06T07:57:31.443Z</time>
      </trkpt>
      <trkpt lat="45.78049" lon="5.44248">
        <ele>220</ele>
        <time>2021-06-06T07:57:32.443Z</time>
      </trkpt>
      <trkpt lat="45.78047" lon="5.44257">
        <ele>220</ele>
        <time>2021-06-06T07:57:33.444Z</time>
      </trkpt>
      <trkpt lat="45.78045" lon="5.44266">
        <ele>220</ele>
        <time>2021-06-06T07:57:34.444Z</time>
      </trkpt>
      <trkpt lat="45.78043" lon="5.44275">
        <ele>220</ele>
        <time>2021-06-06T07:57:35.443Z</time>
      </trkpt>
      <trkpt lat="45.78041" lon="5.44285">
        <ele>220</ele>
        <time>2021-06-06T07:57:36.443Z</time>
      </trkpt>
      <trkpt lat="45.78038" lon="5.44295">
        <ele>221</ele>
        <time>2021-06-06T07:57:37.444Z</time>
      </trkpt>
      <trkpt lat="45.78036" lon="5.44304">
        <ele>221</ele>
        <time>2021-06-06T07:57:38.444Z</time>
      </trkpt>
      <trkpt lat="45.78034" lon="5.44312">
        <ele>222</ele>
        <time>2021-06-06T07:57:39.444Z</time>
      </trkpt>
      <trkpt lat="45.78031" lon="5.44323">
        <ele>222</ele>
        <time>2021-06-06T07:57:40.443Z</time>
      </trkpt>
      <trkpt lat="45.78029" lon="5.44333">
        <ele>222</ele>
        <time>2021-06-06T07:57:41.444Z</time>
      </trkpt>
      <trkpt lat="45.78027" lon="5.44343">
        <ele>222</ele>
        <time>2021-06-06T07:57:42.444Z</time>
      </trkpt>
      <trkpt lat="45.78025" lon="5.44353">
        <ele>222</ele>
        <time>2021-06-06T07:57:43.444Z</time>
      </trkpt>
      <trkpt lat="45.78023" lon="5.44362">
        <ele>223</ele>
        <time>2021-06-06T07:57:44.443Z</time>
      </trkpt>
      <trkpt lat="45.78021" lon="5.4437">
        <ele>223</ele>
        <time>2021-06-06T07:57:45.444Z</time>
      </trkpt>
      <trkpt lat="45.78018" lon="5.44382">
        <ele>223</ele>
        <time>2021-06-06T07:57:46.444Z</time>
      </trkpt>
      <trkpt lat="45.78016" lon="5.44392">
        <ele>223</ele>
        <time>2021-06-06T07:57:47.444Z</time>
      </trkpt>
      <trkpt lat="45.78013" lon="5.44401">
        <ele>224</ele>
        <time>2021-06-06T07:57:48.443Z</time>
      </trkpt>
      <trkpt lat="45.78011" lon="5.44411">
        <ele>224</ele>
        <time>2021-06-06T07:57:49.444Z</time>
      </trkpt>
      <trkpt lat="45.78009" lon="5.44421">
        <ele>224</ele>
        <time>2021-06-06T07:57:50.444Z</time>
      </trkpt>
      <trkpt lat="45.78007" lon="5.44431">
        <ele>224</ele>
        <time>2021-06-06T07:57:51.443Z</time>
      </trkpt>
      <trkpt lat="45.78005" lon="5.4444">
        <ele>224</ele>
        <time>2021-06-06T07:57:52.444Z</time>
      </trkpt>
      <trkpt lat="45.78002" lon="5.4445">
        <ele>225</ele>
        <time>2021-06-06T07:57:53.444Z</time>
      </trkpt>
      <trkpt lat="45.78" lon="5.44458">
        <ele>225</ele>
        <time>2021-06-06T07:57:54.444Z</time>
      </trkpt>
      <trkpt lat="45.77997" lon="5.44468">
        <ele>225</ele>
        <time>2021-06-06T07:57:55.443Z</time>
      </trkpt>
      <trkpt lat="45.77994" lon="5.4448">
        <ele>225</ele>
        <time>2021-06-06T07:57:56.443Z</time>
      </trkpt>
      <trkpt lat="45.77992" lon="5.4449">
        <ele>225</ele>
        <time>2021-06-06T07:57:57.444Z</time>
      </trkpt>
      <trkpt lat="45.7799" lon="5.445">
        <ele>225</ele>
        <time>2021-06-06T07:57:58.443Z</time>
      </trkpt>
      <trkpt lat="45.77988" lon="5.4451">
        <ele>225</ele>
        <time>2021-06-06T07:57:59.443Z</time>
      </trkpt>
      <trkpt lat="45.77985" lon="5.44519">
        <ele>224</ele>
        <time>2021-06-06T07:58:00.443Z</time>
      </trkpt>
      <trkpt lat="45.77983" lon="5.44529">
        <ele>224</ele>
        <time>2021-06-06T07:58:01.443Z</time>
      </trkpt>
      <trkpt lat="45.77981" lon="5.44538">
        <ele>224</ele>
        <time>2021-06-06T07:58:02.444Z</time>
      </trkpt>
      <trkpt lat="45.77979" lon="5.44548">
        <ele>224</ele>
        <time>2021-06-06T07:58:03.443Z</time>
      </trkpt>
      <trkpt lat="45.77978" lon="5.44557">
        <ele>224</ele>
        <time>2021-06-06T07:58:04.444Z</time>
      </trkpt>
      <trkpt lat="45.77977" lon="5.44567">
        <ele>224</ele>
        <time>2021-06-06T07:58:05.443Z</time>
      </trkpt>
      <trkpt lat="45.77977" lon="5.44576">
        <ele>224</ele>
        <time>2021-06-06T07:58:06.443Z</time>
      </trkpt>
      <trkpt lat="45.77978" lon="5.44586">
        <ele>224</ele>
        <time>2021-06-06T07:58:07.443Z</time>
      </trkpt>
      <trkpt lat="45.77978" lon="5.44595">
        <ele>224</ele>
        <time>2021-06-06T07:58:08.444Z</time>
      </trkpt>
      <trkpt lat="45.77979" lon="5.44603">
        <ele>224</ele>
        <time>2021-06-06T07:58:09.444Z</time>
      </trkpt>
      <trkpt lat="45.7798" lon="5.44614">
        <ele>224</ele>
        <time>2021-06-06T07:58:10.443Z</time>
      </trkpt>
      <trkpt lat="45.77982" lon="5.44623">
        <ele>224</ele>
        <time>2021-06-06T07:58:11.444Z</time>
      </trkpt>
      <trkpt lat="45.77985" lon="5.44633">
        <ele>224</ele>
        <time>2021-06-06T07:58:12.444Z</time>
      </trkpt>
      <trkpt lat="45.77987" lon="5.44643">
        <ele>224</ele>
        <time>2021-06-06T07:58:13.444Z</time>
      </trkpt>
      <trkpt lat="45.7799" lon="5.44653">
        <ele>224</ele>
        <time>2021-06-06T07:58:14.444Z</time>
      </trkpt>
      <trkpt lat="45.77993" lon="5.44662">
        <ele>224</ele>
        <time>2021-06-06T07:58:15.443Z</time>
      </trkpt>
      <trkpt lat="45.77996" lon="5.44671">
        <ele>224</ele>
        <time>2021-06-06T07:58:16.443Z</time>
      </trkpt>
      <trkpt lat="45.78" lon="5.4468">
        <ele>224</ele>
        <time>2021-06-06T07:58:17.444Z</time>
      </trkpt>
      <trkpt lat="45.78003" lon="5.44688">
        <ele>224</ele>
        <time>2021-06-06T07:58:18.444Z</time>
      </trkpt>
      <trkpt lat="45.78007" lon="5.44697">
        <ele>224</ele>
        <time>2021-06-06T07:58:19.444Z</time>
      </trkpt>
      <trkpt lat="45.78011" lon="5.44706">
        <ele>225</ele>
        <time>2021-06-06T07:58:20.444Z</time>
      </trkpt>
      <trkpt lat="45.78014" lon="5.44715">
        <ele>225</ele>
        <time>2021-06-06T07:58:21.443Z</time>
      </trkpt>
      <trkpt lat="45.78018" lon="5.44724">
        <ele>225</ele>
        <time>2021-06-06T07:58:22.443Z</time>
      </trkpt>
      <trkpt lat="45.78021" lon="5.44733">
        <ele>225</ele>
        <time>2021-06-06T07:58:23.443Z</time>
      </trkpt>
      <trkpt lat="45.78025" lon="5.44742">
        <ele>225</ele>
        <time>2021-06-06T07:58:24.444Z</time>
      </trkpt>
      <trkpt lat="45.78028" lon="5.44752">
        <ele>225</ele>
        <time>2021-06-06T07:58:25.444Z</time>
      </trkpt>
      <trkpt lat="45.78031" lon="5.44761">
        <ele>224</ele>
        <time>2021-06-06T07:58:26.444Z</time>
      </trkpt>
      <trkpt lat="45.78035" lon="5.44771">
        <ele>224</ele>
        <time>2021-06-06T07:58:27.443Z</time>
      </trkpt>
      <trkpt lat="45.78039" lon="5.44781">
        <ele>224</ele>
        <time>2021-06-06T07:58:28.444Z</time>
      </trkpt>
      <trkpt lat="45.78043" lon="5.4479">
        <ele>223</ele>
        <time>2021-06-06T07:58:29.443Z</time>
      </trkpt>
      <trkpt lat="45.78046" lon="5.448">
        <ele>223</ele>
        <time>2021-06-06T07:58:30.443Z</time>
      </trkpt>
      <trkpt lat="45.7805" lon="5.44809">
        <ele>223</ele>
        <time>2021-06-06T07:58:31.444Z</time>
      </trkpt>
      <trkpt lat="45.78053" lon="5.44819">
        <ele>222</ele>
        <time>2021-06-06T07:58:32.444Z</time>
      </trkpt>
      <trkpt lat="45.78056" lon="5.44828">
        <ele>222</ele>
        <time>2021-06-06T07:58:33.444Z</time>
      </trkpt>
      <trkpt lat="45.7806" lon="5.44838">
        <ele>221</ele>
        <time>2021-06-06T07:58:34.443Z</time>
      </trkpt>
      <trkpt lat="45.78063" lon="5.44847">
        <ele>221</ele>
        <time>2021-06-06T07:58:35.443Z</time>
      </trkpt>
      <trkpt lat="45.78067" lon="5.44856">
        <ele>221</ele>
        <time>2021-06-06T07:58:36.444Z</time>
      </trkpt>
      <trkpt lat="45.78071" lon="5.44864">
        <ele>220</ele>
        <time>2021-06-06T07:58:37.444Z</time>
      </trkpt>
      <trkpt lat="45.78074" lon="5.44873">
        <ele>220</ele>
        <time>2021-06-06T07:58:38.444Z</time>
      </trkpt>
      <trkpt lat="45.78078" lon="5.44883">
        <ele>220</ele>
        <time>2021-06-06T07:58:39.444Z</time>
      </trkpt>
      <trkpt lat="45.78082" lon="5.44892">
        <ele>220</ele>
        <time>2021-06-06T07:58:40.444Z</time>
      </trkpt>
      <trkpt lat="45.78086" lon="5.449">
        <ele>221</ele>
        <time>2021-06-06T07:58:41.443Z</time>
      </trkpt>
      <trkpt lat="45.78089" lon="5.44908">
        <ele>221</ele>
        <time>2021-06-06T07:58:42.444Z</time>
      </trkpt>
      <trkpt lat="45.78095" lon="5.44918">
        <ele>221</ele>
        <time>2021-06-06T07:58:43.444Z</time>
      </trkpt>
      <trkpt lat="45.781" lon="5.44927">
        <ele>221</ele>
        <time>2021-06-06T07:58:44.444Z</time>
      </trkpt>
      <trkpt lat="45.78104" lon="5.44936">
        <ele>221</ele>
        <time>2021-06-06T07:58:45.443Z</time>
      </trkpt>
      <trkpt lat="45.7811" lon="5.44945">
        <ele>221</ele>
        <time>2021-06-06T07:58:46.444Z</time>
      </trkpt>
      <trkpt lat="45.78115" lon="5.44954">
        <ele>220</ele>
        <time>2021-06-06T07:58:47.444Z</time>
      </trkpt>
      <trkpt lat="45.78121" lon="5.44962">
        <ele>220</ele>
        <time>2021-06-06T07:58:48.443Z</time>
      </trkpt>
      <trkpt lat="45.78127" lon="5.44971">
        <ele>219</ele>
        <time>2021-06-06T07:58:49.444Z</time>
      </trkpt>
      <trkpt lat="45.78133" lon="5.4498">
        <ele>219</ele>
        <time>2021-06-06T07:58:50.443Z</time>
      </trkpt>
      <trkpt lat="45.78139" lon="5.44987">
        <ele>219</ele>
        <time>2021-06-06T07:58:51.443Z</time>
      </trkpt>
      <trkpt lat="45.78147" lon="5.44997">
        <ele>218</ele>
        <time>2021-06-06T07:58:52.444Z</time>
      </trkpt>
      <trkpt lat="45.78154" lon="5.45005">
        <ele>218</ele>
        <time>2021-06-06T07:58:53.444Z</time>
      </trkpt>
      <trkpt lat="45.78162" lon="5.45014">
        <ele>218</ele>
        <time>2021-06-06T07:58:54.444Z</time>
      </trkpt>
      <trkpt lat="45.7817" lon="5.45022">
        <ele>217</ele>
        <time>2021-06-06T07:58:55.444Z</time>
      </trkpt>
      <trkpt lat="45.78177" lon="5.4503">
        <ele>217</ele>
        <time>2021-06-06T07:58:56.444Z</time>
      </trkpt>
      <trkpt lat="45.78185" lon="5.45037">
        <ele>216</ele>
        <time>2021-06-06T07:58:57.444Z</time>
      </trkpt>
      <trkpt lat="45.78194" lon="5.45045">
        <ele>215</ele>
        <time>2021-06-06T07:58:58.444Z</time>
      </trkpt>
      <trkpt lat="45.78202" lon="5.45052">
        <ele>215</ele>
        <time>2021-06-06T07:58:59.443Z</time>
      </trkpt>
      <trkpt lat="45.78211" lon="5.45058">
        <ele>214</ele>
        <time>2021-06-06T07:59:00.444Z</time>
      </trkpt>
      <trkpt lat="45.78219" lon="5.45064">
        <ele>214</ele>
        <time>2021-06-06T07:59:01.443Z</time>
      </trkpt>
      <trkpt lat="45.78226" lon="5.45069">
        <ele>214</ele>
        <time>2021-06-06T07:59:02.443Z</time>
      </trkpt>
      <trkpt lat="45.78236" lon="5.45077">
        <ele>214</ele>
        <time>2021-06-06T07:59:03.444Z</time>
      </trkpt>
      <trkpt lat="45.78244" lon="5.45083">
        <ele>214</ele>
        <time>2021-06-06T07:59:04.444Z</time>
      </trkpt>
      <trkpt lat="45.78253" lon="5.45088">
        <ele>214</ele>
        <time>2021-06-06T07:59:05.443Z</time>
      </trkpt>
      <trkpt lat="45.78261" lon="5.45094">
        <ele>214</ele>
        <time>2021-06-06T07:59:06.444Z</time>
      </trkpt>
      <trkpt lat="45.78269" lon="5.451">
        <ele>213</ele>
        <time>2021-06-06T07:59:07.444Z</time>
      </trkpt>
      <trkpt lat="45.78277" lon="5.45105">
        <ele>213</ele>
        <time>2021-06-06T07:59:08.444Z</time>
      </trkpt>
      <trkpt lat="45.78285" lon="5.4511">
        <ele>213</ele>
        <time>2021-06-06T07:59:09.444Z</time>
      </trkpt>
      <trkpt lat="45.78293" lon="5.45115">
        <ele>212</ele>
        <time>2021-06-06T07:59:10.444Z</time>
      </trkpt>
      <trkpt lat="45.783" lon="5.4512">
        <ele>212</ele>
        <time>2021-06-06T07:59:11.444Z</time>
      </trkpt>
      <trkpt lat="45.78307" lon="5.45125">
        <ele>212</ele>
        <time>2021-06-06T07:59:12.444Z</time>
      </trkpt>
      <trkpt lat="45.78314" lon="5.45129">
        <ele>212</ele>
        <time>2021-06-06T07:59:13.443Z</time>
      </trkpt>
      <trkpt lat="45.7832" lon="5.45133">
        <ele>212</ele>
        <time>2021-06-06T07:59:14.444Z</time>
      </trkpt>
      <trkpt lat="45.78327" lon="5.45137">
        <ele>212</ele>
        <time>2021-06-06T07:59:15.444Z</time>
      </trkpt>
      <trkpt lat="45.78332" lon="5.45141">
        <ele>212</ele>
        <time>2021-06-06T07:59:16.444Z</time>
      </trkpt>
      <trkpt lat="45.78339" lon="5.45146">
        <ele>213</ele>
        <time>2021-06-06T07:59:17.444Z</time>
      </trkpt>
      <trkpt lat="45.78344" lon="5.4515">
        <ele>213</ele>
        <time>2021-06-06T07:59:18.444Z</time>
      </trkpt>
      <trkpt lat="45.7835" lon="5.45154">
        <ele>213</ele>
        <time>2021-06-06T07:59:19.444Z</time>
      </trkpt>
      <trkpt lat="45.78355" lon="5.45158">
        <ele>213</ele>
        <time>2021-06-06T07:59:20.443Z</time>
      </trkpt>
      <trkpt lat="45.78361" lon="5.45161">
        <ele>213</ele>
        <time>2021-06-06T07:59:21.444Z</time>
      </trkpt>
      <trkpt lat="45.78367" lon="5.45165">
        <ele>213</ele>
        <time>2021-06-06T07:59:22.443Z</time>
      </trkpt>
      <trkpt lat="45.78373" lon="5.45169">
        <ele>213</ele>
        <time>2021-06-06T07:59:23.444Z</time>
      </trkpt>
      <trkpt lat="45.78379" lon="5.45173">
        <ele>213</ele>
        <time>2021-06-06T07:59:24.443Z</time>
      </trkpt>
      <trkpt lat="45.78385" lon="5.45177">
        <ele>214</ele>
        <time>2021-06-06T07:59:25.443Z</time>
      </trkpt>
      <trkpt lat="45.78391" lon="5.45181">
        <ele>214</ele>
        <time>2021-06-06T07:59:26.444Z</time>
      </trkpt>
      <trkpt lat="45.78396" lon="5.45185">
        <ele>214</ele>
        <time>2021-06-06T07:59:27.444Z</time>
      </trkpt>
      <trkpt lat="45.78402" lon="5.45189">
        <ele>214</ele>
        <time>2021-06-06T07:59:28.444Z</time>
      </trkpt>
      <trkpt lat="45.78408" lon="5.45194">
        <ele>214</ele>
        <time>2021-06-06T07:59:29.444Z</time>
      </trkpt>
      <trkpt lat="45.78414" lon="5.45198">
        <ele>214</ele>
        <time>2021-06-06T07:59:30.443Z</time>
      </trkpt>
      <trkpt lat="45.78419" lon="5.45201">
        <ele>214</ele>
        <time>2021-06-06T07:59:31.443Z</time>
      </trkpt>
      <trkpt lat="45.78427" lon="5.45206">
        <ele>214</ele>
        <time>2021-06-06T07:59:32.443Z</time>
      </trkpt>
      <trkpt lat="45.78433" lon="5.4521">
        <ele>214</ele>
        <time>2021-06-06T07:59:33.444Z</time>
      </trkpt>
      <trkpt lat="45.78439" lon="5.45214">
        <ele>214</ele>
        <time>2021-06-06T07:59:34.443Z</time>
      </trkpt>
      <trkpt lat="45.78446" lon="5.45219">
        <ele>214</ele>
        <time>2021-06-06T07:59:35.443Z</time>
      </trkpt>
      <trkpt lat="45.78452" lon="5.45223">
        <ele>214</ele>
        <time>2021-06-06T07:59:36.443Z</time>
      </trkpt>
      <trkpt lat="45.78459" lon="5.45228">
        <ele>213</ele>
        <time>2021-06-06T07:59:37.444Z</time>
      </trkpt>
      <trkpt lat="45.78466" lon="5.45233">
        <ele>213</ele>
        <time>2021-06-06T07:59:38.444Z</time>
      </trkpt>
      <trkpt lat="45.78473" lon="5.45238">
        <ele>213</ele>
        <time>2021-06-06T07:59:39.443Z</time>
      </trkpt>
      <trkpt lat="45.7848" lon="5.45242">
        <ele>213</ele>
        <time>2021-06-06T07:59:40.443Z</time>
      </trkpt>
      <trkpt lat="45.78488" lon="5.45247">
        <ele>213</ele>
        <time>2021-06-06T07:59:41.443Z</time>
      </trkpt>
      <trkpt lat="45.78495" lon="5.45252">
        <ele>213</ele>
        <time>2021-06-06T07:59:42.443Z</time>
      </trkpt>
      <trkpt lat="45.78503" lon="5.45257">
        <ele>213</ele>
        <time>2021-06-06T07:59:43.444Z</time>
      </trkpt>
      <trkpt lat="45.78511" lon="5.45263">
        <ele>212</ele>
        <time>2021-06-06T07:59:44.444Z</time>
      </trkpt>
      <trkpt lat="45.78519" lon="5.45268">
        <ele>212</ele>
        <time>2021-06-06T07:59:45.444Z</time>
      </trkpt>
      <trkpt lat="45.78525" lon="5.45272">
        <ele>212</ele>
        <time>2021-06-06T07:59:46.444Z</time>
      </trkpt>
      <trkpt lat="45.78532" lon="5.45277">
        <ele>211</ele>
        <time>2021-06-06T07:59:47.444Z</time>
      </trkpt>
      <trkpt lat="45.78541" lon="5.45284">
        <ele>211</ele>
        <time>2021-06-06T07:59:48.444Z</time>
      </trkpt>
      <trkpt lat="45.78549" lon="5.45289">
        <ele>211</ele>
        <time>2021-06-06T07:59:49.444Z</time>
      </trkpt>
      <trkpt lat="45.78556" lon="5.45294">
        <ele>210</ele>
        <time>2021-06-06T07:59:50.444Z</time>
      </trkpt>
      <trkpt lat="45.78562" lon="5.45299">
        <ele>210</ele>
        <time>2021-06-06T07:59:51.444Z</time>
      </trkpt>
      <trkpt lat="45.7857" lon="5.45305">
        <ele>210</ele>
        <time>2021-06-06T07:59:52.444Z</time>
      </trkpt>
      <trkpt lat="45.78577" lon="5.4531">
        <ele>210</ele>
        <time>2021-06-06T07:59:53.443Z</time>
      </trkpt>
      <trkpt lat="45.78583" lon="5.45316">
        <ele>210</ele>
        <time>2021-06-06T07:59:54.444Z</time>
      </trkpt>
      <trkpt lat="45.7859" lon="5.45321">
        <ele>210</ele>
        <time>2021-06-06T07:59:55.443Z</time>
      </trkpt>
      <trkpt lat="45.78597" lon="5.45326">
        <ele>210</ele>
        <time>2021-06-06T07:59:56.443Z</time>
      </trkpt>
      <trkpt lat="45.78603" lon="5.45331">
        <ele>210</ele>
        <time>2021-06-06T07:59:57.443Z</time>
      </trkpt>
      <trkpt lat="45.78609" lon="5.45337">
        <ele>210</ele>
        <time>2021-06-06T07:59:58.444Z</time>
      </trkpt>
      <trkpt lat="45.78615" lon="5.45342">
        <ele>210</ele>
        <time>2021-06-06T07:59:59.443Z</time>
      </trkpt>
      <trkpt lat="45.78621" lon="5.45347">
        <ele>210</ele>
        <time>2021-06-06T08:00:00.443Z</time>
      </trkpt>
      <trkpt lat="45.78627" lon="5.45351">
        <ele>210</ele>
        <time>2021-06-06T08:00:01.443Z</time>
      </trkpt>
      <trkpt lat="45.78632" lon="5.45356">
        <ele>210</ele>
        <time>2021-06-06T08:00:02.443Z</time>
      </trkpt>
      <trkpt lat="45.78637" lon="5.45361">
        <ele>210</ele>
        <time>2021-06-06T08:00:03.444Z</time>
      </trkpt>
      <trkpt lat="45.78642" lon="5.45366">
        <ele>210</ele>
        <time>2021-06-06T08:00:04.444Z</time>
      </trkpt>
      <trkpt lat="45.78646" lon="5.45372">
        <ele>210</ele>
        <time>2021-06-06T08:00:05.443Z</time>
      </trkpt>
      <trkpt lat="45.78649" lon="5.45379">
        <ele>210</ele>
        <time>2021-06-06T08:00:06.443Z</time>
      </trkpt>
      <trkpt lat="45.78653" lon="5.45385">
        <ele>210</ele>
        <time>2021-06-06T08:00:07.444Z</time>
      </trkpt>
      <trkpt lat="45.78658" lon="5.4539">
        <ele>210</ele>
        <time>2021-06-06T08:00:08.444Z</time>
      </trkpt>
      <trkpt lat="45.78663" lon="5.45393">
        <ele>211</ele>
        <time>2021-06-06T08:00:09.444Z</time>
      </trkpt>
      <trkpt lat="45.78668" lon="5.45394">
        <ele>212</ele>
        <time>2021-06-06T08:00:10.444Z</time>
      </trkpt>
      <trkpt lat="45.78674" lon="5.45395">
        <ele>212</ele>
        <time>2021-06-06T08:00:11.443Z</time>
      </trkpt>
      <trkpt lat="45.78679" lon="5.45397">
        <ele>212</ele>
        <time>2021-06-06T08:00:12.444Z</time>
      </trkpt>
      <trkpt lat="45.78685" lon="5.45399">
        <ele>212</ele>
        <time>2021-06-06T08:00:13.443Z</time>
      </trkpt>
      <trkpt lat="45.7869" lon="5.45402">
        <ele>212</ele>
        <time>2021-06-06T08:00:14.444Z</time>
      </trkpt>
      <trkpt lat="45.78695" lon="5.45405">
        <ele>212</ele>
        <time>2021-06-06T08:00:15.444Z</time>
      </trkpt>
      <trkpt lat="45.787" lon="5.45408">
        <ele>212</ele>
        <time>2021-06-06T08:00:16.444Z</time>
      </trkpt>
      <trkpt lat="45.78706" lon="5.45413">
        <ele>212</ele>
        <time>2021-06-06T08:00:17.444Z</time>
      </trkpt>
      <trkpt lat="45.78711" lon="5.45417">
        <ele>212</ele>
        <time>2021-06-06T08:00:18.443Z</time>
      </trkpt>
      <trkpt lat="45.78716" lon="5.45422">
        <ele>212</ele>
        <time>2021-06-06T08:00:19.444Z</time>
      </trkpt>
      <trkpt lat="45.78722" lon="5.45426">
        <ele>212</ele>
        <time>2021-06-06T08:00:20.443Z</time>
      </trkpt>
      <trkpt lat="45.78727" lon="5.4543">
        <ele>212</ele>
        <time>2021-06-06T08:00:21.443Z</time>
      </trkpt>
      <trkpt lat="45.78732" lon="5.45434">
        <ele>212</ele>
        <time>2021-06-06T08:00:22.443Z</time>
      </trkpt>
      <trkpt lat="45.78737" lon="5.45439">
        <ele>212</ele>
        <time>2021-06-06T08:00:23.444Z</time>
      </trkpt>
      <trkpt lat="45.78742" lon="5.45443">
        <ele>212</ele>
        <time>2021-06-06T08:00:24.443Z</time>
      </trkpt>
      <trkpt lat="45.78747" lon="5.45448">
        <ele>212</ele>
        <time>2021-06-06T08:00:25.444Z</time>
      </trkpt>
      <trkpt lat="45.78751" lon="5.45451">
        <ele>212</ele>
        <time>2021-06-06T08:00:26.444Z</time>
      </trkpt>
      <trkpt lat="45.78757" lon="5.45456">
        <ele>212</ele>
        <time>2021-06-06T08:00:27.444Z</time>
      </trkpt>
      <trkpt lat="45.78762" lon="5.4546">
        <ele>211</ele>
        <time>2021-06-06T08:00:28.444Z</time>
      </trkpt>
      <trkpt lat="45.78767" lon="5.45464">
        <ele>212</ele>
        <time>2021-06-06T08:00:29.444Z</time>
      </trkpt>
      <trkpt lat="45.78773" lon="5.45468">
        <ele>212</ele>
        <time>2021-06-06T08:00:30.444Z</time>
      </trkpt>
      <trkpt lat="45.78778" lon="5.45472">
        <ele>212</ele>
        <time>2021-06-06T08:00:31.444Z</time>
      </trkpt>
      <trkpt lat="45.78783" lon="5.45476">
        <ele>212</ele>
        <time>2021-06-06T08:00:32.443Z</time>
      </trkpt>
      <trkpt lat="45.78788" lon="5.4548">
        <ele>212</ele>
        <time>2021-06-06T08:00:33.444Z</time>
      </trkpt>
      <trkpt lat="45.78794" lon="5.45484">
        <ele>211</ele>
        <time>2021-06-06T08:00:34.444Z</time>
      </trkpt>
      <trkpt lat="45.78799" lon="5.45488">
        <ele>211</ele>
        <time>2021-06-06T08:00:35.444Z</time>
      </trkpt>
      <trkpt lat="45.78803" lon="5.45492">
        <ele>211</ele>
        <time>2021-06-06T08:00:36.443Z</time>
      </trkpt>
      <trkpt lat="45.7881" lon="5.45496">
        <ele>211</ele>
        <time>2021-06-06T08:00:37.443Z</time>
      </trkpt>
      <trkpt lat="45.78814" lon="5.45501">
        <ele>211</ele>
        <time>2021-06-06T08:00:38.443Z</time>
      </trkpt>
      <trkpt lat="45.78819" lon="5.45505">
        <ele>211</ele>
        <time>2021-06-06T08:00:39.444Z</time>
      </trkpt>
      <trkpt lat="45.78823" lon="5.45509">
        <ele>211</ele>
        <time>2021-06-06T08:00:40.443Z</time>
      </trkpt>
      <trkpt lat="45.78828" lon="5.45513">
        <ele>212</ele>
        <time>2021-06-06T08:00:41.444Z</time>
      </trkpt>
      <trkpt lat="45.78832" lon="5.45517">
        <ele>212</ele>
        <time>2021-06-06T08:00:42.444Z</time>
      </trkpt>
      <trkpt lat="45.78837" lon="5.45521">
        <ele>212</ele>
        <time>2021-06-06T08:00:43.443Z</time>
      </trkpt>
      <trkpt lat="45.78842" lon="5.45526">
        <ele>212</ele>
        <time>2021-06-06T08:00:44.443Z</time>
      </trkpt>
      <trkpt lat="45.78847" lon="5.4553">
        <ele>212</ele>
        <time>2021-06-06T08:00:45.444Z</time>
      </trkpt>
      <trkpt lat="45.78852" lon="5.45534">
        <ele>212</ele>
        <time>2021-06-06T08:00:46.443Z</time>
      </trkpt>
      <trkpt lat="45.78857" lon="5.45538">
        <ele>212</ele>
        <time>2021-06-06T08:00:47.444Z</time>
      </trkpt>
      <trkpt lat="45.78862" lon="5.45542">
        <ele>212</ele>
        <time>2021-06-06T08:00:48.444Z</time>
      </trkpt>
      <trkpt lat="45.78867" lon="5.45546">
        <ele>212</ele>
        <time>2021-06-06T08:00:49.444Z</time>
      </trkpt>
      <trkpt lat="45.78872" lon="5.4555">
        <ele>212</ele>
        <time>2021-06-06T08:00:50.444Z</time>
      </trkpt>
      <trkpt lat="45.78877" lon="5.45554">
        <ele>212</ele>
        <time>2021-06-06T08:00:51.444Z</time>
      </trkpt>
      <trkpt lat="45.78882" lon="5.45558">
        <ele>212</ele>
        <time>2021-06-06T08:00:52.444Z</time>
      </trkpt>
      <trkpt lat="45.78887" lon="5.45562">
        <ele>213</ele>
        <time>2021-06-06T08:00:53.444Z</time>
      </trkpt>
      <trkpt lat="45.78892" lon="5.45566">
        <ele>213</ele>
        <time>2021-06-06T08:00:54.443Z</time>
      </trkpt>
      <trkpt lat="45.78897" lon="5.4557">
        <ele>214</ele>
        <time>2021-06-06T08:00:55.444Z</time>
      </trkpt>
      <trkpt lat="45.78902" lon="5.45575">
        <ele>214</ele>
        <time>2021-06-06T08:00:56.443Z</time>
      </trkpt>
      <trkpt lat="45.78907" lon="5.45579">
        <ele>215</ele>
        <time>2021-06-06T08:00:57.444Z</time>
      </trkpt>
      <trkpt lat="45.78912" lon="5.45583">
        <ele>215</ele>
        <time>2021-06-06T08:00:58.444Z</time>
      </trkpt>
      <trkpt lat="45.78917" lon="5.45587">
        <ele>215</ele>
        <time>2021-06-06T08:00:59.443Z</time>
      </trkpt>
      <trkpt lat="45.78921" lon="5.45591">
        <ele>215</ele>
        <time>2021-06-06T08:01:00.444Z</time>
      </trkpt>
      <trkpt lat="45.78926" lon="5.45595">
        <ele>215</ele>
        <time>2021-06-06T08:01:01.444Z</time>
      </trkpt>
      <trkpt lat="45.7893" lon="5.45598">
        <ele>215</ele>
        <time>2021-06-06T08:01:02.444Z</time>
      </trkpt>
      <trkpt lat="45.78936" lon="5.45603">
        <ele>215</ele>
        <time>2021-06-06T08:01:03.443Z</time>
      </trkpt>
      <trkpt lat="45.78941" lon="5.45607">
        <ele>215</ele>
        <time>2021-06-06T08:01:04.443Z</time>
      </trkpt>
      <trkpt lat="45.78946" lon="5.45611">
        <ele>215</ele>
        <time>2021-06-06T08:01:05.443Z</time>
      </trkpt>
      <trkpt lat="45.78951" lon="5.45615">
        <ele>215</ele>
        <time>2021-06-06T08:01:06.444Z</time>
      </trkpt>
      <trkpt lat="45.78956" lon="5.45619">
        <ele>215</ele>
        <time>2021-06-06T08:01:07.444Z</time>
      </trkpt>
      <trkpt lat="45.78961" lon="5.45623">
        <ele>215</ele>
        <time>2021-06-06T08:01:08.443Z</time>
      </trkpt>
      <trkpt lat="45.78967" lon="5.45627">
        <ele>215</ele>
        <time>2021-06-06T08:01:09.444Z</time>
      </trkpt>
      <trkpt lat="45.78972" lon="5.45631">
        <ele>215</ele>
        <time>2021-06-06T08:01:10.444Z</time>
      </trkpt>
      <trkpt lat="45.78977" lon="5.45635">
        <ele>215</ele>
        <time>2021-06-06T08:01:11.444Z</time>
      </trkpt>
      <trkpt lat="45.78982" lon="5.45639">
        <ele>215</ele>
        <time>2021-06-06T08:01:12.443Z</time>
      </trkpt>
      <trkpt lat="45.78987" lon="5.45644">
        <ele>215</ele>
        <time>2021-06-06T08:01:13.443Z</time>
      </trkpt>
      <trkpt lat="45.78993" lon="5.45648">
        <ele>215</ele>
        <time>2021-06-06T08:01:14.443Z</time>
      </trkpt>
      <trkpt lat="45.78998" lon="5.45652">
        <ele>215</ele>
        <time>2021-06-06T08:01:15.444Z</time>
      </trkpt>
      <trkpt lat="45.79003" lon="5.45656">
        <ele>215</ele>
        <time>2021-06-06T08:01:16.444Z</time>
      </trkpt>
      <trkpt lat="45.79008" lon="5.4566">
        <ele>215</ele>
        <time>2021-06-06T08:01:17.444Z</time>
      </trkpt>
      <trkpt lat="45.79013" lon="5.45664">
        <ele>215</ele>
        <time>2021-06-06T08:01:18.444Z</time>
      </trkpt>
      <trkpt lat="45.79018" lon="5.45668">
        <ele>216</ele>
        <time>2021-06-06T08:01:19.444Z</time>
      </trkpt>
      <trkpt lat="45.79023" lon="5.45672">
        <ele>216</ele>
        <time>2021-06-06T08:01:20.444Z</time>
      </trkpt>
      <trkpt lat="45.79028" lon="5.45676">
        <ele>216</ele>
        <time>2021-06-06T08:01:21.444Z</time>
      </trkpt>
      <trkpt lat="45.79033" lon="5.4568">
        <ele>216</ele>
        <time>2021-06-06T08:01:22.443Z</time>
      </trkpt>
      <trkpt lat="45.79038" lon="5.45684">
        <ele>216</ele>
        <time>2021-06-06T08:01:23.444Z</time>
      </trkpt>
      <trkpt lat="45.79042" lon="5.45688">
        <ele>216</ele>
        <time>2021-06-06T08:01:24.444Z</time>
      </trkpt>
      <trkpt lat="45.79047" lon="5.45692">
        <ele>216</ele>
        <time>2021-06-06T08:01:25.443Z</time>
      </trkpt>
      <trkpt lat="45.79052" lon="5.45695">
        <ele>217</ele>
        <time>2021-06-06T08:01:26.444Z</time>
      </trkpt>
      <trkpt lat="45.79057" lon="5.45699">
        <ele>217</ele>
        <time>2021-06-06T08:01:27.444Z</time>
      </trkpt>
      <trkpt lat="45.79062" lon="5.45703">
        <ele>217</ele>
        <time>2021-06-06T08:01:28.443Z</time>
      </trkpt>
      <trkpt lat="45.79067" lon="5.45707">
        <ele>216</ele>
        <time>2021-06-06T08:01:29.444Z</time>
      </trkpt>
      <trkpt lat="45.79071" lon="5.45711">
        <ele>216</ele>
        <time>2021-06-06T08:01:30.444Z</time>
      </trkpt>
      <trkpt lat="45.79076" lon="5.45715">
        <ele>216</ele>
        <time>2021-06-06T08:01:31.443Z</time>
      </trkpt>
      <trkpt lat="45.7908" lon="5.4572">
        <ele>215</ele>
        <time>2021-06-06T08:01:32.443Z</time>
      </trkpt>
      <trkpt lat="45.79085" lon="5.45724">
        <ele>215</ele>
        <time>2021-06-06T08:01:33.444Z</time>
      </trkpt>
      <trkpt lat="45.7909" lon="5.45727">
        <ele>215</ele>
        <time>2021-06-06T08:01:34.443Z</time>
      </trkpt>
      <trkpt lat="45.79095" lon="5.45731">
        <ele>215</ele>
        <time>2021-06-06T08:01:35.443Z</time>
      </trkpt>
      <trkpt lat="45.791" lon="5.45735">
        <ele>216</ele>
        <time>2021-06-06T08:01:36.443Z</time>
      </trkpt>
      <trkpt lat="45.79105" lon="5.45739">
        <ele>216</ele>
        <time>2021-06-06T08:01:37.444Z</time>
      </trkpt>
      <trkpt lat="45.79109" lon="5.45742">
        <ele>216</ele>
        <time>2021-06-06T08:01:38.444Z</time>
      </trkpt>
      <trkpt lat="45.79114" lon="5.45746">
        <ele>216</ele>
        <time>2021-06-06T08:01:39.444Z</time>
      </trkpt>
      <trkpt lat="45.79118" lon="5.45749">
        <ele>216</ele>
        <time>2021-06-06T08:01:40.444Z</time>
      </trkpt>
      <trkpt lat="45.79124" lon="5.45754">
        <ele>216</ele>
        <time>2021-06-06T08:01:41.444Z</time>
      </trkpt>
      <trkpt lat="45.79129" lon="5.45758">
        <ele>216</ele>
        <time>2021-06-06T08:01:42.444Z</time>
      </trkpt>
      <trkpt lat="45.79134" lon="5.45762">
        <ele>217</ele>
        <time>2021-06-06T08:01:43.443Z</time>
      </trkpt>
      <trkpt lat="45.79139" lon="5.45766">
        <ele>217</ele>
        <time>2021-06-06T08:01:44.443Z</time>
      </trkpt>
      <trkpt lat="45.79144" lon="5.4577">
        <ele>217</ele>
        <time>2021-06-06T08:01:45.443Z</time>
      </trkpt>
      <trkpt lat="45.79149" lon="5.45774">
        <ele>218</ele>
        <time>2021-06-06T08:01:46.443Z</time>
      </trkpt>
      <trkpt lat="45.79153" lon="5.45777">
        <ele>218</ele>
        <time>2021-06-06T08:01:47.444Z</time>
      </trkpt>
      <trkpt lat="45.79158" lon="5.45781">
        <ele>218</ele>
        <time>2021-06-06T08:01:48.443Z</time>
      </trkpt>
      <trkpt lat="45.79162" lon="5.45785">
        <ele>218</ele>
        <time>2021-06-06T08:01:49.444Z</time>
      </trkpt>
      <trkpt lat="45.79166" lon="5.45788">
        <ele>218</ele>
        <time>2021-06-06T08:01:50.444Z</time>
      </trkpt>
      <trkpt lat="45.7917" lon="5.45792">
        <ele>218</ele>
        <time>2021-06-06T08:01:51.444Z</time>
      </trkpt>
      <trkpt lat="45.79175" lon="5.45796">
        <ele>219</ele>
        <time>2021-06-06T08:01:52.443Z</time>
      </trkpt>
      <trkpt lat="45.7918" lon="5.458">
        <ele>219</ele>
        <time>2021-06-06T08:01:53.444Z</time>
      </trkpt>
      <trkpt lat="45.79184" lon="5.45803">
        <ele>219</ele>
        <time>2021-06-06T08:01:54.443Z</time>
      </trkpt>
      <trkpt lat="45.79189" lon="5.45807">
        <ele>219</ele>
        <time>2021-06-06T08:01:55.443Z</time>
      </trkpt>
      <trkpt lat="45.79192" lon="5.4581">
        <ele>219</ele>
        <time>2021-06-06T08:01:56.444Z</time>
      </trkpt>
      <trkpt lat="45.79197" lon="5.45814">
        <ele>219</ele>
        <time>2021-06-06T08:01:57.443Z</time>
      </trkpt>
      <trkpt lat="45.79202" lon="5.45818">
        <ele>219</ele>
        <time>2021-06-06T08:01:58.444Z</time>
      </trkpt>
      <trkpt lat="45.79207" lon="5.45822">
        <ele>219</ele>
        <time>2021-06-06T08:01:59.444Z</time>
      </trkpt>
      <trkpt lat="45.79212" lon="5.45826">
        <ele>219</ele>
        <time>2021-06-06T08:02:00.444Z</time>
      </trkpt>
      <trkpt lat="45.79216" lon="5.45829">
        <ele>219</ele>
        <time>2021-06-06T08:02:01.443Z</time>
      </trkpt>
      <trkpt lat="45.79222" lon="5.45834">
        <ele>219</ele>
        <time>2021-06-06T08:02:02.444Z</time>
      </trkpt>
      <trkpt lat="45.79227" lon="5.45838">
        <ele>219</ele>
        <time>2021-06-06T08:02:03.443Z</time>
      </trkpt>
      <trkpt lat="45.79232" lon="5.45842">
        <ele>220</ele>
        <time>2021-06-06T08:02:04.443Z</time>
      </trkpt>
      <trkpt lat="45.79237" lon="5.45846">
        <ele>220</ele>
        <time>2021-06-06T08:02:05.443Z</time>
      </trkpt>
      <trkpt lat="45.79241" lon="5.4585">
        <ele>220</ele>
        <time>2021-06-06T08:02:06.444Z</time>
      </trkpt>
      <trkpt lat="45.79246" lon="5.45853">
        <ele>220</ele>
        <time>2021-06-06T08:02:07.443Z</time>
      </trkpt>
      <trkpt lat="45.7925" lon="5.45857">
        <ele>220</ele>
        <time>2021-06-06T08:02:08.444Z</time>
      </trkpt>
      <trkpt lat="45.79255" lon="5.4586">
        <ele>221</ele>
        <time>2021-06-06T08:02:09.444Z</time>
      </trkpt>
      <trkpt lat="45.79259" lon="5.45864">
        <ele>221</ele>
        <time>2021-06-06T08:02:10.443Z</time>
      </trkpt>
      <trkpt lat="45.79264" lon="5.45868">
        <ele>221</ele>
        <time>2021-06-06T08:02:11.444Z</time>
      </trkpt>
      <trkpt lat="45.79268" lon="5.45872">
        <ele>222</ele>
        <time>2021-06-06T08:02:12.444Z</time>
      </trkpt>
      <trkpt lat="45.79273" lon="5.45876">
        <ele>222</ele>
        <time>2021-06-06T08:02:13.444Z</time>
      </trkpt>
      <trkpt lat="45.79277" lon="5.45879">
        <ele>223</ele>
        <time>2021-06-06T08:02:14.443Z</time>
      </trkpt>
      <trkpt lat="45.79282" lon="5.45883">
        <ele>224</ele>
        <time>2021-06-06T08:02:15.443Z</time>
      </trkpt>
      <trkpt lat="45.79287" lon="5.45888">
        <ele>224</ele>
        <time>2021-06-06T08:02:16.444Z</time>
      </trkpt>
      <trkpt lat="45.79291" lon="5.45893">
        <ele>225</ele>
        <time>2021-06-06T08:02:17.444Z</time>
      </trkpt>
      <trkpt lat="45.79296" lon="5.45898">
        <ele>225</ele>
        <time>2021-06-06T08:02:18.443Z</time>
      </trkpt>
      <trkpt lat="45.793" lon="5.45903">
        <ele>225</ele>
        <time>2021-06-06T08:02:19.444Z</time>
      </trkpt>
      <trkpt lat="45.79305" lon="5.45908">
        <ele>225</ele>
        <time>2021-06-06T08:02:20.444Z</time>
      </trkpt>
      <trkpt lat="45.79309" lon="5.45914">
        <ele>225</ele>
        <time>2021-06-06T08:02:21.444Z</time>
      </trkpt>
      <trkpt lat="45.79313" lon="5.45919">
        <ele>225</ele>
        <time>2021-06-06T08:02:22.443Z</time>
      </trkpt>
      <trkpt lat="45.79316" lon="5.45925">
        <ele>225</ele>
        <time>2021-06-06T08:02:23.443Z</time>
      </trkpt>
      <trkpt lat="45.7932" lon="5.45931">
        <ele>225</ele>
        <time>2021-06-06T08:02:24.443Z</time>
      </trkpt>
      <trkpt lat="45.79324" lon="5.45937">
        <ele>225</ele>
        <time>2021-06-06T08:02:25.443Z</time>
      </trkpt>
      <trkpt lat="45.79328" lon="5.45942">
        <ele>224</ele>
        <time>2021-06-06T08:02:26.444Z</time>
      </trkpt>
      <trkpt lat="45.79332" lon="5.45948">
        <ele>224</ele>
        <time>2021-06-06T08:02:27.444Z</time>
      </trkpt>
      <trkpt lat="45.79336" lon="5.45954">
        <ele>223</ele>
        <time>2021-06-06T08:02:28.444Z</time>
      </trkpt>
      <trkpt lat="45.7934" lon="5.4596">
        <ele>223</ele>
        <time>2021-06-06T08:02:29.444Z</time>
      </trkpt>
      <trkpt lat="45.79344" lon="5.45966">
        <ele>223</ele>
        <time>2021-06-06T08:02:30.444Z</time>
      </trkpt>
      <trkpt lat="45.79348" lon="5.45971">
        <ele>223</ele>
        <time>2021-06-06T08:02:31.444Z</time>
      </trkpt>
      <trkpt lat="45.79352" lon="5.45977">
        <ele>223</ele>
        <time>2021-06-06T08:02:32.444Z</time>
      </trkpt>
      <trkpt lat="45.79356" lon="5.45983">
        <ele>223</ele>
        <time>2021-06-06T08:02:33.443Z</time>
      </trkpt>
      <trkpt lat="45.7936" lon="5.45988">
        <ele>223</ele>
        <time>2021-06-06T08:02:34.443Z</time>
      </trkpt>
      <trkpt lat="45.79363" lon="5.45995">
        <ele>223</ele>
        <time>2021-06-06T08:02:35.443Z</time>
      </trkpt>
      <trkpt lat="45.79367" lon="5.46001">
        <ele>223</ele>
        <time>2021-06-06T08:02:36.444Z</time>
      </trkpt>
      <trkpt lat="45.79372" lon="5.46007">
        <ele>223</ele>
        <time>2021-06-06T08:02:37.444Z</time>
      </trkpt>
      <trkpt lat="45.79375" lon="5.46013">
        <ele>223</ele>
        <time>2021-06-06T08:02:38.443Z</time>
      </trkpt>
      <trkpt lat="45.79379" lon="5.46019">
        <ele>223</ele>
        <time>2021-06-06T08:02:39.443Z</time>
      </trkpt>
      <trkpt lat="45.79383" lon="5.46025">
        <ele>223</ele>
        <time>2021-06-06T08:02:40.444Z</time>
      </trkpt>
      <trkpt lat="45.79387" lon="5.4603">
        <ele>223</ele>
        <time>2021-06-06T08:02:41.444Z</time>
      </trkpt>
      <trkpt lat="45.7939" lon="5.46036">
        <ele>223</ele>
        <time>2021-06-06T08:02:42.443Z</time>
      </trkpt>
      <trkpt lat="45.79393" lon="5.46042">
        <ele>223</ele>
        <time>2021-06-06T08:02:43.444Z</time>
      </trkpt>
      <trkpt lat="45.79396" lon="5.46048">
        <ele>223</ele>
        <time>2021-06-06T08:02:44.444Z</time>
      </trkpt>
      <trkpt lat="45.79398" lon="5.46052">
        <ele>223</ele>
        <time>2021-06-06T08:02:45.443Z</time>
      </trkpt>
      <trkpt lat="45.79401" lon="5.46059">
        <ele>223</ele>
        <time>2021-06-06T08:02:46.444Z</time>
      </trkpt>
      <trkpt lat="45.79403" lon="5.46064">
        <ele>223</ele>
        <time>2021-06-06T08:02:47.444Z</time>
      </trkpt>
      <trkpt lat="45.79405" lon="5.4607">
        <ele>223</ele>
        <time>2021-06-06T08:02:48.444Z</time>
      </trkpt>
      <trkpt lat="45.79407" lon="5.46076">
        <ele>223</ele>
        <time>2021-06-06T08:02:49.444Z</time>
      </trkpt>
      <trkpt lat="45.7941" lon="5.46082">
        <ele>223</ele>
        <time>2021-06-06T08:02:50.443Z</time>
      </trkpt>
      <trkpt lat="45.79412" lon="5.46088">
        <ele>224</ele>
        <time>2021-06-06T08:02:51.444Z</time>
      </trkpt>
      <trkpt lat="45.79414" lon="5.46093">
        <ele>224</ele>
        <time>2021-06-06T08:02:52.444Z</time>
      </trkpt>
      <trkpt lat="45.79417" lon="5.46099">
        <ele>224</ele>
        <time>2021-06-06T08:02:53.443Z</time>
      </trkpt>
      <trkpt lat="45.79419" lon="5.46105">
        <ele>224</ele>
        <time>2021-06-06T08:02:54.443Z</time>
      </trkpt>
      <trkpt lat="45.79421" lon="5.4611">
        <ele>224</ele>
        <time>2021-06-06T08:02:55.443Z</time>
      </trkpt>
      <trkpt lat="45.79423" lon="5.46117">
        <ele>224</ele>
        <time>2021-06-06T08:02:56.444Z</time>
      </trkpt>
      <trkpt lat="45.79425" lon="5.46123">
        <ele>224</ele>
        <time>2021-06-06T08:02:57.444Z</time>
      </trkpt>
      <trkpt lat="45.79428" lon="5.46128">
        <ele>224</ele>
        <time>2021-06-06T08:02:58.443Z</time>
      </trkpt>
      <trkpt lat="45.7943" lon="5.46134">
        <ele>224</ele>
        <time>2021-06-06T08:02:59.443Z</time>
      </trkpt>
      <trkpt lat="45.79432" lon="5.46139">
        <ele>224</ele>
        <time>2021-06-06T08:03:00.443Z</time>
      </trkpt>
      <trkpt lat="45.79434" lon="5.46144">
        <ele>224</ele>
        <time>2021-06-06T08:03:01.443Z</time>
      </trkpt>
      <trkpt lat="45.79437" lon="5.4615">
        <ele>224</ele>
        <time>2021-06-06T08:03:02.443Z</time>
      </trkpt>
      <trkpt lat="45.79439" lon="5.46155">
        <ele>224</ele>
        <time>2021-06-06T08:03:03.443Z</time>
      </trkpt>
      <trkpt lat="45.79441" lon="5.46159">
        <ele>224</ele>
        <time>2021-06-06T08:03:04.444Z</time>
      </trkpt>
      <trkpt lat="45.79443" lon="5.46163">
        <ele>224</ele>
        <time>2021-06-06T08:03:05.444Z</time>
      </trkpt>
      <trkpt lat="45.79444" lon="5.46167">
        <ele>224</ele>
        <time>2021-06-06T08:03:06.443Z</time>
      </trkpt>
      <trkpt lat="45.79446" lon="5.4617">
        <ele>224</ele>
        <time>2021-06-06T08:03:07.443Z</time>
      </trkpt>
      <trkpt lat="45.79446" lon="5.46172">
        <ele>224</ele>
        <time>2021-06-06T08:03:08.444Z</time>
      </trkpt>
      <trkpt lat="45.79447" lon="5.46173">
        <ele>225</ele>
        <time>2021-06-06T08:03:09.444Z</time>
      </trkpt>
      <trkpt lat="45.79448" lon="5.46175">
        <ele>225</ele>
        <time>2021-06-06T08:03:10.444Z</time>
      </trkpt>
      <trkpt lat="45.79448" lon="5.46177">
        <ele>225</ele>
        <time>2021-06-06T08:03:11.443Z</time>
      </trkpt>
      <trkpt lat="45.79449" lon="5.4618">
        <ele>225</ele>
        <time>2021-06-06T08:03:12.444Z</time>
      </trkpt>
      <trkpt lat="45.7945" lon="5.46182">
        <ele>226</ele>
        <time>2021-06-06T08:03:13.444Z</time>
      </trkpt>
      <trkpt lat="45.79452" lon="5.46184">
        <ele>226</ele>
        <time>2021-06-06T08:03:14.444Z</time>
      </trkpt>
      <trkpt lat="45.79455" lon="5.46186">
        <ele>226</ele>
        <time>2021-06-06T08:03:15.443Z</time>
      </trkpt>
      <trkpt lat="45.79458" lon="5.46187">
        <ele>226</ele>
        <time>2021-06-06T08:03:16.444Z</time>
      </trkpt>
      <trkpt lat="45.79462" lon="5.46188">
        <ele>226</ele>
        <time>2021-06-06T08:03:17.444Z</time>
      </trkpt>
      <trkpt lat="45.79466" lon="5.46188">
        <ele>226</ele>
        <time>2021-06-06T08:03:18.443Z</time>
      </trkpt>
      <trkpt lat="45.7947" lon="5.46188">
        <ele>227</ele>
        <time>2021-06-06T08:03:19.443Z</time>
      </trkpt>
      <trkpt lat="45.79474" lon="5.46187">
        <ele>227</ele>
        <time>2021-06-06T08:03:20.444Z</time>
      </trkpt>
      <trkpt lat="45.79478" lon="5.46186">
        <ele>227</ele>
        <time>2021-06-06T08:03:21.444Z</time>
      </trkpt>
      <trkpt lat="45.79482" lon="5.46185">
        <ele>227</ele>
        <time>2021-06-06T08:03:22.444Z</time>
      </trkpt>
      <trkpt lat="45.79487" lon="5.46183">
        <ele>227</ele>
        <time>2021-06-06T08:03:23.444Z</time>
      </trkpt>
      <trkpt lat="45.79491" lon="5.4618">
        <ele>227</ele>
        <time>2021-06-06T08:03:24.444Z</time>
      </trkpt>
      <trkpt lat="45.79495" lon="5.46177">
        <ele>227</ele>
        <time>2021-06-06T08:03:25.444Z</time>
      </trkpt>
      <trkpt lat="45.79498" lon="5.46173">
        <ele>227</ele>
        <time>2021-06-06T08:03:26.444Z</time>
      </trkpt>
      <trkpt lat="45.79502" lon="5.46169">
        <ele>227</ele>
        <time>2021-06-06T08:03:27.443Z</time>
      </trkpt>
      <trkpt lat="45.79505" lon="5.46163">
        <ele>227</ele>
        <time>2021-06-06T08:03:28.444Z</time>
      </trkpt>
      <trkpt lat="45.79507" lon="5.46157">
        <ele>227</ele>
        <time>2021-06-06T08:03:29.443Z</time>
      </trkpt>
      <trkpt lat="45.79509" lon="5.46151">
        <ele>227</ele>
        <time>2021-06-06T08:03:30.444Z</time>
      </trkpt>
      <trkpt lat="45.7951" lon="5.46144">
        <ele>227</ele>
        <time>2021-06-06T08:03:31.444Z</time>
      </trkpt>
      <trkpt lat="45.79511" lon="5.46136">
        <ele>227</ele>
        <time>2021-06-06T08:03:32.444Z</time>
      </trkpt>
      <trkpt lat="45.79512" lon="5.46128">
        <ele>226</ele>
        <time>2021-06-06T08:03:33.443Z</time>
      </trkpt>
      <trkpt lat="45.79513" lon="5.4612">
        <ele>226</ele>
        <time>2021-06-06T08:03:34.444Z</time>
      </trkpt>
      <trkpt lat="45.79514" lon="5.46112">
        <ele>226</ele>
        <time>2021-06-06T08:03:35.443Z</time>
      </trkpt>
      <trkpt lat="45.79516" lon="5.46103">
        <ele>226</ele>
        <time>2021-06-06T08:03:36.443Z</time>
      </trkpt>
      <trkpt lat="45.79517" lon="5.46095">
        <ele>226</ele>
        <time>2021-06-06T08:03:37.444Z</time>
      </trkpt>
      <trkpt lat="45.79518" lon="5.46087">
        <ele>226</ele>
        <time>2021-06-06T08:03:38.444Z</time>
      </trkpt>
      <trkpt lat="45.7952" lon="5.46079">
        <ele>226</ele>
        <time>2021-06-06T08:03:39.444Z</time>
      </trkpt>
      <trkpt lat="45.79523" lon="5.46071">
        <ele>227</ele>
        <time>2021-06-06T08:03:40.444Z</time>
      </trkpt>
      <trkpt lat="45.79526" lon="5.46063">
        <ele>227</ele>
        <time>2021-06-06T08:03:41.444Z</time>
      </trkpt>
      <trkpt lat="45.79528" lon="5.46055">
        <ele>227</ele>
        <time>2021-06-06T08:03:42.444Z</time>
      </trkpt>
      <trkpt lat="45.79531" lon="5.46047">
        <ele>227</ele>
        <time>2021-06-06T08:03:43.443Z</time>
      </trkpt>
      <trkpt lat="45.79534" lon="5.4604">
        <ele>227</ele>
        <time>2021-06-06T08:03:44.443Z</time>
      </trkpt>
      <trkpt lat="45.79537" lon="5.46032">
        <ele>227</ele>
        <time>2021-06-06T08:03:45.444Z</time>
      </trkpt>
      <trkpt lat="45.7954" lon="5.46024">
        <ele>227</ele>
        <time>2021-06-06T08:03:46.444Z</time>
      </trkpt>
      <trkpt lat="45.79544" lon="5.46017">
        <ele>226</ele>
        <time>2021-06-06T08:03:47.444Z</time>
      </trkpt>
      <trkpt lat="45.79547" lon="5.46009">
        <ele>226</ele>
        <time>2021-06-06T08:03:48.443Z</time>
      </trkpt>
      <trkpt lat="45.7955" lon="5.46002">
        <ele>226</ele>
        <time>2021-06-06T08:03:49.443Z</time>
      </trkpt>
      <trkpt lat="45.79553" lon="5.45994">
        <ele>226</ele>
        <time>2021-06-06T08:03:50.443Z</time>
      </trkpt>
      <trkpt lat="45.79556" lon="5.45987">
        <ele>226</ele>
        <time>2021-06-06T08:03:51.444Z</time>
      </trkpt>
      <trkpt lat="45.79559" lon="5.4598">
        <ele>226</ele>
        <time>2021-06-06T08:03:52.444Z</time>
      </trkpt>
      <trkpt lat="45.79562" lon="5.45974">
        <ele>226</ele>
        <time>2021-06-06T08:03:53.444Z</time>
      </trkpt>
      <trkpt lat="45.79566" lon="5.45965">
        <ele>226</ele>
        <time>2021-06-06T08:03:54.444Z</time>
      </trkpt>
      <trkpt lat="45.79569" lon="5.45957">
        <ele>226</ele>
        <time>2021-06-06T08:03:55.444Z</time>
      </trkpt>
      <trkpt lat="45.79573" lon="5.4595">
        <ele>226</ele>
        <time>2021-06-06T08:03:56.444Z</time>
      </trkpt>
      <trkpt lat="45.79576" lon="5.45943">
        <ele>226</ele>
        <time>2021-06-06T08:03:57.444Z</time>
      </trkpt>
      <trkpt lat="45.7958" lon="5.45936">
        <ele>226</ele>
        <time>2021-06-06T08:03:58.444Z</time>
      </trkpt>
      <trkpt lat="45.79584" lon="5.4593">
        <ele>226</ele>
        <time>2021-06-06T08:03:59.444Z</time>
      </trkpt>
      <trkpt lat="45.79589" lon="5.45924">
        <ele>226</ele>
        <time>2021-06-06T08:04:00.444Z</time>
      </trkpt>
      <trkpt lat="45.79594" lon="5.45919">
        <ele>226</ele>
        <time>2021-06-06T08:04:01.444Z</time>
      </trkpt>
      <trkpt lat="45.79599" lon="5.45914">
        <ele>226</ele>
        <time>2021-06-06T08:04:02.444Z</time>
      </trkpt>
      <trkpt lat="45.79604" lon="5.4591">
        <ele>226</ele>
        <time>2021-06-06T08:04:03.444Z</time>
      </trkpt>
      <trkpt lat="45.79609" lon="5.45906">
        <ele>226</ele>
        <time>2021-06-06T08:04:04.443Z</time>
      </trkpt>
      <trkpt lat="45.79614" lon="5.45902">
        <ele>226</ele>
        <time>2021-06-06T08:04:05.443Z</time>
      </trkpt>
      <trkpt lat="45.79619" lon="5.45898">
        <ele>227</ele>
        <time>2021-06-06T08:04:06.444Z</time>
      </trkpt>
      <trkpt lat="45.79624" lon="5.45895">
        <ele>227</ele>
        <time>2021-06-06T08:04:07.444Z</time>
      </trkpt>
      <trkpt lat="45.7963" lon="5.45891">
        <ele>227</ele>
        <time>2021-06-06T08:04:08.444Z</time>
      </trkpt>
      <trkpt lat="45.79635" lon="5.45887">
        <ele>227</ele>
        <time>2021-06-06T08:04:09.443Z</time>
      </trkpt>
      <trkpt lat="45.79641" lon="5.45882">
        <ele>227</ele>
        <time>2021-06-06T08:04:10.444Z</time>
      </trkpt>
      <trkpt lat="45.79646" lon="5.45878">
        <ele>228</ele>
        <time>2021-06-06T08:04:11.444Z</time>
      </trkpt>
      <trkpt lat="45.79652" lon="5.45874">
        <ele>228</ele>
        <time>2021-06-06T08:04:12.444Z</time>
      </trkpt>
      <trkpt lat="45.79658" lon="5.4587">
        <ele>228</ele>
        <time>2021-06-06T08:04:13.443Z</time>
      </trkpt>
      <trkpt lat="45.79664" lon="5.45866">
        <ele>228</ele>
        <time>2021-06-06T08:04:14.443Z</time>
      </trkpt>
      <trkpt lat="45.79669" lon="5.45863">
        <ele>228</ele>
        <time>2021-06-06T08:04:15.443Z</time>
      </trkpt>
      <trkpt lat="45.79675" lon="5.45859">
        <ele>228</ele>
        <time>2021-06-06T08:04:16.444Z</time>
      </trkpt>
      <trkpt lat="45.7968" lon="5.45856">
        <ele>228</ele>
        <time>2021-06-06T08:04:17.444Z</time>
      </trkpt>
      <trkpt lat="45.79685" lon="5.45852">
        <ele>228</ele>
        <time>2021-06-06T08:04:18.443Z</time>
      </trkpt>
      <trkpt lat="45.79691" lon="5.45849">
        <ele>228</ele>
        <time>2021-06-06T08:04:19.443Z</time>
      </trkpt>
      <trkpt lat="45.79696" lon="5.45846">
        <ele>229</ele>
        <time>2021-06-06T08:04:20.443Z</time>
      </trkpt>
      <trkpt lat="45.797" lon="5.45844">
        <ele>229</ele>
        <time>2021-06-06T08:04:21.444Z</time>
      </trkpt>
      <trkpt lat="45.79706" lon="5.45842">
        <ele>229</ele>
        <time>2021-06-06T08:04:22.444Z</time>
      </trkpt>
      <trkpt lat="45.79711" lon="5.4584">
        <ele>230</ele>
        <time>2021-06-06T08:04:23.444Z</time>
      </trkpt>
      <trkpt lat="45.79716" lon="5.45839">
        <ele>230</ele>
        <time>2021-06-06T08:04:24.443Z</time>
      </trkpt>
      <trkpt lat="45.79722" lon="5.45839">
        <ele>230</ele>
        <time>2021-06-06T08:04:25.444Z</time>
      </trkpt>
      <trkpt lat="45.79727" lon="5.45838">
        <ele>230</ele>
        <time>2021-06-06T08:04:26.443Z</time>
      </trkpt>
      <trkpt lat="45.79733" lon="5.45838">
        <ele>230</ele>
        <time>2021-06-06T08:04:27.443Z</time>
      </trkpt>
      <trkpt lat="45.79738" lon="5.45837">
        <ele>229</ele>
        <time>2021-06-06T08:04:28.444Z</time>
      </trkpt>
      <trkpt lat="45.79744" lon="5.45837">
        <ele>230</ele>
        <time>2021-06-06T08:04:29.444Z</time>
      </trkpt>
      <trkpt lat="45.79749" lon="5.45836">
        <ele>230</ele>
        <time>2021-06-06T08:04:30.444Z</time>
      </trkpt>
      <trkpt lat="45.79755" lon="5.45836">
        <ele>230</ele>
        <time>2021-06-06T08:04:31.444Z</time>
      </trkpt>
      <trkpt lat="45.79761" lon="5.45836">
        <ele>230</ele>
        <time>2021-06-06T08:04:32.444Z</time>
      </trkpt>
      <trkpt lat="45.79766" lon="5.45836">
        <ele>230</ele>
        <time>2021-06-06T08:04:33.443Z</time>
      </trkpt>
      <trkpt lat="45.79771" lon="5.45835">
        <ele>230</ele>
        <time>2021-06-06T08:04:34.444Z</time>
      </trkpt>
      <trkpt lat="45.79777" lon="5.45835">
        <ele>230</ele>
        <time>2021-06-06T08:04:35.444Z</time>
      </trkpt>
      <trkpt lat="45.79782" lon="5.45834">
        <ele>229</ele>
        <time>2021-06-06T08:04:36.444Z</time>
      </trkpt>
      <trkpt lat="45.79787" lon="5.45834">
        <ele>229</ele>
        <time>2021-06-06T08:04:37.443Z</time>
      </trkpt>
      <trkpt lat="45.79793" lon="5.45833">
        <ele>229</ele>
        <time>2021-06-06T08:04:38.443Z</time>
      </trkpt>
      <trkpt lat="45.79798" lon="5.45833">
        <ele>230</ele>
        <time>2021-06-06T08:04:39.443Z</time>
      </trkpt>
      <trkpt lat="45.79804" lon="5.45832">
        <ele>230</ele>
        <time>2021-06-06T08:04:40.444Z</time>
      </trkpt>
      <trkpt lat="45.7981" lon="5.45832">
        <ele>230</ele>
        <time>2021-06-06T08:04:41.443Z</time>
      </trkpt>
      <trkpt lat="45.79817" lon="5.45831">
        <ele>230</ele>
        <time>2021-06-06T08:04:42.443Z</time>
      </trkpt>
      <trkpt lat="45.79822" lon="5.45831">
        <ele>230</ele>
        <time>2021-06-06T08:04:43.444Z</time>
      </trkpt>
      <trkpt lat="45.79829" lon="5.4583">
        <ele>230</ele>
        <time>2021-06-06T08:04:44.444Z</time>
      </trkpt>
      <trkpt lat="45.79835" lon="5.45829">
        <ele>230</ele>
        <time>2021-06-06T08:04:45.443Z</time>
      </trkpt>
      <trkpt lat="45.79841" lon="5.45828">
        <ele>230</ele>
        <time>2021-06-06T08:04:46.444Z</time>
      </trkpt>
      <trkpt lat="45.79847" lon="5.45827">
        <ele>230</ele>
        <time>2021-06-06T08:04:47.444Z</time>
      </trkpt>
      <trkpt lat="45.79853" lon="5.45825">
        <ele>230</ele>
        <time>2021-06-06T08:04:48.443Z</time>
      </trkpt>
      <trkpt lat="45.79859" lon="5.45823">
        <ele>230</ele>
        <time>2021-06-06T08:04:49.443Z</time>
      </trkpt>
      <trkpt lat="45.79866" lon="5.4582">
        <ele>230</ele>
        <time>2021-06-06T08:04:50.444Z</time>
      </trkpt>
      <trkpt lat="45.79872" lon="5.45816">
        <ele>230</ele>
        <time>2021-06-06T08:04:51.444Z</time>
      </trkpt>
      <trkpt lat="45.79878" lon="5.45812">
        <ele>230</ele>
        <time>2021-06-06T08:04:52.444Z</time>
      </trkpt>
      <trkpt lat="45.79885" lon="5.45808">
        <ele>230</ele>
        <time>2021-06-06T08:04:53.444Z</time>
      </trkpt>
      <trkpt lat="45.79892" lon="5.45804">
        <ele>230</ele>
        <time>2021-06-06T08:04:54.443Z</time>
      </trkpt>
      <trkpt lat="45.79899" lon="5.458">
        <ele>229</ele>
        <time>2021-06-06T08:04:55.444Z</time>
      </trkpt>
      <trkpt lat="45.79906" lon="5.45796">
        <ele>229</ele>
        <time>2021-06-06T08:04:56.444Z</time>
      </trkpt>
      <trkpt lat="45.79913" lon="5.45792">
        <ele>229</ele>
        <time>2021-06-06T08:04:57.444Z</time>
      </trkpt>
      <trkpt lat="45.7992" lon="5.45788">
        <ele>228</ele>
        <time>2021-06-06T08:04:58.444Z</time>
      </trkpt>
      <trkpt lat="45.79927" lon="5.45784">
        <ele>228</ele>
        <time>2021-06-06T08:04:59.444Z</time>
      </trkpt>
      <trkpt lat="45.79933" lon="5.4578">
        <ele>229</ele>
        <time>2021-06-06T08:05:00.443Z</time>
      </trkpt>
      <trkpt lat="45.7994" lon="5.45776">
        <ele>229</ele>
        <time>2021-06-06T08:05:01.444Z</time>
      </trkpt>
      <trkpt lat="45.79947" lon="5.45772">
        <ele>229</ele>
        <time>2021-06-06T08:05:02.444Z</time>
      </trkpt>
      <trkpt lat="45.79955" lon="5.45768">
        <ele>229</ele>
        <time>2021-06-06T08:05:03.443Z</time>
      </trkpt>
      <trkpt lat="45.79962" lon="5.45764">
        <ele>229</ele>
        <time>2021-06-06T08:05:04.443Z</time>
      </trkpt>
      <trkpt lat="45.79969" lon="5.4576">
        <ele>229</ele>
        <time>2021-06-06T08:05:05.444Z</time>
      </trkpt>
      <trkpt lat="45.79976" lon="5.45756">
        <ele>229</ele>
        <time>2021-06-06T08:05:06.444Z</time>
      </trkpt>
      <trkpt lat="45.79983" lon="5.45753">
        <ele>229</ele>
        <time>2021-06-06T08:05:07.443Z</time>
      </trkpt>
      <trkpt lat="45.79991" lon="5.45749">
        <ele>229</ele>
        <time>2021-06-06T08:05:08.444Z</time>
      </trkpt>
      <trkpt lat="45.79998" lon="5.45745">
        <ele>229</ele>
        <time>2021-06-06T08:05:09.443Z</time>
      </trkpt>
      <trkpt lat="45.80005" lon="5.45741">
        <ele>229</ele>
        <time>2021-06-06T08:05:10.443Z</time>
      </trkpt>
      <trkpt lat="45.80012" lon="5.45737">
        <ele>230</ele>
        <time>2021-06-06T08:05:11.444Z</time>
      </trkpt>
      <trkpt lat="45.80019" lon="5.45734">
        <ele>230</ele>
        <time>2021-06-06T08:05:12.443Z</time>
      </trkpt>
      <trkpt lat="45.80027" lon="5.45731">
        <ele>230</ele>
        <time>2021-06-06T08:05:13.443Z</time>
      </trkpt>
      <trkpt lat="45.80034" lon="5.45727">
        <ele>230</ele>
        <time>2021-06-06T08:05:14.444Z</time>
      </trkpt>
      <trkpt lat="45.80041" lon="5.45724">
        <ele>231</ele>
        <time>2021-06-06T08:05:15.444Z</time>
      </trkpt>
      <trkpt lat="45.80048" lon="5.45721">
        <ele>231</ele>
        <time>2021-06-06T08:05:16.443Z</time>
      </trkpt>
      <trkpt lat="45.80056" lon="5.45718">
        <ele>231</ele>
        <time>2021-06-06T08:05:17.444Z</time>
      </trkpt>
      <trkpt lat="45.80063" lon="5.45715">
        <ele>231</ele>
        <time>2021-06-06T08:05:18.444Z</time>
      </trkpt>
      <trkpt lat="45.8007" lon="5.45711">
        <ele>231</ele>
        <time>2021-06-06T08:05:19.443Z</time>
      </trkpt>
      <trkpt lat="45.80078" lon="5.45708">
        <ele>230</ele>
        <time>2021-06-06T08:05:20.444Z</time>
      </trkpt>
      <trkpt lat="45.80085" lon="5.45704">
        <ele>230</ele>
        <time>2021-06-06T08:05:21.444Z</time>
      </trkpt>
      <trkpt lat="45.80093" lon="5.45701">
        <ele>230</ele>
        <time>2021-06-06T08:05:22.443Z</time>
      </trkpt>
      <trkpt lat="45.801" lon="5.45697">
        <ele>230</ele>
        <time>2021-06-06T08:05:23.443Z</time>
      </trkpt>
      <trkpt lat="45.80107" lon="5.45693">
        <ele>230</ele>
        <time>2021-06-06T08:05:24.444Z</time>
      </trkpt>
      <trkpt lat="45.80115" lon="5.45689">
        <ele>230</ele>
        <time>2021-06-06T08:05:25.444Z</time>
      </trkpt>
      <trkpt lat="45.80122" lon="5.45685">
        <ele>230</ele>
        <time>2021-06-06T08:05:26.444Z</time>
      </trkpt>
      <trkpt lat="45.80129" lon="5.45681">
        <ele>230</ele>
        <time>2021-06-06T08:05:27.443Z</time>
      </trkpt>
      <trkpt lat="45.80136" lon="5.45676">
        <ele>230</ele>
        <time>2021-06-06T08:05:28.444Z</time>
      </trkpt>
      <trkpt lat="45.80143" lon="5.45672">
        <ele>229</ele>
        <time>2021-06-06T08:05:29.443Z</time>
      </trkpt>
      <trkpt lat="45.8015" lon="5.45667">
        <ele>229</ele>
        <time>2021-06-06T08:05:30.444Z</time>
      </trkpt>
      <trkpt lat="45.80157" lon="5.45663">
        <ele>229</ele>
        <time>2021-06-06T08:05:31.444Z</time>
      </trkpt>
      <trkpt lat="45.80164" lon="5.45658">
        <ele>229</ele>
        <time>2021-06-06T08:05:32.444Z</time>
      </trkpt>
      <trkpt lat="45.80171" lon="5.45654">
        <ele>229</ele>
        <time>2021-06-06T08:05:33.444Z</time>
      </trkpt>
      <trkpt lat="45.80177" lon="5.45649">
        <ele>228</ele>
        <time>2021-06-06T08:05:34.444Z</time>
      </trkpt>
      <trkpt lat="45.80184" lon="5.45644">
        <ele>228</ele>
        <time>2021-06-06T08:05:35.443Z</time>
      </trkpt>
      <trkpt lat="45.80191" lon="5.45639">
        <ele>228</ele>
        <time>2021-06-06T08:05:36.443Z</time>
      </trkpt>
      <trkpt lat="45.80197" lon="5.45634">
        <ele>228</ele>
        <time>2021-06-06T08:05:37.444Z</time>
      </trkpt>
      <trkpt lat="45.80204" lon="5.4563">
        <ele>228</ele>
        <time>2021-06-06T08:05:38.444Z</time>
      </trkpt>
      <trkpt lat="45.8021" lon="5.45625">
        <ele>228</ele>
        <time>2021-06-06T08:05:39.444Z</time>
      </trkpt>
      <trkpt lat="45.80217" lon="5.4562">
        <ele>228</ele>
        <time>2021-06-06T08:05:40.444Z</time>
      </trkpt>
      <trkpt lat="45.80223" lon="5.45616">
        <ele>229</ele>
        <time>2021-06-06T08:05:41.443Z</time>
      </trkpt>
      <trkpt lat="45.80229" lon="5.45611">
        <ele>229</ele>
        <time>2021-06-06T08:05:42.444Z</time>
      </trkpt>
      <trkpt lat="45.80236" lon="5.45607">
        <ele>230</ele>
        <time>2021-06-06T08:05:43.444Z</time>
      </trkpt>
      <trkpt lat="45.80242" lon="5.45602">
        <ele>230</ele>
        <time>2021-06-06T08:05:44.444Z</time>
      </trkpt>
      <trkpt lat="45.80248" lon="5.45598">
        <ele>230</ele>
        <time>2021-06-06T08:05:45.444Z</time>
      </trkpt>
      <trkpt lat="45.80254" lon="5.45594">
        <ele>230</ele>
        <time>2021-06-06T08:05:46.443Z</time>
      </trkpt>
      <trkpt lat="45.80261" lon="5.45589">
        <ele>230</ele>
        <time>2021-06-06T08:05:47.444Z</time>
      </trkpt>
      <trkpt lat="45.80267" lon="5.45585">
        <ele>230</ele>
        <time>2021-06-06T08:05:48.443Z</time>
      </trkpt>
      <trkpt lat="45.80273" lon="5.45581">
        <ele>230</ele>
        <time>2021-06-06T08:05:49.443Z</time>
      </trkpt>
      <trkpt lat="45.80279" lon="5.45577">
        <ele>230</ele>
        <time>2021-06-06T08:05:50.444Z</time>
      </trkpt>
      <trkpt lat="45.80285" lon="5.45573">
        <ele>230</ele>
        <time>2021-06-06T08:05:51.443Z</time>
      </trkpt>
      <trkpt lat="45.80291" lon="5.45569">
        <ele>230</ele>
        <time>2021-06-06T08:05:52.444Z</time>
      </trkpt>
      <trkpt lat="45.80297" lon="5.45564">
        <ele>231</ele>
        <time>2021-06-06T08:05:53.444Z</time>
      </trkpt>
      <trkpt lat="45.80303" lon="5.4556">
        <ele>231</ele>
        <time>2021-06-06T08:05:54.444Z</time>
      </trkpt>
      <trkpt lat="45.80309" lon="5.45556">
        <ele>231</ele>
        <time>2021-06-06T08:05:55.443Z</time>
      </trkpt>
      <trkpt lat="45.80315" lon="5.45552">
        <ele>231</ele>
        <time>2021-06-06T08:05:56.443Z</time>
      </trkpt>
      <trkpt lat="45.80321" lon="5.45548">
        <ele>231</ele>
        <time>2021-06-06T08:05:57.443Z</time>
      </trkpt>
      <trkpt lat="45.80327" lon="5.45545">
        <ele>231</ele>
        <time>2021-06-06T08:05:58.443Z</time>
      </trkpt>
      <trkpt lat="45.80333" lon="5.45541">
        <ele>231</ele>
        <time>2021-06-06T08:05:59.443Z</time>
      </trkpt>
      <trkpt lat="45.8034" lon="5.45537">
        <ele>231</ele>
        <time>2021-06-06T08:06:00.443Z</time>
      </trkpt>
      <trkpt lat="45.80346" lon="5.45533">
        <ele>231</ele>
        <time>2021-06-06T08:06:01.443Z</time>
      </trkpt>
      <trkpt lat="45.80352" lon="5.4553">
        <ele>231</ele>
        <time>2021-06-06T08:06:02.443Z</time>
      </trkpt>
      <trkpt lat="45.80358" lon="5.45526">
        <ele>231</ele>
        <time>2021-06-06T08:06:03.443Z</time>
      </trkpt>
      <trkpt lat="45.80364" lon="5.45522">
        <ele>231</ele>
        <time>2021-06-06T08:06:04.443Z</time>
      </trkpt>
      <trkpt lat="45.80369" lon="5.45519">
        <ele>231</ele>
        <time>2021-06-06T08:06:05.443Z</time>
      </trkpt>
      <trkpt lat="45.80375" lon="5.45515">
        <ele>231</ele>
        <time>2021-06-06T08:06:06.444Z</time>
      </trkpt>
      <trkpt lat="45.80381" lon="5.4551">
        <ele>231</ele>
        <time>2021-06-06T08:06:07.443Z</time>
      </trkpt>
      <trkpt lat="45.80386" lon="5.45505">
        <ele>231</ele>
        <time>2021-06-06T08:06:08.443Z</time>
      </trkpt>
      <trkpt lat="45.80392" lon="5.45499">
        <ele>231</ele>
        <time>2021-06-06T08:06:09.443Z</time>
      </trkpt>
      <trkpt lat="45.80397" lon="5.45494">
        <ele>231</ele>
        <time>2021-06-06T08:06:10.443Z</time>
      </trkpt>
      <trkpt lat="45.80402" lon="5.45489">
        <ele>231</ele>
        <time>2021-06-06T08:06:11.444Z</time>
      </trkpt>
      <trkpt lat="45.80407" lon="5.45483">
        <ele>232</ele>
        <time>2021-06-06T08:06:12.443Z</time>
      </trkpt>
      <trkpt lat="45.80412" lon="5.45477">
        <ele>232</ele>
        <time>2021-06-06T08:06:13.443Z</time>
      </trkpt>
      <trkpt lat="45.80417" lon="5.45471">
        <ele>233</ele>
        <time>2021-06-06T08:06:14.444Z</time>
      </trkpt>
      <trkpt lat="45.80423" lon="5.45465">
        <ele>233</ele>
        <time>2021-06-06T08:06:15.443Z</time>
      </trkpt>
      <trkpt lat="45.80428" lon="5.4546">
        <ele>234</ele>
        <time>2021-06-06T08:06:16.444Z</time>
      </trkpt>
      <trkpt lat="45.80434" lon="5.45454">
        <ele>234</ele>
        <time>2021-06-06T08:06:17.443Z</time>
      </trkpt>
      <trkpt lat="45.8044" lon="5.45449">
        <ele>234</ele>
        <time>2021-06-06T08:06:18.443Z</time>
      </trkpt>
      <trkpt lat="45.80446" lon="5.45444">
        <ele>234</ele>
        <time>2021-06-06T08:06:19.444Z</time>
      </trkpt>
      <trkpt lat="45.80452" lon="5.45439">
        <ele>235</ele>
        <time>2021-06-06T08:06:20.444Z</time>
      </trkpt>
      <trkpt lat="45.80457" lon="5.45434">
        <ele>235</ele>
        <time>2021-06-06T08:06:21.444Z</time>
      </trkpt>
      <trkpt lat="45.80463" lon="5.4543">
        <ele>235</ele>
        <time>2021-06-06T08:06:22.444Z</time>
      </trkpt>
      <trkpt lat="45.80469" lon="5.45426">
        <ele>235</ele>
        <time>2021-06-06T08:06:23.443Z</time>
      </trkpt>
      <trkpt lat="45.80475" lon="5.45422">
        <ele>236</ele>
        <time>2021-06-06T08:06:24.443Z</time>
      </trkpt>
      <trkpt lat="45.8048" lon="5.45418">
        <ele>235</ele>
        <time>2021-06-06T08:06:25.444Z</time>
      </trkpt>
      <trkpt lat="45.80487" lon="5.45414">
        <ele>235</ele>
        <time>2021-06-06T08:06:26.444Z</time>
      </trkpt>
      <trkpt lat="45.80493" lon="5.45411">
        <ele>235</ele>
        <time>2021-06-06T08:06:27.444Z</time>
      </trkpt>
      <trkpt lat="45.80499" lon="5.45406">
        <ele>235</ele>
        <time>2021-06-06T08:06:28.443Z</time>
      </trkpt>
      <trkpt lat="45.80505" lon="5.45402">
        <ele>235</ele>
        <time>2021-06-06T08:06:29.443Z</time>
      </trkpt>
      <trkpt lat="45.80511" lon="5.45398">
        <ele>235</ele>
        <time>2021-06-06T08:06:30.444Z</time>
      </trkpt>
      <trkpt lat="45.80517" lon="5.45394">
        <ele>235</ele>
        <time>2021-06-06T08:06:31.444Z</time>
      </trkpt>
      <trkpt lat="45.80524" lon="5.4539">
        <ele>235</ele>
        <time>2021-06-06T08:06:32.444Z</time>
      </trkpt>
      <trkpt lat="45.8053" lon="5.45386">
        <ele>235</ele>
        <time>2021-06-06T08:06:33.443Z</time>
      </trkpt>
      <trkpt lat="45.80537" lon="5.45383">
        <ele>235</ele>
        <time>2021-06-06T08:06:34.443Z</time>
      </trkpt>
      <trkpt lat="45.80544" lon="5.45382">
        <ele>235</ele>
        <time>2021-06-06T08:06:35.444Z</time>
      </trkpt>
      <trkpt lat="45.80551" lon="5.45382">
        <ele>235</ele>
        <time>2021-06-06T08:06:36.443Z</time>
      </trkpt>
      <trkpt lat="45.80559" lon="5.45382">
        <ele>235</ele>
        <time>2021-06-06T08:06:37.443Z</time>
      </trkpt>
      <trkpt lat="45.80566" lon="5.45384">
        <ele>236</ele>
        <time>2021-06-06T08:06:38.444Z</time>
      </trkpt>
      <trkpt lat="45.80573" lon="5.45387">
        <ele>235</ele>
        <time>2021-06-06T08:06:39.443Z</time>
      </trkpt>
      <trkpt lat="45.80581" lon="5.45389">
        <ele>235</ele>
        <time>2021-06-06T08:06:40.444Z</time>
      </trkpt>
      <trkpt lat="45.80589" lon="5.45391">
        <ele>234</ele>
        <time>2021-06-06T08:06:41.443Z</time>
      </trkpt>
      <trkpt lat="45.80597" lon="5.45392">
        <ele>234</ele>
        <time>2021-06-06T08:06:42.443Z</time>
      </trkpt>
      <trkpt lat="45.80605" lon="5.45392">
        <ele>234</ele>
        <time>2021-06-06T08:06:43.444Z</time>
      </trkpt>
      <trkpt lat="45.80613" lon="5.45391">
        <ele>233</ele>
        <time>2021-06-06T08:06:44.444Z</time>
      </trkpt>
      <trkpt lat="45.80621" lon="5.45389">
        <ele>233</ele>
        <time>2021-06-06T08:06:45.444Z</time>
      </trkpt>
      <trkpt lat="45.80629" lon="5.45387">
        <ele>233</ele>
        <time>2021-06-06T08:06:46.443Z</time>
      </trkpt>
      <trkpt lat="45.80637" lon="5.45384">
        <ele>233</ele>
        <time>2021-06-06T08:06:47.443Z</time>
      </trkpt>
      <trkpt lat="45.80645" lon="5.45381">
        <ele>232</ele>
        <time>2021-06-06T08:06:48.443Z</time>
      </trkpt>
      <trkpt lat="45.80653" lon="5.45378">
        <ele>232</ele>
        <time>2021-06-06T08:06:49.443Z</time>
      </trkpt>
      <trkpt lat="45.80661" lon="5.45375">
        <ele>232</ele>
        <time>2021-06-06T08:06:50.444Z</time>
      </trkpt>
      <trkpt lat="45.80669" lon="5.45372">
        <ele>232</ele>
        <time>2021-06-06T08:06:51.444Z</time>
      </trkpt>
      <trkpt lat="45.80677" lon="5.45368">
        <ele>232</ele>
        <time>2021-06-06T08:06:52.443Z</time>
      </trkpt>
      <trkpt lat="45.80685" lon="5.45365">
        <ele>233</ele>
        <time>2021-06-06T08:06:53.443Z</time>
      </trkpt>
      <trkpt lat="45.80693" lon="5.45363">
        <ele>234</ele>
        <time>2021-06-06T08:06:54.443Z</time>
      </trkpt>
      <trkpt lat="45.807" lon="5.4536">
        <ele>235</ele>
        <time>2021-06-06T08:06:55.444Z</time>
      </trkpt>
      <trkpt lat="45.80708" lon="5.45358">
        <ele>236</ele>
        <time>2021-06-06T08:06:56.443Z</time>
      </trkpt>
      <trkpt lat="45.80715" lon="5.45356">
        <ele>237</ele>
        <time>2021-06-06T08:06:57.443Z</time>
      </trkpt>
      <trkpt lat="45.80722" lon="5.45354">
        <ele>238</ele>
        <time>2021-06-06T08:06:58.443Z</time>
      </trkpt>
      <trkpt lat="45.80731" lon="5.45353">
        <ele>239</ele>
        <time>2021-06-06T08:06:59.443Z</time>
      </trkpt>
      <trkpt lat="45.80739" lon="5.45351">
        <ele>240</ele>
        <time>2021-06-06T08:07:00.444Z</time>
      </trkpt>
      <trkpt lat="45.80746" lon="5.4535">
        <ele>241</ele>
        <time>2021-06-06T08:07:01.444Z</time>
      </trkpt>
      <trkpt lat="45.80753" lon="5.45349">
        <ele>242</ele>
        <time>2021-06-06T08:07:02.444Z</time>
      </trkpt>
      <trkpt lat="45.80759" lon="5.45347">
        <ele>242</ele>
        <time>2021-06-06T08:07:03.443Z</time>
      </trkpt>
      <trkpt lat="45.80766" lon="5.45346">
        <ele>243</ele>
        <time>2021-06-06T08:07:04.444Z</time>
      </trkpt>
      <trkpt lat="45.80773" lon="5.45345">
        <ele>244</ele>
        <time>2021-06-06T08:07:05.443Z</time>
      </trkpt>
      <trkpt lat="45.80779" lon="5.45343">
        <ele>244</ele>
        <time>2021-06-06T08:07:06.443Z</time>
      </trkpt>
      <trkpt lat="45.80786" lon="5.45342">
        <ele>245</ele>
        <time>2021-06-06T08:07:07.444Z</time>
      </trkpt>
      <trkpt lat="45.80792" lon="5.4534">
        <ele>245</ele>
        <time>2021-06-06T08:07:08.444Z</time>
      </trkpt>
      <trkpt lat="45.80798" lon="5.45338">
        <ele>245</ele>
        <time>2021-06-06T08:07:09.443Z</time>
      </trkpt>
      <trkpt lat="45.80804" lon="5.45337">
        <ele>246</ele>
        <time>2021-06-06T08:07:10.444Z</time>
      </trkpt>
      <trkpt lat="45.8081" lon="5.45336">
        <ele>246</ele>
        <time>2021-06-06T08:07:11.443Z</time>
      </trkpt>
      <trkpt lat="45.80817" lon="5.45336">
        <ele>246</ele>
        <time>2021-06-06T08:07:12.443Z</time>
      </trkpt>
      <trkpt lat="45.80824" lon="5.45335">
        <ele>246</ele>
        <time>2021-06-06T08:07:13.443Z</time>
      </trkpt>
      <trkpt lat="45.8083" lon="5.45333">
        <ele>247</ele>
        <time>2021-06-06T08:07:14.444Z</time>
      </trkpt>
      <trkpt lat="45.80836" lon="5.45331">
        <ele>247</ele>
        <time>2021-06-06T08:07:15.444Z</time>
      </trkpt>
      <trkpt lat="45.80842" lon="5.45328">
        <ele>247</ele>
        <time>2021-06-06T08:07:16.444Z</time>
      </trkpt>
      <trkpt lat="45.80848" lon="5.45325">
        <ele>248</ele>
        <time>2021-06-06T08:07:17.443Z</time>
      </trkpt>
      <trkpt lat="45.80854" lon="5.45321">
        <ele>248</ele>
        <time>2021-06-06T08:07:18.443Z</time>
      </trkpt>
      <trkpt lat="45.8086" lon="5.45317">
        <ele>249</ele>
        <time>2021-06-06T08:07:19.443Z</time>
      </trkpt>
      <trkpt lat="45.80866" lon="5.45313">
        <ele>249</ele>
        <time>2021-06-06T08:07:20.443Z</time>
      </trkpt>
      <trkpt lat="45.80872" lon="5.45309">
        <ele>250</ele>
        <time>2021-06-06T08:07:21.443Z</time>
      </trkpt>
      <trkpt lat="45.80879" lon="5.45304">
        <ele>250</ele>
        <time>2021-06-06T08:07:22.443Z</time>
      </trkpt>
      <trkpt lat="45.80885" lon="5.453">
        <ele>251</ele>
        <time>2021-06-06T08:07:23.443Z</time>
      </trkpt>
      <trkpt lat="45.80892" lon="5.45295">
        <ele>251</ele>
        <time>2021-06-06T08:07:24.444Z</time>
      </trkpt>
      <trkpt lat="45.80898" lon="5.4529">
        <ele>251</ele>
        <time>2021-06-06T08:07:25.443Z</time>
      </trkpt>
      <trkpt lat="45.80905" lon="5.45285">
        <ele>251</ele>
        <time>2021-06-06T08:07:26.444Z</time>
      </trkpt>
      <trkpt lat="45.80912" lon="5.45281">
        <ele>250</ele>
        <time>2021-06-06T08:07:27.443Z</time>
      </trkpt>
      <trkpt lat="45.80919" lon="5.45277">
        <ele>250</ele>
        <time>2021-06-06T08:07:28.444Z</time>
      </trkpt>
      <trkpt lat="45.80926" lon="5.45274">
        <ele>249</ele>
        <time>2021-06-06T08:07:29.443Z</time>
      </trkpt>
      <trkpt lat="45.80934" lon="5.45272">
        <ele>248</ele>
        <time>2021-06-06T08:07:30.443Z</time>
      </trkpt>
      <trkpt lat="45.80941" lon="5.45272">
        <ele>247</ele>
        <time>2021-06-06T08:07:31.444Z</time>
      </trkpt>
      <trkpt lat="45.80949" lon="5.45273">
        <ele>246</ele>
        <time>2021-06-06T08:07:32.444Z</time>
      </trkpt>
      <trkpt lat="45.80957" lon="5.45276">
        <ele>244</ele>
        <time>2021-06-06T08:07:33.444Z</time>
      </trkpt>
      <trkpt lat="45.80964" lon="5.45279">
        <ele>243</ele>
        <time>2021-06-06T08:07:34.443Z</time>
      </trkpt>
      <trkpt lat="45.80972" lon="5.45283">
        <ele>243</ele>
        <time>2021-06-06T08:07:35.444Z</time>
      </trkpt>
      <trkpt lat="45.8098" lon="5.45287">
        <ele>242</ele>
        <time>2021-06-06T08:07:36.444Z</time>
      </trkpt>
      <trkpt lat="45.80988" lon="5.45291">
        <ele>241</ele>
        <time>2021-06-06T08:07:37.444Z</time>
      </trkpt>
      <trkpt lat="45.80996" lon="5.45294">
        <ele>240</ele>
        <time>2021-06-06T08:07:38.443Z</time>
      </trkpt>
      <trkpt lat="45.81005" lon="5.45297">
        <ele>240</ele>
        <time>2021-06-06T08:07:39.444Z</time>
      </trkpt>
      <trkpt lat="45.81013" lon="5.45298">
        <ele>238</ele>
        <time>2021-06-06T08:07:40.443Z</time>
      </trkpt>
      <trkpt lat="45.81022" lon="5.45299">
        <ele>237</ele>
        <time>2021-06-06T08:07:41.444Z</time>
      </trkpt>
      <trkpt lat="45.8103" lon="5.45298">
        <ele>237</ele>
        <time>2021-06-06T08:07:42.443Z</time>
      </trkpt>
      <trkpt lat="45.81039" lon="5.45296">
        <ele>236</ele>
        <time>2021-06-06T08:07:43.443Z</time>
      </trkpt>
      <trkpt lat="45.81047" lon="5.45294">
        <ele>236</ele>
        <time>2021-06-06T08:07:44.444Z</time>
      </trkpt>
      <trkpt lat="45.81055" lon="5.45292">
        <ele>235</ele>
        <time>2021-06-06T08:07:45.444Z</time>
      </trkpt>
      <trkpt lat="45.81064" lon="5.45289">
        <ele>235</ele>
        <time>2021-06-06T08:07:46.443Z</time>
      </trkpt>
      <trkpt lat="45.81072" lon="5.45286">
        <ele>235</ele>
        <time>2021-06-06T08:07:47.443Z</time>
      </trkpt>
      <trkpt lat="45.8108" lon="5.45283">
        <ele>235</ele>
        <time>2021-06-06T08:07:48.443Z</time>
      </trkpt>
      <trkpt lat="45.81089" lon="5.4528">
        <ele>235</ele>
        <time>2021-06-06T08:07:49.444Z</time>
      </trkpt>
      <trkpt lat="45.81097" lon="5.45277">
        <ele>235</ele>
        <time>2021-06-06T08:07:50.443Z</time>
      </trkpt>
      <trkpt lat="45.81105" lon="5.45274">
        <ele>236</ele>
        <time>2021-06-06T08:07:51.444Z</time>
      </trkpt>
      <trkpt lat="45.81114" lon="5.45271">
        <ele>236</ele>
        <time>2021-06-06T08:07:52.443Z</time>
      </trkpt>
      <trkpt lat="45.81122" lon="5.45268">
        <ele>236</ele>
        <time>2021-06-06T08:07:53.444Z</time>
      </trkpt>
      <trkpt lat="45.8113" lon="5.45265">
        <ele>237</ele>
        <time>2021-06-06T08:07:54.443Z</time>
      </trkpt>
      <trkpt lat="45.81138" lon="5.45262">
        <ele>237</ele>
        <time>2021-06-06T08:07:55.443Z</time>
      </trkpt>
      <trkpt lat="45.81146" lon="5.45259">
        <ele>238</ele>
        <time>2021-06-06T08:07:56.443Z</time>
      </trkpt>
      <trkpt lat="45.81154" lon="5.45256">
        <ele>238</ele>
        <time>2021-06-06T08:07:57.444Z</time>
      </trkpt>
      <trkpt lat="45.81161" lon="5.45253">
        <ele>237</ele>
        <time>2021-06-06T08:07:58.443Z</time>
      </trkpt>
      <trkpt lat="45.81169" lon="5.4525">
        <ele>237</ele>
        <time>2021-06-06T08:07:59.443Z</time>
      </trkpt>
      <trkpt lat="45.81177" lon="5.45247">
        <ele>236</ele>
        <time>2021-06-06T08:08:00.444Z</time>
      </trkpt>
      <trkpt lat="45.81185" lon="5.45245">
        <ele>236</ele>
        <time>2021-06-06T08:08:01.444Z</time>
      </trkpt>
      <trkpt lat="45.81192" lon="5.45242">
        <ele>235</ele>
        <time>2021-06-06T08:08:02.444Z</time>
      </trkpt>
      <trkpt lat="45.81199" lon="5.45239">
        <ele>235</ele>
        <time>2021-06-06T08:08:03.444Z</time>
      </trkpt>
      <trkpt lat="45.81205" lon="5.45236">
        <ele>235</ele>
        <time>2021-06-06T08:08:04.443Z</time>
      </trkpt>
      <trkpt lat="45.8121" lon="5.45236">
        <ele>235</ele>
        <time>2021-06-06T08:08:05.443Z</time>
      </trkpt>
      <trkpt lat="45.81214" lon="5.45238">
        <ele>234</ele>
        <time>2021-06-06T08:08:06.443Z</time>
      </trkpt>
      <trkpt lat="45.81216" lon="5.45243">
        <ele>234</ele>
        <time>2021-06-06T08:08:07.443Z</time>
      </trkpt>
      <trkpt lat="45.81216" lon="5.45248">
        <ele>234</ele>
        <time>2021-06-06T08:08:08.443Z</time>
      </trkpt>
      <trkpt lat="45.81214" lon="5.45252">
        <ele>233</ele>
        <time>2021-06-06T08:08:09.444Z</time>
      </trkpt>
      <trkpt lat="45.8121" lon="5.45255">
        <ele>233</ele>
        <time>2021-06-06T08:08:10.444Z</time>
      </trkpt>
      <trkpt lat="45.81205" lon="5.45257">
        <ele>232</ele>
        <time>2021-06-06T08:08:11.444Z</time>
      </trkpt>
      <trkpt lat="45.81201" lon="5.45258">
        <ele>232</ele>
        <time>2021-06-06T08:08:12.443Z</time>
      </trkpt>
      <trkpt lat="45.81197" lon="5.45259">
        <ele>232</ele>
        <time>2021-06-06T08:08:13.443Z</time>
      </trkpt>
      <trkpt lat="45.81192" lon="5.4526">
        <ele>231</ele>
        <time>2021-06-06T08:08:14.444Z</time>
      </trkpt>
      <trkpt lat="45.81188" lon="5.45262">
        <ele>231</ele>
        <time>2021-06-06T08:08:15.443Z</time>
      </trkpt>
      <trkpt lat="45.81184" lon="5.45263">
        <ele>231</ele>
        <time>2021-06-06T08:08:16.443Z</time>
      </trkpt>
      <trkpt lat="45.8118" lon="5.45264">
        <ele>231</ele>
        <time>2021-06-06T08:08:17.444Z</time>
      </trkpt>
      <trkpt lat="45.81176" lon="5.45266">
        <ele>231</ele>
        <time>2021-06-06T08:08:18.443Z</time>
      </trkpt>
      <trkpt lat="45.81173" lon="5.45267">
        <ele>231</ele>
        <time>2021-06-06T08:08:19.443Z</time>
      </trkpt>
      <trkpt lat="45.8117" lon="5.45269">
        <ele>231</ele>
        <time>2021-06-06T08:08:20.443Z</time>
      </trkpt>
      <trkpt lat="45.81168" lon="5.4527">
        <ele>231</ele>
        <time>2021-06-06T08:08:21.443Z</time>
      </trkpt>
      <trkpt lat="45.81166" lon="5.45272">
        <ele>232</ele>
        <time>2021-06-06T08:08:22.443Z</time>
      </trkpt>
      <trkpt lat="45.81164" lon="5.45273">
        <ele>232</ele>
        <time>2021-06-06T08:08:23.443Z</time>
      </trkpt>
      <trkpt lat="45.81164" lon="5.45275">
        <ele>232</ele>
        <time>2021-06-06T08:08:24.443Z</time>
      </trkpt>
      <trkpt lat="45.81163" lon="5.45276">
        <ele>232</ele>
        <time>2021-06-06T08:08:25.444Z</time>
      </trkpt>
      <trkpt lat="45.81163" lon="5.45277">
        <ele>232</ele>
        <time>2021-06-06T08:08:26.444Z</time>
      </trkpt>
      <trkpt lat="45.81163" lon="5.45277">
        <ele>232</ele>
        <time>2021-06-06T08:08:27.444Z</time>
      </trkpt>
      <trkpt lat="45.81163" lon="5.45277">
        <ele>232</ele>
        <time>2021-06-06T08:08:28.444Z</time>
      </trkpt>
      <trkpt lat="45.81161" lon="5.45279">
        <ele>232</ele>
        <time>2021-06-06T08:08:29.444Z</time>
      </trkpt>
      <trkpt lat="45.8116" lon="5.4528">
        <ele>231</ele>
        <time>2021-06-06T08:08:30.444Z</time>
      </trkpt>
      <trkpt lat="45.8116" lon="5.45281">
        <ele>231</ele>
        <time>2021-06-06T08:08:31.443Z</time>
      </trkpt>
      <trkpt lat="45.81159" lon="5.45281">
        <ele>231</ele>
        <time>2021-06-06T08:08:32.444Z</time>
      </trkpt>
      <trkpt lat="45.81158" lon="5.45282">
        <ele>231</ele>
        <time>2021-06-06T08:08:33.443Z</time>
      </trkpt>
      <trkpt lat="45.81157" lon="5.45283">
        <ele>231</ele>
        <time>2021-06-06T08:08:34.444Z</time>
      </trkpt>
      <trkpt lat="45.81156" lon="5.45283">
        <ele>231</ele>
        <time>2021-06-06T08:08:35.444Z</time>
      </trkpt>
      <trkpt lat="45.81156" lon="5.45283">
        <ele>231</ele>
        <time>2021-06-06T08:08:36.444Z</time>
      </trkpt>
      <trkpt lat="45.81156" lon="5.45285">
        <ele>231</ele>
        <time>2021-06-06T08:08:37.444Z</time>
      </trkpt>
      <trkpt lat="45.81156" lon="5.45286">
        <ele>231</ele>
        <time>2021-06-06T08:08:38.443Z</time>
      </trkpt>
      <trkpt lat="45.81156" lon="5.45286">
        <ele>231</ele>
        <time>2021-06-06T08:08:39.444Z</time>
      </trkpt>
      <trkpt lat="45.81156" lon="5.45286">
        <ele>231</ele>
        <time>2021-06-06T08:08:40.443Z</time>
      </trkpt>
      <trkpt lat="45.81157" lon="5.45285">
        <ele>231</ele>
        <time>2021-06-06T08:08:41.444Z</time>
      </trkpt>
      <trkpt lat="45.81157" lon="5.45285">
        <ele>232</ele>
        <time>2021-06-06T08:08:42.444Z</time>
      </trkpt>
      <trkpt lat="45.81157" lon="5.45285">
        <ele>232</ele>
        <time>2021-06-06T08:08:43.444Z</time>
      </trkpt>
      <trkpt lat="45.81157" lon="5.45285">
        <ele>232</ele>
        <time>2021-06-06T08:08:44.444Z</time>
      </trkpt>
      <trkpt lat="45.81157" lon="5.45285">
        <ele>232</ele>
        <time>2021-06-06T08:08:45.444Z</time>
      </trkpt>
      <trkpt lat="45.81158" lon="5.45286">
        <ele>232</ele>
        <time>2021-06-06T08:08:46.444Z</time>
      </trkpt>
      <trkpt lat="45.81157" lon="5.45286">
        <ele>233</ele>
        <time>2021-06-06T08:08:47.444Z</time>
      </trkpt>
      <trkpt lat="45.81156" lon="5.45286">
        <ele>233</ele>
        <time>2021-06-06T08:08:48.443Z</time>
      </trkpt>
      <trkpt lat="45.81158" lon="5.45287">
        <ele>234</ele>
        <time>2021-06-06T08:08:49.443Z</time>
      </trkpt>
      <trkpt lat="45.81158" lon="5.45287">
        <ele>235</ele>
        <time>2021-06-06T08:08:50.443Z</time>
      </trkpt>
      <trkpt lat="45.81158" lon="5.45287">
        <ele>235</ele>
        <time>2021-06-06T08:08:51.443Z</time>
      </trkpt>
      <trkpt lat="45.81159" lon="5.45283">
        <ele>240</ele>
        <time>2021-06-06T08:08:52.443Z</time>
      </trkpt>
      <trkpt lat="45.81159" lon="5.45282">
        <ele>240</ele>
        <time>2021-06-06T08:08:53.443Z</time>
      </trkpt>
      <trkpt lat="45.8115" lon="5.45286">
        <ele>228</ele>
        <time>2021-06-06T08:08:54.445Z</time>
      </trkpt>
      <trkpt lat="45.81147" lon="5.45287">
        <ele>228</ele>
        <time>2021-06-06T08:08:55.444Z</time>
      </trkpt>
      <trkpt lat="45.81143" lon="5.45289">
        <ele>229</ele>
        <time>2021-06-06T08:08:56.444Z</time>
      </trkpt>
      <trkpt lat="45.81139" lon="5.45292">
        <ele>229</ele>
        <time>2021-06-06T08:08:57.445Z</time>
      </trkpt>
      <trkpt lat="45.81135" lon="5.45294">
        <ele>229</ele>
        <time>2021-06-06T08:08:58.444Z</time>
      </trkpt>
      <trkpt lat="45.81131" lon="5.45295">
        <ele>229</ele>
        <time>2021-06-06T08:08:59.445Z</time>
      </trkpt>
      <trkpt lat="45.81128" lon="5.45297">
        <ele>230</ele>
        <time>2021-06-06T08:09:00.445Z</time>
      </trkpt>
      <trkpt lat="45.81124" lon="5.45298">
        <ele>231</ele>
        <time>2021-06-06T08:09:01.445Z</time>
      </trkpt>
      <trkpt lat="45.81121" lon="5.45299">
        <ele>231</ele>
        <time>2021-06-06T08:09:02.444Z</time>
      </trkpt>
      <trkpt lat="45.81118" lon="5.45301">
        <ele>232</ele>
        <time>2021-06-06T08:09:03.445Z</time>
      </trkpt>
      <trkpt lat="45.81115" lon="5.45303">
        <ele>233</ele>
        <time>2021-06-06T08:09:04.444Z</time>
      </trkpt>
      <trkpt lat="45.81112" lon="5.45304">
        <ele>233</ele>
        <time>2021-06-06T08:09:05.445Z</time>
      </trkpt>
      <trkpt lat="45.81109" lon="5.45305">
        <ele>234</ele>
        <time>2021-06-06T08:09:06.445Z</time>
      </trkpt>
      <trkpt lat="45.81106" lon="5.45306">
        <ele>234</ele>
        <time>2021-06-06T08:09:07.445Z</time>
      </trkpt>
      <trkpt lat="45.81103" lon="5.45308">
        <ele>235</ele>
        <time>2021-06-06T08:09:08.445Z</time>
      </trkpt>
      <trkpt lat="45.811" lon="5.45309">
        <ele>235</ele>
        <time>2021-06-06T08:09:09.445Z</time>
      </trkpt>
      <trkpt lat="45.81097" lon="5.4531">
        <ele>236</ele>
        <time>2021-06-06T08:09:10.445Z</time>
      </trkpt>
      <trkpt lat="45.81093" lon="5.45311">
        <ele>236</ele>
        <time>2021-06-06T08:09:11.444Z</time>
      </trkpt>
      <trkpt lat="45.8109" lon="5.45313">
        <ele>237</ele>
        <time>2021-06-06T08:09:12.444Z</time>
      </trkpt>
      <trkpt lat="45.81086" lon="5.45315">
        <ele>237</ele>
        <time>2021-06-06T08:09:13.445Z</time>
      </trkpt>
      <trkpt lat="45.81083" lon="5.45317">
        <ele>237</ele>
        <time>2021-06-06T08:09:14.444Z</time>
      </trkpt>
      <trkpt lat="45.8108" lon="5.45319">
        <ele>237</ele>
        <time>2021-06-06T08:09:15.445Z</time>
      </trkpt>
      <trkpt lat="45.81077" lon="5.45321">
        <ele>238</ele>
        <time>2021-06-06T08:09:16.445Z</time>
      </trkpt>
      <trkpt lat="45.81074" lon="5.45323">
        <ele>237</ele>
        <time>2021-06-06T08:09:17.444Z</time>
      </trkpt>
      <trkpt lat="45.81071" lon="5.45324">
        <ele>237</ele>
        <time>2021-06-06T08:09:18.444Z</time>
      </trkpt>
      <trkpt lat="45.81068" lon="5.45325">
        <ele>237</ele>
        <time>2021-06-06T08:09:19.444Z</time>
      </trkpt>
      <trkpt lat="45.81066" lon="5.45326">
        <ele>238</ele>
        <time>2021-06-06T08:09:20.445Z</time>
      </trkpt>
      <trkpt lat="45.81064" lon="5.45327">
        <ele>238</ele>
        <time>2021-06-06T08:09:21.445Z</time>
      </trkpt>
      <trkpt lat="45.81062" lon="5.45329">
        <ele>239</ele>
        <time>2021-06-06T08:09:22.445Z</time>
      </trkpt>
      <trkpt lat="45.8106" lon="5.45331">
        <ele>239</ele>
        <time>2021-06-06T08:09:23.444Z</time>
      </trkpt>
      <trkpt lat="45.81057" lon="5.45334">
        <ele>240</ele>
        <time>2021-06-06T08:09:24.444Z</time>
      </trkpt>
      <trkpt lat="45.81054" lon="5.45336">
        <ele>240</ele>
        <time>2021-06-06T08:09:25.445Z</time>
      </trkpt>
      <trkpt lat="45.81051" lon="5.45338">
        <ele>240</ele>
        <time>2021-06-06T08:09:26.444Z</time>
      </trkpt>
      <trkpt lat="45.81048" lon="5.4534">
        <ele>240</ele>
        <time>2021-06-06T08:09:27.444Z</time>
      </trkpt>
      <trkpt lat="45.81045" lon="5.45342">
        <ele>240</ele>
        <time>2021-06-06T08:09:28.444Z</time>
      </trkpt>
      <trkpt lat="45.81041" lon="5.45345">
        <ele>241</ele>
        <time>2021-06-06T08:09:29.445Z</time>
      </trkpt>
      <trkpt lat="45.81038" lon="5.45347">
        <ele>241</ele>
        <time>2021-06-06T08:09:30.445Z</time>
      </trkpt>
      <trkpt lat="45.81035" lon="5.45349">
        <ele>241</ele>
        <time>2021-06-06T08:09:31.444Z</time>
      </trkpt>
      <trkpt lat="45.81032" lon="5.45351">
        <ele>241</ele>
        <time>2021-06-06T08:09:32.445Z</time>
      </trkpt>
      <trkpt lat="45.81028" lon="5.45354">
        <ele>241</ele>
        <time>2021-06-06T08:09:33.444Z</time>
      </trkpt>
      <trkpt lat="45.81024" lon="5.45356">
        <ele>241</ele>
        <time>2021-06-06T08:09:34.444Z</time>
      </trkpt>
      <trkpt lat="45.81021" lon="5.45359">
        <ele>241</ele>
        <time>2021-06-06T08:09:35.445Z</time>
      </trkpt>
      <trkpt lat="45.81018" lon="5.45362">
        <ele>241</ele>
        <time>2021-06-06T08:09:36.444Z</time>
      </trkpt>
      <trkpt lat="45.81015" lon="5.45364">
        <ele>240</ele>
        <time>2021-06-06T08:09:37.445Z</time>
      </trkpt>
      <trkpt lat="45.81012" lon="5.45366">
        <ele>240</ele>
        <time>2021-06-06T08:09:38.444Z</time>
      </trkpt>
      <trkpt lat="45.81009" lon="5.45369">
        <ele>240</ele>
        <time>2021-06-06T08:09:39.444Z</time>
      </trkpt>
      <trkpt lat="45.81005" lon="5.45373">
        <ele>240</ele>
        <time>2021-06-06T08:09:40.444Z</time>
      </trkpt>
      <trkpt lat="45.81001" lon="5.45376">
        <ele>240</ele>
        <time>2021-06-06T08:09:41.444Z</time>
      </trkpt>
      <trkpt lat="45.80998" lon="5.45378">
        <ele>240</ele>
        <time>2021-06-06T08:09:42.444Z</time>
      </trkpt>
      <trkpt lat="45.80994" lon="5.45381">
        <ele>240</ele>
        <time>2021-06-06T08:09:43.444Z</time>
      </trkpt>
      <trkpt lat="45.80991" lon="5.45384">
        <ele>239</ele>
        <time>2021-06-06T08:09:44.444Z</time>
      </trkpt>
      <trkpt lat="45.80987" lon="5.45386">
        <ele>239</ele>
        <time>2021-06-06T08:09:45.445Z</time>
      </trkpt>
      <trkpt lat="45.80984" lon="5.45389">
        <ele>239</ele>
        <time>2021-06-06T08:09:46.445Z</time>
      </trkpt>
      <trkpt lat="45.80981" lon="5.45391">
        <ele>240</ele>
        <time>2021-06-06T08:09:47.445Z</time>
      </trkpt>
      <trkpt lat="45.80977" lon="5.45394">
        <ele>240</ele>
        <time>2021-06-06T08:09:48.444Z</time>
      </trkpt>
      <trkpt lat="45.80974" lon="5.45396">
        <ele>240</ele>
        <time>2021-06-06T08:09:49.444Z</time>
      </trkpt>
      <trkpt lat="45.80971" lon="5.45399">
        <ele>240</ele>
        <time>2021-06-06T08:09:50.444Z</time>
      </trkpt>
      <trkpt lat="45.80968" lon="5.45401">
        <ele>240</ele>
        <time>2021-06-06T08:09:51.444Z</time>
      </trkpt>
      <trkpt lat="45.80965" lon="5.45404">
        <ele>240</ele>
        <time>2021-06-06T08:09:52.444Z</time>
      </trkpt>
      <trkpt lat="45.80962" lon="5.45407">
        <ele>241</ele>
        <time>2021-06-06T08:09:53.444Z</time>
      </trkpt>
      <trkpt lat="45.80959" lon="5.45409">
        <ele>241</ele>
        <time>2021-06-06T08:09:54.444Z</time>
      </trkpt>
      <trkpt lat="45.80956" lon="5.45412">
        <ele>241</ele>
        <time>2021-06-06T08:09:55.445Z</time>
      </trkpt>
      <trkpt lat="45.80953" lon="5.45415">
        <ele>242</ele>
        <time>2021-06-06T08:09:56.445Z</time>
      </trkpt>
      <trkpt lat="45.8095" lon="5.45418">
        <ele>242</ele>
        <time>2021-06-06T08:09:57.444Z</time>
      </trkpt>
      <trkpt lat="45.80947" lon="5.45421">
        <ele>242</ele>
        <time>2021-06-06T08:09:58.445Z</time>
      </trkpt>
      <trkpt lat="45.80944" lon="5.45423">
        <ele>243</ele>
        <time>2021-06-06T08:09:59.444Z</time>
      </trkpt>
      <trkpt lat="45.80941" lon="5.45426">
        <ele>243</ele>
        <time>2021-06-06T08:10:00.445Z</time>
      </trkpt>
      <trkpt lat="45.80937" lon="5.45428">
        <ele>244</ele>
        <time>2021-06-06T08:10:01.444Z</time>
      </trkpt>
      <trkpt lat="45.80934" lon="5.45431">
        <ele>244</ele>
        <time>2021-06-06T08:10:02.444Z</time>
      </trkpt>
      <trkpt lat="45.80931" lon="5.45434">
        <ele>245</ele>
        <time>2021-06-06T08:10:03.444Z</time>
      </trkpt>
      <trkpt lat="45.80928" lon="5.45437">
        <ele>245</ele>
        <time>2021-06-06T08:10:04.444Z</time>
      </trkpt>
      <trkpt lat="45.80925" lon="5.4544">
        <ele>246</ele>
        <time>2021-06-06T08:10:05.445Z</time>
      </trkpt>
      <trkpt lat="45.80922" lon="5.45443">
        <ele>246</ele>
        <time>2021-06-06T08:10:06.444Z</time>
      </trkpt>
      <trkpt lat="45.80919" lon="5.45446">
        <ele>247</ele>
        <time>2021-06-06T08:10:07.444Z</time>
      </trkpt>
      <trkpt lat="45.80916" lon="5.45448">
        <ele>247</ele>
        <time>2021-06-06T08:10:08.444Z</time>
      </trkpt>
      <trkpt lat="45.80914" lon="5.45451">
        <ele>248</ele>
        <time>2021-06-06T08:10:09.444Z</time>
      </trkpt>
      <trkpt lat="45.80911" lon="5.45454">
        <ele>248</ele>
        <time>2021-06-06T08:10:10.445Z</time>
      </trkpt>
      <trkpt lat="45.80907" lon="5.45457">
        <ele>249</ele>
        <time>2021-06-06T08:10:11.444Z</time>
      </trkpt>
      <trkpt lat="45.80904" lon="5.4546">
        <ele>249</ele>
        <time>2021-06-06T08:10:12.444Z</time>
      </trkpt>
      <trkpt lat="45.809" lon="5.45463">
        <ele>249</ele>
        <time>2021-06-06T08:10:13.445Z</time>
      </trkpt>
      <trkpt lat="45.80897" lon="5.45466">
        <ele>250</ele>
        <time>2021-06-06T08:10:14.444Z</time>
      </trkpt>
      <trkpt lat="45.80894" lon="5.45468">
        <ele>250</ele>
        <time>2021-06-06T08:10:15.444Z</time>
      </trkpt>
      <trkpt lat="45.80891" lon="5.45471">
        <ele>250</ele>
        <time>2021-06-06T08:10:16.445Z</time>
      </trkpt>
      <trkpt lat="45.80889" lon="5.45474">
        <ele>250</ele>
        <time>2021-06-06T08:10:17.444Z</time>
      </trkpt>
      <trkpt lat="45.80886" lon="5.45477">
        <ele>250</ele>
        <time>2021-06-06T08:10:18.444Z</time>
      </trkpt>
      <trkpt lat="45.80883" lon="5.4548">
        <ele>250</ele>
        <time>2021-06-06T08:10:19.444Z</time>
      </trkpt>
      <trkpt lat="45.80879" lon="5.45484">
        <ele>250</ele>
        <time>2021-06-06T08:10:20.444Z</time>
      </trkpt>
      <trkpt lat="45.80877" lon="5.45487">
        <ele>251</ele>
        <time>2021-06-06T08:10:21.445Z</time>
      </trkpt>
      <trkpt lat="45.80874" lon="5.4549">
        <ele>251</ele>
        <time>2021-06-06T08:10:22.444Z</time>
      </trkpt>
      <trkpt lat="45.80872" lon="5.45494">
        <ele>251</ele>
        <time>2021-06-06T08:10:23.445Z</time>
      </trkpt>
      <trkpt lat="45.8087" lon="5.45497">
        <ele>251</ele>
        <time>2021-06-06T08:10:24.444Z</time>
      </trkpt>
      <trkpt lat="45.80867" lon="5.45501">
        <ele>251</ele>
        <time>2021-06-06T08:10:25.444Z</time>
      </trkpt>
      <trkpt lat="45.80865" lon="5.45506">
        <ele>251</ele>
        <time>2021-06-06T08:10:26.445Z</time>
      </trkpt>
      <trkpt lat="45.80862" lon="5.4551">
        <ele>251</ele>
        <time>2021-06-06T08:10:27.444Z</time>
      </trkpt>
      <trkpt lat="45.8086" lon="5.45514">
        <ele>252</ele>
        <time>2021-06-06T08:10:28.444Z</time>
      </trkpt>
      <trkpt lat="45.80858" lon="5.45518">
        <ele>252</ele>
        <time>2021-06-06T08:10:29.444Z</time>
      </trkpt>
      <trkpt lat="45.80855" lon="5.45523">
        <ele>252</ele>
        <time>2021-06-06T08:10:30.444Z</time>
      </trkpt>
      <trkpt lat="45.80854" lon="5.45527">
        <ele>252</ele>
        <time>2021-06-06T08:10:31.444Z</time>
      </trkpt>
      <trkpt lat="45.80851" lon="5.45532">
        <ele>253</ele>
        <time>2021-06-06T08:10:32.444Z</time>
      </trkpt>
      <trkpt lat="45.80849" lon="5.45537">
        <ele>253</ele>
        <time>2021-06-06T08:10:33.444Z</time>
      </trkpt>
      <trkpt lat="45.80847" lon="5.45541">
        <ele>253</ele>
        <time>2021-06-06T08:10:34.444Z</time>
      </trkpt>
      <trkpt lat="45.80845" lon="5.45545">
        <ele>254</ele>
        <time>2021-06-06T08:10:35.444Z</time>
      </trkpt>
      <trkpt lat="45.80844" lon="5.4555">
        <ele>255</ele>
        <time>2021-06-06T08:10:36.444Z</time>
      </trkpt>
      <trkpt lat="45.80842" lon="5.45554">
        <ele>256</ele>
        <time>2021-06-06T08:10:37.444Z</time>
      </trkpt>
      <trkpt lat="45.80841" lon="5.45559">
        <ele>256</ele>
        <time>2021-06-06T08:10:38.444Z</time>
      </trkpt>
      <trkpt lat="45.80839" lon="5.45565">
        <ele>257</ele>
        <time>2021-06-06T08:10:39.444Z</time>
      </trkpt>
      <trkpt lat="45.80838" lon="5.4557">
        <ele>258</ele>
        <time>2021-06-06T08:10:40.445Z</time>
      </trkpt>
      <trkpt lat="45.80837" lon="5.45575">
        <ele>258</ele>
        <time>2021-06-06T08:10:41.445Z</time>
      </trkpt>
      <trkpt lat="45.80837" lon="5.4558">
        <ele>258</ele>
        <time>2021-06-06T08:10:42.445Z</time>
      </trkpt>
      <trkpt lat="45.80836" lon="5.45585">
        <ele>258</ele>
        <time>2021-06-06T08:10:43.445Z</time>
      </trkpt>
      <trkpt lat="45.80836" lon="5.45591">
        <ele>258</ele>
        <time>2021-06-06T08:10:44.444Z</time>
      </trkpt>
      <trkpt lat="45.80836" lon="5.45596">
        <ele>258</ele>
        <time>2021-06-06T08:10:45.445Z</time>
      </trkpt>
      <trkpt lat="45.80836" lon="5.45601">
        <ele>258</ele>
        <time>2021-06-06T08:10:46.444Z</time>
      </trkpt>
      <trkpt lat="45.80836" lon="5.45606">
        <ele>258</ele>
        <time>2021-06-06T08:10:47.444Z</time>
      </trkpt>
      <trkpt lat="45.80837" lon="5.45611">
        <ele>258</ele>
        <time>2021-06-06T08:10:48.445Z</time>
      </trkpt>
      <trkpt lat="45.80837" lon="5.45616">
        <ele>258</ele>
        <time>2021-06-06T08:10:49.444Z</time>
      </trkpt>
      <trkpt lat="45.80837" lon="5.45621">
        <ele>258</ele>
        <time>2021-06-06T08:10:50.444Z</time>
      </trkpt>
      <trkpt lat="45.80838" lon="5.45626">
        <ele>258</ele>
        <time>2021-06-06T08:10:51.445Z</time>
      </trkpt>
      <trkpt lat="45.80839" lon="5.45632">
        <ele>259</ele>
        <time>2021-06-06T08:10:52.445Z</time>
      </trkpt>
      <trkpt lat="45.8084" lon="5.45637">
        <ele>259</ele>
        <time>2021-06-06T08:10:53.444Z</time>
      </trkpt>
      <trkpt lat="45.80841" lon="5.45642">
        <ele>259</ele>
        <time>2021-06-06T08:10:54.444Z</time>
      </trkpt>
      <trkpt lat="45.80842" lon="5.45647">
        <ele>260</ele>
        <time>2021-06-06T08:10:55.445Z</time>
      </trkpt>
      <trkpt lat="45.80843" lon="5.45652">
        <ele>260</ele>
        <time>2021-06-06T08:10:56.445Z</time>
      </trkpt>
      <trkpt lat="45.80845" lon="5.45656">
        <ele>261</ele>
        <time>2021-06-06T08:10:57.445Z</time>
      </trkpt>
      <trkpt lat="45.80847" lon="5.45661">
        <ele>261</ele>
        <time>2021-06-06T08:10:58.445Z</time>
      </trkpt>
      <trkpt lat="45.80848" lon="5.45665">
        <ele>261</ele>
        <time>2021-06-06T08:10:59.445Z</time>
      </trkpt>
      <trkpt lat="45.8085" lon="5.45669">
        <ele>262</ele>
        <time>2021-06-06T08:11:00.445Z</time>
      </trkpt>
      <trkpt lat="45.80852" lon="5.45674">
        <ele>262</ele>
        <time>2021-06-06T08:11:01.445Z</time>
      </trkpt>
      <trkpt lat="45.80854" lon="5.45678">
        <ele>262</ele>
        <time>2021-06-06T08:11:02.444Z</time>
      </trkpt>
      <trkpt lat="45.80856" lon="5.45682">
        <ele>262</ele>
        <time>2021-06-06T08:11:03.445Z</time>
      </trkpt>
      <trkpt lat="45.80859" lon="5.45686">
        <ele>262</ele>
        <time>2021-06-06T08:11:04.445Z</time>
      </trkpt>
      <trkpt lat="45.80861" lon="5.45689">
        <ele>263</ele>
        <time>2021-06-06T08:11:05.445Z</time>
      </trkpt>
      <trkpt lat="45.80864" lon="5.45693">
        <ele>263</ele>
        <time>2021-06-06T08:11:06.445Z</time>
      </trkpt>
      <trkpt lat="45.80867" lon="5.45697">
        <ele>263</ele>
        <time>2021-06-06T08:11:07.445Z</time>
      </trkpt>
      <trkpt lat="45.80869" lon="5.45701">
        <ele>264</ele>
        <time>2021-06-06T08:11:08.444Z</time>
      </trkpt>
      <trkpt lat="45.80872" lon="5.45704">
        <ele>264</ele>
        <time>2021-06-06T08:11:09.445Z</time>
      </trkpt>
      <trkpt lat="45.80875" lon="5.45708">
        <ele>265</ele>
        <time>2021-06-06T08:11:10.445Z</time>
      </trkpt>
      <trkpt lat="45.80878" lon="5.45711">
        <ele>265</ele>
        <time>2021-06-06T08:11:11.445Z</time>
      </trkpt>
      <trkpt lat="45.80882" lon="5.45713">
        <ele>265</ele>
        <time>2021-06-06T08:11:12.444Z</time>
      </trkpt>
      <trkpt lat="45.80885" lon="5.45717">
        <ele>266</ele>
        <time>2021-06-06T08:11:13.445Z</time>
      </trkpt>
      <trkpt lat="45.80887" lon="5.4572">
        <ele>266</ele>
        <time>2021-06-06T08:11:14.445Z</time>
      </trkpt>
      <trkpt lat="45.80891" lon="5.45723">
        <ele>267</ele>
        <time>2021-06-06T08:11:15.445Z</time>
      </trkpt>
      <trkpt lat="45.80893" lon="5.45726">
        <ele>267</ele>
        <time>2021-06-06T08:11:16.445Z</time>
      </trkpt>
      <trkpt lat="45.80896" lon="5.4573">
        <ele>268</ele>
        <time>2021-06-06T08:11:17.444Z</time>
      </trkpt>
      <trkpt lat="45.80899" lon="5.45733">
        <ele>268</ele>
        <time>2021-06-06T08:11:18.445Z</time>
      </trkpt>
      <trkpt lat="45.809" lon="5.45737">
        <ele>269</ele>
        <time>2021-06-06T08:11:19.445Z</time>
      </trkpt>
      <trkpt lat="45.809" lon="5.45742">
        <ele>269</ele>
        <time>2021-06-06T08:11:20.444Z</time>
      </trkpt>
      <trkpt lat="45.80902" lon="5.45747">
        <ele>270</ele>
        <time>2021-06-06T08:11:21.445Z</time>
      </trkpt>
      <trkpt lat="45.80904" lon="5.45751">
        <ele>270</ele>
        <time>2021-06-06T08:11:22.445Z</time>
      </trkpt>
      <trkpt lat="45.80905" lon="5.45756">
        <ele>270</ele>
        <time>2021-06-06T08:11:23.445Z</time>
      </trkpt>
      <trkpt lat="45.80905" lon="5.45761">
        <ele>270</ele>
        <time>2021-06-06T08:11:24.445Z</time>
      </trkpt>
      <trkpt lat="45.80906" lon="5.45766">
        <ele>271</ele>
        <time>2021-06-06T08:11:25.445Z</time>
      </trkpt>
      <trkpt lat="45.80907" lon="5.45772">
        <ele>271</ele>
        <time>2021-06-06T08:11:26.445Z</time>
      </trkpt>
      <trkpt lat="45.80908" lon="5.45776">
        <ele>271</ele>
        <time>2021-06-06T08:11:27.445Z</time>
      </trkpt>
      <trkpt lat="45.80908" lon="5.45781">
        <ele>271</ele>
        <time>2021-06-06T08:11:28.444Z</time>
      </trkpt>
      <trkpt lat="45.80909" lon="5.45787">
        <ele>271</ele>
        <time>2021-06-06T08:11:29.445Z</time>
      </trkpt>
      <trkpt lat="45.8091" lon="5.45791">
        <ele>271</ele>
        <time>2021-06-06T08:11:30.445Z</time>
      </trkpt>
      <trkpt lat="45.8091" lon="5.45796">
        <ele>272</ele>
        <time>2021-06-06T08:11:31.444Z</time>
      </trkpt>
      <trkpt lat="45.80911" lon="5.45801">
        <ele>272</ele>
        <time>2021-06-06T08:11:32.445Z</time>
      </trkpt>
      <trkpt lat="45.80911" lon="5.45806">
        <ele>272</ele>
        <time>2021-06-06T08:11:33.445Z</time>
      </trkpt>
      <trkpt lat="45.80912" lon="5.45811">
        <ele>272</ele>
        <time>2021-06-06T08:11:34.444Z</time>
      </trkpt>
      <trkpt lat="45.80913" lon="5.45815">
        <ele>272</ele>
        <time>2021-06-06T08:11:35.445Z</time>
      </trkpt>
      <trkpt lat="45.80914" lon="5.45819">
        <ele>272</ele>
        <time>2021-06-06T08:11:36.444Z</time>
      </trkpt>
      <trkpt lat="45.80915" lon="5.45823">
        <ele>272</ele>
        <time>2021-06-06T08:11:37.444Z</time>
      </trkpt>
      <trkpt lat="45.80917" lon="5.45828">
        <ele>272</ele>
        <time>2021-06-06T08:11:38.445Z</time>
      </trkpt>
      <trkpt lat="45.80918" lon="5.45832">
        <ele>272</ele>
        <time>2021-06-06T08:11:39.445Z</time>
      </trkpt>
      <trkpt lat="45.8092" lon="5.45836">
        <ele>272</ele>
        <time>2021-06-06T08:11:40.445Z</time>
      </trkpt>
      <trkpt lat="45.8092" lon="5.45841">
        <ele>272</ele>
        <time>2021-06-06T08:11:41.445Z</time>
      </trkpt>
      <trkpt lat="45.80921" lon="5.45846">
        <ele>273</ele>
        <time>2021-06-06T08:11:42.445Z</time>
      </trkpt>
      <trkpt lat="45.80923" lon="5.45851">
        <ele>273</ele>
        <time>2021-06-06T08:11:43.445Z</time>
      </trkpt>
      <trkpt lat="45.80923" lon="5.45856">
        <ele>273</ele>
        <time>2021-06-06T08:11:44.445Z</time>
      </trkpt>
      <trkpt lat="45.80924" lon="5.45861">
        <ele>274</ele>
        <time>2021-06-06T08:11:45.445Z</time>
      </trkpt>
      <trkpt lat="45.80926" lon="5.45866">
        <ele>275</ele>
        <time>2021-06-06T08:11:46.445Z</time>
      </trkpt>
      <trkpt lat="45.80928" lon="5.45871">
        <ele>276</ele>
        <time>2021-06-06T08:11:47.444Z</time>
      </trkpt>
      <trkpt lat="45.80929" lon="5.45876">
        <ele>276</ele>
        <time>2021-06-06T08:11:48.445Z</time>
      </trkpt>
      <trkpt lat="45.80931" lon="5.45881">
        <ele>277</ele>
        <time>2021-06-06T08:11:49.445Z</time>
      </trkpt>
      <trkpt lat="45.80933" lon="5.45886">
        <ele>277</ele>
        <time>2021-06-06T08:11:50.444Z</time>
      </trkpt>
      <trkpt lat="45.80933" lon="5.45891">
        <ele>277</ele>
        <time>2021-06-06T08:11:51.444Z</time>
      </trkpt>
      <trkpt lat="45.80934" lon="5.45896">
        <ele>277</ele>
        <time>2021-06-06T08:11:52.445Z</time>
      </trkpt>
      <trkpt lat="45.80936" lon="5.45901">
        <ele>277</ele>
        <time>2021-06-06T08:11:53.445Z</time>
      </trkpt>
      <trkpt lat="45.80937" lon="5.45906">
        <ele>278</ele>
        <time>2021-06-06T08:11:54.445Z</time>
      </trkpt>
      <trkpt lat="45.80938" lon="5.45911">
        <ele>278</ele>
        <time>2021-06-06T08:11:55.444Z</time>
      </trkpt>
      <trkpt lat="45.80939" lon="5.45916">
        <ele>278</ele>
        <time>2021-06-06T08:11:56.445Z</time>
      </trkpt>
      <trkpt lat="45.80941" lon="5.45921">
        <ele>278</ele>
        <time>2021-06-06T08:11:57.445Z</time>
      </trkpt>
      <trkpt lat="45.80942" lon="5.45926">
        <ele>279</ele>
        <time>2021-06-06T08:11:58.444Z</time>
      </trkpt>
      <trkpt lat="45.80942" lon="5.45931">
        <ele>279</ele>
        <time>2021-06-06T08:11:59.445Z</time>
      </trkpt>
      <trkpt lat="45.80944" lon="5.45935">
        <ele>279</ele>
        <time>2021-06-06T08:12:00.445Z</time>
      </trkpt>
      <trkpt lat="45.80946" lon="5.45939">
        <ele>279</ele>
        <time>2021-06-06T08:12:01.445Z</time>
      </trkpt>
      <trkpt lat="45.80948" lon="5.45944">
        <ele>279</ele>
        <time>2021-06-06T08:12:02.444Z</time>
      </trkpt>
      <trkpt lat="45.8095" lon="5.45949">
        <ele>280</ele>
        <time>2021-06-06T08:12:03.444Z</time>
      </trkpt>
      <trkpt lat="45.80952" lon="5.45952">
        <ele>280</ele>
        <time>2021-06-06T08:12:04.445Z</time>
      </trkpt>
      <trkpt lat="45.80954" lon="5.45956">
        <ele>280</ele>
        <time>2021-06-06T08:12:05.445Z</time>
      </trkpt>
      <trkpt lat="45.80956" lon="5.4596">
        <ele>280</ele>
        <time>2021-06-06T08:12:06.445Z</time>
      </trkpt>
      <trkpt lat="45.80957" lon="5.45965">
        <ele>281</ele>
        <time>2021-06-06T08:12:07.445Z</time>
      </trkpt>
      <trkpt lat="45.80958" lon="5.45969">
        <ele>281</ele>
        <time>2021-06-06T08:12:08.445Z</time>
      </trkpt>
      <trkpt lat="45.8096" lon="5.45973">
        <ele>281</ele>
        <time>2021-06-06T08:12:09.444Z</time>
      </trkpt>
      <trkpt lat="45.80961" lon="5.45977">
        <ele>281</ele>
        <time>2021-06-06T08:12:10.444Z</time>
      </trkpt>
      <trkpt lat="45.80963" lon="5.45981">
        <ele>281</ele>
        <time>2021-06-06T08:12:11.445Z</time>
      </trkpt>
      <trkpt lat="45.80964" lon="5.45985">
        <ele>281</ele>
        <time>2021-06-06T08:12:12.444Z</time>
      </trkpt>
      <trkpt lat="45.80966" lon="5.45989">
        <ele>281</ele>
        <time>2021-06-06T08:12:13.445Z</time>
      </trkpt>
      <trkpt lat="45.80968" lon="5.45993">
        <ele>281</ele>
        <time>2021-06-06T08:12:14.444Z</time>
      </trkpt>
      <trkpt lat="45.80969" lon="5.45997">
        <ele>281</ele>
        <time>2021-06-06T08:12:15.445Z</time>
      </trkpt>
      <trkpt lat="45.80971" lon="5.46001">
        <ele>282</ele>
        <time>2021-06-06T08:12:16.445Z</time>
      </trkpt>
      <trkpt lat="45.80973" lon="5.46005">
        <ele>282</ele>
        <time>2021-06-06T08:12:17.444Z</time>
      </trkpt>
      <trkpt lat="45.80975" lon="5.46009">
        <ele>283</ele>
        <time>2021-06-06T08:12:18.445Z</time>
      </trkpt>
      <trkpt lat="45.80977" lon="5.46013">
        <ele>283</ele>
        <time>2021-06-06T08:12:19.445Z</time>
      </trkpt>
      <trkpt lat="45.80979" lon="5.46017">
        <ele>283</ele>
        <time>2021-06-06T08:12:20.445Z</time>
      </trkpt>
      <trkpt lat="45.80981" lon="5.46021">
        <ele>284</ele>
        <time>2021-06-06T08:12:21.445Z</time>
      </trkpt>
      <trkpt lat="45.80983" lon="5.46025">
        <ele>284</ele>
        <time>2021-06-06T08:12:22.445Z</time>
      </trkpt>
      <trkpt lat="45.80985" lon="5.46029">
        <ele>284</ele>
        <time>2021-06-06T08:12:23.444Z</time>
      </trkpt>
      <trkpt lat="45.80987" lon="5.46032">
        <ele>285</ele>
        <time>2021-06-06T08:12:24.445Z</time>
      </trkpt>
      <trkpt lat="45.80989" lon="5.46036">
        <ele>285</ele>
        <time>2021-06-06T08:12:25.444Z</time>
      </trkpt>
      <trkpt lat="45.80991" lon="5.4604">
        <ele>285</ele>
        <time>2021-06-06T08:12:26.445Z</time>
      </trkpt>
      <trkpt lat="45.80993" lon="5.46043">
        <ele>285</ele>
        <time>2021-06-06T08:12:27.445Z</time>
      </trkpt>
      <trkpt lat="45.80995" lon="5.46047">
        <ele>285</ele>
        <time>2021-06-06T08:12:28.445Z</time>
      </trkpt>
      <trkpt lat="45.80997" lon="5.46051">
        <ele>285</ele>
        <time>2021-06-06T08:12:29.445Z</time>
      </trkpt>
      <trkpt lat="45.80999" lon="5.46055">
        <ele>285</ele>
        <time>2021-06-06T08:12:30.445Z</time>
      </trkpt>
      <trkpt lat="45.81001" lon="5.46059">
        <ele>286</ele>
        <time>2021-06-06T08:12:31.445Z</time>
      </trkpt>
      <trkpt lat="45.81003" lon="5.46062">
        <ele>286</ele>
        <time>2021-06-06T08:12:32.445Z</time>
      </trkpt>
      <trkpt lat="45.81005" lon="5.46066">
        <ele>286</ele>
        <time>2021-06-06T08:12:33.444Z</time>
      </trkpt>
      <trkpt lat="45.81008" lon="5.46069">
        <ele>287</ele>
        <time>2021-06-06T08:12:34.445Z</time>
      </trkpt>
      <trkpt lat="45.81009" lon="5.46073">
        <ele>287</ele>
        <time>2021-06-06T08:12:35.444Z</time>
      </trkpt>
      <trkpt lat="45.81012" lon="5.46076">
        <ele>286</ele>
        <time>2021-06-06T08:12:36.445Z</time>
      </trkpt>
      <trkpt lat="45.81014" lon="5.4608">
        <ele>287</ele>
        <time>2021-06-06T08:12:37.445Z</time>
      </trkpt>
      <trkpt lat="45.81016" lon="5.46083">
        <ele>287</ele>
        <time>2021-06-06T08:12:38.445Z</time>
      </trkpt>
      <trkpt lat="45.81018" lon="5.46087">
        <ele>287</ele>
        <time>2021-06-06T08:12:39.445Z</time>
      </trkpt>
      <trkpt lat="45.8102" lon="5.46091">
        <ele>287</ele>
        <time>2021-06-06T08:12:40.445Z</time>
      </trkpt>
      <trkpt lat="45.81022" lon="5.46094">
        <ele>287</ele>
        <time>2021-06-06T08:12:41.444Z</time>
      </trkpt>
      <trkpt lat="45.81024" lon="5.46098">
        <ele>287</ele>
        <time>2021-06-06T08:12:42.444Z</time>
      </trkpt>
      <trkpt lat="45.81026" lon="5.46101">
        <ele>287</ele>
        <time>2021-06-06T08:12:43.445Z</time>
      </trkpt>
      <trkpt lat="45.81029" lon="5.46105">
        <ele>288</ele>
        <time>2021-06-06T08:12:44.445Z</time>
      </trkpt>
      <trkpt lat="45.8103" lon="5.46109">
        <ele>288</ele>
        <time>2021-06-06T08:12:45.445Z</time>
      </trkpt>
      <trkpt lat="45.81032" lon="5.46113">
        <ele>289</ele>
        <time>2021-06-06T08:12:46.444Z</time>
      </trkpt>
      <trkpt lat="45.81034" lon="5.46117">
        <ele>289</ele>
        <time>2021-06-06T08:12:47.445Z</time>
      </trkpt>
      <trkpt lat="45.81036" lon="5.4612">
        <ele>289</ele>
        <time>2021-06-06T08:12:48.445Z</time>
      </trkpt>
      <trkpt lat="45.81038" lon="5.46124">
        <ele>290</ele>
        <time>2021-06-06T08:12:49.445Z</time>
      </trkpt>
      <trkpt lat="45.8104" lon="5.46128">
        <ele>290</ele>
        <time>2021-06-06T08:12:50.445Z</time>
      </trkpt>
      <trkpt lat="45.81042" lon="5.46132">
        <ele>291</ele>
        <time>2021-06-06T08:12:51.445Z</time>
      </trkpt>
      <trkpt lat="45.81044" lon="5.46136">
        <ele>291</ele>
        <time>2021-06-06T08:12:52.445Z</time>
      </trkpt>
      <trkpt lat="45.81046" lon="5.46139">
        <ele>291</ele>
        <time>2021-06-06T08:12:53.445Z</time>
      </trkpt>
      <trkpt lat="45.81048" lon="5.46143">
        <ele>291</ele>
        <time>2021-06-06T08:12:54.445Z</time>
      </trkpt>
      <trkpt lat="45.8105" lon="5.46147">
        <ele>291</ele>
        <time>2021-06-06T08:12:55.445Z</time>
      </trkpt>
      <trkpt lat="45.81052" lon="5.46151">
        <ele>291</ele>
        <time>2021-06-06T08:12:56.445Z</time>
      </trkpt>
      <trkpt lat="45.81053" lon="5.46156">
        <ele>291</ele>
        <time>2021-06-06T08:12:57.445Z</time>
      </trkpt>
      <trkpt lat="45.81055" lon="5.4616">
        <ele>291</ele>
        <time>2021-06-06T08:12:58.445Z</time>
      </trkpt>
      <trkpt lat="45.81057" lon="5.46164">
        <ele>292</ele>
        <time>2021-06-06T08:12:59.444Z</time>
      </trkpt>
      <trkpt lat="45.81059" lon="5.46168">
        <ele>292</ele>
        <time>2021-06-06T08:13:00.445Z</time>
      </trkpt>
      <trkpt lat="45.81061" lon="5.46173">
        <ele>293</ele>
        <time>2021-06-06T08:13:01.445Z</time>
      </trkpt>
      <trkpt lat="45.81062" lon="5.46177">
        <ele>293</ele>
        <time>2021-06-06T08:13:02.445Z</time>
      </trkpt>
      <trkpt lat="45.81064" lon="5.46182">
        <ele>294</ele>
        <time>2021-06-06T08:13:03.445Z</time>
      </trkpt>
      <trkpt lat="45.81065" lon="5.46187">
        <ele>294</ele>
        <time>2021-06-06T08:13:04.445Z</time>
      </trkpt>
      <trkpt lat="45.81066" lon="5.46191">
        <ele>294</ele>
        <time>2021-06-06T08:13:05.445Z</time>
      </trkpt>
      <trkpt lat="45.81067" lon="5.46196">
        <ele>294</ele>
        <time>2021-06-06T08:13:06.445Z</time>
      </trkpt>
      <trkpt lat="45.81068" lon="5.462">
        <ele>294</ele>
        <time>2021-06-06T08:13:07.445Z</time>
      </trkpt>
      <trkpt lat="45.8107" lon="5.46204">
        <ele>295</ele>
        <time>2021-06-06T08:13:08.445Z</time>
      </trkpt>
      <trkpt lat="45.81071" lon="5.46208">
        <ele>295</ele>
        <time>2021-06-06T08:13:09.445Z</time>
      </trkpt>
      <trkpt lat="45.81073" lon="5.46212">
        <ele>295</ele>
        <time>2021-06-06T08:13:10.445Z</time>
      </trkpt>
      <trkpt lat="45.81075" lon="5.46216">
        <ele>295</ele>
        <time>2021-06-06T08:13:11.445Z</time>
      </trkpt>
      <trkpt lat="45.81077" lon="5.4622">
        <ele>296</ele>
        <time>2021-06-06T08:13:12.445Z</time>
      </trkpt>
      <trkpt lat="45.81079" lon="5.46224">
        <ele>297</ele>
        <time>2021-06-06T08:13:13.445Z</time>
      </trkpt>
      <trkpt lat="45.81082" lon="5.46228">
        <ele>297</ele>
        <time>2021-06-06T08:13:14.445Z</time>
      </trkpt>
      <trkpt lat="45.81084" lon="5.46231">
        <ele>297</ele>
        <time>2021-06-06T08:13:15.445Z</time>
      </trkpt>
      <trkpt lat="45.81086" lon="5.46234">
        <ele>298</ele>
        <time>2021-06-06T08:13:16.444Z</time>
      </trkpt>
      <trkpt lat="45.81089" lon="5.46238">
        <ele>298</ele>
        <time>2021-06-06T08:13:17.445Z</time>
      </trkpt>
      <trkpt lat="45.81091" lon="5.46242">
        <ele>298</ele>
        <time>2021-06-06T08:13:18.444Z</time>
      </trkpt>
      <trkpt lat="45.81093" lon="5.46245">
        <ele>299</ele>
        <time>2021-06-06T08:13:19.445Z</time>
      </trkpt>
      <trkpt lat="45.81095" lon="5.46249">
        <ele>299</ele>
        <time>2021-06-06T08:13:20.445Z</time>
      </trkpt>
      <trkpt lat="45.81097" lon="5.46253">
        <ele>299</ele>
        <time>2021-06-06T08:13:21.444Z</time>
      </trkpt>
      <trkpt lat="45.81099" lon="5.46256">
        <ele>299</ele>
        <time>2021-06-06T08:13:22.445Z</time>
      </trkpt>
      <trkpt lat="45.81102" lon="5.46259">
        <ele>300</ele>
        <time>2021-06-06T08:13:23.444Z</time>
      </trkpt>
      <trkpt lat="45.81104" lon="5.46262">
        <ele>300</ele>
        <time>2021-06-06T08:13:24.445Z</time>
      </trkpt>
      <trkpt lat="45.81107" lon="5.46265">
        <ele>300</ele>
        <time>2021-06-06T08:13:25.445Z</time>
      </trkpt>
      <trkpt lat="45.81109" lon="5.46267">
        <ele>300</ele>
        <time>2021-06-06T08:13:26.445Z</time>
      </trkpt>
      <trkpt lat="45.81112" lon="5.4627">
        <ele>300</ele>
        <time>2021-06-06T08:13:27.445Z</time>
      </trkpt>
      <trkpt lat="45.81115" lon="5.46273">
        <ele>300</ele>
        <time>2021-06-06T08:13:28.445Z</time>
      </trkpt>
      <trkpt lat="45.81118" lon="5.46276">
        <ele>301</ele>
        <time>2021-06-06T08:13:29.445Z</time>
      </trkpt>
      <trkpt lat="45.81121" lon="5.46279">
        <ele>301</ele>
        <time>2021-06-06T08:13:30.445Z</time>
      </trkpt>
      <trkpt lat="45.81123" lon="5.46282">
        <ele>302</ele>
        <time>2021-06-06T08:13:31.445Z</time>
      </trkpt>
      <trkpt lat="45.81126" lon="5.46284">
        <ele>302</ele>
        <time>2021-06-06T08:13:32.444Z</time>
      </trkpt>
      <trkpt lat="45.81129" lon="5.46287">
        <ele>302</ele>
        <time>2021-06-06T08:13:33.444Z</time>
      </trkpt>
      <trkpt lat="45.81132" lon="5.4629">
        <ele>303</ele>
        <time>2021-06-06T08:13:34.444Z</time>
      </trkpt>
      <trkpt lat="45.81135" lon="5.46292">
        <ele>304</ele>
        <time>2021-06-06T08:13:35.445Z</time>
      </trkpt>
      <trkpt lat="45.81137" lon="5.46295">
        <ele>304</ele>
        <time>2021-06-06T08:13:36.445Z</time>
      </trkpt>
      <trkpt lat="45.8114" lon="5.46298">
        <ele>305</ele>
        <time>2021-06-06T08:13:37.445Z</time>
      </trkpt>
      <trkpt lat="45.81143" lon="5.463">
        <ele>305</ele>
        <time>2021-06-06T08:13:38.445Z</time>
      </trkpt>
      <trkpt lat="45.81146" lon="5.46303">
        <ele>305</ele>
        <time>2021-06-06T08:13:39.445Z</time>
      </trkpt>
      <trkpt lat="45.81149" lon="5.46306">
        <ele>305</ele>
        <time>2021-06-06T08:13:40.444Z</time>
      </trkpt>
      <trkpt lat="45.81152" lon="5.46308">
        <ele>305</ele>
        <time>2021-06-06T08:13:41.444Z</time>
      </trkpt>
      <trkpt lat="45.81155" lon="5.4631">
        <ele>305</ele>
        <time>2021-06-06T08:13:42.445Z</time>
      </trkpt>
      <trkpt lat="45.81158" lon="5.46313">
        <ele>305</ele>
        <time>2021-06-06T08:13:43.444Z</time>
      </trkpt>
      <trkpt lat="45.81161" lon="5.46315">
        <ele>305</ele>
        <time>2021-06-06T08:13:44.444Z</time>
      </trkpt>
      <trkpt lat="45.81164" lon="5.46317">
        <ele>306</ele>
        <time>2021-06-06T08:13:45.445Z</time>
      </trkpt>
      <trkpt lat="45.81167" lon="5.46319">
        <ele>306</ele>
        <time>2021-06-06T08:13:46.445Z</time>
      </trkpt>
      <trkpt lat="45.81171" lon="5.46321">
        <ele>306</ele>
        <time>2021-06-06T08:13:47.444Z</time>
      </trkpt>
      <trkpt lat="45.81174" lon="5.46322">
        <ele>306</ele>
        <time>2021-06-06T08:13:48.445Z</time>
      </trkpt>
      <trkpt lat="45.81177" lon="5.46324">
        <ele>306</ele>
        <time>2021-06-06T08:13:49.444Z</time>
      </trkpt>
      <trkpt lat="45.8118" lon="5.46326">
        <ele>306</ele>
        <time>2021-06-06T08:13:50.445Z</time>
      </trkpt>
      <trkpt lat="45.81184" lon="5.46328">
        <ele>306</ele>
        <time>2021-06-06T08:13:51.445Z</time>
      </trkpt>
      <trkpt lat="45.81187" lon="5.46331">
        <ele>306</ele>
        <time>2021-06-06T08:13:52.445Z</time>
      </trkpt>
      <trkpt lat="45.8119" lon="5.46333">
        <ele>307</ele>
        <time>2021-06-06T08:13:53.445Z</time>
      </trkpt>
      <trkpt lat="45.81193" lon="5.46335">
        <ele>307</ele>
        <time>2021-06-06T08:13:54.445Z</time>
      </trkpt>
      <trkpt lat="45.81196" lon="5.46338">
        <ele>307</ele>
        <time>2021-06-06T08:13:55.444Z</time>
      </trkpt>
      <trkpt lat="45.81199" lon="5.46341">
        <ele>307</ele>
        <time>2021-06-06T08:13:56.445Z</time>
      </trkpt>
      <trkpt lat="45.81202" lon="5.46343">
        <ele>307</ele>
        <time>2021-06-06T08:13:57.444Z</time>
      </trkpt>
      <trkpt lat="45.81205" lon="5.46346">
        <ele>308</ele>
        <time>2021-06-06T08:13:58.445Z</time>
      </trkpt>
      <trkpt lat="45.81208" lon="5.46349">
        <ele>308</ele>
        <time>2021-06-06T08:13:59.444Z</time>
      </trkpt>
      <trkpt lat="45.8121" lon="5.46352">
        <ele>309</ele>
        <time>2021-06-06T08:14:00.444Z</time>
      </trkpt>
      <trkpt lat="45.81213" lon="5.46355">
        <ele>309</ele>
        <time>2021-06-06T08:14:01.445Z</time>
      </trkpt>
      <trkpt lat="45.81216" lon="5.46359">
        <ele>309</ele>
        <time>2021-06-06T08:14:02.445Z</time>
      </trkpt>
      <trkpt lat="45.81219" lon="5.46362">
        <ele>309</ele>
        <time>2021-06-06T08:14:03.444Z</time>
      </trkpt>
      <trkpt lat="45.81222" lon="5.46365">
        <ele>310</ele>
        <time>2021-06-06T08:14:04.445Z</time>
      </trkpt>
      <trkpt lat="45.81224" lon="5.46368">
        <ele>310</ele>
        <time>2021-06-06T08:14:05.445Z</time>
      </trkpt>
      <trkpt lat="45.81227" lon="5.46371">
        <ele>310</ele>
        <time>2021-06-06T08:14:06.444Z</time>
      </trkpt>
      <trkpt lat="45.81229" lon="5.46375">
        <ele>311</ele>
        <time>2021-06-06T08:14:07.445Z</time>
      </trkpt>
      <trkpt lat="45.81232" lon="5.46378">
        <ele>311</ele>
        <time>2021-06-06T08:14:08.445Z</time>
      </trkpt>
      <trkpt lat="45.81234" lon="5.46381">
        <ele>312</ele>
        <time>2021-06-06T08:14:09.445Z</time>
      </trkpt>
      <trkpt lat="45.81237" lon="5.46385">
        <ele>312</ele>
        <time>2021-06-06T08:14:10.445Z</time>
      </trkpt>
      <trkpt lat="45.81239" lon="5.46389">
        <ele>313</ele>
        <time>2021-06-06T08:14:11.444Z</time>
      </trkpt>
      <trkpt lat="45.81242" lon="5.46392">
        <ele>313</ele>
        <time>2021-06-06T08:14:12.445Z</time>
      </trkpt>
      <trkpt lat="45.81245" lon="5.46395">
        <ele>314</ele>
        <time>2021-06-06T08:14:13.445Z</time>
      </trkpt>
      <trkpt lat="45.81248" lon="5.46399">
        <ele>314</ele>
        <time>2021-06-06T08:14:14.445Z</time>
      </trkpt>
      <trkpt lat="45.81251" lon="5.46401">
        <ele>315</ele>
        <time>2021-06-06T08:14:15.445Z</time>
      </trkpt>
      <trkpt lat="45.81253" lon="5.46405">
        <ele>316</ele>
        <time>2021-06-06T08:14:16.445Z</time>
      </trkpt>
      <trkpt lat="45.81256" lon="5.46408">
        <ele>316</ele>
        <time>2021-06-06T08:14:17.445Z</time>
      </trkpt>
      <trkpt lat="45.81259" lon="5.46411">
        <ele>316</ele>
        <time>2021-06-06T08:14:18.445Z</time>
      </trkpt>
      <trkpt lat="45.81262" lon="5.46414">
        <ele>317</ele>
        <time>2021-06-06T08:14:19.444Z</time>
      </trkpt>
      <trkpt lat="45.81264" lon="5.46418">
        <ele>317</ele>
        <time>2021-06-06T08:14:20.445Z</time>
      </trkpt>
      <trkpt lat="45.81266" lon="5.46422">
        <ele>317</ele>
        <time>2021-06-06T08:14:21.445Z</time>
      </trkpt>
      <trkpt lat="45.81268" lon="5.46426">
        <ele>317</ele>
        <time>2021-06-06T08:14:22.444Z</time>
      </trkpt>
      <trkpt lat="45.8127" lon="5.4643">
        <ele>317</ele>
        <time>2021-06-06T08:14:23.445Z</time>
      </trkpt>
      <trkpt lat="45.81272" lon="5.46435">
        <ele>317</ele>
        <time>2021-06-06T08:14:24.444Z</time>
      </trkpt>
      <trkpt lat="45.81274" lon="5.46439">
        <ele>317</ele>
        <time>2021-06-06T08:14:25.445Z</time>
      </trkpt>
      <trkpt lat="45.81275" lon="5.46443">
        <ele>317</ele>
        <time>2021-06-06T08:14:26.445Z</time>
      </trkpt>
      <trkpt lat="45.81277" lon="5.46448">
        <ele>317</ele>
        <time>2021-06-06T08:14:27.444Z</time>
      </trkpt>
      <trkpt lat="45.81278" lon="5.46453">
        <ele>317</ele>
        <time>2021-06-06T08:14:28.444Z</time>
      </trkpt>
      <trkpt lat="45.81279" lon="5.46457">
        <ele>317</ele>
        <time>2021-06-06T08:14:29.444Z</time>
      </trkpt>
      <trkpt lat="45.8128" lon="5.46462">
        <ele>317</ele>
        <time>2021-06-06T08:14:30.445Z</time>
      </trkpt>
      <trkpt lat="45.81281" lon="5.46466">
        <ele>317</ele>
        <time>2021-06-06T08:14:31.445Z</time>
      </trkpt>
      <trkpt lat="45.81282" lon="5.46471">
        <ele>317</ele>
        <time>2021-06-06T08:14:32.445Z</time>
      </trkpt>
      <trkpt lat="45.81283" lon="5.46475">
        <ele>317</ele>
        <time>2021-06-06T08:14:33.445Z</time>
      </trkpt>
      <trkpt lat="45.81285" lon="5.4648">
        <ele>317</ele>
        <time>2021-06-06T08:14:34.445Z</time>
      </trkpt>
      <trkpt lat="45.81287" lon="5.46484">
        <ele>317</ele>
        <time>2021-06-06T08:14:35.445Z</time>
      </trkpt>
      <trkpt lat="45.81289" lon="5.46488">
        <ele>317</ele>
        <time>2021-06-06T08:14:36.444Z</time>
      </trkpt>
      <trkpt lat="45.8129" lon="5.46492">
        <ele>317</ele>
        <time>2021-06-06T08:14:37.444Z</time>
      </trkpt>
      <trkpt lat="45.81292" lon="5.46497">
        <ele>318</ele>
        <time>2021-06-06T08:14:38.445Z</time>
      </trkpt>
      <trkpt lat="45.81295" lon="5.46499">
        <ele>318</ele>
        <time>2021-06-06T08:14:39.445Z</time>
      </trkpt>
      <trkpt lat="45.81298" lon="5.46501">
        <ele>318</ele>
        <time>2021-06-06T08:14:40.445Z</time>
      </trkpt>
      <trkpt lat="45.81302" lon="5.46502">
        <ele>319</ele>
        <time>2021-06-06T08:14:41.445Z</time>
      </trkpt>
      <trkpt lat="45.81306" lon="5.46503">
        <ele>319</ele>
        <time>2021-06-06T08:14:42.444Z</time>
      </trkpt>
      <trkpt lat="45.81309" lon="5.46505">
        <ele>320</ele>
        <time>2021-06-06T08:14:43.445Z</time>
      </trkpt>
      <trkpt lat="45.81313" lon="5.46508">
        <ele>321</ele>
        <time>2021-06-06T08:14:44.445Z</time>
      </trkpt>
      <trkpt lat="45.81316" lon="5.46509">
        <ele>322</ele>
        <time>2021-06-06T08:14:45.445Z</time>
      </trkpt>
      <trkpt lat="45.81319" lon="5.46511">
        <ele>323</ele>
        <time>2021-06-06T08:14:46.444Z</time>
      </trkpt>
      <trkpt lat="45.81321" lon="5.46513">
        <ele>324</ele>
        <time>2021-06-06T08:14:47.445Z</time>
      </trkpt>
      <trkpt lat="45.81324" lon="5.46515">
        <ele>325</ele>
        <time>2021-06-06T08:14:48.445Z</time>
      </trkpt>
      <trkpt lat="45.81327" lon="5.46517">
        <ele>326</ele>
        <time>2021-06-06T08:14:49.445Z</time>
      </trkpt>
      <trkpt lat="45.81331" lon="5.46519">
        <ele>327</ele>
        <time>2021-06-06T08:14:50.445Z</time>
      </trkpt>
      <trkpt lat="45.81334" lon="5.4652">
        <ele>328</ele>
        <time>2021-06-06T08:14:51.444Z</time>
      </trkpt>
      <trkpt lat="45.81338" lon="5.46521">
        <ele>328</ele>
        <time>2021-06-06T08:14:52.445Z</time>
      </trkpt>
      <trkpt lat="45.81341" lon="5.46523">
        <ele>329</ele>
        <time>2021-06-06T08:14:53.445Z</time>
      </trkpt>
      <trkpt lat="45.81345" lon="5.46524">
        <ele>330</ele>
        <time>2021-06-06T08:14:54.445Z</time>
      </trkpt>
      <trkpt lat="45.81348" lon="5.46525">
        <ele>330</ele>
        <time>2021-06-06T08:14:55.445Z</time>
      </trkpt>
      <trkpt lat="45.81351" lon="5.46527">
        <ele>331</ele>
        <time>2021-06-06T08:14:56.444Z</time>
      </trkpt>
      <trkpt lat="45.81354" lon="5.46529">
        <ele>331</ele>
        <time>2021-06-06T08:14:57.445Z</time>
      </trkpt>
      <trkpt lat="45.81358" lon="5.46531">
        <ele>331</ele>
        <time>2021-06-06T08:14:58.445Z</time>
      </trkpt>
      <trkpt lat="45.81361" lon="5.46533">
        <ele>332</ele>
        <time>2021-06-06T08:14:59.445Z</time>
      </trkpt>
      <trkpt lat="45.81364" lon="5.46535">
        <ele>332</ele>
        <time>2021-06-06T08:15:00.445Z</time>
      </trkpt>
      <trkpt lat="45.81368" lon="5.46537">
        <ele>333</ele>
        <time>2021-06-06T08:15:01.445Z</time>
      </trkpt>
      <trkpt lat="45.81371" lon="5.4654">
        <ele>333</ele>
        <time>2021-06-06T08:15:02.445Z</time>
      </trkpt>
      <trkpt lat="45.81374" lon="5.46542">
        <ele>333</ele>
        <time>2021-06-06T08:15:03.445Z</time>
      </trkpt>
      <trkpt lat="45.81377" lon="5.46545">
        <ele>334</ele>
        <time>2021-06-06T08:15:04.444Z</time>
      </trkpt>
      <trkpt lat="45.8138" lon="5.46548">
        <ele>334</ele>
        <time>2021-06-06T08:15:05.444Z</time>
      </trkpt>
      <trkpt lat="45.81382" lon="5.46552">
        <ele>334</ele>
        <time>2021-06-06T08:15:06.444Z</time>
      </trkpt>
      <trkpt lat="45.81385" lon="5.46556">
        <ele>335</ele>
        <time>2021-06-06T08:15:07.445Z</time>
      </trkpt>
      <trkpt lat="45.81387" lon="5.46559">
        <ele>335</ele>
        <time>2021-06-06T08:15:08.445Z</time>
      </trkpt>
      <trkpt lat="45.81389" lon="5.46563">
        <ele>335</ele>
        <time>2021-06-06T08:15:09.445Z</time>
      </trkpt>
      <trkpt lat="45.81392" lon="5.46567">
        <ele>335</ele>
        <time>2021-06-06T08:15:10.444Z</time>
      </trkpt>
      <trkpt lat="45.81394" lon="5.46571">
        <ele>335</ele>
        <time>2021-06-06T08:15:11.445Z</time>
      </trkpt>
      <trkpt lat="45.81396" lon="5.46574">
        <ele>335</ele>
        <time>2021-06-06T08:15:12.444Z</time>
      </trkpt>
      <trkpt lat="45.81399" lon="5.46577">
        <ele>335</ele>
        <time>2021-06-06T08:15:13.445Z</time>
      </trkpt>
      <trkpt lat="45.81401" lon="5.4658">
        <ele>335</ele>
        <time>2021-06-06T08:15:14.445Z</time>
      </trkpt>
      <trkpt lat="45.81404" lon="5.46583">
        <ele>335</ele>
        <time>2021-06-06T08:15:15.445Z</time>
      </trkpt>
      <trkpt lat="45.81406" lon="5.46587">
        <ele>335</ele>
        <time>2021-06-06T08:15:16.444Z</time>
      </trkpt>
      <trkpt lat="45.81409" lon="5.4659">
        <ele>335</ele>
        <time>2021-06-06T08:15:17.445Z</time>
      </trkpt>
      <trkpt lat="45.81411" lon="5.46594">
        <ele>336</ele>
        <time>2021-06-06T08:15:18.445Z</time>
      </trkpt>
      <trkpt lat="45.81414" lon="5.46597">
        <ele>336</ele>
        <time>2021-06-06T08:15:19.444Z</time>
      </trkpt>
      <trkpt lat="45.81416" lon="5.466">
        <ele>336</ele>
        <time>2021-06-06T08:15:20.445Z</time>
      </trkpt>
      <trkpt lat="45.81419" lon="5.46603">
        <ele>336</ele>
        <time>2021-06-06T08:15:21.445Z</time>
      </trkpt>
      <trkpt lat="45.81422" lon="5.46606">
        <ele>337</ele>
        <time>2021-06-06T08:15:22.445Z</time>
      </trkpt>
      <trkpt lat="45.81425" lon="5.46608">
        <ele>337</ele>
        <time>2021-06-06T08:15:23.444Z</time>
      </trkpt>
      <trkpt lat="45.81428" lon="5.46611">
        <ele>338</ele>
        <time>2021-06-06T08:15:24.445Z</time>
      </trkpt>
      <trkpt lat="45.81431" lon="5.46613">
        <ele>339</ele>
        <time>2021-06-06T08:15:25.445Z</time>
      </trkpt>
      <trkpt lat="45.81434" lon="5.46615">
        <ele>340</ele>
        <time>2021-06-06T08:15:26.445Z</time>
      </trkpt>
      <trkpt lat="45.81437" lon="5.46617">
        <ele>340</ele>
        <time>2021-06-06T08:15:27.445Z</time>
      </trkpt>
      <trkpt lat="45.8144" lon="5.46619">
        <ele>341</ele>
        <time>2021-06-06T08:15:28.444Z</time>
      </trkpt>
      <trkpt lat="45.81443" lon="5.46621">
        <ele>342</ele>
        <time>2021-06-06T08:15:29.444Z</time>
      </trkpt>
      <trkpt lat="45.81447" lon="5.46622">
        <ele>343</ele>
        <time>2021-06-06T08:15:30.445Z</time>
      </trkpt>
      <trkpt lat="45.8145" lon="5.46623">
        <ele>344</ele>
        <time>2021-06-06T08:15:31.445Z</time>
      </trkpt>
      <trkpt lat="45.81453" lon="5.46625">
        <ele>344</ele>
        <time>2021-06-06T08:15:32.445Z</time>
      </trkpt>
      <trkpt lat="45.81457" lon="5.46626">
        <ele>345</ele>
        <time>2021-06-06T08:15:33.444Z</time>
      </trkpt>
      <trkpt lat="45.8146" lon="5.46627">
        <ele>345</ele>
        <time>2021-06-06T08:15:34.445Z</time>
      </trkpt>
      <trkpt lat="45.81463" lon="5.46627">
        <ele>345</ele>
        <time>2021-06-06T08:15:35.445Z</time>
      </trkpt>
      <trkpt lat="45.81467" lon="5.46628">
        <ele>346</ele>
        <time>2021-06-06T08:15:36.445Z</time>
      </trkpt>
      <trkpt lat="45.81472" lon="5.46628">
        <ele>346</ele>
        <time>2021-06-06T08:15:37.445Z</time>
      </trkpt>
      <trkpt lat="45.81474" lon="5.46628">
        <ele>346</ele>
        <time>2021-06-06T08:15:38.444Z</time>
      </trkpt>
      <trkpt lat="45.81478" lon="5.46628">
        <ele>347</ele>
        <time>2021-06-06T08:15:39.445Z</time>
      </trkpt>
      <trkpt lat="45.81481" lon="5.46627">
        <ele>347</ele>
        <time>2021-06-06T08:15:40.445Z</time>
      </trkpt>
      <trkpt lat="45.81484" lon="5.46626">
        <ele>347</ele>
        <time>2021-06-06T08:15:41.445Z</time>
      </trkpt>
      <trkpt lat="45.81487" lon="5.46626">
        <ele>347</ele>
        <time>2021-06-06T08:15:42.445Z</time>
      </trkpt>
      <trkpt lat="45.81491" lon="5.46625">
        <ele>347</ele>
        <time>2021-06-06T08:15:43.444Z</time>
      </trkpt>
      <trkpt lat="45.81494" lon="5.46625">
        <ele>348</ele>
        <time>2021-06-06T08:15:44.445Z</time>
      </trkpt>
      <trkpt lat="45.81498" lon="5.46624">
        <ele>348</ele>
        <time>2021-06-06T08:15:45.445Z</time>
      </trkpt>
      <trkpt lat="45.81501" lon="5.46624">
        <ele>348</ele>
        <time>2021-06-06T08:15:46.445Z</time>
      </trkpt>
      <trkpt lat="45.81504" lon="5.46623">
        <ele>348</ele>
        <time>2021-06-06T08:15:47.445Z</time>
      </trkpt>
      <trkpt lat="45.81507" lon="5.46623">
        <ele>348</ele>
        <time>2021-06-06T08:15:48.444Z</time>
      </trkpt>
      <trkpt lat="45.81511" lon="5.46622">
        <ele>348</ele>
        <time>2021-06-06T08:15:49.445Z</time>
      </trkpt>
      <trkpt lat="45.81514" lon="5.46621">
        <ele>349</ele>
        <time>2021-06-06T08:15:50.444Z</time>
      </trkpt>
      <trkpt lat="45.81518" lon="5.46621">
        <ele>350</ele>
        <time>2021-06-06T08:15:51.444Z</time>
      </trkpt>
      <trkpt lat="45.8152" lon="5.46619">
        <ele>350</ele>
        <time>2021-06-06T08:15:52.445Z</time>
      </trkpt>
      <trkpt lat="45.81523" lon="5.46617">
        <ele>351</ele>
        <time>2021-06-06T08:15:53.445Z</time>
      </trkpt>
      <trkpt lat="45.81526" lon="5.46615">
        <ele>352</ele>
        <time>2021-06-06T08:15:54.445Z</time>
      </trkpt>
      <trkpt lat="45.81529" lon="5.46612">
        <ele>353</ele>
        <time>2021-06-06T08:15:55.445Z</time>
      </trkpt>
      <trkpt lat="45.81532" lon="5.46609">
        <ele>354</ele>
        <time>2021-06-06T08:15:56.445Z</time>
      </trkpt>
      <trkpt lat="45.81534" lon="5.46606">
        <ele>355</ele>
        <time>2021-06-06T08:15:57.444Z</time>
      </trkpt>
      <trkpt lat="45.81536" lon="5.46602">
        <ele>355</ele>
        <time>2021-06-06T08:15:58.445Z</time>
      </trkpt>
      <trkpt lat="45.81539" lon="5.46598">
        <ele>356</ele>
        <time>2021-06-06T08:15:59.445Z</time>
      </trkpt>
      <trkpt lat="45.81541" lon="5.46594">
        <ele>356</ele>
        <time>2021-06-06T08:16:00.444Z</time>
      </trkpt>
      <trkpt lat="45.81543" lon="5.4659">
        <ele>357</ele>
        <time>2021-06-06T08:16:01.445Z</time>
      </trkpt>
      <trkpt lat="45.81545" lon="5.46586">
        <ele>357</ele>
        <time>2021-06-06T08:16:02.445Z</time>
      </trkpt>
      <trkpt lat="45.81547" lon="5.46582">
        <ele>358</ele>
        <time>2021-06-06T08:16:03.445Z</time>
      </trkpt>
      <trkpt lat="45.8155" lon="5.46578">
        <ele>358</ele>
        <time>2021-06-06T08:16:04.445Z</time>
      </trkpt>
      <trkpt lat="45.81552" lon="5.46574">
        <ele>358</ele>
        <time>2021-06-06T08:16:05.445Z</time>
      </trkpt>
      <trkpt lat="45.81555" lon="5.4657">
        <ele>359</ele>
        <time>2021-06-06T08:16:06.444Z</time>
      </trkpt>
      <trkpt lat="45.81557" lon="5.46567">
        <ele>359</ele>
        <time>2021-06-06T08:16:07.445Z</time>
      </trkpt>
      <trkpt lat="45.8156" lon="5.46563">
        <ele>359</ele>
        <time>2021-06-06T08:16:08.444Z</time>
      </trkpt>
      <trkpt lat="45.81562" lon="5.46559">
        <ele>358</ele>
        <time>2021-06-06T08:16:09.445Z</time>
      </trkpt>
      <trkpt lat="45.81566" lon="5.46556">
        <ele>358</ele>
        <time>2021-06-06T08:16:10.444Z</time>
      </trkpt>
      <trkpt lat="45.81568" lon="5.46553">
        <ele>358</ele>
        <time>2021-06-06T08:16:11.444Z</time>
      </trkpt>
      <trkpt lat="45.81571" lon="5.46551">
        <ele>358</ele>
        <time>2021-06-06T08:16:12.445Z</time>
      </trkpt>
      <trkpt lat="45.81574" lon="5.46549">
        <ele>358</ele>
        <time>2021-06-06T08:16:13.445Z</time>
      </trkpt>
      <trkpt lat="45.81577" lon="5.46546">
        <ele>358</ele>
        <time>2021-06-06T08:16:14.445Z</time>
      </trkpt>
      <trkpt lat="45.8158" lon="5.46544">
        <ele>357</ele>
        <time>2021-06-06T08:16:15.444Z</time>
      </trkpt>
      <trkpt lat="45.81584" lon="5.46542">
        <ele>357</ele>
        <time>2021-06-06T08:16:16.444Z</time>
      </trkpt>
      <trkpt lat="45.81587" lon="5.4654">
        <ele>357</ele>
        <time>2021-06-06T08:16:17.445Z</time>
      </trkpt>
      <trkpt lat="45.8159" lon="5.46538">
        <ele>357</ele>
        <time>2021-06-06T08:16:18.444Z</time>
      </trkpt>
      <trkpt lat="45.81593" lon="5.46536">
        <ele>357</ele>
        <time>2021-06-06T08:16:19.445Z</time>
      </trkpt>
      <trkpt lat="45.81596" lon="5.46535">
        <ele>357</ele>
        <time>2021-06-06T08:16:20.445Z</time>
      </trkpt>
      <trkpt lat="45.81598" lon="5.46533">
        <ele>357</ele>
        <time>2021-06-06T08:16:21.445Z</time>
      </trkpt>
      <trkpt lat="45.81601" lon="5.46532">
        <ele>356</ele>
        <time>2021-06-06T08:16:22.445Z</time>
      </trkpt>
      <trkpt lat="45.81605" lon="5.4653">
        <ele>356</ele>
        <time>2021-06-06T08:16:23.444Z</time>
      </trkpt>
      <trkpt lat="45.81607" lon="5.46528">
        <ele>356</ele>
        <time>2021-06-06T08:16:24.445Z</time>
      </trkpt>
      <trkpt lat="45.8161" lon="5.46527">
        <ele>355</ele>
        <time>2021-06-06T08:16:25.444Z</time>
      </trkpt>
      <trkpt lat="45.81613" lon="5.46525">
        <ele>355</ele>
        <time>2021-06-06T08:16:26.444Z</time>
      </trkpt>
      <trkpt lat="45.81616" lon="5.46524">
        <ele>355</ele>
        <time>2021-06-06T08:16:27.444Z</time>
      </trkpt>
      <trkpt lat="45.8162" lon="5.46521">
        <ele>355</ele>
        <time>2021-06-06T08:16:28.445Z</time>
      </trkpt>
      <trkpt lat="45.81623" lon="5.46519">
        <ele>355</ele>
        <time>2021-06-06T08:16:29.445Z</time>
      </trkpt>
      <trkpt lat="45.81626" lon="5.46517">
        <ele>355</ele>
        <time>2021-06-06T08:16:30.445Z</time>
      </trkpt>
      <trkpt lat="45.81629" lon="5.46515">
        <ele>355</ele>
        <time>2021-06-06T08:16:31.444Z</time>
      </trkpt>
      <trkpt lat="45.81633" lon="5.46513">
        <ele>355</ele>
        <time>2021-06-06T08:16:32.444Z</time>
      </trkpt>
      <trkpt lat="45.81636" lon="5.46511">
        <ele>356</ele>
        <time>2021-06-06T08:16:33.445Z</time>
      </trkpt>
      <trkpt lat="45.8164" lon="5.46509">
        <ele>356</ele>
        <time>2021-06-06T08:16:34.445Z</time>
      </trkpt>
      <trkpt lat="45.81644" lon="5.46507">
        <ele>357</ele>
        <time>2021-06-06T08:16:35.445Z</time>
      </trkpt>
      <trkpt lat="45.81648" lon="5.46506">
        <ele>357</ele>
        <time>2021-06-06T08:16:36.444Z</time>
      </trkpt>
      <trkpt lat="45.81652" lon="5.46506">
        <ele>357</ele>
        <time>2021-06-06T08:16:37.445Z</time>
      </trkpt>
      <trkpt lat="45.81656" lon="5.46506">
        <ele>357</ele>
        <time>2021-06-06T08:16:38.445Z</time>
      </trkpt>
      <trkpt lat="45.8166" lon="5.46506">
        <ele>357</ele>
        <time>2021-06-06T08:16:39.445Z</time>
      </trkpt>
      <trkpt lat="45.81664" lon="5.46507">
        <ele>357</ele>
        <time>2021-06-06T08:16:40.445Z</time>
      </trkpt>
      <trkpt lat="45.81667" lon="5.46508">
        <ele>357</ele>
        <time>2021-06-06T08:16:41.445Z</time>
      </trkpt>
      <trkpt lat="45.81671" lon="5.46509">
        <ele>357</ele>
        <time>2021-06-06T08:16:42.444Z</time>
      </trkpt>
      <trkpt lat="45.81675" lon="5.46512">
        <ele>356</ele>
        <time>2021-06-06T08:16:43.445Z</time>
      </trkpt>
      <trkpt lat="45.81678" lon="5.46514">
        <ele>356</ele>
        <time>2021-06-06T08:16:44.445Z</time>
      </trkpt>
      <trkpt lat="45.81682" lon="5.46517">
        <ele>356</ele>
        <time>2021-06-06T08:16:45.445Z</time>
      </trkpt>
      <trkpt lat="45.81685" lon="5.4652">
        <ele>356</ele>
        <time>2021-06-06T08:16:46.445Z</time>
      </trkpt>
      <trkpt lat="45.81688" lon="5.46522">
        <ele>356</ele>
        <time>2021-06-06T08:16:47.445Z</time>
      </trkpt>
      <trkpt lat="45.81692" lon="5.46525">
        <ele>357</ele>
        <time>2021-06-06T08:16:48.445Z</time>
      </trkpt>
      <trkpt lat="45.81695" lon="5.46528">
        <ele>357</ele>
        <time>2021-06-06T08:16:49.444Z</time>
      </trkpt>
      <trkpt lat="45.81698" lon="5.46531">
        <ele>357</ele>
        <time>2021-06-06T08:16:50.445Z</time>
      </trkpt>
      <trkpt lat="45.81701" lon="5.46534">
        <ele>357</ele>
        <time>2021-06-06T08:16:51.445Z</time>
      </trkpt>
      <trkpt lat="45.81705" lon="5.46536">
        <ele>358</ele>
        <time>2021-06-06T08:16:52.445Z</time>
      </trkpt>
      <trkpt lat="45.81708" lon="5.46539">
        <ele>358</ele>
        <time>2021-06-06T08:16:53.445Z</time>
      </trkpt>
      <trkpt lat="45.81711" lon="5.46542">
        <ele>358</ele>
        <time>2021-06-06T08:16:54.445Z</time>
      </trkpt>
      <trkpt lat="45.81715" lon="5.46544">
        <ele>358</ele>
        <time>2021-06-06T08:16:55.445Z</time>
      </trkpt>
      <trkpt lat="45.81718" lon="5.46546">
        <ele>357</ele>
        <time>2021-06-06T08:16:56.445Z</time>
      </trkpt>
      <trkpt lat="45.81721" lon="5.46548">
        <ele>357</ele>
        <time>2021-06-06T08:16:57.445Z</time>
      </trkpt>
      <trkpt lat="45.81724" lon="5.46551">
        <ele>357</ele>
        <time>2021-06-06T08:16:58.444Z</time>
      </trkpt>
      <trkpt lat="45.81728" lon="5.46553">
        <ele>357</ele>
        <time>2021-06-06T08:16:59.445Z</time>
      </trkpt>
      <trkpt lat="45.81731" lon="5.46555">
        <ele>357</ele>
        <time>2021-06-06T08:17:00.445Z</time>
      </trkpt>
      <trkpt lat="45.81734" lon="5.46557">
        <ele>356</ele>
        <time>2021-06-06T08:17:01.445Z</time>
      </trkpt>
      <trkpt lat="45.81737" lon="5.46559">
        <ele>356</ele>
        <time>2021-06-06T08:17:02.445Z</time>
      </trkpt>
      <trkpt lat="45.8174" lon="5.46562">
        <ele>356</ele>
        <time>2021-06-06T08:17:03.445Z</time>
      </trkpt>
      <trkpt lat="45.81743" lon="5.46564">
        <ele>356</ele>
        <time>2021-06-06T08:17:04.444Z</time>
      </trkpt>
      <trkpt lat="45.81746" lon="5.46566">
        <ele>356</ele>
        <time>2021-06-06T08:17:05.445Z</time>
      </trkpt>
      <trkpt lat="45.81749" lon="5.46568">
        <ele>356</ele>
        <time>2021-06-06T08:17:06.445Z</time>
      </trkpt>
      <trkpt lat="45.81752" lon="5.46571">
        <ele>357</ele>
        <time>2021-06-06T08:17:07.444Z</time>
      </trkpt>
      <trkpt lat="45.81755" lon="5.46573">
        <ele>357</ele>
        <time>2021-06-06T08:17:08.444Z</time>
      </trkpt>
      <trkpt lat="45.81758" lon="5.46575">
        <ele>358</ele>
        <time>2021-06-06T08:17:09.445Z</time>
      </trkpt>
      <trkpt lat="45.81762" lon="5.46577">
        <ele>358</ele>
        <time>2021-06-06T08:17:10.444Z</time>
      </trkpt>
      <trkpt lat="45.81765" lon="5.46579">
        <ele>358</ele>
        <time>2021-06-06T08:17:11.445Z</time>
      </trkpt>
      <trkpt lat="45.81768" lon="5.46582">
        <ele>359</ele>
        <time>2021-06-06T08:17:12.444Z</time>
      </trkpt>
      <trkpt lat="45.81772" lon="5.46584">
        <ele>359</ele>
        <time>2021-06-06T08:17:13.445Z</time>
      </trkpt>
      <trkpt lat="45.81775" lon="5.46586">
        <ele>359</ele>
        <time>2021-06-06T08:17:14.445Z</time>
      </trkpt>
      <trkpt lat="45.81778" lon="5.46588">
        <ele>359</ele>
        <time>2021-06-06T08:17:15.444Z</time>
      </trkpt>
      <trkpt lat="45.81781" lon="5.4659">
        <ele>359</ele>
        <time>2021-06-06T08:17:16.444Z</time>
      </trkpt>
      <trkpt lat="45.81784" lon="5.46592">
        <ele>359</ele>
        <time>2021-06-06T08:17:17.444Z</time>
      </trkpt>
      <trkpt lat="45.81787" lon="5.46594">
        <ele>359</ele>
        <time>2021-06-06T08:17:18.445Z</time>
      </trkpt>
      <trkpt lat="45.8179" lon="5.46596">
        <ele>360</ele>
        <time>2021-06-06T08:17:19.445Z</time>
      </trkpt>
      <trkpt lat="45.81793" lon="5.46598">
        <ele>360</ele>
        <time>2021-06-06T08:17:20.445Z</time>
      </trkpt>
      <trkpt lat="45.81796" lon="5.46599">
        <ele>360</ele>
        <time>2021-06-06T08:17:21.444Z</time>
      </trkpt>
      <trkpt lat="45.818" lon="5.46601">
        <ele>360</ele>
        <time>2021-06-06T08:17:22.445Z</time>
      </trkpt>
      <trkpt lat="45.81803" lon="5.46602">
        <ele>360</ele>
        <time>2021-06-06T08:17:23.445Z</time>
      </trkpt>
      <trkpt lat="45.81806" lon="5.46602">
        <ele>360</ele>
        <time>2021-06-06T08:17:24.445Z</time>
      </trkpt>
      <trkpt lat="45.8181" lon="5.46602">
        <ele>361</ele>
        <time>2021-06-06T08:17:25.444Z</time>
      </trkpt>
      <trkpt lat="45.81813" lon="5.46602">
        <ele>361</ele>
        <time>2021-06-06T08:17:26.445Z</time>
      </trkpt>
      <trkpt lat="45.81817" lon="5.46601">
        <ele>361</ele>
        <time>2021-06-06T08:17:27.445Z</time>
      </trkpt>
      <trkpt lat="45.8182" lon="5.46599">
        <ele>362</ele>
        <time>2021-06-06T08:17:28.444Z</time>
      </trkpt>
      <trkpt lat="45.81824" lon="5.46598">
        <ele>362</ele>
        <time>2021-06-06T08:17:29.445Z</time>
      </trkpt>
      <trkpt lat="45.81827" lon="5.46596">
        <ele>363</ele>
        <time>2021-06-06T08:17:30.445Z</time>
      </trkpt>
      <trkpt lat="45.81831" lon="5.46594">
        <ele>363</ele>
        <time>2021-06-06T08:17:31.445Z</time>
      </trkpt>
      <trkpt lat="45.81835" lon="5.46591">
        <ele>364</ele>
        <time>2021-06-06T08:17:32.445Z</time>
      </trkpt>
      <trkpt lat="45.81838" lon="5.46589">
        <ele>364</ele>
        <time>2021-06-06T08:17:33.445Z</time>
      </trkpt>
      <trkpt lat="45.81842" lon="5.46587">
        <ele>365</ele>
        <time>2021-06-06T08:17:34.445Z</time>
      </trkpt>
      <trkpt lat="45.81845" lon="5.46585">
        <ele>365</ele>
        <time>2021-06-06T08:17:35.445Z</time>
      </trkpt>
      <trkpt lat="45.81848" lon="5.46583">
        <ele>365</ele>
        <time>2021-06-06T08:17:36.445Z</time>
      </trkpt>
      <trkpt lat="45.81852" lon="5.46581">
        <ele>365</ele>
        <time>2021-06-06T08:17:37.445Z</time>
      </trkpt>
      <trkpt lat="45.81855" lon="5.46579">
        <ele>365</ele>
        <time>2021-06-06T08:17:38.445Z</time>
      </trkpt>
      <trkpt lat="45.81859" lon="5.46578">
        <ele>366</ele>
        <time>2021-06-06T08:17:39.445Z</time>
      </trkpt>
      <trkpt lat="45.81862" lon="5.46576">
        <ele>366</ele>
        <time>2021-06-06T08:17:40.444Z</time>
      </trkpt>
      <trkpt lat="45.81866" lon="5.46575">
        <ele>366</ele>
        <time>2021-06-06T08:17:41.445Z</time>
      </trkpt>
      <trkpt lat="45.81869" lon="5.46574">
        <ele>366</ele>
        <time>2021-06-06T08:17:42.444Z</time>
      </trkpt>
      <trkpt lat="45.81873" lon="5.46572">
        <ele>366</ele>
        <time>2021-06-06T08:17:43.445Z</time>
      </trkpt>
      <trkpt lat="45.81876" lon="5.46571">
        <ele>366</ele>
        <time>2021-06-06T08:17:44.445Z</time>
      </trkpt>
      <trkpt lat="45.8188" lon="5.4657">
        <ele>366</ele>
        <time>2021-06-06T08:17:45.445Z</time>
      </trkpt>
      <trkpt lat="45.81884" lon="5.4657">
        <ele>367</ele>
        <time>2021-06-06T08:17:46.445Z</time>
      </trkpt>
      <trkpt lat="45.81887" lon="5.46569">
        <ele>367</ele>
        <time>2021-06-06T08:17:47.445Z</time>
      </trkpt>
      <trkpt lat="45.81891" lon="5.46568">
        <ele>367</ele>
        <time>2021-06-06T08:17:48.444Z</time>
      </trkpt>
      <trkpt lat="45.81894" lon="5.46568">
        <ele>367</ele>
        <time>2021-06-06T08:17:49.445Z</time>
      </trkpt>
      <trkpt lat="45.81898" lon="5.46567">
        <ele>368</ele>
        <time>2021-06-06T08:17:50.445Z</time>
      </trkpt>
      <trkpt lat="45.81902" lon="5.46567">
        <ele>368</ele>
        <time>2021-06-06T08:17:51.445Z</time>
      </trkpt>
      <trkpt lat="45.81906" lon="5.46566">
        <ele>369</ele>
        <time>2021-06-06T08:17:52.445Z</time>
      </trkpt>
      <trkpt lat="45.81909" lon="5.46566">
        <ele>369</ele>
        <time>2021-06-06T08:17:53.445Z</time>
      </trkpt>
      <trkpt lat="45.81913" lon="5.46565">
        <ele>369</ele>
        <time>2021-06-06T08:17:54.445Z</time>
      </trkpt>
      <trkpt lat="45.81916" lon="5.46565">
        <ele>369</ele>
        <time>2021-06-06T08:17:55.445Z</time>
      </trkpt>
      <trkpt lat="45.8192" lon="5.46565">
        <ele>370</ele>
        <time>2021-06-06T08:17:56.444Z</time>
      </trkpt>
      <trkpt lat="45.81923" lon="5.46565">
        <ele>370</ele>
        <time>2021-06-06T08:17:57.445Z</time>
      </trkpt>
      <trkpt lat="45.81927" lon="5.46564">
        <ele>370</ele>
        <time>2021-06-06T08:17:58.445Z</time>
      </trkpt>
      <trkpt lat="45.8193" lon="5.46564">
        <ele>370</ele>
        <time>2021-06-06T08:17:59.445Z</time>
      </trkpt>
      <trkpt lat="45.81933" lon="5.46564">
        <ele>370</ele>
        <time>2021-06-06T08:18:00.445Z</time>
      </trkpt>
      <trkpt lat="45.81937" lon="5.46564">
        <ele>370</ele>
        <time>2021-06-06T08:18:01.445Z</time>
      </trkpt>
      <trkpt lat="45.8194" lon="5.46564">
        <ele>370</ele>
        <time>2021-06-06T08:18:02.445Z</time>
      </trkpt>
      <trkpt lat="45.81944" lon="5.46564">
        <ele>371</ele>
        <time>2021-06-06T08:18:03.445Z</time>
      </trkpt>
      <trkpt lat="45.81948" lon="5.46564">
        <ele>371</ele>
        <time>2021-06-06T08:18:04.445Z</time>
      </trkpt>
      <trkpt lat="45.81951" lon="5.46565">
        <ele>371</ele>
        <time>2021-06-06T08:18:05.445Z</time>
      </trkpt>
      <trkpt lat="45.81955" lon="5.46566">
        <ele>372</ele>
        <time>2021-06-06T08:18:06.445Z</time>
      </trkpt>
      <trkpt lat="45.81958" lon="5.46567">
        <ele>372</ele>
        <time>2021-06-06T08:18:07.445Z</time>
      </trkpt>
      <trkpt lat="45.81961" lon="5.46568">
        <ele>372</ele>
        <time>2021-06-06T08:18:08.445Z</time>
      </trkpt>
      <trkpt lat="45.81965" lon="5.46569">
        <ele>372</ele>
        <time>2021-06-06T08:18:09.444Z</time>
      </trkpt>
      <trkpt lat="45.81968" lon="5.4657">
        <ele>373</ele>
        <time>2021-06-06T08:18:10.444Z</time>
      </trkpt>
      <trkpt lat="45.81972" lon="5.46571">
        <ele>373</ele>
        <time>2021-06-06T08:18:11.445Z</time>
      </trkpt>
      <trkpt lat="45.81975" lon="5.46572">
        <ele>374</ele>
        <time>2021-06-06T08:18:12.444Z</time>
      </trkpt>
      <trkpt lat="45.81979" lon="5.46572">
        <ele>374</ele>
        <time>2021-06-06T08:18:13.445Z</time>
      </trkpt>
      <trkpt lat="45.81982" lon="5.46573">
        <ele>375</ele>
        <time>2021-06-06T08:18:14.445Z</time>
      </trkpt>
      <trkpt lat="45.81986" lon="5.46573">
        <ele>376</ele>
        <time>2021-06-06T08:18:15.445Z</time>
      </trkpt>
      <trkpt lat="45.8199" lon="5.46573">
        <ele>376</ele>
        <time>2021-06-06T08:18:16.445Z</time>
      </trkpt>
      <trkpt lat="45.81993" lon="5.46572">
        <ele>377</ele>
        <time>2021-06-06T08:18:17.444Z</time>
      </trkpt>
      <trkpt lat="45.81997" lon="5.46572">
        <ele>377</ele>
        <time>2021-06-06T08:18:18.445Z</time>
      </trkpt>
      <trkpt lat="45.82001" lon="5.46571">
        <ele>378</ele>
        <time>2021-06-06T08:18:19.445Z</time>
      </trkpt>
      <trkpt lat="45.82004" lon="5.46571">
        <ele>378</ele>
        <time>2021-06-06T08:18:20.445Z</time>
      </trkpt>
      <trkpt lat="45.82008" lon="5.4657">
        <ele>378</ele>
        <time>2021-06-06T08:18:21.445Z</time>
      </trkpt>
      <trkpt lat="45.82011" lon="5.46569">
        <ele>378</ele>
        <time>2021-06-06T08:18:22.444Z</time>
      </trkpt>
      <trkpt lat="45.82015" lon="5.46568">
        <ele>379</ele>
        <time>2021-06-06T08:18:23.445Z</time>
      </trkpt>
      <trkpt lat="45.82019" lon="5.46567">
        <ele>379</ele>
        <time>2021-06-06T08:18:24.444Z</time>
      </trkpt>
      <trkpt lat="45.82022" lon="5.46566">
        <ele>380</ele>
        <time>2021-06-06T08:18:25.445Z</time>
      </trkpt>
      <trkpt lat="45.82026" lon="5.46566">
        <ele>380</ele>
        <time>2021-06-06T08:18:26.445Z</time>
      </trkpt>
      <trkpt lat="45.8203" lon="5.46565">
        <ele>380</ele>
        <time>2021-06-06T08:18:27.444Z</time>
      </trkpt>
      <trkpt lat="45.82033" lon="5.46565">
        <ele>380</ele>
        <time>2021-06-06T08:18:28.444Z</time>
      </trkpt>
      <trkpt lat="45.82037" lon="5.46564">
        <ele>381</ele>
        <time>2021-06-06T08:18:29.444Z</time>
      </trkpt>
      <trkpt lat="45.8204" lon="5.46564">
        <ele>381</ele>
        <time>2021-06-06T08:18:30.445Z</time>
      </trkpt>
      <trkpt lat="45.82044" lon="5.46564">
        <ele>381</ele>
        <time>2021-06-06T08:18:31.444Z</time>
      </trkpt>
      <trkpt lat="45.82047" lon="5.46564">
        <ele>382</ele>
        <time>2021-06-06T08:18:32.445Z</time>
      </trkpt>
      <trkpt lat="45.82051" lon="5.46564">
        <ele>382</ele>
        <time>2021-06-06T08:18:33.445Z</time>
      </trkpt>
      <trkpt lat="45.82054" lon="5.46564">
        <ele>383</ele>
        <time>2021-06-06T08:18:34.444Z</time>
      </trkpt>
      <trkpt lat="45.82057" lon="5.46564">
        <ele>383</ele>
        <time>2021-06-06T08:18:35.445Z</time>
      </trkpt>
      <trkpt lat="45.82061" lon="5.46564">
        <ele>384</ele>
        <time>2021-06-06T08:18:36.445Z</time>
      </trkpt>
      <trkpt lat="45.82065" lon="5.46566">
        <ele>385</ele>
        <time>2021-06-06T08:18:37.444Z</time>
      </trkpt>
      <trkpt lat="45.82068" lon="5.46567">
        <ele>385</ele>
        <time>2021-06-06T08:18:38.445Z</time>
      </trkpt>
      <trkpt lat="45.82071" lon="5.46569">
        <ele>386</ele>
        <time>2021-06-06T08:18:39.445Z</time>
      </trkpt>
      <trkpt lat="45.82075" lon="5.4657">
        <ele>387</ele>
        <time>2021-06-06T08:18:40.445Z</time>
      </trkpt>
      <trkpt lat="45.82078" lon="5.46572">
        <ele>388</ele>
        <time>2021-06-06T08:18:41.445Z</time>
      </trkpt>
      <trkpt lat="45.82082" lon="5.46574">
        <ele>389</ele>
        <time>2021-06-06T08:18:42.444Z</time>
      </trkpt>
      <trkpt lat="45.82086" lon="5.46575">
        <ele>390</ele>
        <time>2021-06-06T08:18:43.444Z</time>
      </trkpt>
      <trkpt lat="45.82089" lon="5.46577">
        <ele>391</ele>
        <time>2021-06-06T08:18:44.445Z</time>
      </trkpt>
      <trkpt lat="45.82093" lon="5.46579">
        <ele>392</ele>
        <time>2021-06-06T08:18:45.445Z</time>
      </trkpt>
      <trkpt lat="45.82096" lon="5.46581">
        <ele>393</ele>
        <time>2021-06-06T08:18:46.444Z</time>
      </trkpt>
      <trkpt lat="45.82099" lon="5.46583">
        <ele>393</ele>
        <time>2021-06-06T08:18:47.445Z</time>
      </trkpt>
      <trkpt lat="45.82102" lon="5.46584">
        <ele>394</ele>
        <time>2021-06-06T08:18:48.445Z</time>
      </trkpt>
      <trkpt lat="45.82106" lon="5.46586">
        <ele>394</ele>
        <time>2021-06-06T08:18:49.445Z</time>
      </trkpt>
      <trkpt lat="45.82109" lon="5.46587">
        <ele>395</ele>
        <time>2021-06-06T08:18:50.444Z</time>
      </trkpt>
      <trkpt lat="45.82112" lon="5.46589">
        <ele>395</ele>
        <time>2021-06-06T08:18:51.445Z</time>
      </trkpt>
      <trkpt lat="45.82115" lon="5.46591">
        <ele>395</ele>
        <time>2021-06-06T08:18:52.445Z</time>
      </trkpt>
      <trkpt lat="45.82119" lon="5.46593">
        <ele>395</ele>
        <time>2021-06-06T08:18:53.444Z</time>
      </trkpt>
      <trkpt lat="45.82122" lon="5.46594">
        <ele>395</ele>
        <time>2021-06-06T08:18:54.444Z</time>
      </trkpt>
      <trkpt lat="45.82126" lon="5.46596">
        <ele>395</ele>
        <time>2021-06-06T08:18:55.445Z</time>
      </trkpt>
      <trkpt lat="45.82129" lon="5.46598">
        <ele>395</ele>
        <time>2021-06-06T08:18:56.445Z</time>
      </trkpt>
      <trkpt lat="45.82132" lon="5.466">
        <ele>395</ele>
        <time>2021-06-06T08:18:57.445Z</time>
      </trkpt>
      <trkpt lat="45.82135" lon="5.46602">
        <ele>395</ele>
        <time>2021-06-06T08:18:58.445Z</time>
      </trkpt>
      <trkpt lat="45.82138" lon="5.46604">
        <ele>394</ele>
        <time>2021-06-06T08:18:59.445Z</time>
      </trkpt>
      <trkpt lat="45.82141" lon="5.46606">
        <ele>394</ele>
        <time>2021-06-06T08:19:00.444Z</time>
      </trkpt>
      <trkpt lat="45.82145" lon="5.46608">
        <ele>393</ele>
        <time>2021-06-06T08:19:01.445Z</time>
      </trkpt>
      <trkpt lat="45.82148" lon="5.4661">
        <ele>392</ele>
        <time>2021-06-06T08:19:02.445Z</time>
      </trkpt>
      <trkpt lat="45.82151" lon="5.46612">
        <ele>392</ele>
        <time>2021-06-06T08:19:03.445Z</time>
      </trkpt>
      <trkpt lat="45.82154" lon="5.46614">
        <ele>391</ele>
        <time>2021-06-06T08:19:04.445Z</time>
      </trkpt>
      <trkpt lat="45.82157" lon="5.46615">
        <ele>391</ele>
        <time>2021-06-06T08:19:05.444Z</time>
      </trkpt>
      <trkpt lat="45.8216" lon="5.46617">
        <ele>391</ele>
        <time>2021-06-06T08:19:06.445Z</time>
      </trkpt>
      <trkpt lat="45.82163" lon="5.46618">
        <ele>391</ele>
        <time>2021-06-06T08:19:07.445Z</time>
      </trkpt>
      <trkpt lat="45.82167" lon="5.4662">
        <ele>391</ele>
        <time>2021-06-06T08:19:08.445Z</time>
      </trkpt>
      <trkpt lat="45.8217" lon="5.46621">
        <ele>392</ele>
        <time>2021-06-06T08:19:09.444Z</time>
      </trkpt>
      <trkpt lat="45.82173" lon="5.46623">
        <ele>392</ele>
        <time>2021-06-06T08:19:10.445Z</time>
      </trkpt>
      <trkpt lat="45.82176" lon="5.46624">
        <ele>392</ele>
        <time>2021-06-06T08:19:11.445Z</time>
      </trkpt>
      <trkpt lat="45.8218" lon="5.46625">
        <ele>393</ele>
        <time>2021-06-06T08:19:12.445Z</time>
      </trkpt>
      <trkpt lat="45.82183" lon="5.46626">
        <ele>394</ele>
        <time>2021-06-06T08:19:13.444Z</time>
      </trkpt>
      <trkpt lat="45.82186" lon="5.46627">
        <ele>394</ele>
        <time>2021-06-06T08:19:14.445Z</time>
      </trkpt>
      <trkpt lat="45.8219" lon="5.46628">
        <ele>395</ele>
        <time>2021-06-06T08:19:15.445Z</time>
      </trkpt>
      <trkpt lat="45.82193" lon="5.46629">
        <ele>395</ele>
        <time>2021-06-06T08:19:16.444Z</time>
      </trkpt>
      <trkpt lat="45.82197" lon="5.46631">
        <ele>396</ele>
        <time>2021-06-06T08:19:17.445Z</time>
      </trkpt>
      <trkpt lat="45.822" lon="5.46632">
        <ele>397</ele>
        <time>2021-06-06T08:19:18.445Z</time>
      </trkpt>
      <trkpt lat="45.82204" lon="5.46633">
        <ele>397</ele>
        <time>2021-06-06T08:19:19.445Z</time>
      </trkpt>
      <trkpt lat="45.82207" lon="5.46634">
        <ele>397</ele>
        <time>2021-06-06T08:19:20.445Z</time>
      </trkpt>
      <trkpt lat="45.8221" lon="5.46635">
        <ele>398</ele>
        <time>2021-06-06T08:19:21.445Z</time>
      </trkpt>
      <trkpt lat="45.82213" lon="5.46636">
        <ele>398</ele>
        <time>2021-06-06T08:19:22.445Z</time>
      </trkpt>
      <trkpt lat="45.82217" lon="5.46637">
        <ele>398</ele>
        <time>2021-06-06T08:19:23.445Z</time>
      </trkpt>
      <trkpt lat="45.82219" lon="5.46638">
        <ele>397</ele>
        <time>2021-06-06T08:19:24.445Z</time>
      </trkpt>
      <trkpt lat="45.82222" lon="5.46638">
        <ele>397</ele>
        <time>2021-06-06T08:19:25.444Z</time>
      </trkpt>
      <trkpt lat="45.82225" lon="5.46639">
        <ele>397</ele>
        <time>2021-06-06T08:19:26.445Z</time>
      </trkpt>
      <trkpt lat="45.82229" lon="5.46639">
        <ele>396</ele>
        <time>2021-06-06T08:19:27.445Z</time>
      </trkpt>
      <trkpt lat="45.82232" lon="5.4664">
        <ele>397</ele>
        <time>2021-06-06T08:19:28.445Z</time>
      </trkpt>
      <trkpt lat="45.82235" lon="5.4664">
        <ele>396</ele>
        <time>2021-06-06T08:19:29.445Z</time>
      </trkpt>
      <trkpt lat="45.82238" lon="5.4664">
        <ele>396</ele>
        <time>2021-06-06T08:19:30.445Z</time>
      </trkpt>
      <trkpt lat="45.82242" lon="5.4664">
        <ele>396</ele>
        <time>2021-06-06T08:19:31.445Z</time>
      </trkpt>
      <trkpt lat="45.82245" lon="5.4664">
        <ele>396</ele>
        <time>2021-06-06T08:19:32.445Z</time>
      </trkpt>
      <trkpt lat="45.82249" lon="5.4664">
        <ele>397</ele>
        <time>2021-06-06T08:19:33.445Z</time>
      </trkpt>
      <trkpt lat="45.82252" lon="5.46641">
        <ele>398</ele>
        <time>2021-06-06T08:19:34.445Z</time>
      </trkpt>
      <trkpt lat="45.82256" lon="5.46642">
        <ele>398</ele>
        <time>2021-06-06T08:19:35.445Z</time>
      </trkpt>
      <trkpt lat="45.82259" lon="5.46644">
        <ele>399</ele>
        <time>2021-06-06T08:19:36.444Z</time>
      </trkpt>
      <trkpt lat="45.82262" lon="5.46647">
        <ele>398</ele>
        <time>2021-06-06T08:19:37.444Z</time>
      </trkpt>
      <trkpt lat="45.82264" lon="5.4665">
        <ele>398</ele>
        <time>2021-06-06T08:19:38.445Z</time>
      </trkpt>
      <trkpt lat="45.82267" lon="5.46654">
        <ele>399</ele>
        <time>2021-06-06T08:19:39.445Z</time>
      </trkpt>
      <trkpt lat="45.8227" lon="5.46658">
        <ele>399</ele>
        <time>2021-06-06T08:19:40.445Z</time>
      </trkpt>
      <trkpt lat="45.82273" lon="5.46662">
        <ele>399</ele>
        <time>2021-06-06T08:19:41.445Z</time>
      </trkpt>
      <trkpt lat="45.82275" lon="5.46666">
        <ele>399</ele>
        <time>2021-06-06T08:19:42.445Z</time>
      </trkpt>
      <trkpt lat="45.82278" lon="5.4667">
        <ele>399</ele>
        <time>2021-06-06T08:19:43.444Z</time>
      </trkpt>
      <trkpt lat="45.8228" lon="5.46674">
        <ele>399</ele>
        <time>2021-06-06T08:19:44.444Z</time>
      </trkpt>
      <trkpt lat="45.82282" lon="5.46678">
        <ele>398</ele>
        <time>2021-06-06T08:19:45.444Z</time>
      </trkpt>
      <trkpt lat="45.82285" lon="5.46682">
        <ele>398</ele>
        <time>2021-06-06T08:19:46.445Z</time>
      </trkpt>
      <trkpt lat="45.82287" lon="5.46686">
        <ele>399</ele>
        <time>2021-06-06T08:19:47.444Z</time>
      </trkpt>
      <trkpt lat="45.82289" lon="5.4669">
        <ele>399</ele>
        <time>2021-06-06T08:19:48.444Z</time>
      </trkpt>
      <trkpt lat="45.82292" lon="5.46694">
        <ele>400</ele>
        <time>2021-06-06T08:19:49.444Z</time>
      </trkpt>
      <trkpt lat="45.82294" lon="5.46699">
        <ele>400</ele>
        <time>2021-06-06T08:19:50.445Z</time>
      </trkpt>
      <trkpt lat="45.82295" lon="5.46703">
        <ele>400</ele>
        <time>2021-06-06T08:19:51.444Z</time>
      </trkpt>
      <trkpt lat="45.82298" lon="5.46707">
        <ele>401</ele>
        <time>2021-06-06T08:19:52.445Z</time>
      </trkpt>
      <trkpt lat="45.82299" lon="5.46711">
        <ele>401</ele>
        <time>2021-06-06T08:19:53.445Z</time>
      </trkpt>
      <trkpt lat="45.82302" lon="5.46715">
        <ele>401</ele>
        <time>2021-06-06T08:19:54.444Z</time>
      </trkpt>
      <trkpt lat="45.82304" lon="5.46719">
        <ele>401</ele>
        <time>2021-06-06T08:19:55.445Z</time>
      </trkpt>
      <trkpt lat="45.82306" lon="5.46723">
        <ele>401</ele>
        <time>2021-06-06T08:19:56.445Z</time>
      </trkpt>
      <trkpt lat="45.82308" lon="5.46727">
        <ele>401</ele>
        <time>2021-06-06T08:19:57.445Z</time>
      </trkpt>
      <trkpt lat="45.82311" lon="5.46731">
        <ele>402</ele>
        <time>2021-06-06T08:19:58.445Z</time>
      </trkpt>
      <trkpt lat="45.82313" lon="5.46735">
        <ele>402</ele>
        <time>2021-06-06T08:19:59.445Z</time>
      </trkpt>
      <trkpt lat="45.82315" lon="5.46738">
        <ele>402</ele>
        <time>2021-06-06T08:20:00.444Z</time>
      </trkpt>
      <trkpt lat="45.82318" lon="5.46741">
        <ele>402</ele>
        <time>2021-06-06T08:20:01.445Z</time>
      </trkpt>
      <trkpt lat="45.8232" lon="5.46745">
        <ele>402</ele>
        <time>2021-06-06T08:20:02.445Z</time>
      </trkpt>
      <trkpt lat="45.82323" lon="5.46748">
        <ele>403</ele>
        <time>2021-06-06T08:20:03.445Z</time>
      </trkpt>
      <trkpt lat="45.82325" lon="5.46751">
        <ele>403</ele>
        <time>2021-06-06T08:20:04.444Z</time>
      </trkpt>
      <trkpt lat="45.82328" lon="5.46754">
        <ele>403</ele>
        <time>2021-06-06T08:20:05.445Z</time>
      </trkpt>
      <trkpt lat="45.82331" lon="5.46757">
        <ele>403</ele>
        <time>2021-06-06T08:20:06.444Z</time>
      </trkpt>
      <trkpt lat="45.82334" lon="5.4676">
        <ele>403</ele>
        <time>2021-06-06T08:20:07.445Z</time>
      </trkpt>
      <trkpt lat="45.82337" lon="5.46763">
        <ele>404</ele>
        <time>2021-06-06T08:20:08.444Z</time>
      </trkpt>
      <trkpt lat="45.8234" lon="5.46765">
        <ele>404</ele>
        <time>2021-06-06T08:20:09.444Z</time>
      </trkpt>
      <trkpt lat="45.82343" lon="5.46768">
        <ele>405</ele>
        <time>2021-06-06T08:20:10.444Z</time>
      </trkpt>
      <trkpt lat="45.82346" lon="5.4677">
        <ele>405</ele>
        <time>2021-06-06T08:20:11.444Z</time>
      </trkpt>
      <trkpt lat="45.82349" lon="5.46772">
        <ele>406</ele>
        <time>2021-06-06T08:20:12.445Z</time>
      </trkpt>
      <trkpt lat="45.82352" lon="5.46774">
        <ele>406</ele>
        <time>2021-06-06T08:20:13.444Z</time>
      </trkpt>
      <trkpt lat="45.82355" lon="5.46775">
        <ele>406</ele>
        <time>2021-06-06T08:20:14.444Z</time>
      </trkpt>
      <trkpt lat="45.82358" lon="5.46776">
        <ele>406</ele>
        <time>2021-06-06T08:20:15.444Z</time>
      </trkpt>
      <trkpt lat="45.82361" lon="5.46778">
        <ele>407</ele>
        <time>2021-06-06T08:20:16.444Z</time>
      </trkpt>
      <trkpt lat="45.82365" lon="5.46779">
        <ele>407</ele>
        <time>2021-06-06T08:20:17.445Z</time>
      </trkpt>
      <trkpt lat="45.82368" lon="5.46779">
        <ele>407</ele>
        <time>2021-06-06T08:20:18.445Z</time>
      </trkpt>
      <trkpt lat="45.82372" lon="5.4678">
        <ele>408</ele>
        <time>2021-06-06T08:20:19.444Z</time>
      </trkpt>
      <trkpt lat="45.82375" lon="5.4678">
        <ele>408</ele>
        <time>2021-06-06T08:20:20.445Z</time>
      </trkpt>
      <trkpt lat="45.82379" lon="5.4678">
        <ele>408</ele>
        <time>2021-06-06T08:20:21.445Z</time>
      </trkpt>
      <trkpt lat="45.82383" lon="5.46779">
        <ele>408</ele>
        <time>2021-06-06T08:20:22.444Z</time>
      </trkpt>
      <trkpt lat="45.82386" lon="5.46778">
        <ele>408</ele>
        <time>2021-06-06T08:20:23.445Z</time>
      </trkpt>
      <trkpt lat="45.8239" lon="5.46778">
        <ele>408</ele>
        <time>2021-06-06T08:20:24.444Z</time>
      </trkpt>
      <trkpt lat="45.82393" lon="5.46778">
        <ele>409</ele>
        <time>2021-06-06T08:20:25.445Z</time>
      </trkpt>
      <trkpt lat="45.82397" lon="5.46777">
        <ele>409</ele>
        <time>2021-06-06T08:20:26.445Z</time>
      </trkpt>
      <trkpt lat="45.824" lon="5.46777">
        <ele>409</ele>
        <time>2021-06-06T08:20:27.444Z</time>
      </trkpt>
      <trkpt lat="45.82404" lon="5.46777">
        <ele>410</ele>
        <time>2021-06-06T08:20:28.445Z</time>
      </trkpt>
      <trkpt lat="45.82407" lon="5.46777">
        <ele>410</ele>
        <time>2021-06-06T08:20:29.445Z</time>
      </trkpt>
      <trkpt lat="45.82411" lon="5.46777">
        <ele>410</ele>
        <time>2021-06-06T08:20:30.445Z</time>
      </trkpt>
      <trkpt lat="45.82415" lon="5.46777">
        <ele>410</ele>
        <time>2021-06-06T08:20:31.445Z</time>
      </trkpt>
      <trkpt lat="45.82419" lon="5.46778">
        <ele>410</ele>
        <time>2021-06-06T08:20:32.445Z</time>
      </trkpt>
      <trkpt lat="45.82423" lon="5.46778">
        <ele>410</ele>
        <time>2021-06-06T08:20:33.445Z</time>
      </trkpt>
      <trkpt lat="45.82426" lon="5.46779">
        <ele>410</ele>
        <time>2021-06-06T08:20:34.445Z</time>
      </trkpt>
      <trkpt lat="45.8243" lon="5.4678">
        <ele>410</ele>
        <time>2021-06-06T08:20:35.445Z</time>
      </trkpt>
      <trkpt lat="45.82433" lon="5.46781">
        <ele>410</ele>
        <time>2021-06-06T08:20:36.445Z</time>
      </trkpt>
      <trkpt lat="45.82437" lon="5.46783">
        <ele>410</ele>
        <time>2021-06-06T08:20:37.445Z</time>
      </trkpt>
      <trkpt lat="45.8244" lon="5.46784">
        <ele>410</ele>
        <time>2021-06-06T08:20:38.445Z</time>
      </trkpt>
      <trkpt lat="45.82444" lon="5.46785">
        <ele>410</ele>
        <time>2021-06-06T08:20:39.445Z</time>
      </trkpt>
      <trkpt lat="45.82447" lon="5.46786">
        <ele>410</ele>
        <time>2021-06-06T08:20:40.445Z</time>
      </trkpt>
      <trkpt lat="45.82451" lon="5.46787">
        <ele>411</ele>
        <time>2021-06-06T08:20:41.445Z</time>
      </trkpt>
      <trkpt lat="45.82454" lon="5.46788">
        <ele>411</ele>
        <time>2021-06-06T08:20:42.445Z</time>
      </trkpt>
      <trkpt lat="45.82458" lon="5.4679">
        <ele>412</ele>
        <time>2021-06-06T08:20:43.445Z</time>
      </trkpt>
      <trkpt lat="45.82461" lon="5.46791">
        <ele>412</ele>
        <time>2021-06-06T08:20:44.445Z</time>
      </trkpt>
      <trkpt lat="45.82465" lon="5.46792">
        <ele>413</ele>
        <time>2021-06-06T08:20:45.445Z</time>
      </trkpt>
      <trkpt lat="45.82468" lon="5.46793">
        <ele>413</ele>
        <time>2021-06-06T08:20:46.444Z</time>
      </trkpt>
      <trkpt lat="45.82471" lon="5.46794">
        <ele>414</ele>
        <time>2021-06-06T08:20:47.445Z</time>
      </trkpt>
      <trkpt lat="45.82475" lon="5.46795">
        <ele>414</ele>
        <time>2021-06-06T08:20:48.445Z</time>
      </trkpt>
      <trkpt lat="45.82478" lon="5.46796">
        <ele>414</ele>
        <time>2021-06-06T08:20:49.445Z</time>
      </trkpt>
      <trkpt lat="45.82481" lon="5.46797">
        <ele>414</ele>
        <time>2021-06-06T08:20:50.445Z</time>
      </trkpt>
      <trkpt lat="45.82484" lon="5.46797">
        <ele>414</ele>
        <time>2021-06-06T08:20:51.444Z</time>
      </trkpt>
      <trkpt lat="45.82488" lon="5.46797">
        <ele>414</ele>
        <time>2021-06-06T08:20:52.445Z</time>
      </trkpt>
      <trkpt lat="45.82491" lon="5.46797">
        <ele>414</ele>
        <time>2021-06-06T08:20:53.445Z</time>
      </trkpt>
      <trkpt lat="45.82494" lon="5.46797">
        <ele>414</ele>
        <time>2021-06-06T08:20:54.445Z</time>
      </trkpt>
      <trkpt lat="45.82498" lon="5.46796">
        <ele>415</ele>
        <time>2021-06-06T08:20:55.444Z</time>
      </trkpt>
      <trkpt lat="45.82501" lon="5.46794">
        <ele>415</ele>
        <time>2021-06-06T08:20:56.445Z</time>
      </trkpt>
      <trkpt lat="45.82505" lon="5.46793">
        <ele>415</ele>
        <time>2021-06-06T08:20:57.445Z</time>
      </trkpt>
      <trkpt lat="45.82508" lon="5.46791">
        <ele>415</ele>
        <time>2021-06-06T08:20:58.444Z</time>
      </trkpt>
      <trkpt lat="45.82511" lon="5.4679">
        <ele>415</ele>
        <time>2021-06-06T08:20:59.445Z</time>
      </trkpt>
      <trkpt lat="45.82514" lon="5.46788">
        <ele>415</ele>
        <time>2021-06-06T08:21:00.445Z</time>
      </trkpt>
      <trkpt lat="45.82518" lon="5.46786">
        <ele>415</ele>
        <time>2021-06-06T08:21:01.444Z</time>
      </trkpt>
      <trkpt lat="45.82521" lon="5.46783">
        <ele>416</ele>
        <time>2021-06-06T08:21:02.444Z</time>
      </trkpt>
      <trkpt lat="45.82524" lon="5.46781">
        <ele>416</ele>
        <time>2021-06-06T08:21:03.444Z</time>
      </trkpt>
      <trkpt lat="45.82528" lon="5.46779">
        <ele>416</ele>
        <time>2021-06-06T08:21:04.445Z</time>
      </trkpt>
      <trkpt lat="45.82531" lon="5.46778">
        <ele>416</ele>
        <time>2021-06-06T08:21:05.444Z</time>
      </trkpt>
      <trkpt lat="45.82535" lon="5.46776">
        <ele>416</ele>
        <time>2021-06-06T08:21:06.444Z</time>
      </trkpt>
      <trkpt lat="45.82538" lon="5.46775">
        <ele>417</ele>
        <time>2021-06-06T08:21:07.445Z</time>
      </trkpt>
      <trkpt lat="45.82541" lon="5.46774">
        <ele>417</ele>
        <time>2021-06-06T08:21:08.445Z</time>
      </trkpt>
      <trkpt lat="45.82545" lon="5.46774">
        <ele>418</ele>
        <time>2021-06-06T08:21:09.445Z</time>
      </trkpt>
      <trkpt lat="45.82549" lon="5.46774">
        <ele>419</ele>
        <time>2021-06-06T08:21:10.445Z</time>
      </trkpt>
      <trkpt lat="45.82552" lon="5.46775">
        <ele>420</ele>
        <time>2021-06-06T08:21:11.445Z</time>
      </trkpt>
      <trkpt lat="45.82556" lon="5.46776">
        <ele>421</ele>
        <time>2021-06-06T08:21:12.445Z</time>
      </trkpt>
      <trkpt lat="45.82559" lon="5.46779">
        <ele>423</ele>
        <time>2021-06-06T08:21:13.444Z</time>
      </trkpt>
      <trkpt lat="45.82563" lon="5.46782">
        <ele>424</ele>
        <time>2021-06-06T08:21:14.445Z</time>
      </trkpt>
      <trkpt lat="45.82566" lon="5.46785">
        <ele>426</ele>
        <time>2021-06-06T08:21:15.445Z</time>
      </trkpt>
      <trkpt lat="45.82568" lon="5.46789">
        <ele>428</ele>
        <time>2021-06-06T08:21:16.445Z</time>
      </trkpt>
      <trkpt lat="45.82569" lon="5.46794">
        <ele>428</ele>
        <time>2021-06-06T08:21:17.444Z</time>
      </trkpt>
      <trkpt lat="45.82571" lon="5.46799">
        <ele>428</ele>
        <time>2021-06-06T08:21:18.445Z</time>
      </trkpt>
      <trkpt lat="45.82571" lon="5.46804">
        <ele>428</ele>
        <time>2021-06-06T08:21:19.445Z</time>
      </trkpt>
      <trkpt lat="45.82572" lon="5.46809">
        <ele>428</ele>
        <time>2021-06-06T08:21:20.445Z</time>
      </trkpt>
      <trkpt lat="45.82572" lon="5.46815">
        <ele>428</ele>
        <time>2021-06-06T08:21:21.444Z</time>
      </trkpt>
      <trkpt lat="45.8257" lon="5.46821">
        <ele>428</ele>
        <time>2021-06-06T08:21:22.445Z</time>
      </trkpt>
      <trkpt lat="45.8257" lon="5.46827">
        <ele>428</ele>
        <time>2021-06-06T08:21:23.445Z</time>
      </trkpt>
      <trkpt lat="45.82569" lon="5.46833">
        <ele>428</ele>
        <time>2021-06-06T08:21:24.444Z</time>
      </trkpt>
      <trkpt lat="45.82569" lon="5.46838">
        <ele>427</ele>
        <time>2021-06-06T08:21:25.444Z</time>
      </trkpt>
      <trkpt lat="45.82568" lon="5.46843">
        <ele>427</ele>
        <time>2021-06-06T08:21:26.444Z</time>
      </trkpt>
      <trkpt lat="45.82568" lon="5.46849">
        <ele>428</ele>
        <time>2021-06-06T08:21:27.445Z</time>
      </trkpt>
      <trkpt lat="45.82566" lon="5.46854">
        <ele>428</ele>
        <time>2021-06-06T08:21:28.444Z</time>
      </trkpt>
      <trkpt lat="45.82565" lon="5.46859">
        <ele>428</ele>
        <time>2021-06-06T08:21:29.445Z</time>
      </trkpt>
      <trkpt lat="45.82564" lon="5.46864">
        <ele>429</ele>
        <time>2021-06-06T08:21:30.445Z</time>
      </trkpt>
      <trkpt lat="45.82563" lon="5.46869">
        <ele>430</ele>
        <time>2021-06-06T08:21:31.445Z</time>
      </trkpt>
      <trkpt lat="45.82562" lon="5.46873">
        <ele>430</ele>
        <time>2021-06-06T08:21:32.445Z</time>
      </trkpt>
      <trkpt lat="45.8256" lon="5.46877">
        <ele>430</ele>
        <time>2021-06-06T08:21:33.445Z</time>
      </trkpt>
      <trkpt lat="45.8256" lon="5.46882">
        <ele>431</ele>
        <time>2021-06-06T08:21:34.445Z</time>
      </trkpt>
      <trkpt lat="45.82559" lon="5.46887">
        <ele>431</ele>
        <time>2021-06-06T08:21:35.445Z</time>
      </trkpt>
      <trkpt lat="45.82558" lon="5.46892">
        <ele>431</ele>
        <time>2021-06-06T08:21:36.444Z</time>
      </trkpt>
      <trkpt lat="45.82557" lon="5.46897">
        <ele>430</ele>
        <time>2021-06-06T08:21:37.445Z</time>
      </trkpt>
      <trkpt lat="45.82556" lon="5.46902">
        <ele>430</ele>
        <time>2021-06-06T08:21:38.445Z</time>
      </trkpt>
      <trkpt lat="45.82555" lon="5.46907">
        <ele>430</ele>
        <time>2021-06-06T08:21:39.445Z</time>
      </trkpt>
      <trkpt lat="45.82554" lon="5.46912">
        <ele>430</ele>
        <time>2021-06-06T08:21:40.445Z</time>
      </trkpt>
      <trkpt lat="45.82554" lon="5.46917">
        <ele>429</ele>
        <time>2021-06-06T08:21:41.445Z</time>
      </trkpt>
      <trkpt lat="45.82554" lon="5.46921">
        <ele>429</ele>
        <time>2021-06-06T08:21:42.445Z</time>
      </trkpt>
      <trkpt lat="45.82555" lon="5.46926">
        <ele>429</ele>
        <time>2021-06-06T08:21:43.444Z</time>
      </trkpt>
      <trkpt lat="45.82555" lon="5.46931">
        <ele>429</ele>
        <time>2021-06-06T08:21:44.445Z</time>
      </trkpt>
      <trkpt lat="45.82557" lon="5.46936">
        <ele>429</ele>
        <time>2021-06-06T08:21:45.445Z</time>
      </trkpt>
      <trkpt lat="45.82558" lon="5.4694">
        <ele>430</ele>
        <time>2021-06-06T08:21:46.445Z</time>
      </trkpt>
      <trkpt lat="45.8256" lon="5.46944">
        <ele>430</ele>
        <time>2021-06-06T08:21:47.445Z</time>
      </trkpt>
      <trkpt lat="45.82562" lon="5.46949">
        <ele>430</ele>
        <time>2021-06-06T08:21:48.445Z</time>
      </trkpt>
      <trkpt lat="45.82563" lon="5.46953">
        <ele>430</ele>
        <time>2021-06-06T08:21:49.445Z</time>
      </trkpt>
      <trkpt lat="45.82565" lon="5.46958">
        <ele>430</ele>
        <time>2021-06-06T08:21:50.445Z</time>
      </trkpt>
      <trkpt lat="45.82566" lon="5.46963">
        <ele>431</ele>
        <time>2021-06-06T08:21:51.445Z</time>
      </trkpt>
      <trkpt lat="45.82568" lon="5.46967">
        <ele>431</ele>
        <time>2021-06-06T08:21:52.445Z</time>
      </trkpt>
      <trkpt lat="45.8257" lon="5.46971">
        <ele>430</ele>
        <time>2021-06-06T08:21:53.445Z</time>
      </trkpt>
      <trkpt lat="45.82571" lon="5.46976">
        <ele>430</ele>
        <time>2021-06-06T08:21:54.445Z</time>
      </trkpt>
      <trkpt lat="45.82573" lon="5.46981">
        <ele>430</ele>
        <time>2021-06-06T08:21:55.444Z</time>
      </trkpt>
      <trkpt lat="45.82574" lon="5.46985">
        <ele>430</ele>
        <time>2021-06-06T08:21:56.445Z</time>
      </trkpt>
      <trkpt lat="45.82576" lon="5.4699">
        <ele>430</ele>
        <time>2021-06-06T08:21:57.445Z</time>
      </trkpt>
      <trkpt lat="45.82577" lon="5.46995">
        <ele>430</ele>
        <time>2021-06-06T08:21:58.445Z</time>
      </trkpt>
      <trkpt lat="45.82578" lon="5.47001">
        <ele>430</ele>
        <time>2021-06-06T08:21:59.445Z</time>
      </trkpt>
      <trkpt lat="45.82579" lon="5.47006">
        <ele>431</ele>
        <time>2021-06-06T08:22:00.445Z</time>
      </trkpt>
      <trkpt lat="45.82579" lon="5.47011">
        <ele>431</ele>
        <time>2021-06-06T08:22:01.445Z</time>
      </trkpt>
      <trkpt lat="45.82578" lon="5.47016">
        <ele>431</ele>
        <time>2021-06-06T08:22:02.445Z</time>
      </trkpt>
      <trkpt lat="45.82578" lon="5.47021">
        <ele>431</ele>
        <time>2021-06-06T08:22:03.444Z</time>
      </trkpt>
      <trkpt lat="45.82578" lon="5.47026">
        <ele>431</ele>
        <time>2021-06-06T08:22:04.444Z</time>
      </trkpt>
      <trkpt lat="45.82577" lon="5.4703">
        <ele>431</ele>
        <time>2021-06-06T08:22:05.444Z</time>
      </trkpt>
      <trkpt lat="45.82577" lon="5.47035">
        <ele>431</ele>
        <time>2021-06-06T08:22:06.445Z</time>
      </trkpt>
      <trkpt lat="45.82577" lon="5.4704">
        <ele>432</ele>
        <time>2021-06-06T08:22:07.444Z</time>
      </trkpt>
      <trkpt lat="45.82577" lon="5.47045">
        <ele>432</ele>
        <time>2021-06-06T08:22:08.445Z</time>
      </trkpt>
      <trkpt lat="45.82577" lon="5.4705">
        <ele>432</ele>
        <time>2021-06-06T08:22:09.445Z</time>
      </trkpt>
      <trkpt lat="45.82578" lon="5.47054">
        <ele>432</ele>
        <time>2021-06-06T08:22:10.444Z</time>
      </trkpt>
      <trkpt lat="45.8258" lon="5.47059">
        <ele>432</ele>
        <time>2021-06-06T08:22:11.445Z</time>
      </trkpt>
      <trkpt lat="45.82581" lon="5.47063">
        <ele>433</ele>
        <time>2021-06-06T08:22:12.444Z</time>
      </trkpt>
      <trkpt lat="45.82583" lon="5.47067">
        <ele>433</ele>
        <time>2021-06-06T08:22:13.444Z</time>
      </trkpt>
      <trkpt lat="45.82584" lon="5.47072">
        <ele>434</ele>
        <time>2021-06-06T08:22:14.444Z</time>
      </trkpt>
      <trkpt lat="45.82585" lon="5.47076">
        <ele>434</ele>
        <time>2021-06-06T08:22:15.445Z</time>
      </trkpt>
      <trkpt lat="45.82586" lon="5.47081">
        <ele>434</ele>
        <time>2021-06-06T08:22:16.445Z</time>
      </trkpt>
      <trkpt lat="45.82587" lon="5.47085">
        <ele>434</ele>
        <time>2021-06-06T08:22:17.445Z</time>
      </trkpt>
      <trkpt lat="45.82588" lon="5.4709">
        <ele>434</ele>
        <time>2021-06-06T08:22:18.444Z</time>
      </trkpt>
      <trkpt lat="45.82589" lon="5.47095">
        <ele>434</ele>
        <time>2021-06-06T08:22:19.445Z</time>
      </trkpt>
      <trkpt lat="45.82589" lon="5.471">
        <ele>435</ele>
        <time>2021-06-06T08:22:20.445Z</time>
      </trkpt>
      <trkpt lat="45.82589" lon="5.47105">
        <ele>435</ele>
        <time>2021-06-06T08:22:21.445Z</time>
      </trkpt>
      <trkpt lat="45.82589" lon="5.47109">
        <ele>435</ele>
        <time>2021-06-06T08:22:22.444Z</time>
      </trkpt>
      <trkpt lat="45.82589" lon="5.47114">
        <ele>436</ele>
        <time>2021-06-06T08:22:23.445Z</time>
      </trkpt>
      <trkpt lat="45.82588" lon="5.47118">
        <ele>436</ele>
        <time>2021-06-06T08:22:24.445Z</time>
      </trkpt>
      <trkpt lat="45.82587" lon="5.47122">
        <ele>437</ele>
        <time>2021-06-06T08:22:25.444Z</time>
      </trkpt>
      <trkpt lat="45.82586" lon="5.47127">
        <ele>437</ele>
        <time>2021-06-06T08:22:26.445Z</time>
      </trkpt>
      <trkpt lat="45.82585" lon="5.47131">
        <ele>437</ele>
        <time>2021-06-06T08:22:27.444Z</time>
      </trkpt>
      <trkpt lat="45.82584" lon="5.47136">
        <ele>437</ele>
        <time>2021-06-06T08:22:28.445Z</time>
      </trkpt>
      <trkpt lat="45.82584" lon="5.47141">
        <ele>437</ele>
        <time>2021-06-06T08:22:29.445Z</time>
      </trkpt>
      <trkpt lat="45.82584" lon="5.47145">
        <ele>437</ele>
        <time>2021-06-06T08:22:30.445Z</time>
      </trkpt>
      <trkpt lat="45.82584" lon="5.4715">
        <ele>437</ele>
        <time>2021-06-06T08:22:31.445Z</time>
      </trkpt>
      <trkpt lat="45.82585" lon="5.47155">
        <ele>437</ele>
        <time>2021-06-06T08:22:32.445Z</time>
      </trkpt>
      <trkpt lat="45.82586" lon="5.47159">
        <ele>437</ele>
        <time>2021-06-06T08:22:33.444Z</time>
      </trkpt>
      <trkpt lat="45.82587" lon="5.47164">
        <ele>437</ele>
        <time>2021-06-06T08:22:34.444Z</time>
      </trkpt>
      <trkpt lat="45.82589" lon="5.47168">
        <ele>438</ele>
        <time>2021-06-06T08:22:35.445Z</time>
      </trkpt>
      <trkpt lat="45.82591" lon="5.47172">
        <ele>438</ele>
        <time>2021-06-06T08:22:36.445Z</time>
      </trkpt>
      <trkpt lat="45.82593" lon="5.47176">
        <ele>439</ele>
        <time>2021-06-06T08:22:37.444Z</time>
      </trkpt>
      <trkpt lat="45.82595" lon="5.4718">
        <ele>439</ele>
        <time>2021-06-06T08:22:38.445Z</time>
      </trkpt>
      <trkpt lat="45.82598" lon="5.47183">
        <ele>439</ele>
        <time>2021-06-06T08:22:39.445Z</time>
      </trkpt>
      <trkpt lat="45.826" lon="5.47186">
        <ele>439</ele>
        <time>2021-06-06T08:22:40.444Z</time>
      </trkpt>
      <trkpt lat="45.82602" lon="5.47189">
        <ele>439</ele>
        <time>2021-06-06T08:22:41.445Z</time>
      </trkpt>
      <trkpt lat="45.82605" lon="5.47191">
        <ele>439</ele>
        <time>2021-06-06T08:22:42.445Z</time>
      </trkpt>
      <trkpt lat="45.82608" lon="5.47193">
        <ele>440</ele>
        <time>2021-06-06T08:22:43.445Z</time>
      </trkpt>
      <trkpt lat="45.82611" lon="5.47194">
        <ele>440</ele>
        <time>2021-06-06T08:22:44.444Z</time>
      </trkpt>
      <trkpt lat="45.82614" lon="5.47196">
        <ele>440</ele>
        <time>2021-06-06T08:22:45.445Z</time>
      </trkpt>
      <trkpt lat="45.82617" lon="5.47196">
        <ele>440</ele>
        <time>2021-06-06T08:22:46.445Z</time>
      </trkpt>
      <trkpt lat="45.82621" lon="5.47197">
        <ele>441</ele>
        <time>2021-06-06T08:22:47.445Z</time>
      </trkpt>
      <trkpt lat="45.82624" lon="5.47197">
        <ele>441</ele>
        <time>2021-06-06T08:22:48.444Z</time>
      </trkpt>
      <trkpt lat="45.82627" lon="5.47197">
        <ele>441</ele>
        <time>2021-06-06T08:22:49.445Z</time>
      </trkpt>
      <trkpt lat="45.82631" lon="5.47197">
        <ele>442</ele>
        <time>2021-06-06T08:22:50.445Z</time>
      </trkpt>
      <trkpt lat="45.82634" lon="5.47198">
        <ele>442</ele>
        <time>2021-06-06T08:22:51.444Z</time>
      </trkpt>
      <trkpt lat="45.82638" lon="5.47199">
        <ele>443</ele>
        <time>2021-06-06T08:22:52.445Z</time>
      </trkpt>
      <trkpt lat="45.82641" lon="5.472">
        <ele>442</ele>
        <time>2021-06-06T08:22:53.445Z</time>
      </trkpt>
      <trkpt lat="45.82644" lon="5.47201">
        <ele>442</ele>
        <time>2021-06-06T08:22:54.445Z</time>
      </trkpt>
      <trkpt lat="45.82647" lon="5.47202">
        <ele>442</ele>
        <time>2021-06-06T08:22:55.445Z</time>
      </trkpt>
      <trkpt lat="45.8265" lon="5.47204">
        <ele>442</ele>
        <time>2021-06-06T08:22:56.445Z</time>
      </trkpt>
      <trkpt lat="45.82654" lon="5.47206">
        <ele>442</ele>
        <time>2021-06-06T08:22:57.445Z</time>
      </trkpt>
      <trkpt lat="45.82657" lon="5.47207">
        <ele>442</ele>
        <time>2021-06-06T08:22:58.444Z</time>
      </trkpt>
      <trkpt lat="45.82661" lon="5.47208">
        <ele>442</ele>
        <time>2021-06-06T08:22:59.445Z</time>
      </trkpt>
      <trkpt lat="45.82664" lon="5.47208">
        <ele>443</ele>
        <time>2021-06-06T08:23:00.445Z</time>
      </trkpt>
      <trkpt lat="45.82668" lon="5.47208">
        <ele>443</ele>
        <time>2021-06-06T08:23:01.445Z</time>
      </trkpt>
      <trkpt lat="45.82671" lon="5.47208">
        <ele>443</ele>
        <time>2021-06-06T08:23:02.444Z</time>
      </trkpt>
      <trkpt lat="45.82675" lon="5.47208">
        <ele>443</ele>
        <time>2021-06-06T08:23:03.445Z</time>
      </trkpt>
      <trkpt lat="45.82679" lon="5.47208">
        <ele>444</ele>
        <time>2021-06-06T08:23:04.445Z</time>
      </trkpt>
      <trkpt lat="45.82682" lon="5.47208">
        <ele>444</ele>
        <time>2021-06-06T08:23:05.444Z</time>
      </trkpt>
      <trkpt lat="45.82685" lon="5.47209">
        <ele>445</ele>
        <time>2021-06-06T08:23:06.445Z</time>
      </trkpt>
      <trkpt lat="45.82689" lon="5.4721">
        <ele>446</ele>
        <time>2021-06-06T08:23:07.445Z</time>
      </trkpt>
      <trkpt lat="45.82692" lon="5.47212">
        <ele>447</ele>
        <time>2021-06-06T08:23:08.445Z</time>
      </trkpt>
      <trkpt lat="45.82695" lon="5.47215">
        <ele>448</ele>
        <time>2021-06-06T08:23:09.445Z</time>
      </trkpt>
      <trkpt lat="45.82697" lon="5.47217">
        <ele>448</ele>
        <time>2021-06-06T08:23:10.445Z</time>
      </trkpt>
      <trkpt lat="45.827" lon="5.47221">
        <ele>448</ele>
        <time>2021-06-06T08:23:11.445Z</time>
      </trkpt>
      <trkpt lat="45.82702" lon="5.47225">
        <ele>448</ele>
        <time>2021-06-06T08:23:12.444Z</time>
      </trkpt>
      <trkpt lat="45.82704" lon="5.47229">
        <ele>448</ele>
        <time>2021-06-06T08:23:13.444Z</time>
      </trkpt>
      <trkpt lat="45.82705" lon="5.47233">
        <ele>448</ele>
        <time>2021-06-06T08:23:14.445Z</time>
      </trkpt>
      <trkpt lat="45.82707" lon="5.47238">
        <ele>449</ele>
        <time>2021-06-06T08:23:15.445Z</time>
      </trkpt>
      <trkpt lat="45.82708" lon="5.47242">
        <ele>448</ele>
        <time>2021-06-06T08:23:16.445Z</time>
      </trkpt>
      <trkpt lat="45.82709" lon="5.47247">
        <ele>448</ele>
        <time>2021-06-06T08:23:17.444Z</time>
      </trkpt>
      <trkpt lat="45.8271" lon="5.47252">
        <ele>448</ele>
        <time>2021-06-06T08:23:18.445Z</time>
      </trkpt>
      <trkpt lat="45.82711" lon="5.47257">
        <ele>448</ele>
        <time>2021-06-06T08:23:19.445Z</time>
      </trkpt>
      <trkpt lat="45.82711" lon="5.47262">
        <ele>447</ele>
        <time>2021-06-06T08:23:20.445Z</time>
      </trkpt>
      <trkpt lat="45.82712" lon="5.47267">
        <ele>447</ele>
        <time>2021-06-06T08:23:21.444Z</time>
      </trkpt>
      <trkpt lat="45.82713" lon="5.47272">
        <ele>447</ele>
        <time>2021-06-06T08:23:22.445Z</time>
      </trkpt>
      <trkpt lat="45.82714" lon="5.47277">
        <ele>448</ele>
        <time>2021-06-06T08:23:23.444Z</time>
      </trkpt>
      <trkpt lat="45.82716" lon="5.47282">
        <ele>448</ele>
        <time>2021-06-06T08:23:24.444Z</time>
      </trkpt>
      <trkpt lat="45.82717" lon="5.47287">
        <ele>448</ele>
        <time>2021-06-06T08:23:25.445Z</time>
      </trkpt>
      <trkpt lat="45.82719" lon="5.47291">
        <ele>448</ele>
        <time>2021-06-06T08:23:26.445Z</time>
      </trkpt>
      <trkpt lat="45.82721" lon="5.47295">
        <ele>448</ele>
        <time>2021-06-06T08:23:27.445Z</time>
      </trkpt>
      <trkpt lat="45.82724" lon="5.47299">
        <ele>449</ele>
        <time>2021-06-06T08:23:28.445Z</time>
      </trkpt>
      <trkpt lat="45.82726" lon="5.47303">
        <ele>449</ele>
        <time>2021-06-06T08:23:29.445Z</time>
      </trkpt>
      <trkpt lat="45.82729" lon="5.47306">
        <ele>450</ele>
        <time>2021-06-06T08:23:30.445Z</time>
      </trkpt>
      <trkpt lat="45.82732" lon="5.47309">
        <ele>450</ele>
        <time>2021-06-06T08:23:31.445Z</time>
      </trkpt>
      <trkpt lat="45.82736" lon="5.47311">
        <ele>450</ele>
        <time>2021-06-06T08:23:32.445Z</time>
      </trkpt>
      <trkpt lat="45.82739" lon="5.47313">
        <ele>451</ele>
        <time>2021-06-06T08:23:33.445Z</time>
      </trkpt>
      <trkpt lat="45.82743" lon="5.47315">
        <ele>452</ele>
        <time>2021-06-06T08:23:34.444Z</time>
      </trkpt>
      <trkpt lat="45.82748" lon="5.47317">
        <ele>452</ele>
        <time>2021-06-06T08:23:35.445Z</time>
      </trkpt>
      <trkpt lat="45.82752" lon="5.47318">
        <ele>453</ele>
        <time>2021-06-06T08:23:36.444Z</time>
      </trkpt>
      <trkpt lat="45.82755" lon="5.47319">
        <ele>454</ele>
        <time>2021-06-06T08:23:37.445Z</time>
      </trkpt>
      <trkpt lat="45.82759" lon="5.4732">
        <ele>454</ele>
        <time>2021-06-06T08:23:38.445Z</time>
      </trkpt>
      <trkpt lat="45.82763" lon="5.47321">
        <ele>455</ele>
        <time>2021-06-06T08:23:39.445Z</time>
      </trkpt>
      <trkpt lat="45.82767" lon="5.47322">
        <ele>456</ele>
        <time>2021-06-06T08:23:40.445Z</time>
      </trkpt>
      <trkpt lat="45.8277" lon="5.47323">
        <ele>457</ele>
        <time>2021-06-06T08:23:41.445Z</time>
      </trkpt>
      <trkpt lat="45.82774" lon="5.47325">
        <ele>458</ele>
        <time>2021-06-06T08:23:42.445Z</time>
      </trkpt>
      <trkpt lat="45.82777" lon="5.47327">
        <ele>459</ele>
        <time>2021-06-06T08:23:43.445Z</time>
      </trkpt>
      <trkpt lat="45.8278" lon="5.47329">
        <ele>459</ele>
        <time>2021-06-06T08:23:44.445Z</time>
      </trkpt>
      <trkpt lat="45.82782" lon="5.47333">
        <ele>460</ele>
        <time>2021-06-06T08:23:45.444Z</time>
      </trkpt>
      <trkpt lat="45.82784" lon="5.47336">
        <ele>461</ele>
        <time>2021-06-06T08:23:46.444Z</time>
      </trkpt>
      <trkpt lat="45.82785" lon="5.4734">
        <ele>461</ele>
        <time>2021-06-06T08:23:47.445Z</time>
      </trkpt>
      <trkpt lat="45.82785" lon="5.47343">
        <ele>461</ele>
        <time>2021-06-06T08:23:48.445Z</time>
      </trkpt>
      <trkpt lat="45.82784" lon="5.47345">
        <ele>462</ele>
        <time>2021-06-06T08:23:49.444Z</time>
      </trkpt>
      <trkpt lat="45.82784" lon="5.47346">
        <ele>462</ele>
        <time>2021-06-06T08:23:50.445Z</time>
      </trkpt>
      <trkpt lat="45.82784" lon="5.47347">
        <ele>462</ele>
        <time>2021-06-06T08:23:51.445Z</time>
      </trkpt>
      <trkpt lat="45.82783" lon="5.47347">
        <ele>461</ele>
        <time>2021-06-06T08:23:52.444Z</time>
      </trkpt>
      <trkpt lat="45.82782" lon="5.47348">
        <ele>461</ele>
        <time>2021-06-06T08:23:53.445Z</time>
      </trkpt>
      <trkpt lat="45.82781" lon="5.47347">
        <ele>461</ele>
        <time>2021-06-06T08:23:54.445Z</time>
      </trkpt>
      <trkpt lat="45.8278" lon="5.47346">
        <ele>461</ele>
        <time>2021-06-06T08:23:55.444Z</time>
      </trkpt>
      <trkpt lat="45.8278" lon="5.47346">
        <ele>461</ele>
        <time>2021-06-06T08:23:56.444Z</time>
      </trkpt>
      <trkpt lat="45.82781" lon="5.47359">
        <ele>462</ele>
        <time>2021-06-06T08:23:57.445Z</time>
      </trkpt>
      <trkpt lat="45.82781" lon="5.47363">
        <ele>462</ele>
        <time>2021-06-06T08:23:58.444Z</time>
      </trkpt>
      <trkpt lat="45.8278" lon="5.47367">
        <ele>462</ele>
        <time>2021-06-06T08:23:59.445Z</time>
      </trkpt>
      <trkpt lat="45.82779" lon="5.47372">
        <ele>461</ele>
        <time>2021-06-06T08:24:00.444Z</time>
      </trkpt>
      <trkpt lat="45.82779" lon="5.47377">
        <ele>461</ele>
        <time>2021-06-06T08:24:01.444Z</time>
      </trkpt>
      <trkpt lat="45.82778" lon="5.47381">
        <ele>462</ele>
        <time>2021-06-06T08:24:02.445Z</time>
      </trkpt>
      <trkpt lat="45.82777" lon="5.47386">
        <ele>462</ele>
        <time>2021-06-06T08:24:03.444Z</time>
      </trkpt>
      <trkpt lat="45.82777" lon="5.47389">
        <ele>462</ele>
        <time>2021-06-06T08:24:04.445Z</time>
      </trkpt>
      <trkpt lat="45.82776" lon="5.47393">
        <ele>462</ele>
        <time>2021-06-06T08:24:05.445Z</time>
      </trkpt>
      <trkpt lat="45.82775" lon="5.47397">
        <ele>462</ele>
        <time>2021-06-06T08:24:06.444Z</time>
      </trkpt>
      <trkpt lat="45.82775" lon="5.47401">
        <ele>461</ele>
        <time>2021-06-06T08:24:07.444Z</time>
      </trkpt>
      <trkpt lat="45.82774" lon="5.47405">
        <ele>461</ele>
        <time>2021-06-06T08:24:08.444Z</time>
      </trkpt>
      <trkpt lat="45.82774" lon="5.47409">
        <ele>461</ele>
        <time>2021-06-06T08:24:09.445Z</time>
      </trkpt>
      <trkpt lat="45.82773" lon="5.47413">
        <ele>461</ele>
        <time>2021-06-06T08:24:10.444Z</time>
      </trkpt>
      <trkpt lat="45.82773" lon="5.47417">
        <ele>461</ele>
        <time>2021-06-06T08:24:11.445Z</time>
      </trkpt>
      <trkpt lat="45.82772" lon="5.4742">
        <ele>461</ele>
        <time>2021-06-06T08:24:12.445Z</time>
      </trkpt>
      <trkpt lat="45.82772" lon="5.47424">
        <ele>461</ele>
        <time>2021-06-06T08:24:13.444Z</time>
      </trkpt>
      <trkpt lat="45.82772" lon="5.47428">
        <ele>462</ele>
        <time>2021-06-06T08:24:14.444Z</time>
      </trkpt>
      <trkpt lat="45.82773" lon="5.47432">
        <ele>463</ele>
        <time>2021-06-06T08:24:15.444Z</time>
      </trkpt>
      <trkpt lat="45.82773" lon="5.47437">
        <ele>464</ele>
        <time>2021-06-06T08:24:16.445Z</time>
      </trkpt>
      <trkpt lat="45.82772" lon="5.47441">
        <ele>464</ele>
        <time>2021-06-06T08:24:17.445Z</time>
      </trkpt>
      <trkpt lat="45.82772" lon="5.47445">
        <ele>464</ele>
        <time>2021-06-06T08:24:18.445Z</time>
      </trkpt>
      <trkpt lat="45.82772" lon="5.47448">
        <ele>464</ele>
        <time>2021-06-06T08:24:19.445Z</time>
      </trkpt>
      <trkpt lat="45.82772" lon="5.47452">
        <ele>464</ele>
        <time>2021-06-06T08:24:20.444Z</time>
      </trkpt>
      <trkpt lat="45.82772" lon="5.47457">
        <ele>464</ele>
        <time>2021-06-06T08:24:21.445Z</time>
      </trkpt>
      <trkpt lat="45.82772" lon="5.47461">
        <ele>465</ele>
        <time>2021-06-06T08:24:22.445Z</time>
      </trkpt>
      <trkpt lat="45.82772" lon="5.47465">
        <ele>465</ele>
        <time>2021-06-06T08:24:23.444Z</time>
      </trkpt>
      <trkpt lat="45.82771" lon="5.4747">
        <ele>465</ele>
        <time>2021-06-06T08:24:24.445Z</time>
      </trkpt>
      <trkpt lat="45.82771" lon="5.47474">
        <ele>465</ele>
        <time>2021-06-06T08:24:25.445Z</time>
      </trkpt>
      <trkpt lat="45.82771" lon="5.47478">
        <ele>465</ele>
        <time>2021-06-06T08:24:26.445Z</time>
      </trkpt>
      <trkpt lat="45.82771" lon="5.47483">
        <ele>466</ele>
        <time>2021-06-06T08:24:27.445Z</time>
      </trkpt>
      <trkpt lat="45.82771" lon="5.47487">
        <ele>466</ele>
        <time>2021-06-06T08:24:28.445Z</time>
      </trkpt>
      <trkpt lat="45.82771" lon="5.47491">
        <ele>466</ele>
        <time>2021-06-06T08:24:29.445Z</time>
      </trkpt>
      <trkpt lat="45.82771" lon="5.47495">
        <ele>466</ele>
        <time>2021-06-06T08:24:30.445Z</time>
      </trkpt>
      <trkpt lat="45.82771" lon="5.47499">
        <ele>466</ele>
        <time>2021-06-06T08:24:31.444Z</time>
      </trkpt>
      <trkpt lat="45.82772" lon="5.47504">
        <ele>466</ele>
        <time>2021-06-06T08:24:32.445Z</time>
      </trkpt>
      <trkpt lat="45.82772" lon="5.47508">
        <ele>466</ele>
        <time>2021-06-06T08:24:33.444Z</time>
      </trkpt>
      <trkpt lat="45.82772" lon="5.47512">
        <ele>466</ele>
        <time>2021-06-06T08:24:34.445Z</time>
      </trkpt>
      <trkpt lat="45.82771" lon="5.47516">
        <ele>466</ele>
        <time>2021-06-06T08:24:35.444Z</time>
      </trkpt>
      <trkpt lat="45.82771" lon="5.4752">
        <ele>466</ele>
        <time>2021-06-06T08:24:36.445Z</time>
      </trkpt>
      <trkpt lat="45.82771" lon="5.47524">
        <ele>466</ele>
        <time>2021-06-06T08:24:37.445Z</time>
      </trkpt>
      <trkpt lat="45.82771" lon="5.47528">
        <ele>466</ele>
        <time>2021-06-06T08:24:38.445Z</time>
      </trkpt>
      <trkpt lat="45.82772" lon="5.47532">
        <ele>466</ele>
        <time>2021-06-06T08:24:39.444Z</time>
      </trkpt>
      <trkpt lat="45.82772" lon="5.47536">
        <ele>466</ele>
        <time>2021-06-06T08:24:40.445Z</time>
      </trkpt>
      <trkpt lat="45.82772" lon="5.4754">
        <ele>466</ele>
        <time>2021-06-06T08:24:41.444Z</time>
      </trkpt>
      <trkpt lat="45.82772" lon="5.47544">
        <ele>466</ele>
        <time>2021-06-06T08:24:42.444Z</time>
      </trkpt>
      <trkpt lat="45.82772" lon="5.47548">
        <ele>466</ele>
        <time>2021-06-06T08:24:43.445Z</time>
      </trkpt>
      <trkpt lat="45.82772" lon="5.47552">
        <ele>466</ele>
        <time>2021-06-06T08:24:44.444Z</time>
      </trkpt>
      <trkpt lat="45.82772" lon="5.47557">
        <ele>466</ele>
        <time>2021-06-06T08:24:45.445Z</time>
      </trkpt>
      <trkpt lat="45.82772" lon="5.47561">
        <ele>466</ele>
        <time>2021-06-06T08:24:46.445Z</time>
      </trkpt>
      <trkpt lat="45.82773" lon="5.47565">
        <ele>466</ele>
        <time>2021-06-06T08:24:47.445Z</time>
      </trkpt>
      <trkpt lat="45.82773" lon="5.47569">
        <ele>466</ele>
        <time>2021-06-06T08:24:48.444Z</time>
      </trkpt>
      <trkpt lat="45.82773" lon="5.47574">
        <ele>466</ele>
        <time>2021-06-06T08:24:49.445Z</time>
      </trkpt>
      <trkpt lat="45.82773" lon="5.47578">
        <ele>466</ele>
        <time>2021-06-06T08:24:50.445Z</time>
      </trkpt>
      <trkpt lat="45.82773" lon="5.47582">
        <ele>467</ele>
        <time>2021-06-06T08:24:51.444Z</time>
      </trkpt>
      <trkpt lat="45.82773" lon="5.47587">
        <ele>467</ele>
        <time>2021-06-06T08:24:52.445Z</time>
      </trkpt>
      <trkpt lat="45.82773" lon="5.47591">
        <ele>467</ele>
        <time>2021-06-06T08:24:53.445Z</time>
      </trkpt>
      <trkpt lat="45.82773" lon="5.47596">
        <ele>467</ele>
        <time>2021-06-06T08:24:54.445Z</time>
      </trkpt>
      <trkpt lat="45.82774" lon="5.476">
        <ele>468</ele>
        <time>2021-06-06T08:24:55.444Z</time>
      </trkpt>
      <trkpt lat="45.82774" lon="5.47604">
        <ele>468</ele>
        <time>2021-06-06T08:24:56.444Z</time>
      </trkpt>
      <trkpt lat="45.82774" lon="5.47609">
        <ele>468</ele>
        <time>2021-06-06T08:24:57.445Z</time>
      </trkpt>
      <trkpt lat="45.82773" lon="5.47613">
        <ele>469</ele>
        <time>2021-06-06T08:24:58.445Z</time>
      </trkpt>
      <trkpt lat="45.82773" lon="5.47617">
        <ele>469</ele>
        <time>2021-06-06T08:24:59.445Z</time>
      </trkpt>
      <trkpt lat="45.82773" lon="5.47622">
        <ele>470</ele>
        <time>2021-06-06T08:25:00.444Z</time>
      </trkpt>
      <trkpt lat="45.82773" lon="5.47626">
        <ele>470</ele>
        <time>2021-06-06T08:25:01.445Z</time>
      </trkpt>
      <trkpt lat="45.82773" lon="5.47631">
        <ele>470</ele>
        <time>2021-06-06T08:25:02.444Z</time>
      </trkpt>
      <trkpt lat="45.82772" lon="5.47635">
        <ele>470</ele>
        <time>2021-06-06T08:25:03.445Z</time>
      </trkpt>
      <trkpt lat="45.82771" lon="5.47639">
        <ele>470</ele>
        <time>2021-06-06T08:25:04.445Z</time>
      </trkpt>
      <trkpt lat="45.8277" lon="5.47644">
        <ele>471</ele>
        <time>2021-06-06T08:25:05.444Z</time>
      </trkpt>
      <trkpt lat="45.82769" lon="5.47648">
        <ele>471</ele>
        <time>2021-06-06T08:25:06.444Z</time>
      </trkpt>
      <trkpt lat="45.82768" lon="5.47652">
        <ele>472</ele>
        <time>2021-06-06T08:25:07.444Z</time>
      </trkpt>
      <trkpt lat="45.82767" lon="5.47657">
        <ele>472</ele>
        <time>2021-06-06T08:25:08.444Z</time>
      </trkpt>
      <trkpt lat="45.82766" lon="5.4766">
        <ele>473</ele>
        <time>2021-06-06T08:25:09.444Z</time>
      </trkpt>
      <trkpt lat="45.82765" lon="5.47664">
        <ele>473</ele>
        <time>2021-06-06T08:25:10.444Z</time>
      </trkpt>
      <trkpt lat="45.82764" lon="5.47668">
        <ele>474</ele>
        <time>2021-06-06T08:25:11.444Z</time>
      </trkpt>
      <trkpt lat="45.82762" lon="5.47672">
        <ele>474</ele>
        <time>2021-06-06T08:25:12.444Z</time>
      </trkpt>
      <trkpt lat="45.82761" lon="5.47677">
        <ele>475</ele>
        <time>2021-06-06T08:25:13.445Z</time>
      </trkpt>
      <trkpt lat="45.8276" lon="5.47681">
        <ele>476</ele>
        <time>2021-06-06T08:25:14.445Z</time>
      </trkpt>
      <trkpt lat="45.82758" lon="5.47685">
        <ele>476</ele>
        <time>2021-06-06T08:25:15.444Z</time>
      </trkpt>
      <trkpt lat="45.82757" lon="5.47689">
        <ele>476</ele>
        <time>2021-06-06T08:25:16.445Z</time>
      </trkpt>
      <trkpt lat="45.82756" lon="5.47693">
        <ele>476</ele>
        <time>2021-06-06T08:25:17.445Z</time>
      </trkpt>
      <trkpt lat="45.82754" lon="5.47697">
        <ele>477</ele>
        <time>2021-06-06T08:25:18.444Z</time>
      </trkpt>
      <trkpt lat="45.82752" lon="5.47701">
        <ele>477</ele>
        <time>2021-06-06T08:25:19.445Z</time>
      </trkpt>
      <trkpt lat="45.82751" lon="5.47705">
        <ele>477</ele>
        <time>2021-06-06T08:25:20.445Z</time>
      </trkpt>
      <trkpt lat="45.8275" lon="5.47708">
        <ele>477</ele>
        <time>2021-06-06T08:25:21.445Z</time>
      </trkpt>
      <trkpt lat="45.82748" lon="5.47712">
        <ele>477</ele>
        <time>2021-06-06T08:25:22.444Z</time>
      </trkpt>
      <trkpt lat="45.82747" lon="5.47715">
        <ele>477</ele>
        <time>2021-06-06T08:25:23.445Z</time>
      </trkpt>
      <trkpt lat="45.82746" lon="5.47719">
        <ele>477</ele>
        <time>2021-06-06T08:25:24.445Z</time>
      </trkpt>
      <trkpt lat="45.82745" lon="5.47722">
        <ele>477</ele>
        <time>2021-06-06T08:25:25.444Z</time>
      </trkpt>
      <trkpt lat="45.82743" lon="5.47725">
        <ele>477</ele>
        <time>2021-06-06T08:25:26.445Z</time>
      </trkpt>
      <trkpt lat="45.82741" lon="5.47728">
        <ele>477</ele>
        <time>2021-06-06T08:25:27.445Z</time>
      </trkpt>
      <trkpt lat="45.82739" lon="5.47731">
        <ele>477</ele>
        <time>2021-06-06T08:25:28.445Z</time>
      </trkpt>
      <trkpt lat="45.82737" lon="5.47734">
        <ele>477</ele>
        <time>2021-06-06T08:25:29.444Z</time>
      </trkpt>
      <trkpt lat="45.82735" lon="5.47737">
        <ele>478</ele>
        <time>2021-06-06T08:25:30.445Z</time>
      </trkpt>
      <trkpt lat="45.82733" lon="5.47739">
        <ele>478</ele>
        <time>2021-06-06T08:25:31.444Z</time>
      </trkpt>
      <trkpt lat="45.8273" lon="5.47742">
        <ele>479</ele>
        <time>2021-06-06T08:25:32.444Z</time>
      </trkpt>
      <trkpt lat="45.82727" lon="5.47744">
        <ele>479</ele>
        <time>2021-06-06T08:25:33.445Z</time>
      </trkpt>
      <trkpt lat="45.82724" lon="5.47747">
        <ele>479</ele>
        <time>2021-06-06T08:25:34.444Z</time>
      </trkpt>
      <trkpt lat="45.82722" lon="5.47749">
        <ele>479</ele>
        <time>2021-06-06T08:25:35.445Z</time>
      </trkpt>
      <trkpt lat="45.8272" lon="5.47752">
        <ele>479</ele>
        <time>2021-06-06T08:25:36.444Z</time>
      </trkpt>
      <trkpt lat="45.82718" lon="5.47755">
        <ele>479</ele>
        <time>2021-06-06T08:25:37.445Z</time>
      </trkpt>
      <trkpt lat="45.82716" lon="5.47757">
        <ele>479</ele>
        <time>2021-06-06T08:25:38.445Z</time>
      </trkpt>
      <trkpt lat="45.82714" lon="5.4776">
        <ele>480</ele>
        <time>2021-06-06T08:25:39.445Z</time>
      </trkpt>
      <trkpt lat="45.82711" lon="5.47763">
        <ele>480</ele>
        <time>2021-06-06T08:25:40.445Z</time>
      </trkpt>
      <trkpt lat="45.82709" lon="5.47766">
        <ele>481</ele>
        <time>2021-06-06T08:25:41.444Z</time>
      </trkpt>
      <trkpt lat="45.82706" lon="5.47768">
        <ele>482</ele>
        <time>2021-06-06T08:25:42.444Z</time>
      </trkpt>
      <trkpt lat="45.82704" lon="5.47771">
        <ele>482</ele>
        <time>2021-06-06T08:25:43.445Z</time>
      </trkpt>
      <trkpt lat="45.82702" lon="5.47773">
        <ele>482</ele>
        <time>2021-06-06T08:25:44.445Z</time>
      </trkpt>
      <trkpt lat="45.82699" lon="5.47775">
        <ele>481</ele>
        <time>2021-06-06T08:25:45.445Z</time>
      </trkpt>
      <trkpt lat="45.82697" lon="5.47778">
        <ele>481</ele>
        <time>2021-06-06T08:25:46.444Z</time>
      </trkpt>
      <trkpt lat="45.82694" lon="5.4778">
        <ele>481</ele>
        <time>2021-06-06T08:25:47.445Z</time>
      </trkpt>
      <trkpt lat="45.82692" lon="5.47783">
        <ele>480</ele>
        <time>2021-06-06T08:25:48.445Z</time>
      </trkpt>
      <trkpt lat="45.8269" lon="5.47786">
        <ele>480</ele>
        <time>2021-06-06T08:25:49.445Z</time>
      </trkpt>
      <trkpt lat="45.82687" lon="5.47789">
        <ele>480</ele>
        <time>2021-06-06T08:25:50.444Z</time>
      </trkpt>
      <trkpt lat="45.82686" lon="5.47793">
        <ele>480</ele>
        <time>2021-06-06T08:25:51.445Z</time>
      </trkpt>
      <trkpt lat="45.82684" lon="5.47797">
        <ele>480</ele>
        <time>2021-06-06T08:25:52.445Z</time>
      </trkpt>
      <trkpt lat="45.82682" lon="5.47801">
        <ele>480</ele>
        <time>2021-06-06T08:25:53.445Z</time>
      </trkpt>
      <trkpt lat="45.82681" lon="5.47806">
        <ele>480</ele>
        <time>2021-06-06T08:25:54.444Z</time>
      </trkpt>
      <trkpt lat="45.8268" lon="5.4781">
        <ele>480</ele>
        <time>2021-06-06T08:25:55.445Z</time>
      </trkpt>
      <trkpt lat="45.82679" lon="5.47815">
        <ele>480</ele>
        <time>2021-06-06T08:25:56.445Z</time>
      </trkpt>
      <trkpt lat="45.82678" lon="5.47819">
        <ele>480</ele>
        <time>2021-06-06T08:25:57.445Z</time>
      </trkpt>
      <trkpt lat="45.82676" lon="5.47823">
        <ele>480</ele>
        <time>2021-06-06T08:25:58.444Z</time>
      </trkpt>
      <trkpt lat="45.82675" lon="5.47828">
        <ele>481</ele>
        <time>2021-06-06T08:25:59.444Z</time>
      </trkpt>
      <trkpt lat="45.82674" lon="5.47832">
        <ele>481</ele>
        <time>2021-06-06T08:26:00.445Z</time>
      </trkpt>
      <trkpt lat="45.82673" lon="5.47836">
        <ele>481</ele>
        <time>2021-06-06T08:26:01.444Z</time>
      </trkpt>
      <trkpt lat="45.82673" lon="5.4784">
        <ele>481</ele>
        <time>2021-06-06T08:26:02.445Z</time>
      </trkpt>
      <trkpt lat="45.82672" lon="5.47844">
        <ele>482</ele>
        <time>2021-06-06T08:26:03.444Z</time>
      </trkpt>
      <trkpt lat="45.82671" lon="5.47848">
        <ele>482</ele>
        <time>2021-06-06T08:26:04.445Z</time>
      </trkpt>
      <trkpt lat="45.8267" lon="5.47852">
        <ele>482</ele>
        <time>2021-06-06T08:26:05.445Z</time>
      </trkpt>
      <trkpt lat="45.8267" lon="5.47856">
        <ele>482</ele>
        <time>2021-06-06T08:26:06.444Z</time>
      </trkpt>
      <trkpt lat="45.82669" lon="5.4786">
        <ele>482</ele>
        <time>2021-06-06T08:26:07.445Z</time>
      </trkpt>
      <trkpt lat="45.82668" lon="5.47864">
        <ele>483</ele>
        <time>2021-06-06T08:26:08.444Z</time>
      </trkpt>
      <trkpt lat="45.82667" lon="5.47868">
        <ele>483</ele>
        <time>2021-06-06T08:26:09.445Z</time>
      </trkpt>
      <trkpt lat="45.82665" lon="5.47872">
        <ele>483</ele>
        <time>2021-06-06T08:26:10.444Z</time>
      </trkpt>
      <trkpt lat="45.82664" lon="5.47876">
        <ele>483</ele>
        <time>2021-06-06T08:26:11.444Z</time>
      </trkpt>
      <trkpt lat="45.82662" lon="5.4788">
        <ele>484</ele>
        <time>2021-06-06T08:26:12.444Z</time>
      </trkpt>
      <trkpt lat="45.8266" lon="5.47883">
        <ele>484</ele>
        <time>2021-06-06T08:26:13.445Z</time>
      </trkpt>
      <trkpt lat="45.82659" lon="5.47887">
        <ele>484</ele>
        <time>2021-06-06T08:26:14.445Z</time>
      </trkpt>
      <trkpt lat="45.82657" lon="5.47891">
        <ele>485</ele>
        <time>2021-06-06T08:26:15.445Z</time>
      </trkpt>
      <trkpt lat="45.82656" lon="5.47894">
        <ele>486</ele>
        <time>2021-06-06T08:26:16.445Z</time>
      </trkpt>
      <trkpt lat="45.82655" lon="5.47898">
        <ele>486</ele>
        <time>2021-06-06T08:26:17.445Z</time>
      </trkpt>
      <trkpt lat="45.82654" lon="5.47902">
        <ele>487</ele>
        <time>2021-06-06T08:26:18.445Z</time>
      </trkpt>
      <trkpt lat="45.82652" lon="5.47905">
        <ele>487</ele>
        <time>2021-06-06T08:26:19.445Z</time>
      </trkpt>
      <trkpt lat="45.8265" lon="5.47909">
        <ele>487</ele>
        <time>2021-06-06T08:26:20.444Z</time>
      </trkpt>
      <trkpt lat="45.82649" lon="5.47912">
        <ele>487</ele>
        <time>2021-06-06T08:26:21.444Z</time>
      </trkpt>
      <trkpt lat="45.82647" lon="5.47915">
        <ele>488</ele>
        <time>2021-06-06T08:26:22.445Z</time>
      </trkpt>
      <trkpt lat="45.82646" lon="5.47919">
        <ele>488</ele>
        <time>2021-06-06T08:26:23.444Z</time>
      </trkpt>
      <trkpt lat="45.82644" lon="5.47921">
        <ele>487</ele>
        <time>2021-06-06T08:26:24.445Z</time>
      </trkpt>
      <trkpt lat="45.82643" lon="5.47925">
        <ele>487</ele>
        <time>2021-06-06T08:26:25.444Z</time>
      </trkpt>
      <trkpt lat="45.82641" lon="5.47928">
        <ele>487</ele>
        <time>2021-06-06T08:26:26.444Z</time>
      </trkpt>
      <trkpt lat="45.8264" lon="5.47932">
        <ele>487</ele>
        <time>2021-06-06T08:26:27.445Z</time>
      </trkpt>
      <trkpt lat="45.8264" lon="5.47936">
        <ele>486</ele>
        <time>2021-06-06T08:26:28.444Z</time>
      </trkpt>
      <trkpt lat="45.82639" lon="5.4794">
        <ele>486</ele>
        <time>2021-06-06T08:26:29.445Z</time>
      </trkpt>
      <trkpt lat="45.82639" lon="5.47944">
        <ele>486</ele>
        <time>2021-06-06T08:26:30.444Z</time>
      </trkpt>
      <trkpt lat="45.8264" lon="5.47948">
        <ele>486</ele>
        <time>2021-06-06T08:26:31.445Z</time>
      </trkpt>
      <trkpt lat="45.8264" lon="5.47951">
        <ele>487</ele>
        <time>2021-06-06T08:26:32.445Z</time>
      </trkpt>
      <trkpt lat="45.82642" lon="5.47956">
        <ele>487</ele>
        <time>2021-06-06T08:26:33.445Z</time>
      </trkpt>
      <trkpt lat="45.82643" lon="5.47959">
        <ele>487</ele>
        <time>2021-06-06T08:26:34.445Z</time>
      </trkpt>
      <trkpt lat="45.82645" lon="5.47963">
        <ele>487</ele>
        <time>2021-06-06T08:26:35.445Z</time>
      </trkpt>
      <trkpt lat="45.82647" lon="5.47966">
        <ele>487</ele>
        <time>2021-06-06T08:26:36.445Z</time>
      </trkpt>
      <trkpt lat="45.82649" lon="5.47969">
        <ele>488</ele>
        <time>2021-06-06T08:26:37.445Z</time>
      </trkpt>
      <trkpt lat="45.82651" lon="5.47972">
        <ele>488</ele>
        <time>2021-06-06T08:26:38.445Z</time>
      </trkpt>
      <trkpt lat="45.82653" lon="5.47975">
        <ele>488</ele>
        <time>2021-06-06T08:26:39.445Z</time>
      </trkpt>
      <trkpt lat="45.82655" lon="5.47977">
        <ele>488</ele>
        <time>2021-06-06T08:26:40.444Z</time>
      </trkpt>
      <trkpt lat="45.82658" lon="5.4798">
        <ele>488</ele>
        <time>2021-06-06T08:26:41.444Z</time>
      </trkpt>
      <trkpt lat="45.8266" lon="5.47983">
        <ele>489</ele>
        <time>2021-06-06T08:26:42.445Z</time>
      </trkpt>
      <trkpt lat="45.82662" lon="5.47986">
        <ele>489</ele>
        <time>2021-06-06T08:26:43.444Z</time>
      </trkpt>
      <trkpt lat="45.82665" lon="5.47989">
        <ele>489</ele>
        <time>2021-06-06T08:26:44.445Z</time>
      </trkpt>
      <trkpt lat="45.82667" lon="5.47992">
        <ele>489</ele>
        <time>2021-06-06T08:26:45.445Z</time>
      </trkpt>
      <trkpt lat="45.82669" lon="5.47995">
        <ele>489</ele>
        <time>2021-06-06T08:26:46.445Z</time>
      </trkpt>
      <trkpt lat="45.82671" lon="5.47998">
        <ele>490</ele>
        <time>2021-06-06T08:26:47.444Z</time>
      </trkpt>
      <trkpt lat="45.82674" lon="5.48001">
        <ele>490</ele>
        <time>2021-06-06T08:26:48.444Z</time>
      </trkpt>
      <trkpt lat="45.82676" lon="5.48004">
        <ele>490</ele>
        <time>2021-06-06T08:26:49.444Z</time>
      </trkpt>
      <trkpt lat="45.82679" lon="5.48008">
        <ele>490</ele>
        <time>2021-06-06T08:26:50.445Z</time>
      </trkpt>
      <trkpt lat="45.82682" lon="5.48011">
        <ele>491</ele>
        <time>2021-06-06T08:26:51.445Z</time>
      </trkpt>
      <trkpt lat="45.82684" lon="5.48014">
        <ele>491</ele>
        <time>2021-06-06T08:26:52.445Z</time>
      </trkpt>
      <trkpt lat="45.82687" lon="5.48017">
        <ele>492</ele>
        <time>2021-06-06T08:26:53.444Z</time>
      </trkpt>
      <trkpt lat="45.82689" lon="5.48021">
        <ele>491</ele>
        <time>2021-06-06T08:26:54.445Z</time>
      </trkpt>
      <trkpt lat="45.82692" lon="5.48024">
        <ele>492</ele>
        <time>2021-06-06T08:26:55.444Z</time>
      </trkpt>
      <trkpt lat="45.82694" lon="5.48027">
        <ele>492</ele>
        <time>2021-06-06T08:26:56.444Z</time>
      </trkpt>
      <trkpt lat="45.82697" lon="5.48031">
        <ele>492</ele>
        <time>2021-06-06T08:26:57.444Z</time>
      </trkpt>
      <trkpt lat="45.82699" lon="5.48034">
        <ele>492</ele>
        <time>2021-06-06T08:26:58.445Z</time>
      </trkpt>
      <trkpt lat="45.82702" lon="5.48038">
        <ele>492</ele>
        <time>2021-06-06T08:26:59.445Z</time>
      </trkpt>
      <trkpt lat="45.82704" lon="5.48041">
        <ele>492</ele>
        <time>2021-06-06T08:27:00.444Z</time>
      </trkpt>
      <trkpt lat="45.82707" lon="5.48045">
        <ele>493</ele>
        <time>2021-06-06T08:27:01.445Z</time>
      </trkpt>
      <trkpt lat="45.8271" lon="5.48048">
        <ele>493</ele>
        <time>2021-06-06T08:27:02.445Z</time>
      </trkpt>
      <trkpt lat="45.82712" lon="5.48051">
        <ele>493</ele>
        <time>2021-06-06T08:27:03.444Z</time>
      </trkpt>
      <trkpt lat="45.82715" lon="5.48054">
        <ele>493</ele>
        <time>2021-06-06T08:27:04.444Z</time>
      </trkpt>
      <trkpt lat="45.82718" lon="5.48057">
        <ele>493</ele>
        <time>2021-06-06T08:27:05.445Z</time>
      </trkpt>
      <trkpt lat="45.82721" lon="5.4806">
        <ele>493</ele>
        <time>2021-06-06T08:27:06.445Z</time>
      </trkpt>
      <trkpt lat="45.82723" lon="5.48063">
        <ele>493</ele>
        <time>2021-06-06T08:27:07.445Z</time>
      </trkpt>
      <trkpt lat="45.82726" lon="5.48066">
        <ele>494</ele>
        <time>2021-06-06T08:27:08.444Z</time>
      </trkpt>
      <trkpt lat="45.82729" lon="5.48069">
        <ele>494</ele>
        <time>2021-06-06T08:27:09.444Z</time>
      </trkpt>
      <trkpt lat="45.82732" lon="5.48071">
        <ele>494</ele>
        <time>2021-06-06T08:27:10.445Z</time>
      </trkpt>
      <trkpt lat="45.82735" lon="5.48073">
        <ele>495</ele>
        <time>2021-06-06T08:27:11.445Z</time>
      </trkpt>
      <trkpt lat="45.82738" lon="5.48075">
        <ele>495</ele>
        <time>2021-06-06T08:27:12.445Z</time>
      </trkpt>
      <trkpt lat="45.82741" lon="5.48076">
        <ele>495</ele>
        <time>2021-06-06T08:27:13.444Z</time>
      </trkpt>
      <trkpt lat="45.82745" lon="5.48078">
        <ele>495</ele>
        <time>2021-06-06T08:27:14.445Z</time>
      </trkpt>
      <trkpt lat="45.82748" lon="5.4808">
        <ele>496</ele>
        <time>2021-06-06T08:27:15.444Z</time>
      </trkpt>
      <trkpt lat="45.82751" lon="5.48081">
        <ele>496</ele>
        <time>2021-06-06T08:27:16.444Z</time>
      </trkpt>
      <trkpt lat="45.82755" lon="5.48083">
        <ele>496</ele>
        <time>2021-06-06T08:27:17.445Z</time>
      </trkpt>
      <trkpt lat="45.82758" lon="5.48086">
        <ele>497</ele>
        <time>2021-06-06T08:27:18.445Z</time>
      </trkpt>
      <trkpt lat="45.82761" lon="5.48088">
        <ele>498</ele>
        <time>2021-06-06T08:27:19.445Z</time>
      </trkpt>
      <trkpt lat="45.82764" lon="5.48091">
        <ele>498</ele>
        <time>2021-06-06T08:27:20.444Z</time>
      </trkpt>
      <trkpt lat="45.82767" lon="5.48095">
        <ele>499</ele>
        <time>2021-06-06T08:27:21.444Z</time>
      </trkpt>
      <trkpt lat="45.8277" lon="5.48098">
        <ele>499</ele>
        <time>2021-06-06T08:27:22.445Z</time>
      </trkpt>
      <trkpt lat="45.82772" lon="5.48101">
        <ele>499</ele>
        <time>2021-06-06T08:27:23.444Z</time>
      </trkpt>
      <trkpt lat="45.82775" lon="5.48104">
        <ele>499</ele>
        <time>2021-06-06T08:27:24.444Z</time>
      </trkpt>
      <trkpt lat="45.82777" lon="5.48108">
        <ele>499</ele>
        <time>2021-06-06T08:27:25.444Z</time>
      </trkpt>
      <trkpt lat="45.82779" lon="5.48111">
        <ele>499</ele>
        <time>2021-06-06T08:27:26.445Z</time>
      </trkpt>
      <trkpt lat="45.82782" lon="5.48115">
        <ele>499</ele>
        <time>2021-06-06T08:27:27.445Z</time>
      </trkpt>
      <trkpt lat="45.82784" lon="5.48119">
        <ele>499</ele>
        <time>2021-06-06T08:27:28.445Z</time>
      </trkpt>
      <trkpt lat="45.82786" lon="5.48123">
        <ele>499</ele>
        <time>2021-06-06T08:27:29.445Z</time>
      </trkpt>
      <trkpt lat="45.82788" lon="5.48127">
        <ele>498</ele>
        <time>2021-06-06T08:27:30.445Z</time>
      </trkpt>
      <trkpt lat="45.8279" lon="5.48131">
        <ele>498</ele>
        <time>2021-06-06T08:27:31.445Z</time>
      </trkpt>
      <trkpt lat="45.82792" lon="5.48136">
        <ele>498</ele>
        <time>2021-06-06T08:27:32.444Z</time>
      </trkpt>
      <trkpt lat="45.82793" lon="5.4814">
        <ele>498</ele>
        <time>2021-06-06T08:27:33.444Z</time>
      </trkpt>
      <trkpt lat="45.82794" lon="5.48145">
        <ele>499</ele>
        <time>2021-06-06T08:27:34.445Z</time>
      </trkpt>
      <trkpt lat="45.82795" lon="5.4815">
        <ele>499</ele>
        <time>2021-06-06T08:27:35.445Z</time>
      </trkpt>
      <trkpt lat="45.82796" lon="5.48155">
        <ele>499</ele>
        <time>2021-06-06T08:27:36.445Z</time>
      </trkpt>
      <trkpt lat="45.82797" lon="5.4816">
        <ele>499</ele>
        <time>2021-06-06T08:27:37.444Z</time>
      </trkpt>
      <trkpt lat="45.82798" lon="5.48165">
        <ele>499</ele>
        <time>2021-06-06T08:27:38.445Z</time>
      </trkpt>
      <trkpt lat="45.82798" lon="5.4817">
        <ele>500</ele>
        <time>2021-06-06T08:27:39.444Z</time>
      </trkpt>
      <trkpt lat="45.82799" lon="5.48174">
        <ele>500</ele>
        <time>2021-06-06T08:27:40.445Z</time>
      </trkpt>
      <trkpt lat="45.828" lon="5.4818">
        <ele>500</ele>
        <time>2021-06-06T08:27:41.445Z</time>
      </trkpt>
      <trkpt lat="45.828" lon="5.48184">
        <ele>501</ele>
        <time>2021-06-06T08:27:42.445Z</time>
      </trkpt>
      <trkpt lat="45.828" lon="5.48189">
        <ele>501</ele>
        <time>2021-06-06T08:27:43.445Z</time>
      </trkpt>
      <trkpt lat="45.82801" lon="5.48194">
        <ele>501</ele>
        <time>2021-06-06T08:27:44.444Z</time>
      </trkpt>
      <trkpt lat="45.82801" lon="5.48199">
        <ele>501</ele>
        <time>2021-06-06T08:27:45.444Z</time>
      </trkpt>
      <trkpt lat="45.82802" lon="5.48204">
        <ele>501</ele>
        <time>2021-06-06T08:27:46.445Z</time>
      </trkpt>
      <trkpt lat="45.82803" lon="5.48209">
        <ele>501</ele>
        <time>2021-06-06T08:27:47.445Z</time>
      </trkpt>
      <trkpt lat="45.82803" lon="5.48214">
        <ele>502</ele>
        <time>2021-06-06T08:27:48.444Z</time>
      </trkpt>
      <trkpt lat="45.82804" lon="5.48219">
        <ele>502</ele>
        <time>2021-06-06T08:27:49.444Z</time>
      </trkpt>
      <trkpt lat="45.82804" lon="5.48223">
        <ele>502</ele>
        <time>2021-06-06T08:27:50.445Z</time>
      </trkpt>
      <trkpt lat="45.82805" lon="5.48228">
        <ele>502</ele>
        <time>2021-06-06T08:27:51.444Z</time>
      </trkpt>
      <trkpt lat="45.82806" lon="5.48233">
        <ele>503</ele>
        <time>2021-06-06T08:27:52.445Z</time>
      </trkpt>
      <trkpt lat="45.82806" lon="5.48238">
        <ele>504</ele>
        <time>2021-06-06T08:27:53.444Z</time>
      </trkpt>
      <trkpt lat="45.82807" lon="5.48243">
        <ele>504</ele>
        <time>2021-06-06T08:27:54.444Z</time>
      </trkpt>
      <trkpt lat="45.82807" lon="5.48248">
        <ele>505</ele>
        <time>2021-06-06T08:27:55.445Z</time>
      </trkpt>
      <trkpt lat="45.82808" lon="5.48252">
        <ele>505</ele>
        <time>2021-06-06T08:27:56.445Z</time>
      </trkpt>
      <trkpt lat="45.82809" lon="5.48257">
        <ele>506</ele>
        <time>2021-06-06T08:27:57.444Z</time>
      </trkpt>
      <trkpt lat="45.82809" lon="5.48262">
        <ele>506</ele>
        <time>2021-06-06T08:27:58.444Z</time>
      </trkpt>
      <trkpt lat="45.8281" lon="5.48266">
        <ele>506</ele>
        <time>2021-06-06T08:27:59.445Z</time>
      </trkpt>
      <trkpt lat="45.82811" lon="5.48271">
        <ele>506</ele>
        <time>2021-06-06T08:28:00.445Z</time>
      </trkpt>
      <trkpt lat="45.82811" lon="5.48276">
        <ele>507</ele>
        <time>2021-06-06T08:28:01.445Z</time>
      </trkpt>
      <trkpt lat="45.82812" lon="5.48281">
        <ele>507</ele>
        <time>2021-06-06T08:28:02.445Z</time>
      </trkpt>
      <trkpt lat="45.82812" lon="5.48286">
        <ele>507</ele>
        <time>2021-06-06T08:28:03.445Z</time>
      </trkpt>
      <trkpt lat="45.82813" lon="5.48291">
        <ele>507</ele>
        <time>2021-06-06T08:28:04.444Z</time>
      </trkpt>
      <trkpt lat="45.82814" lon="5.48296">
        <ele>508</ele>
        <time>2021-06-06T08:28:05.445Z</time>
      </trkpt>
      <trkpt lat="45.82814" lon="5.48301">
        <ele>508</ele>
        <time>2021-06-06T08:28:06.445Z</time>
      </trkpt>
      <trkpt lat="45.82815" lon="5.48306">
        <ele>508</ele>
        <time>2021-06-06T08:28:07.444Z</time>
      </trkpt>
      <trkpt lat="45.82816" lon="5.48311">
        <ele>509</ele>
        <time>2021-06-06T08:28:08.445Z</time>
      </trkpt>
      <trkpt lat="45.82817" lon="5.48316">
        <ele>509</ele>
        <time>2021-06-06T08:28:09.444Z</time>
      </trkpt>
      <trkpt lat="45.82817" lon="5.48321">
        <ele>508</ele>
        <time>2021-06-06T08:28:10.444Z</time>
      </trkpt>
      <trkpt lat="45.82818" lon="5.48326">
        <ele>508</ele>
        <time>2021-06-06T08:28:11.445Z</time>
      </trkpt>
      <trkpt lat="45.82819" lon="5.48331">
        <ele>509</ele>
        <time>2021-06-06T08:28:12.444Z</time>
      </trkpt>
      <trkpt lat="45.82819" lon="5.48336">
        <ele>509</ele>
        <time>2021-06-06T08:28:13.445Z</time>
      </trkpt>
      <trkpt lat="45.8282" lon="5.48341">
        <ele>509</ele>
        <time>2021-06-06T08:28:14.445Z</time>
      </trkpt>
      <trkpt lat="45.8282" lon="5.48345">
        <ele>509</ele>
        <time>2021-06-06T08:28:15.445Z</time>
      </trkpt>
      <trkpt lat="45.82821" lon="5.4835">
        <ele>509</ele>
        <time>2021-06-06T08:28:16.445Z</time>
      </trkpt>
      <trkpt lat="45.82822" lon="5.48356">
        <ele>510</ele>
        <time>2021-06-06T08:28:17.445Z</time>
      </trkpt>
      <trkpt lat="45.82823" lon="5.48361">
        <ele>511</ele>
        <time>2021-06-06T08:28:18.444Z</time>
      </trkpt>
      <trkpt lat="45.82824" lon="5.48366">
        <ele>511</ele>
        <time>2021-06-06T08:28:19.445Z</time>
      </trkpt>
      <trkpt lat="45.82825" lon="5.48371">
        <ele>512</ele>
        <time>2021-06-06T08:28:20.444Z</time>
      </trkpt>
      <trkpt lat="45.82826" lon="5.48376">
        <ele>512</ele>
        <time>2021-06-06T08:28:21.444Z</time>
      </trkpt>
      <trkpt lat="45.82827" lon="5.48381">
        <ele>513</ele>
        <time>2021-06-06T08:28:22.444Z</time>
      </trkpt>
      <trkpt lat="45.82828" lon="5.48385">
        <ele>513</ele>
        <time>2021-06-06T08:28:23.444Z</time>
      </trkpt>
      <trkpt lat="45.82829" lon="5.4839">
        <ele>513</ele>
        <time>2021-06-06T08:28:24.445Z</time>
      </trkpt>
      <trkpt lat="45.82831" lon="5.48395">
        <ele>513</ele>
        <time>2021-06-06T08:28:25.445Z</time>
      </trkpt>
      <trkpt lat="45.82832" lon="5.48399">
        <ele>513</ele>
        <time>2021-06-06T08:28:26.445Z</time>
      </trkpt>
      <trkpt lat="45.82833" lon="5.48404">
        <ele>513</ele>
        <time>2021-06-06T08:28:27.444Z</time>
      </trkpt>
      <trkpt lat="45.82834" lon="5.48409">
        <ele>513</ele>
        <time>2021-06-06T08:28:28.444Z</time>
      </trkpt>
      <trkpt lat="45.82835" lon="5.48413">
        <ele>514</ele>
        <time>2021-06-06T08:28:29.445Z</time>
      </trkpt>
      <trkpt lat="45.82836" lon="5.48418">
        <ele>514</ele>
        <time>2021-06-06T08:28:30.445Z</time>
      </trkpt>
      <trkpt lat="45.82837" lon="5.48422">
        <ele>514</ele>
        <time>2021-06-06T08:28:31.444Z</time>
      </trkpt>
      <trkpt lat="45.82839" lon="5.48426">
        <ele>514</ele>
        <time>2021-06-06T08:28:32.444Z</time>
      </trkpt>
      <trkpt lat="45.82841" lon="5.4843">
        <ele>514</ele>
        <time>2021-06-06T08:28:33.444Z</time>
      </trkpt>
      <trkpt lat="45.82842" lon="5.48434">
        <ele>515</ele>
        <time>2021-06-06T08:28:34.445Z</time>
      </trkpt>
      <trkpt lat="45.82844" lon="5.48439">
        <ele>515</ele>
        <time>2021-06-06T08:28:35.444Z</time>
      </trkpt>
      <trkpt lat="45.82847" lon="5.48443">
        <ele>515</ele>
        <time>2021-06-06T08:28:36.445Z</time>
      </trkpt>
      <trkpt lat="45.82849" lon="5.48447">
        <ele>516</ele>
        <time>2021-06-06T08:28:37.445Z</time>
      </trkpt>
      <trkpt lat="45.82851" lon="5.4845">
        <ele>516</ele>
        <time>2021-06-06T08:28:38.445Z</time>
      </trkpt>
      <trkpt lat="45.82854" lon="5.48454">
        <ele>517</ele>
        <time>2021-06-06T08:28:39.444Z</time>
      </trkpt>
      <trkpt lat="45.82856" lon="5.48457">
        <ele>517</ele>
        <time>2021-06-06T08:28:40.445Z</time>
      </trkpt>
      <trkpt lat="45.82859" lon="5.4846">
        <ele>518</ele>
        <time>2021-06-06T08:28:41.445Z</time>
      </trkpt>
      <trkpt lat="45.82862" lon="5.48462">
        <ele>519</ele>
        <time>2021-06-06T08:28:42.445Z</time>
      </trkpt>
      <trkpt lat="45.82865" lon="5.48465">
        <ele>519</ele>
        <time>2021-06-06T08:28:43.445Z</time>
      </trkpt>
      <trkpt lat="45.82869" lon="5.48467">
        <ele>520</ele>
        <time>2021-06-06T08:28:44.445Z</time>
      </trkpt>
      <trkpt lat="45.82872" lon="5.4847">
        <ele>521</ele>
        <time>2021-06-06T08:28:45.445Z</time>
      </trkpt>
      <trkpt lat="45.82876" lon="5.48471">
        <ele>522</ele>
        <time>2021-06-06T08:28:46.444Z</time>
      </trkpt>
      <trkpt lat="45.82879" lon="5.48473">
        <ele>523</ele>
        <time>2021-06-06T08:28:47.444Z</time>
      </trkpt>
      <trkpt lat="45.82882" lon="5.48474">
        <ele>523</ele>
        <time>2021-06-06T08:28:48.444Z</time>
      </trkpt>
      <trkpt lat="45.82886" lon="5.48475">
        <ele>524</ele>
        <time>2021-06-06T08:28:49.444Z</time>
      </trkpt>
      <trkpt lat="45.82889" lon="5.48476">
        <ele>524</ele>
        <time>2021-06-06T08:28:50.445Z</time>
      </trkpt>
      <trkpt lat="45.82893" lon="5.48477">
        <ele>525</ele>
        <time>2021-06-06T08:28:51.445Z</time>
      </trkpt>
      <trkpt lat="45.82896" lon="5.48478">
        <ele>526</ele>
        <time>2021-06-06T08:28:52.444Z</time>
      </trkpt>
      <trkpt lat="45.829" lon="5.48479">
        <ele>526</ele>
        <time>2021-06-06T08:28:53.445Z</time>
      </trkpt>
      <trkpt lat="45.82903" lon="5.48481">
        <ele>527</ele>
        <time>2021-06-06T08:28:54.444Z</time>
      </trkpt>
      <trkpt lat="45.82907" lon="5.48482">
        <ele>528</ele>
        <time>2021-06-06T08:28:55.445Z</time>
      </trkpt>
      <trkpt lat="45.82911" lon="5.48483">
        <ele>528</ele>
        <time>2021-06-06T08:28:56.444Z</time>
      </trkpt>
      <trkpt lat="45.82915" lon="5.48484">
        <ele>528</ele>
        <time>2021-06-06T08:28:57.444Z</time>
      </trkpt>
      <trkpt lat="45.82919" lon="5.48485">
        <ele>528</ele>
        <time>2021-06-06T08:28:58.445Z</time>
      </trkpt>
      <trkpt lat="45.82923" lon="5.48486">
        <ele>528</ele>
        <time>2021-06-06T08:28:59.444Z</time>
      </trkpt>
      <trkpt lat="45.82926" lon="5.48487">
        <ele>529</ele>
        <time>2021-06-06T08:29:00.444Z</time>
      </trkpt>
      <trkpt lat="45.8293" lon="5.48488">
        <ele>529</ele>
        <time>2021-06-06T08:29:01.444Z</time>
      </trkpt>
      <trkpt lat="45.82933" lon="5.48489">
        <ele>529</ele>
        <time>2021-06-06T08:29:02.444Z</time>
      </trkpt>
      <trkpt lat="45.82937" lon="5.48489">
        <ele>529</ele>
        <time>2021-06-06T08:29:03.444Z</time>
      </trkpt>
      <trkpt lat="45.82941" lon="5.4849">
        <ele>529</ele>
        <time>2021-06-06T08:29:04.444Z</time>
      </trkpt>
      <trkpt lat="45.82944" lon="5.48491">
        <ele>529</ele>
        <time>2021-06-06T08:29:05.445Z</time>
      </trkpt>
      <trkpt lat="45.82947" lon="5.48492">
        <ele>529</ele>
        <time>2021-06-06T08:29:06.444Z</time>
      </trkpt>
      <trkpt lat="45.82951" lon="5.48492">
        <ele>530</ele>
        <time>2021-06-06T08:29:07.444Z</time>
      </trkpt>
      <trkpt lat="45.82955" lon="5.48493">
        <ele>530</ele>
        <time>2021-06-06T08:29:08.444Z</time>
      </trkpt>
      <trkpt lat="45.82959" lon="5.48494">
        <ele>531</ele>
        <time>2021-06-06T08:29:09.444Z</time>
      </trkpt>
      <trkpt lat="45.82962" lon="5.48496">
        <ele>531</ele>
        <time>2021-06-06T08:29:10.445Z</time>
      </trkpt>
      <trkpt lat="45.82965" lon="5.48498">
        <ele>531</ele>
        <time>2021-06-06T08:29:11.445Z</time>
      </trkpt>
      <trkpt lat="45.82968" lon="5.485">
        <ele>532</ele>
        <time>2021-06-06T08:29:12.445Z</time>
      </trkpt>
      <trkpt lat="45.82973" lon="5.48503">
        <ele>532</ele>
        <time>2021-06-06T08:29:13.444Z</time>
      </trkpt>
      <trkpt lat="45.82977" lon="5.48507">
        <ele>533</ele>
        <time>2021-06-06T08:29:14.445Z</time>
      </trkpt>
      <trkpt lat="45.8298" lon="5.4851">
        <ele>533</ele>
        <time>2021-06-06T08:29:15.444Z</time>
      </trkpt>
      <trkpt lat="45.82983" lon="5.48512">
        <ele>534</ele>
        <time>2021-06-06T08:29:16.445Z</time>
      </trkpt>
      <trkpt lat="45.82987" lon="5.48516">
        <ele>534</ele>
        <time>2021-06-06T08:29:17.445Z</time>
      </trkpt>
      <trkpt lat="45.8299" lon="5.48519">
        <ele>535</ele>
        <time>2021-06-06T08:29:18.444Z</time>
      </trkpt>
      <trkpt lat="45.82993" lon="5.48522">
        <ele>536</ele>
        <time>2021-06-06T08:29:19.445Z</time>
      </trkpt>
      <trkpt lat="45.82996" lon="5.48525">
        <ele>536</ele>
        <time>2021-06-06T08:29:20.445Z</time>
      </trkpt>
      <trkpt lat="45.82999" lon="5.48529">
        <ele>536</ele>
        <time>2021-06-06T08:29:21.445Z</time>
      </trkpt>
      <trkpt lat="45.83001" lon="5.48533">
        <ele>536</ele>
        <time>2021-06-06T08:29:22.445Z</time>
      </trkpt>
      <trkpt lat="45.83004" lon="5.48536">
        <ele>536</ele>
        <time>2021-06-06T08:29:23.444Z</time>
      </trkpt>
      <trkpt lat="45.83007" lon="5.48539">
        <ele>536</ele>
        <time>2021-06-06T08:29:24.445Z</time>
      </trkpt>
      <trkpt lat="45.8301" lon="5.48543">
        <ele>537</ele>
        <time>2021-06-06T08:29:25.444Z</time>
      </trkpt>
      <trkpt lat="45.83012" lon="5.48547">
        <ele>537</ele>
        <time>2021-06-06T08:29:26.445Z</time>
      </trkpt>
      <trkpt lat="45.83015" lon="5.48551">
        <ele>538</ele>
        <time>2021-06-06T08:29:27.444Z</time>
      </trkpt>
      <trkpt lat="45.83017" lon="5.48555">
        <ele>538</ele>
        <time>2021-06-06T08:29:28.444Z</time>
      </trkpt>
      <trkpt lat="45.83019" lon="5.48559">
        <ele>539</ele>
        <time>2021-06-06T08:29:29.444Z</time>
      </trkpt>
      <trkpt lat="45.8302" lon="5.48564">
        <ele>539</ele>
        <time>2021-06-06T08:29:30.444Z</time>
      </trkpt>
      <trkpt lat="45.83022" lon="5.48567">
        <ele>539</ele>
        <time>2021-06-06T08:29:31.445Z</time>
      </trkpt>
      <trkpt lat="45.83024" lon="5.48572">
        <ele>540</ele>
        <time>2021-06-06T08:29:32.444Z</time>
      </trkpt>
      <trkpt lat="45.83026" lon="5.48575">
        <ele>540</ele>
        <time>2021-06-06T08:29:33.444Z</time>
      </trkpt>
      <trkpt lat="45.83028" lon="5.4858">
        <ele>541</ele>
        <time>2021-06-06T08:29:34.444Z</time>
      </trkpt>
      <trkpt lat="45.8303" lon="5.48583">
        <ele>541</ele>
        <time>2021-06-06T08:29:35.445Z</time>
      </trkpt>
      <trkpt lat="45.83032" lon="5.48587">
        <ele>541</ele>
        <time>2021-06-06T08:29:36.445Z</time>
      </trkpt>
      <trkpt lat="45.83034" lon="5.48592">
        <ele>541</ele>
        <time>2021-06-06T08:29:37.444Z</time>
      </trkpt>
      <trkpt lat="45.83036" lon="5.48596">
        <ele>541</ele>
        <time>2021-06-06T08:29:38.444Z</time>
      </trkpt>
      <trkpt lat="45.83039" lon="5.48601">
        <ele>541</ele>
        <time>2021-06-06T08:29:39.445Z</time>
      </trkpt>
      <trkpt lat="45.8304" lon="5.48605">
        <ele>542</ele>
        <time>2021-06-06T08:29:40.444Z</time>
      </trkpt>
      <trkpt lat="45.83042" lon="5.4861">
        <ele>542</ele>
        <time>2021-06-06T08:29:41.444Z</time>
      </trkpt>
      <trkpt lat="45.83044" lon="5.48614">
        <ele>541</ele>
        <time>2021-06-06T08:29:42.444Z</time>
      </trkpt>
      <trkpt lat="45.83046" lon="5.48618">
        <ele>541</ele>
        <time>2021-06-06T08:29:43.445Z</time>
      </trkpt>
      <trkpt lat="45.83048" lon="5.48622">
        <ele>541</ele>
        <time>2021-06-06T08:29:44.444Z</time>
      </trkpt>
      <trkpt lat="45.8305" lon="5.48626">
        <ele>541</ele>
        <time>2021-06-06T08:29:45.445Z</time>
      </trkpt>
      <trkpt lat="45.83052" lon="5.4863">
        <ele>541</ele>
        <time>2021-06-06T08:29:46.444Z</time>
      </trkpt>
      <trkpt lat="45.83054" lon="5.48634">
        <ele>541</ele>
        <time>2021-06-06T08:29:47.445Z</time>
      </trkpt>
      <trkpt lat="45.83056" lon="5.48638">
        <ele>541</ele>
        <time>2021-06-06T08:29:48.444Z</time>
      </trkpt>
      <trkpt lat="45.83058" lon="5.48642">
        <ele>541</ele>
        <time>2021-06-06T08:29:49.444Z</time>
      </trkpt>
      <trkpt lat="45.8306" lon="5.48646">
        <ele>541</ele>
        <time>2021-06-06T08:29:50.445Z</time>
      </trkpt>
      <trkpt lat="45.83062" lon="5.4865">
        <ele>541</ele>
        <time>2021-06-06T08:29:51.444Z</time>
      </trkpt>
      <trkpt lat="45.83064" lon="5.48654">
        <ele>541</ele>
        <time>2021-06-06T08:29:52.444Z</time>
      </trkpt>
      <trkpt lat="45.83066" lon="5.48658">
        <ele>541</ele>
        <time>2021-06-06T08:29:53.444Z</time>
      </trkpt>
      <trkpt lat="45.83068" lon="5.48662">
        <ele>541</ele>
        <time>2021-06-06T08:29:54.444Z</time>
      </trkpt>
      <trkpt lat="45.83071" lon="5.48666">
        <ele>542</ele>
        <time>2021-06-06T08:29:55.445Z</time>
      </trkpt>
      <trkpt lat="45.83073" lon="5.4867">
        <ele>543</ele>
        <time>2021-06-06T08:29:56.444Z</time>
      </trkpt>
      <trkpt lat="45.83076" lon="5.48674">
        <ele>543</ele>
        <time>2021-06-06T08:29:57.445Z</time>
      </trkpt>
      <trkpt lat="45.83078" lon="5.48677">
        <ele>544</ele>
        <time>2021-06-06T08:29:58.444Z</time>
      </trkpt>
      <trkpt lat="45.83079" lon="5.48681">
        <ele>544</ele>
        <time>2021-06-06T08:29:59.444Z</time>
      </trkpt>
      <trkpt lat="45.83082" lon="5.48686">
        <ele>545</ele>
        <time>2021-06-06T08:30:00.445Z</time>
      </trkpt>
      <trkpt lat="45.83084" lon="5.48689">
        <ele>545</ele>
        <time>2021-06-06T08:30:01.445Z</time>
      </trkpt>
      <trkpt lat="45.83086" lon="5.48693">
        <ele>546</ele>
        <time>2021-06-06T08:30:02.444Z</time>
      </trkpt>
      <trkpt lat="45.83088" lon="5.48697">
        <ele>547</ele>
        <time>2021-06-06T08:30:03.444Z</time>
      </trkpt>
      <trkpt lat="45.83089" lon="5.48701">
        <ele>547</ele>
        <time>2021-06-06T08:30:04.445Z</time>
      </trkpt>
      <trkpt lat="45.83091" lon="5.48705">
        <ele>548</ele>
        <time>2021-06-06T08:30:05.445Z</time>
      </trkpt>
      <trkpt lat="45.83092" lon="5.48709">
        <ele>548</ele>
        <time>2021-06-06T08:30:06.444Z</time>
      </trkpt>
      <trkpt lat="45.83094" lon="5.48714">
        <ele>548</ele>
        <time>2021-06-06T08:30:07.444Z</time>
      </trkpt>
      <trkpt lat="45.83095" lon="5.48718">
        <ele>549</ele>
        <time>2021-06-06T08:30:08.444Z</time>
      </trkpt>
      <trkpt lat="45.83096" lon="5.48723">
        <ele>549</ele>
        <time>2021-06-06T08:30:09.444Z</time>
      </trkpt>
      <trkpt lat="45.83096" lon="5.48728">
        <ele>549</ele>
        <time>2021-06-06T08:30:10.444Z</time>
      </trkpt>
      <trkpt lat="45.83097" lon="5.48733">
        <ele>549</ele>
        <time>2021-06-06T08:30:11.445Z</time>
      </trkpt>
      <trkpt lat="45.83098" lon="5.48737">
        <ele>549</ele>
        <time>2021-06-06T08:30:12.444Z</time>
      </trkpt>
      <trkpt lat="45.83099" lon="5.48742">
        <ele>550</ele>
        <time>2021-06-06T08:30:13.444Z</time>
      </trkpt>
      <trkpt lat="45.83101" lon="5.48746">
        <ele>550</ele>
        <time>2021-06-06T08:30:14.444Z</time>
      </trkpt>
      <trkpt lat="45.83102" lon="5.4875">
        <ele>550</ele>
        <time>2021-06-06T08:30:15.444Z</time>
      </trkpt>
      <trkpt lat="45.83104" lon="5.48754">
        <ele>550</ele>
        <time>2021-06-06T08:30:16.445Z</time>
      </trkpt>
      <trkpt lat="45.83106" lon="5.48758">
        <ele>551</ele>
        <time>2021-06-06T08:30:17.445Z</time>
      </trkpt>
      <trkpt lat="45.83109" lon="5.48762">
        <ele>551</ele>
        <time>2021-06-06T08:30:18.444Z</time>
      </trkpt>
      <trkpt lat="45.83111" lon="5.48766">
        <ele>551</ele>
        <time>2021-06-06T08:30:19.445Z</time>
      </trkpt>
      <trkpt lat="45.83114" lon="5.48769">
        <ele>551</ele>
        <time>2021-06-06T08:30:20.445Z</time>
      </trkpt>
      <trkpt lat="45.83116" lon="5.48772">
        <ele>552</ele>
        <time>2021-06-06T08:30:21.444Z</time>
      </trkpt>
      <trkpt lat="45.83118" lon="5.48776">
        <ele>552</ele>
        <time>2021-06-06T08:30:22.444Z</time>
      </trkpt>
      <trkpt lat="45.83121" lon="5.48779">
        <ele>552</ele>
        <time>2021-06-06T08:30:23.444Z</time>
      </trkpt>
      <trkpt lat="45.83124" lon="5.48781">
        <ele>553</ele>
        <time>2021-06-06T08:30:24.444Z</time>
      </trkpt>
      <trkpt lat="45.83127" lon="5.48783">
        <ele>553</ele>
        <time>2021-06-06T08:30:25.445Z</time>
      </trkpt>
      <trkpt lat="45.8313" lon="5.48786">
        <ele>554</ele>
        <time>2021-06-06T08:30:26.445Z</time>
      </trkpt>
      <trkpt lat="45.83133" lon="5.48787">
        <ele>554</ele>
        <time>2021-06-06T08:30:27.444Z</time>
      </trkpt>
      <trkpt lat="45.83136" lon="5.48789">
        <ele>554</ele>
        <time>2021-06-06T08:30:28.444Z</time>
      </trkpt>
      <trkpt lat="45.83139" lon="5.48791">
        <ele>554</ele>
        <time>2021-06-06T08:30:29.444Z</time>
      </trkpt>
      <trkpt lat="45.83142" lon="5.48793">
        <ele>555</ele>
        <time>2021-06-06T08:30:30.445Z</time>
      </trkpt>
      <trkpt lat="45.83144" lon="5.48795">
        <ele>555</ele>
        <time>2021-06-06T08:30:31.445Z</time>
      </trkpt>
      <trkpt lat="45.83148" lon="5.48797">
        <ele>556</ele>
        <time>2021-06-06T08:30:32.444Z</time>
      </trkpt>
      <trkpt lat="45.83151" lon="5.48799">
        <ele>556</ele>
        <time>2021-06-06T08:30:33.444Z</time>
      </trkpt>
      <trkpt lat="45.83154" lon="5.48801">
        <ele>557</ele>
        <time>2021-06-06T08:30:34.444Z</time>
      </trkpt>
      <trkpt lat="45.83158" lon="5.48802">
        <ele>557</ele>
        <time>2021-06-06T08:30:35.445Z</time>
      </trkpt>
      <trkpt lat="45.83161" lon="5.48804">
        <ele>557</ele>
        <time>2021-06-06T08:30:36.444Z</time>
      </trkpt>
      <trkpt lat="45.83165" lon="5.48806">
        <ele>557</ele>
        <time>2021-06-06T08:30:37.444Z</time>
      </trkpt>
      <trkpt lat="45.83169" lon="5.4881">
        <ele>557</ele>
        <time>2021-06-06T08:30:38.444Z</time>
      </trkpt>
      <trkpt lat="45.83171" lon="5.48813">
        <ele>556</ele>
        <time>2021-06-06T08:30:39.444Z</time>
      </trkpt>
      <trkpt lat="45.83174" lon="5.48817">
        <ele>556</ele>
        <time>2021-06-06T08:30:40.444Z</time>
      </trkpt>
      <trkpt lat="45.83176" lon="5.4882">
        <ele>555</ele>
        <time>2021-06-06T08:30:41.444Z</time>
      </trkpt>
      <trkpt lat="45.83178" lon="5.48823">
        <ele>555</ele>
        <time>2021-06-06T08:30:42.444Z</time>
      </trkpt>
      <trkpt lat="45.83181" lon="5.48827">
        <ele>555</ele>
        <time>2021-06-06T08:30:43.444Z</time>
      </trkpt>
      <trkpt lat="45.83183" lon="5.4883">
        <ele>555</ele>
        <time>2021-06-06T08:30:44.445Z</time>
      </trkpt>
      <trkpt lat="45.83185" lon="5.48834">
        <ele>555</ele>
        <time>2021-06-06T08:30:45.444Z</time>
      </trkpt>
      <trkpt lat="45.83188" lon="5.48838">
        <ele>555</ele>
        <time>2021-06-06T08:30:46.444Z</time>
      </trkpt>
      <trkpt lat="45.8319" lon="5.48842">
        <ele>555</ele>
        <time>2021-06-06T08:30:47.444Z</time>
      </trkpt>
      <trkpt lat="45.83192" lon="5.48847">
        <ele>555</ele>
        <time>2021-06-06T08:30:48.445Z</time>
      </trkpt>
      <trkpt lat="45.83194" lon="5.4885">
        <ele>555</ele>
        <time>2021-06-06T08:30:49.444Z</time>
      </trkpt>
      <trkpt lat="45.83196" lon="5.48855">
        <ele>555</ele>
        <time>2021-06-06T08:30:50.444Z</time>
      </trkpt>
      <trkpt lat="45.83198" lon="5.48859">
        <ele>555</ele>
        <time>2021-06-06T08:30:51.444Z</time>
      </trkpt>
      <trkpt lat="45.83199" lon="5.48864">
        <ele>554</ele>
        <time>2021-06-06T08:30:52.444Z</time>
      </trkpt>
      <trkpt lat="45.83201" lon="5.48868">
        <ele>554</ele>
        <time>2021-06-06T08:30:53.444Z</time>
      </trkpt>
      <trkpt lat="45.83202" lon="5.48872">
        <ele>554</ele>
        <time>2021-06-06T08:30:54.444Z</time>
      </trkpt>
      <trkpt lat="45.83204" lon="5.48876">
        <ele>554</ele>
        <time>2021-06-06T08:30:55.445Z</time>
      </trkpt>
      <trkpt lat="45.83205" lon="5.4888">
        <ele>553</ele>
        <time>2021-06-06T08:30:56.444Z</time>
      </trkpt>
      <trkpt lat="45.83206" lon="5.48885">
        <ele>552</ele>
        <time>2021-06-06T08:30:57.444Z</time>
      </trkpt>
      <trkpt lat="45.83207" lon="5.48888">
        <ele>552</ele>
        <time>2021-06-06T08:30:58.444Z</time>
      </trkpt>
      <trkpt lat="45.83209" lon="5.48893">
        <ele>551</ele>
        <time>2021-06-06T08:30:59.444Z</time>
      </trkpt>
      <trkpt lat="45.8321" lon="5.48897">
        <ele>551</ele>
        <time>2021-06-06T08:31:00.444Z</time>
      </trkpt>
      <trkpt lat="45.83212" lon="5.48901">
        <ele>551</ele>
        <time>2021-06-06T08:31:01.444Z</time>
      </trkpt>
      <trkpt lat="45.83214" lon="5.48904">
        <ele>550</ele>
        <time>2021-06-06T08:31:02.444Z</time>
      </trkpt>
      <trkpt lat="45.83217" lon="5.48907">
        <ele>550</ele>
        <time>2021-06-06T08:31:03.444Z</time>
      </trkpt>
      <trkpt lat="45.83219" lon="5.48909">
        <ele>550</ele>
        <time>2021-06-06T08:31:04.444Z</time>
      </trkpt>
      <trkpt lat="45.83222" lon="5.48912">
        <ele>550</ele>
        <time>2021-06-06T08:31:05.444Z</time>
      </trkpt>
      <trkpt lat="45.83225" lon="5.48913">
        <ele>550</ele>
        <time>2021-06-06T08:31:06.445Z</time>
      </trkpt>
      <trkpt lat="45.83229" lon="5.48915">
        <ele>551</ele>
        <time>2021-06-06T08:31:07.444Z</time>
      </trkpt>
      <trkpt lat="45.83232" lon="5.48916">
        <ele>551</ele>
        <time>2021-06-06T08:31:08.444Z</time>
      </trkpt>
      <trkpt lat="45.83236" lon="5.48917">
        <ele>552</ele>
        <time>2021-06-06T08:31:09.444Z</time>
      </trkpt>
      <trkpt lat="45.83239" lon="5.48917">
        <ele>552</ele>
        <time>2021-06-06T08:31:10.445Z</time>
      </trkpt>
      <trkpt lat="45.83243" lon="5.48918">
        <ele>553</ele>
        <time>2021-06-06T08:31:11.445Z</time>
      </trkpt>
      <trkpt lat="45.83247" lon="5.48918">
        <ele>553</ele>
        <time>2021-06-06T08:31:12.444Z</time>
      </trkpt>
      <trkpt lat="45.83251" lon="5.48918">
        <ele>554</ele>
        <time>2021-06-06T08:31:13.444Z</time>
      </trkpt>
      <trkpt lat="45.83255" lon="5.48918">
        <ele>555</ele>
        <time>2021-06-06T08:31:14.444Z</time>
      </trkpt>
      <trkpt lat="45.83258" lon="5.48917">
        <ele>556</ele>
        <time>2021-06-06T08:31:15.444Z</time>
      </trkpt>
      <trkpt lat="45.83262" lon="5.48917">
        <ele>557</ele>
        <time>2021-06-06T08:31:16.444Z</time>
      </trkpt>
      <trkpt lat="45.83265" lon="5.48916">
        <ele>557</ele>
        <time>2021-06-06T08:31:17.444Z</time>
      </trkpt>
      <trkpt lat="45.83268" lon="5.48916">
        <ele>558</ele>
        <time>2021-06-06T08:31:18.444Z</time>
      </trkpt>
      <trkpt lat="45.83272" lon="5.48915">
        <ele>559</ele>
        <time>2021-06-06T08:31:19.444Z</time>
      </trkpt>
      <trkpt lat="45.83275" lon="5.48915">
        <ele>559</ele>
        <time>2021-06-06T08:31:20.444Z</time>
      </trkpt>
      <trkpt lat="45.83278" lon="5.48914">
        <ele>559</ele>
        <time>2021-06-06T08:31:21.444Z</time>
      </trkpt>
      <trkpt lat="45.83282" lon="5.48914">
        <ele>559</ele>
        <time>2021-06-06T08:31:22.444Z</time>
      </trkpt>
      <trkpt lat="45.83287" lon="5.48914">
        <ele>560</ele>
        <time>2021-06-06T08:31:23.444Z</time>
      </trkpt>
      <trkpt lat="45.83291" lon="5.48915">
        <ele>560</ele>
        <time>2021-06-06T08:31:24.445Z</time>
      </trkpt>
      <trkpt lat="45.83295" lon="5.48915">
        <ele>561</ele>
        <time>2021-06-06T08:31:25.444Z</time>
      </trkpt>
      <trkpt lat="45.83299" lon="5.48916">
        <ele>562</ele>
        <time>2021-06-06T08:31:26.445Z</time>
      </trkpt>
      <trkpt lat="45.83302" lon="5.48916">
        <ele>563</ele>
        <time>2021-06-06T08:31:27.444Z</time>
      </trkpt>
      <trkpt lat="45.83306" lon="5.48916">
        <ele>564</ele>
        <time>2021-06-06T08:31:28.444Z</time>
      </trkpt>
      <trkpt lat="45.8331" lon="5.48917">
        <ele>565</ele>
        <time>2021-06-06T08:31:29.444Z</time>
      </trkpt>
      <trkpt lat="45.83313" lon="5.48918">
        <ele>566</ele>
        <time>2021-06-06T08:31:30.444Z</time>
      </trkpt>
      <trkpt lat="45.83317" lon="5.48918">
        <ele>567</ele>
        <time>2021-06-06T08:31:31.445Z</time>
      </trkpt>
      <trkpt lat="45.83321" lon="5.48918">
        <ele>568</ele>
        <time>2021-06-06T08:31:32.444Z</time>
      </trkpt>
      <trkpt lat="45.83324" lon="5.48918">
        <ele>568</ele>
        <time>2021-06-06T08:31:33.445Z</time>
      </trkpt>
      <trkpt lat="45.83327" lon="5.48919">
        <ele>568</ele>
        <time>2021-06-06T08:31:34.444Z</time>
      </trkpt>
      <trkpt lat="45.8333" lon="5.48919">
        <ele>569</ele>
        <time>2021-06-06T08:31:35.444Z</time>
      </trkpt>
      <trkpt lat="45.83334" lon="5.48919">
        <ele>569</ele>
        <time>2021-06-06T08:31:36.444Z</time>
      </trkpt>
      <trkpt lat="45.83337" lon="5.48919">
        <ele>569</ele>
        <time>2021-06-06T08:31:37.444Z</time>
      </trkpt>
      <trkpt lat="45.83341" lon="5.4892">
        <ele>569</ele>
        <time>2021-06-06T08:31:38.445Z</time>
      </trkpt>
      <trkpt lat="45.83344" lon="5.4892">
        <ele>569</ele>
        <time>2021-06-06T08:31:39.444Z</time>
      </trkpt>
      <trkpt lat="45.83348" lon="5.4892">
        <ele>570</ele>
        <time>2021-06-06T08:31:40.444Z</time>
      </trkpt>
      <trkpt lat="45.83351" lon="5.4892">
        <ele>570</ele>
        <time>2021-06-06T08:31:41.444Z</time>
      </trkpt>
      <trkpt lat="45.83355" lon="5.4892">
        <ele>570</ele>
        <time>2021-06-06T08:31:42.444Z</time>
      </trkpt>
      <trkpt lat="45.83359" lon="5.4892">
        <ele>570</ele>
        <time>2021-06-06T08:31:43.444Z</time>
      </trkpt>
      <trkpt lat="45.83362" lon="5.4892">
        <ele>571</ele>
        <time>2021-06-06T08:31:44.444Z</time>
      </trkpt>
      <trkpt lat="45.83365" lon="5.48919">
        <ele>571</ele>
        <time>2021-06-06T08:31:45.444Z</time>
      </trkpt>
      <trkpt lat="45.83369" lon="5.48919">
        <ele>571</ele>
        <time>2021-06-06T08:31:46.445Z</time>
      </trkpt>
      <trkpt lat="45.83373" lon="5.48919">
        <ele>572</ele>
        <time>2021-06-06T08:31:47.444Z</time>
      </trkpt>
      <trkpt lat="45.83376" lon="5.48919">
        <ele>572</ele>
        <time>2021-06-06T08:31:48.444Z</time>
      </trkpt>
      <trkpt lat="45.8338" lon="5.48919">
        <ele>573</ele>
        <time>2021-06-06T08:31:49.444Z</time>
      </trkpt>
      <trkpt lat="45.83384" lon="5.48919">
        <ele>573</ele>
        <time>2021-06-06T08:31:50.445Z</time>
      </trkpt>
      <trkpt lat="45.83387" lon="5.48919">
        <ele>573</ele>
        <time>2021-06-06T08:31:51.445Z</time>
      </trkpt>
      <trkpt lat="45.83391" lon="5.48919">
        <ele>574</ele>
        <time>2021-06-06T08:31:52.445Z</time>
      </trkpt>
      <trkpt lat="45.83394" lon="5.48919">
        <ele>574</ele>
        <time>2021-06-06T08:31:53.444Z</time>
      </trkpt>
      <trkpt lat="45.83397" lon="5.48919">
        <ele>575</ele>
        <time>2021-06-06T08:31:54.444Z</time>
      </trkpt>
      <trkpt lat="45.83401" lon="5.48918">
        <ele>575</ele>
        <time>2021-06-06T08:31:55.444Z</time>
      </trkpt>
      <trkpt lat="45.83405" lon="5.48918">
        <ele>575</ele>
        <time>2021-06-06T08:31:56.445Z</time>
      </trkpt>
      <trkpt lat="45.83408" lon="5.48918">
        <ele>575</ele>
        <time>2021-06-06T08:31:57.444Z</time>
      </trkpt>
      <trkpt lat="45.83412" lon="5.48918">
        <ele>575</ele>
        <time>2021-06-06T08:31:58.444Z</time>
      </trkpt>
      <trkpt lat="45.83415" lon="5.48918">
        <ele>575</ele>
        <time>2021-06-06T08:31:59.444Z</time>
      </trkpt>
      <trkpt lat="45.83419" lon="5.48917">
        <ele>576</ele>
        <time>2021-06-06T08:32:00.445Z</time>
      </trkpt>
      <trkpt lat="45.83422" lon="5.48917">
        <ele>576</ele>
        <time>2021-06-06T08:32:01.445Z</time>
      </trkpt>
      <trkpt lat="45.83426" lon="5.48917">
        <ele>576</ele>
        <time>2021-06-06T08:32:02.445Z</time>
      </trkpt>
      <trkpt lat="45.83429" lon="5.48917">
        <ele>576</ele>
        <time>2021-06-06T08:32:03.444Z</time>
      </trkpt>
      <trkpt lat="45.83433" lon="5.48917">
        <ele>576</ele>
        <time>2021-06-06T08:32:04.444Z</time>
      </trkpt>
      <trkpt lat="45.83436" lon="5.48916">
        <ele>575</ele>
        <time>2021-06-06T08:32:05.444Z</time>
      </trkpt>
      <trkpt lat="45.8344" lon="5.48916">
        <ele>575</ele>
        <time>2021-06-06T08:32:06.445Z</time>
      </trkpt>
      <trkpt lat="45.83443" lon="5.48916">
        <ele>575</ele>
        <time>2021-06-06T08:32:07.444Z</time>
      </trkpt>
      <trkpt lat="45.83447" lon="5.48917">
        <ele>575</ele>
        <time>2021-06-06T08:32:08.444Z</time>
      </trkpt>
      <trkpt lat="45.8345" lon="5.48917">
        <ele>575</ele>
        <time>2021-06-06T08:32:09.444Z</time>
      </trkpt>
      <trkpt lat="45.83454" lon="5.48917">
        <ele>576</ele>
        <time>2021-06-06T08:32:10.444Z</time>
      </trkpt>
      <trkpt lat="45.83458" lon="5.48916">
        <ele>576</ele>
        <time>2021-06-06T08:32:11.444Z</time>
      </trkpt>
      <trkpt lat="45.83461" lon="5.48915">
        <ele>577</ele>
        <time>2021-06-06T08:32:12.444Z</time>
      </trkpt>
      <trkpt lat="45.83464" lon="5.48914">
        <ele>577</ele>
        <time>2021-06-06T08:32:13.444Z</time>
      </trkpt>
      <trkpt lat="45.83468" lon="5.48913">
        <ele>577</ele>
        <time>2021-06-06T08:32:14.444Z</time>
      </trkpt>
      <trkpt lat="45.83471" lon="5.48912">
        <ele>577</ele>
        <time>2021-06-06T08:32:15.444Z</time>
      </trkpt>
      <trkpt lat="45.83474" lon="5.48911">
        <ele>578</ele>
        <time>2021-06-06T08:32:16.444Z</time>
      </trkpt>
      <trkpt lat="45.83477" lon="5.48909">
        <ele>578</ele>
        <time>2021-06-06T08:32:17.444Z</time>
      </trkpt>
      <trkpt lat="45.8348" lon="5.48907">
        <ele>578</ele>
        <time>2021-06-06T08:32:18.444Z</time>
      </trkpt>
      <trkpt lat="45.83483" lon="5.48905">
        <ele>578</ele>
        <time>2021-06-06T08:32:19.444Z</time>
      </trkpt>
      <trkpt lat="45.83485" lon="5.48901">
        <ele>578</ele>
        <time>2021-06-06T08:32:20.444Z</time>
      </trkpt>
      <trkpt lat="45.83487" lon="5.48898">
        <ele>578</ele>
        <time>2021-06-06T08:32:21.444Z</time>
      </trkpt>
      <trkpt lat="45.83489" lon="5.48894">
        <ele>578</ele>
        <time>2021-06-06T08:32:22.444Z</time>
      </trkpt>
      <trkpt lat="45.83492" lon="5.48892">
        <ele>578</ele>
        <time>2021-06-06T08:32:23.445Z</time>
      </trkpt>
      <trkpt lat="45.83495" lon="5.48889">
        <ele>578</ele>
        <time>2021-06-06T08:32:24.444Z</time>
      </trkpt>
      <trkpt lat="45.83499" lon="5.48887">
        <ele>579</ele>
        <time>2021-06-06T08:32:25.444Z</time>
      </trkpt>
      <trkpt lat="45.83502" lon="5.48884">
        <ele>579</ele>
        <time>2021-06-06T08:32:26.445Z</time>
      </trkpt>
      <trkpt lat="45.83505" lon="5.48881">
        <ele>579</ele>
        <time>2021-06-06T08:32:27.444Z</time>
      </trkpt>
      <trkpt lat="45.83507" lon="5.48879">
        <ele>580</ele>
        <time>2021-06-06T08:32:28.444Z</time>
      </trkpt>
      <trkpt lat="45.8351" lon="5.48876">
        <ele>580</ele>
        <time>2021-06-06T08:32:29.444Z</time>
      </trkpt>
      <trkpt lat="45.83512" lon="5.48872">
        <ele>580</ele>
        <time>2021-06-06T08:32:30.445Z</time>
      </trkpt>
      <trkpt lat="45.83514" lon="5.48869">
        <ele>581</ele>
        <time>2021-06-06T08:32:31.444Z</time>
      </trkpt>
      <trkpt lat="45.83517" lon="5.48866">
        <ele>581</ele>
        <time>2021-06-06T08:32:32.444Z</time>
      </trkpt>
      <trkpt lat="45.83519" lon="5.48863">
        <ele>581</ele>
        <time>2021-06-06T08:32:33.444Z</time>
      </trkpt>
      <trkpt lat="45.83522" lon="5.48859">
        <ele>581</ele>
        <time>2021-06-06T08:32:34.444Z</time>
      </trkpt>
      <trkpt lat="45.83525" lon="5.48857">
        <ele>582</ele>
        <time>2021-06-06T08:32:35.444Z</time>
      </trkpt>
      <trkpt lat="45.83528" lon="5.48854">
        <ele>582</ele>
        <time>2021-06-06T08:32:36.444Z</time>
      </trkpt>
      <trkpt lat="45.8353" lon="5.4885">
        <ele>582</ele>
        <time>2021-06-06T08:32:37.444Z</time>
      </trkpt>
      <trkpt lat="45.83532" lon="5.48847">
        <ele>582</ele>
        <time>2021-06-06T08:32:38.444Z</time>
      </trkpt>
      <trkpt lat="45.83536" lon="5.48845">
        <ele>583</ele>
        <time>2021-06-06T08:32:39.445Z</time>
      </trkpt>
      <trkpt lat="45.8354" lon="5.48842">
        <ele>583</ele>
        <time>2021-06-06T08:32:40.444Z</time>
      </trkpt>
      <trkpt lat="45.83543" lon="5.48838">
        <ele>583</ele>
        <time>2021-06-06T08:32:41.444Z</time>
      </trkpt>
      <trkpt lat="45.83546" lon="5.48834">
        <ele>584</ele>
        <time>2021-06-06T08:32:42.444Z</time>
      </trkpt>
      <trkpt lat="45.83549" lon="5.48831">
        <ele>584</ele>
        <time>2021-06-06T08:32:43.444Z</time>
      </trkpt>
      <trkpt lat="45.8355" lon="5.48828">
        <ele>584</ele>
        <time>2021-06-06T08:32:44.444Z</time>
      </trkpt>
      <trkpt lat="45.83553" lon="5.48824">
        <ele>585</ele>
        <time>2021-06-06T08:32:45.444Z</time>
      </trkpt>
      <trkpt lat="45.83556" lon="5.4882">
        <ele>585</ele>
        <time>2021-06-06T08:32:46.444Z</time>
      </trkpt>
      <trkpt lat="45.83559" lon="5.48817">
        <ele>585</ele>
        <time>2021-06-06T08:32:47.444Z</time>
      </trkpt>
      <trkpt lat="45.83562" lon="5.48814">
        <ele>586</ele>
        <time>2021-06-06T08:32:48.444Z</time>
      </trkpt>
      <trkpt lat="45.83565" lon="5.4881">
        <ele>586</ele>
        <time>2021-06-06T08:32:49.444Z</time>
      </trkpt>
      <trkpt lat="45.83568" lon="5.48805">
        <ele>586</ele>
        <time>2021-06-06T08:32:50.444Z</time>
      </trkpt>
      <trkpt lat="45.8357" lon="5.48802">
        <ele>586</ele>
        <time>2021-06-06T08:32:51.444Z</time>
      </trkpt>
      <trkpt lat="45.83572" lon="5.48798">
        <ele>586</ele>
        <time>2021-06-06T08:32:52.445Z</time>
      </trkpt>
      <trkpt lat="45.83575" lon="5.48795">
        <ele>586</ele>
        <time>2021-06-06T08:32:53.444Z</time>
      </trkpt>
      <trkpt lat="45.83577" lon="5.48791">
        <ele>586</ele>
        <time>2021-06-06T08:32:54.444Z</time>
      </trkpt>
      <trkpt lat="45.83579" lon="5.48789">
        <ele>586</ele>
        <time>2021-06-06T08:32:55.445Z</time>
      </trkpt>
      <trkpt lat="45.83582" lon="5.48784">
        <ele>586</ele>
        <time>2021-06-06T08:32:56.445Z</time>
      </trkpt>
      <trkpt lat="45.83585" lon="5.48781">
        <ele>585</ele>
        <time>2021-06-06T08:32:57.444Z</time>
      </trkpt>
      <trkpt lat="45.83587" lon="5.48778">
        <ele>584</ele>
        <time>2021-06-06T08:32:58.444Z</time>
      </trkpt>
      <trkpt lat="45.83589" lon="5.48774">
        <ele>584</ele>
        <time>2021-06-06T08:32:59.444Z</time>
      </trkpt>
      <trkpt lat="45.83591" lon="5.48771">
        <ele>584</ele>
        <time>2021-06-06T08:33:00.444Z</time>
      </trkpt>
      <trkpt lat="45.83594" lon="5.48767">
        <ele>583</ele>
        <time>2021-06-06T08:33:01.444Z</time>
      </trkpt>
      <trkpt lat="45.83597" lon="5.48764">
        <ele>583</ele>
        <time>2021-06-06T08:33:02.444Z</time>
      </trkpt>
      <trkpt lat="45.83599" lon="5.4876">
        <ele>583</ele>
        <time>2021-06-06T08:33:03.444Z</time>
      </trkpt>
      <trkpt lat="45.83601" lon="5.48757">
        <ele>583</ele>
        <time>2021-06-06T08:33:04.444Z</time>
      </trkpt>
      <trkpt lat="45.83603" lon="5.48753">
        <ele>583</ele>
        <time>2021-06-06T08:33:05.444Z</time>
      </trkpt>
      <trkpt lat="45.83606" lon="5.48749">
        <ele>583</ele>
        <time>2021-06-06T08:33:06.445Z</time>
      </trkpt>
      <trkpt lat="45.83608" lon="5.48745">
        <ele>583</ele>
        <time>2021-06-06T08:33:07.444Z</time>
      </trkpt>
      <trkpt lat="45.83611" lon="5.48742">
        <ele>582</ele>
        <time>2021-06-06T08:33:08.444Z</time>
      </trkpt>
      <trkpt lat="45.83613" lon="5.48739">
        <ele>583</ele>
        <time>2021-06-06T08:33:09.444Z</time>
      </trkpt>
      <trkpt lat="45.83616" lon="5.48735">
        <ele>583</ele>
        <time>2021-06-06T08:33:10.444Z</time>
      </trkpt>
      <trkpt lat="45.83618" lon="5.48732">
        <ele>583</ele>
        <time>2021-06-06T08:33:11.444Z</time>
      </trkpt>
      <trkpt lat="45.83621" lon="5.48729">
        <ele>583</ele>
        <time>2021-06-06T08:33:12.444Z</time>
      </trkpt>
      <trkpt lat="45.83624" lon="5.48727">
        <ele>583</ele>
        <time>2021-06-06T08:33:13.444Z</time>
      </trkpt>
      <trkpt lat="45.83627" lon="5.48724">
        <ele>583</ele>
        <time>2021-06-06T08:33:14.444Z</time>
      </trkpt>
      <trkpt lat="45.83631" lon="5.48721">
        <ele>583</ele>
        <time>2021-06-06T08:33:15.444Z</time>
      </trkpt>
      <trkpt lat="45.83634" lon="5.48719">
        <ele>583</ele>
        <time>2021-06-06T08:33:16.444Z</time>
      </trkpt>
      <trkpt lat="45.83637" lon="5.48717">
        <ele>583</ele>
        <time>2021-06-06T08:33:17.444Z</time>
      </trkpt>
      <trkpt lat="45.8364" lon="5.48714">
        <ele>583</ele>
        <time>2021-06-06T08:33:18.444Z</time>
      </trkpt>
      <trkpt lat="45.83644" lon="5.48712">
        <ele>583</ele>
        <time>2021-06-06T08:33:19.444Z</time>
      </trkpt>
      <trkpt lat="45.83647" lon="5.48709">
        <ele>584</ele>
        <time>2021-06-06T08:33:20.444Z</time>
      </trkpt>
      <trkpt lat="45.8365" lon="5.48707">
        <ele>584</ele>
        <time>2021-06-06T08:33:21.445Z</time>
      </trkpt>
      <trkpt lat="45.83654" lon="5.48705">
        <ele>585</ele>
        <time>2021-06-06T08:33:22.444Z</time>
      </trkpt>
      <trkpt lat="45.83657" lon="5.48703">
        <ele>585</ele>
        <time>2021-06-06T08:33:23.444Z</time>
      </trkpt>
      <trkpt lat="45.83661" lon="5.487">
        <ele>585</ele>
        <time>2021-06-06T08:33:24.444Z</time>
      </trkpt>
      <trkpt lat="45.83664" lon="5.48698">
        <ele>586</ele>
        <time>2021-06-06T08:33:25.445Z</time>
      </trkpt>
      <trkpt lat="45.83668" lon="5.48695">
        <ele>586</ele>
        <time>2021-06-06T08:33:26.444Z</time>
      </trkpt>
      <trkpt lat="45.8367" lon="5.48693">
        <ele>586</ele>
        <time>2021-06-06T08:33:27.444Z</time>
      </trkpt>
      <trkpt lat="45.83674" lon="5.4869">
        <ele>586</ele>
        <time>2021-06-06T08:33:28.444Z</time>
      </trkpt>
      <trkpt lat="45.83677" lon="5.48688">
        <ele>586</ele>
        <time>2021-06-06T08:33:29.445Z</time>
      </trkpt>
      <trkpt lat="45.8368" lon="5.48685">
        <ele>587</ele>
        <time>2021-06-06T08:33:30.444Z</time>
      </trkpt>
      <trkpt lat="45.83683" lon="5.48683">
        <ele>587</ele>
        <time>2021-06-06T08:33:31.444Z</time>
      </trkpt>
      <trkpt lat="45.83686" lon="5.4868">
        <ele>587</ele>
        <time>2021-06-06T08:33:32.445Z</time>
      </trkpt>
      <trkpt lat="45.83689" lon="5.48677">
        <ele>587</ele>
        <time>2021-06-06T08:33:33.445Z</time>
      </trkpt>
      <trkpt lat="45.83692" lon="5.48674">
        <ele>588</ele>
        <time>2021-06-06T08:33:34.445Z</time>
      </trkpt>
      <trkpt lat="45.83695" lon="5.48672">
        <ele>588</ele>
        <time>2021-06-06T08:33:35.444Z</time>
      </trkpt>
      <trkpt lat="45.83698" lon="5.48669">
        <ele>588</ele>
        <time>2021-06-06T08:33:36.444Z</time>
      </trkpt>
      <trkpt lat="45.83702" lon="5.48665">
        <ele>588</ele>
        <time>2021-06-06T08:33:37.444Z</time>
      </trkpt>
      <trkpt lat="45.83705" lon="5.48662">
        <ele>589</ele>
        <time>2021-06-06T08:33:38.445Z</time>
      </trkpt>
      <trkpt lat="45.83708" lon="5.4866">
        <ele>589</ele>
        <time>2021-06-06T08:33:39.445Z</time>
      </trkpt>
      <trkpt lat="45.83711" lon="5.48656">
        <ele>589</ele>
        <time>2021-06-06T08:33:40.445Z</time>
      </trkpt>
      <trkpt lat="45.83713" lon="5.48653">
        <ele>589</ele>
        <time>2021-06-06T08:33:41.445Z</time>
      </trkpt>
      <trkpt lat="45.83716" lon="5.48649">
        <ele>589</ele>
        <time>2021-06-06T08:33:42.445Z</time>
      </trkpt>
      <trkpt lat="45.83718" lon="5.48645">
        <ele>590</ele>
        <time>2021-06-06T08:33:43.445Z</time>
      </trkpt>
      <trkpt lat="45.8372" lon="5.48642">
        <ele>590</ele>
        <time>2021-06-06T08:33:44.444Z</time>
      </trkpt>
      <trkpt lat="45.83722" lon="5.48638">
        <ele>590</ele>
        <time>2021-06-06T08:33:45.445Z</time>
      </trkpt>
      <trkpt lat="45.83724" lon="5.48635">
        <ele>590</ele>
        <time>2021-06-06T08:33:46.445Z</time>
      </trkpt>
      <trkpt lat="45.83727" lon="5.4863">
        <ele>590</ele>
        <time>2021-06-06T08:33:47.445Z</time>
      </trkpt>
      <trkpt lat="45.83729" lon="5.48626">
        <ele>590</ele>
        <time>2021-06-06T08:33:48.445Z</time>
      </trkpt>
      <trkpt lat="45.83731" lon="5.48621">
        <ele>590</ele>
        <time>2021-06-06T08:33:49.445Z</time>
      </trkpt>
      <trkpt lat="45.83732" lon="5.48618">
        <ele>590</ele>
        <time>2021-06-06T08:33:50.445Z</time>
      </trkpt>
      <trkpt lat="45.83735" lon="5.48612">
        <ele>590</ele>
        <time>2021-06-06T08:33:51.445Z</time>
      </trkpt>
      <trkpt lat="45.83736" lon="5.48608">
        <ele>591</ele>
        <time>2021-06-06T08:33:52.445Z</time>
      </trkpt>
      <trkpt lat="45.83739" lon="5.48604">
        <ele>591</ele>
        <time>2021-06-06T08:33:53.444Z</time>
      </trkpt>
      <trkpt lat="45.83741" lon="5.486">
        <ele>591</ele>
        <time>2021-06-06T08:33:54.445Z</time>
      </trkpt>
      <trkpt lat="45.83743" lon="5.48595">
        <ele>591</ele>
        <time>2021-06-06T08:33:55.445Z</time>
      </trkpt>
      <trkpt lat="45.83745" lon="5.48591">
        <ele>592</ele>
        <time>2021-06-06T08:33:56.445Z</time>
      </trkpt>
      <trkpt lat="45.83747" lon="5.48588">
        <ele>592</ele>
        <time>2021-06-06T08:33:57.444Z</time>
      </trkpt>
      <trkpt lat="45.8375" lon="5.48583">
        <ele>592</ele>
        <time>2021-06-06T08:33:58.445Z</time>
      </trkpt>
      <trkpt lat="45.83753" lon="5.48579">
        <ele>593</ele>
        <time>2021-06-06T08:33:59.445Z</time>
      </trkpt>
      <trkpt lat="45.83755" lon="5.48575">
        <ele>593</ele>
        <time>2021-06-06T08:34:00.444Z</time>
      </trkpt>
      <trkpt lat="45.83757" lon="5.48571">
        <ele>593</ele>
        <time>2021-06-06T08:34:01.445Z</time>
      </trkpt>
      <trkpt lat="45.83759" lon="5.48567">
        <ele>593</ele>
        <time>2021-06-06T08:34:02.444Z</time>
      </trkpt>
      <trkpt lat="45.83761" lon="5.48563">
        <ele>593</ele>
        <time>2021-06-06T08:34:03.445Z</time>
      </trkpt>
      <trkpt lat="45.83764" lon="5.48559">
        <ele>593</ele>
        <time>2021-06-06T08:34:04.445Z</time>
      </trkpt>
      <trkpt lat="45.83766" lon="5.48555">
        <ele>594</ele>
        <time>2021-06-06T08:34:05.445Z</time>
      </trkpt>
      <trkpt lat="45.83768" lon="5.48551">
        <ele>594</ele>
        <time>2021-06-06T08:34:06.445Z</time>
      </trkpt>
      <trkpt lat="45.83771" lon="5.48547">
        <ele>594</ele>
        <time>2021-06-06T08:34:07.445Z</time>
      </trkpt>
      <trkpt lat="45.83774" lon="5.48544">
        <ele>595</ele>
        <time>2021-06-06T08:34:08.445Z</time>
      </trkpt>
      <trkpt lat="45.83775" lon="5.48539">
        <ele>595</ele>
        <time>2021-06-06T08:34:09.445Z</time>
      </trkpt>
      <trkpt lat="45.83778" lon="5.48537">
        <ele>595</ele>
        <time>2021-06-06T08:34:10.444Z</time>
      </trkpt>
      <trkpt lat="45.83781" lon="5.48533">
        <ele>595</ele>
        <time>2021-06-06T08:34:11.444Z</time>
      </trkpt>
      <trkpt lat="45.83784" lon="5.48532">
        <ele>596</ele>
        <time>2021-06-06T08:34:12.445Z</time>
      </trkpt>
      <trkpt lat="45.83788" lon="5.48532">
        <ele>596</ele>
        <time>2021-06-06T08:34:13.445Z</time>
      </trkpt>
      <trkpt lat="45.8379" lon="5.48534">
        <ele>596</ele>
        <time>2021-06-06T08:34:14.444Z</time>
      </trkpt>
      <trkpt lat="45.83794" lon="5.48537">
        <ele>597</ele>
        <time>2021-06-06T08:34:15.445Z</time>
      </trkpt>
      <trkpt lat="45.83797" lon="5.48541">
        <ele>597</ele>
        <time>2021-06-06T08:34:16.445Z</time>
      </trkpt>
      <trkpt lat="45.83799" lon="5.48546">
        <ele>597</ele>
        <time>2021-06-06T08:34:17.444Z</time>
      </trkpt>
      <trkpt lat="45.838" lon="5.48551">
        <ele>598</ele>
        <time>2021-06-06T08:34:18.445Z</time>
      </trkpt>
      <trkpt lat="45.83802" lon="5.48557">
        <ele>598</ele>
        <time>2021-06-06T08:34:19.444Z</time>
      </trkpt>
      <trkpt lat="45.83803" lon="5.48563">
        <ele>599</ele>
        <time>2021-06-06T08:34:20.445Z</time>
      </trkpt>
      <trkpt lat="45.83804" lon="5.48568">
        <ele>600</ele>
        <time>2021-06-06T08:34:21.444Z</time>
      </trkpt>
      <trkpt lat="45.83805" lon="5.48574">
        <ele>600</ele>
        <time>2021-06-06T08:34:22.444Z</time>
      </trkpt>
      <trkpt lat="45.83806" lon="5.4858">
        <ele>601</ele>
        <time>2021-06-06T08:34:23.444Z</time>
      </trkpt>
      <trkpt lat="45.83806" lon="5.48586">
        <ele>601</ele>
        <time>2021-06-06T08:34:24.444Z</time>
      </trkpt>
      <trkpt lat="45.83806" lon="5.48591">
        <ele>602</ele>
        <time>2021-06-06T08:34:25.444Z</time>
      </trkpt>
      <trkpt lat="45.83807" lon="5.48597">
        <ele>602</ele>
        <time>2021-06-06T08:34:26.445Z</time>
      </trkpt>
      <trkpt lat="45.83807" lon="5.48602">
        <ele>603</ele>
        <time>2021-06-06T08:34:27.445Z</time>
      </trkpt>
      <trkpt lat="45.83808" lon="5.48607">
        <ele>603</ele>
        <time>2021-06-06T08:34:28.444Z</time>
      </trkpt>
      <trkpt lat="45.83809" lon="5.48613">
        <ele>603</ele>
        <time>2021-06-06T08:34:29.445Z</time>
      </trkpt>
      <trkpt lat="45.8381" lon="5.48619">
        <ele>603</ele>
        <time>2021-06-06T08:34:30.444Z</time>
      </trkpt>
      <trkpt lat="45.8381" lon="5.48624">
        <ele>604</ele>
        <time>2021-06-06T08:34:31.445Z</time>
      </trkpt>
      <trkpt lat="45.83811" lon="5.48629">
        <ele>604</ele>
        <time>2021-06-06T08:34:32.444Z</time>
      </trkpt>
      <trkpt lat="45.83811" lon="5.48635">
        <ele>604</ele>
        <time>2021-06-06T08:34:33.445Z</time>
      </trkpt>
      <trkpt lat="45.83812" lon="5.48641">
        <ele>604</ele>
        <time>2021-06-06T08:34:34.445Z</time>
      </trkpt>
      <trkpt lat="45.83813" lon="5.48646">
        <ele>605</ele>
        <time>2021-06-06T08:34:35.444Z</time>
      </trkpt>
      <trkpt lat="45.83813" lon="5.48651">
        <ele>605</ele>
        <time>2021-06-06T08:34:36.445Z</time>
      </trkpt>
      <trkpt lat="45.83814" lon="5.48657">
        <ele>605</ele>
        <time>2021-06-06T08:34:37.445Z</time>
      </trkpt>
      <trkpt lat="45.83815" lon="5.48663">
        <ele>606</ele>
        <time>2021-06-06T08:34:38.445Z</time>
      </trkpt>
      <trkpt lat="45.83815" lon="5.48668">
        <ele>606</ele>
        <time>2021-06-06T08:34:39.444Z</time>
      </trkpt>
      <trkpt lat="45.83816" lon="5.48674">
        <ele>606</ele>
        <time>2021-06-06T08:34:40.445Z</time>
      </trkpt>
      <trkpt lat="45.83816" lon="5.4868">
        <ele>606</ele>
        <time>2021-06-06T08:34:41.444Z</time>
      </trkpt>
      <trkpt lat="45.83817" lon="5.48685">
        <ele>606</ele>
        <time>2021-06-06T08:34:42.444Z</time>
      </trkpt>
      <trkpt lat="45.83817" lon="5.48691">
        <ele>607</ele>
        <time>2021-06-06T08:34:43.444Z</time>
      </trkpt>
      <trkpt lat="45.83818" lon="5.48696">
        <ele>607</ele>
        <time>2021-06-06T08:34:44.445Z</time>
      </trkpt>
      <trkpt lat="45.83818" lon="5.48701">
        <ele>607</ele>
        <time>2021-06-06T08:34:45.445Z</time>
      </trkpt>
      <trkpt lat="45.83819" lon="5.48706">
        <ele>608</ele>
        <time>2021-06-06T08:34:46.444Z</time>
      </trkpt>
      <trkpt lat="45.8382" lon="5.4871">
        <ele>608</ele>
        <time>2021-06-06T08:34:47.445Z</time>
      </trkpt>
      <trkpt lat="45.83822" lon="5.48715">
        <ele>609</ele>
        <time>2021-06-06T08:34:48.444Z</time>
      </trkpt>
      <trkpt lat="45.83823" lon="5.48719">
        <ele>609</ele>
        <time>2021-06-06T08:34:49.444Z</time>
      </trkpt>
      <trkpt lat="45.83825" lon="5.48724">
        <ele>610</ele>
        <time>2021-06-06T08:34:50.445Z</time>
      </trkpt>
      <trkpt lat="45.83827" lon="5.48729">
        <ele>611</ele>
        <time>2021-06-06T08:34:51.444Z</time>
      </trkpt>
      <trkpt lat="45.83828" lon="5.48732">
        <ele>612</ele>
        <time>2021-06-06T08:34:52.445Z</time>
      </trkpt>
      <trkpt lat="45.83831" lon="5.48737">
        <ele>612</ele>
        <time>2021-06-06T08:34:53.444Z</time>
      </trkpt>
      <trkpt lat="45.83832" lon="5.4874">
        <ele>613</ele>
        <time>2021-06-06T08:34:54.445Z</time>
      </trkpt>
      <trkpt lat="45.83834" lon="5.48744">
        <ele>613</ele>
        <time>2021-06-06T08:34:55.444Z</time>
      </trkpt>
      <trkpt lat="45.83836" lon="5.48749">
        <ele>614</ele>
        <time>2021-06-06T08:34:56.444Z</time>
      </trkpt>
      <trkpt lat="45.83839" lon="5.48752">
        <ele>614</ele>
        <time>2021-06-06T08:34:57.445Z</time>
      </trkpt>
      <trkpt lat="45.83842" lon="5.48757">
        <ele>614</ele>
        <time>2021-06-06T08:34:58.445Z</time>
      </trkpt>
      <trkpt lat="45.83844" lon="5.4876">
        <ele>615</ele>
        <time>2021-06-06T08:34:59.444Z</time>
      </trkpt>
      <trkpt lat="45.83846" lon="5.48764">
        <ele>615</ele>
        <time>2021-06-06T08:35:00.444Z</time>
      </trkpt>
      <trkpt lat="45.83848" lon="5.48769">
        <ele>615</ele>
        <time>2021-06-06T08:35:01.445Z</time>
      </trkpt>
      <trkpt lat="45.83849" lon="5.48773">
        <ele>615</ele>
        <time>2021-06-06T08:35:02.445Z</time>
      </trkpt>
      <trkpt lat="45.83851" lon="5.48778">
        <ele>615</ele>
        <time>2021-06-06T08:35:03.445Z</time>
      </trkpt>
      <trkpt lat="45.83853" lon="5.48783">
        <ele>615</ele>
        <time>2021-06-06T08:35:04.445Z</time>
      </trkpt>
      <trkpt lat="45.83855" lon="5.48787">
        <ele>615</ele>
        <time>2021-06-06T08:35:05.445Z</time>
      </trkpt>
      <trkpt lat="45.83856" lon="5.48791">
        <ele>615</ele>
        <time>2021-06-06T08:35:06.445Z</time>
      </trkpt>
      <trkpt lat="45.83858" lon="5.48797">
        <ele>615</ele>
        <time>2021-06-06T08:35:07.445Z</time>
      </trkpt>
      <trkpt lat="45.8386" lon="5.48802">
        <ele>615</ele>
        <time>2021-06-06T08:35:08.444Z</time>
      </trkpt>
      <trkpt lat="45.83861" lon="5.48806">
        <ele>615</ele>
        <time>2021-06-06T08:35:09.445Z</time>
      </trkpt>
      <trkpt lat="45.83862" lon="5.48811">
        <ele>616</ele>
        <time>2021-06-06T08:35:10.445Z</time>
      </trkpt>
      <trkpt lat="45.83863" lon="5.48815">
        <ele>616</ele>
        <time>2021-06-06T08:35:11.445Z</time>
      </trkpt>
      <trkpt lat="45.83864" lon="5.4882">
        <ele>616</ele>
        <time>2021-06-06T08:35:12.445Z</time>
      </trkpt>
      <trkpt lat="45.83865" lon="5.48825">
        <ele>616</ele>
        <time>2021-06-06T08:35:13.445Z</time>
      </trkpt>
      <trkpt lat="45.83866" lon="5.4883">
        <ele>616</ele>
        <time>2021-06-06T08:35:14.445Z</time>
      </trkpt>
      <trkpt lat="45.83867" lon="5.48834">
        <ele>616</ele>
        <time>2021-06-06T08:35:15.444Z</time>
      </trkpt>
      <trkpt lat="45.83868" lon="5.48839">
        <ele>617</ele>
        <time>2021-06-06T08:35:16.444Z</time>
      </trkpt>
      <trkpt lat="45.83869" lon="5.48844">
        <ele>617</ele>
        <time>2021-06-06T08:35:17.445Z</time>
      </trkpt>
      <trkpt lat="45.83871" lon="5.48848">
        <ele>617</ele>
        <time>2021-06-06T08:35:18.445Z</time>
      </trkpt>
      <trkpt lat="45.83872" lon="5.48853">
        <ele>617</ele>
        <time>2021-06-06T08:35:19.445Z</time>
      </trkpt>
      <trkpt lat="45.83873" lon="5.48859">
        <ele>618</ele>
        <time>2021-06-06T08:35:20.444Z</time>
      </trkpt>
      <trkpt lat="45.83875" lon="5.48864">
        <ele>618</ele>
        <time>2021-06-06T08:35:21.444Z</time>
      </trkpt>
      <trkpt lat="45.83877" lon="5.4887">
        <ele>618</ele>
        <time>2021-06-06T08:35:22.445Z</time>
      </trkpt>
      <trkpt lat="45.83879" lon="5.48875">
        <ele>619</ele>
        <time>2021-06-06T08:35:23.445Z</time>
      </trkpt>
      <trkpt lat="45.8388" lon="5.48879">
        <ele>620</ele>
        <time>2021-06-06T08:35:24.444Z</time>
      </trkpt>
      <trkpt lat="45.83882" lon="5.48884">
        <ele>620</ele>
        <time>2021-06-06T08:35:25.445Z</time>
      </trkpt>
      <trkpt lat="45.83883" lon="5.48889">
        <ele>621</ele>
        <time>2021-06-06T08:35:26.445Z</time>
      </trkpt>
      <trkpt lat="45.83885" lon="5.48894">
        <ele>621</ele>
        <time>2021-06-06T08:35:27.445Z</time>
      </trkpt>
      <trkpt lat="45.83886" lon="5.48899">
        <ele>621</ele>
        <time>2021-06-06T08:35:28.444Z</time>
      </trkpt>
      <trkpt lat="45.83888" lon="5.48904">
        <ele>622</ele>
        <time>2021-06-06T08:35:29.445Z</time>
      </trkpt>
      <trkpt lat="45.8389" lon="5.4891">
        <ele>623</ele>
        <time>2021-06-06T08:35:30.444Z</time>
      </trkpt>
      <trkpt lat="45.83892" lon="5.48915">
        <ele>623</ele>
        <time>2021-06-06T08:35:31.444Z</time>
      </trkpt>
      <trkpt lat="45.83894" lon="5.4892">
        <ele>624</ele>
        <time>2021-06-06T08:35:32.445Z</time>
      </trkpt>
      <trkpt lat="45.83895" lon="5.48925">
        <ele>625</ele>
        <time>2021-06-06T08:35:33.445Z</time>
      </trkpt>
      <trkpt lat="45.83897" lon="5.4893">
        <ele>625</ele>
        <time>2021-06-06T08:35:34.445Z</time>
      </trkpt>
      <trkpt lat="45.83899" lon="5.48934">
        <ele>626</ele>
        <time>2021-06-06T08:35:35.445Z</time>
      </trkpt>
      <trkpt lat="45.839" lon="5.48939">
        <ele>626</ele>
        <time>2021-06-06T08:35:36.445Z</time>
      </trkpt>
      <trkpt lat="45.83902" lon="5.48944">
        <ele>627</ele>
        <time>2021-06-06T08:35:37.444Z</time>
      </trkpt>
      <trkpt lat="45.83905" lon="5.48949">
        <ele>627</ele>
        <time>2021-06-06T08:35:38.445Z</time>
      </trkpt>
      <trkpt lat="45.83906" lon="5.48952">
        <ele>628</ele>
        <time>2021-06-06T08:35:39.445Z</time>
      </trkpt>
      <trkpt lat="45.83909" lon="5.48956">
        <ele>628</ele>
        <time>2021-06-06T08:35:40.444Z</time>
      </trkpt>
      <trkpt lat="45.83912" lon="5.48961">
        <ele>629</ele>
        <time>2021-06-06T08:35:41.444Z</time>
      </trkpt>
      <trkpt lat="45.83914" lon="5.48964">
        <ele>629</ele>
        <time>2021-06-06T08:35:42.445Z</time>
      </trkpt>
      <trkpt lat="45.83917" lon="5.48966">
        <ele>630</ele>
        <time>2021-06-06T08:35:43.445Z</time>
      </trkpt>
      <trkpt lat="45.83919" lon="5.48968">
        <ele>630</ele>
        <time>2021-06-06T08:35:44.445Z</time>
      </trkpt>
      <trkpt lat="45.83922" lon="5.48969">
        <ele>631</ele>
        <time>2021-06-06T08:35:45.444Z</time>
      </trkpt>
      <trkpt lat="45.83925" lon="5.48969">
        <ele>631</ele>
        <time>2021-06-06T08:35:46.445Z</time>
      </trkpt>
      <trkpt lat="45.83928" lon="5.48969">
        <ele>631</ele>
        <time>2021-06-06T08:35:47.445Z</time>
      </trkpt>
      <trkpt lat="45.83932" lon="5.48969">
        <ele>631</ele>
        <time>2021-06-06T08:35:48.444Z</time>
      </trkpt>
      <trkpt lat="45.83935" lon="5.48969">
        <ele>631</ele>
        <time>2021-06-06T08:35:49.444Z</time>
      </trkpt>
      <trkpt lat="45.83939" lon="5.48968">
        <ele>631</ele>
        <time>2021-06-06T08:35:50.444Z</time>
      </trkpt>
      <trkpt lat="45.83943" lon="5.48968">
        <ele>631</ele>
        <time>2021-06-06T08:35:51.445Z</time>
      </trkpt>
      <trkpt lat="45.83947" lon="5.48967">
        <ele>631</ele>
        <time>2021-06-06T08:35:52.445Z</time>
      </trkpt>
      <trkpt lat="45.83951" lon="5.48968">
        <ele>631</ele>
        <time>2021-06-06T08:35:53.444Z</time>
      </trkpt>
      <trkpt lat="45.83955" lon="5.48969">
        <ele>630</ele>
        <time>2021-06-06T08:35:54.445Z</time>
      </trkpt>
      <trkpt lat="45.83958" lon="5.48971">
        <ele>630</ele>
        <time>2021-06-06T08:35:55.445Z</time>
      </trkpt>
      <trkpt lat="45.83961" lon="5.48973">
        <ele>630</ele>
        <time>2021-06-06T08:35:56.444Z</time>
      </trkpt>
      <trkpt lat="45.83965" lon="5.48976">
        <ele>631</ele>
        <time>2021-06-06T08:35:57.444Z</time>
      </trkpt>
      <trkpt lat="45.83969" lon="5.4898">
        <ele>631</ele>
        <time>2021-06-06T08:35:58.444Z</time>
      </trkpt>
      <trkpt lat="45.83971" lon="5.48984">
        <ele>631</ele>
        <time>2021-06-06T08:35:59.444Z</time>
      </trkpt>
      <trkpt lat="45.83973" lon="5.48989">
        <ele>631</ele>
        <time>2021-06-06T08:36:00.444Z</time>
      </trkpt>
      <trkpt lat="45.83974" lon="5.48993">
        <ele>631</ele>
        <time>2021-06-06T08:36:01.445Z</time>
      </trkpt>
      <trkpt lat="45.83975" lon="5.48998">
        <ele>632</ele>
        <time>2021-06-06T08:36:02.444Z</time>
      </trkpt>
      <trkpt lat="45.83975" lon="5.49001">
        <ele>632</ele>
        <time>2021-06-06T08:36:03.445Z</time>
      </trkpt>
      <trkpt lat="45.83976" lon="5.49006">
        <ele>632</ele>
        <time>2021-06-06T08:36:04.445Z</time>
      </trkpt>
      <trkpt lat="45.83978" lon="5.49011">
        <ele>632</ele>
        <time>2021-06-06T08:36:05.445Z</time>
      </trkpt>
      <trkpt lat="45.8398" lon="5.49017">
        <ele>633</ele>
        <time>2021-06-06T08:36:06.444Z</time>
      </trkpt>
      <trkpt lat="45.83982" lon="5.49023">
        <ele>634</ele>
        <time>2021-06-06T08:36:07.445Z</time>
      </trkpt>
      <trkpt lat="45.83985" lon="5.49028">
        <ele>634</ele>
        <time>2021-06-06T08:36:08.444Z</time>
      </trkpt>
      <trkpt lat="45.83988" lon="5.49032">
        <ele>635</ele>
        <time>2021-06-06T08:36:09.445Z</time>
      </trkpt>
      <trkpt lat="45.8399" lon="5.49036">
        <ele>636</ele>
        <time>2021-06-06T08:36:10.444Z</time>
      </trkpt>
      <trkpt lat="45.83993" lon="5.49039">
        <ele>636</ele>
        <time>2021-06-06T08:36:11.444Z</time>
      </trkpt>
      <trkpt lat="45.83996" lon="5.49043">
        <ele>637</ele>
        <time>2021-06-06T08:36:12.444Z</time>
      </trkpt>
      <trkpt lat="45.83999" lon="5.49048">
        <ele>638</ele>
        <time>2021-06-06T08:36:13.445Z</time>
      </trkpt>
      <trkpt lat="45.84001" lon="5.49052">
        <ele>638</ele>
        <time>2021-06-06T08:36:14.445Z</time>
      </trkpt>
      <trkpt lat="45.84004" lon="5.49057">
        <ele>638</ele>
        <time>2021-06-06T08:36:15.444Z</time>
      </trkpt>
      <trkpt lat="45.84006" lon="5.49061">
        <ele>639</ele>
        <time>2021-06-06T08:36:16.445Z</time>
      </trkpt>
      <trkpt lat="45.84007" lon="5.49063">
        <ele>639</ele>
        <time>2021-06-06T08:36:17.445Z</time>
      </trkpt>
      <trkpt lat="45.84008" lon="5.49066">
        <ele>639</ele>
        <time>2021-06-06T08:36:18.445Z</time>
      </trkpt>
      <trkpt lat="45.8401" lon="5.4907">
        <ele>640</ele>
        <time>2021-06-06T08:36:19.445Z</time>
      </trkpt>
      <trkpt lat="45.84013" lon="5.49075">
        <ele>640</ele>
        <time>2021-06-06T08:36:20.445Z</time>
      </trkpt>
      <trkpt lat="45.84015" lon="5.49079">
        <ele>641</ele>
        <time>2021-06-06T08:36:21.445Z</time>
      </trkpt>
      <trkpt lat="45.84018" lon="5.49084">
        <ele>642</ele>
        <time>2021-06-06T08:36:22.445Z</time>
      </trkpt>
      <trkpt lat="45.84019" lon="5.49088">
        <ele>643</ele>
        <time>2021-06-06T08:36:23.444Z</time>
      </trkpt>
      <trkpt lat="45.84021" lon="5.49092">
        <ele>643</ele>
        <time>2021-06-06T08:36:24.445Z</time>
      </trkpt>
      <trkpt lat="45.84023" lon="5.49096">
        <ele>644</ele>
        <time>2021-06-06T08:36:25.444Z</time>
      </trkpt>
      <trkpt lat="45.84025" lon="5.49099">
        <ele>645</ele>
        <time>2021-06-06T08:36:26.445Z</time>
      </trkpt>
      <trkpt lat="45.84027" lon="5.49104">
        <ele>646</ele>
        <time>2021-06-06T08:36:27.445Z</time>
      </trkpt>
      <trkpt lat="45.84029" lon="5.49108">
        <ele>647</ele>
        <time>2021-06-06T08:36:28.445Z</time>
      </trkpt>
      <trkpt lat="45.84031" lon="5.49113">
        <ele>647</ele>
        <time>2021-06-06T08:36:29.445Z</time>
      </trkpt>
      <trkpt lat="45.84033" lon="5.49117">
        <ele>648</ele>
        <time>2021-06-06T08:36:30.445Z</time>
      </trkpt>
      <trkpt lat="45.84036" lon="5.49121">
        <ele>648</ele>
        <time>2021-06-06T08:36:31.445Z</time>
      </trkpt>
      <trkpt lat="45.84038" lon="5.49125">
        <ele>649</ele>
        <time>2021-06-06T08:36:32.444Z</time>
      </trkpt>
      <trkpt lat="45.8404" lon="5.49129">
        <ele>649</ele>
        <time>2021-06-06T08:36:33.444Z</time>
      </trkpt>
      <trkpt lat="45.84043" lon="5.49134">
        <ele>649</ele>
        <time>2021-06-06T08:36:34.445Z</time>
      </trkpt>
      <trkpt lat="45.84046" lon="5.49138">
        <ele>650</ele>
        <time>2021-06-06T08:36:35.445Z</time>
      </trkpt>
      <trkpt lat="45.84049" lon="5.49143">
        <ele>651</ele>
        <time>2021-06-06T08:36:36.445Z</time>
      </trkpt>
      <trkpt lat="45.84052" lon="5.49147">
        <ele>651</ele>
        <time>2021-06-06T08:36:37.445Z</time>
      </trkpt>
      <trkpt lat="45.84056" lon="5.49151">
        <ele>652</ele>
        <time>2021-06-06T08:36:38.444Z</time>
      </trkpt>
      <trkpt lat="45.84059" lon="5.49157">
        <ele>652</ele>
        <time>2021-06-06T08:36:39.444Z</time>
      </trkpt>
      <trkpt lat="45.84061" lon="5.49161">
        <ele>653</ele>
        <time>2021-06-06T08:36:40.445Z</time>
      </trkpt>
      <trkpt lat="45.84062" lon="5.49165">
        <ele>653</ele>
        <time>2021-06-06T08:36:41.444Z</time>
      </trkpt>
      <trkpt lat="45.84064" lon="5.49169">
        <ele>654</ele>
        <time>2021-06-06T08:36:42.444Z</time>
      </trkpt>
      <trkpt lat="45.84065" lon="5.49173">
        <ele>654</ele>
        <time>2021-06-06T08:36:43.445Z</time>
      </trkpt>
      <trkpt lat="45.84066" lon="5.49176">
        <ele>655</ele>
        <time>2021-06-06T08:36:44.445Z</time>
      </trkpt>
      <trkpt lat="45.84067" lon="5.49181">
        <ele>655</ele>
        <time>2021-06-06T08:36:45.445Z</time>
      </trkpt>
      <trkpt lat="45.84069" lon="5.49185">
        <ele>656</ele>
        <time>2021-06-06T08:36:46.444Z</time>
      </trkpt>
      <trkpt lat="45.8407" lon="5.4919">
        <ele>656</ele>
        <time>2021-06-06T08:36:47.444Z</time>
      </trkpt>
      <trkpt lat="45.84071" lon="5.49194">
        <ele>656</ele>
        <time>2021-06-06T08:36:48.444Z</time>
      </trkpt>
      <trkpt lat="45.84073" lon="5.49199">
        <ele>656</ele>
        <time>2021-06-06T08:36:49.445Z</time>
      </trkpt>
      <trkpt lat="45.84075" lon="5.49203">
        <ele>656</ele>
        <time>2021-06-06T08:36:50.444Z</time>
      </trkpt>
      <trkpt lat="45.84076" lon="5.49208">
        <ele>656</ele>
        <time>2021-06-06T08:36:51.444Z</time>
      </trkpt>
      <trkpt lat="45.84078" lon="5.49213">
        <ele>657</ele>
        <time>2021-06-06T08:36:52.444Z</time>
      </trkpt>
      <trkpt lat="45.84079" lon="5.49218">
        <ele>657</ele>
        <time>2021-06-06T08:36:53.444Z</time>
      </trkpt>
      <trkpt lat="45.8408" lon="5.49224">
        <ele>658</ele>
        <time>2021-06-06T08:36:54.445Z</time>
      </trkpt>
      <trkpt lat="45.84081" lon="5.49229">
        <ele>658</ele>
        <time>2021-06-06T08:36:55.445Z</time>
      </trkpt>
      <trkpt lat="45.84082" lon="5.49234">
        <ele>659</ele>
        <time>2021-06-06T08:36:56.445Z</time>
      </trkpt>
      <trkpt lat="45.84084" lon="5.4924">
        <ele>659</ele>
        <time>2021-06-06T08:36:57.445Z</time>
      </trkpt>
      <trkpt lat="45.84085" lon="5.49246">
        <ele>660</ele>
        <time>2021-06-06T08:36:58.445Z</time>
      </trkpt>
      <trkpt lat="45.84087" lon="5.49252">
        <ele>660</ele>
        <time>2021-06-06T08:36:59.444Z</time>
      </trkpt>
      <trkpt lat="45.84088" lon="5.49258">
        <ele>661</ele>
        <time>2021-06-06T08:37:00.444Z</time>
      </trkpt>
      <trkpt lat="45.84089" lon="5.49266">
        <ele>662</ele>
        <time>2021-06-06T08:37:01.445Z</time>
      </trkpt>
      <trkpt lat="45.84089" lon="5.49272">
        <ele>662</ele>
        <time>2021-06-06T08:37:02.444Z</time>
      </trkpt>
      <trkpt lat="45.84089" lon="5.49278">
        <ele>663</ele>
        <time>2021-06-06T08:37:03.444Z</time>
      </trkpt>
      <trkpt lat="45.84091" lon="5.49284">
        <ele>664</ele>
        <time>2021-06-06T08:37:04.444Z</time>
      </trkpt>
      <trkpt lat="45.84091" lon="5.49289">
        <ele>665</ele>
        <time>2021-06-06T08:37:05.445Z</time>
      </trkpt>
      <trkpt lat="45.84092" lon="5.49294">
        <ele>666</ele>
        <time>2021-06-06T08:37:06.444Z</time>
      </trkpt>
      <trkpt lat="45.84094" lon="5.49299">
        <ele>667</ele>
        <time>2021-06-06T08:37:07.444Z</time>
      </trkpt>
      <trkpt lat="45.84095" lon="5.49304">
        <ele>667</ele>
        <time>2021-06-06T08:37:08.444Z</time>
      </trkpt>
      <trkpt lat="45.84096" lon="5.4931">
        <ele>668</ele>
        <time>2021-06-06T08:37:09.444Z</time>
      </trkpt>
      <trkpt lat="45.84098" lon="5.49315">
        <ele>669</ele>
        <time>2021-06-06T08:37:10.444Z</time>
      </trkpt>
      <trkpt lat="45.84101" lon="5.49319">
        <ele>669</ele>
        <time>2021-06-06T08:37:11.445Z</time>
      </trkpt>
      <trkpt lat="45.84102" lon="5.49324">
        <ele>669</ele>
        <time>2021-06-06T08:37:12.444Z</time>
      </trkpt>
      <trkpt lat="45.84104" lon="5.49328">
        <ele>669</ele>
        <time>2021-06-06T08:37:13.445Z</time>
      </trkpt>
      <trkpt lat="45.84107" lon="5.49332">
        <ele>669</ele>
        <time>2021-06-06T08:37:14.445Z</time>
      </trkpt>
      <trkpt lat="45.84109" lon="5.49336">
        <ele>669</ele>
        <time>2021-06-06T08:37:15.444Z</time>
      </trkpt>
      <trkpt lat="45.84111" lon="5.49341">
        <ele>669</ele>
        <time>2021-06-06T08:37:16.444Z</time>
      </trkpt>
      <trkpt lat="45.84113" lon="5.49345">
        <ele>669</ele>
        <time>2021-06-06T08:37:17.445Z</time>
      </trkpt>
      <trkpt lat="45.84115" lon="5.49349">
        <ele>670</ele>
        <time>2021-06-06T08:37:18.445Z</time>
      </trkpt>
      <trkpt lat="45.84118" lon="5.49353">
        <ele>670</ele>
        <time>2021-06-06T08:37:19.444Z</time>
      </trkpt>
      <trkpt lat="45.8412" lon="5.49357">
        <ele>671</ele>
        <time>2021-06-06T08:37:20.445Z</time>
      </trkpt>
      <trkpt lat="45.84123" lon="5.49362">
        <ele>671</ele>
        <time>2021-06-06T08:37:21.444Z</time>
      </trkpt>
      <trkpt lat="45.84125" lon="5.49365">
        <ele>672</ele>
        <time>2021-06-06T08:37:22.444Z</time>
      </trkpt>
      <trkpt lat="45.84128" lon="5.49369">
        <ele>673</ele>
        <time>2021-06-06T08:37:23.445Z</time>
      </trkpt>
      <trkpt lat="45.84131" lon="5.49374">
        <ele>674</ele>
        <time>2021-06-06T08:37:24.444Z</time>
      </trkpt>
      <trkpt lat="45.84133" lon="5.49377">
        <ele>674</ele>
        <time>2021-06-06T08:37:25.444Z</time>
      </trkpt>
      <trkpt lat="45.84136" lon="5.49381">
        <ele>675</ele>
        <time>2021-06-06T08:37:26.445Z</time>
      </trkpt>
      <trkpt lat="45.84139" lon="5.49384">
        <ele>676</ele>
        <time>2021-06-06T08:37:27.444Z</time>
      </trkpt>
      <trkpt lat="45.84142" lon="5.49387">
        <ele>676</ele>
        <time>2021-06-06T08:37:28.444Z</time>
      </trkpt>
      <trkpt lat="45.84145" lon="5.4939">
        <ele>677</ele>
        <time>2021-06-06T08:37:29.445Z</time>
      </trkpt>
      <trkpt lat="45.84148" lon="5.49394">
        <ele>677</ele>
        <time>2021-06-06T08:37:30.444Z</time>
      </trkpt>
      <trkpt lat="45.84151" lon="5.49396">
        <ele>678</ele>
        <time>2021-06-06T08:37:31.444Z</time>
      </trkpt>
      <trkpt lat="45.84155" lon="5.49399">
        <ele>678</ele>
        <time>2021-06-06T08:37:32.445Z</time>
      </trkpt>
      <trkpt lat="45.84158" lon="5.49401">
        <ele>679</ele>
        <time>2021-06-06T08:37:33.445Z</time>
      </trkpt>
      <trkpt lat="45.8416" lon="5.49401">
        <ele>679</ele>
        <time>2021-06-06T08:37:34.445Z</time>
      </trkpt>
      <trkpt lat="45.84163" lon="5.49402">
        <ele>679</ele>
        <time>2021-06-06T08:37:35.445Z</time>
      </trkpt>
      <trkpt lat="45.84168" lon="5.49402">
        <ele>680</ele>
        <time>2021-06-06T08:37:36.445Z</time>
      </trkpt>
      <trkpt lat="45.84173" lon="5.49403">
        <ele>680</ele>
        <time>2021-06-06T08:37:37.444Z</time>
      </trkpt>
      <trkpt lat="45.84177" lon="5.49403">
        <ele>680</ele>
        <time>2021-06-06T08:37:38.444Z</time>
      </trkpt>
      <trkpt lat="45.84181" lon="5.49404">
        <ele>681</ele>
        <time>2021-06-06T08:37:39.444Z</time>
      </trkpt>
      <trkpt lat="45.84185" lon="5.49404">
        <ele>681</ele>
        <time>2021-06-06T08:37:40.445Z</time>
      </trkpt>
      <trkpt lat="45.84189" lon="5.49403">
        <ele>682</ele>
        <time>2021-06-06T08:37:41.444Z</time>
      </trkpt>
      <trkpt lat="45.84191" lon="5.49402">
        <ele>682</ele>
        <time>2021-06-06T08:37:42.444Z</time>
      </trkpt>
      <trkpt lat="45.84194" lon="5.494">
        <ele>682</ele>
        <time>2021-06-06T08:37:43.445Z</time>
      </trkpt>
      <trkpt lat="45.84197" lon="5.49397">
        <ele>682</ele>
        <time>2021-06-06T08:37:44.445Z</time>
      </trkpt>
      <trkpt lat="45.84199" lon="5.49393">
        <ele>683</ele>
        <time>2021-06-06T08:37:45.444Z</time>
      </trkpt>
      <trkpt lat="45.84202" lon="5.4939">
        <ele>683</ele>
        <time>2021-06-06T08:37:46.445Z</time>
      </trkpt>
      <trkpt lat="45.84203" lon="5.49386">
        <ele>683</ele>
        <time>2021-06-06T08:37:47.445Z</time>
      </trkpt>
      <trkpt lat="45.84205" lon="5.49383">
        <ele>683</ele>
        <time>2021-06-06T08:37:48.445Z</time>
      </trkpt>
      <trkpt lat="45.84206" lon="5.49379">
        <ele>682</ele>
        <time>2021-06-06T08:37:49.445Z</time>
      </trkpt>
      <trkpt lat="45.84208" lon="5.49374">
        <ele>682</ele>
        <time>2021-06-06T08:37:50.444Z</time>
      </trkpt>
      <trkpt lat="45.8421" lon="5.49369">
        <ele>682</ele>
        <time>2021-06-06T08:37:51.445Z</time>
      </trkpt>
      <trkpt lat="45.84211" lon="5.49364">
        <ele>682</ele>
        <time>2021-06-06T08:37:52.445Z</time>
      </trkpt>
      <trkpt lat="45.84212" lon="5.49359">
        <ele>682</ele>
        <time>2021-06-06T08:37:53.445Z</time>
      </trkpt>
      <trkpt lat="45.84212" lon="5.49354">
        <ele>682</ele>
        <time>2021-06-06T08:37:54.445Z</time>
      </trkpt>
      <trkpt lat="45.84212" lon="5.49349">
        <ele>682</ele>
        <time>2021-06-06T08:37:55.444Z</time>
      </trkpt>
      <trkpt lat="45.84211" lon="5.49344">
        <ele>682</ele>
        <time>2021-06-06T08:37:56.445Z</time>
      </trkpt>
      <trkpt lat="45.8421" lon="5.4934">
        <ele>682</ele>
        <time>2021-06-06T08:37:57.445Z</time>
      </trkpt>
      <trkpt lat="45.84208" lon="5.49337">
        <ele>681</ele>
        <time>2021-06-06T08:37:58.445Z</time>
      </trkpt>
      <trkpt lat="45.84205" lon="5.49332">
        <ele>681</ele>
        <time>2021-06-06T08:37:59.444Z</time>
      </trkpt>
      <trkpt lat="45.84202" lon="5.49325">
        <ele>680</ele>
        <time>2021-06-06T08:38:00.445Z</time>
      </trkpt>
      <trkpt lat="45.84198" lon="5.4932">
        <ele>680</ele>
        <time>2021-06-06T08:38:01.445Z</time>
      </trkpt>
      <trkpt lat="45.84194" lon="5.49316">
        <ele>679</ele>
        <time>2021-06-06T08:38:02.445Z</time>
      </trkpt>
      <trkpt lat="45.8419" lon="5.49313">
        <ele>679</ele>
        <time>2021-06-06T08:38:03.445Z</time>
      </trkpt>
      <trkpt lat="45.84185" lon="5.4931">
        <ele>679</ele>
        <time>2021-06-06T08:38:04.444Z</time>
      </trkpt>
      <trkpt lat="45.8418" lon="5.49307">
        <ele>678</ele>
        <time>2021-06-06T08:38:05.445Z</time>
      </trkpt>
      <trkpt lat="45.84176" lon="5.49305">
        <ele>678</ele>
        <time>2021-06-06T08:38:06.444Z</time>
      </trkpt>
      <trkpt lat="45.84172" lon="5.49302">
        <ele>677</ele>
        <time>2021-06-06T08:38:07.444Z</time>
      </trkpt>
      <trkpt lat="45.84169" lon="5.493">
        <ele>677</ele>
        <time>2021-06-06T08:38:08.445Z</time>
      </trkpt>
      <trkpt lat="45.84164" lon="5.49297">
        <ele>676</ele>
        <time>2021-06-06T08:38:09.444Z</time>
      </trkpt>
      <trkpt lat="45.84161" lon="5.49296">
        <ele>676</ele>
        <time>2021-06-06T08:38:10.445Z</time>
      </trkpt>
      <trkpt lat="45.84157" lon="5.49292">
        <ele>675</ele>
        <time>2021-06-06T08:38:11.445Z</time>
      </trkpt>
      <trkpt lat="45.84154" lon="5.49289">
        <ele>675</ele>
        <time>2021-06-06T08:38:12.444Z</time>
      </trkpt>
      <trkpt lat="45.8415" lon="5.49284">
        <ele>675</ele>
        <time>2021-06-06T08:38:13.445Z</time>
      </trkpt>
      <trkpt lat="45.84146" lon="5.49279">
        <ele>674</ele>
        <time>2021-06-06T08:38:14.445Z</time>
      </trkpt>
      <trkpt lat="45.84143" lon="5.49274">
        <ele>674</ele>
        <time>2021-06-06T08:38:15.445Z</time>
      </trkpt>
      <trkpt lat="45.84141" lon="5.49269">
        <ele>673</ele>
        <time>2021-06-06T08:38:16.444Z</time>
      </trkpt>
      <trkpt lat="45.84139" lon="5.49265">
        <ele>673</ele>
        <time>2021-06-06T08:38:17.444Z</time>
      </trkpt>
      <trkpt lat="45.84137" lon="5.4926">
        <ele>673</ele>
        <time>2021-06-06T08:38:18.444Z</time>
      </trkpt>
      <trkpt lat="45.84136" lon="5.49255">
        <ele>672</ele>
        <time>2021-06-06T08:38:19.444Z</time>
      </trkpt>
      <trkpt lat="45.84134" lon="5.49249">
        <ele>672</ele>
        <time>2021-06-06T08:38:20.445Z</time>
      </trkpt>
      <trkpt lat="45.84133" lon="5.49243">
        <ele>672</ele>
        <time>2021-06-06T08:38:21.444Z</time>
      </trkpt>
      <trkpt lat="45.84133" lon="5.49239">
        <ele>672</ele>
        <time>2021-06-06T08:38:22.444Z</time>
      </trkpt>
      <trkpt lat="45.84133" lon="5.49233">
        <ele>672</ele>
        <time>2021-06-06T08:38:23.445Z</time>
      </trkpt>
      <trkpt lat="45.84134" lon="5.49228">
        <ele>672</ele>
        <time>2021-06-06T08:38:24.445Z</time>
      </trkpt>
      <trkpt lat="45.84135" lon="5.49222">
        <ele>672</ele>
        <time>2021-06-06T08:38:25.444Z</time>
      </trkpt>
      <trkpt lat="45.84137" lon="5.49218">
        <ele>672</ele>
        <time>2021-06-06T08:38:26.444Z</time>
      </trkpt>
      <trkpt lat="45.84139" lon="5.49216">
        <ele>672</ele>
        <time>2021-06-06T08:38:27.445Z</time>
      </trkpt>
      <trkpt lat="45.84143" lon="5.49215">
        <ele>672</ele>
        <time>2021-06-06T08:38:28.444Z</time>
      </trkpt>
      <trkpt lat="45.84149" lon="5.49212">
        <ele>672</ele>
        <time>2021-06-06T08:38:29.444Z</time>
      </trkpt>
      <trkpt lat="45.84155" lon="5.4921">
        <ele>673</ele>
        <time>2021-06-06T08:38:30.444Z</time>
      </trkpt>
      <trkpt lat="45.8416" lon="5.49208">
        <ele>673</ele>
        <time>2021-06-06T08:38:31.445Z</time>
      </trkpt>
      <trkpt lat="45.84164" lon="5.49208">
        <ele>673</ele>
        <time>2021-06-06T08:38:32.444Z</time>
      </trkpt>
      <trkpt lat="45.84168" lon="5.49207">
        <ele>673</ele>
        <time>2021-06-06T08:38:33.445Z</time>
      </trkpt>
      <trkpt lat="45.84171" lon="5.49207">
        <ele>674</ele>
        <time>2021-06-06T08:38:34.445Z</time>
      </trkpt>
      <trkpt lat="45.84174" lon="5.49206">
        <ele>674</ele>
        <time>2021-06-06T08:38:35.444Z</time>
      </trkpt>
      <trkpt lat="45.84176" lon="5.49206">
        <ele>674</ele>
        <time>2021-06-06T08:38:36.445Z</time>
      </trkpt>
      <trkpt lat="45.84178" lon="5.49205">
        <ele>674</ele>
        <time>2021-06-06T08:38:37.445Z</time>
      </trkpt>
      <trkpt lat="45.84181" lon="5.49205">
        <ele>675</ele>
        <time>2021-06-06T08:38:38.444Z</time>
      </trkpt>
      <trkpt lat="45.84184" lon="5.49207">
        <ele>675</ele>
        <time>2021-06-06T08:38:39.444Z</time>
      </trkpt>
      <trkpt lat="45.84187" lon="5.49208">
        <ele>675</ele>
        <time>2021-06-06T08:38:40.445Z</time>
      </trkpt>
      <trkpt lat="45.8419" lon="5.4921">
        <ele>675</ele>
        <time>2021-06-06T08:38:41.444Z</time>
      </trkpt>
      <trkpt lat="45.84193" lon="5.49214">
        <ele>676</ele>
        <time>2021-06-06T08:38:42.445Z</time>
      </trkpt>
      <trkpt lat="45.84196" lon="5.49219">
        <ele>676</ele>
        <time>2021-06-06T08:38:43.445Z</time>
      </trkpt>
      <trkpt lat="45.84198" lon="5.49224">
        <ele>676</ele>
        <time>2021-06-06T08:38:44.445Z</time>
      </trkpt>
      <trkpt lat="45.84199" lon="5.49228">
        <ele>676</ele>
        <time>2021-06-06T08:38:45.444Z</time>
      </trkpt>
      <trkpt lat="45.84202" lon="5.49234">
        <ele>677</ele>
        <time>2021-06-06T08:38:46.445Z</time>
      </trkpt>
      <trkpt lat="45.84204" lon="5.49239">
        <ele>677</ele>
        <time>2021-06-06T08:38:47.445Z</time>
      </trkpt>
      <trkpt lat="45.84206" lon="5.49245">
        <ele>677</ele>
        <time>2021-06-06T08:38:48.445Z</time>
      </trkpt>
      <trkpt lat="45.84208" lon="5.4925">
        <ele>678</ele>
        <time>2021-06-06T08:38:49.445Z</time>
      </trkpt>
      <trkpt lat="45.84209" lon="5.49256">
        <ele>678</ele>
        <time>2021-06-06T08:38:50.445Z</time>
      </trkpt>
      <trkpt lat="45.84211" lon="5.49262">
        <ele>679</ele>
        <time>2021-06-06T08:38:51.444Z</time>
      </trkpt>
      <trkpt lat="45.84213" lon="5.49268">
        <ele>679</ele>
        <time>2021-06-06T08:38:52.445Z</time>
      </trkpt>
      <trkpt lat="45.84214" lon="5.49273">
        <ele>680</ele>
        <time>2021-06-06T08:38:53.445Z</time>
      </trkpt>
      <trkpt lat="45.84217" lon="5.49278">
        <ele>680</ele>
        <time>2021-06-06T08:38:54.445Z</time>
      </trkpt>
      <trkpt lat="45.84219" lon="5.49284">
        <ele>681</ele>
        <time>2021-06-06T08:38:55.445Z</time>
      </trkpt>
      <trkpt lat="45.8422" lon="5.49288">
        <ele>681</ele>
        <time>2021-06-06T08:38:56.444Z</time>
      </trkpt>
      <trkpt lat="45.8422" lon="5.49294">
        <ele>682</ele>
        <time>2021-06-06T08:38:57.444Z</time>
      </trkpt>
      <trkpt lat="45.84221" lon="5.493">
        <ele>682</ele>
        <time>2021-06-06T08:38:58.444Z</time>
      </trkpt>
      <trkpt lat="45.84221" lon="5.49304">
        <ele>682</ele>
        <time>2021-06-06T08:38:59.445Z</time>
      </trkpt>
      <trkpt lat="45.84222" lon="5.4931">
        <ele>683</ele>
        <time>2021-06-06T08:39:00.444Z</time>
      </trkpt>
      <trkpt lat="45.84224" lon="5.49317">
        <ele>683</ele>
        <time>2021-06-06T08:39:01.444Z</time>
      </trkpt>
      <trkpt lat="45.84225" lon="5.49322">
        <ele>684</ele>
        <time>2021-06-06T08:39:02.445Z</time>
      </trkpt>
      <trkpt lat="45.84225" lon="5.49327">
        <ele>684</ele>
        <time>2021-06-06T08:39:03.445Z</time>
      </trkpt>
      <trkpt lat="45.84226" lon="5.49332">
        <ele>684</ele>
        <time>2021-06-06T08:39:04.445Z</time>
      </trkpt>
      <trkpt lat="45.84227" lon="5.49337">
        <ele>685</ele>
        <time>2021-06-06T08:39:05.445Z</time>
      </trkpt>
      <trkpt lat="45.84229" lon="5.49342">
        <ele>685</ele>
        <time>2021-06-06T08:39:06.444Z</time>
      </trkpt>
      <trkpt lat="45.84231" lon="5.49347">
        <ele>685</ele>
        <time>2021-06-06T08:39:07.445Z</time>
      </trkpt>
      <trkpt lat="45.84233" lon="5.49351">
        <ele>686</ele>
        <time>2021-06-06T08:39:08.445Z</time>
      </trkpt>
      <trkpt lat="45.84236" lon="5.49356">
        <ele>686</ele>
        <time>2021-06-06T08:39:09.445Z</time>
      </trkpt>
      <trkpt lat="45.84238" lon="5.49362">
        <ele>686</ele>
        <time>2021-06-06T08:39:10.444Z</time>
      </trkpt>
      <trkpt lat="45.84241" lon="5.49367">
        <ele>687</ele>
        <time>2021-06-06T08:39:11.444Z</time>
      </trkpt>
      <trkpt lat="45.84243" lon="5.49371">
        <ele>687</ele>
        <time>2021-06-06T08:39:12.445Z</time>
      </trkpt>
      <trkpt lat="45.84246" lon="5.49376">
        <ele>687</ele>
        <time>2021-06-06T08:39:13.445Z</time>
      </trkpt>
      <trkpt lat="45.84249" lon="5.4938">
        <ele>687</ele>
        <time>2021-06-06T08:39:14.444Z</time>
      </trkpt>
      <trkpt lat="45.84252" lon="5.49383">
        <ele>687</ele>
        <time>2021-06-06T08:39:15.445Z</time>
      </trkpt>
      <trkpt lat="45.84255" lon="5.49387">
        <ele>687</ele>
        <time>2021-06-06T08:39:16.444Z</time>
      </trkpt>
      <trkpt lat="45.84258" lon="5.49391">
        <ele>688</ele>
        <time>2021-06-06T08:39:17.445Z</time>
      </trkpt>
      <trkpt lat="45.8426" lon="5.49396">
        <ele>688</ele>
        <time>2021-06-06T08:39:18.445Z</time>
      </trkpt>
      <trkpt lat="45.84262" lon="5.49401">
        <ele>688</ele>
        <time>2021-06-06T08:39:19.445Z</time>
      </trkpt>
      <trkpt lat="45.84265" lon="5.49405">
        <ele>688</ele>
        <time>2021-06-06T08:39:20.445Z</time>
      </trkpt>
      <trkpt lat="45.84267" lon="5.4941">
        <ele>689</ele>
        <time>2021-06-06T08:39:21.445Z</time>
      </trkpt>
      <trkpt lat="45.84268" lon="5.49415">
        <ele>689</ele>
        <time>2021-06-06T08:39:22.445Z</time>
      </trkpt>
      <trkpt lat="45.8427" lon="5.49417">
        <ele>689</ele>
        <time>2021-06-06T08:39:23.445Z</time>
      </trkpt>
      <trkpt lat="45.84273" lon="5.49421">
        <ele>689</ele>
        <time>2021-06-06T08:39:24.445Z</time>
      </trkpt>
      <trkpt lat="45.84275" lon="5.49424">
        <ele>690</ele>
        <time>2021-06-06T08:39:25.444Z</time>
      </trkpt>
      <trkpt lat="45.84278" lon="5.49426">
        <ele>690</ele>
        <time>2021-06-06T08:39:26.444Z</time>
      </trkpt>
      <trkpt lat="45.84281" lon="5.49428">
        <ele>690</ele>
        <time>2021-06-06T08:39:27.444Z</time>
      </trkpt>
      <trkpt lat="45.84284" lon="5.4943">
        <ele>691</ele>
        <time>2021-06-06T08:39:28.444Z</time>
      </trkpt>
      <trkpt lat="45.84287" lon="5.49433">
        <ele>691</ele>
        <time>2021-06-06T08:39:29.445Z</time>
      </trkpt>
      <trkpt lat="45.84291" lon="5.49435">
        <ele>691</ele>
        <time>2021-06-06T08:39:30.445Z</time>
      </trkpt>
      <trkpt lat="45.84296" lon="5.49439">
        <ele>692</ele>
        <time>2021-06-06T08:39:31.444Z</time>
      </trkpt>
      <trkpt lat="45.843" lon="5.49441">
        <ele>692</ele>
        <time>2021-06-06T08:39:32.444Z</time>
      </trkpt>
      <trkpt lat="45.84304" lon="5.49443">
        <ele>693</ele>
        <time>2021-06-06T08:39:33.445Z</time>
      </trkpt>
      <trkpt lat="45.84307" lon="5.49445">
        <ele>693</ele>
        <time>2021-06-06T08:39:34.445Z</time>
      </trkpt>
      <trkpt lat="45.8431" lon="5.49446">
        <ele>693</ele>
        <time>2021-06-06T08:39:35.444Z</time>
      </trkpt>
      <trkpt lat="45.84315" lon="5.49448">
        <ele>694</ele>
        <time>2021-06-06T08:39:36.445Z</time>
      </trkpt>
      <trkpt lat="45.84318" lon="5.49449">
        <ele>694</ele>
        <time>2021-06-06T08:39:37.444Z</time>
      </trkpt>
      <trkpt lat="45.84321" lon="5.4945">
        <ele>694</ele>
        <time>2021-06-06T08:39:38.445Z</time>
      </trkpt>
      <trkpt lat="45.84324" lon="5.49451">
        <ele>694</ele>
        <time>2021-06-06T08:39:39.444Z</time>
      </trkpt>
      <trkpt lat="45.84328" lon="5.49453">
        <ele>694</ele>
        <time>2021-06-06T08:39:40.444Z</time>
      </trkpt>
      <trkpt lat="45.84331" lon="5.49454">
        <ele>694</ele>
        <time>2021-06-06T08:39:41.444Z</time>
      </trkpt>
      <trkpt lat="45.84335" lon="5.49454">
        <ele>694</ele>
        <time>2021-06-06T08:39:42.445Z</time>
      </trkpt>
      <trkpt lat="45.84339" lon="5.49455">
        <ele>695</ele>
        <time>2021-06-06T08:39:43.445Z</time>
      </trkpt>
      <trkpt lat="45.84342" lon="5.49456">
        <ele>695</ele>
        <time>2021-06-06T08:39:44.444Z</time>
      </trkpt>
      <trkpt lat="45.84346" lon="5.49457">
        <ele>695</ele>
        <time>2021-06-06T08:39:45.444Z</time>
      </trkpt>
      <trkpt lat="45.8435" lon="5.49457">
        <ele>695</ele>
        <time>2021-06-06T08:39:46.444Z</time>
      </trkpt>
      <trkpt lat="45.84352" lon="5.49457">
        <ele>695</ele>
        <time>2021-06-06T08:39:47.444Z</time>
      </trkpt>
      <trkpt lat="45.84356" lon="5.49458">
        <ele>695</ele>
        <time>2021-06-06T08:39:48.445Z</time>
      </trkpt>
      <trkpt lat="45.84359" lon="5.49459">
        <ele>695</ele>
        <time>2021-06-06T08:39:49.444Z</time>
      </trkpt>
      <trkpt lat="45.84363" lon="5.4946">
        <ele>695</ele>
        <time>2021-06-06T08:39:50.445Z</time>
      </trkpt>
      <trkpt lat="45.84367" lon="5.49461">
        <ele>695</ele>
        <time>2021-06-06T08:39:51.445Z</time>
      </trkpt>
      <trkpt lat="45.84371" lon="5.49461">
        <ele>695</ele>
        <time>2021-06-06T08:39:52.445Z</time>
      </trkpt>
      <trkpt lat="45.84375" lon="5.49463">
        <ele>694</ele>
        <time>2021-06-06T08:39:53.445Z</time>
      </trkpt>
      <trkpt lat="45.84379" lon="5.49464">
        <ele>694</ele>
        <time>2021-06-06T08:39:54.445Z</time>
      </trkpt>
      <trkpt lat="45.84383" lon="5.49465">
        <ele>694</ele>
        <time>2021-06-06T08:39:55.444Z</time>
      </trkpt>
      <trkpt lat="45.84386" lon="5.49467">
        <ele>694</ele>
        <time>2021-06-06T08:39:56.445Z</time>
      </trkpt>
      <trkpt lat="45.8439" lon="5.49468">
        <ele>694</ele>
        <time>2021-06-06T08:39:57.445Z</time>
      </trkpt>
      <trkpt lat="45.84393" lon="5.49469">
        <ele>694</ele>
        <time>2021-06-06T08:39:58.445Z</time>
      </trkpt>
      <trkpt lat="45.84397" lon="5.49471">
        <ele>694</ele>
        <time>2021-06-06T08:39:59.445Z</time>
      </trkpt>
      <trkpt lat="45.844" lon="5.49473">
        <ele>694</ele>
        <time>2021-06-06T08:40:00.445Z</time>
      </trkpt>
      <trkpt lat="45.84403" lon="5.49474">
        <ele>695</ele>
        <time>2021-06-06T08:40:01.444Z</time>
      </trkpt>
      <trkpt lat="45.84406" lon="5.49475">
        <ele>695</ele>
        <time>2021-06-06T08:40:02.444Z</time>
      </trkpt>
      <trkpt lat="45.8441" lon="5.49476">
        <ele>696</ele>
        <time>2021-06-06T08:40:03.445Z</time>
      </trkpt>
      <trkpt lat="45.84414" lon="5.49477">
        <ele>696</ele>
        <time>2021-06-06T08:40:04.444Z</time>
      </trkpt>
      <trkpt lat="45.84417" lon="5.49477">
        <ele>697</ele>
        <time>2021-06-06T08:40:05.444Z</time>
      </trkpt>
      <trkpt lat="45.8442" lon="5.49478">
        <ele>697</ele>
        <time>2021-06-06T08:40:06.444Z</time>
      </trkpt>
      <trkpt lat="45.84423" lon="5.49479">
        <ele>698</ele>
        <time>2021-06-06T08:40:07.445Z</time>
      </trkpt>
      <trkpt lat="45.84426" lon="5.49479">
        <ele>698</ele>
        <time>2021-06-06T08:40:08.444Z</time>
      </trkpt>
      <trkpt lat="45.84428" lon="5.49479">
        <ele>699</ele>
        <time>2021-06-06T08:40:09.445Z</time>
      </trkpt>
      <trkpt lat="45.84432" lon="5.49479">
        <ele>699</ele>
        <time>2021-06-06T08:40:10.444Z</time>
      </trkpt>
      <trkpt lat="45.84436" lon="5.49479">
        <ele>699</ele>
        <time>2021-06-06T08:40:11.444Z</time>
      </trkpt>
      <trkpt lat="45.8444" lon="5.49479">
        <ele>699</ele>
        <time>2021-06-06T08:40:12.445Z</time>
      </trkpt>
      <trkpt lat="45.84445" lon="5.49479">
        <ele>699</ele>
        <time>2021-06-06T08:40:13.445Z</time>
      </trkpt>
      <trkpt lat="45.84447" lon="5.49477">
        <ele>700</ele>
        <time>2021-06-06T08:40:14.445Z</time>
      </trkpt>
      <trkpt lat="45.84449" lon="5.49476">
        <ele>700</ele>
        <time>2021-06-06T08:40:15.444Z</time>
      </trkpt>
      <trkpt lat="45.84452" lon="5.49476">
        <ele>701</ele>
        <time>2021-06-06T08:40:16.444Z</time>
      </trkpt>
      <trkpt lat="45.84456" lon="5.49475">
        <ele>701</ele>
        <time>2021-06-06T08:40:17.444Z</time>
      </trkpt>
      <trkpt lat="45.84459" lon="5.49474">
        <ele>701</ele>
        <time>2021-06-06T08:40:18.445Z</time>
      </trkpt>
      <trkpt lat="45.84463" lon="5.49474">
        <ele>701</ele>
        <time>2021-06-06T08:40:19.444Z</time>
      </trkpt>
      <trkpt lat="45.84467" lon="5.49473">
        <ele>701</ele>
        <time>2021-06-06T08:40:20.445Z</time>
      </trkpt>
      <trkpt lat="45.8447" lon="5.49473">
        <ele>701</ele>
        <time>2021-06-06T08:40:21.444Z</time>
      </trkpt>
      <trkpt lat="45.84474" lon="5.49472">
        <ele>701</ele>
        <time>2021-06-06T08:40:22.445Z</time>
      </trkpt>
      <trkpt lat="45.84478" lon="5.49471">
        <ele>701</ele>
        <time>2021-06-06T08:40:23.445Z</time>
      </trkpt>
      <trkpt lat="45.84482" lon="5.4947">
        <ele>701</ele>
        <time>2021-06-06T08:40:24.445Z</time>
      </trkpt>
      <trkpt lat="45.84485" lon="5.49469">
        <ele>701</ele>
        <time>2021-06-06T08:40:25.444Z</time>
      </trkpt>
      <trkpt lat="45.84489" lon="5.49467">
        <ele>701</ele>
        <time>2021-06-06T08:40:26.444Z</time>
      </trkpt>
      <trkpt lat="45.84492" lon="5.49466">
        <ele>701</ele>
        <time>2021-06-06T08:40:27.444Z</time>
      </trkpt>
      <trkpt lat="45.84496" lon="5.49464">
        <ele>702</ele>
        <time>2021-06-06T08:40:28.445Z</time>
      </trkpt>
      <trkpt lat="45.84499" lon="5.49462">
        <ele>702</ele>
        <time>2021-06-06T08:40:29.445Z</time>
      </trkpt>
      <trkpt lat="45.84503" lon="5.4946">
        <ele>702</ele>
        <time>2021-06-06T08:40:30.444Z</time>
      </trkpt>
      <trkpt lat="45.84506" lon="5.49458">
        <ele>702</ele>
        <time>2021-06-06T08:40:31.444Z</time>
      </trkpt>
      <trkpt lat="45.84509" lon="5.49455">
        <ele>702</ele>
        <time>2021-06-06T08:40:32.444Z</time>
      </trkpt>
      <trkpt lat="45.84513" lon="5.49453">
        <ele>703</ele>
        <time>2021-06-06T08:40:33.445Z</time>
      </trkpt>
      <trkpt lat="45.84517" lon="5.49452">
        <ele>703</ele>
        <time>2021-06-06T08:40:34.444Z</time>
      </trkpt>
      <trkpt lat="45.8452" lon="5.49449">
        <ele>703</ele>
        <time>2021-06-06T08:40:35.445Z</time>
      </trkpt>
      <trkpt lat="45.84522" lon="5.49447">
        <ele>703</ele>
        <time>2021-06-06T08:40:36.444Z</time>
      </trkpt>
      <trkpt lat="45.84525" lon="5.49444">
        <ele>704</ele>
        <time>2021-06-06T08:40:37.445Z</time>
      </trkpt>
      <trkpt lat="45.84527" lon="5.49441">
        <ele>704</ele>
        <time>2021-06-06T08:40:38.444Z</time>
      </trkpt>
      <trkpt lat="45.84531" lon="5.49437">
        <ele>704</ele>
        <time>2021-06-06T08:40:39.444Z</time>
      </trkpt>
      <trkpt lat="45.84534" lon="5.49434">
        <ele>705</ele>
        <time>2021-06-06T08:40:40.445Z</time>
      </trkpt>
      <trkpt lat="45.84536" lon="5.49431">
        <ele>705</ele>
        <time>2021-06-06T08:40:41.445Z</time>
      </trkpt>
      <trkpt lat="45.84539" lon="5.49428">
        <ele>706</ele>
        <time>2021-06-06T08:40:42.444Z</time>
      </trkpt>
      <trkpt lat="45.84542" lon="5.49425">
        <ele>706</ele>
        <time>2021-06-06T08:40:43.444Z</time>
      </trkpt>
      <trkpt lat="45.84545" lon="5.49422">
        <ele>706</ele>
        <time>2021-06-06T08:40:44.444Z</time>
      </trkpt>
      <trkpt lat="45.84548" lon="5.49418">
        <ele>706</ele>
        <time>2021-06-06T08:40:45.444Z</time>
      </trkpt>
      <trkpt lat="45.84551" lon="5.49415">
        <ele>706</ele>
        <time>2021-06-06T08:40:46.444Z</time>
      </trkpt>
      <trkpt lat="45.84554" lon="5.49412">
        <ele>706</ele>
        <time>2021-06-06T08:40:47.445Z</time>
      </trkpt>
      <trkpt lat="45.84557" lon="5.49409">
        <ele>706</ele>
        <time>2021-06-06T08:40:48.445Z</time>
      </trkpt>
      <trkpt lat="45.84559" lon="5.49405">
        <ele>706</ele>
        <time>2021-06-06T08:40:49.445Z</time>
      </trkpt>
      <trkpt lat="45.84561" lon="5.49402">
        <ele>706</ele>
        <time>2021-06-06T08:40:50.445Z</time>
      </trkpt>
      <trkpt lat="45.84564" lon="5.49399">
        <ele>706</ele>
        <time>2021-06-06T08:40:51.445Z</time>
      </trkpt>
      <trkpt lat="45.84566" lon="5.49396">
        <ele>706</ele>
        <time>2021-06-06T08:40:52.444Z</time>
      </trkpt>
      <trkpt lat="45.84568" lon="5.49392">
        <ele>706</ele>
        <time>2021-06-06T08:40:53.445Z</time>
      </trkpt>
      <trkpt lat="45.84571" lon="5.49389">
        <ele>707</ele>
        <time>2021-06-06T08:40:54.445Z</time>
      </trkpt>
      <trkpt lat="45.84574" lon="5.49385">
        <ele>707</ele>
        <time>2021-06-06T08:40:55.444Z</time>
      </trkpt>
      <trkpt lat="45.84576" lon="5.49381">
        <ele>707</ele>
        <time>2021-06-06T08:40:56.445Z</time>
      </trkpt>
      <trkpt lat="45.84578" lon="5.49377">
        <ele>707</ele>
        <time>2021-06-06T08:40:57.445Z</time>
      </trkpt>
      <trkpt lat="45.84581" lon="5.49373">
        <ele>707</ele>
        <time>2021-06-06T08:40:58.445Z</time>
      </trkpt>
      <trkpt lat="45.84583" lon="5.49369">
        <ele>707</ele>
        <time>2021-06-06T08:40:59.445Z</time>
      </trkpt>
      <trkpt lat="45.84586" lon="5.49365">
        <ele>707</ele>
        <time>2021-06-06T08:41:00.445Z</time>
      </trkpt>
      <trkpt lat="45.8459" lon="5.49361">
        <ele>708</ele>
        <time>2021-06-06T08:41:01.445Z</time>
      </trkpt>
      <trkpt lat="45.84592" lon="5.49357">
        <ele>708</ele>
        <time>2021-06-06T08:41:02.445Z</time>
      </trkpt>
      <trkpt lat="45.84594" lon="5.49353">
        <ele>708</ele>
        <time>2021-06-06T08:41:03.445Z</time>
      </trkpt>
      <trkpt lat="45.84596" lon="5.49349">
        <ele>709</ele>
        <time>2021-06-06T08:41:04.445Z</time>
      </trkpt>
      <trkpt lat="45.84598" lon="5.49345">
        <ele>709</ele>
        <time>2021-06-06T08:41:05.445Z</time>
      </trkpt>
      <trkpt lat="45.84601" lon="5.49342">
        <ele>709</ele>
        <time>2021-06-06T08:41:06.444Z</time>
      </trkpt>
      <trkpt lat="45.84603" lon="5.49338">
        <ele>710</ele>
        <time>2021-06-06T08:41:07.445Z</time>
      </trkpt>
      <trkpt lat="45.84606" lon="5.49335">
        <ele>710</ele>
        <time>2021-06-06T08:41:08.445Z</time>
      </trkpt>
      <trkpt lat="45.84609" lon="5.49331">
        <ele>710</ele>
        <time>2021-06-06T08:41:09.445Z</time>
      </trkpt>
      <trkpt lat="45.84611" lon="5.49328">
        <ele>710</ele>
        <time>2021-06-06T08:41:10.445Z</time>
      </trkpt>
      <trkpt lat="45.84613" lon="5.49324">
        <ele>711</ele>
        <time>2021-06-06T08:41:11.445Z</time>
      </trkpt>
      <trkpt lat="45.84615" lon="5.4932">
        <ele>711</ele>
        <time>2021-06-06T08:41:12.445Z</time>
      </trkpt>
      <trkpt lat="45.84617" lon="5.49318">
        <ele>711</ele>
        <time>2021-06-06T08:41:13.445Z</time>
      </trkpt>
      <trkpt lat="45.84619" lon="5.49314">
        <ele>712</ele>
        <time>2021-06-06T08:41:14.445Z</time>
      </trkpt>
      <trkpt lat="45.84621" lon="5.4931">
        <ele>712</ele>
        <time>2021-06-06T08:41:15.445Z</time>
      </trkpt>
      <trkpt lat="45.84623" lon="5.49307">
        <ele>712</ele>
        <time>2021-06-06T08:41:16.444Z</time>
      </trkpt>
      <trkpt lat="45.84625" lon="5.49303">
        <ele>712</ele>
        <time>2021-06-06T08:41:17.445Z</time>
      </trkpt>
      <trkpt lat="45.84627" lon="5.493">
        <ele>712</ele>
        <time>2021-06-06T08:41:18.445Z</time>
      </trkpt>
      <trkpt lat="45.84629" lon="5.49296">
        <ele>713</ele>
        <time>2021-06-06T08:41:19.444Z</time>
      </trkpt>
      <trkpt lat="45.84631" lon="5.49293">
        <ele>713</ele>
        <time>2021-06-06T08:41:20.444Z</time>
      </trkpt>
      <trkpt lat="45.84633" lon="5.4929">
        <ele>713</ele>
        <time>2021-06-06T08:41:21.445Z</time>
      </trkpt>
      <trkpt lat="45.84636" lon="5.49287">
        <ele>713</ele>
        <time>2021-06-06T08:41:22.445Z</time>
      </trkpt>
      <trkpt lat="45.84638" lon="5.49284">
        <ele>713</ele>
        <time>2021-06-06T08:41:23.444Z</time>
      </trkpt>
      <trkpt lat="45.84641" lon="5.49282">
        <ele>713</ele>
        <time>2021-06-06T08:41:24.444Z</time>
      </trkpt>
      <trkpt lat="45.84644" lon="5.49279">
        <ele>714</ele>
        <time>2021-06-06T08:41:25.445Z</time>
      </trkpt>
      <trkpt lat="45.84646" lon="5.49277">
        <ele>714</ele>
        <time>2021-06-06T08:41:26.445Z</time>
      </trkpt>
      <trkpt lat="45.84649" lon="5.49275">
        <ele>714</ele>
        <time>2021-06-06T08:41:27.445Z</time>
      </trkpt>
      <trkpt lat="45.84651" lon="5.49273">
        <ele>714</ele>
        <time>2021-06-06T08:41:28.445Z</time>
      </trkpt>
      <trkpt lat="45.84653" lon="5.49271">
        <ele>714</ele>
        <time>2021-06-06T08:41:29.445Z</time>
      </trkpt>
      <trkpt lat="45.84656" lon="5.49269">
        <ele>715</ele>
        <time>2021-06-06T08:41:30.445Z</time>
      </trkpt>
      <trkpt lat="45.84659" lon="5.49268">
        <ele>715</ele>
        <time>2021-06-06T08:41:31.445Z</time>
      </trkpt>
      <trkpt lat="45.84662" lon="5.49267">
        <ele>715</ele>
        <time>2021-06-06T08:41:32.444Z</time>
      </trkpt>
      <trkpt lat="45.84666" lon="5.49265">
        <ele>715</ele>
        <time>2021-06-06T08:41:33.445Z</time>
      </trkpt>
      <trkpt lat="45.8467" lon="5.49263">
        <ele>715</ele>
        <time>2021-06-06T08:41:34.445Z</time>
      </trkpt>
      <trkpt lat="45.84673" lon="5.49261">
        <ele>716</ele>
        <time>2021-06-06T08:41:35.445Z</time>
      </trkpt>
      <trkpt lat="45.84675" lon="5.49259">
        <ele>716</ele>
        <time>2021-06-06T08:41:36.444Z</time>
      </trkpt>
      <trkpt lat="45.84677" lon="5.49256">
        <ele>716</ele>
        <time>2021-06-06T08:41:37.445Z</time>
      </trkpt>
      <trkpt lat="45.8468" lon="5.49253">
        <ele>717</ele>
        <time>2021-06-06T08:41:38.445Z</time>
      </trkpt>
      <trkpt lat="45.84682" lon="5.4925">
        <ele>717</ele>
        <time>2021-06-06T08:41:39.445Z</time>
      </trkpt>
      <trkpt lat="45.84685" lon="5.49247">
        <ele>717</ele>
        <time>2021-06-06T08:41:40.445Z</time>
      </trkpt>
      <trkpt lat="45.84687" lon="5.49243">
        <ele>717</ele>
        <time>2021-06-06T08:41:41.445Z</time>
      </trkpt>
      <trkpt lat="45.84689" lon="5.4924">
        <ele>718</ele>
        <time>2021-06-06T08:41:42.444Z</time>
      </trkpt>
      <trkpt lat="45.8469" lon="5.49235">
        <ele>718</ele>
        <time>2021-06-06T08:41:43.445Z</time>
      </trkpt>
      <trkpt lat="45.84692" lon="5.49231">
        <ele>718</ele>
        <time>2021-06-06T08:41:44.445Z</time>
      </trkpt>
      <trkpt lat="45.84694" lon="5.49226">
        <ele>719</ele>
        <time>2021-06-06T08:41:45.445Z</time>
      </trkpt>
      <trkpt lat="45.84695" lon="5.49222">
        <ele>719</ele>
        <time>2021-06-06T08:41:46.445Z</time>
      </trkpt>
      <trkpt lat="45.84697" lon="5.49217">
        <ele>719</ele>
        <time>2021-06-06T08:41:47.445Z</time>
      </trkpt>
      <trkpt lat="45.84699" lon="5.49213">
        <ele>720</ele>
        <time>2021-06-06T08:41:48.445Z</time>
      </trkpt>
      <trkpt lat="45.84701" lon="5.49208">
        <ele>720</ele>
        <time>2021-06-06T08:41:49.444Z</time>
      </trkpt>
      <trkpt lat="45.84703" lon="5.49204">
        <ele>720</ele>
        <time>2021-06-06T08:41:50.445Z</time>
      </trkpt>
      <trkpt lat="45.84705" lon="5.49199">
        <ele>721</ele>
        <time>2021-06-06T08:41:51.445Z</time>
      </trkpt>
      <trkpt lat="45.84707" lon="5.49195">
        <ele>721</ele>
        <time>2021-06-06T08:41:52.445Z</time>
      </trkpt>
      <trkpt lat="45.8471" lon="5.49191">
        <ele>721</ele>
        <time>2021-06-06T08:41:53.445Z</time>
      </trkpt>
      <trkpt lat="45.84712" lon="5.49186">
        <ele>721</ele>
        <time>2021-06-06T08:41:54.445Z</time>
      </trkpt>
      <trkpt lat="45.84714" lon="5.49182">
        <ele>722</ele>
        <time>2021-06-06T08:41:55.445Z</time>
      </trkpt>
      <trkpt lat="45.84716" lon="5.49178">
        <ele>722</ele>
        <time>2021-06-06T08:41:56.444Z</time>
      </trkpt>
      <trkpt lat="45.84719" lon="5.49174">
        <ele>722</ele>
        <time>2021-06-06T08:41:57.445Z</time>
      </trkpt>
      <trkpt lat="45.84721" lon="5.4917">
        <ele>722</ele>
        <time>2021-06-06T08:41:58.445Z</time>
      </trkpt>
      <trkpt lat="45.84724" lon="5.49167">
        <ele>723</ele>
        <time>2021-06-06T08:41:59.445Z</time>
      </trkpt>
      <trkpt lat="45.84726" lon="5.49163">
        <ele>723</ele>
        <time>2021-06-06T08:42:00.445Z</time>
      </trkpt>
      <trkpt lat="45.84729" lon="5.49159">
        <ele>723</ele>
        <time>2021-06-06T08:42:01.444Z</time>
      </trkpt>
      <trkpt lat="45.84732" lon="5.49155">
        <ele>724</ele>
        <time>2021-06-06T08:42:02.445Z</time>
      </trkpt>
      <trkpt lat="45.84734" lon="5.49151">
        <ele>724</ele>
        <time>2021-06-06T08:42:03.445Z</time>
      </trkpt>
      <trkpt lat="45.84736" lon="5.49146">
        <ele>724</ele>
        <time>2021-06-06T08:42:04.445Z</time>
      </trkpt>
      <trkpt lat="45.84738" lon="5.49141">
        <ele>724</ele>
        <time>2021-06-06T08:42:05.445Z</time>
      </trkpt>
      <trkpt lat="45.8474" lon="5.49137">
        <ele>724</ele>
        <time>2021-06-06T08:42:06.444Z</time>
      </trkpt>
      <trkpt lat="45.84742" lon="5.49132">
        <ele>725</ele>
        <time>2021-06-06T08:42:07.445Z</time>
      </trkpt>
      <trkpt lat="45.84744" lon="5.49127">
        <ele>725</ele>
        <time>2021-06-06T08:42:08.445Z</time>
      </trkpt>
      <trkpt lat="45.84747" lon="5.49122">
        <ele>725</ele>
        <time>2021-06-06T08:42:09.445Z</time>
      </trkpt>
      <trkpt lat="45.84749" lon="5.49117">
        <ele>725</ele>
        <time>2021-06-06T08:42:10.445Z</time>
      </trkpt>
      <trkpt lat="45.84751" lon="5.49111">
        <ele>726</ele>
        <time>2021-06-06T08:42:11.445Z</time>
      </trkpt>
      <trkpt lat="45.84752" lon="5.49106">
        <ele>726</ele>
        <time>2021-06-06T08:42:12.444Z</time>
      </trkpt>
      <trkpt lat="45.84754" lon="5.491">
        <ele>726</ele>
        <time>2021-06-06T08:42:13.444Z</time>
      </trkpt>
      <trkpt lat="45.84756" lon="5.49096">
        <ele>726</ele>
        <time>2021-06-06T08:42:14.445Z</time>
      </trkpt>
      <trkpt lat="45.84757" lon="5.49091">
        <ele>727</ele>
        <time>2021-06-06T08:42:15.444Z</time>
      </trkpt>
      <trkpt lat="45.84758" lon="5.49085">
        <ele>727</ele>
        <time>2021-06-06T08:42:16.445Z</time>
      </trkpt>
      <trkpt lat="45.84759" lon="5.4908">
        <ele>728</ele>
        <time>2021-06-06T08:42:17.445Z</time>
      </trkpt>
      <trkpt lat="45.8476" lon="5.49075">
        <ele>728</ele>
        <time>2021-06-06T08:42:18.445Z</time>
      </trkpt>
      <trkpt lat="45.84762" lon="5.49071">
        <ele>728</ele>
        <time>2021-06-06T08:42:19.445Z</time>
      </trkpt>
      <trkpt lat="45.84764" lon="5.49066">
        <ele>729</ele>
        <time>2021-06-06T08:42:20.445Z</time>
      </trkpt>
      <trkpt lat="45.84766" lon="5.49061">
        <ele>729</ele>
        <time>2021-06-06T08:42:21.445Z</time>
      </trkpt>
      <trkpt lat="45.84768" lon="5.49057">
        <ele>730</ele>
        <time>2021-06-06T08:42:22.444Z</time>
      </trkpt>
      <trkpt lat="45.8477" lon="5.49052">
        <ele>730</ele>
        <time>2021-06-06T08:42:23.445Z</time>
      </trkpt>
      <trkpt lat="45.84772" lon="5.49048">
        <ele>730</ele>
        <time>2021-06-06T08:42:24.444Z</time>
      </trkpt>
      <trkpt lat="45.84775" lon="5.49043">
        <ele>731</ele>
        <time>2021-06-06T08:42:25.445Z</time>
      </trkpt>
      <trkpt lat="45.84777" lon="5.49039">
        <ele>731</ele>
        <time>2021-06-06T08:42:26.445Z</time>
      </trkpt>
      <trkpt lat="45.84779" lon="5.49034">
        <ele>732</ele>
        <time>2021-06-06T08:42:27.444Z</time>
      </trkpt>
      <trkpt lat="45.8478" lon="5.49029">
        <ele>732</ele>
        <time>2021-06-06T08:42:28.445Z</time>
      </trkpt>
      <trkpt lat="45.84781" lon="5.49024">
        <ele>732</ele>
        <time>2021-06-06T08:42:29.444Z</time>
      </trkpt>
      <trkpt lat="45.84783" lon="5.49019">
        <ele>733</ele>
        <time>2021-06-06T08:42:30.445Z</time>
      </trkpt>
      <trkpt lat="45.84785" lon="5.49014">
        <ele>733</ele>
        <time>2021-06-06T08:42:31.444Z</time>
      </trkpt>
      <trkpt lat="45.84787" lon="5.4901">
        <ele>734</ele>
        <time>2021-06-06T08:42:32.445Z</time>
      </trkpt>
      <trkpt lat="45.84789" lon="5.49006">
        <ele>734</ele>
        <time>2021-06-06T08:42:33.445Z</time>
      </trkpt>
      <trkpt lat="45.84791" lon="5.49002">
        <ele>734</ele>
        <time>2021-06-06T08:42:34.445Z</time>
      </trkpt>
      <trkpt lat="45.84793" lon="5.48998">
        <ele>735</ele>
        <time>2021-06-06T08:42:35.444Z</time>
      </trkpt>
      <trkpt lat="45.84795" lon="5.48994">
        <ele>735</ele>
        <time>2021-06-06T08:42:36.445Z</time>
      </trkpt>
      <trkpt lat="45.84798" lon="5.48991">
        <ele>736</ele>
        <time>2021-06-06T08:42:37.444Z</time>
      </trkpt>
      <trkpt lat="45.84801" lon="5.48987">
        <ele>736</ele>
        <time>2021-06-06T08:42:38.445Z</time>
      </trkpt>
      <trkpt lat="45.84803" lon="5.48983">
        <ele>737</ele>
        <time>2021-06-06T08:42:39.445Z</time>
      </trkpt>
      <trkpt lat="45.84806" lon="5.4898">
        <ele>737</ele>
        <time>2021-06-06T08:42:40.445Z</time>
      </trkpt>
      <trkpt lat="45.84809" lon="5.48978">
        <ele>738</ele>
        <time>2021-06-06T08:42:41.444Z</time>
      </trkpt>
      <trkpt lat="45.84812" lon="5.48976">
        <ele>738</ele>
        <time>2021-06-06T08:42:42.444Z</time>
      </trkpt>
      <trkpt lat="45.84815" lon="5.48975">
        <ele>738</ele>
        <time>2021-06-06T08:42:43.444Z</time>
      </trkpt>
      <trkpt lat="45.84818" lon="5.48975">
        <ele>739</ele>
        <time>2021-06-06T08:42:44.445Z</time>
      </trkpt>
      <trkpt lat="45.84822" lon="5.48977">
        <ele>740</ele>
        <time>2021-06-06T08:42:45.445Z</time>
      </trkpt>
      <trkpt lat="45.84825" lon="5.48981">
        <ele>740</ele>
        <time>2021-06-06T08:42:46.445Z</time>
      </trkpt>
      <trkpt lat="45.84828" lon="5.48984">
        <ele>741</ele>
        <time>2021-06-06T08:42:47.445Z</time>
      </trkpt>
      <trkpt lat="45.84831" lon="5.48989">
        <ele>742</ele>
        <time>2021-06-06T08:42:48.445Z</time>
      </trkpt>
      <trkpt lat="45.84833" lon="5.48993">
        <ele>743</ele>
        <time>2021-06-06T08:42:49.444Z</time>
      </trkpt>
      <trkpt lat="45.84835" lon="5.48998">
        <ele>744</ele>
        <time>2021-06-06T08:42:50.445Z</time>
      </trkpt>
      <trkpt lat="45.84837" lon="5.49003">
        <ele>744</ele>
        <time>2021-06-06T08:42:51.445Z</time>
      </trkpt>
      <trkpt lat="45.84839" lon="5.49009">
        <ele>745</ele>
        <time>2021-06-06T08:42:52.445Z</time>
      </trkpt>
      <trkpt lat="45.84841" lon="5.49014">
        <ele>746</ele>
        <time>2021-06-06T08:42:53.445Z</time>
      </trkpt>
      <trkpt lat="45.84843" lon="5.49019">
        <ele>746</ele>
        <time>2021-06-06T08:42:54.445Z</time>
      </trkpt>
      <trkpt lat="45.84844" lon="5.49024">
        <ele>747</ele>
        <time>2021-06-06T08:42:55.444Z</time>
      </trkpt>
      <trkpt lat="45.84845" lon="5.49029">
        <ele>747</ele>
        <time>2021-06-06T08:42:56.445Z</time>
      </trkpt>
      <trkpt lat="45.84844" lon="5.49034">
        <ele>748</ele>
        <time>2021-06-06T08:42:57.445Z</time>
      </trkpt>
      <trkpt lat="45.84844" lon="5.49039">
        <ele>748</ele>
        <time>2021-06-06T08:42:58.445Z</time>
      </trkpt>
      <trkpt lat="45.84845" lon="5.49044">
        <ele>748</ele>
        <time>2021-06-06T08:42:59.445Z</time>
      </trkpt>
      <trkpt lat="45.84846" lon="5.49048">
        <ele>749</ele>
        <time>2021-06-06T08:43:00.445Z</time>
      </trkpt>
      <trkpt lat="45.84847" lon="5.49053">
        <ele>749</ele>
        <time>2021-06-06T08:43:01.445Z</time>
      </trkpt>
      <trkpt lat="45.8485" lon="5.49058">
        <ele>750</ele>
        <time>2021-06-06T08:43:02.445Z</time>
      </trkpt>
      <trkpt lat="45.84851" lon="5.49064">
        <ele>750</ele>
        <time>2021-06-06T08:43:03.445Z</time>
      </trkpt>
      <trkpt lat="45.84852" lon="5.49068">
        <ele>751</ele>
        <time>2021-06-06T08:43:04.444Z</time>
      </trkpt>
      <trkpt lat="45.84853" lon="5.49073">
        <ele>751</ele>
        <time>2021-06-06T08:43:05.444Z</time>
      </trkpt>
      <trkpt lat="45.84854" lon="5.49079">
        <ele>752</ele>
        <time>2021-06-06T08:43:06.445Z</time>
      </trkpt>
      <trkpt lat="45.84855" lon="5.49084">
        <ele>752</ele>
        <time>2021-06-06T08:43:07.445Z</time>
      </trkpt>
      <trkpt lat="45.84856" lon="5.49089">
        <ele>752</ele>
        <time>2021-06-06T08:43:08.445Z</time>
      </trkpt>
      <trkpt lat="45.84856" lon="5.49094">
        <ele>752</ele>
        <time>2021-06-06T08:43:09.445Z</time>
      </trkpt>
      <trkpt lat="45.84856" lon="5.49098">
        <ele>752</ele>
        <time>2021-06-06T08:43:10.444Z</time>
      </trkpt>
      <trkpt lat="45.84856" lon="5.49103">
        <ele>751</ele>
        <time>2021-06-06T08:43:11.444Z</time>
      </trkpt>
      <trkpt lat="45.84856" lon="5.49108">
        <ele>751</ele>
        <time>2021-06-06T08:43:12.445Z</time>
      </trkpt>
      <trkpt lat="45.84856" lon="5.49111">
        <ele>750</ele>
        <time>2021-06-06T08:43:13.445Z</time>
      </trkpt>
      <trkpt lat="45.84856" lon="5.49116">
        <ele>750</ele>
        <time>2021-06-06T08:43:14.445Z</time>
      </trkpt>
      <trkpt lat="45.84857" lon="5.49122">
        <ele>749</ele>
        <time>2021-06-06T08:43:15.445Z</time>
      </trkpt>
      <trkpt lat="45.84857" lon="5.49127">
        <ele>749</ele>
        <time>2021-06-06T08:43:16.444Z</time>
      </trkpt>
      <trkpt lat="45.84858" lon="5.49132">
        <ele>749</ele>
        <time>2021-06-06T08:43:17.444Z</time>
      </trkpt>
      <trkpt lat="45.84858" lon="5.49136">
        <ele>748</ele>
        <time>2021-06-06T08:43:18.445Z</time>
      </trkpt>
      <trkpt lat="45.84857" lon="5.49141">
        <ele>748</ele>
        <time>2021-06-06T08:43:19.445Z</time>
      </trkpt>
      <trkpt lat="45.84857" lon="5.49146">
        <ele>748</ele>
        <time>2021-06-06T08:43:20.444Z</time>
      </trkpt>
      <trkpt lat="45.84857" lon="5.49151">
        <ele>748</ele>
        <time>2021-06-06T08:43:21.444Z</time>
      </trkpt>
      <trkpt lat="45.84857" lon="5.49156">
        <ele>748</ele>
        <time>2021-06-06T08:43:22.444Z</time>
      </trkpt>
      <trkpt lat="45.84857" lon="5.49161">
        <ele>748</ele>
        <time>2021-06-06T08:43:23.445Z</time>
      </trkpt>
      <trkpt lat="45.84857" lon="5.49166">
        <ele>748</ele>
        <time>2021-06-06T08:43:24.445Z</time>
      </trkpt>
      <trkpt lat="45.84857" lon="5.49171">
        <ele>748</ele>
        <time>2021-06-06T08:43:25.445Z</time>
      </trkpt>
      <trkpt lat="45.84857" lon="5.49176">
        <ele>748</ele>
        <time>2021-06-06T08:43:26.445Z</time>
      </trkpt>
      <trkpt lat="45.84857" lon="5.49181">
        <ele>747</ele>
        <time>2021-06-06T08:43:27.444Z</time>
      </trkpt>
      <trkpt lat="45.84858" lon="5.49186">
        <ele>747</ele>
        <time>2021-06-06T08:43:28.444Z</time>
      </trkpt>
      <trkpt lat="45.84858" lon="5.49191">
        <ele>747</ele>
        <time>2021-06-06T08:43:29.445Z</time>
      </trkpt>
      <trkpt lat="45.84859" lon="5.49197">
        <ele>747</ele>
        <time>2021-06-06T08:43:30.444Z</time>
      </trkpt>
      <trkpt lat="45.84859" lon="5.49202">
        <ele>747</ele>
        <time>2021-06-06T08:43:31.444Z</time>
      </trkpt>
      <trkpt lat="45.8486" lon="5.49207">
        <ele>748</ele>
        <time>2021-06-06T08:43:32.445Z</time>
      </trkpt>
      <trkpt lat="45.84861" lon="5.49213">
        <ele>748</ele>
        <time>2021-06-06T08:43:33.445Z</time>
      </trkpt>
      <trkpt lat="45.84861" lon="5.49218">
        <ele>748</ele>
        <time>2021-06-06T08:43:34.445Z</time>
      </trkpt>
      <trkpt lat="45.8486" lon="5.49223">
        <ele>748</ele>
        <time>2021-06-06T08:43:35.445Z</time>
      </trkpt>
      <trkpt lat="45.8486" lon="5.49228">
        <ele>748</ele>
        <time>2021-06-06T08:43:36.445Z</time>
      </trkpt>
      <trkpt lat="45.8486" lon="5.49233">
        <ele>748</ele>
        <time>2021-06-06T08:43:37.444Z</time>
      </trkpt>
      <trkpt lat="45.8486" lon="5.49239">
        <ele>749</ele>
        <time>2021-06-06T08:43:38.445Z</time>
      </trkpt>
      <trkpt lat="45.84859" lon="5.49244">
        <ele>749</ele>
        <time>2021-06-06T08:43:39.445Z</time>
      </trkpt>
      <trkpt lat="45.84859" lon="5.4925">
        <ele>749</ele>
        <time>2021-06-06T08:43:40.445Z</time>
      </trkpt>
      <trkpt lat="45.84857" lon="5.49256">
        <ele>749</ele>
        <time>2021-06-06T08:43:41.445Z</time>
      </trkpt>
      <trkpt lat="45.84857" lon="5.49261">
        <ele>750</ele>
        <time>2021-06-06T08:43:42.444Z</time>
      </trkpt>
      <trkpt lat="45.84856" lon="5.49267">
        <ele>750</ele>
        <time>2021-06-06T08:43:43.444Z</time>
      </trkpt>
      <trkpt lat="45.84856" lon="5.49272">
        <ele>751</ele>
        <time>2021-06-06T08:43:44.445Z</time>
      </trkpt>
      <trkpt lat="45.84856" lon="5.49278">
        <ele>751</ele>
        <time>2021-06-06T08:43:45.444Z</time>
      </trkpt>
      <trkpt lat="45.84856" lon="5.49283">
        <ele>752</ele>
        <time>2021-06-06T08:43:46.445Z</time>
      </trkpt>
      <trkpt lat="45.84856" lon="5.49288">
        <ele>752</ele>
        <time>2021-06-06T08:43:47.445Z</time>
      </trkpt>
      <trkpt lat="45.84856" lon="5.49293">
        <ele>752</ele>
        <time>2021-06-06T08:43:48.445Z</time>
      </trkpt>
      <trkpt lat="45.84857" lon="5.49298">
        <ele>753</ele>
        <time>2021-06-06T08:43:49.445Z</time>
      </trkpt>
      <trkpt lat="45.84858" lon="5.49303">
        <ele>753</ele>
        <time>2021-06-06T08:43:50.445Z</time>
      </trkpt>
      <trkpt lat="45.84859" lon="5.49308">
        <ele>753</ele>
        <time>2021-06-06T08:43:51.444Z</time>
      </trkpt>
      <trkpt lat="45.84861" lon="5.49313">
        <ele>753</ele>
        <time>2021-06-06T08:43:52.445Z</time>
      </trkpt>
      <trkpt lat="45.84862" lon="5.49317">
        <ele>753</ele>
        <time>2021-06-06T08:43:53.445Z</time>
      </trkpt>
      <trkpt lat="45.84864" lon="5.4932">
        <ele>754</ele>
        <time>2021-06-06T08:43:54.444Z</time>
      </trkpt>
      <trkpt lat="45.84865" lon="5.49323">
        <ele>754</ele>
        <time>2021-06-06T08:43:55.445Z</time>
      </trkpt>
      <trkpt lat="45.84866" lon="5.49326">
        <ele>754</ele>
        <time>2021-06-06T08:43:56.444Z</time>
      </trkpt>
      <trkpt lat="45.84869" lon="5.49329">
        <ele>755</ele>
        <time>2021-06-06T08:43:57.444Z</time>
      </trkpt>
      <trkpt lat="45.84872" lon="5.49331">
        <ele>755</ele>
        <time>2021-06-06T08:43:58.445Z</time>
      </trkpt>
      <trkpt lat="45.84875" lon="5.49334">
        <ele>756</ele>
        <time>2021-06-06T08:43:59.444Z</time>
      </trkpt>
      <trkpt lat="45.84879" lon="5.49336">
        <ele>756</ele>
        <time>2021-06-06T08:44:00.444Z</time>
      </trkpt>
      <trkpt lat="45.84882" lon="5.49338">
        <ele>756</ele>
        <time>2021-06-06T08:44:01.445Z</time>
      </trkpt>
      <trkpt lat="45.84884" lon="5.49341">
        <ele>757</ele>
        <time>2021-06-06T08:44:02.445Z</time>
      </trkpt>
      <trkpt lat="45.84887" lon="5.49343">
        <ele>757</ele>
        <time>2021-06-06T08:44:03.445Z</time>
      </trkpt>
      <trkpt lat="45.84888" lon="5.49345">
        <ele>758</ele>
        <time>2021-06-06T08:44:04.445Z</time>
      </trkpt>
      <trkpt lat="45.8489" lon="5.49347">
        <ele>759</ele>
        <time>2021-06-06T08:44:05.444Z</time>
      </trkpt>
      <trkpt lat="45.84892" lon="5.49349">
        <ele>760</ele>
        <time>2021-06-06T08:44:06.445Z</time>
      </trkpt>
      <trkpt lat="45.84894" lon="5.49352">
        <ele>761</ele>
        <time>2021-06-06T08:44:07.445Z</time>
      </trkpt>
      <trkpt lat="45.84895" lon="5.49354">
        <ele>762</ele>
        <time>2021-06-06T08:44:08.445Z</time>
      </trkpt>
      <trkpt lat="45.84897" lon="5.49355">
        <ele>763</ele>
        <time>2021-06-06T08:44:09.445Z</time>
      </trkpt>
      <trkpt lat="45.84899" lon="5.49356">
        <ele>764</ele>
        <time>2021-06-06T08:44:10.444Z</time>
      </trkpt>
      <trkpt lat="45.84901" lon="5.49358">
        <ele>765</ele>
        <time>2021-06-06T08:44:11.445Z</time>
      </trkpt>
      <trkpt lat="45.84903" lon="5.4936">
        <ele>766</ele>
        <time>2021-06-06T08:44:12.445Z</time>
      </trkpt>
      <trkpt lat="45.84906" lon="5.49361">
        <ele>767</ele>
        <time>2021-06-06T08:44:13.445Z</time>
      </trkpt>
      <trkpt lat="45.84908" lon="5.49363">
        <ele>767</ele>
        <time>2021-06-06T08:44:14.445Z</time>
      </trkpt>
      <trkpt lat="45.8491" lon="5.49365">
        <ele>768</ele>
        <time>2021-06-06T08:44:15.445Z</time>
      </trkpt>
      <trkpt lat="45.84912" lon="5.49368">
        <ele>768</ele>
        <time>2021-06-06T08:44:16.444Z</time>
      </trkpt>
      <trkpt lat="45.84914" lon="5.4937">
        <ele>769</ele>
        <time>2021-06-06T08:44:17.444Z</time>
      </trkpt>
      <trkpt lat="45.84916" lon="5.49372">
        <ele>770</ele>
        <time>2021-06-06T08:44:18.444Z</time>
      </trkpt>
      <trkpt lat="45.84918" lon="5.49374">
        <ele>770</ele>
        <time>2021-06-06T08:44:19.445Z</time>
      </trkpt>
      <trkpt lat="45.8492" lon="5.49376">
        <ele>771</ele>
        <time>2021-06-06T08:44:20.444Z</time>
      </trkpt>
      <trkpt lat="45.84923" lon="5.49377">
        <ele>771</ele>
        <time>2021-06-06T08:44:21.445Z</time>
      </trkpt>
      <trkpt lat="45.84925" lon="5.49379">
        <ele>772</ele>
        <time>2021-06-06T08:44:22.445Z</time>
      </trkpt>
      <trkpt lat="45.84926" lon="5.49381">
        <ele>772</ele>
        <time>2021-06-06T08:44:23.445Z</time>
      </trkpt>
      <trkpt lat="45.84928" lon="5.49383">
        <ele>773</ele>
        <time>2021-06-06T08:44:24.444Z</time>
      </trkpt>
      <trkpt lat="45.8493" lon="5.49385">
        <ele>773</ele>
        <time>2021-06-06T08:44:25.444Z</time>
      </trkpt>
      <trkpt lat="45.84933" lon="5.49387">
        <ele>774</ele>
        <time>2021-06-06T08:44:26.445Z</time>
      </trkpt>
      <trkpt lat="45.84936" lon="5.49389">
        <ele>774</ele>
        <time>2021-06-06T08:44:27.445Z</time>
      </trkpt>
      <trkpt lat="45.84939" lon="5.49392">
        <ele>775</ele>
        <time>2021-06-06T08:44:28.445Z</time>
      </trkpt>
      <trkpt lat="45.84943" lon="5.49394">
        <ele>775</ele>
        <time>2021-06-06T08:44:29.445Z</time>
      </trkpt>
      <trkpt lat="45.84946" lon="5.49395">
        <ele>776</ele>
        <time>2021-06-06T08:44:30.445Z</time>
      </trkpt>
      <trkpt lat="45.84949" lon="5.49397">
        <ele>776</ele>
        <time>2021-06-06T08:44:31.445Z</time>
      </trkpt>
      <trkpt lat="45.84953" lon="5.49399">
        <ele>776</ele>
        <time>2021-06-06T08:44:32.444Z</time>
      </trkpt>
      <trkpt lat="45.84956" lon="5.49401">
        <ele>777</ele>
        <time>2021-06-06T08:44:33.444Z</time>
      </trkpt>
      <trkpt lat="45.84959" lon="5.49402">
        <ele>777</ele>
        <time>2021-06-06T08:44:34.444Z</time>
      </trkpt>
      <trkpt lat="45.84962" lon="5.49403">
        <ele>777</ele>
        <time>2021-06-06T08:44:35.445Z</time>
      </trkpt>
      <trkpt lat="45.84965" lon="5.49404">
        <ele>777</ele>
        <time>2021-06-06T08:44:36.444Z</time>
      </trkpt>
      <trkpt lat="45.84968" lon="5.49406">
        <ele>778</ele>
        <time>2021-06-06T08:44:37.445Z</time>
      </trkpt>
      <trkpt lat="45.8497" lon="5.49407">
        <ele>778</ele>
        <time>2021-06-06T08:44:38.445Z</time>
      </trkpt>
      <trkpt lat="45.84974" lon="5.49409">
        <ele>778</ele>
        <time>2021-06-06T08:44:39.445Z</time>
      </trkpt>
      <trkpt lat="45.84977" lon="5.4941">
        <ele>779</ele>
        <time>2021-06-06T08:44:40.445Z</time>
      </trkpt>
      <trkpt lat="45.8498" lon="5.49411">
        <ele>779</ele>
        <time>2021-06-06T08:44:41.444Z</time>
      </trkpt>
      <trkpt lat="45.84983" lon="5.49412">
        <ele>780</ele>
        <time>2021-06-06T08:44:42.445Z</time>
      </trkpt>
      <trkpt lat="45.84987" lon="5.49414">
        <ele>780</ele>
        <time>2021-06-06T08:44:43.445Z</time>
      </trkpt>
      <trkpt lat="45.8499" lon="5.49416">
        <ele>780</ele>
        <time>2021-06-06T08:44:44.445Z</time>
      </trkpt>
      <trkpt lat="45.84994" lon="5.49417">
        <ele>781</ele>
        <time>2021-06-06T08:44:45.445Z</time>
      </trkpt>
      <trkpt lat="45.84997" lon="5.49418">
        <ele>781</ele>
        <time>2021-06-06T08:44:46.445Z</time>
      </trkpt>
      <trkpt lat="45.85" lon="5.49419">
        <ele>782</ele>
        <time>2021-06-06T08:44:47.445Z</time>
      </trkpt>
      <trkpt lat="45.85003" lon="5.49421">
        <ele>782</ele>
        <time>2021-06-06T08:44:48.445Z</time>
      </trkpt>
      <trkpt lat="45.85007" lon="5.49423">
        <ele>783</ele>
        <time>2021-06-06T08:44:49.445Z</time>
      </trkpt>
      <trkpt lat="45.85009" lon="5.49425">
        <ele>784</ele>
        <time>2021-06-06T08:44:50.444Z</time>
      </trkpt>
      <trkpt lat="45.85013" lon="5.49427">
        <ele>784</ele>
        <time>2021-06-06T08:44:51.445Z</time>
      </trkpt>
      <trkpt lat="45.85016" lon="5.4943">
        <ele>785</ele>
        <time>2021-06-06T08:44:52.445Z</time>
      </trkpt>
      <trkpt lat="45.8502" lon="5.49432">
        <ele>786</ele>
        <time>2021-06-06T08:44:53.444Z</time>
      </trkpt>
      <trkpt lat="45.85023" lon="5.49435">
        <ele>786</ele>
        <time>2021-06-06T08:44:54.444Z</time>
      </trkpt>
      <trkpt lat="45.85025" lon="5.49437">
        <ele>787</ele>
        <time>2021-06-06T08:44:55.444Z</time>
      </trkpt>
      <trkpt lat="45.85027" lon="5.49439">
        <ele>788</ele>
        <time>2021-06-06T08:44:56.445Z</time>
      </trkpt>
      <trkpt lat="45.8503" lon="5.49441">
        <ele>788</ele>
        <time>2021-06-06T08:44:57.445Z</time>
      </trkpt>
      <trkpt lat="45.85033" lon="5.49444">
        <ele>789</ele>
        <time>2021-06-06T08:44:58.445Z</time>
      </trkpt>
      <trkpt lat="45.85037" lon="5.49447">
        <ele>790</ele>
        <time>2021-06-06T08:44:59.445Z</time>
      </trkpt>
      <trkpt lat="45.85042" lon="5.49451">
        <ele>791</ele>
        <time>2021-06-06T08:45:00.445Z</time>
      </trkpt>
      <trkpt lat="45.85046" lon="5.49454">
        <ele>791</ele>
        <time>2021-06-06T08:45:01.445Z</time>
      </trkpt>
      <trkpt lat="45.85051" lon="5.49459">
        <ele>792</ele>
        <time>2021-06-06T08:45:02.445Z</time>
      </trkpt>
      <trkpt lat="45.85053" lon="5.49463">
        <ele>793</ele>
        <time>2021-06-06T08:45:03.445Z</time>
      </trkpt>
      <trkpt lat="45.85057" lon="5.49468">
        <ele>793</ele>
        <time>2021-06-06T08:45:04.445Z</time>
      </trkpt>
      <trkpt lat="45.8506" lon="5.49475">
        <ele>794</ele>
        <time>2021-06-06T08:45:05.445Z</time>
      </trkpt>
      <trkpt lat="45.85062" lon="5.49482">
        <ele>794</ele>
        <time>2021-06-06T08:45:06.444Z</time>
      </trkpt>
      <trkpt lat="45.85063" lon="5.49487">
        <ele>795</ele>
        <time>2021-06-06T08:45:07.445Z</time>
      </trkpt>
      <trkpt lat="45.85063" lon="5.49492">
        <ele>795</ele>
        <time>2021-06-06T08:45:08.445Z</time>
      </trkpt>
      <trkpt lat="45.85062" lon="5.49497">
        <ele>796</ele>
        <time>2021-06-06T08:45:09.445Z</time>
      </trkpt>
      <trkpt lat="45.85061" lon="5.49501">
        <ele>796</ele>
        <time>2021-06-06T08:45:10.445Z</time>
      </trkpt>
      <trkpt lat="45.85058" lon="5.49503">
        <ele>797</ele>
        <time>2021-06-06T08:45:11.444Z</time>
      </trkpt>
      <trkpt lat="45.85055" lon="5.49505">
        <ele>797</ele>
        <time>2021-06-06T08:45:12.444Z</time>
      </trkpt>
      <trkpt lat="45.85053" lon="5.49507">
        <ele>798</ele>
        <time>2021-06-06T08:45:13.445Z</time>
      </trkpt>
      <trkpt lat="45.85051" lon="5.49509">
        <ele>798</ele>
        <time>2021-06-06T08:45:14.445Z</time>
      </trkpt>
      <trkpt lat="45.85049" lon="5.4951">
        <ele>798</ele>
        <time>2021-06-06T08:45:15.444Z</time>
      </trkpt>
      <trkpt lat="45.85047" lon="5.49512">
        <ele>798</ele>
        <time>2021-06-06T08:45:16.445Z</time>
      </trkpt>
      <trkpt lat="45.85044" lon="5.49513">
        <ele>798</ele>
        <time>2021-06-06T08:45:17.445Z</time>
      </trkpt>
      <trkpt lat="45.85042" lon="5.49514">
        <ele>798</ele>
        <time>2021-06-06T08:45:18.445Z</time>
      </trkpt>
      <trkpt lat="45.85039" lon="5.49516">
        <ele>797</ele>
        <time>2021-06-06T08:45:19.445Z</time>
      </trkpt>
      <trkpt lat="45.85037" lon="5.49517">
        <ele>797</ele>
        <time>2021-06-06T08:45:20.444Z</time>
      </trkpt>
      <trkpt lat="45.85035" lon="5.49519">
        <ele>797</ele>
        <time>2021-06-06T08:45:21.444Z</time>
      </trkpt>
      <trkpt lat="45.85033" lon="5.49522">
        <ele>797</ele>
        <time>2021-06-06T08:45:22.445Z</time>
      </trkpt>
      <trkpt lat="45.85031" lon="5.49525">
        <ele>796</ele>
        <time>2021-06-06T08:45:23.445Z</time>
      </trkpt>
      <trkpt lat="45.85029" lon="5.49529">
        <ele>796</ele>
        <time>2021-06-06T08:45:24.444Z</time>
      </trkpt>
      <trkpt lat="45.85027" lon="5.49534">
        <ele>796</ele>
        <time>2021-06-06T08:45:25.444Z</time>
      </trkpt>
      <trkpt lat="45.85024" lon="5.49538">
        <ele>796</ele>
        <time>2021-06-06T08:45:26.445Z</time>
      </trkpt>
      <trkpt lat="45.85023" lon="5.49543">
        <ele>796</ele>
        <time>2021-06-06T08:45:27.445Z</time>
      </trkpt>
      <trkpt lat="45.85022" lon="5.49547">
        <ele>796</ele>
        <time>2021-06-06T08:45:28.445Z</time>
      </trkpt>
      <trkpt lat="45.85021" lon="5.49551">
        <ele>796</ele>
        <time>2021-06-06T08:45:29.445Z</time>
      </trkpt>
      <trkpt lat="45.85019" lon="5.49556">
        <ele>796</ele>
        <time>2021-06-06T08:45:30.444Z</time>
      </trkpt>
      <trkpt lat="45.85017" lon="5.4956">
        <ele>795</ele>
        <time>2021-06-06T08:45:31.444Z</time>
      </trkpt>
      <trkpt lat="45.85016" lon="5.49564">
        <ele>795</ele>
        <time>2021-06-06T08:45:32.445Z</time>
      </trkpt>
      <trkpt lat="45.85014" lon="5.49568">
        <ele>795</ele>
        <time>2021-06-06T08:45:33.444Z</time>
      </trkpt>
      <trkpt lat="45.85013" lon="5.49572">
        <ele>795</ele>
        <time>2021-06-06T08:45:34.445Z</time>
      </trkpt>
      <trkpt lat="45.85012" lon="5.49575">
        <ele>795</ele>
        <time>2021-06-06T08:45:35.444Z</time>
      </trkpt>
      <trkpt lat="45.85011" lon="5.49579">
        <ele>795</ele>
        <time>2021-06-06T08:45:36.444Z</time>
      </trkpt>
      <trkpt lat="45.85011" lon="5.49583">
        <ele>795</ele>
        <time>2021-06-06T08:45:37.444Z</time>
      </trkpt>
      <trkpt lat="45.8501" lon="5.49587">
        <ele>795</ele>
        <time>2021-06-06T08:45:38.444Z</time>
      </trkpt>
      <trkpt lat="45.8501" lon="5.49591">
        <ele>795</ele>
        <time>2021-06-06T08:45:39.445Z</time>
      </trkpt>
      <trkpt lat="45.85009" lon="5.49595">
        <ele>795</ele>
        <time>2021-06-06T08:45:40.444Z</time>
      </trkpt>
      <trkpt lat="45.85008" lon="5.49599">
        <ele>795</ele>
        <time>2021-06-06T08:45:41.444Z</time>
      </trkpt>
      <trkpt lat="45.85007" lon="5.49604">
        <ele>794</ele>
        <time>2021-06-06T08:45:42.444Z</time>
      </trkpt>
      <trkpt lat="45.85006" lon="5.49609">
        <ele>794</ele>
        <time>2021-06-06T08:45:43.444Z</time>
      </trkpt>
      <trkpt lat="45.85003" lon="5.49615">
        <ele>795</ele>
        <time>2021-06-06T08:45:44.445Z</time>
      </trkpt>
      <trkpt lat="45.85001" lon="5.4962">
        <ele>795</ele>
        <time>2021-06-06T08:45:45.444Z</time>
      </trkpt>
      <trkpt lat="45.85" lon="5.49627">
        <ele>795</ele>
        <time>2021-06-06T08:45:46.444Z</time>
      </trkpt>
      <trkpt lat="45.84999" lon="5.49633">
        <ele>795</ele>
        <time>2021-06-06T08:45:47.445Z</time>
      </trkpt>
      <trkpt lat="45.84997" lon="5.49639">
        <ele>796</ele>
        <time>2021-06-06T08:45:48.444Z</time>
      </trkpt>
      <trkpt lat="45.84997" lon="5.49644">
        <ele>796</ele>
        <time>2021-06-06T08:45:49.445Z</time>
      </trkpt>
      <trkpt lat="45.84997" lon="5.49649">
        <ele>797</ele>
        <time>2021-06-06T08:45:50.444Z</time>
      </trkpt>
      <trkpt lat="45.84998" lon="5.49653">
        <ele>797</ele>
        <time>2021-06-06T08:45:51.444Z</time>
      </trkpt>
      <trkpt lat="45.84999" lon="5.49658">
        <ele>797</ele>
        <time>2021-06-06T08:45:52.444Z</time>
      </trkpt>
      <trkpt lat="45.85001" lon="5.49661">
        <ele>798</ele>
        <time>2021-06-06T08:45:53.444Z</time>
      </trkpt>
      <trkpt lat="45.85002" lon="5.49664">
        <ele>798</ele>
        <time>2021-06-06T08:45:54.445Z</time>
      </trkpt>
      <trkpt lat="45.85004" lon="5.49667">
        <ele>798</ele>
        <time>2021-06-06T08:45:55.444Z</time>
      </trkpt>
      <trkpt lat="45.85006" lon="5.49669">
        <ele>799</ele>
        <time>2021-06-06T08:45:56.444Z</time>
      </trkpt>
      <trkpt lat="45.85007" lon="5.49671">
        <ele>799</ele>
        <time>2021-06-06T08:45:57.444Z</time>
      </trkpt>
      <trkpt lat="45.85009" lon="5.49673">
        <ele>799</ele>
        <time>2021-06-06T08:45:58.444Z</time>
      </trkpt>
      <trkpt lat="45.85011" lon="5.49674">
        <ele>800</ele>
        <time>2021-06-06T08:45:59.444Z</time>
      </trkpt>
      <trkpt lat="45.85014" lon="5.49674">
        <ele>800</ele>
        <time>2021-06-06T08:46:00.445Z</time>
      </trkpt>
      <trkpt lat="45.85018" lon="5.49675">
        <ele>800</ele>
        <time>2021-06-06T08:46:01.444Z</time>
      </trkpt>
      <trkpt lat="45.85021" lon="5.49677">
        <ele>800</ele>
        <time>2021-06-06T08:46:02.444Z</time>
      </trkpt>
      <trkpt lat="45.85025" lon="5.49679">
        <ele>800</ele>
        <time>2021-06-06T08:46:03.445Z</time>
      </trkpt>
      <trkpt lat="45.8503" lon="5.49682">
        <ele>800</ele>
        <time>2021-06-06T08:46:04.445Z</time>
      </trkpt>
      <trkpt lat="45.85034" lon="5.49685">
        <ele>800</ele>
        <time>2021-06-06T08:46:05.444Z</time>
      </trkpt>
      <trkpt lat="45.85036" lon="5.49688">
        <ele>800</ele>
        <time>2021-06-06T08:46:06.444Z</time>
      </trkpt>
      <trkpt lat="45.85039" lon="5.49695">
        <ele>800</ele>
        <time>2021-06-06T08:46:07.444Z</time>
      </trkpt>
      <trkpt lat="45.85041" lon="5.49699">
        <ele>800</ele>
        <time>2021-06-06T08:46:08.444Z</time>
      </trkpt>
      <trkpt lat="45.85043" lon="5.49705">
        <ele>801</ele>
        <time>2021-06-06T08:46:09.445Z</time>
      </trkpt>
      <trkpt lat="45.85045" lon="5.49711">
        <ele>801</ele>
        <time>2021-06-06T08:46:10.444Z</time>
      </trkpt>
      <trkpt lat="45.85046" lon="5.49716">
        <ele>801</ele>
        <time>2021-06-06T08:46:11.444Z</time>
      </trkpt>
      <trkpt lat="45.85047" lon="5.49723">
        <ele>802</ele>
        <time>2021-06-06T08:46:12.444Z</time>
      </trkpt>
      <trkpt lat="45.85048" lon="5.49729">
        <ele>802</ele>
        <time>2021-06-06T08:46:13.445Z</time>
      </trkpt>
      <trkpt lat="45.85049" lon="5.49735">
        <ele>802</ele>
        <time>2021-06-06T08:46:14.444Z</time>
      </trkpt>
      <trkpt lat="45.85049" lon="5.49741">
        <ele>802</ele>
        <time>2021-06-06T08:46:15.444Z</time>
      </trkpt>
      <trkpt lat="45.8505" lon="5.49747">
        <ele>802</ele>
        <time>2021-06-06T08:46:16.444Z</time>
      </trkpt>
      <trkpt lat="45.85051" lon="5.49754">
        <ele>803</ele>
        <time>2021-06-06T08:46:17.444Z</time>
      </trkpt>
      <trkpt lat="45.85051" lon="5.4976">
        <ele>803</ele>
        <time>2021-06-06T08:46:18.445Z</time>
      </trkpt>
      <trkpt lat="45.85051" lon="5.49767">
        <ele>803</ele>
        <time>2021-06-06T08:46:19.445Z</time>
      </trkpt>
      <trkpt lat="45.85051" lon="5.49772">
        <ele>803</ele>
        <time>2021-06-06T08:46:20.445Z</time>
      </trkpt>
      <trkpt lat="45.85052" lon="5.49777">
        <ele>804</ele>
        <time>2021-06-06T08:46:21.445Z</time>
      </trkpt>
      <trkpt lat="45.85053" lon="5.49781">
        <ele>804</ele>
        <time>2021-06-06T08:46:22.444Z</time>
      </trkpt>
      <trkpt lat="45.85055" lon="5.49786">
        <ele>804</ele>
        <time>2021-06-06T08:46:23.444Z</time>
      </trkpt>
      <trkpt lat="45.85058" lon="5.4979">
        <ele>804</ele>
        <time>2021-06-06T08:46:24.445Z</time>
      </trkpt>
      <trkpt lat="45.8506" lon="5.49793">
        <ele>805</ele>
        <time>2021-06-06T08:46:25.445Z</time>
      </trkpt>
      <trkpt lat="45.85064" lon="5.49799">
        <ele>805</ele>
        <time>2021-06-06T08:46:26.444Z</time>
      </trkpt>
      <trkpt lat="45.85067" lon="5.49803">
        <ele>806</ele>
        <time>2021-06-06T08:46:27.444Z</time>
      </trkpt>
      <trkpt lat="45.8507" lon="5.49806">
        <ele>806</ele>
        <time>2021-06-06T08:46:28.444Z</time>
      </trkpt>
      <trkpt lat="45.85073" lon="5.4981">
        <ele>807</ele>
        <time>2021-06-06T08:46:29.445Z</time>
      </trkpt>
      <trkpt lat="45.85076" lon="5.49815">
        <ele>807</ele>
        <time>2021-06-06T08:46:30.445Z</time>
      </trkpt>
      <trkpt lat="45.85078" lon="5.49819">
        <ele>807</ele>
        <time>2021-06-06T08:46:31.444Z</time>
      </trkpt>
      <trkpt lat="45.8508" lon="5.49822">
        <ele>808</ele>
        <time>2021-06-06T08:46:32.444Z</time>
      </trkpt>
      <trkpt lat="45.85083" lon="5.49825">
        <ele>808</ele>
        <time>2021-06-06T08:46:33.444Z</time>
      </trkpt>
      <trkpt lat="45.85087" lon="5.49829">
        <ele>808</ele>
        <time>2021-06-06T08:46:34.445Z</time>
      </trkpt>
      <trkpt lat="45.8509" lon="5.49833">
        <ele>809</ele>
        <time>2021-06-06T08:46:35.444Z</time>
      </trkpt>
      <trkpt lat="45.85094" lon="5.49837">
        <ele>809</ele>
        <time>2021-06-06T08:46:36.445Z</time>
      </trkpt>
      <trkpt lat="45.85097" lon="5.4984">
        <ele>809</ele>
        <time>2021-06-06T08:46:37.444Z</time>
      </trkpt>
      <trkpt lat="45.851" lon="5.49843">
        <ele>810</ele>
        <time>2021-06-06T08:46:38.445Z</time>
      </trkpt>
      <trkpt lat="45.85103" lon="5.49846">
        <ele>810</ele>
        <time>2021-06-06T08:46:39.444Z</time>
      </trkpt>
      <trkpt lat="45.85106" lon="5.4985">
        <ele>810</ele>
        <time>2021-06-06T08:46:40.445Z</time>
      </trkpt>
      <trkpt lat="45.8511" lon="5.49853">
        <ele>810</ele>
        <time>2021-06-06T08:46:41.445Z</time>
      </trkpt>
      <trkpt lat="45.85113" lon="5.49857">
        <ele>810</ele>
        <time>2021-06-06T08:46:42.445Z</time>
      </trkpt>
      <trkpt lat="45.85116" lon="5.49862">
        <ele>810</ele>
        <time>2021-06-06T08:46:43.444Z</time>
      </trkpt>
      <trkpt lat="45.85118" lon="5.49867">
        <ele>810</ele>
        <time>2021-06-06T08:46:44.445Z</time>
      </trkpt>
      <trkpt lat="45.85121" lon="5.49872">
        <ele>810</ele>
        <time>2021-06-06T08:46:45.445Z</time>
      </trkpt>
      <trkpt lat="45.85123" lon="5.49877">
        <ele>810</ele>
        <time>2021-06-06T08:46:46.444Z</time>
      </trkpt>
      <trkpt lat="45.85125" lon="5.49883">
        <ele>811</ele>
        <time>2021-06-06T08:46:47.444Z</time>
      </trkpt>
      <trkpt lat="45.85127" lon="5.49888">
        <ele>811</ele>
        <time>2021-06-06T08:46:48.444Z</time>
      </trkpt>
      <trkpt lat="45.85129" lon="5.49893">
        <ele>811</ele>
        <time>2021-06-06T08:46:49.444Z</time>
      </trkpt>
      <trkpt lat="45.8513" lon="5.49898">
        <ele>812</ele>
        <time>2021-06-06T08:46:50.445Z</time>
      </trkpt>
      <trkpt lat="45.85132" lon="5.49903">
        <ele>812</ele>
        <time>2021-06-06T08:46:51.444Z</time>
      </trkpt>
      <trkpt lat="45.85134" lon="5.49908">
        <ele>812</ele>
        <time>2021-06-06T08:46:52.445Z</time>
      </trkpt>
      <trkpt lat="45.85135" lon="5.49913">
        <ele>812</ele>
        <time>2021-06-06T08:46:53.445Z</time>
      </trkpt>
      <trkpt lat="45.85138" lon="5.49918">
        <ele>811</ele>
        <time>2021-06-06T08:46:54.445Z</time>
      </trkpt>
      <trkpt lat="45.8514" lon="5.49922">
        <ele>810</ele>
        <time>2021-06-06T08:46:55.445Z</time>
      </trkpt>
      <trkpt lat="45.85142" lon="5.49927">
        <ele>809</ele>
        <time>2021-06-06T08:46:56.445Z</time>
      </trkpt>
      <trkpt lat="45.85144" lon="5.49931">
        <ele>808</ele>
        <time>2021-06-06T08:46:57.444Z</time>
      </trkpt>
      <trkpt lat="45.85146" lon="5.49935">
        <ele>808</ele>
        <time>2021-06-06T08:46:58.444Z</time>
      </trkpt>
      <trkpt lat="45.85148" lon="5.49939">
        <ele>807</ele>
        <time>2021-06-06T08:46:59.445Z</time>
      </trkpt>
      <trkpt lat="45.85149" lon="5.49942">
        <ele>807</ele>
        <time>2021-06-06T08:47:00.444Z</time>
      </trkpt>
      <trkpt lat="45.85151" lon="5.49946">
        <ele>807</ele>
        <time>2021-06-06T08:47:01.444Z</time>
      </trkpt>
      <trkpt lat="45.85153" lon="5.49948">
        <ele>807</ele>
        <time>2021-06-06T08:47:02.445Z</time>
      </trkpt>
      <trkpt lat="45.85155" lon="5.49951">
        <ele>807</ele>
        <time>2021-06-06T08:47:03.444Z</time>
      </trkpt>
      <trkpt lat="45.85156" lon="5.49954">
        <ele>807</ele>
        <time>2021-06-06T08:47:04.444Z</time>
      </trkpt>
      <trkpt lat="45.85158" lon="5.49957">
        <ele>807</ele>
        <time>2021-06-06T08:47:05.444Z</time>
      </trkpt>
      <trkpt lat="45.8516" lon="5.4996">
        <ele>807</ele>
        <time>2021-06-06T08:47:06.444Z</time>
      </trkpt>
      <trkpt lat="45.85163" lon="5.49964">
        <ele>807</ele>
        <time>2021-06-06T08:47:07.444Z</time>
      </trkpt>
      <trkpt lat="45.85165" lon="5.49968">
        <ele>807</ele>
        <time>2021-06-06T08:47:08.445Z</time>
      </trkpt>
      <trkpt lat="45.85167" lon="5.49972">
        <ele>807</ele>
        <time>2021-06-06T08:47:09.444Z</time>
      </trkpt>
      <trkpt lat="45.85168" lon="5.49977">
        <ele>808</ele>
        <time>2021-06-06T08:47:10.444Z</time>
      </trkpt>
      <trkpt lat="45.85169" lon="5.49982">
        <ele>808</ele>
        <time>2021-06-06T08:47:11.444Z</time>
      </trkpt>
      <trkpt lat="45.85169" lon="5.49987">
        <ele>808</ele>
        <time>2021-06-06T08:47:12.444Z</time>
      </trkpt>
      <trkpt lat="45.85169" lon="5.49993">
        <ele>808</ele>
        <time>2021-06-06T08:47:13.444Z</time>
      </trkpt>
      <trkpt lat="45.85169" lon="5.49998">
        <ele>808</ele>
        <time>2021-06-06T08:47:14.444Z</time>
      </trkpt>
      <trkpt lat="45.85169" lon="5.50004">
        <ele>809</ele>
        <time>2021-06-06T08:47:15.445Z</time>
      </trkpt>
      <trkpt lat="45.85168" lon="5.50009">
        <ele>809</ele>
        <time>2021-06-06T08:47:16.445Z</time>
      </trkpt>
      <trkpt lat="45.85167" lon="5.50014">
        <ele>810</ele>
        <time>2021-06-06T08:47:17.444Z</time>
      </trkpt>
      <trkpt lat="45.85165" lon="5.50018">
        <ele>810</ele>
        <time>2021-06-06T08:47:18.445Z</time>
      </trkpt>
      <trkpt lat="45.85163" lon="5.50023">
        <ele>811</ele>
        <time>2021-06-06T08:47:19.445Z</time>
      </trkpt>
      <trkpt lat="45.85161" lon="5.50027">
        <ele>812</ele>
        <time>2021-06-06T08:47:20.445Z</time>
      </trkpt>
      <trkpt lat="45.85159" lon="5.50031">
        <ele>812</ele>
        <time>2021-06-06T08:47:21.444Z</time>
      </trkpt>
      <trkpt lat="45.85157" lon="5.50036">
        <ele>813</ele>
        <time>2021-06-06T08:47:22.445Z</time>
      </trkpt>
      <trkpt lat="45.85154" lon="5.5004">
        <ele>813</ele>
        <time>2021-06-06T08:47:23.445Z</time>
      </trkpt>
      <trkpt lat="45.85149" lon="5.50043">
        <ele>814</ele>
        <time>2021-06-06T08:47:24.444Z</time>
      </trkpt>
      <trkpt lat="45.85144" lon="5.50046">
        <ele>814</ele>
        <time>2021-06-06T08:47:25.445Z</time>
      </trkpt>
      <trkpt lat="45.85139" lon="5.5005">
        <ele>815</ele>
        <time>2021-06-06T08:47:26.444Z</time>
      </trkpt>
      <trkpt lat="45.85136" lon="5.50052">
        <ele>816</ele>
        <time>2021-06-06T08:47:27.445Z</time>
      </trkpt>
      <trkpt lat="45.85133" lon="5.50055">
        <ele>816</ele>
        <time>2021-06-06T08:47:28.445Z</time>
      </trkpt>
      <trkpt lat="45.8513" lon="5.50058">
        <ele>817</ele>
        <time>2021-06-06T08:47:29.444Z</time>
      </trkpt>
      <trkpt lat="45.85126" lon="5.50061">
        <ele>817</ele>
        <time>2021-06-06T08:47:30.445Z</time>
      </trkpt>
      <trkpt lat="45.85123" lon="5.50064">
        <ele>818</ele>
        <time>2021-06-06T08:47:31.444Z</time>
      </trkpt>
      <trkpt lat="45.8512" lon="5.50066">
        <ele>818</ele>
        <time>2021-06-06T08:47:32.444Z</time>
      </trkpt>
      <trkpt lat="45.85117" lon="5.50069">
        <ele>819</ele>
        <time>2021-06-06T08:47:33.445Z</time>
      </trkpt>
      <trkpt lat="45.85113" lon="5.50071">
        <ele>819</ele>
        <time>2021-06-06T08:47:34.444Z</time>
      </trkpt>
      <trkpt lat="45.85109" lon="5.50074">
        <ele>820</ele>
        <time>2021-06-06T08:47:35.445Z</time>
      </trkpt>
      <trkpt lat="45.85106" lon="5.50077">
        <ele>820</ele>
        <time>2021-06-06T08:47:36.444Z</time>
      </trkpt>
      <trkpt lat="45.85102" lon="5.50079">
        <ele>821</ele>
        <time>2021-06-06T08:47:37.444Z</time>
      </trkpt>
      <trkpt lat="45.85099" lon="5.50082">
        <ele>821</ele>
        <time>2021-06-06T08:47:38.444Z</time>
      </trkpt>
      <trkpt lat="45.85096" lon="5.50084">
        <ele>821</ele>
        <time>2021-06-06T08:47:39.444Z</time>
      </trkpt>
      <trkpt lat="45.85094" lon="5.50087">
        <ele>822</ele>
        <time>2021-06-06T08:47:40.445Z</time>
      </trkpt>
      <trkpt lat="45.85092" lon="5.50091">
        <ele>822</ele>
        <time>2021-06-06T08:47:41.444Z</time>
      </trkpt>
      <trkpt lat="45.8509" lon="5.50094">
        <ele>823</ele>
        <time>2021-06-06T08:47:42.445Z</time>
      </trkpt>
      <trkpt lat="45.85088" lon="5.50098">
        <ele>823</ele>
        <time>2021-06-06T08:47:43.445Z</time>
      </trkpt>
      <trkpt lat="45.85084" lon="5.50101">
        <ele>824</ele>
        <time>2021-06-06T08:47:44.444Z</time>
      </trkpt>
      <trkpt lat="45.85081" lon="5.50104">
        <ele>825</ele>
        <time>2021-06-06T08:47:45.444Z</time>
      </trkpt>
      <trkpt lat="45.85078" lon="5.50107">
        <ele>826</ele>
        <time>2021-06-06T08:47:46.445Z</time>
      </trkpt>
      <trkpt lat="45.85076" lon="5.50111">
        <ele>827</ele>
        <time>2021-06-06T08:47:47.445Z</time>
      </trkpt>
      <trkpt lat="45.85074" lon="5.50114">
        <ele>828</ele>
        <time>2021-06-06T08:47:48.445Z</time>
      </trkpt>
      <trkpt lat="45.85073" lon="5.50118">
        <ele>829</ele>
        <time>2021-06-06T08:47:49.444Z</time>
      </trkpt>
      <trkpt lat="45.85071" lon="5.50122">
        <ele>829</ele>
        <time>2021-06-06T08:47:50.445Z</time>
      </trkpt>
      <trkpt lat="45.85069" lon="5.50126">
        <ele>830</ele>
        <time>2021-06-06T08:47:51.444Z</time>
      </trkpt>
      <trkpt lat="45.85066" lon="5.5013">
        <ele>830</ele>
        <time>2021-06-06T08:47:52.444Z</time>
      </trkpt>
      <trkpt lat="45.85063" lon="5.50134">
        <ele>831</ele>
        <time>2021-06-06T08:47:53.444Z</time>
      </trkpt>
      <trkpt lat="45.8506" lon="5.50138">
        <ele>832</ele>
        <time>2021-06-06T08:47:54.445Z</time>
      </trkpt>
      <trkpt lat="45.85057" lon="5.50142">
        <ele>832</ele>
        <time>2021-06-06T08:47:55.444Z</time>
      </trkpt>
      <trkpt lat="45.85054" lon="5.50147">
        <ele>833</ele>
        <time>2021-06-06T08:47:56.444Z</time>
      </trkpt>
      <trkpt lat="45.85052" lon="5.50151">
        <ele>833</ele>
        <time>2021-06-06T08:47:57.445Z</time>
      </trkpt>
      <trkpt lat="45.85049" lon="5.50156">
        <ele>834</ele>
        <time>2021-06-06T08:47:58.444Z</time>
      </trkpt>
      <trkpt lat="45.85046" lon="5.5016">
        <ele>835</ele>
        <time>2021-06-06T08:47:59.445Z</time>
      </trkpt>
      <trkpt lat="45.85044" lon="5.50165">
        <ele>835</ele>
        <time>2021-06-06T08:48:00.444Z</time>
      </trkpt>
      <trkpt lat="45.85042" lon="5.50169">
        <ele>836</ele>
        <time>2021-06-06T08:48:01.445Z</time>
      </trkpt>
      <trkpt lat="45.85041" lon="5.50174">
        <ele>836</ele>
        <time>2021-06-06T08:48:02.445Z</time>
      </trkpt>
      <trkpt lat="45.85038" lon="5.50178">
        <ele>837</ele>
        <time>2021-06-06T08:48:03.445Z</time>
      </trkpt>
      <trkpt lat="45.85036" lon="5.50182">
        <ele>837</ele>
        <time>2021-06-06T08:48:04.445Z</time>
      </trkpt>
      <trkpt lat="45.85034" lon="5.50187">
        <ele>837</ele>
        <time>2021-06-06T08:48:05.445Z</time>
      </trkpt>
      <trkpt lat="45.85032" lon="5.50193">
        <ele>838</ele>
        <time>2021-06-06T08:48:06.444Z</time>
      </trkpt>
      <trkpt lat="45.85029" lon="5.50197">
        <ele>838</ele>
        <time>2021-06-06T08:48:07.445Z</time>
      </trkpt>
      <trkpt lat="45.85026" lon="5.50202">
        <ele>838</ele>
        <time>2021-06-06T08:48:08.445Z</time>
      </trkpt>
      <trkpt lat="45.85024" lon="5.50205">
        <ele>839</ele>
        <time>2021-06-06T08:48:09.444Z</time>
      </trkpt>
      <trkpt lat="45.85021" lon="5.5021">
        <ele>839</ele>
        <time>2021-06-06T08:48:10.444Z</time>
      </trkpt>
      <trkpt lat="45.85017" lon="5.50214">
        <ele>839</ele>
        <time>2021-06-06T08:48:11.445Z</time>
      </trkpt>
      <trkpt lat="45.85014" lon="5.50219">
        <ele>840</ele>
        <time>2021-06-06T08:48:12.444Z</time>
      </trkpt>
      <trkpt lat="45.85012" lon="5.50223">
        <ele>840</ele>
        <time>2021-06-06T08:48:13.445Z</time>
      </trkpt>
      <trkpt lat="45.85009" lon="5.50227">
        <ele>840</ele>
        <time>2021-06-06T08:48:14.444Z</time>
      </trkpt>
      <trkpt lat="45.85007" lon="5.5023">
        <ele>840</ele>
        <time>2021-06-06T08:48:15.445Z</time>
      </trkpt>
      <trkpt lat="45.85004" lon="5.50234">
        <ele>841</ele>
        <time>2021-06-06T08:48:16.445Z</time>
      </trkpt>
      <trkpt lat="45.85001" lon="5.50238">
        <ele>841</ele>
        <time>2021-06-06T08:48:17.444Z</time>
      </trkpt>
      <trkpt lat="45.84998" lon="5.50243">
        <ele>841</ele>
        <time>2021-06-06T08:48:18.444Z</time>
      </trkpt>
      <trkpt lat="45.84995" lon="5.50246">
        <ele>842</ele>
        <time>2021-06-06T08:48:19.444Z</time>
      </trkpt>
      <trkpt lat="45.84992" lon="5.50249">
        <ele>842</ele>
        <time>2021-06-06T08:48:20.445Z</time>
      </trkpt>
      <trkpt lat="45.84991" lon="5.50253">
        <ele>842</ele>
        <time>2021-06-06T08:48:21.444Z</time>
      </trkpt>
      <trkpt lat="45.84989" lon="5.50257">
        <ele>842</ele>
        <time>2021-06-06T08:48:22.445Z</time>
      </trkpt>
      <trkpt lat="45.84986" lon="5.50261">
        <ele>842</ele>
        <time>2021-06-06T08:48:23.444Z</time>
      </trkpt>
      <trkpt lat="45.84983" lon="5.50264">
        <ele>842</ele>
        <time>2021-06-06T08:48:24.445Z</time>
      </trkpt>
      <trkpt lat="45.84979" lon="5.50267">
        <ele>842</ele>
        <time>2021-06-06T08:48:25.444Z</time>
      </trkpt>
      <trkpt lat="45.84975" lon="5.5027">
        <ele>842</ele>
        <time>2021-06-06T08:48:26.444Z</time>
      </trkpt>
      <trkpt lat="45.84972" lon="5.50274">
        <ele>842</ele>
        <time>2021-06-06T08:48:27.445Z</time>
      </trkpt>
      <trkpt lat="45.84968" lon="5.50277">
        <ele>842</ele>
        <time>2021-06-06T08:48:28.445Z</time>
      </trkpt>
      <trkpt lat="45.84966" lon="5.50281">
        <ele>842</ele>
        <time>2021-06-06T08:48:29.444Z</time>
      </trkpt>
      <trkpt lat="45.84964" lon="5.50285">
        <ele>842</ele>
        <time>2021-06-06T08:48:30.445Z</time>
      </trkpt>
      <trkpt lat="45.84962" lon="5.50288">
        <ele>843</ele>
        <time>2021-06-06T08:48:31.444Z</time>
      </trkpt>
      <trkpt lat="45.84959" lon="5.5029">
        <ele>842</ele>
        <time>2021-06-06T08:48:32.444Z</time>
      </trkpt>
      <trkpt lat="45.84956" lon="5.50293">
        <ele>843</ele>
        <time>2021-06-06T08:48:33.445Z</time>
      </trkpt>
      <trkpt lat="45.84953" lon="5.50295">
        <ele>843</ele>
        <time>2021-06-06T08:48:34.444Z</time>
      </trkpt>
      <trkpt lat="45.84949" lon="5.50298">
        <ele>843</ele>
        <time>2021-06-06T08:48:35.445Z</time>
      </trkpt>
      <trkpt lat="45.84943" lon="5.50299">
        <ele>843</ele>
        <time>2021-06-06T08:48:36.444Z</time>
      </trkpt>
      <trkpt lat="45.84938" lon="5.50301">
        <ele>843</ele>
        <time>2021-06-06T08:48:37.444Z</time>
      </trkpt>
      <trkpt lat="45.84934" lon="5.50304">
        <ele>842</ele>
        <time>2021-06-06T08:48:38.444Z</time>
      </trkpt>
      <trkpt lat="45.8493" lon="5.50305">
        <ele>843</ele>
        <time>2021-06-06T08:48:39.444Z</time>
      </trkpt>
      <trkpt lat="45.84926" lon="5.50308">
        <ele>843</ele>
        <time>2021-06-06T08:48:40.445Z</time>
      </trkpt>
      <trkpt lat="45.84922" lon="5.5031">
        <ele>843</ele>
        <time>2021-06-06T08:48:41.444Z</time>
      </trkpt>
      <trkpt lat="45.84919" lon="5.50313">
        <ele>842</ele>
        <time>2021-06-06T08:48:42.445Z</time>
      </trkpt>
      <trkpt lat="45.84916" lon="5.50315">
        <ele>842</ele>
        <time>2021-06-06T08:48:43.444Z</time>
      </trkpt>
      <trkpt lat="45.84912" lon="5.50317">
        <ele>842</ele>
        <time>2021-06-06T08:48:44.444Z</time>
      </trkpt>
      <trkpt lat="45.84908" lon="5.5032">
        <ele>842</ele>
        <time>2021-06-06T08:48:45.444Z</time>
      </trkpt>
      <trkpt lat="45.84905" lon="5.50322">
        <ele>842</ele>
        <time>2021-06-06T08:48:46.444Z</time>
      </trkpt>
      <trkpt lat="45.84901" lon="5.50323">
        <ele>843</ele>
        <time>2021-06-06T08:48:47.444Z</time>
      </trkpt>
      <trkpt lat="45.84897" lon="5.50325">
        <ele>843</ele>
        <time>2021-06-06T08:48:48.444Z</time>
      </trkpt>
      <trkpt lat="45.84894" lon="5.50327">
        <ele>843</ele>
        <time>2021-06-06T08:48:49.444Z</time>
      </trkpt>
      <trkpt lat="45.8489" lon="5.50328">
        <ele>843</ele>
        <time>2021-06-06T08:48:50.445Z</time>
      </trkpt>
      <trkpt lat="45.84886" lon="5.50328">
        <ele>843</ele>
        <time>2021-06-06T08:48:51.444Z</time>
      </trkpt>
      <trkpt lat="45.84883" lon="5.5033">
        <ele>843</ele>
        <time>2021-06-06T08:48:52.444Z</time>
      </trkpt>
      <trkpt lat="45.84879" lon="5.50332">
        <ele>842</ele>
        <time>2021-06-06T08:48:53.444Z</time>
      </trkpt>
      <trkpt lat="45.84876" lon="5.50333">
        <ele>842</ele>
        <time>2021-06-06T08:48:54.445Z</time>
      </trkpt>
      <trkpt lat="45.84872" lon="5.50334">
        <ele>842</ele>
        <time>2021-06-06T08:48:55.444Z</time>
      </trkpt>
      <trkpt lat="45.84869" lon="5.50335">
        <ele>842</ele>
        <time>2021-06-06T08:48:56.444Z</time>
      </trkpt>
      <trkpt lat="45.84865" lon="5.50336">
        <ele>841</ele>
        <time>2021-06-06T08:48:57.444Z</time>
      </trkpt>
      <trkpt lat="45.84861" lon="5.50337">
        <ele>841</ele>
        <time>2021-06-06T08:48:58.444Z</time>
      </trkpt>
      <trkpt lat="45.84857" lon="5.50338">
        <ele>841</ele>
        <time>2021-06-06T08:48:59.445Z</time>
      </trkpt>
      <trkpt lat="45.84854" lon="5.5034">
        <ele>841</ele>
        <time>2021-06-06T08:49:00.445Z</time>
      </trkpt>
      <trkpt lat="45.8485" lon="5.50341">
        <ele>841</ele>
        <time>2021-06-06T08:49:01.444Z</time>
      </trkpt>
      <trkpt lat="45.84848" lon="5.50344">
        <ele>841</ele>
        <time>2021-06-06T08:49:02.444Z</time>
      </trkpt>
      <trkpt lat="45.84845" lon="5.50348">
        <ele>842</ele>
        <time>2021-06-06T08:49:03.444Z</time>
      </trkpt>
      <trkpt lat="45.84843" lon="5.50351">
        <ele>842</ele>
        <time>2021-06-06T08:49:04.445Z</time>
      </trkpt>
      <trkpt lat="45.84841" lon="5.50353">
        <ele>843</ele>
        <time>2021-06-06T08:49:05.444Z</time>
      </trkpt>
      <trkpt lat="45.84843" lon="5.50355">
        <ele>843</ele>
        <time>2021-06-06T08:49:06.444Z</time>
      </trkpt>
      <trkpt lat="45.84846" lon="5.50357">
        <ele>843</ele>
        <time>2021-06-06T08:49:07.444Z</time>
      </trkpt>
      <trkpt lat="45.8485" lon="5.50358">
        <ele>844</ele>
        <time>2021-06-06T08:49:08.444Z</time>
      </trkpt>
      <trkpt lat="45.84853" lon="5.5036">
        <ele>844</ele>
        <time>2021-06-06T08:49:09.445Z</time>
      </trkpt>
      <trkpt lat="45.84857" lon="5.50361">
        <ele>844</ele>
        <time>2021-06-06T08:49:10.445Z</time>
      </trkpt>
      <trkpt lat="45.84861" lon="5.50362">
        <ele>844</ele>
        <time>2021-06-06T08:49:11.444Z</time>
      </trkpt>
      <trkpt lat="45.84865" lon="5.50363">
        <ele>844</ele>
        <time>2021-06-06T08:49:12.444Z</time>
      </trkpt>
      <trkpt lat="45.84869" lon="5.50363">
        <ele>845</ele>
        <time>2021-06-06T08:49:13.444Z</time>
      </trkpt>
      <trkpt lat="45.84873" lon="5.50364">
        <ele>845</ele>
        <time>2021-06-06T08:49:14.444Z</time>
      </trkpt>
      <trkpt lat="45.84877" lon="5.50365">
        <ele>845</ele>
        <time>2021-06-06T08:49:15.444Z</time>
      </trkpt>
      <trkpt lat="45.84881" lon="5.50366">
        <ele>845</ele>
        <time>2021-06-06T08:49:16.445Z</time>
      </trkpt>
      <trkpt lat="45.84886" lon="5.50368">
        <ele>845</ele>
        <time>2021-06-06T08:49:17.445Z</time>
      </trkpt>
      <trkpt lat="45.8489" lon="5.5037">
        <ele>845</ele>
        <time>2021-06-06T08:49:18.445Z</time>
      </trkpt>
      <trkpt lat="45.84894" lon="5.50371">
        <ele>845</ele>
        <time>2021-06-06T08:49:19.445Z</time>
      </trkpt>
      <trkpt lat="45.84898" lon="5.50373">
        <ele>845</ele>
        <time>2021-06-06T08:49:20.445Z</time>
      </trkpt>
      <trkpt lat="45.84902" lon="5.50375">
        <ele>845</ele>
        <time>2021-06-06T08:49:21.445Z</time>
      </trkpt>
      <trkpt lat="45.84906" lon="5.50377">
        <ele>845</ele>
        <time>2021-06-06T08:49:22.444Z</time>
      </trkpt>
      <trkpt lat="45.84909" lon="5.50378">
        <ele>845</ele>
        <time>2021-06-06T08:49:23.445Z</time>
      </trkpt>
      <trkpt lat="45.84912" lon="5.5038">
        <ele>845</ele>
        <time>2021-06-06T08:49:24.444Z</time>
      </trkpt>
      <trkpt lat="45.84915" lon="5.50381">
        <ele>846</ele>
        <time>2021-06-06T08:49:25.444Z</time>
      </trkpt>
      <trkpt lat="45.84918" lon="5.5038">
        <ele>846</ele>
        <time>2021-06-06T08:49:26.445Z</time>
      </trkpt>
      <trkpt lat="45.8492" lon="5.50379">
        <ele>847</ele>
        <time>2021-06-06T08:49:27.444Z</time>
      </trkpt>
      <trkpt lat="45.84922" lon="5.50379">
        <ele>847</ele>
        <time>2021-06-06T08:49:28.444Z</time>
      </trkpt>
      <trkpt lat="45.84925" lon="5.50379">
        <ele>848</ele>
        <time>2021-06-06T08:49:29.444Z</time>
      </trkpt>
      <trkpt lat="45.84927" lon="5.50377">
        <ele>848</ele>
        <time>2021-06-06T08:49:30.444Z</time>
      </trkpt>
      <trkpt lat="45.84929" lon="5.50375">
        <ele>849</ele>
        <time>2021-06-06T08:49:31.445Z</time>
      </trkpt>
      <trkpt lat="45.84932" lon="5.50375">
        <ele>849</ele>
        <time>2021-06-06T08:49:32.444Z</time>
      </trkpt>
      <trkpt lat="45.84935" lon="5.50374">
        <ele>850</ele>
        <time>2021-06-06T08:49:33.444Z</time>
      </trkpt>
      <trkpt lat="45.84937" lon="5.50374">
        <ele>850</ele>
        <time>2021-06-06T08:49:34.445Z</time>
      </trkpt>
      <trkpt lat="45.8494" lon="5.50372">
        <ele>851</ele>
        <time>2021-06-06T08:49:35.445Z</time>
      </trkpt>
      <trkpt lat="45.84943" lon="5.50371">
        <ele>851</ele>
        <time>2021-06-06T08:49:36.444Z</time>
      </trkpt>
      <trkpt lat="45.84947" lon="5.50368">
        <ele>852</ele>
        <time>2021-06-06T08:49:37.444Z</time>
      </trkpt>
      <trkpt lat="45.84951" lon="5.50366">
        <ele>852</ele>
        <time>2021-06-06T08:49:38.445Z</time>
      </trkpt>
      <trkpt lat="45.84954" lon="5.50363">
        <ele>853</ele>
        <time>2021-06-06T08:49:39.445Z</time>
      </trkpt>
      <trkpt lat="45.84957" lon="5.50361">
        <ele>853</ele>
        <time>2021-06-06T08:49:40.444Z</time>
      </trkpt>
      <trkpt lat="45.84959" lon="5.50357">
        <ele>854</ele>
        <time>2021-06-06T08:49:41.444Z</time>
      </trkpt>
      <trkpt lat="45.84961" lon="5.50354">
        <ele>855</ele>
        <time>2021-06-06T08:49:42.445Z</time>
      </trkpt>
      <trkpt lat="45.84963" lon="5.50351">
        <ele>855</ele>
        <time>2021-06-06T08:49:43.444Z</time>
      </trkpt>
      <trkpt lat="45.84965" lon="5.50349">
        <ele>856</ele>
        <time>2021-06-06T08:49:44.444Z</time>
      </trkpt>
      <trkpt lat="45.84968" lon="5.50348">
        <ele>857</ele>
        <time>2021-06-06T08:49:45.445Z</time>
      </trkpt>
      <trkpt lat="45.84972" lon="5.50347">
        <ele>857</ele>
        <time>2021-06-06T08:49:46.444Z</time>
      </trkpt>
      <trkpt lat="45.84975" lon="5.50345">
        <ele>858</ele>
        <time>2021-06-06T08:49:47.444Z</time>
      </trkpt>
      <trkpt lat="45.84979" lon="5.50343">
        <ele>858</ele>
        <time>2021-06-06T08:49:48.444Z</time>
      </trkpt>
      <trkpt lat="45.84983" lon="5.5034">
        <ele>859</ele>
        <time>2021-06-06T08:49:49.444Z</time>
      </trkpt>
      <trkpt lat="45.84986" lon="5.50338">
        <ele>859</ele>
        <time>2021-06-06T08:49:50.445Z</time>
      </trkpt>
      <trkpt lat="45.8499" lon="5.50337">
        <ele>859</ele>
        <time>2021-06-06T08:49:51.444Z</time>
      </trkpt>
      <trkpt lat="45.84994" lon="5.50337">
        <ele>860</ele>
        <time>2021-06-06T08:49:52.444Z</time>
      </trkpt>
      <trkpt lat="45.84998" lon="5.50335">
        <ele>860</ele>
        <time>2021-06-06T08:49:53.445Z</time>
      </trkpt>
      <trkpt lat="45.85001" lon="5.50333">
        <ele>860</ele>
        <time>2021-06-06T08:49:54.444Z</time>
      </trkpt>
      <trkpt lat="45.85003" lon="5.5033">
        <ele>860</ele>
        <time>2021-06-06T08:49:55.445Z</time>
      </trkpt>
      <trkpt lat="45.85007" lon="5.50328">
        <ele>860</ele>
        <time>2021-06-06T08:49:56.445Z</time>
      </trkpt>
      <trkpt lat="45.85009" lon="5.50327">
        <ele>861</ele>
        <time>2021-06-06T08:49:57.444Z</time>
      </trkpt>
      <trkpt lat="45.85013" lon="5.50326">
        <ele>861</ele>
        <time>2021-06-06T08:49:58.444Z</time>
      </trkpt>
      <trkpt lat="45.85016" lon="5.50323">
        <ele>861</ele>
        <time>2021-06-06T08:49:59.445Z</time>
      </trkpt>
      <trkpt lat="45.85018" lon="5.50317">
        <ele>861</ele>
        <time>2021-06-06T08:50:00.445Z</time>
      </trkpt>
      <trkpt lat="45.85022" lon="5.50313">
        <ele>861</ele>
        <time>2021-06-06T08:50:01.444Z</time>
      </trkpt>
      <trkpt lat="45.85026" lon="5.5031">
        <ele>861</ele>
        <time>2021-06-06T08:50:02.444Z</time>
      </trkpt>
      <trkpt lat="45.85031" lon="5.50309">
        <ele>862</ele>
        <time>2021-06-06T08:50:03.445Z</time>
      </trkpt>
      <trkpt lat="45.85035" lon="5.50308">
        <ele>862</ele>
        <time>2021-06-06T08:50:04.444Z</time>
      </trkpt>
      <trkpt lat="45.85039" lon="5.50306">
        <ele>862</ele>
        <time>2021-06-06T08:50:05.444Z</time>
      </trkpt>
      <trkpt lat="45.85042" lon="5.50304">
        <ele>863</ele>
        <time>2021-06-06T08:50:06.444Z</time>
      </trkpt>
      <trkpt lat="45.85046" lon="5.50302">
        <ele>863</ele>
        <time>2021-06-06T08:50:07.444Z</time>
      </trkpt>
      <trkpt lat="45.85049" lon="5.50299">
        <ele>863</ele>
        <time>2021-06-06T08:50:08.445Z</time>
      </trkpt>
      <trkpt lat="45.85052" lon="5.50295">
        <ele>864</ele>
        <time>2021-06-06T08:50:09.444Z</time>
      </trkpt>
      <trkpt lat="45.85057" lon="5.50295">
        <ele>864</ele>
        <time>2021-06-06T08:50:10.444Z</time>
      </trkpt>
      <trkpt lat="45.8506" lon="5.50292">
        <ele>864</ele>
        <time>2021-06-06T08:50:11.445Z</time>
      </trkpt>
      <trkpt lat="45.85062" lon="5.50289">
        <ele>865</ele>
        <time>2021-06-06T08:50:12.444Z</time>
      </trkpt>
      <trkpt lat="45.85065" lon="5.50285">
        <ele>865</ele>
        <time>2021-06-06T08:50:13.444Z</time>
      </trkpt>
      <trkpt lat="45.8507" lon="5.50282">
        <ele>865</ele>
        <time>2021-06-06T08:50:14.445Z</time>
      </trkpt>
      <trkpt lat="45.85074" lon="5.50279">
        <ele>866</ele>
        <time>2021-06-06T08:50:15.444Z</time>
      </trkpt>
      <trkpt lat="45.85077" lon="5.50278">
        <ele>867</ele>
        <time>2021-06-06T08:50:16.444Z</time>
      </trkpt>
      <trkpt lat="45.8508" lon="5.50276">
        <ele>867</ele>
        <time>2021-06-06T08:50:17.445Z</time>
      </trkpt>
      <trkpt lat="45.85083" lon="5.50273">
        <ele>868</ele>
        <time>2021-06-06T08:50:18.445Z</time>
      </trkpt>
      <trkpt lat="45.85085" lon="5.50271">
        <ele>868</ele>
        <time>2021-06-06T08:50:19.445Z</time>
      </trkpt>
      <trkpt lat="45.85088" lon="5.50268">
        <ele>869</ele>
        <time>2021-06-06T08:50:20.445Z</time>
      </trkpt>
      <trkpt lat="45.85091" lon="5.50266">
        <ele>869</ele>
        <time>2021-06-06T08:50:21.445Z</time>
      </trkpt>
      <trkpt lat="45.85095" lon="5.50265">
        <ele>869</ele>
        <time>2021-06-06T08:50:22.444Z</time>
      </trkpt>
      <trkpt lat="45.85099" lon="5.50262">
        <ele>870</ele>
        <time>2021-06-06T08:50:23.444Z</time>
      </trkpt>
      <trkpt lat="45.85102" lon="5.50259">
        <ele>870</ele>
        <time>2021-06-06T08:50:24.444Z</time>
      </trkpt>
      <trkpt lat="45.85105" lon="5.50257">
        <ele>871</ele>
        <time>2021-06-06T08:50:25.445Z</time>
      </trkpt>
      <trkpt lat="45.85108" lon="5.50254">
        <ele>871</ele>
        <time>2021-06-06T08:50:26.444Z</time>
      </trkpt>
      <trkpt lat="45.85111" lon="5.50252">
        <ele>872</ele>
        <time>2021-06-06T08:50:27.445Z</time>
      </trkpt>
      <trkpt lat="45.85113" lon="5.50249">
        <ele>873</ele>
        <time>2021-06-06T08:50:28.444Z</time>
      </trkpt>
      <trkpt lat="45.85116" lon="5.50246">
        <ele>873</ele>
        <time>2021-06-06T08:50:29.444Z</time>
      </trkpt>
      <trkpt lat="45.85118" lon="5.50244">
        <ele>873</ele>
        <time>2021-06-06T08:50:30.444Z</time>
      </trkpt>
      <trkpt lat="45.85123" lon="5.50241">
        <ele>874</ele>
        <time>2021-06-06T08:50:31.445Z</time>
      </trkpt>
      <trkpt lat="45.85126" lon="5.50238">
        <ele>874</ele>
        <time>2021-06-06T08:50:32.445Z</time>
      </trkpt>
      <trkpt lat="45.85128" lon="5.50234">
        <ele>875</ele>
        <time>2021-06-06T08:50:33.445Z</time>
      </trkpt>
      <trkpt lat="45.85131" lon="5.50234">
        <ele>875</ele>
        <time>2021-06-06T08:50:34.444Z</time>
      </trkpt>
      <trkpt lat="45.85134" lon="5.50233">
        <ele>876</ele>
        <time>2021-06-06T08:50:35.444Z</time>
      </trkpt>
      <trkpt lat="45.85138" lon="5.50231">
        <ele>876</ele>
        <time>2021-06-06T08:50:36.444Z</time>
      </trkpt>
      <trkpt lat="45.85141" lon="5.5023">
        <ele>877</ele>
        <time>2021-06-06T08:50:37.444Z</time>
      </trkpt>
      <trkpt lat="45.85146" lon="5.5023">
        <ele>877</ele>
        <time>2021-06-06T08:50:38.445Z</time>
      </trkpt>
      <trkpt lat="45.8515" lon="5.50229">
        <ele>877</ele>
        <time>2021-06-06T08:50:39.444Z</time>
      </trkpt>
      <trkpt lat="45.85152" lon="5.50226">
        <ele>878</ele>
        <time>2021-06-06T08:50:40.445Z</time>
      </trkpt>
      <trkpt lat="45.85155" lon="5.50223">
        <ele>878</ele>
        <time>2021-06-06T08:50:41.445Z</time>
      </trkpt>
      <trkpt lat="45.85157" lon="5.50219">
        <ele>878</ele>
        <time>2021-06-06T08:50:42.444Z</time>
      </trkpt>
      <trkpt lat="45.8516" lon="5.50218">
        <ele>879</ele>
        <time>2021-06-06T08:50:43.445Z</time>
      </trkpt>
      <trkpt lat="45.85163" lon="5.50215">
        <ele>879</ele>
        <time>2021-06-06T08:50:44.445Z</time>
      </trkpt>
      <trkpt lat="45.85165" lon="5.50214">
        <ele>880</ele>
        <time>2021-06-06T08:50:45.445Z</time>
      </trkpt>
      <trkpt lat="45.85167" lon="5.50211">
        <ele>880</ele>
        <time>2021-06-06T08:50:46.444Z</time>
      </trkpt>
      <trkpt lat="45.8517" lon="5.50209">
        <ele>881</ele>
        <time>2021-06-06T08:50:47.444Z</time>
      </trkpt>
      <trkpt lat="45.85172" lon="5.50208">
        <ele>881</ele>
        <time>2021-06-06T08:50:48.445Z</time>
      </trkpt>
      <trkpt lat="45.85174" lon="5.50206">
        <ele>881</ele>
        <time>2021-06-06T08:50:49.444Z</time>
      </trkpt>
      <trkpt lat="45.85175" lon="5.50204">
        <ele>882</ele>
        <time>2021-06-06T08:50:50.444Z</time>
      </trkpt>
      <trkpt lat="45.85177" lon="5.50201">
        <ele>882</ele>
        <time>2021-06-06T08:50:51.445Z</time>
      </trkpt>
      <trkpt lat="45.85178" lon="5.50198">
        <ele>882</ele>
        <time>2021-06-06T08:50:52.444Z</time>
      </trkpt>
      <trkpt lat="45.85179" lon="5.50194">
        <ele>883</ele>
        <time>2021-06-06T08:50:53.445Z</time>
      </trkpt>
      <trkpt lat="45.8518" lon="5.5019">
        <ele>883</ele>
        <time>2021-06-06T08:50:54.444Z</time>
      </trkpt>
      <trkpt lat="45.85183" lon="5.50189">
        <ele>883</ele>
        <time>2021-06-06T08:50:55.444Z</time>
      </trkpt>
      <trkpt lat="45.85185" lon="5.50186">
        <ele>884</ele>
        <time>2021-06-06T08:50:56.444Z</time>
      </trkpt>
      <trkpt lat="45.85186" lon="5.50182">
        <ele>884</ele>
        <time>2021-06-06T08:50:57.445Z</time>
      </trkpt>
      <trkpt lat="45.85187" lon="5.50178">
        <ele>885</ele>
        <time>2021-06-06T08:50:58.444Z</time>
      </trkpt>
      <trkpt lat="45.85188" lon="5.50173">
        <ele>885</ele>
        <time>2021-06-06T08:50:59.444Z</time>
      </trkpt>
      <trkpt lat="45.85191" lon="5.5017">
        <ele>885</ele>
        <time>2021-06-06T08:51:00.444Z</time>
      </trkpt>
      <trkpt lat="45.85194" lon="5.50167">
        <ele>886</ele>
        <time>2021-06-06T08:51:01.444Z</time>
      </trkpt>
      <trkpt lat="45.85198" lon="5.50164">
        <ele>886</ele>
        <time>2021-06-06T08:51:02.445Z</time>
      </trkpt>
      <trkpt lat="45.85201" lon="5.50161">
        <ele>886</ele>
        <time>2021-06-06T08:51:03.444Z</time>
      </trkpt>
      <trkpt lat="45.85204" lon="5.50158">
        <ele>887</ele>
        <time>2021-06-06T08:51:04.445Z</time>
      </trkpt>
      <trkpt lat="45.85207" lon="5.50154">
        <ele>887</ele>
        <time>2021-06-06T08:51:05.444Z</time>
      </trkpt>
      <trkpt lat="45.8521" lon="5.5015">
        <ele>888</ele>
        <time>2021-06-06T08:51:06.444Z</time>
      </trkpt>
      <trkpt lat="45.85213" lon="5.50147">
        <ele>888</ele>
        <time>2021-06-06T08:51:07.445Z</time>
      </trkpt>
      <trkpt lat="45.85217" lon="5.50143">
        <ele>888</ele>
        <time>2021-06-06T08:51:08.444Z</time>
      </trkpt>
      <trkpt lat="45.8522" lon="5.50139">
        <ele>889</ele>
        <time>2021-06-06T08:51:09.445Z</time>
      </trkpt>
      <trkpt lat="45.85223" lon="5.50135">
        <ele>889</ele>
        <time>2021-06-06T08:51:10.444Z</time>
      </trkpt>
      <trkpt lat="45.85226" lon="5.50131">
        <ele>890</ele>
        <time>2021-06-06T08:51:11.444Z</time>
      </trkpt>
      <trkpt lat="45.85229" lon="5.50128">
        <ele>890</ele>
        <time>2021-06-06T08:51:12.444Z</time>
      </trkpt>
      <trkpt lat="45.85232" lon="5.50124">
        <ele>890</ele>
        <time>2021-06-06T08:51:13.444Z</time>
      </trkpt>
      <trkpt lat="45.85236" lon="5.50121">
        <ele>891</ele>
        <time>2021-06-06T08:51:14.445Z</time>
      </trkpt>
      <trkpt lat="45.8524" lon="5.50117">
        <ele>891</ele>
        <time>2021-06-06T08:51:15.444Z</time>
      </trkpt>
      <trkpt lat="45.85244" lon="5.50112">
        <ele>892</ele>
        <time>2021-06-06T08:51:16.444Z</time>
      </trkpt>
      <trkpt lat="45.85248" lon="5.50108">
        <ele>892</ele>
        <time>2021-06-06T08:51:17.444Z</time>
      </trkpt>
      <trkpt lat="45.85252" lon="5.50104">
        <ele>892</ele>
        <time>2021-06-06T08:51:18.444Z</time>
      </trkpt>
      <trkpt lat="45.85255" lon="5.50099">
        <ele>893</ele>
        <time>2021-06-06T08:51:19.444Z</time>
      </trkpt>
      <trkpt lat="45.85259" lon="5.50095">
        <ele>893</ele>
        <time>2021-06-06T08:51:20.444Z</time>
      </trkpt>
      <trkpt lat="45.85262" lon="5.5009">
        <ele>894</ele>
        <time>2021-06-06T08:51:21.444Z</time>
      </trkpt>
      <trkpt lat="45.85265" lon="5.50084">
        <ele>894</ele>
        <time>2021-06-06T08:51:22.445Z</time>
      </trkpt>
      <trkpt lat="45.85268" lon="5.50081">
        <ele>895</ele>
        <time>2021-06-06T08:51:23.445Z</time>
      </trkpt>
      <trkpt lat="45.85271" lon="5.50076">
        <ele>895</ele>
        <time>2021-06-06T08:51:24.444Z</time>
      </trkpt>
      <trkpt lat="45.85273" lon="5.50069">
        <ele>896</ele>
        <time>2021-06-06T08:51:25.445Z</time>
      </trkpt>
      <trkpt lat="45.85276" lon="5.50065">
        <ele>896</ele>
        <time>2021-06-06T08:51:26.445Z</time>
      </trkpt>
      <trkpt lat="45.85279" lon="5.50061">
        <ele>896</ele>
        <time>2021-06-06T08:51:27.444Z</time>
      </trkpt>
      <trkpt lat="45.85282" lon="5.50056">
        <ele>897</ele>
        <time>2021-06-06T08:51:28.444Z</time>
      </trkpt>
      <trkpt lat="45.85285" lon="5.50051">
        <ele>897</ele>
        <time>2021-06-06T08:51:29.444Z</time>
      </trkpt>
      <trkpt lat="45.85288" lon="5.50047">
        <ele>898</ele>
        <time>2021-06-06T08:51:30.444Z</time>
      </trkpt>
      <trkpt lat="45.85292" lon="5.50044">
        <ele>898</ele>
        <time>2021-06-06T08:51:31.444Z</time>
      </trkpt>
      <trkpt lat="45.85296" lon="5.5004">
        <ele>899</ele>
        <time>2021-06-06T08:51:32.445Z</time>
      </trkpt>
      <trkpt lat="45.85299" lon="5.50035">
        <ele>899</ele>
        <time>2021-06-06T08:51:33.445Z</time>
      </trkpt>
      <trkpt lat="45.85303" lon="5.50031">
        <ele>900</ele>
        <time>2021-06-06T08:51:34.445Z</time>
      </trkpt>
      <trkpt lat="45.85305" lon="5.50027">
        <ele>900</ele>
        <time>2021-06-06T08:51:35.445Z</time>
      </trkpt>
      <trkpt lat="45.85308" lon="5.50023">
        <ele>900</ele>
        <time>2021-06-06T08:51:36.444Z</time>
      </trkpt>
      <trkpt lat="45.85311" lon="5.50019">
        <ele>900</ele>
        <time>2021-06-06T08:51:37.444Z</time>
      </trkpt>
      <trkpt lat="45.85315" lon="5.50016">
        <ele>901</ele>
        <time>2021-06-06T08:51:38.445Z</time>
      </trkpt>
      <trkpt lat="45.85318" lon="5.50012">
        <ele>901</ele>
        <time>2021-06-06T08:51:39.445Z</time>
      </trkpt>
      <trkpt lat="45.85321" lon="5.50008">
        <ele>901</ele>
        <time>2021-06-06T08:51:40.444Z</time>
      </trkpt>
      <trkpt lat="45.85325" lon="5.50005">
        <ele>901</ele>
        <time>2021-06-06T08:51:41.444Z</time>
      </trkpt>
      <trkpt lat="45.85328" lon="5.50001">
        <ele>901</ele>
        <time>2021-06-06T08:51:42.444Z</time>
      </trkpt>
      <trkpt lat="45.85332" lon="5.49997">
        <ele>901</ele>
        <time>2021-06-06T08:51:43.445Z</time>
      </trkpt>
      <trkpt lat="45.85335" lon="5.49991">
        <ele>902</ele>
        <time>2021-06-06T08:51:44.445Z</time>
      </trkpt>
      <trkpt lat="45.85339" lon="5.49987">
        <ele>902</ele>
        <time>2021-06-06T08:51:45.445Z</time>
      </trkpt>
      <trkpt lat="45.85344" lon="5.49983">
        <ele>902</ele>
        <time>2021-06-06T08:51:46.444Z</time>
      </trkpt>
      <trkpt lat="45.85347" lon="5.49979">
        <ele>902</ele>
        <time>2021-06-06T08:51:47.444Z</time>
      </trkpt>
      <trkpt lat="45.85351" lon="5.49975">
        <ele>902</ele>
        <time>2021-06-06T08:51:48.445Z</time>
      </trkpt>
      <trkpt lat="45.85354" lon="5.49972">
        <ele>903</ele>
        <time>2021-06-06T08:51:49.444Z</time>
      </trkpt>
      <trkpt lat="45.85357" lon="5.49967">
        <ele>903</ele>
        <time>2021-06-06T08:51:50.444Z</time>
      </trkpt>
      <trkpt lat="45.8536" lon="5.49963">
        <ele>903</ele>
        <time>2021-06-06T08:51:51.444Z</time>
      </trkpt>
      <trkpt lat="45.85363" lon="5.49958">
        <ele>904</ele>
        <time>2021-06-06T08:51:52.444Z</time>
      </trkpt>
      <trkpt lat="45.85365" lon="5.49953">
        <ele>904</ele>
        <time>2021-06-06T08:51:53.445Z</time>
      </trkpt>
      <trkpt lat="45.85367" lon="5.49949">
        <ele>904</ele>
        <time>2021-06-06T08:51:54.445Z</time>
      </trkpt>
      <trkpt lat="45.8537" lon="5.49943">
        <ele>904</ele>
        <time>2021-06-06T08:51:55.444Z</time>
      </trkpt>
      <trkpt lat="45.85371" lon="5.49937">
        <ele>905</ele>
        <time>2021-06-06T08:51:56.444Z</time>
      </trkpt>
      <trkpt lat="45.85373" lon="5.49931">
        <ele>905</ele>
        <time>2021-06-06T08:51:57.444Z</time>
      </trkpt>
      <trkpt lat="45.85374" lon="5.49926">
        <ele>905</ele>
        <time>2021-06-06T08:51:58.444Z</time>
      </trkpt>
      <trkpt lat="45.85375" lon="5.4992">
        <ele>906</ele>
        <time>2021-06-06T08:51:59.444Z</time>
      </trkpt>
      <trkpt lat="45.85377" lon="5.49915">
        <ele>906</ele>
        <time>2021-06-06T08:52:00.444Z</time>
      </trkpt>
      <trkpt lat="45.85378" lon="5.49911">
        <ele>906</ele>
        <time>2021-06-06T08:52:01.444Z</time>
      </trkpt>
      <trkpt lat="45.85379" lon="5.49906">
        <ele>906</ele>
        <time>2021-06-06T08:52:02.444Z</time>
      </trkpt>
      <trkpt lat="45.85379" lon="5.49901">
        <ele>906</ele>
        <time>2021-06-06T08:52:03.444Z</time>
      </trkpt>
      <trkpt lat="45.85379" lon="5.49896">
        <ele>906</ele>
        <time>2021-06-06T08:52:04.445Z</time>
      </trkpt>
      <trkpt lat="45.85378" lon="5.49891">
        <ele>906</ele>
        <time>2021-06-06T08:52:05.444Z</time>
      </trkpt>
      <trkpt lat="45.85377" lon="5.49886">
        <ele>906</ele>
        <time>2021-06-06T08:52:06.444Z</time>
      </trkpt>
      <trkpt lat="45.85376" lon="5.49882">
        <ele>906</ele>
        <time>2021-06-06T08:52:07.444Z</time>
      </trkpt>
      <trkpt lat="45.85375" lon="5.49876">
        <ele>906</ele>
        <time>2021-06-06T08:52:08.444Z</time>
      </trkpt>
      <trkpt lat="45.85374" lon="5.4987">
        <ele>906</ele>
        <time>2021-06-06T08:52:09.444Z</time>
      </trkpt>
      <trkpt lat="45.85373" lon="5.49866">
        <ele>906</ele>
        <time>2021-06-06T08:52:10.444Z</time>
      </trkpt>
      <trkpt lat="45.85372" lon="5.49861">
        <ele>906</ele>
        <time>2021-06-06T08:52:11.444Z</time>
      </trkpt>
      <trkpt lat="45.8537" lon="5.49856">
        <ele>905</ele>
        <time>2021-06-06T08:52:12.444Z</time>
      </trkpt>
      <trkpt lat="45.85369" lon="5.49852">
        <ele>905</ele>
        <time>2021-06-06T08:52:13.444Z</time>
      </trkpt>
      <trkpt lat="45.85367" lon="5.49848">
        <ele>905</ele>
        <time>2021-06-06T08:52:14.445Z</time>
      </trkpt>
      <trkpt lat="45.85366" lon="5.49844">
        <ele>905</ele>
        <time>2021-06-06T08:52:15.445Z</time>
      </trkpt>
      <trkpt lat="45.85364" lon="5.49839">
        <ele>905</ele>
        <time>2021-06-06T08:52:16.444Z</time>
      </trkpt>
      <trkpt lat="45.85363" lon="5.49834">
        <ele>904</ele>
        <time>2021-06-06T08:52:17.444Z</time>
      </trkpt>
      <trkpt lat="45.85361" lon="5.4983">
        <ele>904</ele>
        <time>2021-06-06T08:52:18.444Z</time>
      </trkpt>
      <trkpt lat="45.85359" lon="5.49827">
        <ele>904</ele>
        <time>2021-06-06T08:52:19.444Z</time>
      </trkpt>
      <trkpt lat="45.85357" lon="5.49824">
        <ele>904</ele>
        <time>2021-06-06T08:52:20.444Z</time>
      </trkpt>
      <trkpt lat="45.85354" lon="5.4982">
        <ele>904</ele>
        <time>2021-06-06T08:52:21.444Z</time>
      </trkpt>
      <trkpt lat="45.85354" lon="5.4982">
        <ele>904</ele>
        <time>2021-06-06T08:52:22.444Z</time>
      </trkpt>
      <trkpt lat="45.85348" lon="5.49813">
        <ele>905</ele>
        <time>2021-06-06T08:52:23.444Z</time>
      </trkpt>
      <trkpt lat="45.85345" lon="5.4981">
        <ele>905</ele>
        <time>2021-06-06T08:52:24.444Z</time>
      </trkpt>
      <trkpt lat="45.85341" lon="5.49807">
        <ele>906</ele>
        <time>2021-06-06T08:52:25.445Z</time>
      </trkpt>
      <trkpt lat="45.85337" lon="5.49803">
        <ele>906</ele>
        <time>2021-06-06T08:52:26.445Z</time>
      </trkpt>
      <trkpt lat="45.85335" lon="5.49799">
        <ele>907</ele>
        <time>2021-06-06T08:52:27.444Z</time>
      </trkpt>
      <trkpt lat="45.85331" lon="5.49794">
        <ele>907</ele>
        <time>2021-06-06T08:52:28.444Z</time>
      </trkpt>
      <trkpt lat="45.85328" lon="5.49791">
        <ele>908</ele>
        <time>2021-06-06T08:52:29.444Z</time>
      </trkpt>
      <trkpt lat="45.85325" lon="5.49787">
        <ele>909</ele>
        <time>2021-06-06T08:52:30.444Z</time>
      </trkpt>
      <trkpt lat="45.85322" lon="5.49782">
        <ele>909</ele>
        <time>2021-06-06T08:52:31.444Z</time>
      </trkpt>
      <trkpt lat="45.85321" lon="5.49777">
        <ele>910</ele>
        <time>2021-06-06T08:52:32.444Z</time>
      </trkpt>
      <trkpt lat="45.8532" lon="5.49771">
        <ele>910</ele>
        <time>2021-06-06T08:52:33.444Z</time>
      </trkpt>
      <trkpt lat="45.85321" lon="5.49765">
        <ele>910</ele>
        <time>2021-06-06T08:52:34.444Z</time>
      </trkpt>
      <trkpt lat="45.85322" lon="5.49761">
        <ele>911</ele>
        <time>2021-06-06T08:52:35.444Z</time>
      </trkpt>
      <trkpt lat="45.85325" lon="5.49756">
        <ele>911</ele>
        <time>2021-06-06T08:52:36.445Z</time>
      </trkpt>
      <trkpt lat="45.85328" lon="5.49753">
        <ele>911</ele>
        <time>2021-06-06T08:52:37.444Z</time>
      </trkpt>
      <trkpt lat="45.85332" lon="5.4975">
        <ele>911</ele>
        <time>2021-06-06T08:52:38.444Z</time>
      </trkpt>
      <trkpt lat="45.85336" lon="5.49748">
        <ele>911</ele>
        <time>2021-06-06T08:52:39.444Z</time>
      </trkpt>
      <trkpt lat="45.85341" lon="5.49746">
        <ele>912</ele>
        <time>2021-06-06T08:52:40.444Z</time>
      </trkpt>
      <trkpt lat="45.85345" lon="5.49744">
        <ele>912</ele>
        <time>2021-06-06T08:52:41.444Z</time>
      </trkpt>
      <trkpt lat="45.8535" lon="5.49742">
        <ele>912</ele>
        <time>2021-06-06T08:52:42.444Z</time>
      </trkpt>
      <trkpt lat="45.85354" lon="5.49741">
        <ele>912</ele>
        <time>2021-06-06T08:52:43.444Z</time>
      </trkpt>
      <trkpt lat="45.85358" lon="5.49739">
        <ele>912</ele>
        <time>2021-06-06T08:52:44.444Z</time>
      </trkpt>
      <trkpt lat="45.85363" lon="5.49737">
        <ele>912</ele>
        <time>2021-06-06T08:52:45.444Z</time>
      </trkpt>
      <trkpt lat="45.85367" lon="5.49735">
        <ele>913</ele>
        <time>2021-06-06T08:52:46.444Z</time>
      </trkpt>
      <trkpt lat="45.85372" lon="5.49733">
        <ele>913</ele>
        <time>2021-06-06T08:52:47.444Z</time>
      </trkpt>
      <trkpt lat="45.85376" lon="5.49731">
        <ele>913</ele>
        <time>2021-06-06T08:52:48.444Z</time>
      </trkpt>
      <trkpt lat="45.85381" lon="5.49727">
        <ele>913</ele>
        <time>2021-06-06T08:52:49.445Z</time>
      </trkpt>
      <trkpt lat="45.85385" lon="5.49724">
        <ele>914</ele>
        <time>2021-06-06T08:52:50.444Z</time>
      </trkpt>
      <trkpt lat="45.85389" lon="5.4972">
        <ele>914</ele>
        <time>2021-06-06T08:52:51.444Z</time>
      </trkpt>
      <trkpt lat="45.85392" lon="5.49716">
        <ele>915</ele>
        <time>2021-06-06T08:52:52.444Z</time>
      </trkpt>
      <trkpt lat="45.85395" lon="5.49711">
        <ele>915</ele>
        <time>2021-06-06T08:52:53.445Z</time>
      </trkpt>
      <trkpt lat="45.85397" lon="5.49705">
        <ele>916</ele>
        <time>2021-06-06T08:52:54.445Z</time>
      </trkpt>
      <trkpt lat="45.85399" lon="5.49699">
        <ele>916</ele>
        <time>2021-06-06T08:52:55.444Z</time>
      </trkpt>
      <trkpt lat="45.85401" lon="5.49693">
        <ele>917</ele>
        <time>2021-06-06T08:52:56.444Z</time>
      </trkpt>
      <trkpt lat="45.85403" lon="5.49686">
        <ele>917</ele>
        <time>2021-06-06T08:52:57.444Z</time>
      </trkpt>
      <trkpt lat="45.85403" lon="5.49679">
        <ele>918</ele>
        <time>2021-06-06T08:52:58.444Z</time>
      </trkpt>
      <trkpt lat="45.85404" lon="5.49673">
        <ele>918</ele>
        <time>2021-06-06T08:52:59.445Z</time>
      </trkpt>
      <trkpt lat="45.85404" lon="5.49665">
        <ele>919</ele>
        <time>2021-06-06T08:53:00.444Z</time>
      </trkpt>
      <trkpt lat="45.85404" lon="5.49659">
        <ele>919</ele>
        <time>2021-06-06T08:53:01.444Z</time>
      </trkpt>
      <trkpt lat="45.85404" lon="5.49653">
        <ele>920</ele>
        <time>2021-06-06T08:53:02.444Z</time>
      </trkpt>
      <trkpt lat="45.85404" lon="5.49645">
        <ele>921</ele>
        <time>2021-06-06T08:53:03.444Z</time>
      </trkpt>
      <trkpt lat="45.85405" lon="5.4964">
        <ele>922</ele>
        <time>2021-06-06T08:53:04.445Z</time>
      </trkpt>
      <trkpt lat="45.85406" lon="5.49634">
        <ele>922</ele>
        <time>2021-06-06T08:53:05.444Z</time>
      </trkpt>
      <trkpt lat="45.85406" lon="5.49628">
        <ele>923</ele>
        <time>2021-06-06T08:53:06.444Z</time>
      </trkpt>
      <trkpt lat="45.85407" lon="5.49622">
        <ele>924</ele>
        <time>2021-06-06T08:53:07.445Z</time>
      </trkpt>
      <trkpt lat="45.85407" lon="5.49616">
        <ele>924</ele>
        <time>2021-06-06T08:53:08.444Z</time>
      </trkpt>
      <trkpt lat="45.85407" lon="5.4961">
        <ele>924</ele>
        <time>2021-06-06T08:53:09.444Z</time>
      </trkpt>
      <trkpt lat="45.85407" lon="5.49604">
        <ele>925</ele>
        <time>2021-06-06T08:53:10.444Z</time>
      </trkpt>
      <trkpt lat="45.85408" lon="5.49598">
        <ele>925</ele>
        <time>2021-06-06T08:53:11.444Z</time>
      </trkpt>
      <trkpt lat="45.85408" lon="5.4959">
        <ele>926</ele>
        <time>2021-06-06T08:53:12.444Z</time>
      </trkpt>
      <trkpt lat="45.85408" lon="5.49584">
        <ele>926</ele>
        <time>2021-06-06T08:53:13.444Z</time>
      </trkpt>
      <trkpt lat="45.85409" lon="5.49576">
        <ele>926</ele>
        <time>2021-06-06T08:53:14.445Z</time>
      </trkpt>
      <trkpt lat="45.85412" lon="5.4957">
        <ele>926</ele>
        <time>2021-06-06T08:53:15.445Z</time>
      </trkpt>
      <trkpt lat="45.85414" lon="5.49564">
        <ele>927</ele>
        <time>2021-06-06T08:53:16.444Z</time>
      </trkpt>
      <trkpt lat="45.85417" lon="5.49559">
        <ele>927</ele>
        <time>2021-06-06T08:53:17.445Z</time>
      </trkpt>
      <trkpt lat="45.85419" lon="5.49554">
        <ele>927</ele>
        <time>2021-06-06T08:53:18.445Z</time>
      </trkpt>
      <trkpt lat="45.85422" lon="5.4955">
        <ele>927</ele>
        <time>2021-06-06T08:53:19.445Z</time>
      </trkpt>
      <trkpt lat="45.85424" lon="5.49545">
        <ele>927</ele>
        <time>2021-06-06T08:53:20.445Z</time>
      </trkpt>
      <trkpt lat="45.85426" lon="5.49539">
        <ele>927</ele>
        <time>2021-06-06T08:53:21.444Z</time>
      </trkpt>
      <trkpt lat="45.85428" lon="5.49533">
        <ele>927</ele>
        <time>2021-06-06T08:53:22.445Z</time>
      </trkpt>
      <trkpt lat="45.85431" lon="5.49528">
        <ele>927</ele>
        <time>2021-06-06T08:53:23.445Z</time>
      </trkpt>
      <trkpt lat="45.85433" lon="5.49522">
        <ele>927</ele>
        <time>2021-06-06T08:53:24.445Z</time>
      </trkpt>
      <trkpt lat="45.85435" lon="5.49516">
        <ele>927</ele>
        <time>2021-06-06T08:53:25.445Z</time>
      </trkpt>
      <trkpt lat="45.85437" lon="5.49512">
        <ele>927</ele>
        <time>2021-06-06T08:53:26.445Z</time>
      </trkpt>
      <trkpt lat="45.8544" lon="5.49508">
        <ele>928</ele>
        <time>2021-06-06T08:53:27.444Z</time>
      </trkpt>
      <trkpt lat="45.85442" lon="5.49503">
        <ele>928</ele>
        <time>2021-06-06T08:53:28.444Z</time>
      </trkpt>
      <trkpt lat="45.85444" lon="5.49497">
        <ele>928</ele>
        <time>2021-06-06T08:53:29.444Z</time>
      </trkpt>
      <trkpt lat="45.85446" lon="5.4949">
        <ele>928</ele>
        <time>2021-06-06T08:53:30.445Z</time>
      </trkpt>
      <trkpt lat="45.85447" lon="5.49484">
        <ele>928</ele>
        <time>2021-06-06T08:53:31.445Z</time>
      </trkpt>
      <trkpt lat="45.8545" lon="5.4948">
        <ele>928</ele>
        <time>2021-06-06T08:53:32.444Z</time>
      </trkpt>
      <trkpt lat="45.85452" lon="5.49475">
        <ele>928</ele>
        <time>2021-06-06T08:53:33.444Z</time>
      </trkpt>
      <trkpt lat="45.85454" lon="5.49471">
        <ele>929</ele>
        <time>2021-06-06T08:53:34.444Z</time>
      </trkpt>
      <trkpt lat="45.85456" lon="5.49466">
        <ele>929</ele>
        <time>2021-06-06T08:53:35.445Z</time>
      </trkpt>
      <trkpt lat="45.85458" lon="5.49462">
        <ele>929</ele>
        <time>2021-06-06T08:53:36.444Z</time>
      </trkpt>
      <trkpt lat="45.8546" lon="5.49457">
        <ele>929</ele>
        <time>2021-06-06T08:53:37.444Z</time>
      </trkpt>
      <trkpt lat="45.85461" lon="5.49453">
        <ele>929</ele>
        <time>2021-06-06T08:53:38.445Z</time>
      </trkpt>
      <trkpt lat="45.85463" lon="5.49449">
        <ele>929</ele>
        <time>2021-06-06T08:53:39.445Z</time>
      </trkpt>
      <trkpt lat="45.85464" lon="5.49445">
        <ele>930</ele>
        <time>2021-06-06T08:53:40.445Z</time>
      </trkpt>
      <trkpt lat="45.85467" lon="5.49442">
        <ele>930</ele>
        <time>2021-06-06T08:53:41.444Z</time>
      </trkpt>
      <trkpt lat="45.85469" lon="5.49438">
        <ele>930</ele>
        <time>2021-06-06T08:53:42.445Z</time>
      </trkpt>
      <trkpt lat="45.85471" lon="5.49435">
        <ele>930</ele>
        <time>2021-06-06T08:53:43.444Z</time>
      </trkpt>
      <trkpt lat="45.85473" lon="5.49431">
        <ele>930</ele>
        <time>2021-06-06T08:53:44.445Z</time>
      </trkpt>
      <trkpt lat="45.85474" lon="5.49426">
        <ele>930</ele>
        <time>2021-06-06T08:53:45.445Z</time>
      </trkpt>
      <trkpt lat="45.85476" lon="5.49421">
        <ele>931</ele>
        <time>2021-06-06T08:53:46.445Z</time>
      </trkpt>
      <trkpt lat="45.85477" lon="5.49416">
        <ele>931</ele>
        <time>2021-06-06T08:53:47.444Z</time>
      </trkpt>
      <trkpt lat="45.85479" lon="5.49411">
        <ele>931</ele>
        <time>2021-06-06T08:53:48.444Z</time>
      </trkpt>
      <trkpt lat="45.8548" lon="5.49407">
        <ele>931</ele>
        <time>2021-06-06T08:53:49.445Z</time>
      </trkpt>
      <trkpt lat="45.85482" lon="5.494">
        <ele>932</ele>
        <time>2021-06-06T08:53:50.444Z</time>
      </trkpt>
      <trkpt lat="45.85484" lon="5.49396">
        <ele>932</ele>
        <time>2021-06-06T08:53:51.445Z</time>
      </trkpt>
      <trkpt lat="45.85486" lon="5.4939">
        <ele>932</ele>
        <time>2021-06-06T08:53:52.445Z</time>
      </trkpt>
      <trkpt lat="45.85488" lon="5.49383">
        <ele>932</ele>
        <time>2021-06-06T08:53:53.444Z</time>
      </trkpt>
      <trkpt lat="45.8549" lon="5.49376">
        <ele>932</ele>
        <time>2021-06-06T08:53:54.445Z</time>
      </trkpt>
      <trkpt lat="45.85492" lon="5.4937">
        <ele>933</ele>
        <time>2021-06-06T08:53:55.444Z</time>
      </trkpt>
      <trkpt lat="45.85494" lon="5.49364">
        <ele>933</ele>
        <time>2021-06-06T08:53:56.445Z</time>
      </trkpt>
      <trkpt lat="45.85496" lon="5.49358">
        <ele>933</ele>
        <time>2021-06-06T08:53:57.444Z</time>
      </trkpt>
      <trkpt lat="45.85497" lon="5.49351">
        <ele>933</ele>
        <time>2021-06-06T08:53:58.444Z</time>
      </trkpt>
      <trkpt lat="45.85499" lon="5.49346">
        <ele>933</ele>
        <time>2021-06-06T08:53:59.444Z</time>
      </trkpt>
      <trkpt lat="45.85501" lon="5.4934">
        <ele>933</ele>
        <time>2021-06-06T08:54:00.445Z</time>
      </trkpt>
      <trkpt lat="45.85503" lon="5.49334">
        <ele>934</ele>
        <time>2021-06-06T08:54:01.444Z</time>
      </trkpt>
      <trkpt lat="45.85505" lon="5.4933">
        <ele>934</ele>
        <time>2021-06-06T08:54:02.445Z</time>
      </trkpt>
      <trkpt lat="45.85506" lon="5.49325">
        <ele>934</ele>
        <time>2021-06-06T08:54:03.444Z</time>
      </trkpt>
      <trkpt lat="45.85507" lon="5.49321">
        <ele>934</ele>
        <time>2021-06-06T08:54:04.444Z</time>
      </trkpt>
      <trkpt lat="45.85508" lon="5.49316">
        <ele>934</ele>
        <time>2021-06-06T08:54:05.444Z</time>
      </trkpt>
      <trkpt lat="45.8551" lon="5.4931">
        <ele>935</ele>
        <time>2021-06-06T08:54:06.444Z</time>
      </trkpt>
      <trkpt lat="45.85511" lon="5.49305">
        <ele>935</ele>
        <time>2021-06-06T08:54:07.444Z</time>
      </trkpt>
      <trkpt lat="45.85513" lon="5.49297">
        <ele>935</ele>
        <time>2021-06-06T08:54:08.444Z</time>
      </trkpt>
      <trkpt lat="45.85515" lon="5.49292">
        <ele>936</ele>
        <time>2021-06-06T08:54:09.444Z</time>
      </trkpt>
      <trkpt lat="45.85516" lon="5.49288">
        <ele>936</ele>
        <time>2021-06-06T08:54:10.444Z</time>
      </trkpt>
      <trkpt lat="45.85517" lon="5.49284">
        <ele>936</ele>
        <time>2021-06-06T08:54:11.444Z</time>
      </trkpt>
      <trkpt lat="45.85519" lon="5.49279">
        <ele>937</ele>
        <time>2021-06-06T08:54:12.444Z</time>
      </trkpt>
      <trkpt lat="45.85519" lon="5.49274">
        <ele>937</ele>
        <time>2021-06-06T08:54:13.444Z</time>
      </trkpt>
      <trkpt lat="45.8552" lon="5.49268">
        <ele>937</ele>
        <time>2021-06-06T08:54:14.444Z</time>
      </trkpt>
      <trkpt lat="45.85521" lon="5.49262">
        <ele>938</ele>
        <time>2021-06-06T08:54:15.444Z</time>
      </trkpt>
      <trkpt lat="45.85523" lon="5.49257">
        <ele>938</ele>
        <time>2021-06-06T08:54:16.444Z</time>
      </trkpt>
      <trkpt lat="45.85524" lon="5.49252">
        <ele>938</ele>
        <time>2021-06-06T08:54:17.445Z</time>
      </trkpt>
      <trkpt lat="45.85526" lon="5.49247">
        <ele>939</ele>
        <time>2021-06-06T08:54:18.444Z</time>
      </trkpt>
      <trkpt lat="45.85527" lon="5.49243">
        <ele>939</ele>
        <time>2021-06-06T08:54:19.445Z</time>
      </trkpt>
      <trkpt lat="45.85529" lon="5.49238">
        <ele>939</ele>
        <time>2021-06-06T08:54:20.444Z</time>
      </trkpt>
      <trkpt lat="45.8553" lon="5.49232">
        <ele>940</ele>
        <time>2021-06-06T08:54:21.444Z</time>
      </trkpt>
      <trkpt lat="45.8553" lon="5.49226">
        <ele>940</ele>
        <time>2021-06-06T08:54:22.445Z</time>
      </trkpt>
      <trkpt lat="45.85531" lon="5.49221">
        <ele>941</ele>
        <time>2021-06-06T08:54:23.444Z</time>
      </trkpt>
      <trkpt lat="45.85532" lon="5.49216">
        <ele>941</ele>
        <time>2021-06-06T08:54:24.444Z</time>
      </trkpt>
      <trkpt lat="45.85533" lon="5.4921">
        <ele>942</ele>
        <time>2021-06-06T08:54:25.445Z</time>
      </trkpt>
      <trkpt lat="45.85533" lon="5.49205">
        <ele>942</ele>
        <time>2021-06-06T08:54:26.445Z</time>
      </trkpt>
      <trkpt lat="45.85533" lon="5.492">
        <ele>943</ele>
        <time>2021-06-06T08:54:27.444Z</time>
      </trkpt>
      <trkpt lat="45.85534" lon="5.49196">
        <ele>944</ele>
        <time>2021-06-06T08:54:28.444Z</time>
      </trkpt>
      <trkpt lat="45.85534" lon="5.49191">
        <ele>944</ele>
        <time>2021-06-06T08:54:29.444Z</time>
      </trkpt>
      <trkpt lat="45.85534" lon="5.49187">
        <ele>945</ele>
        <time>2021-06-06T08:54:30.444Z</time>
      </trkpt>
      <trkpt lat="45.85535" lon="5.49183">
        <ele>945</ele>
        <time>2021-06-06T08:54:31.444Z</time>
      </trkpt>
      <trkpt lat="45.85536" lon="5.49179">
        <ele>946</ele>
        <time>2021-06-06T08:54:32.444Z</time>
      </trkpt>
      <trkpt lat="45.85536" lon="5.49174">
        <ele>947</ele>
        <time>2021-06-06T08:54:33.444Z</time>
      </trkpt>
      <trkpt lat="45.85537" lon="5.4917">
        <ele>947</ele>
        <time>2021-06-06T08:54:34.444Z</time>
      </trkpt>
      <trkpt lat="45.85538" lon="5.49165">
        <ele>948</ele>
        <time>2021-06-06T08:54:35.444Z</time>
      </trkpt>
      <trkpt lat="45.85538" lon="5.4916">
        <ele>949</ele>
        <time>2021-06-06T08:54:36.444Z</time>
      </trkpt>
      <trkpt lat="45.85538" lon="5.49156">
        <ele>950</ele>
        <time>2021-06-06T08:54:37.444Z</time>
      </trkpt>
      <trkpt lat="45.85539" lon="5.49152">
        <ele>951</ele>
        <time>2021-06-06T08:54:38.444Z</time>
      </trkpt>
      <trkpt lat="45.8554" lon="5.49149">
        <ele>952</ele>
        <time>2021-06-06T08:54:39.444Z</time>
      </trkpt>
      <trkpt lat="45.85541" lon="5.49145">
        <ele>953</ele>
        <time>2021-06-06T08:54:40.444Z</time>
      </trkpt>
      <trkpt lat="45.85542" lon="5.49142">
        <ele>954</ele>
        <time>2021-06-06T08:54:41.444Z</time>
      </trkpt>
      <trkpt lat="45.85543" lon="5.49139">
        <ele>954</ele>
        <time>2021-06-06T08:54:42.445Z</time>
      </trkpt>
      <trkpt lat="45.85544" lon="5.49135">
        <ele>955</ele>
        <time>2021-06-06T08:54:43.444Z</time>
      </trkpt>
      <trkpt lat="45.85546" lon="5.49133">
        <ele>955</ele>
        <time>2021-06-06T08:54:44.444Z</time>
      </trkpt>
      <trkpt lat="45.85548" lon="5.49129">
        <ele>955</ele>
        <time>2021-06-06T08:54:45.445Z</time>
      </trkpt>
      <trkpt lat="45.8555" lon="5.49126">
        <ele>955</ele>
        <time>2021-06-06T08:54:46.444Z</time>
      </trkpt>
      <trkpt lat="45.85551" lon="5.49122">
        <ele>956</ele>
        <time>2021-06-06T08:54:47.444Z</time>
      </trkpt>
      <trkpt lat="45.85553" lon="5.49119">
        <ele>956</ele>
        <time>2021-06-06T08:54:48.445Z</time>
      </trkpt>
      <trkpt lat="45.85555" lon="5.49114">
        <ele>956</ele>
        <time>2021-06-06T08:54:49.444Z</time>
      </trkpt>
      <trkpt lat="45.85556" lon="5.49109">
        <ele>956</ele>
        <time>2021-06-06T08:54:50.444Z</time>
      </trkpt>
      <trkpt lat="45.85557" lon="5.49104">
        <ele>957</ele>
        <time>2021-06-06T08:54:51.444Z</time>
      </trkpt>
      <trkpt lat="45.85558" lon="5.49098">
        <ele>957</ele>
        <time>2021-06-06T08:54:52.444Z</time>
      </trkpt>
      <trkpt lat="45.8556" lon="5.49094">
        <ele>957</ele>
        <time>2021-06-06T08:54:53.445Z</time>
      </trkpt>
      <trkpt lat="45.85562" lon="5.4909">
        <ele>957</ele>
        <time>2021-06-06T08:54:54.444Z</time>
      </trkpt>
      <trkpt lat="45.85564" lon="5.49085">
        <ele>957</ele>
        <time>2021-06-06T08:54:55.444Z</time>
      </trkpt>
      <trkpt lat="45.85566" lon="5.4908">
        <ele>958</ele>
        <time>2021-06-06T08:54:56.445Z</time>
      </trkpt>
      <trkpt lat="45.85567" lon="5.49075">
        <ele>958</ele>
        <time>2021-06-06T08:54:57.444Z</time>
      </trkpt>
      <trkpt lat="45.85569" lon="5.4907">
        <ele>958</ele>
        <time>2021-06-06T08:54:58.444Z</time>
      </trkpt>
      <trkpt lat="45.8557" lon="5.49065">
        <ele>958</ele>
        <time>2021-06-06T08:54:59.445Z</time>
      </trkpt>
      <trkpt lat="45.85573" lon="5.49061">
        <ele>958</ele>
        <time>2021-06-06T08:55:00.444Z</time>
      </trkpt>
      <trkpt lat="45.85575" lon="5.49056">
        <ele>959</ele>
        <time>2021-06-06T08:55:01.444Z</time>
      </trkpt>
      <trkpt lat="45.85577" lon="5.49052">
        <ele>959</ele>
        <time>2021-06-06T08:55:02.444Z</time>
      </trkpt>
      <trkpt lat="45.8558" lon="5.49048">
        <ele>959</ele>
        <time>2021-06-06T08:55:03.444Z</time>
      </trkpt>
      <trkpt lat="45.85582" lon="5.49044">
        <ele>959</ele>
        <time>2021-06-06T08:55:04.445Z</time>
      </trkpt>
      <trkpt lat="45.85584" lon="5.4904">
        <ele>960</ele>
        <time>2021-06-06T08:55:05.445Z</time>
      </trkpt>
      <trkpt lat="45.85585" lon="5.49035">
        <ele>960</ele>
        <time>2021-06-06T08:55:06.444Z</time>
      </trkpt>
      <trkpt lat="45.85587" lon="5.49031">
        <ele>960</ele>
        <time>2021-06-06T08:55:07.444Z</time>
      </trkpt>
      <trkpt lat="45.85589" lon="5.49029">
        <ele>961</ele>
        <time>2021-06-06T08:55:08.444Z</time>
      </trkpt>
      <trkpt lat="45.85591" lon="5.49024">
        <ele>961</ele>
        <time>2021-06-06T08:55:09.444Z</time>
      </trkpt>
      <trkpt lat="45.85593" lon="5.49021">
        <ele>961</ele>
        <time>2021-06-06T08:55:10.444Z</time>
      </trkpt>
      <trkpt lat="45.85596" lon="5.49018">
        <ele>961</ele>
        <time>2021-06-06T08:55:11.444Z</time>
      </trkpt>
      <trkpt lat="45.85598" lon="5.49016">
        <ele>961</ele>
        <time>2021-06-06T08:55:12.444Z</time>
      </trkpt>
      <trkpt lat="45.85602" lon="5.49015">
        <ele>961</ele>
        <time>2021-06-06T08:55:13.444Z</time>
      </trkpt>
      <trkpt lat="45.85606" lon="5.49013">
        <ele>962</ele>
        <time>2021-06-06T08:55:14.444Z</time>
      </trkpt>
      <trkpt lat="45.85608" lon="5.49011">
        <ele>962</ele>
        <time>2021-06-06T08:55:15.444Z</time>
      </trkpt>
      <trkpt lat="45.85609" lon="5.49009">
        <ele>962</ele>
        <time>2021-06-06T08:55:16.444Z</time>
      </trkpt>
      <trkpt lat="45.85611" lon="5.49007">
        <ele>962</ele>
        <time>2021-06-06T08:55:17.444Z</time>
      </trkpt>
      <trkpt lat="45.85614" lon="5.49006">
        <ele>962</ele>
        <time>2021-06-06T08:55:18.444Z</time>
      </trkpt>
      <trkpt lat="45.85616" lon="5.49005">
        <ele>963</ele>
        <time>2021-06-06T08:55:19.444Z</time>
      </trkpt>
      <trkpt lat="45.85619" lon="5.49004">
        <ele>963</ele>
        <time>2021-06-06T08:55:20.444Z</time>
      </trkpt>
      <trkpt lat="45.85624" lon="5.49003">
        <ele>963</ele>
        <time>2021-06-06T08:55:21.444Z</time>
      </trkpt>
      <trkpt lat="45.85627" lon="5.49004">
        <ele>963</ele>
        <time>2021-06-06T08:55:22.444Z</time>
      </trkpt>
      <trkpt lat="45.8563" lon="5.49002">
        <ele>963</ele>
        <time>2021-06-06T08:55:23.444Z</time>
      </trkpt>
      <trkpt lat="45.85632" lon="5.49">
        <ele>963</ele>
        <time>2021-06-06T08:55:24.444Z</time>
      </trkpt>
      <trkpt lat="45.85635" lon="5.49">
        <ele>963</ele>
        <time>2021-06-06T08:55:25.444Z</time>
      </trkpt>
      <trkpt lat="45.85638" lon="5.49">
        <ele>963</ele>
        <time>2021-06-06T08:55:26.444Z</time>
      </trkpt>
      <trkpt lat="45.85641" lon="5.48998">
        <ele>964</ele>
        <time>2021-06-06T08:55:27.444Z</time>
      </trkpt>
      <trkpt lat="45.85644" lon="5.48997">
        <ele>964</ele>
        <time>2021-06-06T08:55:28.444Z</time>
      </trkpt>
      <trkpt lat="45.85647" lon="5.48995">
        <ele>964</ele>
        <time>2021-06-06T08:55:29.444Z</time>
      </trkpt>
      <trkpt lat="45.85649" lon="5.48993">
        <ele>965</ele>
        <time>2021-06-06T08:55:30.444Z</time>
      </trkpt>
      <trkpt lat="45.85651" lon="5.48991">
        <ele>965</ele>
        <time>2021-06-06T08:55:31.444Z</time>
      </trkpt>
      <trkpt lat="45.85653" lon="5.48989">
        <ele>965</ele>
        <time>2021-06-06T08:55:32.444Z</time>
      </trkpt>
      <trkpt lat="45.85656" lon="5.48987">
        <ele>966</ele>
        <time>2021-06-06T08:55:33.444Z</time>
      </trkpt>
      <trkpt lat="45.85658" lon="5.48985">
        <ele>967</ele>
        <time>2021-06-06T08:55:34.444Z</time>
      </trkpt>
      <trkpt lat="45.85661" lon="5.48982">
        <ele>967</ele>
        <time>2021-06-06T08:55:35.444Z</time>
      </trkpt>
      <trkpt lat="45.85665" lon="5.4898">
        <ele>967</ele>
        <time>2021-06-06T08:55:36.444Z</time>
      </trkpt>
      <trkpt lat="45.85668" lon="5.48978">
        <ele>968</ele>
        <time>2021-06-06T08:55:37.444Z</time>
      </trkpt>
      <trkpt lat="45.8567" lon="5.48977">
        <ele>968</ele>
        <time>2021-06-06T08:55:38.445Z</time>
      </trkpt>
      <trkpt lat="45.85673" lon="5.48975">
        <ele>969</ele>
        <time>2021-06-06T08:55:39.444Z</time>
      </trkpt>
      <trkpt lat="45.85675" lon="5.48972">
        <ele>969</ele>
        <time>2021-06-06T08:55:40.444Z</time>
      </trkpt>
      <trkpt lat="45.85677" lon="5.4897">
        <ele>969</ele>
        <time>2021-06-06T08:55:41.444Z</time>
      </trkpt>
      <trkpt lat="45.8568" lon="5.48967">
        <ele>970</ele>
        <time>2021-06-06T08:55:42.444Z</time>
      </trkpt>
      <trkpt lat="45.85682" lon="5.48964">
        <ele>970</ele>
        <time>2021-06-06T08:55:43.444Z</time>
      </trkpt>
      <trkpt lat="45.85684" lon="5.4896">
        <ele>971</ele>
        <time>2021-06-06T08:55:44.444Z</time>
      </trkpt>
      <trkpt lat="45.85685" lon="5.48957">
        <ele>971</ele>
        <time>2021-06-06T08:55:45.444Z</time>
      </trkpt>
      <trkpt lat="45.85689" lon="5.48953">
        <ele>972</ele>
        <time>2021-06-06T08:55:46.444Z</time>
      </trkpt>
      <trkpt lat="45.85692" lon="5.48951">
        <ele>973</ele>
        <time>2021-06-06T08:55:47.444Z</time>
      </trkpt>
      <trkpt lat="45.85695" lon="5.48948">
        <ele>973</ele>
        <time>2021-06-06T08:55:48.444Z</time>
      </trkpt>
      <trkpt lat="45.85698" lon="5.48946">
        <ele>974</ele>
        <time>2021-06-06T08:55:49.444Z</time>
      </trkpt>
      <trkpt lat="45.85701" lon="5.48945">
        <ele>975</ele>
        <time>2021-06-06T08:55:50.445Z</time>
      </trkpt>
      <trkpt lat="45.85704" lon="5.48941">
        <ele>975</ele>
        <time>2021-06-06T08:55:51.444Z</time>
      </trkpt>
      <trkpt lat="45.85707" lon="5.48938">
        <ele>976</ele>
        <time>2021-06-06T08:55:52.444Z</time>
      </trkpt>
      <trkpt lat="45.8571" lon="5.48935">
        <ele>977</ele>
        <time>2021-06-06T08:55:53.445Z</time>
      </trkpt>
      <trkpt lat="45.85712" lon="5.48931">
        <ele>977</ele>
        <time>2021-06-06T08:55:54.445Z</time>
      </trkpt>
      <trkpt lat="45.85715" lon="5.48928">
        <ele>978</ele>
        <time>2021-06-06T08:55:55.444Z</time>
      </trkpt>
      <trkpt lat="45.85717" lon="5.48926">
        <ele>978</ele>
        <time>2021-06-06T08:55:56.444Z</time>
      </trkpt>
      <trkpt lat="45.8572" lon="5.48924">
        <ele>979</ele>
        <time>2021-06-06T08:55:57.444Z</time>
      </trkpt>
      <trkpt lat="45.85722" lon="5.48921">
        <ele>980</ele>
        <time>2021-06-06T08:55:58.444Z</time>
      </trkpt>
      <trkpt lat="45.85725" lon="5.48919">
        <ele>980</ele>
        <time>2021-06-06T08:55:59.444Z</time>
      </trkpt>
      <trkpt lat="45.85727" lon="5.48916">
        <ele>981</ele>
        <time>2021-06-06T08:56:00.444Z</time>
      </trkpt>
      <trkpt lat="45.85729" lon="5.48912">
        <ele>982</ele>
        <time>2021-06-06T08:56:01.444Z</time>
      </trkpt>
      <trkpt lat="45.85731" lon="5.48908">
        <ele>983</ele>
        <time>2021-06-06T08:56:02.445Z</time>
      </trkpt>
      <trkpt lat="45.85734" lon="5.48905">
        <ele>984</ele>
        <time>2021-06-06T08:56:03.444Z</time>
      </trkpt>
      <trkpt lat="45.85736" lon="5.48902">
        <ele>985</ele>
        <time>2021-06-06T08:56:04.445Z</time>
      </trkpt>
      <trkpt lat="45.85739" lon="5.48898">
        <ele>985</ele>
        <time>2021-06-06T08:56:05.444Z</time>
      </trkpt>
      <trkpt lat="45.85742" lon="5.48896">
        <ele>986</ele>
        <time>2021-06-06T08:56:06.444Z</time>
      </trkpt>
      <trkpt lat="45.85744" lon="5.48893">
        <ele>987</ele>
        <time>2021-06-06T08:56:07.444Z</time>
      </trkpt>
      <trkpt lat="45.85747" lon="5.48891">
        <ele>987</ele>
        <time>2021-06-06T08:56:08.444Z</time>
      </trkpt>
      <trkpt lat="45.85749" lon="5.48889">
        <ele>988</ele>
        <time>2021-06-06T08:56:09.444Z</time>
      </trkpt>
      <trkpt lat="45.85751" lon="5.48886">
        <ele>988</ele>
        <time>2021-06-06T08:56:10.444Z</time>
      </trkpt>
      <trkpt lat="45.85753" lon="5.48884">
        <ele>988</ele>
        <time>2021-06-06T08:56:11.444Z</time>
      </trkpt>
      <trkpt lat="45.85755" lon="5.48881">
        <ele>989</ele>
        <time>2021-06-06T08:56:12.445Z</time>
      </trkpt>
      <trkpt lat="45.85756" lon="5.48879">
        <ele>989</ele>
        <time>2021-06-06T08:56:13.445Z</time>
      </trkpt>
      <trkpt lat="45.85758" lon="5.48876">
        <ele>990</ele>
        <time>2021-06-06T08:56:14.444Z</time>
      </trkpt>
      <trkpt lat="45.8576" lon="5.48873">
        <ele>990</ele>
        <time>2021-06-06T08:56:15.444Z</time>
      </trkpt>
      <trkpt lat="45.85762" lon="5.4887">
        <ele>990</ele>
        <time>2021-06-06T08:56:16.445Z</time>
      </trkpt>
      <trkpt lat="45.85764" lon="5.48868">
        <ele>991</ele>
        <time>2021-06-06T08:56:17.444Z</time>
      </trkpt>
      <trkpt lat="45.85766" lon="5.48864">
        <ele>991</ele>
        <time>2021-06-06T08:56:18.444Z</time>
      </trkpt>
      <trkpt lat="45.85768" lon="5.48861">
        <ele>991</ele>
        <time>2021-06-06T08:56:19.444Z</time>
      </trkpt>
      <trkpt lat="45.8577" lon="5.48858">
        <ele>992</ele>
        <time>2021-06-06T08:56:20.444Z</time>
      </trkpt>
      <trkpt lat="45.85772" lon="5.48856">
        <ele>992</ele>
        <time>2021-06-06T08:56:21.445Z</time>
      </trkpt>
      <trkpt lat="45.85773" lon="5.48854">
        <ele>993</ele>
        <time>2021-06-06T08:56:22.444Z</time>
      </trkpt>
      <trkpt lat="45.85775" lon="5.48852">
        <ele>993</ele>
        <time>2021-06-06T08:56:23.445Z</time>
      </trkpt>
      <trkpt lat="45.85777" lon="5.48849">
        <ele>993</ele>
        <time>2021-06-06T08:56:24.444Z</time>
      </trkpt>
      <trkpt lat="45.85778" lon="5.48848">
        <ele>994</ele>
        <time>2021-06-06T08:56:25.444Z</time>
      </trkpt>
      <trkpt lat="45.8578" lon="5.48845">
        <ele>994</ele>
        <time>2021-06-06T08:56:26.444Z</time>
      </trkpt>
      <trkpt lat="45.85783" lon="5.48842">
        <ele>995</ele>
        <time>2021-06-06T08:56:27.444Z</time>
      </trkpt>
      <trkpt lat="45.85785" lon="5.48839">
        <ele>995</ele>
        <time>2021-06-06T08:56:28.444Z</time>
      </trkpt>
      <trkpt lat="45.85787" lon="5.48838">
        <ele>996</ele>
        <time>2021-06-06T08:56:29.445Z</time>
      </trkpt>
      <trkpt lat="45.85789" lon="5.48836">
        <ele>996</ele>
        <time>2021-06-06T08:56:30.444Z</time>
      </trkpt>
      <trkpt lat="45.85791" lon="5.48834">
        <ele>997</ele>
        <time>2021-06-06T08:56:31.444Z</time>
      </trkpt>
      <trkpt lat="45.85793" lon="5.48831">
        <ele>997</ele>
        <time>2021-06-06T08:56:32.444Z</time>
      </trkpt>
      <trkpt lat="45.85795" lon="5.4883">
        <ele>998</ele>
        <time>2021-06-06T08:56:33.444Z</time>
      </trkpt>
      <trkpt lat="45.85796" lon="5.48829">
        <ele>998</ele>
        <time>2021-06-06T08:56:34.444Z</time>
      </trkpt>
      <trkpt lat="45.85797" lon="5.48826">
        <ele>998</ele>
        <time>2021-06-06T08:56:35.445Z</time>
      </trkpt>
      <trkpt lat="45.85798" lon="5.48824">
        <ele>999</ele>
        <time>2021-06-06T08:56:36.444Z</time>
      </trkpt>
      <trkpt lat="45.85799" lon="5.48821">
        <ele>999</ele>
        <time>2021-06-06T08:56:37.444Z</time>
      </trkpt>
      <trkpt lat="45.85801" lon="5.48819">
        <ele>999</ele>
        <time>2021-06-06T08:56:38.444Z</time>
      </trkpt>
      <trkpt lat="45.85803" lon="5.48816">
        <ele>999</ele>
        <time>2021-06-06T08:56:39.445Z</time>
      </trkpt>
      <trkpt lat="45.85805" lon="5.48812">
        <ele>999</ele>
        <time>2021-06-06T08:56:40.444Z</time>
      </trkpt>
      <trkpt lat="45.85808" lon="5.48809">
        <ele>999</ele>
        <time>2021-06-06T08:56:41.445Z</time>
      </trkpt>
      <trkpt lat="45.85811" lon="5.48805">
        <ele>999</ele>
        <time>2021-06-06T08:56:42.444Z</time>
      </trkpt>
      <trkpt lat="45.85813" lon="5.48802">
        <ele>998</ele>
        <time>2021-06-06T08:56:43.444Z</time>
      </trkpt>
      <trkpt lat="45.85816" lon="5.488">
        <ele>998</ele>
        <time>2021-06-06T08:56:44.444Z</time>
      </trkpt>
      <trkpt lat="45.85819" lon="5.48798">
        <ele>998</ele>
        <time>2021-06-06T08:56:45.444Z</time>
      </trkpt>
      <trkpt lat="45.85822" lon="5.48795">
        <ele>998</ele>
        <time>2021-06-06T08:56:46.444Z</time>
      </trkpt>
      <trkpt lat="45.85826" lon="5.48793">
        <ele>997</ele>
        <time>2021-06-06T08:56:47.444Z</time>
      </trkpt>
      <trkpt lat="45.85829" lon="5.48791">
        <ele>997</ele>
        <time>2021-06-06T08:56:48.445Z</time>
      </trkpt>
      <trkpt lat="45.85831" lon="5.48788">
        <ele>997</ele>
        <time>2021-06-06T08:56:49.444Z</time>
      </trkpt>
      <trkpt lat="45.85834" lon="5.48785">
        <ele>997</ele>
        <time>2021-06-06T08:56:50.444Z</time>
      </trkpt>
      <trkpt lat="45.85837" lon="5.48783">
        <ele>997</ele>
        <time>2021-06-06T08:56:51.444Z</time>
      </trkpt>
      <trkpt lat="45.85839" lon="5.48781">
        <ele>997</ele>
        <time>2021-06-06T08:56:52.444Z</time>
      </trkpt>
      <trkpt lat="45.85843" lon="5.48779">
        <ele>997</ele>
        <time>2021-06-06T08:56:53.444Z</time>
      </trkpt>
      <trkpt lat="45.85846" lon="5.48776">
        <ele>997</ele>
        <time>2021-06-06T08:56:54.444Z</time>
      </trkpt>
      <trkpt lat="45.85847" lon="5.48774">
        <ele>997</ele>
        <time>2021-06-06T08:56:55.444Z</time>
      </trkpt>
      <trkpt lat="45.8585" lon="5.48772">
        <ele>997</ele>
        <time>2021-06-06T08:56:56.445Z</time>
      </trkpt>
      <trkpt lat="45.85853" lon="5.4877">
        <ele>996</ele>
        <time>2021-06-06T08:56:57.444Z</time>
      </trkpt>
      <trkpt lat="45.85856" lon="5.48768">
        <ele>996</ele>
        <time>2021-06-06T08:56:58.444Z</time>
      </trkpt>
      <trkpt lat="45.85858" lon="5.48766">
        <ele>996</ele>
        <time>2021-06-06T08:56:59.444Z</time>
      </trkpt>
      <trkpt lat="45.8586" lon="5.48763">
        <ele>995</ele>
        <time>2021-06-06T08:57:00.445Z</time>
      </trkpt>
      <trkpt lat="45.85863" lon="5.48761">
        <ele>995</ele>
        <time>2021-06-06T08:57:01.444Z</time>
      </trkpt>
      <trkpt lat="45.85866" lon="5.48758">
        <ele>995</ele>
        <time>2021-06-06T08:57:02.444Z</time>
      </trkpt>
      <trkpt lat="45.85868" lon="5.48755">
        <ele>995</ele>
        <time>2021-06-06T08:57:03.445Z</time>
      </trkpt>
      <trkpt lat="45.8587" lon="5.48752">
        <ele>994</ele>
        <time>2021-06-06T08:57:04.444Z</time>
      </trkpt>
      <trkpt lat="45.85872" lon="5.48748">
        <ele>994</ele>
        <time>2021-06-06T08:57:05.444Z</time>
      </trkpt>
      <trkpt lat="45.85874" lon="5.48745">
        <ele>994</ele>
        <time>2021-06-06T08:57:06.444Z</time>
      </trkpt>
      <trkpt lat="45.85876" lon="5.48742">
        <ele>994</ele>
        <time>2021-06-06T08:57:07.444Z</time>
      </trkpt>
      <trkpt lat="45.85878" lon="5.48739">
        <ele>994</ele>
        <time>2021-06-06T08:57:08.444Z</time>
      </trkpt>
      <trkpt lat="45.8588" lon="5.48736">
        <ele>993</ele>
        <time>2021-06-06T08:57:09.444Z</time>
      </trkpt>
      <trkpt lat="45.85881" lon="5.48733">
        <ele>993</ele>
        <time>2021-06-06T08:57:10.445Z</time>
      </trkpt>
      <trkpt lat="45.85883" lon="5.4873">
        <ele>993</ele>
        <time>2021-06-06T08:57:11.444Z</time>
      </trkpt>
      <trkpt lat="45.85884" lon="5.48726">
        <ele>993</ele>
        <time>2021-06-06T08:57:12.444Z</time>
      </trkpt>
      <trkpt lat="45.85885" lon="5.48722">
        <ele>993</ele>
        <time>2021-06-06T08:57:13.445Z</time>
      </trkpt>
      <trkpt lat="45.85886" lon="5.48718">
        <ele>993</ele>
        <time>2021-06-06T08:57:14.444Z</time>
      </trkpt>
      <trkpt lat="45.85886" lon="5.48714">
        <ele>993</ele>
        <time>2021-06-06T08:57:15.445Z</time>
      </trkpt>
      <trkpt lat="45.85887" lon="5.48709">
        <ele>993</ele>
        <time>2021-06-06T08:57:16.445Z</time>
      </trkpt>
      <trkpt lat="45.85887" lon="5.48705">
        <ele>993</ele>
        <time>2021-06-06T08:57:17.444Z</time>
      </trkpt>
      <trkpt lat="45.85886" lon="5.48701">
        <ele>993</ele>
        <time>2021-06-06T08:57:18.445Z</time>
      </trkpt>
      <trkpt lat="45.85886" lon="5.48697">
        <ele>993</ele>
        <time>2021-06-06T08:57:19.444Z</time>
      </trkpt>
      <trkpt lat="45.85885" lon="5.48694">
        <ele>994</ele>
        <time>2021-06-06T08:57:20.444Z</time>
      </trkpt>
      <trkpt lat="45.85884" lon="5.48691">
        <ele>995</ele>
        <time>2021-06-06T08:57:21.444Z</time>
      </trkpt>
      <trkpt lat="45.85884" lon="5.48687">
        <ele>995</ele>
        <time>2021-06-06T08:57:22.444Z</time>
      </trkpt>
      <trkpt lat="45.85883" lon="5.48683">
        <ele>996</ele>
        <time>2021-06-06T08:57:23.444Z</time>
      </trkpt>
      <trkpt lat="45.85881" lon="5.4868">
        <ele>997</ele>
        <time>2021-06-06T08:57:24.445Z</time>
      </trkpt>
      <trkpt lat="45.8588" lon="5.48676">
        <ele>998</ele>
        <time>2021-06-06T08:57:25.444Z</time>
      </trkpt>
      <trkpt lat="45.85878" lon="5.48673">
        <ele>999</ele>
        <time>2021-06-06T08:57:26.444Z</time>
      </trkpt>
      <trkpt lat="45.85877" lon="5.48671">
        <ele>1000</ele>
        <time>2021-06-06T08:57:27.444Z</time>
      </trkpt>
      <trkpt lat="45.85875" lon="5.48668">
        <ele>1002</ele>
        <time>2021-06-06T08:57:28.444Z</time>
      </trkpt>
      <trkpt lat="45.85874" lon="5.48665">
        <ele>1002</ele>
        <time>2021-06-06T08:57:29.444Z</time>
      </trkpt>
      <trkpt lat="45.85873" lon="5.48662">
        <ele>1003</ele>
        <time>2021-06-06T08:57:30.444Z</time>
      </trkpt>
      <trkpt lat="45.85871" lon="5.48657">
        <ele>1004</ele>
        <time>2021-06-06T08:57:31.444Z</time>
      </trkpt>
      <trkpt lat="45.8587" lon="5.48654">
        <ele>1005</ele>
        <time>2021-06-06T08:57:32.444Z</time>
      </trkpt>
      <trkpt lat="45.85869" lon="5.4865">
        <ele>1006</ele>
        <time>2021-06-06T08:57:33.444Z</time>
      </trkpt>
      <trkpt lat="45.85868" lon="5.48647">
        <ele>1007</ele>
        <time>2021-06-06T08:57:34.444Z</time>
      </trkpt>
      <trkpt lat="45.85868" lon="5.48647">
        <ele>1007</ele>
        <time>2021-06-06T08:57:35.444Z</time>
      </trkpt>
      <trkpt lat="45.85868" lon="5.48639">
        <ele>1008</ele>
        <time>2021-06-06T08:57:36.445Z</time>
      </trkpt>
      <trkpt lat="45.85868" lon="5.48635">
        <ele>1008</ele>
        <time>2021-06-06T08:57:37.444Z</time>
      </trkpt>
      <trkpt lat="45.85868" lon="5.48631">
        <ele>1007</ele>
        <time>2021-06-06T08:57:38.445Z</time>
      </trkpt>
      <trkpt lat="45.85868" lon="5.48631">
        <ele>1007</ele>
        <time>2021-06-06T08:57:39.444Z</time>
      </trkpt>
      <trkpt lat="45.85869" lon="5.48625">
        <ele>1007</ele>
        <time>2021-06-06T08:57:40.444Z</time>
      </trkpt>
      <trkpt lat="45.8587" lon="5.48617">
        <ele>1007</ele>
        <time>2021-06-06T08:57:41.445Z</time>
      </trkpt>
      <trkpt lat="45.85871" lon="5.48613">
        <ele>1006</ele>
        <time>2021-06-06T08:57:42.445Z</time>
      </trkpt>
      <trkpt lat="45.85872" lon="5.48608">
        <ele>1006</ele>
        <time>2021-06-06T08:57:43.444Z</time>
      </trkpt>
      <trkpt lat="45.85872" lon="5.48608">
        <ele>1006</ele>
        <time>2021-06-06T08:57:44.444Z</time>
      </trkpt>
      <trkpt lat="45.85874" lon="5.48597">
        <ele>1005</ele>
        <time>2021-06-06T08:57:45.444Z</time>
      </trkpt>
      <trkpt lat="45.85875" lon="5.48593">
        <ele>1005</ele>
        <time>2021-06-06T08:57:46.445Z</time>
      </trkpt>
      <trkpt lat="45.85877" lon="5.48589">
        <ele>1005</ele>
        <time>2021-06-06T08:57:47.444Z</time>
      </trkpt>
      <trkpt lat="45.85878" lon="5.48585">
        <ele>1005</ele>
        <time>2021-06-06T08:57:48.444Z</time>
      </trkpt>
      <trkpt lat="45.85879" lon="5.48581">
        <ele>1005</ele>
        <time>2021-06-06T08:57:49.444Z</time>
      </trkpt>
      <trkpt lat="45.8588" lon="5.48576">
        <ele>1004</ele>
        <time>2021-06-06T08:57:50.444Z</time>
      </trkpt>
      <trkpt lat="45.85882" lon="5.48571">
        <ele>1004</ele>
        <time>2021-06-06T08:57:51.445Z</time>
      </trkpt>
      <trkpt lat="45.85883" lon="5.48567">
        <ele>1004</ele>
        <time>2021-06-06T08:57:52.444Z</time>
      </trkpt>
      <trkpt lat="45.85884" lon="5.48562">
        <ele>1004</ele>
        <time>2021-06-06T08:57:53.444Z</time>
      </trkpt>
      <trkpt lat="45.85886" lon="5.48558">
        <ele>1004</ele>
        <time>2021-06-06T08:57:54.444Z</time>
      </trkpt>
      <trkpt lat="45.85886" lon="5.48554">
        <ele>1004</ele>
        <time>2021-06-06T08:57:55.444Z</time>
      </trkpt>
      <trkpt lat="45.85887" lon="5.4855">
        <ele>1005</ele>
        <time>2021-06-06T08:57:56.445Z</time>
      </trkpt>
      <trkpt lat="45.85888" lon="5.48546">
        <ele>1005</ele>
        <time>2021-06-06T08:57:57.444Z</time>
      </trkpt>
      <trkpt lat="45.8589" lon="5.48542">
        <ele>1005</ele>
        <time>2021-06-06T08:57:58.444Z</time>
      </trkpt>
      <trkpt lat="45.85891" lon="5.48538">
        <ele>1005</ele>
        <time>2021-06-06T08:57:59.444Z</time>
      </trkpt>
      <trkpt lat="45.85891" lon="5.48538">
        <ele>1005</ele>
        <time>2021-06-06T08:58:00.445Z</time>
      </trkpt>
      <trkpt lat="45.85893" lon="5.4853">
        <ele>1005</ele>
        <time>2021-06-06T08:58:01.444Z</time>
      </trkpt>
      <trkpt lat="45.85893" lon="5.48526">
        <ele>1005</ele>
        <time>2021-06-06T08:58:02.444Z</time>
      </trkpt>
      <trkpt lat="45.85895" lon="5.48522">
        <ele>1005</ele>
        <time>2021-06-06T08:58:03.444Z</time>
      </trkpt>
      <trkpt lat="45.85896" lon="5.48519">
        <ele>1005</ele>
        <time>2021-06-06T08:58:04.444Z</time>
      </trkpt>
      <trkpt lat="45.85897" lon="5.48516">
        <ele>1005</ele>
        <time>2021-06-06T08:58:05.444Z</time>
      </trkpt>
      <trkpt lat="45.85899" lon="5.48512">
        <ele>1005</ele>
        <time>2021-06-06T08:58:06.445Z</time>
      </trkpt>
      <trkpt lat="45.85901" lon="5.48507">
        <ele>1005</ele>
        <time>2021-06-06T08:58:07.444Z</time>
      </trkpt>
      <trkpt lat="45.85902" lon="5.48504">
        <ele>1005</ele>
        <time>2021-06-06T08:58:08.444Z</time>
      </trkpt>
      <trkpt lat="45.85903" lon="5.48501">
        <ele>1005</ele>
        <time>2021-06-06T08:58:09.444Z</time>
      </trkpt>
      <trkpt lat="45.85903" lon="5.48497">
        <ele>1005</ele>
        <time>2021-06-06T08:58:10.444Z</time>
      </trkpt>
      <trkpt lat="45.85903" lon="5.48493">
        <ele>1005</ele>
        <time>2021-06-06T08:58:11.444Z</time>
      </trkpt>
      <trkpt lat="45.85903" lon="5.48489">
        <ele>1004</ele>
        <time>2021-06-06T08:58:12.444Z</time>
      </trkpt>
      <trkpt lat="45.85903" lon="5.48485">
        <ele>1004</ele>
        <time>2021-06-06T08:58:13.444Z</time>
      </trkpt>
      <trkpt lat="45.85903" lon="5.48485">
        <ele>1004</ele>
        <time>2021-06-06T08:58:14.444Z</time>
      </trkpt>
      <trkpt lat="45.85903" lon="5.4848">
        <ele>1004</ele>
        <time>2021-06-06T08:58:15.444Z</time>
      </trkpt>
      <trkpt lat="45.85901" lon="5.48471">
        <ele>1003</ele>
        <time>2021-06-06T08:58:16.444Z</time>
      </trkpt>
      <trkpt lat="45.859" lon="5.48467">
        <ele>1003</ele>
        <time>2021-06-06T08:58:17.444Z</time>
      </trkpt>
      <trkpt lat="45.85899" lon="5.48462">
        <ele>1004</ele>
        <time>2021-06-06T08:58:18.444Z</time>
      </trkpt>
      <trkpt lat="45.85899" lon="5.48462">
        <ele>1004</ele>
        <time>2021-06-06T08:58:19.444Z</time>
      </trkpt>
      <trkpt lat="45.85899" lon="5.48458">
        <ele>1004</ele>
        <time>2021-06-06T08:58:20.444Z</time>
      </trkpt>
      <trkpt lat="45.85898" lon="5.48449">
        <ele>1004</ele>
        <time>2021-06-06T08:58:21.444Z</time>
      </trkpt>
      <trkpt lat="45.85897" lon="5.48444">
        <ele>1004</ele>
        <time>2021-06-06T08:58:22.444Z</time>
      </trkpt>
      <trkpt lat="45.85896" lon="5.48441">
        <ele>1004</ele>
        <time>2021-06-06T08:58:23.445Z</time>
      </trkpt>
      <trkpt lat="45.85896" lon="5.48441">
        <ele>1004</ele>
        <time>2021-06-06T08:58:24.444Z</time>
      </trkpt>
      <trkpt lat="45.85894" lon="5.48434">
        <ele>1004</ele>
        <time>2021-06-06T08:58:25.444Z</time>
      </trkpt>
      <trkpt lat="45.85894" lon="5.48431">
        <ele>1005</ele>
        <time>2021-06-06T08:58:26.444Z</time>
      </trkpt>
      <trkpt lat="45.85893" lon="5.48427">
        <ele>1005</ele>
        <time>2021-06-06T08:58:27.444Z</time>
      </trkpt>
      <trkpt lat="45.85893" lon="5.48427">
        <ele>1005</ele>
        <time>2021-06-06T08:58:28.444Z</time>
      </trkpt>
      <trkpt lat="45.85892" lon="5.4842">
        <ele>1006</ele>
        <time>2021-06-06T08:58:29.444Z</time>
      </trkpt>
      <trkpt lat="45.85892" lon="5.4842">
        <ele>1006</ele>
        <time>2021-06-06T08:58:30.444Z</time>
      </trkpt>
      <trkpt lat="45.8589" lon="5.48413">
        <ele>1007</ele>
        <time>2021-06-06T08:58:31.444Z</time>
      </trkpt>
      <trkpt lat="45.8589" lon="5.4841">
        <ele>1007</ele>
        <time>2021-06-06T08:58:32.445Z</time>
      </trkpt>
      <trkpt lat="45.8589" lon="5.48407">
        <ele>1007</ele>
        <time>2021-06-06T08:58:33.444Z</time>
      </trkpt>
      <trkpt lat="45.8589" lon="5.48404">
        <ele>1007</ele>
        <time>2021-06-06T08:58:34.444Z</time>
      </trkpt>
      <trkpt lat="45.8589" lon="5.48401">
        <ele>1007</ele>
        <time>2021-06-06T08:58:35.444Z</time>
      </trkpt>
      <trkpt lat="45.85889" lon="5.48398">
        <ele>1007</ele>
        <time>2021-06-06T08:58:36.444Z</time>
      </trkpt>
      <trkpt lat="45.85888" lon="5.48397">
        <ele>1006</ele>
        <time>2021-06-06T08:58:37.444Z</time>
      </trkpt>
      <trkpt lat="45.85886" lon="5.48397">
        <ele>1006</ele>
        <time>2021-06-06T08:58:38.445Z</time>
      </trkpt>
      <trkpt lat="45.85885" lon="5.48397">
        <ele>1006</ele>
        <time>2021-06-06T08:58:39.445Z</time>
      </trkpt>
      <trkpt lat="45.85883" lon="5.48399">
        <ele>1006</ele>
        <time>2021-06-06T08:58:40.444Z</time>
      </trkpt>
      <trkpt lat="45.85883" lon="5.484">
        <ele>1006</ele>
        <time>2021-06-06T08:58:41.444Z</time>
      </trkpt>
      <trkpt lat="45.85882" lon="5.484">
        <ele>1006</ele>
        <time>2021-06-06T08:58:42.444Z</time>
      </trkpt>
      <trkpt lat="45.85882" lon="5.484">
        <ele>1006</ele>
        <time>2021-06-06T08:58:43.445Z</time>
      </trkpt>
      <trkpt lat="45.85882" lon="5.48401">
        <ele>1006</ele>
        <time>2021-06-06T08:58:44.444Z</time>
      </trkpt>
      <trkpt lat="45.85879" lon="5.48402">
        <ele>1010</ele>
        <time>2021-06-06T08:58:45.445Z</time>
      </trkpt>
      <trkpt lat="45.85879" lon="5.48402">
        <ele>1010</ele>
        <time>2021-06-06T08:58:46.444Z</time>
      </trkpt>
      <trkpt lat="45.85878" lon="5.48402">
        <ele>1010</ele>
        <time>2021-06-06T08:58:47.445Z</time>
      </trkpt>
      <trkpt lat="45.85877" lon="5.48403">
        <ele>1010</ele>
        <time>2021-06-06T08:58:48.445Z</time>
      </trkpt>
      <trkpt lat="45.85877" lon="5.48403">
        <ele>1011</ele>
        <time>2021-06-06T08:58:49.444Z</time>
      </trkpt>
      <trkpt lat="45.85877" lon="5.48403">
        <ele>1011</ele>
        <time>2021-06-06T08:58:50.445Z</time>
      </trkpt>
      <trkpt lat="45.85876" lon="5.48405">
        <ele>1017</ele>
        <time>2021-06-06T08:58:51.446Z</time>
      </trkpt>
      <trkpt lat="45.85876" lon="5.48405">
        <ele>1018</ele>
        <time>2021-06-06T08:58:52.445Z</time>
      </trkpt>
      <trkpt lat="45.85875" lon="5.48406">
        <ele>1019</ele>
        <time>2021-06-06T08:58:53.445Z</time>
      </trkpt>
      <trkpt lat="45.85875" lon="5.48406">
        <ele>1020</ele>
        <time>2021-06-06T08:58:54.446Z</time>
      </trkpt>
      <trkpt lat="45.85883" lon="5.48396">
        <ele>1009</ele>
        <time>2021-06-06T08:58:55.447Z</time>
      </trkpt>
      <trkpt lat="45.85885" lon="5.48392">
        <ele>1009</ele>
        <time>2021-06-06T08:58:56.447Z</time>
      </trkpt>
      <trkpt lat="45.85885" lon="5.48388">
        <ele>1009</ele>
        <time>2021-06-06T08:58:57.446Z</time>
      </trkpt>
      <trkpt lat="45.85886" lon="5.48385">
        <ele>1009</ele>
        <time>2021-06-06T08:58:58.447Z</time>
      </trkpt>
      <trkpt lat="45.85887" lon="5.48381">
        <ele>1009</ele>
        <time>2021-06-06T08:58:59.447Z</time>
      </trkpt>
      <trkpt lat="45.85887" lon="5.48376">
        <ele>1008</ele>
        <time>2021-06-06T08:59:00.447Z</time>
      </trkpt>
      <trkpt lat="45.85888" lon="5.48372">
        <ele>1008</ele>
        <time>2021-06-06T08:59:01.447Z</time>
      </trkpt>
      <trkpt lat="45.85888" lon="5.48368">
        <ele>1007</ele>
        <time>2021-06-06T08:59:02.447Z</time>
      </trkpt>
      <trkpt lat="45.85889" lon="5.48364">
        <ele>1008</ele>
        <time>2021-06-06T08:59:03.447Z</time>
      </trkpt>
      <trkpt lat="45.8589" lon="5.4836">
        <ele>1007</ele>
        <time>2021-06-06T08:59:04.447Z</time>
      </trkpt>
      <trkpt lat="45.8589" lon="5.48356">
        <ele>1007</ele>
        <time>2021-06-06T08:59:05.446Z</time>
      </trkpt>
      <trkpt lat="45.85891" lon="5.48352">
        <ele>1007</ele>
        <time>2021-06-06T08:59:06.447Z</time>
      </trkpt>
      <trkpt lat="45.85892" lon="5.48348">
        <ele>1007</ele>
        <time>2021-06-06T08:59:07.447Z</time>
      </trkpt>
      <trkpt lat="45.85893" lon="5.48343">
        <ele>1007</ele>
        <time>2021-06-06T08:59:08.447Z</time>
      </trkpt>
      <trkpt lat="45.85894" lon="5.48339">
        <ele>1007</ele>
        <time>2021-06-06T08:59:09.447Z</time>
      </trkpt>
      <trkpt lat="45.85895" lon="5.48335">
        <ele>1007</ele>
        <time>2021-06-06T08:59:10.447Z</time>
      </trkpt>
      <trkpt lat="45.85896" lon="5.48331">
        <ele>1008</ele>
        <time>2021-06-06T08:59:11.447Z</time>
      </trkpt>
      <trkpt lat="45.85898" lon="5.48326">
        <ele>1008</ele>
        <time>2021-06-06T08:59:12.447Z</time>
      </trkpt>
      <trkpt lat="45.85899" lon="5.48322">
        <ele>1008</ele>
        <time>2021-06-06T08:59:13.447Z</time>
      </trkpt>
      <trkpt lat="45.85901" lon="5.48318">
        <ele>1009</ele>
        <time>2021-06-06T08:59:14.447Z</time>
      </trkpt>
      <trkpt lat="45.85904" lon="5.48312">
        <ele>1009</ele>
        <time>2021-06-06T08:59:15.447Z</time>
      </trkpt>
      <trkpt lat="45.85905" lon="5.48308">
        <ele>1009</ele>
        <time>2021-06-06T08:59:16.447Z</time>
      </trkpt>
      <trkpt lat="45.85908" lon="5.48304">
        <ele>1009</ele>
        <time>2021-06-06T08:59:17.446Z</time>
      </trkpt>
      <trkpt lat="45.85911" lon="5.48299">
        <ele>1009</ele>
        <time>2021-06-06T08:59:18.447Z</time>
      </trkpt>
      <trkpt lat="45.85913" lon="5.48294">
        <ele>1009</ele>
        <time>2021-06-06T08:59:19.446Z</time>
      </trkpt>
      <trkpt lat="45.85916" lon="5.48289">
        <ele>1009</ele>
        <time>2021-06-06T08:59:20.447Z</time>
      </trkpt>
      <trkpt lat="45.85918" lon="5.48285">
        <ele>1009</ele>
        <time>2021-06-06T08:59:21.447Z</time>
      </trkpt>
      <trkpt lat="45.85921" lon="5.48279">
        <ele>1009</ele>
        <time>2021-06-06T08:59:22.447Z</time>
      </trkpt>
      <trkpt lat="45.85924" lon="5.48274">
        <ele>1010</ele>
        <time>2021-06-06T08:59:23.447Z</time>
      </trkpt>
      <trkpt lat="45.85928" lon="5.4827">
        <ele>1010</ele>
        <time>2021-06-06T08:59:24.447Z</time>
      </trkpt>
      <trkpt lat="45.85931" lon="5.48267">
        <ele>1010</ele>
        <time>2021-06-06T08:59:25.447Z</time>
      </trkpt>
      <trkpt lat="45.85934" lon="5.48262">
        <ele>1011</ele>
        <time>2021-06-06T08:59:26.447Z</time>
      </trkpt>
      <trkpt lat="45.85937" lon="5.48257">
        <ele>1011</ele>
        <time>2021-06-06T08:59:27.447Z</time>
      </trkpt>
      <trkpt lat="45.85939" lon="5.48254">
        <ele>1011</ele>
        <time>2021-06-06T08:59:28.447Z</time>
      </trkpt>
      <trkpt lat="45.85942" lon="5.48249">
        <ele>1011</ele>
        <time>2021-06-06T08:59:29.447Z</time>
      </trkpt>
      <trkpt lat="45.85944" lon="5.48245">
        <ele>1011</ele>
        <time>2021-06-06T08:59:30.447Z</time>
      </trkpt>
      <trkpt lat="45.85947" lon="5.4824">
        <ele>1011</ele>
        <time>2021-06-06T08:59:31.447Z</time>
      </trkpt>
      <trkpt lat="45.8595" lon="5.48236">
        <ele>1011</ele>
        <time>2021-06-06T08:59:32.447Z</time>
      </trkpt>
      <trkpt lat="45.85952" lon="5.48232">
        <ele>1010</ele>
        <time>2021-06-06T08:59:33.447Z</time>
      </trkpt>
      <trkpt lat="45.85955" lon="5.48228">
        <ele>1010</ele>
        <time>2021-06-06T08:59:34.447Z</time>
      </trkpt>
      <trkpt lat="45.85958" lon="5.48224">
        <ele>1010</ele>
        <time>2021-06-06T08:59:35.447Z</time>
      </trkpt>
      <trkpt lat="45.85961" lon="5.4822">
        <ele>1009</ele>
        <time>2021-06-06T08:59:36.447Z</time>
      </trkpt>
      <trkpt lat="45.85963" lon="5.48216">
        <ele>1009</ele>
        <time>2021-06-06T08:59:37.447Z</time>
      </trkpt>
      <trkpt lat="45.85966" lon="5.48212">
        <ele>1009</ele>
        <time>2021-06-06T08:59:38.446Z</time>
      </trkpt>
      <trkpt lat="45.8597" lon="5.48208">
        <ele>1009</ele>
        <time>2021-06-06T08:59:39.447Z</time>
      </trkpt>
      <trkpt lat="45.85973" lon="5.48203">
        <ele>1008</ele>
        <time>2021-06-06T08:59:40.446Z</time>
      </trkpt>
      <trkpt lat="45.85976" lon="5.48199">
        <ele>1008</ele>
        <time>2021-06-06T08:59:41.447Z</time>
      </trkpt>
      <trkpt lat="45.85979" lon="5.48194">
        <ele>1007</ele>
        <time>2021-06-06T08:59:42.447Z</time>
      </trkpt>
      <trkpt lat="45.85982" lon="5.4819">
        <ele>1007</ele>
        <time>2021-06-06T08:59:43.447Z</time>
      </trkpt>
      <trkpt lat="45.85985" lon="5.48185">
        <ele>1007</ele>
        <time>2021-06-06T08:59:44.447Z</time>
      </trkpt>
      <trkpt lat="45.85988" lon="5.48182">
        <ele>1007</ele>
        <time>2021-06-06T08:59:45.446Z</time>
      </trkpt>
      <trkpt lat="45.85991" lon="5.48177">
        <ele>1006</ele>
        <time>2021-06-06T08:59:46.447Z</time>
      </trkpt>
      <trkpt lat="45.85995" lon="5.48172">
        <ele>1006</ele>
        <time>2021-06-06T08:59:47.447Z</time>
      </trkpt>
      <trkpt lat="45.85998" lon="5.48167">
        <ele>1006</ele>
        <time>2021-06-06T08:59:48.447Z</time>
      </trkpt>
      <trkpt lat="45.86001" lon="5.48162">
        <ele>1005</ele>
        <time>2021-06-06T08:59:49.446Z</time>
      </trkpt>
      <trkpt lat="45.86004" lon="5.48158">
        <ele>1005</ele>
        <time>2021-06-06T08:59:50.447Z</time>
      </trkpt>
      <trkpt lat="45.86008" lon="5.48154">
        <ele>1004</ele>
        <time>2021-06-06T08:59:51.447Z</time>
      </trkpt>
      <trkpt lat="45.86012" lon="5.48148">
        <ele>1003</ele>
        <time>2021-06-06T08:59:52.447Z</time>
      </trkpt>
      <trkpt lat="45.86016" lon="5.48143">
        <ele>1002</ele>
        <time>2021-06-06T08:59:53.446Z</time>
      </trkpt>
      <trkpt lat="45.86021" lon="5.48138">
        <ele>1002</ele>
        <time>2021-06-06T08:59:54.446Z</time>
      </trkpt>
      <trkpt lat="45.86024" lon="5.48134">
        <ele>1001</ele>
        <time>2021-06-06T08:59:55.446Z</time>
      </trkpt>
      <trkpt lat="45.86029" lon="5.48129">
        <ele>1001</ele>
        <time>2021-06-06T08:59:56.447Z</time>
      </trkpt>
      <trkpt lat="45.86035" lon="5.48125">
        <ele>1001</ele>
        <time>2021-06-06T08:59:57.447Z</time>
      </trkpt>
      <trkpt lat="45.86041" lon="5.4812">
        <ele>1000</ele>
        <time>2021-06-06T08:59:58.447Z</time>
      </trkpt>
      <trkpt lat="45.86045" lon="5.48115">
        <ele>1000</ele>
        <time>2021-06-06T08:59:59.447Z</time>
      </trkpt>
      <trkpt lat="45.86052" lon="5.4811">
        <ele>1000</ele>
        <time>2021-06-06T09:00:00.447Z</time>
      </trkpt>
      <trkpt lat="45.86059" lon="5.48104">
        <ele>1000</ele>
        <time>2021-06-06T09:00:01.447Z</time>
      </trkpt>
      <trkpt lat="45.86067" lon="5.48098">
        <ele>1000</ele>
        <time>2021-06-06T09:00:02.447Z</time>
      </trkpt>
      <trkpt lat="45.86076" lon="5.48092">
        <ele>999</ele>
        <time>2021-06-06T09:00:03.446Z</time>
      </trkpt>
      <trkpt lat="45.86084" lon="5.48085">
        <ele>999</ele>
        <time>2021-06-06T09:00:04.447Z</time>
      </trkpt>
      <trkpt lat="45.86092" lon="5.48079">
        <ele>998</ele>
        <time>2021-06-06T09:00:05.447Z</time>
      </trkpt>
      <trkpt lat="45.861" lon="5.48072">
        <ele>998</ele>
        <time>2021-06-06T09:00:06.447Z</time>
      </trkpt>
      <trkpt lat="45.86108" lon="5.48063">
        <ele>997</ele>
        <time>2021-06-06T09:00:07.447Z</time>
      </trkpt>
      <trkpt lat="45.86117" lon="5.48053">
        <ele>997</ele>
        <time>2021-06-06T09:00:08.447Z</time>
      </trkpt>
      <trkpt lat="45.86124" lon="5.48041">
        <ele>996</ele>
        <time>2021-06-06T09:00:09.447Z</time>
      </trkpt>
      <trkpt lat="45.8613" lon="5.48026">
        <ele>996</ele>
        <time>2021-06-06T09:00:10.447Z</time>
      </trkpt>
      <trkpt lat="45.86135" lon="5.48012">
        <ele>995</ele>
        <time>2021-06-06T09:00:11.447Z</time>
      </trkpt>
      <trkpt lat="45.8614" lon="5.47997">
        <ele>995</ele>
        <time>2021-06-06T09:00:12.447Z</time>
      </trkpt>
      <trkpt lat="45.86145" lon="5.47982">
        <ele>994</ele>
        <time>2021-06-06T09:00:13.447Z</time>
      </trkpt>
      <trkpt lat="45.8615" lon="5.47964">
        <ele>993</ele>
        <time>2021-06-06T09:00:14.447Z</time>
      </trkpt>
      <trkpt lat="45.86154" lon="5.47947">
        <ele>993</ele>
        <time>2021-06-06T09:00:15.446Z</time>
      </trkpt>
      <trkpt lat="45.86157" lon="5.47932">
        <ele>992</ele>
        <time>2021-06-06T09:00:16.447Z</time>
      </trkpt>
      <trkpt lat="45.86161" lon="5.47916">
        <ele>992</ele>
        <time>2021-06-06T09:00:17.446Z</time>
      </trkpt>
      <trkpt lat="45.86165" lon="5.47901">
        <ele>991</ele>
        <time>2021-06-06T09:00:18.447Z</time>
      </trkpt>
      <trkpt lat="45.8617" lon="5.47887">
        <ele>991</ele>
        <time>2021-06-06T09:00:19.447Z</time>
      </trkpt>
      <trkpt lat="45.86177" lon="5.47875">
        <ele>990</ele>
        <time>2021-06-06T09:00:20.446Z</time>
      </trkpt>
      <trkpt lat="45.86184" lon="5.47865">
        <ele>989</ele>
        <time>2021-06-06T09:00:21.447Z</time>
      </trkpt>
      <trkpt lat="45.86192" lon="5.47855">
        <ele>989</ele>
        <time>2021-06-06T09:00:22.447Z</time>
      </trkpt>
      <trkpt lat="45.862" lon="5.47847">
        <ele>988</ele>
        <time>2021-06-06T09:00:23.446Z</time>
      </trkpt>
      <trkpt lat="45.8621" lon="5.4784">
        <ele>988</ele>
        <time>2021-06-06T09:00:24.447Z</time>
      </trkpt>
      <trkpt lat="45.86221" lon="5.47834">
        <ele>987</ele>
        <time>2021-06-06T09:00:25.446Z</time>
      </trkpt>
      <trkpt lat="45.86231" lon="5.47827">
        <ele>987</ele>
        <time>2021-06-06T09:00:26.447Z</time>
      </trkpt>
      <trkpt lat="45.86241" lon="5.47823">
        <ele>986</ele>
        <time>2021-06-06T09:00:27.447Z</time>
      </trkpt>
      <trkpt lat="45.86251" lon="5.47819">
        <ele>985</ele>
        <time>2021-06-06T09:00:28.447Z</time>
      </trkpt>
      <trkpt lat="45.86263" lon="5.47818">
        <ele>984</ele>
        <time>2021-06-06T09:00:29.447Z</time>
      </trkpt>
      <trkpt lat="45.86273" lon="5.47821">
        <ele>983</ele>
        <time>2021-06-06T09:00:30.447Z</time>
      </trkpt>
      <trkpt lat="45.86281" lon="5.47824">
        <ele>982</ele>
        <time>2021-06-06T09:00:31.446Z</time>
      </trkpt>
      <trkpt lat="45.86291" lon="5.47829">
        <ele>982</ele>
        <time>2021-06-06T09:00:32.447Z</time>
      </trkpt>
      <trkpt lat="45.863" lon="5.47836">
        <ele>981</ele>
        <time>2021-06-06T09:00:33.447Z</time>
      </trkpt>
      <trkpt lat="45.86311" lon="5.47844">
        <ele>980</ele>
        <time>2021-06-06T09:00:34.446Z</time>
      </trkpt>
      <trkpt lat="45.86322" lon="5.47855">
        <ele>979</ele>
        <time>2021-06-06T09:00:35.446Z</time>
      </trkpt>
      <trkpt lat="45.86333" lon="5.47863">
        <ele>978</ele>
        <time>2021-06-06T09:00:36.447Z</time>
      </trkpt>
      <trkpt lat="45.86343" lon="5.4787">
        <ele>977</ele>
        <time>2021-06-06T09:00:37.447Z</time>
      </trkpt>
      <trkpt lat="45.86352" lon="5.47875">
        <ele>976</ele>
        <time>2021-06-06T09:00:38.447Z</time>
      </trkpt>
      <trkpt lat="45.86362" lon="5.4788">
        <ele>975</ele>
        <time>2021-06-06T09:00:39.447Z</time>
      </trkpt>
      <trkpt lat="45.86371" lon="5.47881">
        <ele>974</ele>
        <time>2021-06-06T09:00:40.446Z</time>
      </trkpt>
      <trkpt lat="45.86379" lon="5.47879">
        <ele>973</ele>
        <time>2021-06-06T09:00:41.447Z</time>
      </trkpt>
      <trkpt lat="45.86387" lon="5.47875">
        <ele>972</ele>
        <time>2021-06-06T09:00:42.447Z</time>
      </trkpt>
      <trkpt lat="45.86395" lon="5.4787">
        <ele>971</ele>
        <time>2021-06-06T09:00:43.446Z</time>
      </trkpt>
      <trkpt lat="45.86401" lon="5.47864">
        <ele>969</ele>
        <time>2021-06-06T09:00:44.446Z</time>
      </trkpt>
      <trkpt lat="45.86408" lon="5.47858">
        <ele>968</ele>
        <time>2021-06-06T09:00:45.446Z</time>
      </trkpt>
      <trkpt lat="45.86413" lon="5.47852">
        <ele>966</ele>
        <time>2021-06-06T09:00:46.447Z</time>
      </trkpt>
      <trkpt lat="45.86418" lon="5.47846">
        <ele>965</ele>
        <time>2021-06-06T09:00:47.447Z</time>
      </trkpt>
      <trkpt lat="45.86422" lon="5.47841">
        <ele>964</ele>
        <time>2021-06-06T09:00:48.447Z</time>
      </trkpt>
      <trkpt lat="45.86427" lon="5.47838">
        <ele>963</ele>
        <time>2021-06-06T09:00:49.446Z</time>
      </trkpt>
      <trkpt lat="45.8643" lon="5.47839">
        <ele>962</ele>
        <time>2021-06-06T09:00:50.447Z</time>
      </trkpt>
      <trkpt lat="45.86433" lon="5.4784">
        <ele>962</ele>
        <time>2021-06-06T09:00:51.447Z</time>
      </trkpt>
      <trkpt lat="45.86436" lon="5.47842">
        <ele>961</ele>
        <time>2021-06-06T09:00:52.446Z</time>
      </trkpt>
      <trkpt lat="45.86438" lon="5.47844">
        <ele>961</ele>
        <time>2021-06-06T09:00:53.446Z</time>
      </trkpt>
      <trkpt lat="45.86439" lon="5.47848">
        <ele>960</ele>
        <time>2021-06-06T09:00:54.446Z</time>
      </trkpt>
      <trkpt lat="45.86439" lon="5.47851">
        <ele>960</ele>
        <time>2021-06-06T09:00:55.446Z</time>
      </trkpt>
      <trkpt lat="45.86439" lon="5.47854">
        <ele>960</ele>
        <time>2021-06-06T09:00:56.446Z</time>
      </trkpt>
      <trkpt lat="45.86439" lon="5.47858">
        <ele>960</ele>
        <time>2021-06-06T09:00:57.446Z</time>
      </trkpt>
      <trkpt lat="45.86438" lon="5.47861">
        <ele>959</ele>
        <time>2021-06-06T09:00:58.446Z</time>
      </trkpt>
      <trkpt lat="45.86438" lon="5.47863">
        <ele>959</ele>
        <time>2021-06-06T09:00:59.447Z</time>
      </trkpt>
      <trkpt lat="45.86437" lon="5.47867">
        <ele>958</ele>
        <time>2021-06-06T09:01:00.447Z</time>
      </trkpt>
      <trkpt lat="45.86437" lon="5.47871">
        <ele>958</ele>
        <time>2021-06-06T09:01:01.447Z</time>
      </trkpt>
      <trkpt lat="45.86437" lon="5.47873">
        <ele>958</ele>
        <time>2021-06-06T09:01:02.447Z</time>
      </trkpt>
      <trkpt lat="45.86437" lon="5.47875">
        <ele>957</ele>
        <time>2021-06-06T09:01:03.446Z</time>
      </trkpt>
      <trkpt lat="45.86437" lon="5.47876">
        <ele>957</ele>
        <time>2021-06-06T09:01:04.447Z</time>
      </trkpt>
      <trkpt lat="45.86437" lon="5.47878">
        <ele>957</ele>
        <time>2021-06-06T09:01:05.447Z</time>
      </trkpt>
      <trkpt lat="45.86437" lon="5.47879">
        <ele>957</ele>
        <time>2021-06-06T09:01:06.446Z</time>
      </trkpt>
      <trkpt lat="45.86438" lon="5.47881">
        <ele>958</ele>
        <time>2021-06-06T09:01:07.446Z</time>
      </trkpt>
      <trkpt lat="45.86437" lon="5.47882">
        <ele>958</ele>
        <time>2021-06-06T09:01:08.447Z</time>
      </trkpt>
      <trkpt lat="45.86437" lon="5.47885">
        <ele>960</ele>
        <time>2021-06-06T09:01:09.446Z</time>
      </trkpt>
      <trkpt lat="45.86438" lon="5.47887">
        <ele>959</ele>
        <time>2021-06-06T09:01:10.447Z</time>
      </trkpt>
      <trkpt lat="45.86438" lon="5.47889">
        <ele>959</ele>
        <time>2021-06-06T09:01:11.446Z</time>
      </trkpt>
      <trkpt lat="45.86438" lon="5.47892">
        <ele>958</ele>
        <time>2021-06-06T09:01:12.447Z</time>
      </trkpt>
      <trkpt lat="45.86438" lon="5.47895">
        <ele>958</ele>
        <time>2021-06-06T09:01:13.447Z</time>
      </trkpt>
      <trkpt lat="45.86439" lon="5.47898">
        <ele>957</ele>
        <time>2021-06-06T09:01:14.447Z</time>
      </trkpt>
      <trkpt lat="45.86439" lon="5.47901">
        <ele>957</ele>
        <time>2021-06-06T09:01:15.447Z</time>
      </trkpt>
      <trkpt lat="45.86439" lon="5.47905">
        <ele>956</ele>
        <time>2021-06-06T09:01:16.447Z</time>
      </trkpt>
      <trkpt lat="45.8644" lon="5.47909">
        <ele>956</ele>
        <time>2021-06-06T09:01:17.447Z</time>
      </trkpt>
      <trkpt lat="45.8644" lon="5.47913">
        <ele>955</ele>
        <time>2021-06-06T09:01:18.447Z</time>
      </trkpt>
      <trkpt lat="45.8644" lon="5.47918">
        <ele>955</ele>
        <time>2021-06-06T09:01:19.447Z</time>
      </trkpt>
      <trkpt lat="45.8644" lon="5.47922">
        <ele>954</ele>
        <time>2021-06-06T09:01:20.447Z</time>
      </trkpt>
      <trkpt lat="45.86439" lon="5.47926">
        <ele>954</ele>
        <time>2021-06-06T09:01:21.447Z</time>
      </trkpt>
      <trkpt lat="45.86439" lon="5.4793">
        <ele>954</ele>
        <time>2021-06-06T09:01:22.447Z</time>
      </trkpt>
      <trkpt lat="45.86438" lon="5.47934">
        <ele>954</ele>
        <time>2021-06-06T09:01:23.447Z</time>
      </trkpt>
      <trkpt lat="45.86437" lon="5.47938">
        <ele>953</ele>
        <time>2021-06-06T09:01:24.447Z</time>
      </trkpt>
      <trkpt lat="45.86436" lon="5.47942">
        <ele>953</ele>
        <time>2021-06-06T09:01:25.446Z</time>
      </trkpt>
      <trkpt lat="45.86434" lon="5.47948">
        <ele>953</ele>
        <time>2021-06-06T09:01:26.446Z</time>
      </trkpt>
      <trkpt lat="45.86432" lon="5.47953">
        <ele>952</ele>
        <time>2021-06-06T09:01:27.447Z</time>
      </trkpt>
      <trkpt lat="45.86429" lon="5.47959">
        <ele>952</ele>
        <time>2021-06-06T09:01:28.447Z</time>
      </trkpt>
      <trkpt lat="45.86426" lon="5.47964">
        <ele>951</ele>
        <time>2021-06-06T09:01:29.447Z</time>
      </trkpt>
      <trkpt lat="45.86423" lon="5.4797">
        <ele>951</ele>
        <time>2021-06-06T09:01:30.447Z</time>
      </trkpt>
      <trkpt lat="45.86419" lon="5.47976">
        <ele>951</ele>
        <time>2021-06-06T09:01:31.447Z</time>
      </trkpt>
      <trkpt lat="45.86414" lon="5.47982">
        <ele>951</ele>
        <time>2021-06-06T09:01:32.447Z</time>
      </trkpt>
      <trkpt lat="45.86411" lon="5.47987">
        <ele>951</ele>
        <time>2021-06-06T09:01:33.447Z</time>
      </trkpt>
      <trkpt lat="45.86406" lon="5.47994">
        <ele>951</ele>
        <time>2021-06-06T09:01:34.447Z</time>
      </trkpt>
      <trkpt lat="45.86404" lon="5.47999">
        <ele>951</ele>
        <time>2021-06-06T09:01:35.447Z</time>
      </trkpt>
      <trkpt lat="45.864" lon="5.48007">
        <ele>951</ele>
        <time>2021-06-06T09:01:36.446Z</time>
      </trkpt>
      <trkpt lat="45.86397" lon="5.48013">
        <ele>951</ele>
        <time>2021-06-06T09:01:37.447Z</time>
      </trkpt>
      <trkpt lat="45.86393" lon="5.4802">
        <ele>951</ele>
        <time>2021-06-06T09:01:38.447Z</time>
      </trkpt>
      <trkpt lat="45.8639" lon="5.48025">
        <ele>952</ele>
        <time>2021-06-06T09:01:39.447Z</time>
      </trkpt>
      <trkpt lat="45.86387" lon="5.48031">
        <ele>952</ele>
        <time>2021-06-06T09:01:40.446Z</time>
      </trkpt>
      <trkpt lat="45.86383" lon="5.48038">
        <ele>952</ele>
        <time>2021-06-06T09:01:41.446Z</time>
      </trkpt>
      <trkpt lat="45.8638" lon="5.48042">
        <ele>952</ele>
        <time>2021-06-06T09:01:42.447Z</time>
      </trkpt>
      <trkpt lat="45.86377" lon="5.48047">
        <ele>952</ele>
        <time>2021-06-06T09:01:43.447Z</time>
      </trkpt>
      <trkpt lat="45.86374" lon="5.48053">
        <ele>952</ele>
        <time>2021-06-06T09:01:44.447Z</time>
      </trkpt>
      <trkpt lat="45.86371" lon="5.48061">
        <ele>952</ele>
        <time>2021-06-06T09:01:45.447Z</time>
      </trkpt>
      <trkpt lat="45.86368" lon="5.48068">
        <ele>953</ele>
        <time>2021-06-06T09:01:46.446Z</time>
      </trkpt>
      <trkpt lat="45.86366" lon="5.48077">
        <ele>953</ele>
        <time>2021-06-06T09:01:47.447Z</time>
      </trkpt>
      <trkpt lat="45.86363" lon="5.48083">
        <ele>953</ele>
        <time>2021-06-06T09:01:48.446Z</time>
      </trkpt>
      <trkpt lat="45.8636" lon="5.48088">
        <ele>954</ele>
        <time>2021-06-06T09:01:49.447Z</time>
      </trkpt>
      <trkpt lat="45.86357" lon="5.48094">
        <ele>954</ele>
        <time>2021-06-06T09:01:50.447Z</time>
      </trkpt>
      <trkpt lat="45.86354" lon="5.48098">
        <ele>954</ele>
        <time>2021-06-06T09:01:51.446Z</time>
      </trkpt>
      <trkpt lat="45.86351" lon="5.48105">
        <ele>955</ele>
        <time>2021-06-06T09:01:52.447Z</time>
      </trkpt>
      <trkpt lat="45.86347" lon="5.48111">
        <ele>955</ele>
        <time>2021-06-06T09:01:53.447Z</time>
      </trkpt>
      <trkpt lat="45.86345" lon="5.48115">
        <ele>956</ele>
        <time>2021-06-06T09:01:54.446Z</time>
      </trkpt>
      <trkpt lat="45.86343" lon="5.4812">
        <ele>956</ele>
        <time>2021-06-06T09:01:55.446Z</time>
      </trkpt>
      <trkpt lat="45.86341" lon="5.48125">
        <ele>957</ele>
        <time>2021-06-06T09:01:56.447Z</time>
      </trkpt>
      <trkpt lat="45.86339" lon="5.4813">
        <ele>957</ele>
        <time>2021-06-06T09:01:57.447Z</time>
      </trkpt>
      <trkpt lat="45.86336" lon="5.48137">
        <ele>957</ele>
        <time>2021-06-06T09:01:58.447Z</time>
      </trkpt>
      <trkpt lat="45.86334" lon="5.48144">
        <ele>957</ele>
        <time>2021-06-06T09:01:59.447Z</time>
      </trkpt>
      <trkpt lat="45.86331" lon="5.48151">
        <ele>958</ele>
        <time>2021-06-06T09:02:00.447Z</time>
      </trkpt>
      <trkpt lat="45.86329" lon="5.48156">
        <ele>958</ele>
        <time>2021-06-06T09:02:01.447Z</time>
      </trkpt>
      <trkpt lat="45.86328" lon="5.48162">
        <ele>958</ele>
        <time>2021-06-06T09:02:02.447Z</time>
      </trkpt>
      <trkpt lat="45.86327" lon="5.48167">
        <ele>959</ele>
        <time>2021-06-06T09:02:03.447Z</time>
      </trkpt>
      <trkpt lat="45.86326" lon="5.48172">
        <ele>959</ele>
        <time>2021-06-06T09:02:04.447Z</time>
      </trkpt>
      <trkpt lat="45.86325" lon="5.48178">
        <ele>959</ele>
        <time>2021-06-06T09:02:05.446Z</time>
      </trkpt>
      <trkpt lat="45.86322" lon="5.48184">
        <ele>959</ele>
        <time>2021-06-06T09:02:06.446Z</time>
      </trkpt>
      <trkpt lat="45.8632" lon="5.48189">
        <ele>960</ele>
        <time>2021-06-06T09:02:07.447Z</time>
      </trkpt>
      <trkpt lat="45.86317" lon="5.48193">
        <ele>960</ele>
        <time>2021-06-06T09:02:08.447Z</time>
      </trkpt>
      <trkpt lat="45.86313" lon="5.48197">
        <ele>961</ele>
        <time>2021-06-06T09:02:09.446Z</time>
      </trkpt>
      <trkpt lat="45.86311" lon="5.48199">
        <ele>961</ele>
        <time>2021-06-06T09:02:10.446Z</time>
      </trkpt>
      <trkpt lat="45.86308" lon="5.48201">
        <ele>961</ele>
        <time>2021-06-06T09:02:11.447Z</time>
      </trkpt>
      <trkpt lat="45.86305" lon="5.48205">
        <ele>962</ele>
        <time>2021-06-06T09:02:12.447Z</time>
      </trkpt>
      <trkpt lat="45.86302" lon="5.48208">
        <ele>962</ele>
        <time>2021-06-06T09:02:13.447Z</time>
      </trkpt>
      <trkpt lat="45.863" lon="5.48212">
        <ele>963</ele>
        <time>2021-06-06T09:02:14.447Z</time>
      </trkpt>
      <trkpt lat="45.86298" lon="5.48216">
        <ele>963</ele>
        <time>2021-06-06T09:02:15.446Z</time>
      </trkpt>
      <trkpt lat="45.86296" lon="5.48221">
        <ele>963</ele>
        <time>2021-06-06T09:02:16.447Z</time>
      </trkpt>
      <trkpt lat="45.86294" lon="5.48224">
        <ele>964</ele>
        <time>2021-06-06T09:02:17.447Z</time>
      </trkpt>
      <trkpt lat="45.86292" lon="5.48226">
        <ele>964</ele>
        <time>2021-06-06T09:02:18.447Z</time>
      </trkpt>
      <trkpt lat="45.8629" lon="5.48229">
        <ele>965</ele>
        <time>2021-06-06T09:02:19.447Z</time>
      </trkpt>
      <trkpt lat="45.86287" lon="5.48233">
        <ele>965</ele>
        <time>2021-06-06T09:02:20.447Z</time>
      </trkpt>
      <trkpt lat="45.86284" lon="5.48237">
        <ele>966</ele>
        <time>2021-06-06T09:02:21.447Z</time>
      </trkpt>
      <trkpt lat="45.86282" lon="5.48241">
        <ele>967</ele>
        <time>2021-06-06T09:02:22.447Z</time>
      </trkpt>
      <trkpt lat="45.8628" lon="5.48245">
        <ele>967</ele>
        <time>2021-06-06T09:02:23.447Z</time>
      </trkpt>
      <trkpt lat="45.86278" lon="5.4825">
        <ele>968</ele>
        <time>2021-06-06T09:02:24.447Z</time>
      </trkpt>
      <trkpt lat="45.86275" lon="5.48253">
        <ele>968</ele>
        <time>2021-06-06T09:02:25.447Z</time>
      </trkpt>
      <trkpt lat="45.86274" lon="5.48257">
        <ele>969</ele>
        <time>2021-06-06T09:02:26.446Z</time>
      </trkpt>
      <trkpt lat="45.86272" lon="5.48263">
        <ele>969</ele>
        <time>2021-06-06T09:02:27.447Z</time>
      </trkpt>
      <trkpt lat="45.86271" lon="5.48268">
        <ele>970</ele>
        <time>2021-06-06T09:02:28.446Z</time>
      </trkpt>
      <trkpt lat="45.86271" lon="5.48274">
        <ele>970</ele>
        <time>2021-06-06T09:02:29.447Z</time>
      </trkpt>
      <trkpt lat="45.86271" lon="5.48281">
        <ele>971</ele>
        <time>2021-06-06T09:02:30.446Z</time>
      </trkpt>
      <trkpt lat="45.86269" lon="5.48285">
        <ele>971</ele>
        <time>2021-06-06T09:02:31.447Z</time>
      </trkpt>
      <trkpt lat="45.86267" lon="5.4829">
        <ele>972</ele>
        <time>2021-06-06T09:02:32.446Z</time>
      </trkpt>
      <trkpt lat="45.86264" lon="5.48294">
        <ele>972</ele>
        <time>2021-06-06T09:02:33.447Z</time>
      </trkpt>
      <trkpt lat="45.86261" lon="5.48298">
        <ele>973</ele>
        <time>2021-06-06T09:02:34.447Z</time>
      </trkpt>
      <trkpt lat="45.86259" lon="5.48302">
        <ele>973</ele>
        <time>2021-06-06T09:02:35.447Z</time>
      </trkpt>
      <trkpt lat="45.86256" lon="5.48306">
        <ele>974</ele>
        <time>2021-06-06T09:02:36.447Z</time>
      </trkpt>
      <trkpt lat="45.86254" lon="5.4831">
        <ele>974</ele>
        <time>2021-06-06T09:02:37.446Z</time>
      </trkpt>
      <trkpt lat="45.86252" lon="5.48315">
        <ele>975</ele>
        <time>2021-06-06T09:02:38.447Z</time>
      </trkpt>
      <trkpt lat="45.8625" lon="5.48318">
        <ele>975</ele>
        <time>2021-06-06T09:02:39.446Z</time>
      </trkpt>
      <trkpt lat="45.86247" lon="5.48321">
        <ele>975</ele>
        <time>2021-06-06T09:02:40.447Z</time>
      </trkpt>
      <trkpt lat="45.86244" lon="5.48323">
        <ele>975</ele>
        <time>2021-06-06T09:02:41.447Z</time>
      </trkpt>
      <trkpt lat="45.86242" lon="5.48326">
        <ele>975</ele>
        <time>2021-06-06T09:02:42.447Z</time>
      </trkpt>
      <trkpt lat="45.86241" lon="5.48328">
        <ele>975</ele>
        <time>2021-06-06T09:02:43.447Z</time>
      </trkpt>
      <trkpt lat="45.8624" lon="5.48331">
        <ele>975</ele>
        <time>2021-06-06T09:02:44.447Z</time>
      </trkpt>
      <trkpt lat="45.86238" lon="5.48333">
        <ele>975</ele>
        <time>2021-06-06T09:02:45.447Z</time>
      </trkpt>
      <trkpt lat="45.86237" lon="5.48335">
        <ele>976</ele>
        <time>2021-06-06T09:02:46.447Z</time>
      </trkpt>
      <trkpt lat="45.86236" lon="5.48338">
        <ele>976</ele>
        <time>2021-06-06T09:02:47.447Z</time>
      </trkpt>
      <trkpt lat="45.86235" lon="5.48341">
        <ele>976</ele>
        <time>2021-06-06T09:02:48.447Z</time>
      </trkpt>
      <trkpt lat="45.86234" lon="5.48343">
        <ele>977</ele>
        <time>2021-06-06T09:02:49.446Z</time>
      </trkpt>
      <trkpt lat="45.86233" lon="5.48344">
        <ele>977</ele>
        <time>2021-06-06T09:02:50.446Z</time>
      </trkpt>
      <trkpt lat="45.86232" lon="5.48345">
        <ele>978</ele>
        <time>2021-06-06T09:02:51.447Z</time>
      </trkpt>
      <trkpt lat="45.86231" lon="5.48347">
        <ele>979</ele>
        <time>2021-06-06T09:02:52.447Z</time>
      </trkpt>
      <trkpt lat="45.8623" lon="5.48348">
        <ele>979</ele>
        <time>2021-06-06T09:02:53.447Z</time>
      </trkpt>
      <trkpt lat="45.86228" lon="5.4835">
        <ele>980</ele>
        <time>2021-06-06T09:02:54.447Z</time>
      </trkpt>
      <trkpt lat="45.86227" lon="5.48351">
        <ele>980</ele>
        <time>2021-06-06T09:02:55.447Z</time>
      </trkpt>
      <trkpt lat="45.86227" lon="5.48353">
        <ele>981</ele>
        <time>2021-06-06T09:02:56.446Z</time>
      </trkpt>
      <trkpt lat="45.86226" lon="5.48354">
        <ele>981</ele>
        <time>2021-06-06T09:02:57.446Z</time>
      </trkpt>
      <trkpt lat="45.86226" lon="5.48356">
        <ele>981</ele>
        <time>2021-06-06T09:02:58.447Z</time>
      </trkpt>
      <trkpt lat="45.86227" lon="5.48357">
        <ele>982</ele>
        <time>2021-06-06T09:02:59.446Z</time>
      </trkpt>
      <trkpt lat="45.86228" lon="5.48356">
        <ele>982</ele>
        <time>2021-06-06T09:03:00.447Z</time>
      </trkpt>
      <trkpt lat="45.86228" lon="5.48354">
        <ele>982</ele>
        <time>2021-06-06T09:03:01.447Z</time>
      </trkpt>
      <trkpt lat="45.86229" lon="5.48351">
        <ele>982</ele>
        <time>2021-06-06T09:03:02.447Z</time>
      </trkpt>
      <trkpt lat="45.8623" lon="5.48348">
        <ele>982</ele>
        <time>2021-06-06T09:03:03.447Z</time>
      </trkpt>
      <trkpt lat="45.86232" lon="5.48345">
        <ele>982</ele>
        <time>2021-06-06T09:03:04.447Z</time>
      </trkpt>
      <trkpt lat="45.86233" lon="5.48341">
        <ele>982</ele>
        <time>2021-06-06T09:03:05.447Z</time>
      </trkpt>
      <trkpt lat="45.86235" lon="5.48337">
        <ele>982</ele>
        <time>2021-06-06T09:03:06.447Z</time>
      </trkpt>
      <trkpt lat="45.86236" lon="5.48333">
        <ele>981</ele>
        <time>2021-06-06T09:03:07.446Z</time>
      </trkpt>
      <trkpt lat="45.86238" lon="5.48329">
        <ele>981</ele>
        <time>2021-06-06T09:03:08.446Z</time>
      </trkpt>
      <trkpt lat="45.86241" lon="5.48326">
        <ele>981</ele>
        <time>2021-06-06T09:03:09.447Z</time>
      </trkpt>
      <trkpt lat="45.86243" lon="5.48322">
        <ele>980</ele>
        <time>2021-06-06T09:03:10.446Z</time>
      </trkpt>
      <trkpt lat="45.86245" lon="5.48318">
        <ele>980</ele>
        <time>2021-06-06T09:03:11.447Z</time>
      </trkpt>
      <trkpt lat="45.86248" lon="5.48314">
        <ele>979</ele>
        <time>2021-06-06T09:03:12.447Z</time>
      </trkpt>
      <trkpt lat="45.8625" lon="5.48309">
        <ele>978</ele>
        <time>2021-06-06T09:03:13.447Z</time>
      </trkpt>
      <trkpt lat="45.86253" lon="5.48304">
        <ele>978</ele>
        <time>2021-06-06T09:03:14.447Z</time>
      </trkpt>
      <trkpt lat="45.86255" lon="5.48298">
        <ele>977</ele>
        <time>2021-06-06T09:03:15.447Z</time>
      </trkpt>
      <trkpt lat="45.86258" lon="5.48292">
        <ele>977</ele>
        <time>2021-06-06T09:03:16.447Z</time>
      </trkpt>
      <trkpt lat="45.86259" lon="5.48287">
        <ele>976</ele>
        <time>2021-06-06T09:03:17.446Z</time>
      </trkpt>
      <trkpt lat="45.86261" lon="5.48282">
        <ele>975</ele>
        <time>2021-06-06T09:03:18.447Z</time>
      </trkpt>
      <trkpt lat="45.86262" lon="5.48277">
        <ele>975</ele>
        <time>2021-06-06T09:03:19.446Z</time>
      </trkpt>
      <trkpt lat="45.86264" lon="5.48272">
        <ele>974</ele>
        <time>2021-06-06T09:03:20.447Z</time>
      </trkpt>
      <trkpt lat="45.86265" lon="5.48268">
        <ele>973</ele>
        <time>2021-06-06T09:03:21.446Z</time>
      </trkpt>
      <trkpt lat="45.86267" lon="5.48264">
        <ele>972</ele>
        <time>2021-06-06T09:03:22.447Z</time>
      </trkpt>
      <trkpt lat="45.86268" lon="5.48259">
        <ele>971</ele>
        <time>2021-06-06T09:03:23.447Z</time>
      </trkpt>
      <trkpt lat="45.8627" lon="5.48255">
        <ele>971</ele>
        <time>2021-06-06T09:03:24.447Z</time>
      </trkpt>
      <trkpt lat="45.86272" lon="5.4825">
        <ele>970</ele>
        <time>2021-06-06T09:03:25.447Z</time>
      </trkpt>
      <trkpt lat="45.86274" lon="5.48245">
        <ele>969</ele>
        <time>2021-06-06T09:03:26.447Z</time>
      </trkpt>
      <trkpt lat="45.86277" lon="5.48239">
        <ele>968</ele>
        <time>2021-06-06T09:03:27.446Z</time>
      </trkpt>
      <trkpt lat="45.8628" lon="5.48235">
        <ele>967</ele>
        <time>2021-06-06T09:03:28.446Z</time>
      </trkpt>
      <trkpt lat="45.86282" lon="5.48229">
        <ele>967</ele>
        <time>2021-06-06T09:03:29.446Z</time>
      </trkpt>
      <trkpt lat="45.86286" lon="5.48223">
        <ele>966</ele>
        <time>2021-06-06T09:03:30.447Z</time>
      </trkpt>
      <trkpt lat="45.86288" lon="5.48218">
        <ele>966</ele>
        <time>2021-06-06T09:03:31.446Z</time>
      </trkpt>
      <trkpt lat="45.8629" lon="5.48214">
        <ele>965</ele>
        <time>2021-06-06T09:03:32.447Z</time>
      </trkpt>
      <trkpt lat="45.86292" lon="5.48208">
        <ele>965</ele>
        <time>2021-06-06T09:03:33.447Z</time>
      </trkpt>
      <trkpt lat="45.86295" lon="5.48203">
        <ele>964</ele>
        <time>2021-06-06T09:03:34.447Z</time>
      </trkpt>
      <trkpt lat="45.86298" lon="5.48197">
        <ele>964</ele>
        <time>2021-06-06T09:03:35.447Z</time>
      </trkpt>
      <trkpt lat="45.86301" lon="5.48189">
        <ele>964</ele>
        <time>2021-06-06T09:03:36.447Z</time>
      </trkpt>
      <trkpt lat="45.86305" lon="5.48182">
        <ele>963</ele>
        <time>2021-06-06T09:03:37.447Z</time>
      </trkpt>
      <trkpt lat="45.86307" lon="5.48175">
        <ele>963</ele>
        <time>2021-06-06T09:03:38.447Z</time>
      </trkpt>
      <trkpt lat="45.86311" lon="5.48168">
        <ele>963</ele>
        <time>2021-06-06T09:03:39.447Z</time>
      </trkpt>
      <trkpt lat="45.86315" lon="5.48161">
        <ele>963</ele>
        <time>2021-06-06T09:03:40.446Z</time>
      </trkpt>
      <trkpt lat="45.86319" lon="5.48154">
        <ele>962</ele>
        <time>2021-06-06T09:03:41.447Z</time>
      </trkpt>
      <trkpt lat="45.86324" lon="5.48149">
        <ele>962</ele>
        <time>2021-06-06T09:03:42.447Z</time>
      </trkpt>
      <trkpt lat="45.86328" lon="5.48143">
        <ele>961</ele>
        <time>2021-06-06T09:03:43.447Z</time>
      </trkpt>
      <trkpt lat="45.86331" lon="5.48136">
        <ele>961</ele>
        <time>2021-06-06T09:03:44.447Z</time>
      </trkpt>
      <trkpt lat="45.86335" lon="5.48129">
        <ele>960</ele>
        <time>2021-06-06T09:03:45.447Z</time>
      </trkpt>
      <trkpt lat="45.86339" lon="5.48123">
        <ele>959</ele>
        <time>2021-06-06T09:03:46.447Z</time>
      </trkpt>
      <trkpt lat="45.86343" lon="5.48117">
        <ele>959</ele>
        <time>2021-06-06T09:03:47.447Z</time>
      </trkpt>
      <trkpt lat="45.86347" lon="5.4811">
        <ele>958</ele>
        <time>2021-06-06T09:03:48.447Z</time>
      </trkpt>
      <trkpt lat="45.86351" lon="5.48104">
        <ele>958</ele>
        <time>2021-06-06T09:03:49.447Z</time>
      </trkpt>
      <trkpt lat="45.86354" lon="5.48097">
        <ele>957</ele>
        <time>2021-06-06T09:03:50.447Z</time>
      </trkpt>
      <trkpt lat="45.86357" lon="5.4809">
        <ele>957</ele>
        <time>2021-06-06T09:03:51.447Z</time>
      </trkpt>
      <trkpt lat="45.8636" lon="5.48083">
        <ele>956</ele>
        <time>2021-06-06T09:03:52.446Z</time>
      </trkpt>
      <trkpt lat="45.86363" lon="5.48076">
        <ele>956</ele>
        <time>2021-06-06T09:03:53.447Z</time>
      </trkpt>
      <trkpt lat="45.86367" lon="5.48069">
        <ele>955</ele>
        <time>2021-06-06T09:03:54.447Z</time>
      </trkpt>
      <trkpt lat="45.8637" lon="5.48062">
        <ele>955</ele>
        <time>2021-06-06T09:03:55.447Z</time>
      </trkpt>
      <trkpt lat="45.86374" lon="5.48055">
        <ele>954</ele>
        <time>2021-06-06T09:03:56.447Z</time>
      </trkpt>
      <trkpt lat="45.86377" lon="5.48049">
        <ele>954</ele>
        <time>2021-06-06T09:03:57.446Z</time>
      </trkpt>
      <trkpt lat="45.86379" lon="5.48041">
        <ele>953</ele>
        <time>2021-06-06T09:03:58.447Z</time>
      </trkpt>
      <trkpt lat="45.86383" lon="5.48035">
        <ele>953</ele>
        <time>2021-06-06T09:03:59.447Z</time>
      </trkpt>
      <trkpt lat="45.86386" lon="5.4803">
        <ele>953</ele>
        <time>2021-06-06T09:04:00.447Z</time>
      </trkpt>
      <trkpt lat="45.8639" lon="5.48024">
        <ele>952</ele>
        <time>2021-06-06T09:04:01.447Z</time>
      </trkpt>
      <trkpt lat="45.86394" lon="5.48017">
        <ele>951</ele>
        <time>2021-06-06T09:04:02.447Z</time>
      </trkpt>
      <trkpt lat="45.86398" lon="5.4801">
        <ele>951</ele>
        <time>2021-06-06T09:04:03.447Z</time>
      </trkpt>
      <trkpt lat="45.86402" lon="5.48003">
        <ele>950</ele>
        <time>2021-06-06T09:04:04.447Z</time>
      </trkpt>
      <trkpt lat="45.86406" lon="5.47997">
        <ele>950</ele>
        <time>2021-06-06T09:04:05.447Z</time>
      </trkpt>
      <trkpt lat="45.86409" lon="5.47991">
        <ele>949</ele>
        <time>2021-06-06T09:04:06.447Z</time>
      </trkpt>
      <trkpt lat="45.86413" lon="5.47986">
        <ele>949</ele>
        <time>2021-06-06T09:04:07.447Z</time>
      </trkpt>
      <trkpt lat="45.86416" lon="5.4798">
        <ele>948</ele>
        <time>2021-06-06T09:04:08.447Z</time>
      </trkpt>
      <trkpt lat="45.86419" lon="5.47975">
        <ele>948</ele>
        <time>2021-06-06T09:04:09.446Z</time>
      </trkpt>
      <trkpt lat="45.86422" lon="5.4797">
        <ele>948</ele>
        <time>2021-06-06T09:04:10.447Z</time>
      </trkpt>
      <trkpt lat="45.86424" lon="5.47964">
        <ele>948</ele>
        <time>2021-06-06T09:04:11.446Z</time>
      </trkpt>
      <trkpt lat="45.86426" lon="5.47959">
        <ele>948</ele>
        <time>2021-06-06T09:04:12.446Z</time>
      </trkpt>
      <trkpt lat="45.86427" lon="5.47955">
        <ele>948</ele>
        <time>2021-06-06T09:04:13.447Z</time>
      </trkpt>
      <trkpt lat="45.86428" lon="5.47949">
        <ele>948</ele>
        <time>2021-06-06T09:04:14.447Z</time>
      </trkpt>
      <trkpt lat="45.8643" lon="5.47943">
        <ele>947</ele>
        <time>2021-06-06T09:04:15.447Z</time>
      </trkpt>
      <trkpt lat="45.86431" lon="5.47936">
        <ele>947</ele>
        <time>2021-06-06T09:04:16.447Z</time>
      </trkpt>
      <trkpt lat="45.86431" lon="5.47929">
        <ele>947</ele>
        <time>2021-06-06T09:04:17.447Z</time>
      </trkpt>
      <trkpt lat="45.86431" lon="5.47923">
        <ele>948</ele>
        <time>2021-06-06T09:04:18.446Z</time>
      </trkpt>
      <trkpt lat="45.86431" lon="5.47916">
        <ele>948</ele>
        <time>2021-06-06T09:04:19.447Z</time>
      </trkpt>
      <trkpt lat="45.86431" lon="5.47908">
        <ele>948</ele>
        <time>2021-06-06T09:04:20.447Z</time>
      </trkpt>
      <trkpt lat="45.86431" lon="5.47901">
        <ele>948</ele>
        <time>2021-06-06T09:04:21.447Z</time>
      </trkpt>
      <trkpt lat="45.86432" lon="5.47893">
        <ele>948</ele>
        <time>2021-06-06T09:04:22.447Z</time>
      </trkpt>
      <trkpt lat="45.86432" lon="5.47884">
        <ele>948</ele>
        <time>2021-06-06T09:04:23.447Z</time>
      </trkpt>
      <trkpt lat="45.86431" lon="5.47875">
        <ele>948</ele>
        <time>2021-06-06T09:04:24.447Z</time>
      </trkpt>
      <trkpt lat="45.86432" lon="5.47869">
        <ele>948</ele>
        <time>2021-06-06T09:04:25.447Z</time>
      </trkpt>
      <trkpt lat="45.86431" lon="5.47862">
        <ele>949</ele>
        <time>2021-06-06T09:04:26.447Z</time>
      </trkpt>
      <trkpt lat="45.8643" lon="5.47854">
        <ele>949</ele>
        <time>2021-06-06T09:04:27.447Z</time>
      </trkpt>
      <trkpt lat="45.8643" lon="5.47846">
        <ele>950</ele>
        <time>2021-06-06T09:04:28.447Z</time>
      </trkpt>
      <trkpt lat="45.8643" lon="5.47838">
        <ele>950</ele>
        <time>2021-06-06T09:04:29.447Z</time>
      </trkpt>
      <trkpt lat="45.86429" lon="5.4783">
        <ele>949</ele>
        <time>2021-06-06T09:04:30.447Z</time>
      </trkpt>
      <trkpt lat="45.86427" lon="5.47822">
        <ele>949</ele>
        <time>2021-06-06T09:04:31.447Z</time>
      </trkpt>
      <trkpt lat="45.86427" lon="5.47813">
        <ele>949</ele>
        <time>2021-06-06T09:04:32.446Z</time>
      </trkpt>
      <trkpt lat="45.86426" lon="5.47804">
        <ele>949</ele>
        <time>2021-06-06T09:04:33.447Z</time>
      </trkpt>
      <trkpt lat="45.86425" lon="5.47793">
        <ele>949</ele>
        <time>2021-06-06T09:04:34.446Z</time>
      </trkpt>
      <trkpt lat="45.86425" lon="5.47781">
        <ele>949</ele>
        <time>2021-06-06T09:04:35.446Z</time>
      </trkpt>
      <trkpt lat="45.86425" lon="5.47769">
        <ele>949</ele>
        <time>2021-06-06T09:04:36.447Z</time>
      </trkpt>
      <trkpt lat="45.86424" lon="5.47756">
        <ele>949</ele>
        <time>2021-06-06T09:04:37.447Z</time>
      </trkpt>
      <trkpt lat="45.86424" lon="5.47742">
        <ele>948</ele>
        <time>2021-06-06T09:04:38.447Z</time>
      </trkpt>
      <trkpt lat="45.86423" lon="5.47726">
        <ele>948</ele>
        <time>2021-06-06T09:04:39.446Z</time>
      </trkpt>
      <trkpt lat="45.86422" lon="5.47714">
        <ele>949</ele>
        <time>2021-06-06T09:04:40.446Z</time>
      </trkpt>
      <trkpt lat="45.86424" lon="5.47699">
        <ele>949</ele>
        <time>2021-06-06T09:04:41.447Z</time>
      </trkpt>
      <trkpt lat="45.86426" lon="5.47684">
        <ele>948</ele>
        <time>2021-06-06T09:04:42.446Z</time>
      </trkpt>
      <trkpt lat="45.8643" lon="5.47671">
        <ele>948</ele>
        <time>2021-06-06T09:04:43.447Z</time>
      </trkpt>
      <trkpt lat="45.86435" lon="5.4766">
        <ele>948</ele>
        <time>2021-06-06T09:04:44.447Z</time>
      </trkpt>
      <trkpt lat="45.86442" lon="5.4765">
        <ele>947</ele>
        <time>2021-06-06T09:04:45.447Z</time>
      </trkpt>
      <trkpt lat="45.86449" lon="5.47644">
        <ele>947</ele>
        <time>2021-06-06T09:04:46.447Z</time>
      </trkpt>
      <trkpt lat="45.86458" lon="5.47641">
        <ele>946</ele>
        <time>2021-06-06T09:04:47.447Z</time>
      </trkpt>
      <trkpt lat="45.86466" lon="5.47642">
        <ele>946</ele>
        <time>2021-06-06T09:04:48.447Z</time>
      </trkpt>
      <trkpt lat="45.86474" lon="5.47647">
        <ele>945</ele>
        <time>2021-06-06T09:04:49.447Z</time>
      </trkpt>
      <trkpt lat="45.86482" lon="5.47653">
        <ele>945</ele>
        <time>2021-06-06T09:04:50.447Z</time>
      </trkpt>
      <trkpt lat="45.86489" lon="5.47658">
        <ele>944</ele>
        <time>2021-06-06T09:04:51.447Z</time>
      </trkpt>
      <trkpt lat="45.86498" lon="5.47662">
        <ele>944</ele>
        <time>2021-06-06T09:04:52.446Z</time>
      </trkpt>
      <trkpt lat="45.86507" lon="5.47664">
        <ele>944</ele>
        <time>2021-06-06T09:04:53.446Z</time>
      </trkpt>
      <trkpt lat="45.86516" lon="5.47665">
        <ele>944</ele>
        <time>2021-06-06T09:04:54.447Z</time>
      </trkpt>
      <trkpt lat="45.86526" lon="5.47665">
        <ele>943</ele>
        <time>2021-06-06T09:04:55.447Z</time>
      </trkpt>
      <trkpt lat="45.86536" lon="5.47666">
        <ele>943</ele>
        <time>2021-06-06T09:04:56.447Z</time>
      </trkpt>
      <trkpt lat="45.86547" lon="5.47668">
        <ele>943</ele>
        <time>2021-06-06T09:04:57.447Z</time>
      </trkpt>
      <trkpt lat="45.86558" lon="5.47669">
        <ele>942</ele>
        <time>2021-06-06T09:04:58.447Z</time>
      </trkpt>
      <trkpt lat="45.86569" lon="5.47668">
        <ele>942</ele>
        <time>2021-06-06T09:04:59.447Z</time>
      </trkpt>
      <trkpt lat="45.86579" lon="5.47665">
        <ele>941</ele>
        <time>2021-06-06T09:05:00.447Z</time>
      </trkpt>
      <trkpt lat="45.86589" lon="5.47661">
        <ele>941</ele>
        <time>2021-06-06T09:05:01.447Z</time>
      </trkpt>
      <trkpt lat="45.86597" lon="5.47653">
        <ele>940</ele>
        <time>2021-06-06T09:05:02.447Z</time>
      </trkpt>
      <trkpt lat="45.86604" lon="5.47643">
        <ele>939</ele>
        <time>2021-06-06T09:05:03.447Z</time>
      </trkpt>
      <trkpt lat="45.86611" lon="5.47631">
        <ele>939</ele>
        <time>2021-06-06T09:05:04.447Z</time>
      </trkpt>
      <trkpt lat="45.86615" lon="5.47619">
        <ele>938</ele>
        <time>2021-06-06T09:05:05.447Z</time>
      </trkpt>
      <trkpt lat="45.86619" lon="5.47604">
        <ele>937</ele>
        <time>2021-06-06T09:05:06.446Z</time>
      </trkpt>
      <trkpt lat="45.86623" lon="5.47588">
        <ele>937</ele>
        <time>2021-06-06T09:05:07.446Z</time>
      </trkpt>
      <trkpt lat="45.86626" lon="5.47569">
        <ele>937</ele>
        <time>2021-06-06T09:05:08.447Z</time>
      </trkpt>
      <trkpt lat="45.86629" lon="5.47553">
        <ele>937</ele>
        <time>2021-06-06T09:05:09.446Z</time>
      </trkpt>
      <trkpt lat="45.86633" lon="5.47539">
        <ele>936</ele>
        <time>2021-06-06T09:05:10.447Z</time>
      </trkpt>
      <trkpt lat="45.86637" lon="5.47526">
        <ele>936</ele>
        <time>2021-06-06T09:05:11.447Z</time>
      </trkpt>
      <trkpt lat="45.86638" lon="5.47517">
        <ele>936</ele>
        <time>2021-06-06T09:05:12.446Z</time>
      </trkpt>
      <trkpt lat="45.86638" lon="5.47507">
        <ele>936</ele>
        <time>2021-06-06T09:05:13.447Z</time>
      </trkpt>
      <trkpt lat="45.86637" lon="5.47501">
        <ele>935</ele>
        <time>2021-06-06T09:05:14.446Z</time>
      </trkpt>
      <trkpt lat="45.86633" lon="5.47496">
        <ele>935</ele>
        <time>2021-06-06T09:05:15.446Z</time>
      </trkpt>
      <trkpt lat="45.86628" lon="5.47493">
        <ele>935</ele>
        <time>2021-06-06T09:05:16.446Z</time>
      </trkpt>
      <trkpt lat="45.86623" lon="5.47492">
        <ele>934</ele>
        <time>2021-06-06T09:05:17.447Z</time>
      </trkpt>
      <trkpt lat="45.86617" lon="5.47494">
        <ele>934</ele>
        <time>2021-06-06T09:05:18.446Z</time>
      </trkpt>
      <trkpt lat="45.86612" lon="5.47499">
        <ele>934</ele>
        <time>2021-06-06T09:05:19.447Z</time>
      </trkpt>
      <trkpt lat="45.86608" lon="5.47506">
        <ele>933</ele>
        <time>2021-06-06T09:05:20.447Z</time>
      </trkpt>
      <trkpt lat="45.86603" lon="5.47514">
        <ele>933</ele>
        <time>2021-06-06T09:05:21.446Z</time>
      </trkpt>
      <trkpt lat="45.86598" lon="5.47524">
        <ele>933</ele>
        <time>2021-06-06T09:05:22.447Z</time>
      </trkpt>
      <trkpt lat="45.86593" lon="5.47534">
        <ele>932</ele>
        <time>2021-06-06T09:05:23.446Z</time>
      </trkpt>
      <trkpt lat="45.86587" lon="5.47544">
        <ele>932</ele>
        <time>2021-06-06T09:05:24.447Z</time>
      </trkpt>
      <trkpt lat="45.86582" lon="5.47553">
        <ele>932</ele>
        <time>2021-06-06T09:05:25.447Z</time>
      </trkpt>
      <trkpt lat="45.86575" lon="5.4756">
        <ele>932</ele>
        <time>2021-06-06T09:05:26.447Z</time>
      </trkpt>
      <trkpt lat="45.86567" lon="5.47563">
        <ele>932</ele>
        <time>2021-06-06T09:05:27.446Z</time>
      </trkpt>
      <trkpt lat="45.86559" lon="5.47562">
        <ele>932</ele>
        <time>2021-06-06T09:05:28.446Z</time>
      </trkpt>
      <trkpt lat="45.86552" lon="5.47559">
        <ele>932</ele>
        <time>2021-06-06T09:05:29.446Z</time>
      </trkpt>
      <trkpt lat="45.86547" lon="5.47552">
        <ele>932</ele>
        <time>2021-06-06T09:05:30.446Z</time>
      </trkpt>
      <trkpt lat="45.86546" lon="5.47544">
        <ele>932</ele>
        <time>2021-06-06T09:05:31.447Z</time>
      </trkpt>
      <trkpt lat="45.86549" lon="5.47535">
        <ele>932</ele>
        <time>2021-06-06T09:05:32.447Z</time>
      </trkpt>
      <trkpt lat="45.86553" lon="5.4753">
        <ele>932</ele>
        <time>2021-06-06T09:05:33.447Z</time>
      </trkpt>
      <trkpt lat="45.86558" lon="5.47526">
        <ele>931</ele>
        <time>2021-06-06T09:05:34.447Z</time>
      </trkpt>
      <trkpt lat="45.86565" lon="5.47521">
        <ele>931</ele>
        <time>2021-06-06T09:05:35.447Z</time>
      </trkpt>
      <trkpt lat="45.86571" lon="5.47517">
        <ele>931</ele>
        <time>2021-06-06T09:05:36.446Z</time>
      </trkpt>
      <trkpt lat="45.86576" lon="5.4751">
        <ele>931</ele>
        <time>2021-06-06T09:05:37.447Z</time>
      </trkpt>
      <trkpt lat="45.8658" lon="5.47503">
        <ele>930</ele>
        <time>2021-06-06T09:05:38.446Z</time>
      </trkpt>
      <trkpt lat="45.86582" lon="5.47495">
        <ele>930</ele>
        <time>2021-06-06T09:05:39.447Z</time>
      </trkpt>
      <trkpt lat="45.86583" lon="5.47485">
        <ele>929</ele>
        <time>2021-06-06T09:05:40.447Z</time>
      </trkpt>
      <trkpt lat="45.86584" lon="5.47476">
        <ele>929</ele>
        <time>2021-06-06T09:05:41.447Z</time>
      </trkpt>
      <trkpt lat="45.86585" lon="5.47465">
        <ele>929</ele>
        <time>2021-06-06T09:05:42.447Z</time>
      </trkpt>
      <trkpt lat="45.86587" lon="5.47453">
        <ele>928</ele>
        <time>2021-06-06T09:05:43.447Z</time>
      </trkpt>
      <trkpt lat="45.86591" lon="5.47441">
        <ele>927</ele>
        <time>2021-06-06T09:05:44.447Z</time>
      </trkpt>
      <trkpt lat="45.86596" lon="5.4743">
        <ele>926</ele>
        <time>2021-06-06T09:05:45.447Z</time>
      </trkpt>
      <trkpt lat="45.86602" lon="5.47418">
        <ele>924</ele>
        <time>2021-06-06T09:05:46.447Z</time>
      </trkpt>
      <trkpt lat="45.86609" lon="5.47404">
        <ele>923</ele>
        <time>2021-06-06T09:05:47.447Z</time>
      </trkpt>
      <trkpt lat="45.86615" lon="5.47387">
        <ele>922</ele>
        <time>2021-06-06T09:05:48.447Z</time>
      </trkpt>
      <trkpt lat="45.86619" lon="5.47376">
        <ele>921</ele>
        <time>2021-06-06T09:05:49.447Z</time>
      </trkpt>
      <trkpt lat="45.86624" lon="5.47362">
        <ele>920</ele>
        <time>2021-06-06T09:05:50.447Z</time>
      </trkpt>
      <trkpt lat="45.86629" lon="5.47348">
        <ele>919</ele>
        <time>2021-06-06T09:05:51.447Z</time>
      </trkpt>
      <trkpt lat="45.86635" lon="5.47335">
        <ele>918</ele>
        <time>2021-06-06T09:05:52.447Z</time>
      </trkpt>
      <trkpt lat="45.86642" lon="5.47321">
        <ele>916</ele>
        <time>2021-06-06T09:05:53.447Z</time>
      </trkpt>
      <trkpt lat="45.8665" lon="5.47307">
        <ele>915</ele>
        <time>2021-06-06T09:05:54.447Z</time>
      </trkpt>
      <trkpt lat="45.86657" lon="5.47293">
        <ele>915</ele>
        <time>2021-06-06T09:05:55.447Z</time>
      </trkpt>
      <trkpt lat="45.86665" lon="5.47279">
        <ele>914</ele>
        <time>2021-06-06T09:05:56.447Z</time>
      </trkpt>
      <trkpt lat="45.86673" lon="5.47266">
        <ele>913</ele>
        <time>2021-06-06T09:05:57.447Z</time>
      </trkpt>
      <trkpt lat="45.86681" lon="5.47253">
        <ele>912</ele>
        <time>2021-06-06T09:05:58.447Z</time>
      </trkpt>
      <trkpt lat="45.8669" lon="5.47241">
        <ele>911</ele>
        <time>2021-06-06T09:05:59.447Z</time>
      </trkpt>
      <trkpt lat="45.86699" lon="5.47229">
        <ele>910</ele>
        <time>2021-06-06T09:06:00.446Z</time>
      </trkpt>
      <trkpt lat="45.86708" lon="5.47218">
        <ele>909</ele>
        <time>2021-06-06T09:06:01.446Z</time>
      </trkpt>
      <trkpt lat="45.86717" lon="5.47208">
        <ele>908</ele>
        <time>2021-06-06T09:06:02.447Z</time>
      </trkpt>
      <trkpt lat="45.86725" lon="5.47202">
        <ele>908</ele>
        <time>2021-06-06T09:06:03.447Z</time>
      </trkpt>
      <trkpt lat="45.86734" lon="5.47195">
        <ele>907</ele>
        <time>2021-06-06T09:06:04.447Z</time>
      </trkpt>
      <trkpt lat="45.86742" lon="5.47189">
        <ele>906</ele>
        <time>2021-06-06T09:06:05.447Z</time>
      </trkpt>
      <trkpt lat="45.8675" lon="5.47183">
        <ele>905</ele>
        <time>2021-06-06T09:06:06.446Z</time>
      </trkpt>
      <trkpt lat="45.86758" lon="5.47177">
        <ele>903</ele>
        <time>2021-06-06T09:06:07.447Z</time>
      </trkpt>
      <trkpt lat="45.86763" lon="5.47167">
        <ele>902</ele>
        <time>2021-06-06T09:06:08.447Z</time>
      </trkpt>
      <trkpt lat="45.86766" lon="5.47156">
        <ele>901</ele>
        <time>2021-06-06T09:06:09.447Z</time>
      </trkpt>
      <trkpt lat="45.86766" lon="5.47144">
        <ele>900</ele>
        <time>2021-06-06T09:06:10.447Z</time>
      </trkpt>
      <trkpt lat="45.86765" lon="5.47132">
        <ele>899</ele>
        <time>2021-06-06T09:06:11.447Z</time>
      </trkpt>
      <trkpt lat="45.86764" lon="5.4712">
        <ele>898</ele>
        <time>2021-06-06T09:06:12.446Z</time>
      </trkpt>
      <trkpt lat="45.86765" lon="5.47108">
        <ele>897</ele>
        <time>2021-06-06T09:06:13.447Z</time>
      </trkpt>
      <trkpt lat="45.86765" lon="5.47096">
        <ele>896</ele>
        <time>2021-06-06T09:06:14.447Z</time>
      </trkpt>
      <trkpt lat="45.86767" lon="5.47087">
        <ele>895</ele>
        <time>2021-06-06T09:06:15.447Z</time>
      </trkpt>
      <trkpt lat="45.86768" lon="5.47079">
        <ele>894</ele>
        <time>2021-06-06T09:06:16.447Z</time>
      </trkpt>
      <trkpt lat="45.86768" lon="5.47072">
        <ele>894</ele>
        <time>2021-06-06T09:06:17.447Z</time>
      </trkpt>
      <trkpt lat="45.86768" lon="5.47066">
        <ele>893</ele>
        <time>2021-06-06T09:06:18.446Z</time>
      </trkpt>
      <trkpt lat="45.86766" lon="5.47062">
        <ele>893</ele>
        <time>2021-06-06T09:06:19.447Z</time>
      </trkpt>
      <trkpt lat="45.86763" lon="5.47061">
        <ele>892</ele>
        <time>2021-06-06T09:06:20.446Z</time>
      </trkpt>
      <trkpt lat="45.8676" lon="5.47062">
        <ele>891</ele>
        <time>2021-06-06T09:06:21.446Z</time>
      </trkpt>
      <trkpt lat="45.86756" lon="5.47066">
        <ele>890</ele>
        <time>2021-06-06T09:06:22.447Z</time>
      </trkpt>
      <trkpt lat="45.86751" lon="5.47071">
        <ele>889</ele>
        <time>2021-06-06T09:06:23.447Z</time>
      </trkpt>
      <trkpt lat="45.86746" lon="5.47078">
        <ele>888</ele>
        <time>2021-06-06T09:06:24.446Z</time>
      </trkpt>
      <trkpt lat="45.8674" lon="5.47085">
        <ele>888</ele>
        <time>2021-06-06T09:06:25.447Z</time>
      </trkpt>
      <trkpt lat="45.86733" lon="5.47092">
        <ele>887</ele>
        <time>2021-06-06T09:06:26.447Z</time>
      </trkpt>
      <trkpt lat="45.86727" lon="5.47099">
        <ele>886</ele>
        <time>2021-06-06T09:06:27.447Z</time>
      </trkpt>
      <trkpt lat="45.86722" lon="5.47106">
        <ele>886</ele>
        <time>2021-06-06T09:06:28.447Z</time>
      </trkpt>
      <trkpt lat="45.86716" lon="5.47113">
        <ele>885</ele>
        <time>2021-06-06T09:06:29.446Z</time>
      </trkpt>
      <trkpt lat="45.86711" lon="5.4712">
        <ele>885</ele>
        <time>2021-06-06T09:06:30.446Z</time>
      </trkpt>
      <trkpt lat="45.86705" lon="5.47127">
        <ele>884</ele>
        <time>2021-06-06T09:06:31.447Z</time>
      </trkpt>
      <trkpt lat="45.86699" lon="5.47136">
        <ele>884</ele>
        <time>2021-06-06T09:06:32.446Z</time>
      </trkpt>
      <trkpt lat="45.86692" lon="5.47146">
        <ele>884</ele>
        <time>2021-06-06T09:06:33.447Z</time>
      </trkpt>
      <trkpt lat="45.86687" lon="5.47153">
        <ele>884</ele>
        <time>2021-06-06T09:06:34.447Z</time>
      </trkpt>
      <trkpt lat="45.86681" lon="5.47161">
        <ele>884</ele>
        <time>2021-06-06T09:06:35.446Z</time>
      </trkpt>
      <trkpt lat="45.86676" lon="5.47168">
        <ele>883</ele>
        <time>2021-06-06T09:06:36.447Z</time>
      </trkpt>
      <trkpt lat="45.8667" lon="5.47176">
        <ele>883</ele>
        <time>2021-06-06T09:06:37.447Z</time>
      </trkpt>
      <trkpt lat="45.86664" lon="5.47185">
        <ele>883</ele>
        <time>2021-06-06T09:06:38.447Z</time>
      </trkpt>
      <trkpt lat="45.86658" lon="5.47195">
        <ele>883</ele>
        <time>2021-06-06T09:06:39.447Z</time>
      </trkpt>
      <trkpt lat="45.86652" lon="5.47204">
        <ele>883</ele>
        <time>2021-06-06T09:06:40.447Z</time>
      </trkpt>
      <trkpt lat="45.86646" lon="5.47213">
        <ele>883</ele>
        <time>2021-06-06T09:06:41.447Z</time>
      </trkpt>
      <trkpt lat="45.86638" lon="5.47223">
        <ele>883</ele>
        <time>2021-06-06T09:06:42.447Z</time>
      </trkpt>
      <trkpt lat="45.86631" lon="5.47232">
        <ele>883</ele>
        <time>2021-06-06T09:06:43.447Z</time>
      </trkpt>
      <trkpt lat="45.86622" lon="5.4724">
        <ele>883</ele>
        <time>2021-06-06T09:06:44.447Z</time>
      </trkpt>
      <trkpt lat="45.86612" lon="5.47248">
        <ele>883</ele>
        <time>2021-06-06T09:06:45.447Z</time>
      </trkpt>
      <trkpt lat="45.86603" lon="5.47257">
        <ele>883</ele>
        <time>2021-06-06T09:06:46.447Z</time>
      </trkpt>
      <trkpt lat="45.86594" lon="5.47271">
        <ele>883</ele>
        <time>2021-06-06T09:06:47.447Z</time>
      </trkpt>
      <trkpt lat="45.86585" lon="5.47283">
        <ele>883</ele>
        <time>2021-06-06T09:06:48.447Z</time>
      </trkpt>
      <trkpt lat="45.86576" lon="5.47292">
        <ele>883</ele>
        <time>2021-06-06T09:06:49.447Z</time>
      </trkpt>
      <trkpt lat="45.86568" lon="5.47301">
        <ele>883</ele>
        <time>2021-06-06T09:06:50.446Z</time>
      </trkpt>
      <trkpt lat="45.86559" lon="5.47309">
        <ele>883</ele>
        <time>2021-06-06T09:06:51.446Z</time>
      </trkpt>
      <trkpt lat="45.86551" lon="5.47318">
        <ele>882</ele>
        <time>2021-06-06T09:06:52.447Z</time>
      </trkpt>
      <trkpt lat="45.86542" lon="5.47327">
        <ele>882</ele>
        <time>2021-06-06T09:06:53.446Z</time>
      </trkpt>
      <trkpt lat="45.86534" lon="5.47336">
        <ele>882</ele>
        <time>2021-06-06T09:06:54.447Z</time>
      </trkpt>
      <trkpt lat="45.86526" lon="5.47345">
        <ele>882</ele>
        <time>2021-06-06T09:06:55.447Z</time>
      </trkpt>
      <trkpt lat="45.86518" lon="5.47353">
        <ele>882</ele>
        <time>2021-06-06T09:06:56.447Z</time>
      </trkpt>
      <trkpt lat="45.86508" lon="5.47359">
        <ele>883</ele>
        <time>2021-06-06T09:06:57.447Z</time>
      </trkpt>
      <trkpt lat="45.86498" lon="5.47364">
        <ele>883</ele>
        <time>2021-06-06T09:06:58.446Z</time>
      </trkpt>
      <trkpt lat="45.86487" lon="5.47368">
        <ele>883</ele>
        <time>2021-06-06T09:06:59.447Z</time>
      </trkpt>
      <trkpt lat="45.86476" lon="5.4737">
        <ele>883</ele>
        <time>2021-06-06T09:07:00.446Z</time>
      </trkpt>
      <trkpt lat="45.86465" lon="5.47372">
        <ele>883</ele>
        <time>2021-06-06T09:07:01.447Z</time>
      </trkpt>
      <trkpt lat="45.86454" lon="5.47374">
        <ele>883</ele>
        <time>2021-06-06T09:07:02.447Z</time>
      </trkpt>
      <trkpt lat="45.8644" lon="5.47377">
        <ele>883</ele>
        <time>2021-06-06T09:07:03.447Z</time>
      </trkpt>
      <trkpt lat="45.8643" lon="5.47379">
        <ele>883</ele>
        <time>2021-06-06T09:07:04.447Z</time>
      </trkpt>
      <trkpt lat="45.86419" lon="5.47381">
        <ele>883</ele>
        <time>2021-06-06T09:07:05.447Z</time>
      </trkpt>
      <trkpt lat="45.86408" lon="5.47383">
        <ele>883</ele>
        <time>2021-06-06T09:07:06.447Z</time>
      </trkpt>
      <trkpt lat="45.86397" lon="5.47384">
        <ele>883</ele>
        <time>2021-06-06T09:07:07.447Z</time>
      </trkpt>
      <trkpt lat="45.86387" lon="5.47386">
        <ele>883</ele>
        <time>2021-06-06T09:07:08.447Z</time>
      </trkpt>
      <trkpt lat="45.86376" lon="5.47388">
        <ele>883</ele>
        <time>2021-06-06T09:07:09.447Z</time>
      </trkpt>
      <trkpt lat="45.86364" lon="5.47392">
        <ele>883</ele>
        <time>2021-06-06T09:07:10.446Z</time>
      </trkpt>
      <trkpt lat="45.86354" lon="5.47397">
        <ele>883</ele>
        <time>2021-06-06T09:07:11.447Z</time>
      </trkpt>
      <trkpt lat="45.86346" lon="5.47401">
        <ele>883</ele>
        <time>2021-06-06T09:07:12.447Z</time>
      </trkpt>
      <trkpt lat="45.86337" lon="5.47405">
        <ele>883</ele>
        <time>2021-06-06T09:07:13.447Z</time>
      </trkpt>
      <trkpt lat="45.86328" lon="5.47407">
        <ele>883</ele>
        <time>2021-06-06T09:07:14.446Z</time>
      </trkpt>
      <trkpt lat="45.8632" lon="5.47406">
        <ele>883</ele>
        <time>2021-06-06T09:07:15.447Z</time>
      </trkpt>
      <trkpt lat="45.86311" lon="5.47401">
        <ele>883</ele>
        <time>2021-06-06T09:07:16.447Z</time>
      </trkpt>
      <trkpt lat="45.86303" lon="5.47395">
        <ele>883</ele>
        <time>2021-06-06T09:07:17.447Z</time>
      </trkpt>
      <trkpt lat="45.86297" lon="5.47386">
        <ele>883</ele>
        <time>2021-06-06T09:07:18.447Z</time>
      </trkpt>
      <trkpt lat="45.8629" lon="5.47377">
        <ele>883</ele>
        <time>2021-06-06T09:07:19.447Z</time>
      </trkpt>
      <trkpt lat="45.86284" lon="5.47368">
        <ele>883</ele>
        <time>2021-06-06T09:07:20.446Z</time>
      </trkpt>
      <trkpt lat="45.86276" lon="5.47362">
        <ele>883</ele>
        <time>2021-06-06T09:07:21.447Z</time>
      </trkpt>
      <trkpt lat="45.86267" lon="5.47357">
        <ele>883</ele>
        <time>2021-06-06T09:07:22.446Z</time>
      </trkpt>
      <trkpt lat="45.86257" lon="5.47355">
        <ele>882</ele>
        <time>2021-06-06T09:07:23.446Z</time>
      </trkpt>
      <trkpt lat="45.86247" lon="5.47355">
        <ele>882</ele>
        <time>2021-06-06T09:07:24.447Z</time>
      </trkpt>
      <trkpt lat="45.86236" lon="5.47356">
        <ele>882</ele>
        <time>2021-06-06T09:07:25.447Z</time>
      </trkpt>
      <trkpt lat="45.86226" lon="5.47357">
        <ele>882</ele>
        <time>2021-06-06T09:07:26.447Z</time>
      </trkpt>
      <trkpt lat="45.86215" lon="5.47359">
        <ele>882</ele>
        <time>2021-06-06T09:07:27.447Z</time>
      </trkpt>
      <trkpt lat="45.86205" lon="5.4736">
        <ele>882</ele>
        <time>2021-06-06T09:07:28.447Z</time>
      </trkpt>
      <trkpt lat="45.86193" lon="5.47361">
        <ele>882</ele>
        <time>2021-06-06T09:07:29.446Z</time>
      </trkpt>
      <trkpt lat="45.86182" lon="5.47363">
        <ele>881</ele>
        <time>2021-06-06T09:07:30.447Z</time>
      </trkpt>
      <trkpt lat="45.86172" lon="5.47365">
        <ele>881</ele>
        <time>2021-06-06T09:07:31.446Z</time>
      </trkpt>
      <trkpt lat="45.86161" lon="5.47367">
        <ele>881</ele>
        <time>2021-06-06T09:07:32.447Z</time>
      </trkpt>
      <trkpt lat="45.86151" lon="5.47371">
        <ele>880</ele>
        <time>2021-06-06T09:07:33.447Z</time>
      </trkpt>
      <trkpt lat="45.86139" lon="5.47376">
        <ele>880</ele>
        <time>2021-06-06T09:07:34.446Z</time>
      </trkpt>
      <trkpt lat="45.86132" lon="5.47379">
        <ele>879</ele>
        <time>2021-06-06T09:07:35.447Z</time>
      </trkpt>
      <trkpt lat="45.86123" lon="5.47384">
        <ele>879</ele>
        <time>2021-06-06T09:07:36.447Z</time>
      </trkpt>
      <trkpt lat="45.86115" lon="5.47387">
        <ele>879</ele>
        <time>2021-06-06T09:07:37.446Z</time>
      </trkpt>
      <trkpt lat="45.86106" lon="5.47389">
        <ele>878</ele>
        <time>2021-06-06T09:07:38.447Z</time>
      </trkpt>
      <trkpt lat="45.86098" lon="5.47388">
        <ele>878</ele>
        <time>2021-06-06T09:07:39.447Z</time>
      </trkpt>
      <trkpt lat="45.8609" lon="5.47384">
        <ele>877</ele>
        <time>2021-06-06T09:07:40.447Z</time>
      </trkpt>
      <trkpt lat="45.86084" lon="5.47373">
        <ele>877</ele>
        <time>2021-06-06T09:07:41.446Z</time>
      </trkpt>
      <trkpt lat="45.86079" lon="5.47362">
        <ele>876</ele>
        <time>2021-06-06T09:07:42.447Z</time>
      </trkpt>
      <trkpt lat="45.86077" lon="5.4735">
        <ele>875</ele>
        <time>2021-06-06T09:07:43.447Z</time>
      </trkpt>
      <trkpt lat="45.86078" lon="5.47338">
        <ele>875</ele>
        <time>2021-06-06T09:07:44.446Z</time>
      </trkpt>
      <trkpt lat="45.8608" lon="5.47326">
        <ele>874</ele>
        <time>2021-06-06T09:07:45.447Z</time>
      </trkpt>
      <trkpt lat="45.86084" lon="5.47315">
        <ele>873</ele>
        <time>2021-06-06T09:07:46.447Z</time>
      </trkpt>
      <trkpt lat="45.86088" lon="5.47304">
        <ele>873</ele>
        <time>2021-06-06T09:07:47.446Z</time>
      </trkpt>
      <trkpt lat="45.86092" lon="5.47293">
        <ele>872</ele>
        <time>2021-06-06T09:07:48.447Z</time>
      </trkpt>
      <trkpt lat="45.86094" lon="5.47281">
        <ele>872</ele>
        <time>2021-06-06T09:07:49.446Z</time>
      </trkpt>
      <trkpt lat="45.86097" lon="5.47269">
        <ele>871</ele>
        <time>2021-06-06T09:07:50.447Z</time>
      </trkpt>
      <trkpt lat="45.86099" lon="5.47256">
        <ele>870</ele>
        <time>2021-06-06T09:07:51.447Z</time>
      </trkpt>
      <trkpt lat="45.861" lon="5.47244">
        <ele>869</ele>
        <time>2021-06-06T09:07:52.447Z</time>
      </trkpt>
      <trkpt lat="45.86099" lon="5.47232">
        <ele>869</ele>
        <time>2021-06-06T09:07:53.446Z</time>
      </trkpt>
      <trkpt lat="45.86098" lon="5.47219">
        <ele>868</ele>
        <time>2021-06-06T09:07:54.446Z</time>
      </trkpt>
      <trkpt lat="45.86097" lon="5.47206">
        <ele>867</ele>
        <time>2021-06-06T09:07:55.446Z</time>
      </trkpt>
      <trkpt lat="45.86096" lon="5.47192">
        <ele>866</ele>
        <time>2021-06-06T09:07:56.447Z</time>
      </trkpt>
      <trkpt lat="45.86094" lon="5.47177">
        <ele>864</ele>
        <time>2021-06-06T09:07:57.447Z</time>
      </trkpt>
      <trkpt lat="45.86092" lon="5.47162">
        <ele>863</ele>
        <time>2021-06-06T09:07:58.446Z</time>
      </trkpt>
      <trkpt lat="45.86089" lon="5.47147">
        <ele>862</ele>
        <time>2021-06-06T09:07:59.447Z</time>
      </trkpt>
      <trkpt lat="45.86085" lon="5.47132">
        <ele>861</ele>
        <time>2021-06-06T09:08:00.447Z</time>
      </trkpt>
      <trkpt lat="45.86082" lon="5.47118">
        <ele>860</ele>
        <time>2021-06-06T09:08:01.447Z</time>
      </trkpt>
      <trkpt lat="45.86077" lon="5.47104">
        <ele>858</ele>
        <time>2021-06-06T09:08:02.446Z</time>
      </trkpt>
      <trkpt lat="45.86072" lon="5.47091">
        <ele>857</ele>
        <time>2021-06-06T09:08:03.447Z</time>
      </trkpt>
      <trkpt lat="45.86066" lon="5.47079">
        <ele>856</ele>
        <time>2021-06-06T09:08:04.447Z</time>
      </trkpt>
      <trkpt lat="45.8606" lon="5.47067">
        <ele>854</ele>
        <time>2021-06-06T09:08:05.447Z</time>
      </trkpt>
      <trkpt lat="45.86055" lon="5.47055">
        <ele>853</ele>
        <time>2021-06-06T09:08:06.447Z</time>
      </trkpt>
      <trkpt lat="45.8605" lon="5.47043">
        <ele>851</ele>
        <time>2021-06-06T09:08:07.447Z</time>
      </trkpt>
      <trkpt lat="45.86045" lon="5.47031">
        <ele>850</ele>
        <time>2021-06-06T09:08:08.446Z</time>
      </trkpt>
      <trkpt lat="45.8604" lon="5.4702">
        <ele>848</ele>
        <time>2021-06-06T09:08:09.447Z</time>
      </trkpt>
      <trkpt lat="45.86036" lon="5.47009">
        <ele>846</ele>
        <time>2021-06-06T09:08:10.447Z</time>
      </trkpt>
      <trkpt lat="45.86031" lon="5.46999">
        <ele>844</ele>
        <time>2021-06-06T09:08:11.446Z</time>
      </trkpt>
      <trkpt lat="45.86025" lon="5.46989">
        <ele>842</ele>
        <time>2021-06-06T09:08:12.447Z</time>
      </trkpt>
      <trkpt lat="45.86018" lon="5.46982">
        <ele>840</ele>
        <time>2021-06-06T09:08:13.446Z</time>
      </trkpt>
      <trkpt lat="45.86011" lon="5.46978">
        <ele>839</ele>
        <time>2021-06-06T09:08:14.447Z</time>
      </trkpt>
      <trkpt lat="45.86002" lon="5.46974">
        <ele>837</ele>
        <time>2021-06-06T09:08:15.447Z</time>
      </trkpt>
      <trkpt lat="45.85993" lon="5.46972">
        <ele>835</ele>
        <time>2021-06-06T09:08:16.447Z</time>
      </trkpt>
      <trkpt lat="45.85984" lon="5.4697">
        <ele>833</ele>
        <time>2021-06-06T09:08:17.447Z</time>
      </trkpt>
      <trkpt lat="45.85975" lon="5.46969">
        <ele>831</ele>
        <time>2021-06-06T09:08:18.447Z</time>
      </trkpt>
      <trkpt lat="45.85964" lon="5.46967">
        <ele>830</ele>
        <time>2021-06-06T09:08:19.447Z</time>
      </trkpt>
      <trkpt lat="45.85955" lon="5.46966">
        <ele>828</ele>
        <time>2021-06-06T09:08:20.447Z</time>
      </trkpt>
      <trkpt lat="45.85944" lon="5.46966">
        <ele>827</ele>
        <time>2021-06-06T09:08:21.447Z</time>
      </trkpt>
      <trkpt lat="45.85934" lon="5.46967">
        <ele>825</ele>
        <time>2021-06-06T09:08:22.446Z</time>
      </trkpt>
      <trkpt lat="45.85923" lon="5.46968">
        <ele>823</ele>
        <time>2021-06-06T09:08:23.447Z</time>
      </trkpt>
      <trkpt lat="45.85911" lon="5.46968">
        <ele>822</ele>
        <time>2021-06-06T09:08:24.447Z</time>
      </trkpt>
      <trkpt lat="45.859" lon="5.46967">
        <ele>821</ele>
        <time>2021-06-06T09:08:25.446Z</time>
      </trkpt>
      <trkpt lat="45.8589" lon="5.46964">
        <ele>820</ele>
        <time>2021-06-06T09:08:26.447Z</time>
      </trkpt>
      <trkpt lat="45.85879" lon="5.46961">
        <ele>820</ele>
        <time>2021-06-06T09:08:27.447Z</time>
      </trkpt>
      <trkpt lat="45.85868" lon="5.46957">
        <ele>819</ele>
        <time>2021-06-06T09:08:28.447Z</time>
      </trkpt>
      <trkpt lat="45.85857" lon="5.46954">
        <ele>818</ele>
        <time>2021-06-06T09:08:29.447Z</time>
      </trkpt>
      <trkpt lat="45.85846" lon="5.46953">
        <ele>817</ele>
        <time>2021-06-06T09:08:30.446Z</time>
      </trkpt>
      <trkpt lat="45.85836" lon="5.46952">
        <ele>816</ele>
        <time>2021-06-06T09:08:31.447Z</time>
      </trkpt>
      <trkpt lat="45.85825" lon="5.46954">
        <ele>814</ele>
        <time>2021-06-06T09:08:32.446Z</time>
      </trkpt>
      <trkpt lat="45.85815" lon="5.46958">
        <ele>813</ele>
        <time>2021-06-06T09:08:33.446Z</time>
      </trkpt>
      <trkpt lat="45.85804" lon="5.46964">
        <ele>813</ele>
        <time>2021-06-06T09:08:34.447Z</time>
      </trkpt>
      <trkpt lat="45.85795" lon="5.46973">
        <ele>812</ele>
        <time>2021-06-06T09:08:35.447Z</time>
      </trkpt>
      <trkpt lat="45.85785" lon="5.46981">
        <ele>811</ele>
        <time>2021-06-06T09:08:36.447Z</time>
      </trkpt>
      <trkpt lat="45.85776" lon="5.46991">
        <ele>811</ele>
        <time>2021-06-06T09:08:37.447Z</time>
      </trkpt>
      <trkpt lat="45.85767" lon="5.47">
        <ele>810</ele>
        <time>2021-06-06T09:08:38.447Z</time>
      </trkpt>
      <trkpt lat="45.85757" lon="5.47008">
        <ele>809</ele>
        <time>2021-06-06T09:08:39.447Z</time>
      </trkpt>
      <trkpt lat="45.85747" lon="5.47016">
        <ele>809</ele>
        <time>2021-06-06T09:08:40.447Z</time>
      </trkpt>
      <trkpt lat="45.85736" lon="5.47021">
        <ele>808</ele>
        <time>2021-06-06T09:08:41.447Z</time>
      </trkpt>
      <trkpt lat="45.85724" lon="5.47024">
        <ele>808</ele>
        <time>2021-06-06T09:08:42.447Z</time>
      </trkpt>
      <trkpt lat="45.85713" lon="5.47026">
        <ele>808</ele>
        <time>2021-06-06T09:08:43.447Z</time>
      </trkpt>
      <trkpt lat="45.85702" lon="5.47025">
        <ele>807</ele>
        <time>2021-06-06T09:08:44.447Z</time>
      </trkpt>
      <trkpt lat="45.85692" lon="5.47022">
        <ele>807</ele>
        <time>2021-06-06T09:08:45.447Z</time>
      </trkpt>
      <trkpt lat="45.85681" lon="5.47018">
        <ele>806</ele>
        <time>2021-06-06T09:08:46.447Z</time>
      </trkpt>
      <trkpt lat="45.85671" lon="5.47013">
        <ele>805</ele>
        <time>2021-06-06T09:08:47.447Z</time>
      </trkpt>
      <trkpt lat="45.85661" lon="5.47007">
        <ele>804</ele>
        <time>2021-06-06T09:08:48.447Z</time>
      </trkpt>
      <trkpt lat="45.8565" lon="5.47002">
        <ele>803</ele>
        <time>2021-06-06T09:08:49.447Z</time>
      </trkpt>
      <trkpt lat="45.8564" lon="5.46998">
        <ele>802</ele>
        <time>2021-06-06T09:08:50.447Z</time>
      </trkpt>
      <trkpt lat="45.8563" lon="5.46995">
        <ele>801</ele>
        <time>2021-06-06T09:08:51.446Z</time>
      </trkpt>
      <trkpt lat="45.85619" lon="5.46994">
        <ele>800</ele>
        <time>2021-06-06T09:08:52.447Z</time>
      </trkpt>
      <trkpt lat="45.85608" lon="5.46995">
        <ele>799</ele>
        <time>2021-06-06T09:08:53.447Z</time>
      </trkpt>
      <trkpt lat="45.85598" lon="5.46997">
        <ele>799</ele>
        <time>2021-06-06T09:08:54.447Z</time>
      </trkpt>
      <trkpt lat="45.85587" lon="5.47">
        <ele>798</ele>
        <time>2021-06-06T09:08:55.446Z</time>
      </trkpt>
      <trkpt lat="45.85578" lon="5.47004">
        <ele>798</ele>
        <time>2021-06-06T09:08:56.447Z</time>
      </trkpt>
      <trkpt lat="45.85568" lon="5.4701">
        <ele>797</ele>
        <time>2021-06-06T09:08:57.446Z</time>
      </trkpt>
      <trkpt lat="45.8556" lon="5.47018">
        <ele>797</ele>
        <time>2021-06-06T09:08:58.447Z</time>
      </trkpt>
      <trkpt lat="45.85551" lon="5.47025">
        <ele>796</ele>
        <time>2021-06-06T09:08:59.447Z</time>
      </trkpt>
      <trkpt lat="45.85542" lon="5.47031">
        <ele>795</ele>
        <time>2021-06-06T09:09:00.447Z</time>
      </trkpt>
      <trkpt lat="45.85532" lon="5.47034">
        <ele>794</ele>
        <time>2021-06-06T09:09:01.447Z</time>
      </trkpt>
      <trkpt lat="45.85523" lon="5.47035">
        <ele>793</ele>
        <time>2021-06-06T09:09:02.447Z</time>
      </trkpt>
      <trkpt lat="45.85513" lon="5.47037">
        <ele>792</ele>
        <time>2021-06-06T09:09:03.447Z</time>
      </trkpt>
      <trkpt lat="45.85504" lon="5.47038">
        <ele>791</ele>
        <time>2021-06-06T09:09:04.446Z</time>
      </trkpt>
      <trkpt lat="45.85496" lon="5.47041">
        <ele>791</ele>
        <time>2021-06-06T09:09:05.447Z</time>
      </trkpt>
      <trkpt lat="45.85488" lon="5.47044">
        <ele>790</ele>
        <time>2021-06-06T09:09:06.447Z</time>
      </trkpt>
      <trkpt lat="45.85482" lon="5.47049">
        <ele>790</ele>
        <time>2021-06-06T09:09:07.446Z</time>
      </trkpt>
      <trkpt lat="45.85477" lon="5.47055">
        <ele>790</ele>
        <time>2021-06-06T09:09:08.447Z</time>
      </trkpt>
      <trkpt lat="45.85473" lon="5.47063">
        <ele>790</ele>
        <time>2021-06-06T09:09:09.447Z</time>
      </trkpt>
      <trkpt lat="45.8547" lon="5.47073">
        <ele>790</ele>
        <time>2021-06-06T09:09:10.446Z</time>
      </trkpt>
      <trkpt lat="45.85468" lon="5.47083">
        <ele>789</ele>
        <time>2021-06-06T09:09:11.447Z</time>
      </trkpt>
      <trkpt lat="45.85465" lon="5.47091">
        <ele>789</ele>
        <time>2021-06-06T09:09:12.447Z</time>
      </trkpt>
      <trkpt lat="45.8546" lon="5.47097">
        <ele>789</ele>
        <time>2021-06-06T09:09:13.446Z</time>
      </trkpt>
      <trkpt lat="45.85455" lon="5.47099">
        <ele>788</ele>
        <time>2021-06-06T09:09:14.447Z</time>
      </trkpt>
      <trkpt lat="45.85449" lon="5.47098">
        <ele>788</ele>
        <time>2021-06-06T09:09:15.446Z</time>
      </trkpt>
      <trkpt lat="45.85443" lon="5.47095">
        <ele>789</ele>
        <time>2021-06-06T09:09:16.446Z</time>
      </trkpt>
      <trkpt lat="45.85437" lon="5.4709">
        <ele>789</ele>
        <time>2021-06-06T09:09:17.447Z</time>
      </trkpt>
      <trkpt lat="45.85431" lon="5.47083">
        <ele>789</ele>
        <time>2021-06-06T09:09:18.446Z</time>
      </trkpt>
      <trkpt lat="45.85425" lon="5.47078">
        <ele>790</ele>
        <time>2021-06-06T09:09:19.446Z</time>
      </trkpt>
      <trkpt lat="45.85418" lon="5.47074">
        <ele>790</ele>
        <time>2021-06-06T09:09:20.447Z</time>
      </trkpt>
      <trkpt lat="45.85411" lon="5.47072">
        <ele>791</ele>
        <time>2021-06-06T09:09:21.447Z</time>
      </trkpt>
      <trkpt lat="45.85403" lon="5.47072">
        <ele>791</ele>
        <time>2021-06-06T09:09:22.447Z</time>
      </trkpt>
      <trkpt lat="45.85396" lon="5.47073">
        <ele>791</ele>
        <time>2021-06-06T09:09:23.447Z</time>
      </trkpt>
      <trkpt lat="45.85389" lon="5.47074">
        <ele>791</ele>
        <time>2021-06-06T09:09:24.446Z</time>
      </trkpt>
      <trkpt lat="45.85381" lon="5.47075">
        <ele>791</ele>
        <time>2021-06-06T09:09:25.447Z</time>
      </trkpt>
      <trkpt lat="45.85373" lon="5.47078">
        <ele>791</ele>
        <time>2021-06-06T09:09:26.447Z</time>
      </trkpt>
      <trkpt lat="45.85364" lon="5.47081">
        <ele>790</ele>
        <time>2021-06-06T09:09:27.447Z</time>
      </trkpt>
      <trkpt lat="45.85355" lon="5.47086">
        <ele>791</ele>
        <time>2021-06-06T09:09:28.447Z</time>
      </trkpt>
      <trkpt lat="45.85346" lon="5.47091">
        <ele>791</ele>
        <time>2021-06-06T09:09:29.447Z</time>
      </trkpt>
      <trkpt lat="45.85337" lon="5.47096">
        <ele>791</ele>
        <time>2021-06-06T09:09:30.447Z</time>
      </trkpt>
      <trkpt lat="45.85328" lon="5.47101">
        <ele>791</ele>
        <time>2021-06-06T09:09:31.446Z</time>
      </trkpt>
      <trkpt lat="45.85319" lon="5.47107">
        <ele>791</ele>
        <time>2021-06-06T09:09:32.447Z</time>
      </trkpt>
      <trkpt lat="45.85311" lon="5.47113">
        <ele>791</ele>
        <time>2021-06-06T09:09:33.446Z</time>
      </trkpt>
      <trkpt lat="45.85304" lon="5.47121">
        <ele>791</ele>
        <time>2021-06-06T09:09:34.446Z</time>
      </trkpt>
      <trkpt lat="45.85296" lon="5.4713">
        <ele>790</ele>
        <time>2021-06-06T09:09:35.447Z</time>
      </trkpt>
      <trkpt lat="45.85289" lon="5.47138">
        <ele>790</ele>
        <time>2021-06-06T09:09:36.447Z</time>
      </trkpt>
      <trkpt lat="45.8528" lon="5.47144">
        <ele>790</ele>
        <time>2021-06-06T09:09:37.447Z</time>
      </trkpt>
      <trkpt lat="45.8527" lon="5.47148">
        <ele>790</ele>
        <time>2021-06-06T09:09:38.447Z</time>
      </trkpt>
      <trkpt lat="45.85261" lon="5.47149">
        <ele>790</ele>
        <time>2021-06-06T09:09:39.447Z</time>
      </trkpt>
      <trkpt lat="45.8525" lon="5.47149">
        <ele>790</ele>
        <time>2021-06-06T09:09:40.446Z</time>
      </trkpt>
      <trkpt lat="45.85241" lon="5.47149">
        <ele>790</ele>
        <time>2021-06-06T09:09:41.446Z</time>
      </trkpt>
      <trkpt lat="45.85231" lon="5.47151">
        <ele>790</ele>
        <time>2021-06-06T09:09:42.447Z</time>
      </trkpt>
      <trkpt lat="45.8522" lon="5.47154">
        <ele>790</ele>
        <time>2021-06-06T09:09:43.447Z</time>
      </trkpt>
      <trkpt lat="45.85208" lon="5.47156">
        <ele>790</ele>
        <time>2021-06-06T09:09:44.446Z</time>
      </trkpt>
      <trkpt lat="45.85198" lon="5.47157">
        <ele>789</ele>
        <time>2021-06-06T09:09:45.446Z</time>
      </trkpt>
      <trkpt lat="45.85189" lon="5.47158">
        <ele>789</ele>
        <time>2021-06-06T09:09:46.446Z</time>
      </trkpt>
      <trkpt lat="45.85176" lon="5.47159">
        <ele>789</ele>
        <time>2021-06-06T09:09:47.446Z</time>
      </trkpt>
      <trkpt lat="45.85168" lon="5.4716">
        <ele>789</ele>
        <time>2021-06-06T09:09:48.447Z</time>
      </trkpt>
      <trkpt lat="45.85158" lon="5.47163">
        <ele>789</ele>
        <time>2021-06-06T09:09:49.446Z</time>
      </trkpt>
      <trkpt lat="45.85148" lon="5.47167">
        <ele>788</ele>
        <time>2021-06-06T09:09:50.446Z</time>
      </trkpt>
      <trkpt lat="45.85137" lon="5.47172">
        <ele>788</ele>
        <time>2021-06-06T09:09:51.446Z</time>
      </trkpt>
      <trkpt lat="45.85126" lon="5.47177">
        <ele>788</ele>
        <time>2021-06-06T09:09:52.447Z</time>
      </trkpt>
      <trkpt lat="45.85113" lon="5.47183">
        <ele>788</ele>
        <time>2021-06-06T09:09:53.447Z</time>
      </trkpt>
      <trkpt lat="45.85104" lon="5.47186">
        <ele>788</ele>
        <time>2021-06-06T09:09:54.447Z</time>
      </trkpt>
      <trkpt lat="45.85091" lon="5.47191">
        <ele>788</ele>
        <time>2021-06-06T09:09:55.447Z</time>
      </trkpt>
      <trkpt lat="45.8508" lon="5.47196">
        <ele>787</ele>
        <time>2021-06-06T09:09:56.447Z</time>
      </trkpt>
      <trkpt lat="45.85069" lon="5.47202">
        <ele>787</ele>
        <time>2021-06-06T09:09:57.447Z</time>
      </trkpt>
      <trkpt lat="45.85061" lon="5.47209">
        <ele>787</ele>
        <time>2021-06-06T09:09:58.447Z</time>
      </trkpt>
      <trkpt lat="45.85048" lon="5.4722">
        <ele>787</ele>
        <time>2021-06-06T09:09:59.447Z</time>
      </trkpt>
      <trkpt lat="45.85039" lon="5.47227">
        <ele>788</ele>
        <time>2021-06-06T09:10:00.447Z</time>
      </trkpt>
      <trkpt lat="45.85027" lon="5.47235">
        <ele>788</ele>
        <time>2021-06-06T09:10:01.447Z</time>
      </trkpt>
      <trkpt lat="45.85017" lon="5.47241">
        <ele>788</ele>
        <time>2021-06-06T09:10:02.447Z</time>
      </trkpt>
      <trkpt lat="45.85008" lon="5.4725">
        <ele>788</ele>
        <time>2021-06-06T09:10:03.446Z</time>
      </trkpt>
      <trkpt lat="45.85" lon="5.47259">
        <ele>788</ele>
        <time>2021-06-06T09:10:04.447Z</time>
      </trkpt>
      <trkpt lat="45.8499" lon="5.4727">
        <ele>789</ele>
        <time>2021-06-06T09:10:05.447Z</time>
      </trkpt>
      <trkpt lat="45.84982" lon="5.47277">
        <ele>789</ele>
        <time>2021-06-06T09:10:06.447Z</time>
      </trkpt>
      <trkpt lat="45.84973" lon="5.47282">
        <ele>790</ele>
        <time>2021-06-06T09:10:07.446Z</time>
      </trkpt>
      <trkpt lat="45.84963" lon="5.47286">
        <ele>790</ele>
        <time>2021-06-06T09:10:08.447Z</time>
      </trkpt>
      <trkpt lat="45.84951" lon="5.47289">
        <ele>790</ele>
        <time>2021-06-06T09:10:09.447Z</time>
      </trkpt>
      <trkpt lat="45.84943" lon="5.47292">
        <ele>790</ele>
        <time>2021-06-06T09:10:10.446Z</time>
      </trkpt>
      <trkpt lat="45.84932" lon="5.47296">
        <ele>791</ele>
        <time>2021-06-06T09:10:11.447Z</time>
      </trkpt>
      <trkpt lat="45.84924" lon="5.47298">
        <ele>791</ele>
        <time>2021-06-06T09:10:12.447Z</time>
      </trkpt>
      <trkpt lat="45.84914" lon="5.47301">
        <ele>791</ele>
        <time>2021-06-06T09:10:13.447Z</time>
      </trkpt>
      <trkpt lat="45.84904" lon="5.47304">
        <ele>791</ele>
        <time>2021-06-06T09:10:14.446Z</time>
      </trkpt>
      <trkpt lat="45.84893" lon="5.47309">
        <ele>791</ele>
        <time>2021-06-06T09:10:15.447Z</time>
      </trkpt>
      <trkpt lat="45.84884" lon="5.47318">
        <ele>790</ele>
        <time>2021-06-06T09:10:16.446Z</time>
      </trkpt>
      <trkpt lat="45.84876" lon="5.47324">
        <ele>790</ele>
        <time>2021-06-06T09:10:17.447Z</time>
      </trkpt>
      <trkpt lat="45.84867" lon="5.4733">
        <ele>790</ele>
        <time>2021-06-06T09:10:18.446Z</time>
      </trkpt>
      <trkpt lat="45.84859" lon="5.47338">
        <ele>790</ele>
        <time>2021-06-06T09:10:19.447Z</time>
      </trkpt>
      <trkpt lat="45.84853" lon="5.47348">
        <ele>790</ele>
        <time>2021-06-06T09:10:20.447Z</time>
      </trkpt>
      <trkpt lat="45.84848" lon="5.47361">
        <ele>790</ele>
        <time>2021-06-06T09:10:21.447Z</time>
      </trkpt>
      <trkpt lat="45.84844" lon="5.47372">
        <ele>790</ele>
        <time>2021-06-06T09:10:22.447Z</time>
      </trkpt>
      <trkpt lat="45.84838" lon="5.47386">
        <ele>790</ele>
        <time>2021-06-06T09:10:23.446Z</time>
      </trkpt>
      <trkpt lat="45.84832" lon="5.47398">
        <ele>790</ele>
        <time>2021-06-06T09:10:24.446Z</time>
      </trkpt>
      <trkpt lat="45.84824" lon="5.47405">
        <ele>789</ele>
        <time>2021-06-06T09:10:25.447Z</time>
      </trkpt>
      <trkpt lat="45.84816" lon="5.47409">
        <ele>789</ele>
        <time>2021-06-06T09:10:26.447Z</time>
      </trkpt>
      <trkpt lat="45.84807" lon="5.47413">
        <ele>789</ele>
        <time>2021-06-06T09:10:27.447Z</time>
      </trkpt>
      <trkpt lat="45.84799" lon="5.47416">
        <ele>789</ele>
        <time>2021-06-06T09:10:28.447Z</time>
      </trkpt>
      <trkpt lat="45.84791" lon="5.47419">
        <ele>789</ele>
        <time>2021-06-06T09:10:29.446Z</time>
      </trkpt>
      <trkpt lat="45.84783" lon="5.47424">
        <ele>789</ele>
        <time>2021-06-06T09:10:30.447Z</time>
      </trkpt>
      <trkpt lat="45.84777" lon="5.4743">
        <ele>789</ele>
        <time>2021-06-06T09:10:31.447Z</time>
      </trkpt>
      <trkpt lat="45.84771" lon="5.47437">
        <ele>789</ele>
        <time>2021-06-06T09:10:32.447Z</time>
      </trkpt>
      <trkpt lat="45.84766" lon="5.47445">
        <ele>788</ele>
        <time>2021-06-06T09:10:33.447Z</time>
      </trkpt>
      <trkpt lat="45.84763" lon="5.47454">
        <ele>788</ele>
        <time>2021-06-06T09:10:34.446Z</time>
      </trkpt>
      <trkpt lat="45.84761" lon="5.47463">
        <ele>788</ele>
        <time>2021-06-06T09:10:35.447Z</time>
      </trkpt>
      <trkpt lat="45.84758" lon="5.47472">
        <ele>788</ele>
        <time>2021-06-06T09:10:36.446Z</time>
      </trkpt>
      <trkpt lat="45.84754" lon="5.47479">
        <ele>788</ele>
        <time>2021-06-06T09:10:37.447Z</time>
      </trkpt>
      <trkpt lat="45.84748" lon="5.47485">
        <ele>788</ele>
        <time>2021-06-06T09:10:38.447Z</time>
      </trkpt>
      <trkpt lat="45.84742" lon="5.47491">
        <ele>788</ele>
        <time>2021-06-06T09:10:39.447Z</time>
      </trkpt>
      <trkpt lat="45.84735" lon="5.47494">
        <ele>787</ele>
        <time>2021-06-06T09:10:40.446Z</time>
      </trkpt>
      <trkpt lat="45.84728" lon="5.47496">
        <ele>787</ele>
        <time>2021-06-06T09:10:41.447Z</time>
      </trkpt>
      <trkpt lat="45.8472" lon="5.47498">
        <ele>787</ele>
        <time>2021-06-06T09:10:42.446Z</time>
      </trkpt>
      <trkpt lat="45.84711" lon="5.47501">
        <ele>786</ele>
        <time>2021-06-06T09:10:43.447Z</time>
      </trkpt>
      <trkpt lat="45.84702" lon="5.47504">
        <ele>786</ele>
        <time>2021-06-06T09:10:44.447Z</time>
      </trkpt>
      <trkpt lat="45.84695" lon="5.47507">
        <ele>786</ele>
        <time>2021-06-06T09:10:45.447Z</time>
      </trkpt>
      <trkpt lat="45.84687" lon="5.4751">
        <ele>785</ele>
        <time>2021-06-06T09:10:46.447Z</time>
      </trkpt>
      <trkpt lat="45.84679" lon="5.47515">
        <ele>785</ele>
        <time>2021-06-06T09:10:47.447Z</time>
      </trkpt>
      <trkpt lat="45.8467" lon="5.47519">
        <ele>785</ele>
        <time>2021-06-06T09:10:48.447Z</time>
      </trkpt>
      <trkpt lat="45.84662" lon="5.47526">
        <ele>784</ele>
        <time>2021-06-06T09:10:49.447Z</time>
      </trkpt>
      <trkpt lat="45.84652" lon="5.4753">
        <ele>784</ele>
        <time>2021-06-06T09:10:50.447Z</time>
      </trkpt>
      <trkpt lat="45.84643" lon="5.47535">
        <ele>783</ele>
        <time>2021-06-06T09:10:51.447Z</time>
      </trkpt>
      <trkpt lat="45.84634" lon="5.4754">
        <ele>782</ele>
        <time>2021-06-06T09:10:52.446Z</time>
      </trkpt>
      <trkpt lat="45.84626" lon="5.47545">
        <ele>782</ele>
        <time>2021-06-06T09:10:53.446Z</time>
      </trkpt>
      <trkpt lat="45.84619" lon="5.47551">
        <ele>781</ele>
        <time>2021-06-06T09:10:54.447Z</time>
      </trkpt>
      <trkpt lat="45.84613" lon="5.47558">
        <ele>781</ele>
        <time>2021-06-06T09:10:55.447Z</time>
      </trkpt>
      <trkpt lat="45.84608" lon="5.47568">
        <ele>781</ele>
        <time>2021-06-06T09:10:56.447Z</time>
      </trkpt>
      <trkpt lat="45.84603" lon="5.47576">
        <ele>780</ele>
        <time>2021-06-06T09:10:57.447Z</time>
      </trkpt>
      <trkpt lat="45.84599" lon="5.47584">
        <ele>780</ele>
        <time>2021-06-06T09:10:58.447Z</time>
      </trkpt>
      <trkpt lat="45.84592" lon="5.4759">
        <ele>779</ele>
        <time>2021-06-06T09:10:59.446Z</time>
      </trkpt>
      <trkpt lat="45.84586" lon="5.47593">
        <ele>779</ele>
        <time>2021-06-06T09:11:00.447Z</time>
      </trkpt>
      <trkpt lat="45.84578" lon="5.47594">
        <ele>778</ele>
        <time>2021-06-06T09:11:01.447Z</time>
      </trkpt>
      <trkpt lat="45.84571" lon="5.47595">
        <ele>778</ele>
        <time>2021-06-06T09:11:02.447Z</time>
      </trkpt>
      <trkpt lat="45.84562" lon="5.47595">
        <ele>777</ele>
        <time>2021-06-06T09:11:03.447Z</time>
      </trkpt>
      <trkpt lat="45.84553" lon="5.47595">
        <ele>777</ele>
        <time>2021-06-06T09:11:04.447Z</time>
      </trkpt>
      <trkpt lat="45.84546" lon="5.47596">
        <ele>776</ele>
        <time>2021-06-06T09:11:05.447Z</time>
      </trkpt>
      <trkpt lat="45.84539" lon="5.47598">
        <ele>776</ele>
        <time>2021-06-06T09:11:06.447Z</time>
      </trkpt>
      <trkpt lat="45.84533" lon="5.47602">
        <ele>776</ele>
        <time>2021-06-06T09:11:07.447Z</time>
      </trkpt>
      <trkpt lat="45.84528" lon="5.47608">
        <ele>775</ele>
        <time>2021-06-06T09:11:08.447Z</time>
      </trkpt>
      <trkpt lat="45.84524" lon="5.47617">
        <ele>775</ele>
        <time>2021-06-06T09:11:09.446Z</time>
      </trkpt>
      <trkpt lat="45.84519" lon="5.47629">
        <ele>774</ele>
        <time>2021-06-06T09:11:10.447Z</time>
      </trkpt>
      <trkpt lat="45.84514" lon="5.47639">
        <ele>774</ele>
        <time>2021-06-06T09:11:11.446Z</time>
      </trkpt>
      <trkpt lat="45.84508" lon="5.47647">
        <ele>773</ele>
        <time>2021-06-06T09:11:12.447Z</time>
      </trkpt>
      <trkpt lat="45.845" lon="5.47655">
        <ele>772</ele>
        <time>2021-06-06T09:11:13.447Z</time>
      </trkpt>
      <trkpt lat="45.84491" lon="5.47659">
        <ele>772</ele>
        <time>2021-06-06T09:11:14.447Z</time>
      </trkpt>
      <trkpt lat="45.84482" lon="5.47663">
        <ele>771</ele>
        <time>2021-06-06T09:11:15.446Z</time>
      </trkpt>
      <trkpt lat="45.84472" lon="5.47665">
        <ele>771</ele>
        <time>2021-06-06T09:11:16.447Z</time>
      </trkpt>
      <trkpt lat="45.84463" lon="5.47667">
        <ele>770</ele>
        <time>2021-06-06T09:11:17.447Z</time>
      </trkpt>
      <trkpt lat="45.84454" lon="5.47668">
        <ele>769</ele>
        <time>2021-06-06T09:11:18.447Z</time>
      </trkpt>
      <trkpt lat="45.84444" lon="5.47669">
        <ele>769</ele>
        <time>2021-06-06T09:11:19.447Z</time>
      </trkpt>
      <trkpt lat="45.84435" lon="5.47671">
        <ele>768</ele>
        <time>2021-06-06T09:11:20.447Z</time>
      </trkpt>
      <trkpt lat="45.84425" lon="5.47674">
        <ele>767</ele>
        <time>2021-06-06T09:11:21.446Z</time>
      </trkpt>
      <trkpt lat="45.84415" lon="5.47675">
        <ele>767</ele>
        <time>2021-06-06T09:11:22.447Z</time>
      </trkpt>
      <trkpt lat="45.84405" lon="5.47678">
        <ele>766</ele>
        <time>2021-06-06T09:11:23.447Z</time>
      </trkpt>
      <trkpt lat="45.84393" lon="5.47683">
        <ele>765</ele>
        <time>2021-06-06T09:11:24.446Z</time>
      </trkpt>
      <trkpt lat="45.84382" lon="5.47687">
        <ele>764</ele>
        <time>2021-06-06T09:11:25.447Z</time>
      </trkpt>
      <trkpt lat="45.8437" lon="5.47691">
        <ele>763</ele>
        <time>2021-06-06T09:11:26.446Z</time>
      </trkpt>
      <trkpt lat="45.84358" lon="5.47694">
        <ele>762</ele>
        <time>2021-06-06T09:11:27.446Z</time>
      </trkpt>
      <trkpt lat="45.84346" lon="5.47697">
        <ele>761</ele>
        <time>2021-06-06T09:11:28.447Z</time>
      </trkpt>
      <trkpt lat="45.84335" lon="5.47701">
        <ele>760</ele>
        <time>2021-06-06T09:11:29.447Z</time>
      </trkpt>
      <trkpt lat="45.84323" lon="5.47704">
        <ele>759</ele>
        <time>2021-06-06T09:11:30.447Z</time>
      </trkpt>
      <trkpt lat="45.84312" lon="5.47708">
        <ele>758</ele>
        <time>2021-06-06T09:11:31.447Z</time>
      </trkpt>
      <trkpt lat="45.84301" lon="5.47712">
        <ele>757</ele>
        <time>2021-06-06T09:11:32.447Z</time>
      </trkpt>
      <trkpt lat="45.8429" lon="5.47717">
        <ele>756</ele>
        <time>2021-06-06T09:11:33.447Z</time>
      </trkpt>
      <trkpt lat="45.84279" lon="5.47721">
        <ele>754</ele>
        <time>2021-06-06T09:11:34.447Z</time>
      </trkpt>
      <trkpt lat="45.84268" lon="5.47726">
        <ele>753</ele>
        <time>2021-06-06T09:11:35.447Z</time>
      </trkpt>
      <trkpt lat="45.84256" lon="5.4773">
        <ele>752</ele>
        <time>2021-06-06T09:11:36.447Z</time>
      </trkpt>
      <trkpt lat="45.84245" lon="5.47734">
        <ele>751</ele>
        <time>2021-06-06T09:11:37.447Z</time>
      </trkpt>
      <trkpt lat="45.84233" lon="5.47738">
        <ele>750</ele>
        <time>2021-06-06T09:11:38.447Z</time>
      </trkpt>
      <trkpt lat="45.84221" lon="5.47742">
        <ele>749</ele>
        <time>2021-06-06T09:11:39.446Z</time>
      </trkpt>
      <trkpt lat="45.84209" lon="5.47745">
        <ele>747</ele>
        <time>2021-06-06T09:11:40.446Z</time>
      </trkpt>
      <trkpt lat="45.84197" lon="5.47749">
        <ele>746</ele>
        <time>2021-06-06T09:11:41.446Z</time>
      </trkpt>
      <trkpt lat="45.84185" lon="5.47754">
        <ele>745</ele>
        <time>2021-06-06T09:11:42.447Z</time>
      </trkpt>
      <trkpt lat="45.84173" lon="5.47759">
        <ele>744</ele>
        <time>2021-06-06T09:11:43.447Z</time>
      </trkpt>
      <trkpt lat="45.84161" lon="5.47764">
        <ele>742</ele>
        <time>2021-06-06T09:11:44.447Z</time>
      </trkpt>
      <trkpt lat="45.84149" lon="5.4777">
        <ele>741</ele>
        <time>2021-06-06T09:11:45.446Z</time>
      </trkpt>
      <trkpt lat="45.84137" lon="5.47777">
        <ele>739</ele>
        <time>2021-06-06T09:11:46.447Z</time>
      </trkpt>
      <trkpt lat="45.84124" lon="5.47783">
        <ele>738</ele>
        <time>2021-06-06T09:11:47.447Z</time>
      </trkpt>
      <trkpt lat="45.84112" lon="5.47789">
        <ele>736</ele>
        <time>2021-06-06T09:11:48.447Z</time>
      </trkpt>
      <trkpt lat="45.841" lon="5.47795">
        <ele>735</ele>
        <time>2021-06-06T09:11:49.446Z</time>
      </trkpt>
      <trkpt lat="45.84088" lon="5.47802">
        <ele>733</ele>
        <time>2021-06-06T09:11:50.447Z</time>
      </trkpt>
      <trkpt lat="45.84077" lon="5.47808">
        <ele>731</ele>
        <time>2021-06-06T09:11:51.447Z</time>
      </trkpt>
      <trkpt lat="45.84065" lon="5.47813">
        <ele>730</ele>
        <time>2021-06-06T09:11:52.446Z</time>
      </trkpt>
      <trkpt lat="45.84053" lon="5.4782">
        <ele>728</ele>
        <time>2021-06-06T09:11:53.447Z</time>
      </trkpt>
      <trkpt lat="45.84041" lon="5.47826">
        <ele>726</ele>
        <time>2021-06-06T09:11:54.447Z</time>
      </trkpt>
      <trkpt lat="45.8403" lon="5.47832">
        <ele>724</ele>
        <time>2021-06-06T09:11:55.447Z</time>
      </trkpt>
      <trkpt lat="45.84019" lon="5.47838">
        <ele>723</ele>
        <time>2021-06-06T09:11:56.447Z</time>
      </trkpt>
      <trkpt lat="45.84009" lon="5.47844">
        <ele>722</ele>
        <time>2021-06-06T09:11:57.447Z</time>
      </trkpt>
      <trkpt lat="45.83999" lon="5.47851">
        <ele>720</ele>
        <time>2021-06-06T09:11:58.447Z</time>
      </trkpt>
      <trkpt lat="45.8399" lon="5.47859">
        <ele>719</ele>
        <time>2021-06-06T09:11:59.447Z</time>
      </trkpt>
      <trkpt lat="45.83981" lon="5.47868">
        <ele>717</ele>
        <time>2021-06-06T09:12:00.446Z</time>
      </trkpt>
      <trkpt lat="45.83972" lon="5.47877">
        <ele>716</ele>
        <time>2021-06-06T09:12:01.447Z</time>
      </trkpt>
      <trkpt lat="45.83963" lon="5.47887">
        <ele>715</ele>
        <time>2021-06-06T09:12:02.447Z</time>
      </trkpt>
      <trkpt lat="45.83954" lon="5.47898">
        <ele>714</ele>
        <time>2021-06-06T09:12:03.447Z</time>
      </trkpt>
      <trkpt lat="45.83945" lon="5.47909">
        <ele>713</ele>
        <time>2021-06-06T09:12:04.446Z</time>
      </trkpt>
      <trkpt lat="45.83937" lon="5.4792">
        <ele>712</ele>
        <time>2021-06-06T09:12:05.447Z</time>
      </trkpt>
      <trkpt lat="45.83929" lon="5.47932">
        <ele>711</ele>
        <time>2021-06-06T09:12:06.446Z</time>
      </trkpt>
      <trkpt lat="45.83922" lon="5.47944">
        <ele>710</ele>
        <time>2021-06-06T09:12:07.447Z</time>
      </trkpt>
      <trkpt lat="45.83916" lon="5.47956">
        <ele>709</ele>
        <time>2021-06-06T09:12:08.447Z</time>
      </trkpt>
      <trkpt lat="45.83911" lon="5.47969">
        <ele>708</ele>
        <time>2021-06-06T09:12:09.446Z</time>
      </trkpt>
      <trkpt lat="45.83908" lon="5.47982">
        <ele>708</ele>
        <time>2021-06-06T09:12:10.447Z</time>
      </trkpt>
      <trkpt lat="45.83906" lon="5.47995">
        <ele>707</ele>
        <time>2021-06-06T09:12:11.447Z</time>
      </trkpt>
      <trkpt lat="45.83906" lon="5.48008">
        <ele>706</ele>
        <time>2021-06-06T09:12:12.447Z</time>
      </trkpt>
      <trkpt lat="45.83909" lon="5.48022">
        <ele>705</ele>
        <time>2021-06-06T09:12:13.447Z</time>
      </trkpt>
      <trkpt lat="45.83912" lon="5.48036">
        <ele>704</ele>
        <time>2021-06-06T09:12:14.446Z</time>
      </trkpt>
      <trkpt lat="45.83915" lon="5.4805">
        <ele>703</ele>
        <time>2021-06-06T09:12:15.447Z</time>
      </trkpt>
      <trkpt lat="45.83918" lon="5.48063">
        <ele>702</ele>
        <time>2021-06-06T09:12:16.447Z</time>
      </trkpt>
      <trkpt lat="45.83922" lon="5.48077">
        <ele>701</ele>
        <time>2021-06-06T09:12:17.447Z</time>
      </trkpt>
      <trkpt lat="45.83923" lon="5.4809">
        <ele>700</ele>
        <time>2021-06-06T09:12:18.447Z</time>
      </trkpt>
      <trkpt lat="45.83922" lon="5.48104">
        <ele>699</ele>
        <time>2021-06-06T09:12:19.447Z</time>
      </trkpt>
      <trkpt lat="45.8392" lon="5.48118">
        <ele>697</ele>
        <time>2021-06-06T09:12:20.447Z</time>
      </trkpt>
      <trkpt lat="45.83916" lon="5.48131">
        <ele>696</ele>
        <time>2021-06-06T09:12:21.447Z</time>
      </trkpt>
      <trkpt lat="45.83912" lon="5.48144">
        <ele>695</ele>
        <time>2021-06-06T09:12:22.447Z</time>
      </trkpt>
      <trkpt lat="45.83907" lon="5.48158">
        <ele>694</ele>
        <time>2021-06-06T09:12:23.447Z</time>
      </trkpt>
      <trkpt lat="45.83901" lon="5.48171">
        <ele>692</ele>
        <time>2021-06-06T09:12:24.447Z</time>
      </trkpt>
      <trkpt lat="45.83895" lon="5.48184">
        <ele>691</ele>
        <time>2021-06-06T09:12:25.447Z</time>
      </trkpt>
      <trkpt lat="45.83888" lon="5.48196">
        <ele>690</ele>
        <time>2021-06-06T09:12:26.447Z</time>
      </trkpt>
      <trkpt lat="45.83879" lon="5.48207">
        <ele>689</ele>
        <time>2021-06-06T09:12:27.447Z</time>
      </trkpt>
      <trkpt lat="45.83871" lon="5.48216">
        <ele>688</ele>
        <time>2021-06-06T09:12:28.447Z</time>
      </trkpt>
      <trkpt lat="45.83865" lon="5.48223">
        <ele>687</ele>
        <time>2021-06-06T09:12:29.447Z</time>
      </trkpt>
      <trkpt lat="45.83861" lon="5.4823">
        <ele>686</ele>
        <time>2021-06-06T09:12:30.447Z</time>
      </trkpt>
      <trkpt lat="45.83858" lon="5.48235">
        <ele>685</ele>
        <time>2021-06-06T09:12:31.447Z</time>
      </trkpt>
      <trkpt lat="45.83857" lon="5.48238">
        <ele>683</ele>
        <time>2021-06-06T09:12:32.446Z</time>
      </trkpt>
      <trkpt lat="45.83857" lon="5.48241">
        <ele>682</ele>
        <time>2021-06-06T09:12:33.447Z</time>
      </trkpt>
      <trkpt lat="45.83857" lon="5.48244">
        <ele>681</ele>
        <time>2021-06-06T09:12:34.447Z</time>
      </trkpt>
      <trkpt lat="45.83858" lon="5.48245">
        <ele>679</ele>
        <time>2021-06-06T09:12:35.447Z</time>
      </trkpt>
      <trkpt lat="45.83858" lon="5.48246">
        <ele>678</ele>
        <time>2021-06-06T09:12:36.447Z</time>
      </trkpt>
      <trkpt lat="45.83857" lon="5.48247">
        <ele>677</ele>
        <time>2021-06-06T09:12:37.447Z</time>
      </trkpt>
      <trkpt lat="45.83857" lon="5.48247">
        <ele>677</ele>
        <time>2021-06-06T09:12:38.447Z</time>
      </trkpt>
      <trkpt lat="45.83857" lon="5.48246">
        <ele>676</ele>
        <time>2021-06-06T09:12:39.447Z</time>
      </trkpt>
      <trkpt lat="45.83858" lon="5.48241">
        <ele>673</ele>
        <time>2021-06-06T09:12:40.446Z</time>
      </trkpt>
      <trkpt lat="45.83859" lon="5.48238">
        <ele>672</ele>
        <time>2021-06-06T09:12:41.447Z</time>
      </trkpt>
      <trkpt lat="45.8386" lon="5.48237">
        <ele>671</ele>
        <time>2021-06-06T09:12:42.446Z</time>
      </trkpt>
      <trkpt lat="45.8386" lon="5.48235">
        <ele>670</ele>
        <time>2021-06-06T09:12:43.446Z</time>
      </trkpt>
      <trkpt lat="45.83861" lon="5.48233">
        <ele>670</ele>
        <time>2021-06-06T09:12:44.446Z</time>
      </trkpt>
      <trkpt lat="45.83861" lon="5.4823">
        <ele>669</ele>
        <time>2021-06-06T09:12:45.446Z</time>
      </trkpt>
      <trkpt lat="45.83861" lon="5.48228">
        <ele>668</ele>
        <time>2021-06-06T09:12:46.446Z</time>
      </trkpt>
      <trkpt lat="45.83862" lon="5.48226">
        <ele>668</ele>
        <time>2021-06-06T09:12:47.447Z</time>
      </trkpt>
      <trkpt lat="45.83862" lon="5.48225">
        <ele>667</ele>
        <time>2021-06-06T09:12:48.447Z</time>
      </trkpt>
      <trkpt lat="45.83861" lon="5.48224">
        <ele>667</ele>
        <time>2021-06-06T09:12:49.446Z</time>
      </trkpt>
      <trkpt lat="45.83862" lon="5.48224">
        <ele>666</ele>
        <time>2021-06-06T09:12:50.446Z</time>
      </trkpt>
      <trkpt lat="45.83863" lon="5.48225">
        <ele>666</ele>
        <time>2021-06-06T09:12:51.447Z</time>
      </trkpt>
      <trkpt lat="45.83867" lon="5.48238">
        <ele>662</ele>
        <time>2021-06-06T09:12:52.448Z</time>
      </trkpt>
      <trkpt lat="45.83867" lon="5.48245">
        <ele>662</ele>
        <time>2021-06-06T09:12:53.448Z</time>
      </trkpt>
      <trkpt lat="45.83868" lon="5.48253">
        <ele>662</ele>
        <time>2021-06-06T09:12:54.447Z</time>
      </trkpt>
      <trkpt lat="45.83869" lon="5.48262">
        <ele>661</ele>
        <time>2021-06-06T09:12:55.448Z</time>
      </trkpt>
      <trkpt lat="45.83869" lon="5.48272">
        <ele>661</ele>
        <time>2021-06-06T09:12:56.447Z</time>
      </trkpt>
      <trkpt lat="45.8387" lon="5.48283">
        <ele>660</ele>
        <time>2021-06-06T09:12:57.448Z</time>
      </trkpt>
      <trkpt lat="45.83869" lon="5.48294">
        <ele>659</ele>
        <time>2021-06-06T09:12:58.448Z</time>
      </trkpt>
      <trkpt lat="45.83869" lon="5.48306">
        <ele>658</ele>
        <time>2021-06-06T09:12:59.448Z</time>
      </trkpt>
      <trkpt lat="45.83867" lon="5.48317">
        <ele>657</ele>
        <time>2021-06-06T09:13:00.447Z</time>
      </trkpt>
      <trkpt lat="45.83865" lon="5.48328">
        <ele>656</ele>
        <time>2021-06-06T09:13:01.448Z</time>
      </trkpt>
      <trkpt lat="45.83863" lon="5.4834">
        <ele>655</ele>
        <time>2021-06-06T09:13:02.447Z</time>
      </trkpt>
      <trkpt lat="45.8386" lon="5.48352">
        <ele>654</ele>
        <time>2021-06-06T09:13:03.448Z</time>
      </trkpt>
      <trkpt lat="45.83857" lon="5.48363">
        <ele>653</ele>
        <time>2021-06-06T09:13:04.448Z</time>
      </trkpt>
      <trkpt lat="45.83854" lon="5.48375">
        <ele>652</ele>
        <time>2021-06-06T09:13:05.448Z</time>
      </trkpt>
      <trkpt lat="45.83852" lon="5.48387">
        <ele>651</ele>
        <time>2021-06-06T09:13:06.448Z</time>
      </trkpt>
      <trkpt lat="45.8385" lon="5.48398">
        <ele>650</ele>
        <time>2021-06-06T09:13:07.448Z</time>
      </trkpt>
      <trkpt lat="45.83849" lon="5.48411">
        <ele>649</ele>
        <time>2021-06-06T09:13:08.447Z</time>
      </trkpt>
      <trkpt lat="45.8385" lon="5.48425">
        <ele>648</ele>
        <time>2021-06-06T09:13:09.448Z</time>
      </trkpt>
      <trkpt lat="45.83851" lon="5.4844">
        <ele>647</ele>
        <time>2021-06-06T09:13:10.447Z</time>
      </trkpt>
      <trkpt lat="45.83853" lon="5.48454">
        <ele>646</ele>
        <time>2021-06-06T09:13:11.447Z</time>
      </trkpt>
      <trkpt lat="45.83855" lon="5.48468">
        <ele>645</ele>
        <time>2021-06-06T09:13:12.448Z</time>
      </trkpt>
      <trkpt lat="45.83857" lon="5.48482">
        <ele>645</ele>
        <time>2021-06-06T09:13:13.448Z</time>
      </trkpt>
      <trkpt lat="45.83859" lon="5.48496">
        <ele>644</ele>
        <time>2021-06-06T09:13:14.448Z</time>
      </trkpt>
      <trkpt lat="45.83861" lon="5.4851">
        <ele>644</ele>
        <time>2021-06-06T09:13:15.448Z</time>
      </trkpt>
      <trkpt lat="45.83863" lon="5.48524">
        <ele>643</ele>
        <time>2021-06-06T09:13:16.448Z</time>
      </trkpt>
      <trkpt lat="45.83865" lon="5.48538">
        <ele>642</ele>
        <time>2021-06-06T09:13:17.448Z</time>
      </trkpt>
      <trkpt lat="45.83866" lon="5.48551">
        <ele>640</ele>
        <time>2021-06-06T09:13:18.448Z</time>
      </trkpt>
      <trkpt lat="45.83865" lon="5.48565">
        <ele>639</ele>
        <time>2021-06-06T09:13:19.448Z</time>
      </trkpt>
      <trkpt lat="45.83863" lon="5.48578">
        <ele>638</ele>
        <time>2021-06-06T09:13:20.447Z</time>
      </trkpt>
      <trkpt lat="45.83858" lon="5.48593">
        <ele>637</ele>
        <time>2021-06-06T09:13:21.447Z</time>
      </trkpt>
      <trkpt lat="45.83854" lon="5.48607">
        <ele>636</ele>
        <time>2021-06-06T09:13:22.448Z</time>
      </trkpt>
      <trkpt lat="45.8385" lon="5.4862">
        <ele>636</ele>
        <time>2021-06-06T09:13:23.447Z</time>
      </trkpt>
      <trkpt lat="45.83847" lon="5.48633">
        <ele>635</ele>
        <time>2021-06-06T09:13:24.448Z</time>
      </trkpt>
      <trkpt lat="45.83844" lon="5.48646">
        <ele>634</ele>
        <time>2021-06-06T09:13:25.448Z</time>
      </trkpt>
      <trkpt lat="45.83844" lon="5.48657">
        <ele>634</ele>
        <time>2021-06-06T09:13:26.448Z</time>
      </trkpt>
      <trkpt lat="45.83845" lon="5.48668">
        <ele>633</ele>
        <time>2021-06-06T09:13:27.448Z</time>
      </trkpt>
      <trkpt lat="45.83848" lon="5.4868">
        <ele>633</ele>
        <time>2021-06-06T09:13:28.447Z</time>
      </trkpt>
      <trkpt lat="45.83852" lon="5.48691">
        <ele>633</ele>
        <time>2021-06-06T09:13:29.448Z</time>
      </trkpt>
      <trkpt lat="45.83855" lon="5.48704">
        <ele>633</ele>
        <time>2021-06-06T09:13:30.448Z</time>
      </trkpt>
      <trkpt lat="45.83858" lon="5.48716">
        <ele>633</ele>
        <time>2021-06-06T09:13:31.448Z</time>
      </trkpt>
      <trkpt lat="45.83859" lon="5.4873">
        <ele>632</ele>
        <time>2021-06-06T09:13:32.447Z</time>
      </trkpt>
      <trkpt lat="45.8386" lon="5.48743">
        <ele>632</ele>
        <time>2021-06-06T09:13:33.448Z</time>
      </trkpt>
      <trkpt lat="45.83861" lon="5.48756">
        <ele>631</ele>
        <time>2021-06-06T09:13:34.448Z</time>
      </trkpt>
      <trkpt lat="45.83862" lon="5.48768">
        <ele>630</ele>
        <time>2021-06-06T09:13:35.448Z</time>
      </trkpt>
      <trkpt lat="45.83864" lon="5.48779">
        <ele>630</ele>
        <time>2021-06-06T09:13:36.448Z</time>
      </trkpt>
      <trkpt lat="45.83865" lon="5.48788">
        <ele>629</ele>
        <time>2021-06-06T09:13:37.448Z</time>
      </trkpt>
      <trkpt lat="45.83865" lon="5.48796">
        <ele>629</ele>
        <time>2021-06-06T09:13:38.448Z</time>
      </trkpt>
      <trkpt lat="45.83865" lon="5.48801">
        <ele>628</ele>
        <time>2021-06-06T09:13:39.448Z</time>
      </trkpt>
      <trkpt lat="45.83863" lon="5.48804">
        <ele>628</ele>
        <time>2021-06-06T09:13:40.447Z</time>
      </trkpt>
      <trkpt lat="45.83862" lon="5.48806">
        <ele>628</ele>
        <time>2021-06-06T09:13:41.448Z</time>
      </trkpt>
      <trkpt lat="45.83861" lon="5.48806">
        <ele>627</ele>
        <time>2021-06-06T09:13:42.448Z</time>
      </trkpt>
      <trkpt lat="45.83861" lon="5.48805">
        <ele>627</ele>
        <time>2021-06-06T09:13:43.448Z</time>
      </trkpt>
      <trkpt lat="45.83861" lon="5.48805">
        <ele>627</ele>
        <time>2021-06-06T09:13:44.447Z</time>
      </trkpt>
      <trkpt lat="45.83857" lon="5.48801">
        <ele>638</ele>
        <time>2021-06-06T09:13:45.447Z</time>
      </trkpt>
      <trkpt lat="45.83855" lon="5.48794">
        <ele>641</ele>
        <time>2021-06-06T09:13:46.448Z</time>
      </trkpt>
      <trkpt lat="45.83853" lon="5.4879">
        <ele>641</ele>
        <time>2021-06-06T09:13:47.448Z</time>
      </trkpt>
      <trkpt lat="45.83851" lon="5.48785">
        <ele>640</ele>
        <time>2021-06-06T09:13:48.447Z</time>
      </trkpt>
      <trkpt lat="45.83849" lon="5.48779">
        <ele>640</ele>
        <time>2021-06-06T09:13:49.447Z</time>
      </trkpt>
      <trkpt lat="45.83846" lon="5.48773">
        <ele>640</ele>
        <time>2021-06-06T09:13:50.448Z</time>
      </trkpt>
      <trkpt lat="45.83843" lon="5.48768">
        <ele>639</ele>
        <time>2021-06-06T09:13:51.448Z</time>
      </trkpt>
      <trkpt lat="45.83839" lon="5.48761">
        <ele>638</ele>
        <time>2021-06-06T09:13:52.448Z</time>
      </trkpt>
      <trkpt lat="45.83835" lon="5.48755">
        <ele>638</ele>
        <time>2021-06-06T09:13:53.448Z</time>
      </trkpt>
      <trkpt lat="45.83832" lon="5.48748">
        <ele>637</ele>
        <time>2021-06-06T09:13:54.448Z</time>
      </trkpt>
      <trkpt lat="45.83829" lon="5.48742">
        <ele>637</ele>
        <time>2021-06-06T09:13:55.447Z</time>
      </trkpt>
      <trkpt lat="45.83825" lon="5.48735">
        <ele>636</ele>
        <time>2021-06-06T09:13:56.448Z</time>
      </trkpt>
      <trkpt lat="45.83821" lon="5.48727">
        <ele>635</ele>
        <time>2021-06-06T09:13:57.448Z</time>
      </trkpt>
      <trkpt lat="45.83819" lon="5.48719">
        <ele>635</ele>
        <time>2021-06-06T09:13:58.448Z</time>
      </trkpt>
      <trkpt lat="45.83816" lon="5.48709">
        <ele>635</ele>
        <time>2021-06-06T09:13:59.448Z</time>
      </trkpt>
      <trkpt lat="45.83814" lon="5.48699">
        <ele>634</ele>
        <time>2021-06-06T09:14:00.447Z</time>
      </trkpt>
      <trkpt lat="45.83813" lon="5.48688">
        <ele>634</ele>
        <time>2021-06-06T09:14:01.447Z</time>
      </trkpt>
      <trkpt lat="45.83811" lon="5.48676">
        <ele>634</ele>
        <time>2021-06-06T09:14:02.448Z</time>
      </trkpt>
      <trkpt lat="45.83809" lon="5.48663">
        <ele>633</ele>
        <time>2021-06-06T09:14:03.448Z</time>
      </trkpt>
      <trkpt lat="45.83808" lon="5.48649">
        <ele>633</ele>
        <time>2021-06-06T09:14:04.448Z</time>
      </trkpt>
      <trkpt lat="45.83805" lon="5.48635">
        <ele>633</ele>
        <time>2021-06-06T09:14:05.448Z</time>
      </trkpt>
      <trkpt lat="45.83803" lon="5.48621">
        <ele>633</ele>
        <time>2021-06-06T09:14:06.448Z</time>
      </trkpt>
      <trkpt lat="45.83802" lon="5.48606">
        <ele>632</ele>
        <time>2021-06-06T09:14:07.448Z</time>
      </trkpt>
      <trkpt lat="45.83801" lon="5.48592">
        <ele>631</ele>
        <time>2021-06-06T09:14:08.448Z</time>
      </trkpt>
      <trkpt lat="45.83799" lon="5.48578">
        <ele>630</ele>
        <time>2021-06-06T09:14:09.448Z</time>
      </trkpt>
      <trkpt lat="45.83797" lon="5.48567">
        <ele>630</ele>
        <time>2021-06-06T09:14:10.447Z</time>
      </trkpt>
      <trkpt lat="45.83795" lon="5.48556">
        <ele>629</ele>
        <time>2021-06-06T09:14:11.447Z</time>
      </trkpt>
      <trkpt lat="45.83792" lon="5.48547">
        <ele>628</ele>
        <time>2021-06-06T09:14:12.448Z</time>
      </trkpt>
      <trkpt lat="45.83788" lon="5.48541">
        <ele>628</ele>
        <time>2021-06-06T09:14:13.447Z</time>
      </trkpt>
      <trkpt lat="45.83784" lon="5.48537">
        <ele>627</ele>
        <time>2021-06-06T09:14:14.448Z</time>
      </trkpt>
      <trkpt lat="45.83779" lon="5.48537">
        <ele>627</ele>
        <time>2021-06-06T09:14:15.448Z</time>
      </trkpt>
      <trkpt lat="45.83774" lon="5.48539">
        <ele>627</ele>
        <time>2021-06-06T09:14:16.448Z</time>
      </trkpt>
      <trkpt lat="45.83769" lon="5.48543">
        <ele>627</ele>
        <time>2021-06-06T09:14:17.448Z</time>
      </trkpt>
      <trkpt lat="45.83764" lon="5.48549">
        <ele>626</ele>
        <time>2021-06-06T09:14:18.448Z</time>
      </trkpt>
      <trkpt lat="45.83759" lon="5.48555">
        <ele>626</ele>
        <time>2021-06-06T09:14:19.448Z</time>
      </trkpt>
      <trkpt lat="45.83755" lon="5.48562">
        <ele>626</ele>
        <time>2021-06-06T09:14:20.448Z</time>
      </trkpt>
      <trkpt lat="45.83751" lon="5.48569">
        <ele>626</ele>
        <time>2021-06-06T09:14:21.448Z</time>
      </trkpt>
      <trkpt lat="45.83746" lon="5.48577">
        <ele>626</ele>
        <time>2021-06-06T09:14:22.448Z</time>
      </trkpt>
      <trkpt lat="45.83742" lon="5.48585">
        <ele>625</ele>
        <time>2021-06-06T09:14:23.448Z</time>
      </trkpt>
      <trkpt lat="45.83738" lon="5.48592">
        <ele>625</ele>
        <time>2021-06-06T09:14:24.448Z</time>
      </trkpt>
      <trkpt lat="45.83732" lon="5.48603">
        <ele>625</ele>
        <time>2021-06-06T09:14:25.447Z</time>
      </trkpt>
      <trkpt lat="45.83727" lon="5.48613">
        <ele>625</ele>
        <time>2021-06-06T09:14:26.448Z</time>
      </trkpt>
      <trkpt lat="45.83722" lon="5.48622">
        <ele>624</ele>
        <time>2021-06-06T09:14:27.448Z</time>
      </trkpt>
      <trkpt lat="45.83716" lon="5.48632">
        <ele>624</ele>
        <time>2021-06-06T09:14:28.448Z</time>
      </trkpt>
      <trkpt lat="45.83709" lon="5.48643">
        <ele>623</ele>
        <time>2021-06-06T09:14:29.447Z</time>
      </trkpt>
      <trkpt lat="45.83702" lon="5.48653">
        <ele>623</ele>
        <time>2021-06-06T09:14:30.448Z</time>
      </trkpt>
      <trkpt lat="45.83696" lon="5.48664">
        <ele>623</ele>
        <time>2021-06-06T09:14:31.448Z</time>
      </trkpt>
      <trkpt lat="45.83689" lon="5.48673">
        <ele>622</ele>
        <time>2021-06-06T09:14:32.448Z</time>
      </trkpt>
      <trkpt lat="45.83681" lon="5.48682">
        <ele>622</ele>
        <time>2021-06-06T09:14:33.448Z</time>
      </trkpt>
      <trkpt lat="45.83673" lon="5.4869">
        <ele>621</ele>
        <time>2021-06-06T09:14:34.448Z</time>
      </trkpt>
      <trkpt lat="45.83664" lon="5.48698">
        <ele>620</ele>
        <time>2021-06-06T09:14:35.448Z</time>
      </trkpt>
      <trkpt lat="45.83654" lon="5.48707">
        <ele>620</ele>
        <time>2021-06-06T09:14:36.448Z</time>
      </trkpt>
      <trkpt lat="45.83644" lon="5.48715">
        <ele>620</ele>
        <time>2021-06-06T09:14:37.448Z</time>
      </trkpt>
      <trkpt lat="45.83634" lon="5.48723">
        <ele>619</ele>
        <time>2021-06-06T09:14:38.447Z</time>
      </trkpt>
      <trkpt lat="45.83624" lon="5.48732">
        <ele>619</ele>
        <time>2021-06-06T09:14:39.448Z</time>
      </trkpt>
      <trkpt lat="45.83614" lon="5.4874">
        <ele>619</ele>
        <time>2021-06-06T09:14:40.448Z</time>
      </trkpt>
      <trkpt lat="45.83604" lon="5.48749">
        <ele>618</ele>
        <time>2021-06-06T09:14:41.448Z</time>
      </trkpt>
      <trkpt lat="45.83595" lon="5.48758">
        <ele>618</ele>
        <time>2021-06-06T09:14:42.448Z</time>
      </trkpt>
      <trkpt lat="45.83587" lon="5.48769">
        <ele>618</ele>
        <time>2021-06-06T09:14:43.447Z</time>
      </trkpt>
      <trkpt lat="45.83579" lon="5.4878">
        <ele>617</ele>
        <time>2021-06-06T09:14:44.447Z</time>
      </trkpt>
      <trkpt lat="45.83571" lon="5.48791">
        <ele>617</ele>
        <time>2021-06-06T09:14:45.448Z</time>
      </trkpt>
      <trkpt lat="45.83563" lon="5.48802">
        <ele>616</ele>
        <time>2021-06-06T09:14:46.448Z</time>
      </trkpt>
      <trkpt lat="45.83555" lon="5.48813">
        <ele>616</ele>
        <time>2021-06-06T09:14:47.448Z</time>
      </trkpt>
      <trkpt lat="45.83546" lon="5.48825">
        <ele>615</ele>
        <time>2021-06-06T09:14:48.448Z</time>
      </trkpt>
      <trkpt lat="45.83538" lon="5.48837">
        <ele>615</ele>
        <time>2021-06-06T09:14:49.448Z</time>
      </trkpt>
      <trkpt lat="45.83529" lon="5.48848">
        <ele>614</ele>
        <time>2021-06-06T09:14:50.448Z</time>
      </trkpt>
      <trkpt lat="45.8352" lon="5.4886">
        <ele>614</ele>
        <time>2021-06-06T09:14:51.448Z</time>
      </trkpt>
      <trkpt lat="45.83511" lon="5.48871">
        <ele>613</ele>
        <time>2021-06-06T09:14:52.447Z</time>
      </trkpt>
      <trkpt lat="45.835" lon="5.48884">
        <ele>613</ele>
        <time>2021-06-06T09:14:53.448Z</time>
      </trkpt>
      <trkpt lat="45.8349" lon="5.48895">
        <ele>612</ele>
        <time>2021-06-06T09:14:54.448Z</time>
      </trkpt>
      <trkpt lat="45.8348" lon="5.48907">
        <ele>612</ele>
        <time>2021-06-06T09:14:55.447Z</time>
      </trkpt>
      <trkpt lat="45.8347" lon="5.48916">
        <ele>612</ele>
        <time>2021-06-06T09:14:56.448Z</time>
      </trkpt>
      <trkpt lat="45.83459" lon="5.48922">
        <ele>611</ele>
        <time>2021-06-06T09:14:57.448Z</time>
      </trkpt>
      <trkpt lat="45.83448" lon="5.48927">
        <ele>611</ele>
        <time>2021-06-06T09:14:58.447Z</time>
      </trkpt>
      <trkpt lat="45.83436" lon="5.4893">
        <ele>610</ele>
        <time>2021-06-06T09:14:59.447Z</time>
      </trkpt>
      <trkpt lat="45.83423" lon="5.48933">
        <ele>610</ele>
        <time>2021-06-06T09:15:00.448Z</time>
      </trkpt>
      <trkpt lat="45.83411" lon="5.48935">
        <ele>609</ele>
        <time>2021-06-06T09:15:01.448Z</time>
      </trkpt>
      <trkpt lat="45.83399" lon="5.48935">
        <ele>609</ele>
        <time>2021-06-06T09:15:02.447Z</time>
      </trkpt>
      <trkpt lat="45.83386" lon="5.48935">
        <ele>609</ele>
        <time>2021-06-06T09:15:03.448Z</time>
      </trkpt>
      <trkpt lat="45.83374" lon="5.48934">
        <ele>608</ele>
        <time>2021-06-06T09:15:04.448Z</time>
      </trkpt>
      <trkpt lat="45.83362" lon="5.48934">
        <ele>608</ele>
        <time>2021-06-06T09:15:05.447Z</time>
      </trkpt>
      <trkpt lat="45.83349" lon="5.48933">
        <ele>607</ele>
        <time>2021-06-06T09:15:06.448Z</time>
      </trkpt>
      <trkpt lat="45.83336" lon="5.48934">
        <ele>607</ele>
        <time>2021-06-06T09:15:07.447Z</time>
      </trkpt>
      <trkpt lat="45.83324" lon="5.48934">
        <ele>606</ele>
        <time>2021-06-06T09:15:08.447Z</time>
      </trkpt>
      <trkpt lat="45.83311" lon="5.48933">
        <ele>606</ele>
        <time>2021-06-06T09:15:09.447Z</time>
      </trkpt>
      <trkpt lat="45.83296" lon="5.48931">
        <ele>606</ele>
        <time>2021-06-06T09:15:10.448Z</time>
      </trkpt>
      <trkpt lat="45.83283" lon="5.4893">
        <ele>606</ele>
        <time>2021-06-06T09:15:11.447Z</time>
      </trkpt>
      <trkpt lat="45.83269" lon="5.4893">
        <ele>606</ele>
        <time>2021-06-06T09:15:12.448Z</time>
      </trkpt>
      <trkpt lat="45.83256" lon="5.4893">
        <ele>606</ele>
        <time>2021-06-06T09:15:13.448Z</time>
      </trkpt>
      <trkpt lat="45.83243" lon="5.48931">
        <ele>606</ele>
        <time>2021-06-06T09:15:14.447Z</time>
      </trkpt>
      <trkpt lat="45.8323" lon="5.48931">
        <ele>606</ele>
        <time>2021-06-06T09:15:15.448Z</time>
      </trkpt>
      <trkpt lat="45.83221" lon="5.48931">
        <ele>606</ele>
        <time>2021-06-06T09:15:16.448Z</time>
      </trkpt>
      <trkpt lat="45.83209" lon="5.48927">
        <ele>606</ele>
        <time>2021-06-06T09:15:17.448Z</time>
      </trkpt>
      <trkpt lat="45.832" lon="5.48921">
        <ele>606</ele>
        <time>2021-06-06T09:15:18.448Z</time>
      </trkpt>
      <trkpt lat="45.83192" lon="5.48912">
        <ele>605</ele>
        <time>2021-06-06T09:15:19.447Z</time>
      </trkpt>
      <trkpt lat="45.83188" lon="5.48896">
        <ele>604</ele>
        <time>2021-06-06T09:15:20.448Z</time>
      </trkpt>
      <trkpt lat="45.83184" lon="5.48882">
        <ele>603</ele>
        <time>2021-06-06T09:15:21.448Z</time>
      </trkpt>
      <trkpt lat="45.83178" lon="5.48868">
        <ele>602</ele>
        <time>2021-06-06T09:15:22.448Z</time>
      </trkpt>
      <trkpt lat="45.83173" lon="5.48855">
        <ele>601</ele>
        <time>2021-06-06T09:15:23.448Z</time>
      </trkpt>
      <trkpt lat="45.83168" lon="5.48843">
        <ele>600</ele>
        <time>2021-06-06T09:15:24.447Z</time>
      </trkpt>
      <trkpt lat="45.83161" lon="5.48831">
        <ele>599</ele>
        <time>2021-06-06T09:15:25.447Z</time>
      </trkpt>
      <trkpt lat="45.83152" lon="5.4882">
        <ele>599</ele>
        <time>2021-06-06T09:15:26.447Z</time>
      </trkpt>
      <trkpt lat="45.83142" lon="5.48811">
        <ele>598</ele>
        <time>2021-06-06T09:15:27.448Z</time>
      </trkpt>
      <trkpt lat="45.83132" lon="5.48803">
        <ele>598</ele>
        <time>2021-06-06T09:15:28.447Z</time>
      </trkpt>
      <trkpt lat="45.83122" lon="5.48796">
        <ele>597</ele>
        <time>2021-06-06T09:15:29.448Z</time>
      </trkpt>
      <trkpt lat="45.83111" lon="5.48788">
        <ele>597</ele>
        <time>2021-06-06T09:15:30.448Z</time>
      </trkpt>
      <trkpt lat="45.83101" lon="5.4878">
        <ele>596</ele>
        <time>2021-06-06T09:15:31.448Z</time>
      </trkpt>
      <trkpt lat="45.83092" lon="5.4877">
        <ele>596</ele>
        <time>2021-06-06T09:15:32.448Z</time>
      </trkpt>
      <trkpt lat="45.83085" lon="5.48757">
        <ele>596</ele>
        <time>2021-06-06T09:15:33.448Z</time>
      </trkpt>
      <trkpt lat="45.83078" lon="5.48744">
        <ele>595</ele>
        <time>2021-06-06T09:15:34.448Z</time>
      </trkpt>
      <trkpt lat="45.83072" lon="5.48729">
        <ele>594</ele>
        <time>2021-06-06T09:15:35.447Z</time>
      </trkpt>
      <trkpt lat="45.83066" lon="5.48714">
        <ele>594</ele>
        <time>2021-06-06T09:15:36.447Z</time>
      </trkpt>
      <trkpt lat="45.8306" lon="5.487">
        <ele>593</ele>
        <time>2021-06-06T09:15:37.448Z</time>
      </trkpt>
      <trkpt lat="45.83053" lon="5.48685">
        <ele>592</ele>
        <time>2021-06-06T09:15:38.448Z</time>
      </trkpt>
      <trkpt lat="45.83046" lon="5.4867">
        <ele>592</ele>
        <time>2021-06-06T09:15:39.447Z</time>
      </trkpt>
      <trkpt lat="45.83039" lon="5.48654">
        <ele>591</ele>
        <time>2021-06-06T09:15:40.448Z</time>
      </trkpt>
      <trkpt lat="45.83032" lon="5.48638">
        <ele>590</ele>
        <time>2021-06-06T09:15:41.447Z</time>
      </trkpt>
      <trkpt lat="45.83025" lon="5.48623">
        <ele>589</ele>
        <time>2021-06-06T09:15:42.448Z</time>
      </trkpt>
      <trkpt lat="45.83018" lon="5.48608">
        <ele>588</ele>
        <time>2021-06-06T09:15:43.447Z</time>
      </trkpt>
      <trkpt lat="45.83011" lon="5.48593">
        <ele>587</ele>
        <time>2021-06-06T09:15:44.447Z</time>
      </trkpt>
      <trkpt lat="45.83004" lon="5.48577">
        <ele>586</ele>
        <time>2021-06-06T09:15:45.448Z</time>
      </trkpt>
      <trkpt lat="45.82997" lon="5.48562">
        <ele>585</ele>
        <time>2021-06-06T09:15:46.448Z</time>
      </trkpt>
      <trkpt lat="45.82989" lon="5.48548">
        <ele>584</ele>
        <time>2021-06-06T09:15:47.448Z</time>
      </trkpt>
      <trkpt lat="45.8298" lon="5.48534">
        <ele>583</ele>
        <time>2021-06-06T09:15:48.448Z</time>
      </trkpt>
      <trkpt lat="45.82972" lon="5.48521">
        <ele>582</ele>
        <time>2021-06-06T09:15:49.448Z</time>
      </trkpt>
      <trkpt lat="45.82961" lon="5.4851">
        <ele>581</ele>
        <time>2021-06-06T09:15:50.448Z</time>
      </trkpt>
      <trkpt lat="45.82951" lon="5.485">
        <ele>580</ele>
        <time>2021-06-06T09:15:51.448Z</time>
      </trkpt>
      <trkpt lat="45.8294" lon="5.48493">
        <ele>579</ele>
        <time>2021-06-06T09:15:52.448Z</time>
      </trkpt>
      <trkpt lat="45.82928" lon="5.48487">
        <ele>578</ele>
        <time>2021-06-06T09:15:53.448Z</time>
      </trkpt>
      <trkpt lat="45.82916" lon="5.48483">
        <ele>576</ele>
        <time>2021-06-06T09:15:54.448Z</time>
      </trkpt>
      <trkpt lat="45.82904" lon="5.48481">
        <ele>575</ele>
        <time>2021-06-06T09:15:55.448Z</time>
      </trkpt>
      <trkpt lat="45.8289" lon="5.48479">
        <ele>574</ele>
        <time>2021-06-06T09:15:56.448Z</time>
      </trkpt>
      <trkpt lat="45.82878" lon="5.48477">
        <ele>573</ele>
        <time>2021-06-06T09:15:57.447Z</time>
      </trkpt>
      <trkpt lat="45.82866" lon="5.48473">
        <ele>571</ele>
        <time>2021-06-06T09:15:58.448Z</time>
      </trkpt>
      <trkpt lat="45.82854" lon="5.48468">
        <ele>570</ele>
        <time>2021-06-06T09:15:59.447Z</time>
      </trkpt>
      <trkpt lat="45.82844" lon="5.48461">
        <ele>569</ele>
        <time>2021-06-06T09:16:00.448Z</time>
      </trkpt>
      <trkpt lat="45.82835" lon="5.48452">
        <ele>568</ele>
        <time>2021-06-06T09:16:01.447Z</time>
      </trkpt>
      <trkpt lat="45.82828" lon="5.4844">
        <ele>567</ele>
        <time>2021-06-06T09:16:02.448Z</time>
      </trkpt>
      <trkpt lat="45.82822" lon="5.48426">
        <ele>565</ele>
        <time>2021-06-06T09:16:03.448Z</time>
      </trkpt>
      <trkpt lat="45.82817" lon="5.48411">
        <ele>564</ele>
        <time>2021-06-06T09:16:04.448Z</time>
      </trkpt>
      <trkpt lat="45.82813" lon="5.48395">
        <ele>562</ele>
        <time>2021-06-06T09:16:05.448Z</time>
      </trkpt>
      <trkpt lat="45.8281" lon="5.4838">
        <ele>561</ele>
        <time>2021-06-06T09:16:06.448Z</time>
      </trkpt>
      <trkpt lat="45.82807" lon="5.48364">
        <ele>560</ele>
        <time>2021-06-06T09:16:07.448Z</time>
      </trkpt>
      <trkpt lat="45.82805" lon="5.48347">
        <ele>558</ele>
        <time>2021-06-06T09:16:08.448Z</time>
      </trkpt>
      <trkpt lat="45.82803" lon="5.48331">
        <ele>556</ele>
        <time>2021-06-06T09:16:09.448Z</time>
      </trkpt>
      <trkpt lat="45.82801" lon="5.48314">
        <ele>555</ele>
        <time>2021-06-06T09:16:10.447Z</time>
      </trkpt>
      <trkpt lat="45.828" lon="5.48297">
        <ele>553</ele>
        <time>2021-06-06T09:16:11.448Z</time>
      </trkpt>
      <trkpt lat="45.82798" lon="5.48281">
        <ele>552</ele>
        <time>2021-06-06T09:16:12.448Z</time>
      </trkpt>
      <trkpt lat="45.82797" lon="5.48265">
        <ele>550</ele>
        <time>2021-06-06T09:16:13.448Z</time>
      </trkpt>
      <trkpt lat="45.82796" lon="5.48248">
        <ele>548</ele>
        <time>2021-06-06T09:16:14.448Z</time>
      </trkpt>
      <trkpt lat="45.82796" lon="5.48231">
        <ele>546</ele>
        <time>2021-06-06T09:16:15.448Z</time>
      </trkpt>
      <trkpt lat="45.82794" lon="5.48215">
        <ele>544</ele>
        <time>2021-06-06T09:16:16.448Z</time>
      </trkpt>
      <trkpt lat="45.82792" lon="5.48199">
        <ele>543</ele>
        <time>2021-06-06T09:16:17.448Z</time>
      </trkpt>
      <trkpt lat="45.8279" lon="5.48183">
        <ele>541</ele>
        <time>2021-06-06T09:16:18.448Z</time>
      </trkpt>
      <trkpt lat="45.82788" lon="5.48167">
        <ele>539</ele>
        <time>2021-06-06T09:16:19.447Z</time>
      </trkpt>
      <trkpt lat="45.82786" lon="5.48151">
        <ele>538</ele>
        <time>2021-06-06T09:16:20.447Z</time>
      </trkpt>
      <trkpt lat="45.82783" lon="5.48135">
        <ele>536</ele>
        <time>2021-06-06T09:16:21.447Z</time>
      </trkpt>
      <trkpt lat="45.82778" lon="5.48121">
        <ele>535</ele>
        <time>2021-06-06T09:16:22.448Z</time>
      </trkpt>
      <trkpt lat="45.82772" lon="5.48108">
        <ele>534</ele>
        <time>2021-06-06T09:16:23.447Z</time>
      </trkpt>
      <trkpt lat="45.82765" lon="5.48096">
        <ele>533</ele>
        <time>2021-06-06T09:16:24.448Z</time>
      </trkpt>
      <trkpt lat="45.82757" lon="5.48085">
        <ele>531</ele>
        <time>2021-06-06T09:16:25.448Z</time>
      </trkpt>
      <trkpt lat="45.82748" lon="5.48076">
        <ele>530</ele>
        <time>2021-06-06T09:16:26.447Z</time>
      </trkpt>
      <trkpt lat="45.82738" lon="5.4807">
        <ele>529</ele>
        <time>2021-06-06T09:16:27.448Z</time>
      </trkpt>
      <trkpt lat="45.82728" lon="5.48063">
        <ele>528</ele>
        <time>2021-06-06T09:16:28.448Z</time>
      </trkpt>
      <trkpt lat="45.82718" lon="5.48056">
        <ele>527</ele>
        <time>2021-06-06T09:16:29.448Z</time>
      </trkpt>
      <trkpt lat="45.82709" lon="5.48047">
        <ele>526</ele>
        <time>2021-06-06T09:16:30.448Z</time>
      </trkpt>
      <trkpt lat="45.827" lon="5.48037">
        <ele>525</ele>
        <time>2021-06-06T09:16:31.448Z</time>
      </trkpt>
      <trkpt lat="45.82692" lon="5.48026">
        <ele>524</ele>
        <time>2021-06-06T09:16:32.448Z</time>
      </trkpt>
      <trkpt lat="45.82684" lon="5.48015">
        <ele>523</ele>
        <time>2021-06-06T09:16:33.447Z</time>
      </trkpt>
      <trkpt lat="45.82677" lon="5.48005">
        <ele>522</ele>
        <time>2021-06-06T09:16:34.447Z</time>
      </trkpt>
      <trkpt lat="45.82669" lon="5.47995">
        <ele>521</ele>
        <time>2021-06-06T09:16:35.448Z</time>
      </trkpt>
      <trkpt lat="45.82662" lon="5.47986">
        <ele>519</ele>
        <time>2021-06-06T09:16:36.448Z</time>
      </trkpt>
      <trkpt lat="45.82656" lon="5.47978">
        <ele>518</ele>
        <time>2021-06-06T09:16:37.447Z</time>
      </trkpt>
      <trkpt lat="45.82648" lon="5.47967">
        <ele>517</ele>
        <time>2021-06-06T09:16:38.447Z</time>
      </trkpt>
      <trkpt lat="45.82642" lon="5.47958">
        <ele>516</ele>
        <time>2021-06-06T09:16:39.447Z</time>
      </trkpt>
      <trkpt lat="45.82639" lon="5.4795">
        <ele>516</ele>
        <time>2021-06-06T09:16:40.448Z</time>
      </trkpt>
      <trkpt lat="45.82635" lon="5.47939">
        <ele>515</ele>
        <time>2021-06-06T09:16:41.448Z</time>
      </trkpt>
      <trkpt lat="45.82633" lon="5.47929">
        <ele>514</ele>
        <time>2021-06-06T09:16:42.447Z</time>
      </trkpt>
      <trkpt lat="45.82634" lon="5.47918">
        <ele>513</ele>
        <time>2021-06-06T09:16:43.448Z</time>
      </trkpt>
      <trkpt lat="45.82636" lon="5.47909">
        <ele>512</ele>
        <time>2021-06-06T09:16:44.447Z</time>
      </trkpt>
      <trkpt lat="45.8264" lon="5.47899">
        <ele>511</ele>
        <time>2021-06-06T09:16:45.448Z</time>
      </trkpt>
      <trkpt lat="45.82645" lon="5.47889">
        <ele>510</ele>
        <time>2021-06-06T09:16:46.447Z</time>
      </trkpt>
      <trkpt lat="45.82651" lon="5.47877">
        <ele>509</ele>
        <time>2021-06-06T09:16:47.448Z</time>
      </trkpt>
      <trkpt lat="45.82657" lon="5.47864">
        <ele>508</ele>
        <time>2021-06-06T09:16:48.448Z</time>
      </trkpt>
      <trkpt lat="45.82661" lon="5.47852">
        <ele>507</ele>
        <time>2021-06-06T09:16:49.448Z</time>
      </trkpt>
      <trkpt lat="45.82665" lon="5.47839">
        <ele>506</ele>
        <time>2021-06-06T09:16:50.447Z</time>
      </trkpt>
      <trkpt lat="45.82669" lon="5.47829">
        <ele>505</ele>
        <time>2021-06-06T09:16:51.448Z</time>
      </trkpt>
      <trkpt lat="45.82672" lon="5.47817">
        <ele>504</ele>
        <time>2021-06-06T09:16:52.448Z</time>
      </trkpt>
      <trkpt lat="45.82677" lon="5.47804">
        <ele>503</ele>
        <time>2021-06-06T09:16:53.448Z</time>
      </trkpt>
      <trkpt lat="45.82681" lon="5.47793">
        <ele>502</ele>
        <time>2021-06-06T09:16:54.447Z</time>
      </trkpt>
      <trkpt lat="45.82685" lon="5.47786">
        <ele>501</ele>
        <time>2021-06-06T09:16:55.448Z</time>
      </trkpt>
      <trkpt lat="45.82691" lon="5.47776">
        <ele>500</ele>
        <time>2021-06-06T09:16:56.448Z</time>
      </trkpt>
      <trkpt lat="45.82698" lon="5.47768">
        <ele>499</ele>
        <time>2021-06-06T09:16:57.447Z</time>
      </trkpt>
      <trkpt lat="45.82707" lon="5.47759">
        <ele>497</ele>
        <time>2021-06-06T09:16:58.447Z</time>
      </trkpt>
      <trkpt lat="45.82714" lon="5.47751">
        <ele>496</ele>
        <time>2021-06-06T09:16:59.447Z</time>
      </trkpt>
      <trkpt lat="45.8272" lon="5.47745">
        <ele>494</ele>
        <time>2021-06-06T09:17:00.448Z</time>
      </trkpt>
      <trkpt lat="45.82729" lon="5.47737">
        <ele>493</ele>
        <time>2021-06-06T09:17:01.447Z</time>
      </trkpt>
      <trkpt lat="45.82737" lon="5.47726">
        <ele>492</ele>
        <time>2021-06-06T09:17:02.447Z</time>
      </trkpt>
      <trkpt lat="45.82743" lon="5.47717">
        <ele>491</ele>
        <time>2021-06-06T09:17:03.448Z</time>
      </trkpt>
      <trkpt lat="45.82748" lon="5.47706">
        <ele>490</ele>
        <time>2021-06-06T09:17:04.448Z</time>
      </trkpt>
      <trkpt lat="45.82753" lon="5.47696">
        <ele>489</ele>
        <time>2021-06-06T09:17:05.448Z</time>
      </trkpt>
      <trkpt lat="45.82757" lon="5.47685">
        <ele>489</ele>
        <time>2021-06-06T09:17:06.448Z</time>
      </trkpt>
      <trkpt lat="45.82761" lon="5.47675">
        <ele>488</ele>
        <time>2021-06-06T09:17:07.448Z</time>
      </trkpt>
      <trkpt lat="45.82765" lon="5.47665">
        <ele>487</ele>
        <time>2021-06-06T09:17:08.448Z</time>
      </trkpt>
      <trkpt lat="45.82768" lon="5.47655">
        <ele>487</ele>
        <time>2021-06-06T09:17:09.447Z</time>
      </trkpt>
      <trkpt lat="45.82771" lon="5.47644">
        <ele>486</ele>
        <time>2021-06-06T09:17:10.448Z</time>
      </trkpt>
      <trkpt lat="45.82773" lon="5.47633">
        <ele>485</ele>
        <time>2021-06-06T09:17:11.448Z</time>
      </trkpt>
      <trkpt lat="45.82775" lon="5.47623">
        <ele>485</ele>
        <time>2021-06-06T09:17:12.447Z</time>
      </trkpt>
      <trkpt lat="45.82776" lon="5.47612">
        <ele>484</ele>
        <time>2021-06-06T09:17:13.448Z</time>
      </trkpt>
      <trkpt lat="45.82776" lon="5.47601">
        <ele>484</ele>
        <time>2021-06-06T09:17:14.447Z</time>
      </trkpt>
      <trkpt lat="45.82776" lon="5.4759">
        <ele>483</ele>
        <time>2021-06-06T09:17:15.448Z</time>
      </trkpt>
      <trkpt lat="45.82776" lon="5.47579">
        <ele>482</ele>
        <time>2021-06-06T09:17:16.448Z</time>
      </trkpt>
      <trkpt lat="45.82776" lon="5.47569">
        <ele>482</ele>
        <time>2021-06-06T09:17:17.447Z</time>
      </trkpt>
      <trkpt lat="45.82775" lon="5.47558">
        <ele>482</ele>
        <time>2021-06-06T09:17:18.447Z</time>
      </trkpt>
      <trkpt lat="45.82775" lon="5.47548">
        <ele>481</ele>
        <time>2021-06-06T09:17:19.448Z</time>
      </trkpt>
      <trkpt lat="45.82775" lon="5.47537">
        <ele>481</ele>
        <time>2021-06-06T09:17:20.447Z</time>
      </trkpt>
      <trkpt lat="45.82774" lon="5.47527">
        <ele>480</ele>
        <time>2021-06-06T09:17:21.448Z</time>
      </trkpt>
      <trkpt lat="45.82774" lon="5.47516">
        <ele>480</ele>
        <time>2021-06-06T09:17:22.448Z</time>
      </trkpt>
      <trkpt lat="45.82774" lon="5.47505">
        <ele>479</ele>
        <time>2021-06-06T09:17:23.447Z</time>
      </trkpt>
      <trkpt lat="45.82774" lon="5.47494">
        <ele>479</ele>
        <time>2021-06-06T09:17:24.448Z</time>
      </trkpt>
      <trkpt lat="45.82774" lon="5.47482">
        <ele>478</ele>
        <time>2021-06-06T09:17:25.448Z</time>
      </trkpt>
      <trkpt lat="45.82774" lon="5.47471">
        <ele>478</ele>
        <time>2021-06-06T09:17:26.447Z</time>
      </trkpt>
      <trkpt lat="45.82773" lon="5.4746">
        <ele>478</ele>
        <time>2021-06-06T09:17:27.447Z</time>
      </trkpt>
      <trkpt lat="45.82773" lon="5.47448">
        <ele>477</ele>
        <time>2021-06-06T09:17:28.448Z</time>
      </trkpt>
      <trkpt lat="45.82773" lon="5.47437">
        <ele>477</ele>
        <time>2021-06-06T09:17:29.447Z</time>
      </trkpt>
      <trkpt lat="45.82774" lon="5.47427">
        <ele>477</ele>
        <time>2021-06-06T09:17:30.448Z</time>
      </trkpt>
      <trkpt lat="45.82774" lon="5.47418">
        <ele>477</ele>
        <time>2021-06-06T09:17:31.447Z</time>
      </trkpt>
      <trkpt lat="45.82775" lon="5.47409">
        <ele>477</ele>
        <time>2021-06-06T09:17:32.447Z</time>
      </trkpt>
      <trkpt lat="45.82775" lon="5.47402">
        <ele>477</ele>
        <time>2021-06-06T09:17:33.448Z</time>
      </trkpt>
      <trkpt lat="45.82776" lon="5.47395">
        <ele>477</ele>
        <time>2021-06-06T09:17:34.447Z</time>
      </trkpt>
      <trkpt lat="45.82777" lon="5.47388">
        <ele>477</ele>
        <time>2021-06-06T09:17:35.448Z</time>
      </trkpt>
      <trkpt lat="45.82778" lon="5.47381">
        <ele>477</ele>
        <time>2021-06-06T09:17:36.448Z</time>
      </trkpt>
      <trkpt lat="45.8278" lon="5.47375">
        <ele>477</ele>
        <time>2021-06-06T09:17:37.447Z</time>
      </trkpt>
      <trkpt lat="45.82781" lon="5.4737">
        <ele>477</ele>
        <time>2021-06-06T09:17:38.447Z</time>
      </trkpt>
      <trkpt lat="45.82782" lon="5.47367">
        <ele>477</ele>
        <time>2021-06-06T09:17:39.448Z</time>
      </trkpt>
      <trkpt lat="45.82784" lon="5.47361">
        <ele>476</ele>
        <time>2021-06-06T09:17:40.448Z</time>
      </trkpt>
      <trkpt lat="45.82785" lon="5.47357">
        <ele>475</ele>
        <time>2021-06-06T09:17:41.448Z</time>
      </trkpt>
      <trkpt lat="45.82785" lon="5.47354">
        <ele>474</ele>
        <time>2021-06-06T09:17:42.448Z</time>
      </trkpt>
      <trkpt lat="45.82785" lon="5.4735">
        <ele>473</ele>
        <time>2021-06-06T09:17:43.447Z</time>
      </trkpt>
      <trkpt lat="45.82784" lon="5.47348">
        <ele>473</ele>
        <time>2021-06-06T09:17:44.447Z</time>
      </trkpt>
      <trkpt lat="45.82783" lon="5.47347">
        <ele>473</ele>
        <time>2021-06-06T09:17:45.448Z</time>
      </trkpt>
      <trkpt lat="45.82782" lon="5.47345">
        <ele>472</ele>
        <time>2021-06-06T09:17:46.448Z</time>
      </trkpt>
      <trkpt lat="45.82781" lon="5.47344">
        <ele>472</ele>
        <time>2021-06-06T09:17:47.448Z</time>
      </trkpt>
      <trkpt lat="45.8278" lon="5.47343">
        <ele>472</ele>
        <time>2021-06-06T09:17:48.447Z</time>
      </trkpt>
      <trkpt lat="45.8278" lon="5.47343">
        <ele>472</ele>
        <time>2021-06-06T09:17:49.447Z</time>
      </trkpt>
      <trkpt lat="45.8278" lon="5.47343">
        <ele>472</ele>
        <time>2021-06-06T09:17:50.448Z</time>
      </trkpt>
      <trkpt lat="45.82779" lon="5.47343">
        <ele>472</ele>
        <time>2021-06-06T09:17:51.448Z</time>
      </trkpt>
      <trkpt lat="45.82778" lon="5.47343">
        <ele>472</ele>
        <time>2021-06-06T09:17:52.448Z</time>
      </trkpt>
      <trkpt lat="45.82777" lon="5.47344">
        <ele>472</ele>
        <time>2021-06-06T09:17:53.449Z</time>
      </trkpt>
      <trkpt lat="45.82777" lon="5.47344">
        <ele>472</ele>
        <time>2021-06-06T09:17:54.448Z</time>
      </trkpt>
      <trkpt lat="45.82777" lon="5.47345">
        <ele>472</ele>
        <time>2021-06-06T09:17:55.448Z</time>
      </trkpt>
      <trkpt lat="45.82776" lon="5.47347">
        <ele>473</ele>
        <time>2021-06-06T09:17:56.449Z</time>
      </trkpt>
      <trkpt lat="45.82776" lon="5.47348">
        <ele>473</ele>
        <time>2021-06-06T09:17:57.449Z</time>
      </trkpt>
      <trkpt lat="45.82776" lon="5.47348">
        <ele>474</ele>
        <time>2021-06-06T09:17:58.450Z</time>
      </trkpt>
      <trkpt lat="45.82777" lon="5.47341">
        <ele>475</ele>
        <time>2021-06-06T09:17:59.449Z</time>
      </trkpt>
      <trkpt lat="45.82776" lon="5.47337">
        <ele>475</ele>
        <time>2021-06-06T09:18:00.449Z</time>
      </trkpt>
      <trkpt lat="45.82775" lon="5.47333">
        <ele>475</ele>
        <time>2021-06-06T09:18:01.449Z</time>
      </trkpt>
      <trkpt lat="45.82773" lon="5.4733">
        <ele>475</ele>
        <time>2021-06-06T09:18:02.450Z</time>
      </trkpt>
      <trkpt lat="45.82769" lon="5.47327">
        <ele>474</ele>
        <time>2021-06-06T09:18:03.450Z</time>
      </trkpt>
      <trkpt lat="45.82765" lon="5.47324">
        <ele>474</ele>
        <time>2021-06-06T09:18:04.449Z</time>
      </trkpt>
      <trkpt lat="45.8276" lon="5.47322">
        <ele>473</ele>
        <time>2021-06-06T09:18:05.449Z</time>
      </trkpt>
      <trkpt lat="45.82755" lon="5.4732">
        <ele>473</ele>
        <time>2021-06-06T09:18:06.450Z</time>
      </trkpt>
      <trkpt lat="45.82749" lon="5.47317">
        <ele>472</ele>
        <time>2021-06-06T09:18:07.450Z</time>
      </trkpt>
      <trkpt lat="45.82743" lon="5.47315">
        <ele>472</ele>
        <time>2021-06-06T09:18:08.450Z</time>
      </trkpt>
      <trkpt lat="45.82737" lon="5.47311">
        <ele>471</ele>
        <time>2021-06-06T09:18:09.450Z</time>
      </trkpt>
      <trkpt lat="45.82732" lon="5.47307">
        <ele>470</ele>
        <time>2021-06-06T09:18:10.450Z</time>
      </trkpt>
      <trkpt lat="45.82727" lon="5.47301">
        <ele>470</ele>
        <time>2021-06-06T09:18:11.450Z</time>
      </trkpt>
      <trkpt lat="45.82722" lon="5.47294">
        <ele>469</ele>
        <time>2021-06-06T09:18:12.450Z</time>
      </trkpt>
      <trkpt lat="45.82718" lon="5.47286">
        <ele>469</ele>
        <time>2021-06-06T09:18:13.450Z</time>
      </trkpt>
      <trkpt lat="45.82715" lon="5.47278">
        <ele>468</ele>
        <time>2021-06-06T09:18:14.449Z</time>
      </trkpt>
      <trkpt lat="45.82713" lon="5.4727">
        <ele>468</ele>
        <time>2021-06-06T09:18:15.450Z</time>
      </trkpt>
      <trkpt lat="45.82711" lon="5.47261">
        <ele>468</ele>
        <time>2021-06-06T09:18:16.450Z</time>
      </trkpt>
      <trkpt lat="45.82709" lon="5.47253">
        <ele>467</ele>
        <time>2021-06-06T09:18:17.450Z</time>
      </trkpt>
      <trkpt lat="45.82707" lon="5.47244">
        <ele>466</ele>
        <time>2021-06-06T09:18:18.450Z</time>
      </trkpt>
      <trkpt lat="45.82705" lon="5.47235">
        <ele>465</ele>
        <time>2021-06-06T09:18:19.450Z</time>
      </trkpt>
      <trkpt lat="45.82702" lon="5.47226">
        <ele>464</ele>
        <time>2021-06-06T09:18:20.449Z</time>
      </trkpt>
      <trkpt lat="45.82698" lon="5.47219">
        <ele>464</ele>
        <time>2021-06-06T09:18:21.450Z</time>
      </trkpt>
      <trkpt lat="45.82693" lon="5.47213">
        <ele>463</ele>
        <time>2021-06-06T09:18:22.450Z</time>
      </trkpt>
      <trkpt lat="45.82686" lon="5.47209">
        <ele>462</ele>
        <time>2021-06-06T09:18:23.450Z</time>
      </trkpt>
      <trkpt lat="45.82678" lon="5.47206">
        <ele>462</ele>
        <time>2021-06-06T09:18:24.449Z</time>
      </trkpt>
      <trkpt lat="45.8267" lon="5.47204">
        <ele>461</ele>
        <time>2021-06-06T09:18:25.450Z</time>
      </trkpt>
      <trkpt lat="45.82662" lon="5.47202">
        <ele>460</ele>
        <time>2021-06-06T09:18:26.449Z</time>
      </trkpt>
      <trkpt lat="45.82653" lon="5.472">
        <ele>459</ele>
        <time>2021-06-06T09:18:27.450Z</time>
      </trkpt>
      <trkpt lat="45.82644" lon="5.47196">
        <ele>459</ele>
        <time>2021-06-06T09:18:28.450Z</time>
      </trkpt>
      <trkpt lat="45.82634" lon="5.47194">
        <ele>459</ele>
        <time>2021-06-06T09:18:29.449Z</time>
      </trkpt>
      <trkpt lat="45.82625" lon="5.47192">
        <ele>458</ele>
        <time>2021-06-06T09:18:30.450Z</time>
      </trkpt>
      <trkpt lat="45.82617" lon="5.4719">
        <ele>458</ele>
        <time>2021-06-06T09:18:31.449Z</time>
      </trkpt>
      <trkpt lat="45.82609" lon="5.47187">
        <ele>458</ele>
        <time>2021-06-06T09:18:32.450Z</time>
      </trkpt>
      <trkpt lat="45.82601" lon="5.47183">
        <ele>458</ele>
        <time>2021-06-06T09:18:33.450Z</time>
      </trkpt>
      <trkpt lat="45.82595" lon="5.47176">
        <ele>457</ele>
        <time>2021-06-06T09:18:34.449Z</time>
      </trkpt>
      <trkpt lat="45.8259" lon="5.47168">
        <ele>457</ele>
        <time>2021-06-06T09:18:35.450Z</time>
      </trkpt>
      <trkpt lat="45.82586" lon="5.47158">
        <ele>457</ele>
        <time>2021-06-06T09:18:36.449Z</time>
      </trkpt>
      <trkpt lat="45.82583" lon="5.47147">
        <ele>457</ele>
        <time>2021-06-06T09:18:37.450Z</time>
      </trkpt>
      <trkpt lat="45.82582" lon="5.47135">
        <ele>456</ele>
        <time>2021-06-06T09:18:38.450Z</time>
      </trkpt>
      <trkpt lat="45.82583" lon="5.47123">
        <ele>456</ele>
        <time>2021-06-06T09:18:39.450Z</time>
      </trkpt>
      <trkpt lat="45.82584" lon="5.47109">
        <ele>456</ele>
        <time>2021-06-06T09:18:40.449Z</time>
      </trkpt>
      <trkpt lat="45.82584" lon="5.47095">
        <ele>456</ele>
        <time>2021-06-06T09:18:41.450Z</time>
      </trkpt>
      <trkpt lat="45.82583" lon="5.47081">
        <ele>457</ele>
        <time>2021-06-06T09:18:42.450Z</time>
      </trkpt>
      <trkpt lat="45.82581" lon="5.47067">
        <ele>457</ele>
        <time>2021-06-06T09:18:43.450Z</time>
      </trkpt>
      <trkpt lat="45.82578" lon="5.47053">
        <ele>457</ele>
        <time>2021-06-06T09:18:44.450Z</time>
      </trkpt>
      <trkpt lat="45.82577" lon="5.47038">
        <ele>457</ele>
        <time>2021-06-06T09:18:45.449Z</time>
      </trkpt>
      <trkpt lat="45.82576" lon="5.47023">
        <ele>457</ele>
        <time>2021-06-06T09:18:46.449Z</time>
      </trkpt>
      <trkpt lat="45.82575" lon="5.47007">
        <ele>456</ele>
        <time>2021-06-06T09:18:47.450Z</time>
      </trkpt>
      <trkpt lat="45.82573" lon="5.46991">
        <ele>456</ele>
        <time>2021-06-06T09:18:48.450Z</time>
      </trkpt>
      <trkpt lat="45.8257" lon="5.46976">
        <ele>456</ele>
        <time>2021-06-06T09:18:49.450Z</time>
      </trkpt>
      <trkpt lat="45.82566" lon="5.46961">
        <ele>456</ele>
        <time>2021-06-06T09:18:50.449Z</time>
      </trkpt>
      <trkpt lat="45.82562" lon="5.46948">
        <ele>455</ele>
        <time>2021-06-06T09:18:51.450Z</time>
      </trkpt>
      <trkpt lat="45.82558" lon="5.46935">
        <ele>455</ele>
        <time>2021-06-06T09:18:52.450Z</time>
      </trkpt>
      <trkpt lat="45.82556" lon="5.46922">
        <ele>455</ele>
        <time>2021-06-06T09:18:53.450Z</time>
      </trkpt>
      <trkpt lat="45.82556" lon="5.46909">
        <ele>454</ele>
        <time>2021-06-06T09:18:54.450Z</time>
      </trkpt>
      <trkpt lat="45.82556" lon="5.46895">
        <ele>454</ele>
        <time>2021-06-06T09:18:55.449Z</time>
      </trkpt>
      <trkpt lat="45.82558" lon="5.4688">
        <ele>453</ele>
        <time>2021-06-06T09:18:56.450Z</time>
      </trkpt>
      <trkpt lat="45.8256" lon="5.46866">
        <ele>453</ele>
        <time>2021-06-06T09:18:57.450Z</time>
      </trkpt>
      <trkpt lat="45.82562" lon="5.46852">
        <ele>453</ele>
        <time>2021-06-06T09:18:58.450Z</time>
      </trkpt>
      <trkpt lat="45.82564" lon="5.46837">
        <ele>452</ele>
        <time>2021-06-06T09:18:59.449Z</time>
      </trkpt>
      <trkpt lat="45.82564" lon="5.46822">
        <ele>451</ele>
        <time>2021-06-06T09:19:00.449Z</time>
      </trkpt>
      <trkpt lat="45.82564" lon="5.46809">
        <ele>450</ele>
        <time>2021-06-06T09:19:01.449Z</time>
      </trkpt>
      <trkpt lat="45.82563" lon="5.46797">
        <ele>449</ele>
        <time>2021-06-06T09:19:02.450Z</time>
      </trkpt>
      <trkpt lat="45.82561" lon="5.46786">
        <ele>448</ele>
        <time>2021-06-06T09:19:03.450Z</time>
      </trkpt>
      <trkpt lat="45.82556" lon="5.46778">
        <ele>447</ele>
        <time>2021-06-06T09:19:04.450Z</time>
      </trkpt>
      <trkpt lat="45.8255" lon="5.46773">
        <ele>447</ele>
        <time>2021-06-06T09:19:05.449Z</time>
      </trkpt>
      <trkpt lat="45.82543" lon="5.46771">
        <ele>446</ele>
        <time>2021-06-06T09:19:06.450Z</time>
      </trkpt>
      <trkpt lat="45.82534" lon="5.46771">
        <ele>445</ele>
        <time>2021-06-06T09:19:07.450Z</time>
      </trkpt>
      <trkpt lat="45.82524" lon="5.46775">
        <ele>445</ele>
        <time>2021-06-06T09:19:08.450Z</time>
      </trkpt>
      <trkpt lat="45.82514" lon="5.46779">
        <ele>444</ele>
        <time>2021-06-06T09:19:09.449Z</time>
      </trkpt>
      <trkpt lat="45.82504" lon="5.46783">
        <ele>444</ele>
        <time>2021-06-06T09:19:10.449Z</time>
      </trkpt>
      <trkpt lat="45.82494" lon="5.46786">
        <ele>443</ele>
        <time>2021-06-06T09:19:11.449Z</time>
      </trkpt>
      <trkpt lat="45.82484" lon="5.46788">
        <ele>442</ele>
        <time>2021-06-06T09:19:12.450Z</time>
      </trkpt>
      <trkpt lat="45.82474" lon="5.46788">
        <ele>441</ele>
        <time>2021-06-06T09:19:13.450Z</time>
      </trkpt>
      <trkpt lat="45.82463" lon="5.46787">
        <ele>440</ele>
        <time>2021-06-06T09:19:14.449Z</time>
      </trkpt>
      <trkpt lat="45.82452" lon="5.46785">
        <ele>440</ele>
        <time>2021-06-06T09:19:15.449Z</time>
      </trkpt>
      <trkpt lat="45.82441" lon="5.46783">
        <ele>439</ele>
        <time>2021-06-06T09:19:16.449Z</time>
      </trkpt>
      <trkpt lat="45.8243" lon="5.46779">
        <ele>439</ele>
        <time>2021-06-06T09:19:17.450Z</time>
      </trkpt>
      <trkpt lat="45.82418" lon="5.46777">
        <ele>438</ele>
        <time>2021-06-06T09:19:18.449Z</time>
      </trkpt>
      <trkpt lat="45.82407" lon="5.46774">
        <ele>437</ele>
        <time>2021-06-06T09:19:19.449Z</time>
      </trkpt>
      <trkpt lat="45.82395" lon="5.46773">
        <ele>436</ele>
        <time>2021-06-06T09:19:20.449Z</time>
      </trkpt>
      <trkpt lat="45.82383" lon="5.46774">
        <ele>435</ele>
        <time>2021-06-06T09:19:21.449Z</time>
      </trkpt>
      <trkpt lat="45.82371" lon="5.46774">
        <ele>434</ele>
        <time>2021-06-06T09:19:22.450Z</time>
      </trkpt>
      <trkpt lat="45.8236" lon="5.46773">
        <ele>433</ele>
        <time>2021-06-06T09:19:23.450Z</time>
      </trkpt>
      <trkpt lat="45.82349" lon="5.46771">
        <ele>432</ele>
        <time>2021-06-06T09:19:24.449Z</time>
      </trkpt>
      <trkpt lat="45.82338" lon="5.46767">
        <ele>431</ele>
        <time>2021-06-06T09:19:25.449Z</time>
      </trkpt>
      <trkpt lat="45.82328" lon="5.4676">
        <ele>430</ele>
        <time>2021-06-06T09:19:26.449Z</time>
      </trkpt>
      <trkpt lat="45.82318" lon="5.46752">
        <ele>429</ele>
        <time>2021-06-06T09:19:27.449Z</time>
      </trkpt>
      <trkpt lat="45.82311" lon="5.46744">
        <ele>428</ele>
        <time>2021-06-06T09:19:28.450Z</time>
      </trkpt>
      <trkpt lat="45.82301" lon="5.4673">
        <ele>427</ele>
        <time>2021-06-06T09:19:29.449Z</time>
      </trkpt>
      <trkpt lat="45.82293" lon="5.46718">
        <ele>425</ele>
        <time>2021-06-06T09:19:30.449Z</time>
      </trkpt>
      <trkpt lat="45.82285" lon="5.46705">
        <ele>424</ele>
        <time>2021-06-06T09:19:31.449Z</time>
      </trkpt>
      <trkpt lat="45.82278" lon="5.46692">
        <ele>423</ele>
        <time>2021-06-06T09:19:32.450Z</time>
      </trkpt>
      <trkpt lat="45.8227" lon="5.46677">
        <ele>422</ele>
        <time>2021-06-06T09:19:33.450Z</time>
      </trkpt>
      <trkpt lat="45.82264" lon="5.46664">
        <ele>420</ele>
        <time>2021-06-06T09:19:34.449Z</time>
      </trkpt>
      <trkpt lat="45.82257" lon="5.46652">
        <ele>419</ele>
        <time>2021-06-06T09:19:35.449Z</time>
      </trkpt>
      <trkpt lat="45.8225" lon="5.46643">
        <ele>418</ele>
        <time>2021-06-06T09:19:36.449Z</time>
      </trkpt>
      <trkpt lat="45.82243" lon="5.46636">
        <ele>416</ele>
        <time>2021-06-06T09:19:37.449Z</time>
      </trkpt>
      <trkpt lat="45.82234" lon="5.46633">
        <ele>415</ele>
        <time>2021-06-06T09:19:38.449Z</time>
      </trkpt>
      <trkpt lat="45.82224" lon="5.46631">
        <ele>414</ele>
        <time>2021-06-06T09:19:39.449Z</time>
      </trkpt>
      <trkpt lat="45.82214" lon="5.46629">
        <ele>413</ele>
        <time>2021-06-06T09:19:40.449Z</time>
      </trkpt>
      <trkpt lat="45.82203" lon="5.46627">
        <ele>412</ele>
        <time>2021-06-06T09:19:41.449Z</time>
      </trkpt>
      <trkpt lat="45.82192" lon="5.46624">
        <ele>412</ele>
        <time>2021-06-06T09:19:42.450Z</time>
      </trkpt>
      <trkpt lat="45.82181" lon="5.46622">
        <ele>411</ele>
        <time>2021-06-06T09:19:43.449Z</time>
      </trkpt>
      <trkpt lat="45.82169" lon="5.46619">
        <ele>411</ele>
        <time>2021-06-06T09:19:44.449Z</time>
      </trkpt>
      <trkpt lat="45.82157" lon="5.46616">
        <ele>411</ele>
        <time>2021-06-06T09:19:45.449Z</time>
      </trkpt>
      <trkpt lat="45.82146" lon="5.46611">
        <ele>411</ele>
        <time>2021-06-06T09:19:46.450Z</time>
      </trkpt>
      <trkpt lat="45.82134" lon="5.46606">
        <ele>411</ele>
        <time>2021-06-06T09:19:47.449Z</time>
      </trkpt>
      <trkpt lat="45.82123" lon="5.466">
        <ele>411</ele>
        <time>2021-06-06T09:19:48.450Z</time>
      </trkpt>
      <trkpt lat="45.82111" lon="5.46594">
        <ele>410</ele>
        <time>2021-06-06T09:19:49.450Z</time>
      </trkpt>
      <trkpt lat="45.82099" lon="5.46589">
        <ele>410</ele>
        <time>2021-06-06T09:19:50.450Z</time>
      </trkpt>
      <trkpt lat="45.82088" lon="5.46583">
        <ele>409</ele>
        <time>2021-06-06T09:19:51.450Z</time>
      </trkpt>
      <trkpt lat="45.82077" lon="5.46577">
        <ele>408</ele>
        <time>2021-06-06T09:19:52.450Z</time>
      </trkpt>
      <trkpt lat="45.82065" lon="5.46572">
        <ele>408</ele>
        <time>2021-06-06T09:19:53.450Z</time>
      </trkpt>
      <trkpt lat="45.82054" lon="5.46567">
        <ele>407</ele>
        <time>2021-06-06T09:19:54.450Z</time>
      </trkpt>
      <trkpt lat="45.82042" lon="5.46564">
        <ele>406</ele>
        <time>2021-06-06T09:19:55.450Z</time>
      </trkpt>
      <trkpt lat="45.82031" lon="5.46562">
        <ele>405</ele>
        <time>2021-06-06T09:19:56.450Z</time>
      </trkpt>
      <trkpt lat="45.82019" lon="5.46562">
        <ele>404</ele>
        <time>2021-06-06T09:19:57.450Z</time>
      </trkpt>
      <trkpt lat="45.82008" lon="5.46563">
        <ele>403</ele>
        <time>2021-06-06T09:19:58.449Z</time>
      </trkpt>
      <trkpt lat="45.81996" lon="5.46565">
        <ele>401</ele>
        <time>2021-06-06T09:19:59.450Z</time>
      </trkpt>
      <trkpt lat="45.81985" lon="5.46566">
        <ele>400</ele>
        <time>2021-06-06T09:20:00.450Z</time>
      </trkpt>
      <trkpt lat="45.81973" lon="5.46567">
        <ele>399</ele>
        <time>2021-06-06T09:20:01.450Z</time>
      </trkpt>
      <trkpt lat="45.81961" lon="5.46566">
        <ele>398</ele>
        <time>2021-06-06T09:20:02.450Z</time>
      </trkpt>
      <trkpt lat="45.81949" lon="5.46565">
        <ele>397</ele>
        <time>2021-06-06T09:20:03.449Z</time>
      </trkpt>
      <trkpt lat="45.81938" lon="5.46563">
        <ele>396</ele>
        <time>2021-06-06T09:20:04.450Z</time>
      </trkpt>
      <trkpt lat="45.81926" lon="5.46562">
        <ele>395</ele>
        <time>2021-06-06T09:20:05.450Z</time>
      </trkpt>
      <trkpt lat="45.81914" lon="5.46562">
        <ele>393</ele>
        <time>2021-06-06T09:20:06.449Z</time>
      </trkpt>
      <trkpt lat="45.81901" lon="5.46562">
        <ele>392</ele>
        <time>2021-06-06T09:20:07.450Z</time>
      </trkpt>
      <trkpt lat="45.81889" lon="5.46563">
        <ele>391</ele>
        <time>2021-06-06T09:20:08.449Z</time>
      </trkpt>
      <trkpt lat="45.81877" lon="5.46565">
        <ele>390</ele>
        <time>2021-06-06T09:20:09.450Z</time>
      </trkpt>
      <trkpt lat="45.81867" lon="5.46567">
        <ele>389</ele>
        <time>2021-06-06T09:20:10.450Z</time>
      </trkpt>
      <trkpt lat="45.81852" lon="5.46572">
        <ele>389</ele>
        <time>2021-06-06T09:20:11.449Z</time>
      </trkpt>
      <trkpt lat="45.8184" lon="5.46577">
        <ele>388</ele>
        <time>2021-06-06T09:20:12.450Z</time>
      </trkpt>
      <trkpt lat="45.81828" lon="5.46582">
        <ele>387</ele>
        <time>2021-06-06T09:20:13.450Z</time>
      </trkpt>
      <trkpt lat="45.81817" lon="5.46588">
        <ele>386</ele>
        <time>2021-06-06T09:20:14.449Z</time>
      </trkpt>
      <trkpt lat="45.81806" lon="5.46593">
        <ele>385</ele>
        <time>2021-06-06T09:20:15.449Z</time>
      </trkpt>
      <trkpt lat="45.81795" lon="5.46595">
        <ele>384</ele>
        <time>2021-06-06T09:20:16.450Z</time>
      </trkpt>
      <trkpt lat="45.81785" lon="5.46595">
        <ele>383</ele>
        <time>2021-06-06T09:20:17.450Z</time>
      </trkpt>
      <trkpt lat="45.81774" lon="5.46591">
        <ele>383</ele>
        <time>2021-06-06T09:20:18.450Z</time>
      </trkpt>
      <trkpt lat="45.81763" lon="5.46586">
        <ele>382</ele>
        <time>2021-06-06T09:20:19.450Z</time>
      </trkpt>
      <trkpt lat="45.81753" lon="5.4658">
        <ele>381</ele>
        <time>2021-06-06T09:20:20.450Z</time>
      </trkpt>
      <trkpt lat="45.81743" lon="5.46573">
        <ele>379</ele>
        <time>2021-06-06T09:20:21.450Z</time>
      </trkpt>
      <trkpt lat="45.81732" lon="5.46565">
        <ele>378</ele>
        <time>2021-06-06T09:20:22.449Z</time>
      </trkpt>
      <trkpt lat="45.81721" lon="5.46558">
        <ele>378</ele>
        <time>2021-06-06T09:20:23.450Z</time>
      </trkpt>
      <trkpt lat="45.81711" lon="5.4655">
        <ele>377</ele>
        <time>2021-06-06T09:20:24.450Z</time>
      </trkpt>
      <trkpt lat="45.81701" lon="5.46543">
        <ele>376</ele>
        <time>2021-06-06T09:20:25.449Z</time>
      </trkpt>
      <trkpt lat="45.81691" lon="5.46535">
        <ele>375</ele>
        <time>2021-06-06T09:20:26.449Z</time>
      </trkpt>
      <trkpt lat="45.81681" lon="5.46526">
        <ele>374</ele>
        <time>2021-06-06T09:20:27.449Z</time>
      </trkpt>
      <trkpt lat="45.8167" lon="5.46518">
        <ele>374</ele>
        <time>2021-06-06T09:20:28.449Z</time>
      </trkpt>
      <trkpt lat="45.81661" lon="5.46512">
        <ele>373</ele>
        <time>2021-06-06T09:20:29.449Z</time>
      </trkpt>
      <trkpt lat="45.81651" lon="5.46506">
        <ele>372</ele>
        <time>2021-06-06T09:20:30.450Z</time>
      </trkpt>
      <trkpt lat="45.81641" lon="5.46503">
        <ele>372</ele>
        <time>2021-06-06T09:20:31.449Z</time>
      </trkpt>
      <trkpt lat="45.81631" lon="5.46501">
        <ele>371</ele>
        <time>2021-06-06T09:20:32.450Z</time>
      </trkpt>
      <trkpt lat="45.81621" lon="5.46502">
        <ele>370</ele>
        <time>2021-06-06T09:20:33.450Z</time>
      </trkpt>
      <trkpt lat="45.81611" lon="5.46503">
        <ele>370</ele>
        <time>2021-06-06T09:20:34.449Z</time>
      </trkpt>
      <trkpt lat="45.81602" lon="5.46507">
        <ele>369</ele>
        <time>2021-06-06T09:20:35.450Z</time>
      </trkpt>
      <trkpt lat="45.81592" lon="5.46514">
        <ele>369</ele>
        <time>2021-06-06T09:20:36.450Z</time>
      </trkpt>
      <trkpt lat="45.81582" lon="5.4652">
        <ele>369</ele>
        <time>2021-06-06T09:20:37.450Z</time>
      </trkpt>
      <trkpt lat="45.81572" lon="5.46528">
        <ele>368</ele>
        <time>2021-06-06T09:20:38.450Z</time>
      </trkpt>
      <trkpt lat="45.81562" lon="5.46535">
        <ele>368</ele>
        <time>2021-06-06T09:20:39.450Z</time>
      </trkpt>
      <trkpt lat="45.81553" lon="5.46544">
        <ele>368</ele>
        <time>2021-06-06T09:20:40.450Z</time>
      </trkpt>
      <trkpt lat="45.81544" lon="5.46554">
        <ele>368</ele>
        <time>2021-06-06T09:20:41.450Z</time>
      </trkpt>
      <trkpt lat="45.81536" lon="5.46565">
        <ele>367</ele>
        <time>2021-06-06T09:20:42.450Z</time>
      </trkpt>
      <trkpt lat="45.81529" lon="5.46578">
        <ele>367</ele>
        <time>2021-06-06T09:20:43.450Z</time>
      </trkpt>
      <trkpt lat="45.81521" lon="5.4659">
        <ele>367</ele>
        <time>2021-06-06T09:20:44.450Z</time>
      </trkpt>
      <trkpt lat="45.81514" lon="5.46603">
        <ele>367</ele>
        <time>2021-06-06T09:20:45.449Z</time>
      </trkpt>
      <trkpt lat="45.81505" lon="5.46613">
        <ele>367</ele>
        <time>2021-06-06T09:20:46.449Z</time>
      </trkpt>
      <trkpt lat="45.81494" lon="5.46622">
        <ele>367</ele>
        <time>2021-06-06T09:20:47.450Z</time>
      </trkpt>
      <trkpt lat="45.81484" lon="5.46626">
        <ele>367</ele>
        <time>2021-06-06T09:20:48.450Z</time>
      </trkpt>
      <trkpt lat="45.81473" lon="5.46629">
        <ele>367</ele>
        <time>2021-06-06T09:20:49.450Z</time>
      </trkpt>
      <trkpt lat="45.81462" lon="5.46632">
        <ele>367</ele>
        <time>2021-06-06T09:20:50.449Z</time>
      </trkpt>
      <trkpt lat="45.81451" lon="5.46632">
        <ele>367</ele>
        <time>2021-06-06T09:20:51.450Z</time>
      </trkpt>
      <trkpt lat="45.81438" lon="5.46632">
        <ele>366</ele>
        <time>2021-06-06T09:20:52.450Z</time>
      </trkpt>
      <trkpt lat="45.81427" lon="5.4663">
        <ele>366</ele>
        <time>2021-06-06T09:20:53.450Z</time>
      </trkpt>
      <trkpt lat="45.81416" lon="5.46625">
        <ele>365</ele>
        <time>2021-06-06T09:20:54.449Z</time>
      </trkpt>
      <trkpt lat="45.81405" lon="5.46618">
        <ele>365</ele>
        <time>2021-06-06T09:20:55.449Z</time>
      </trkpt>
      <trkpt lat="45.81395" lon="5.46608">
        <ele>364</ele>
        <time>2021-06-06T09:20:56.449Z</time>
      </trkpt>
      <trkpt lat="45.81385" lon="5.46598">
        <ele>363</ele>
        <time>2021-06-06T09:20:57.450Z</time>
      </trkpt>
      <trkpt lat="45.81376" lon="5.46586">
        <ele>362</ele>
        <time>2021-06-06T09:20:58.450Z</time>
      </trkpt>
      <trkpt lat="45.81368" lon="5.46573">
        <ele>362</ele>
        <time>2021-06-06T09:20:59.450Z</time>
      </trkpt>
      <trkpt lat="45.81359" lon="5.46561">
        <ele>361</ele>
        <time>2021-06-06T09:21:00.450Z</time>
      </trkpt>
      <trkpt lat="45.81349" lon="5.46551">
        <ele>361</ele>
        <time>2021-06-06T09:21:01.450Z</time>
      </trkpt>
      <trkpt lat="45.81339" lon="5.46542">
        <ele>360</ele>
        <time>2021-06-06T09:21:02.449Z</time>
      </trkpt>
      <trkpt lat="45.81328" lon="5.46534">
        <ele>359</ele>
        <time>2021-06-06T09:21:03.449Z</time>
      </trkpt>
      <trkpt lat="45.81317" lon="5.46527">
        <ele>359</ele>
        <time>2021-06-06T09:21:04.450Z</time>
      </trkpt>
      <trkpt lat="45.81305" lon="5.46521">
        <ele>358</ele>
        <time>2021-06-06T09:21:05.450Z</time>
      </trkpt>
      <trkpt lat="45.81295" lon="5.46514">
        <ele>358</ele>
        <time>2021-06-06T09:21:06.449Z</time>
      </trkpt>
      <trkpt lat="45.81285" lon="5.46507">
        <ele>357</ele>
        <time>2021-06-06T09:21:07.450Z</time>
      </trkpt>
      <trkpt lat="45.81277" lon="5.46497">
        <ele>356</ele>
        <time>2021-06-06T09:21:08.450Z</time>
      </trkpt>
      <trkpt lat="45.81271" lon="5.46485">
        <ele>355</ele>
        <time>2021-06-06T09:21:09.450Z</time>
      </trkpt>
      <trkpt lat="45.81266" lon="5.46472">
        <ele>354</ele>
        <time>2021-06-06T09:21:10.450Z</time>
      </trkpt>
      <trkpt lat="45.81261" lon="5.46458">
        <ele>353</ele>
        <time>2021-06-06T09:21:11.449Z</time>
      </trkpt>
      <trkpt lat="45.81256" lon="5.46443">
        <ele>352</ele>
        <time>2021-06-06T09:21:12.450Z</time>
      </trkpt>
      <trkpt lat="45.8125" lon="5.46429">
        <ele>351</ele>
        <time>2021-06-06T09:21:13.450Z</time>
      </trkpt>
      <trkpt lat="45.81243" lon="5.46416">
        <ele>351</ele>
        <time>2021-06-06T09:21:14.449Z</time>
      </trkpt>
      <trkpt lat="45.81236" lon="5.46403">
        <ele>350</ele>
        <time>2021-06-06T09:21:15.450Z</time>
      </trkpt>
      <trkpt lat="45.81228" lon="5.4639">
        <ele>349</ele>
        <time>2021-06-06T09:21:16.449Z</time>
      </trkpt>
      <trkpt lat="45.8122" lon="5.46377">
        <ele>349</ele>
        <time>2021-06-06T09:21:17.450Z</time>
      </trkpt>
      <trkpt lat="45.81211" lon="5.46365">
        <ele>348</ele>
        <time>2021-06-06T09:21:18.450Z</time>
      </trkpt>
      <trkpt lat="45.81202" lon="5.46353">
        <ele>348</ele>
        <time>2021-06-06T09:21:19.450Z</time>
      </trkpt>
      <trkpt lat="45.81192" lon="5.46343">
        <ele>347</ele>
        <time>2021-06-06T09:21:20.450Z</time>
      </trkpt>
      <trkpt lat="45.81182" lon="5.46333">
        <ele>347</ele>
        <time>2021-06-06T09:21:21.450Z</time>
      </trkpt>
      <trkpt lat="45.81171" lon="5.46325">
        <ele>346</ele>
        <time>2021-06-06T09:21:22.449Z</time>
      </trkpt>
      <trkpt lat="45.8116" lon="5.46318">
        <ele>345</ele>
        <time>2021-06-06T09:21:23.449Z</time>
      </trkpt>
      <trkpt lat="45.81149" lon="5.46311">
        <ele>344</ele>
        <time>2021-06-06T09:21:24.449Z</time>
      </trkpt>
      <trkpt lat="45.81138" lon="5.46303">
        <ele>343</ele>
        <time>2021-06-06T09:21:25.449Z</time>
      </trkpt>
      <trkpt lat="45.81127" lon="5.46294">
        <ele>342</ele>
        <time>2021-06-06T09:21:26.450Z</time>
      </trkpt>
      <trkpt lat="45.81117" lon="5.46286">
        <ele>341</ele>
        <time>2021-06-06T09:21:27.450Z</time>
      </trkpt>
      <trkpt lat="45.81106" lon="5.46277">
        <ele>341</ele>
        <time>2021-06-06T09:21:28.449Z</time>
      </trkpt>
      <trkpt lat="45.81097" lon="5.46268">
        <ele>340</ele>
        <time>2021-06-06T09:21:29.449Z</time>
      </trkpt>
      <trkpt lat="45.81088" lon="5.46257">
        <ele>340</ele>
        <time>2021-06-06T09:21:30.450Z</time>
      </trkpt>
      <trkpt lat="45.81079" lon="5.46245">
        <ele>339</ele>
        <time>2021-06-06T09:21:31.450Z</time>
      </trkpt>
      <trkpt lat="45.81071" lon="5.46232">
        <ele>339</ele>
        <time>2021-06-06T09:21:32.450Z</time>
      </trkpt>
      <trkpt lat="45.81063" lon="5.46218">
        <ele>338</ele>
        <time>2021-06-06T09:21:33.450Z</time>
      </trkpt>
      <trkpt lat="45.81057" lon="5.46202">
        <ele>336</ele>
        <time>2021-06-06T09:21:34.449Z</time>
      </trkpt>
      <trkpt lat="45.81051" lon="5.46186">
        <ele>335</ele>
        <time>2021-06-06T09:21:35.449Z</time>
      </trkpt>
      <trkpt lat="45.81045" lon="5.4617">
        <ele>334</ele>
        <time>2021-06-06T09:21:36.450Z</time>
      </trkpt>
      <trkpt lat="45.81039" lon="5.46154">
        <ele>332</ele>
        <time>2021-06-06T09:21:37.450Z</time>
      </trkpt>
      <trkpt lat="45.81032" lon="5.46139">
        <ele>331</ele>
        <time>2021-06-06T09:21:38.450Z</time>
      </trkpt>
      <trkpt lat="45.81025" lon="5.46123">
        <ele>330</ele>
        <time>2021-06-06T09:21:39.449Z</time>
      </trkpt>
      <trkpt lat="45.81018" lon="5.46107">
        <ele>329</ele>
        <time>2021-06-06T09:21:40.450Z</time>
      </trkpt>
      <trkpt lat="45.8101" lon="5.46091">
        <ele>329</ele>
        <time>2021-06-06T09:21:41.449Z</time>
      </trkpt>
      <trkpt lat="45.81002" lon="5.46076">
        <ele>328</ele>
        <time>2021-06-06T09:21:42.449Z</time>
      </trkpt>
      <trkpt lat="45.80994" lon="5.4606">
        <ele>327</ele>
        <time>2021-06-06T09:21:43.449Z</time>
      </trkpt>
      <trkpt lat="45.80985" lon="5.46045">
        <ele>325</ele>
        <time>2021-06-06T09:21:44.450Z</time>
      </trkpt>
      <trkpt lat="45.80977" lon="5.4603">
        <ele>324</ele>
        <time>2021-06-06T09:21:45.450Z</time>
      </trkpt>
      <trkpt lat="45.80968" lon="5.46015">
        <ele>323</ele>
        <time>2021-06-06T09:21:46.450Z</time>
      </trkpt>
      <trkpt lat="45.8096" lon="5.45999">
        <ele>322</ele>
        <time>2021-06-06T09:21:47.449Z</time>
      </trkpt>
      <trkpt lat="45.80953" lon="5.45982">
        <ele>321</ele>
        <time>2021-06-06T09:21:48.450Z</time>
      </trkpt>
      <trkpt lat="45.80946" lon="5.45965">
        <ele>320</ele>
        <time>2021-06-06T09:21:49.450Z</time>
      </trkpt>
      <trkpt lat="45.80939" lon="5.45948">
        <ele>319</ele>
        <time>2021-06-06T09:21:50.450Z</time>
      </trkpt>
      <trkpt lat="45.80933" lon="5.4593">
        <ele>317</ele>
        <time>2021-06-06T09:21:51.450Z</time>
      </trkpt>
      <trkpt lat="45.80928" lon="5.45912">
        <ele>316</ele>
        <time>2021-06-06T09:21:52.450Z</time>
      </trkpt>
      <trkpt lat="45.80923" lon="5.45894">
        <ele>315</ele>
        <time>2021-06-06T09:21:53.450Z</time>
      </trkpt>
      <trkpt lat="45.80918" lon="5.45875">
        <ele>314</ele>
        <time>2021-06-06T09:21:54.450Z</time>
      </trkpt>
      <trkpt lat="45.80913" lon="5.45856">
        <ele>313</ele>
        <time>2021-06-06T09:21:55.449Z</time>
      </trkpt>
      <trkpt lat="45.80908" lon="5.45838">
        <ele>312</ele>
        <time>2021-06-06T09:21:56.450Z</time>
      </trkpt>
      <trkpt lat="45.80904" lon="5.45819">
        <ele>311</ele>
        <time>2021-06-06T09:21:57.449Z</time>
      </trkpt>
      <trkpt lat="45.80901" lon="5.458">
        <ele>311</ele>
        <time>2021-06-06T09:21:58.450Z</time>
      </trkpt>
      <trkpt lat="45.80897" lon="5.45781">
        <ele>310</ele>
        <time>2021-06-06T09:21:59.450Z</time>
      </trkpt>
      <trkpt lat="45.80893" lon="5.45764">
        <ele>309</ele>
        <time>2021-06-06T09:22:00.450Z</time>
      </trkpt>
      <trkpt lat="45.80888" lon="5.45747">
        <ele>309</ele>
        <time>2021-06-06T09:22:01.450Z</time>
      </trkpt>
      <trkpt lat="45.80882" lon="5.45731">
        <ele>308</ele>
        <time>2021-06-06T09:22:02.449Z</time>
      </trkpt>
      <trkpt lat="45.80875" lon="5.45715">
        <ele>307</ele>
        <time>2021-06-06T09:22:03.450Z</time>
      </trkpt>
      <trkpt lat="45.80866" lon="5.45701">
        <ele>306</ele>
        <time>2021-06-06T09:22:04.450Z</time>
      </trkpt>
      <trkpt lat="45.80857" lon="5.45687">
        <ele>306</ele>
        <time>2021-06-06T09:22:05.450Z</time>
      </trkpt>
      <trkpt lat="45.80849" lon="5.45673">
        <ele>306</ele>
        <time>2021-06-06T09:22:06.450Z</time>
      </trkpt>
      <trkpt lat="45.80843" lon="5.45658">
        <ele>304</ele>
        <time>2021-06-06T09:22:07.449Z</time>
      </trkpt>
      <trkpt lat="45.80838" lon="5.45643">
        <ele>302</ele>
        <time>2021-06-06T09:22:08.449Z</time>
      </trkpt>
      <trkpt lat="45.80834" lon="5.45627">
        <ele>301</ele>
        <time>2021-06-06T09:22:09.450Z</time>
      </trkpt>
      <trkpt lat="45.80832" lon="5.4561">
        <ele>299</ele>
        <time>2021-06-06T09:22:10.449Z</time>
      </trkpt>
      <trkpt lat="45.80831" lon="5.45593">
        <ele>297</ele>
        <time>2021-06-06T09:22:11.449Z</time>
      </trkpt>
      <trkpt lat="45.80832" lon="5.45576">
        <ele>295</ele>
        <time>2021-06-06T09:22:12.450Z</time>
      </trkpt>
      <trkpt lat="45.80834" lon="5.45559">
        <ele>293</ele>
        <time>2021-06-06T09:22:13.449Z</time>
      </trkpt>
      <trkpt lat="45.80838" lon="5.45543">
        <ele>291</ele>
        <time>2021-06-06T09:22:14.450Z</time>
      </trkpt>
      <trkpt lat="45.80843" lon="5.45528">
        <ele>289</ele>
        <time>2021-06-06T09:22:15.450Z</time>
      </trkpt>
      <trkpt lat="45.80849" lon="5.45513">
        <ele>287</ele>
        <time>2021-06-06T09:22:16.449Z</time>
      </trkpt>
      <trkpt lat="45.80857" lon="5.45499">
        <ele>285</ele>
        <time>2021-06-06T09:22:17.450Z</time>
      </trkpt>
      <trkpt lat="45.80865" lon="5.45487">
        <ele>283</ele>
        <time>2021-06-06T09:22:18.449Z</time>
      </trkpt>
      <trkpt lat="45.80874" lon="5.45475">
        <ele>281</ele>
        <time>2021-06-06T09:22:19.450Z</time>
      </trkpt>
      <trkpt lat="45.80883" lon="5.45465">
        <ele>280</ele>
        <time>2021-06-06T09:22:20.450Z</time>
      </trkpt>
      <trkpt lat="45.80893" lon="5.45456">
        <ele>278</ele>
        <time>2021-06-06T09:22:21.449Z</time>
      </trkpt>
      <trkpt lat="45.80904" lon="5.45447">
        <ele>276</ele>
        <time>2021-06-06T09:22:22.449Z</time>
      </trkpt>
      <trkpt lat="45.80914" lon="5.45438">
        <ele>275</ele>
        <time>2021-06-06T09:22:23.450Z</time>
      </trkpt>
      <trkpt lat="45.80923" lon="5.45429">
        <ele>273</ele>
        <time>2021-06-06T09:22:24.450Z</time>
      </trkpt>
      <trkpt lat="45.80933" lon="5.45421">
        <ele>272</ele>
        <time>2021-06-06T09:22:25.449Z</time>
      </trkpt>
      <trkpt lat="45.80943" lon="5.45412">
        <ele>271</ele>
        <time>2021-06-06T09:22:26.450Z</time>
      </trkpt>
      <trkpt lat="45.80953" lon="5.45404">
        <ele>269</ele>
        <time>2021-06-06T09:22:27.450Z</time>
      </trkpt>
      <trkpt lat="45.80963" lon="5.45397">
        <ele>268</ele>
        <time>2021-06-06T09:22:28.449Z</time>
      </trkpt>
      <trkpt lat="45.80973" lon="5.45389">
        <ele>266</ele>
        <time>2021-06-06T09:22:29.450Z</time>
      </trkpt>
      <trkpt lat="45.80983" lon="5.45381">
        <ele>265</ele>
        <time>2021-06-06T09:22:30.450Z</time>
      </trkpt>
      <trkpt lat="45.80993" lon="5.45374">
        <ele>263</ele>
        <time>2021-06-06T09:22:31.450Z</time>
      </trkpt>
      <trkpt lat="45.81003" lon="5.45366">
        <ele>262</ele>
        <time>2021-06-06T09:22:32.450Z</time>
      </trkpt>
      <trkpt lat="45.81013" lon="5.45359">
        <ele>260</ele>
        <time>2021-06-06T09:22:33.450Z</time>
      </trkpt>
      <trkpt lat="45.81023" lon="5.45351">
        <ele>258</ele>
        <time>2021-06-06T09:22:34.450Z</time>
      </trkpt>
      <trkpt lat="45.81033" lon="5.45343">
        <ele>257</ele>
        <time>2021-06-06T09:22:35.449Z</time>
      </trkpt>
      <trkpt lat="45.81043" lon="5.45336">
        <ele>255</ele>
        <time>2021-06-06T09:22:36.450Z</time>
      </trkpt>
      <trkpt lat="45.81053" lon="5.45329">
        <ele>254</ele>
        <time>2021-06-06T09:22:37.450Z</time>
      </trkpt>
      <trkpt lat="45.81063" lon="5.45322">
        <ele>253</ele>
        <time>2021-06-06T09:22:38.449Z</time>
      </trkpt>
      <trkpt lat="45.81073" lon="5.45316">
        <ele>252</ele>
        <time>2021-06-06T09:22:39.450Z</time>
      </trkpt>
      <trkpt lat="45.81084" lon="5.4531">
        <ele>251</ele>
        <time>2021-06-06T09:22:40.450Z</time>
      </trkpt>
      <trkpt lat="45.81095" lon="5.45305">
        <ele>250</ele>
        <time>2021-06-06T09:22:41.450Z</time>
      </trkpt>
      <trkpt lat="45.81105" lon="5.453">
        <ele>249</ele>
        <time>2021-06-06T09:22:42.450Z</time>
      </trkpt>
      <trkpt lat="45.81116" lon="5.45295">
        <ele>248</ele>
        <time>2021-06-06T09:22:43.449Z</time>
      </trkpt>
      <trkpt lat="45.81127" lon="5.4529">
        <ele>247</ele>
        <time>2021-06-06T09:22:44.449Z</time>
      </trkpt>
      <trkpt lat="45.81137" lon="5.45284">
        <ele>246</ele>
        <time>2021-06-06T09:22:45.450Z</time>
      </trkpt>
      <trkpt lat="45.81147" lon="5.45279">
        <ele>246</ele>
        <time>2021-06-06T09:22:46.450Z</time>
      </trkpt>
      <trkpt lat="45.81157" lon="5.45274">
        <ele>245</ele>
        <time>2021-06-06T09:22:47.449Z</time>
      </trkpt>
      <trkpt lat="45.81166" lon="5.45269">
        <ele>244</ele>
        <time>2021-06-06T09:22:48.450Z</time>
      </trkpt>
      <trkpt lat="45.81174" lon="5.45265">
        <ele>242</ele>
        <time>2021-06-06T09:22:49.450Z</time>
      </trkpt>
      <trkpt lat="45.81183" lon="5.45261">
        <ele>242</ele>
        <time>2021-06-06T09:22:50.450Z</time>
      </trkpt>
      <trkpt lat="45.8119" lon="5.45258">
        <ele>241</ele>
        <time>2021-06-06T09:22:51.449Z</time>
      </trkpt>
      <trkpt lat="45.81197" lon="5.45256">
        <ele>241</ele>
        <time>2021-06-06T09:22:52.450Z</time>
      </trkpt>
      <trkpt lat="45.81203" lon="5.45255">
        <ele>241</ele>
        <time>2021-06-06T09:22:53.449Z</time>
      </trkpt>
      <trkpt lat="45.81207" lon="5.45253">
        <ele>241</ele>
        <time>2021-06-06T09:22:54.450Z</time>
      </trkpt>
      <trkpt lat="45.81211" lon="5.4525">
        <ele>240</ele>
        <time>2021-06-06T09:22:55.450Z</time>
      </trkpt>
      <trkpt lat="45.81214" lon="5.45247">
        <ele>240</ele>
        <time>2021-06-06T09:22:56.450Z</time>
      </trkpt>
      <trkpt lat="45.81216" lon="5.45244">
        <ele>239</ele>
        <time>2021-06-06T09:22:57.450Z</time>
      </trkpt>
      <trkpt lat="45.81218" lon="5.4524">
        <ele>239</ele>
        <time>2021-06-06T09:22:58.450Z</time>
      </trkpt>
      <trkpt lat="45.81218" lon="5.45237">
        <ele>238</ele>
        <time>2021-06-06T09:22:59.450Z</time>
      </trkpt>
      <trkpt lat="45.81218" lon="5.45233">
        <ele>237</ele>
        <time>2021-06-06T09:23:00.449Z</time>
      </trkpt>
      <trkpt lat="45.81217" lon="5.4523">
        <ele>237</ele>
        <time>2021-06-06T09:23:01.450Z</time>
      </trkpt>
      <trkpt lat="45.81215" lon="5.45226">
        <ele>236</ele>
        <time>2021-06-06T09:23:02.450Z</time>
      </trkpt>
      <trkpt lat="45.81213" lon="5.45224">
        <ele>235</ele>
        <time>2021-06-06T09:23:03.450Z</time>
      </trkpt>
      <trkpt lat="45.81209" lon="5.45224">
        <ele>234</ele>
        <time>2021-06-06T09:23:04.449Z</time>
      </trkpt>
      <trkpt lat="45.81206" lon="5.45225">
        <ele>233</ele>
        <time>2021-06-06T09:23:05.450Z</time>
      </trkpt>
      <trkpt lat="45.81203" lon="5.45227">
        <ele>233</ele>
        <time>2021-06-06T09:23:06.450Z</time>
      </trkpt>
      <trkpt lat="45.81199" lon="5.45228">
        <ele>232</ele>
        <time>2021-06-06T09:23:07.450Z</time>
      </trkpt>
      <trkpt lat="45.81196" lon="5.4523">
        <ele>232</ele>
        <time>2021-06-06T09:23:08.449Z</time>
      </trkpt>
      <trkpt lat="45.81193" lon="5.45231">
        <ele>232</ele>
        <time>2021-06-06T09:23:09.450Z</time>
      </trkpt>
      <trkpt lat="45.8119" lon="5.45232">
        <ele>232</ele>
        <time>2021-06-06T09:23:10.449Z</time>
      </trkpt>
      <trkpt lat="45.81187" lon="5.45234">
        <ele>232</ele>
        <time>2021-06-06T09:23:11.449Z</time>
      </trkpt>
      <trkpt lat="45.81184" lon="5.45236">
        <ele>232</ele>
        <time>2021-06-06T09:23:12.450Z</time>
      </trkpt>
      <trkpt lat="45.81181" lon="5.45237">
        <ele>232</ele>
        <time>2021-06-06T09:23:13.450Z</time>
      </trkpt>
      <trkpt lat="45.81177" lon="5.45238">
        <ele>232</ele>
        <time>2021-06-06T09:23:14.450Z</time>
      </trkpt>
      <trkpt lat="45.81174" lon="5.4524">
        <ele>232</ele>
        <time>2021-06-06T09:23:15.449Z</time>
      </trkpt>
      <trkpt lat="45.8117" lon="5.45242">
        <ele>232</ele>
        <time>2021-06-06T09:23:16.449Z</time>
      </trkpt>
      <trkpt lat="45.81166" lon="5.45243">
        <ele>232</ele>
        <time>2021-06-06T09:23:17.450Z</time>
      </trkpt>
      <trkpt lat="45.81162" lon="5.45245">
        <ele>232</ele>
        <time>2021-06-06T09:23:18.450Z</time>
      </trkpt>
      <trkpt lat="45.81158" lon="5.45247">
        <ele>232</ele>
        <time>2021-06-06T09:23:19.450Z</time>
      </trkpt>
      <trkpt lat="45.81153" lon="5.45249">
        <ele>232</ele>
        <time>2021-06-06T09:23:20.450Z</time>
      </trkpt>
      <trkpt lat="45.81149" lon="5.45251">
        <ele>233</ele>
        <time>2021-06-06T09:23:21.449Z</time>
      </trkpt>
      <trkpt lat="45.81144" lon="5.45253">
        <ele>233</ele>
        <time>2021-06-06T09:23:22.449Z</time>
      </trkpt>
      <trkpt lat="45.81139" lon="5.45255">
        <ele>233</ele>
        <time>2021-06-06T09:23:23.450Z</time>
      </trkpt>
      <trkpt lat="45.81133" lon="5.45257">
        <ele>234</ele>
        <time>2021-06-06T09:23:24.450Z</time>
      </trkpt>
      <trkpt lat="45.81128" lon="5.45258">
        <ele>234</ele>
        <time>2021-06-06T09:23:25.450Z</time>
      </trkpt>
      <trkpt lat="45.81124" lon="5.4526">
        <ele>234</ele>
        <time>2021-06-06T09:23:26.449Z</time>
      </trkpt>
      <trkpt lat="45.81119" lon="5.45262">
        <ele>234</ele>
        <time>2021-06-06T09:23:27.450Z</time>
      </trkpt>
      <trkpt lat="45.81114" lon="5.45264">
        <ele>234</ele>
        <time>2021-06-06T09:23:28.449Z</time>
      </trkpt>
      <trkpt lat="45.81109" lon="5.45265">
        <ele>234</ele>
        <time>2021-06-06T09:23:29.450Z</time>
      </trkpt>
      <trkpt lat="45.81104" lon="5.45267">
        <ele>234</ele>
        <time>2021-06-06T09:23:30.450Z</time>
      </trkpt>
      <trkpt lat="45.81099" lon="5.45269">
        <ele>234</ele>
        <time>2021-06-06T09:23:31.450Z</time>
      </trkpt>
      <trkpt lat="45.81094" lon="5.45272">
        <ele>234</ele>
        <time>2021-06-06T09:23:32.450Z</time>
      </trkpt>
      <trkpt lat="45.81089" lon="5.45274">
        <ele>233</ele>
        <time>2021-06-06T09:23:33.449Z</time>
      </trkpt>
      <trkpt lat="45.81084" lon="5.45275">
        <ele>234</ele>
        <time>2021-06-06T09:23:34.450Z</time>
      </trkpt>
      <trkpt lat="45.81079" lon="5.45277">
        <ele>234</ele>
        <time>2021-06-06T09:23:35.449Z</time>
      </trkpt>
      <trkpt lat="45.81074" lon="5.45279">
        <ele>235</ele>
        <time>2021-06-06T09:23:36.450Z</time>
      </trkpt>
      <trkpt lat="45.81069" lon="5.4528">
        <ele>235</ele>
        <time>2021-06-06T09:23:37.450Z</time>
      </trkpt>
      <trkpt lat="45.81065" lon="5.45282">
        <ele>236</ele>
        <time>2021-06-06T09:23:38.450Z</time>
      </trkpt>
      <trkpt lat="45.8106" lon="5.45283">
        <ele>236</ele>
        <time>2021-06-06T09:23:39.449Z</time>
      </trkpt>
      <trkpt lat="45.81055" lon="5.45285">
        <ele>236</ele>
        <time>2021-06-06T09:23:40.450Z</time>
      </trkpt>
      <trkpt lat="45.81051" lon="5.45286">
        <ele>237</ele>
        <time>2021-06-06T09:23:41.450Z</time>
      </trkpt>
      <trkpt lat="45.81046" lon="5.45288">
        <ele>237</ele>
        <time>2021-06-06T09:23:42.450Z</time>
      </trkpt>
      <trkpt lat="45.81042" lon="5.45289">
        <ele>237</ele>
        <time>2021-06-06T09:23:43.450Z</time>
      </trkpt>
      <trkpt lat="45.81037" lon="5.45291">
        <ele>238</ele>
        <time>2021-06-06T09:23:44.449Z</time>
      </trkpt>
      <trkpt lat="45.81033" lon="5.45292">
        <ele>238</ele>
        <time>2021-06-06T09:23:45.449Z</time>
      </trkpt>
      <trkpt lat="45.81028" lon="5.45294">
        <ele>239</ele>
        <time>2021-06-06T09:23:46.449Z</time>
      </trkpt>
      <trkpt lat="45.81023" lon="5.45295">
        <ele>240</ele>
        <time>2021-06-06T09:23:47.450Z</time>
      </trkpt>
      <trkpt lat="45.81018" lon="5.45296">
        <ele>240</ele>
        <time>2021-06-06T09:23:48.449Z</time>
      </trkpt>
      <trkpt lat="45.81013" lon="5.45297">
        <ele>240</ele>
        <time>2021-06-06T09:23:49.450Z</time>
      </trkpt>
      <trkpt lat="45.81008" lon="5.45298">
        <ele>240</ele>
        <time>2021-06-06T09:23:50.450Z</time>
      </trkpt>
      <trkpt lat="45.81003" lon="5.45298">
        <ele>241</ele>
        <time>2021-06-06T09:23:51.450Z</time>
      </trkpt>
      <trkpt lat="45.80997" lon="5.45298">
        <ele>241</ele>
        <time>2021-06-06T09:23:52.450Z</time>
      </trkpt>
      <trkpt lat="45.80992" lon="5.45297">
        <ele>241</ele>
        <time>2021-06-06T09:23:53.450Z</time>
      </trkpt>
      <trkpt lat="45.80987" lon="5.45296">
        <ele>241</ele>
        <time>2021-06-06T09:23:54.450Z</time>
      </trkpt>
      <trkpt lat="45.80982" lon="5.45295">
        <ele>241</ele>
        <time>2021-06-06T09:23:55.450Z</time>
      </trkpt>
      <trkpt lat="45.80977" lon="5.45293">
        <ele>242</ele>
        <time>2021-06-06T09:23:56.450Z</time>
      </trkpt>
      <trkpt lat="45.80972" lon="5.45291">
        <ele>242</ele>
        <time>2021-06-06T09:23:57.450Z</time>
      </trkpt>
      <trkpt lat="45.80967" lon="5.45288">
        <ele>242</ele>
        <time>2021-06-06T09:23:58.450Z</time>
      </trkpt>
      <trkpt lat="45.80962" lon="5.45286">
        <ele>242</ele>
        <time>2021-06-06T09:23:59.449Z</time>
      </trkpt>
      <trkpt lat="45.80957" lon="5.45284">
        <ele>242</ele>
        <time>2021-06-06T09:24:00.450Z</time>
      </trkpt>
      <trkpt lat="45.80952" lon="5.45281">
        <ele>242</ele>
        <time>2021-06-06T09:24:01.450Z</time>
      </trkpt>
      <trkpt lat="45.80947" lon="5.45279">
        <ele>242</ele>
        <time>2021-06-06T09:24:02.449Z</time>
      </trkpt>
      <trkpt lat="45.80942" lon="5.45277">
        <ele>242</ele>
        <time>2021-06-06T09:24:03.450Z</time>
      </trkpt>
      <trkpt lat="45.80937" lon="5.45275">
        <ele>242</ele>
        <time>2021-06-06T09:24:04.449Z</time>
      </trkpt>
      <trkpt lat="45.80932" lon="5.45274">
        <ele>242</ele>
        <time>2021-06-06T09:24:05.450Z</time>
      </trkpt>
      <trkpt lat="45.80926" lon="5.45273">
        <ele>242</ele>
        <time>2021-06-06T09:24:06.449Z</time>
      </trkpt>
      <trkpt lat="45.80921" lon="5.45274">
        <ele>242</ele>
        <time>2021-06-06T09:24:07.450Z</time>
      </trkpt>
      <trkpt lat="45.80915" lon="5.45274">
        <ele>242</ele>
        <time>2021-06-06T09:24:08.450Z</time>
      </trkpt>
      <trkpt lat="45.8091" lon="5.45276">
        <ele>242</ele>
        <time>2021-06-06T09:24:09.450Z</time>
      </trkpt>
      <trkpt lat="45.80905" lon="5.45277">
        <ele>243</ele>
        <time>2021-06-06T09:24:10.450Z</time>
      </trkpt>
      <trkpt lat="45.809" lon="5.4528">
        <ele>243</ele>
        <time>2021-06-06T09:24:11.450Z</time>
      </trkpt>
      <trkpt lat="45.80896" lon="5.45282">
        <ele>243</ele>
        <time>2021-06-06T09:24:12.449Z</time>
      </trkpt>
      <trkpt lat="45.80891" lon="5.45285">
        <ele>243</ele>
        <time>2021-06-06T09:24:13.450Z</time>
      </trkpt>
      <trkpt lat="45.80887" lon="5.45288">
        <ele>243</ele>
        <time>2021-06-06T09:24:14.450Z</time>
      </trkpt>
      <trkpt lat="45.80882" lon="5.45291">
        <ele>243</ele>
        <time>2021-06-06T09:24:15.450Z</time>
      </trkpt>
      <trkpt lat="45.80878" lon="5.45294">
        <ele>244</ele>
        <time>2021-06-06T09:24:16.449Z</time>
      </trkpt>
      <trkpt lat="45.80873" lon="5.45298">
        <ele>244</ele>
        <time>2021-06-06T09:24:17.450Z</time>
      </trkpt>
      <trkpt lat="45.80869" lon="5.45302">
        <ele>244</ele>
        <time>2021-06-06T09:24:18.450Z</time>
      </trkpt>
      <trkpt lat="45.80864" lon="5.45305">
        <ele>245</ele>
        <time>2021-06-06T09:24:19.450Z</time>
      </trkpt>
      <trkpt lat="45.8086" lon="5.45309">
        <ele>245</ele>
        <time>2021-06-06T09:24:20.449Z</time>
      </trkpt>
      <trkpt lat="45.80855" lon="5.45312">
        <ele>245</ele>
        <time>2021-06-06T09:24:21.450Z</time>
      </trkpt>
      <trkpt lat="45.80851" lon="5.45315">
        <ele>245</ele>
        <time>2021-06-06T09:24:22.450Z</time>
      </trkpt>
      <trkpt lat="45.80846" lon="5.45318">
        <ele>246</ele>
        <time>2021-06-06T09:24:23.450Z</time>
      </trkpt>
      <trkpt lat="45.80842" lon="5.4532">
        <ele>246</ele>
        <time>2021-06-06T09:24:24.450Z</time>
      </trkpt>
      <trkpt lat="45.80837" lon="5.45323">
        <ele>247</ele>
        <time>2021-06-06T09:24:25.450Z</time>
      </trkpt>
      <trkpt lat="45.80832" lon="5.45326">
        <ele>247</ele>
        <time>2021-06-06T09:24:26.450Z</time>
      </trkpt>
      <trkpt lat="45.80827" lon="5.4533">
        <ele>247</ele>
        <time>2021-06-06T09:24:27.449Z</time>
      </trkpt>
      <trkpt lat="45.80822" lon="5.45333">
        <ele>247</ele>
        <time>2021-06-06T09:24:28.450Z</time>
      </trkpt>
      <trkpt lat="45.80817" lon="5.45335">
        <ele>248</ele>
        <time>2021-06-06T09:24:29.450Z</time>
      </trkpt>
      <trkpt lat="45.80811" lon="5.45338">
        <ele>247</ele>
        <time>2021-06-06T09:24:30.450Z</time>
      </trkpt>
      <trkpt lat="45.80805" lon="5.4534">
        <ele>247</ele>
        <time>2021-06-06T09:24:31.450Z</time>
      </trkpt>
      <trkpt lat="45.80799" lon="5.45341">
        <ele>247</ele>
        <time>2021-06-06T09:24:32.449Z</time>
      </trkpt>
      <trkpt lat="45.80792" lon="5.45342">
        <ele>247</ele>
        <time>2021-06-06T09:24:33.449Z</time>
      </trkpt>
      <trkpt lat="45.80785" lon="5.45343">
        <ele>248</ele>
        <time>2021-06-06T09:24:34.450Z</time>
      </trkpt>
      <trkpt lat="45.80779" lon="5.45344">
        <ele>248</ele>
        <time>2021-06-06T09:24:35.450Z</time>
      </trkpt>
      <trkpt lat="45.80772" lon="5.45345">
        <ele>248</ele>
        <time>2021-06-06T09:24:36.450Z</time>
      </trkpt>
      <trkpt lat="45.80766" lon="5.45347">
        <ele>248</ele>
        <time>2021-06-06T09:24:37.449Z</time>
      </trkpt>
      <trkpt lat="45.80759" lon="5.45349">
        <ele>248</ele>
        <time>2021-06-06T09:24:38.450Z</time>
      </trkpt>
      <trkpt lat="45.80752" lon="5.45351">
        <ele>248</ele>
        <time>2021-06-06T09:24:39.450Z</time>
      </trkpt>
      <trkpt lat="45.80746" lon="5.45353">
        <ele>248</ele>
        <time>2021-06-06T09:24:40.450Z</time>
      </trkpt>
      <trkpt lat="45.80739" lon="5.45354">
        <ele>248</ele>
        <time>2021-06-06T09:24:41.450Z</time>
      </trkpt>
      <trkpt lat="45.80733" lon="5.45355">
        <ele>248</ele>
        <time>2021-06-06T09:24:42.450Z</time>
      </trkpt>
      <trkpt lat="45.80726" lon="5.45356">
        <ele>248</ele>
        <time>2021-06-06T09:24:43.450Z</time>
      </trkpt>
      <trkpt lat="45.8072" lon="5.45357">
        <ele>249</ele>
        <time>2021-06-06T09:24:44.450Z</time>
      </trkpt>
      <trkpt lat="45.80713" lon="5.45358">
        <ele>249</ele>
        <time>2021-06-06T09:24:45.450Z</time>
      </trkpt>
      <trkpt lat="45.80707" lon="5.45359">
        <ele>249</ele>
        <time>2021-06-06T09:24:46.450Z</time>
      </trkpt>
      <trkpt lat="45.80701" lon="5.45359">
        <ele>249</ele>
        <time>2021-06-06T09:24:47.449Z</time>
      </trkpt>
      <trkpt lat="45.80694" lon="5.45361">
        <ele>249</ele>
        <time>2021-06-06T09:24:48.450Z</time>
      </trkpt>
      <trkpt lat="45.80688" lon="5.45362">
        <ele>249</ele>
        <time>2021-06-06T09:24:49.450Z</time>
      </trkpt>
      <trkpt lat="45.80682" lon="5.45365">
        <ele>249</ele>
        <time>2021-06-06T09:24:50.450Z</time>
      </trkpt>
      <trkpt lat="45.80675" lon="5.45367">
        <ele>249</ele>
        <time>2021-06-06T09:24:51.450Z</time>
      </trkpt>
      <trkpt lat="45.80668" lon="5.45369">
        <ele>249</ele>
        <time>2021-06-06T09:24:52.450Z</time>
      </trkpt>
      <trkpt lat="45.80662" lon="5.45371">
        <ele>250</ele>
        <time>2021-06-06T09:24:53.450Z</time>
      </trkpt>
      <trkpt lat="45.80655" lon="5.45374">
        <ele>250</ele>
        <time>2021-06-06T09:24:54.450Z</time>
      </trkpt>
      <trkpt lat="45.80648" lon="5.45377">
        <ele>250</ele>
        <time>2021-06-06T09:24:55.449Z</time>
      </trkpt>
      <trkpt lat="45.80641" lon="5.4538">
        <ele>251</ele>
        <time>2021-06-06T09:24:56.450Z</time>
      </trkpt>
      <trkpt lat="45.80635" lon="5.45382">
        <ele>251</ele>
        <time>2021-06-06T09:24:57.450Z</time>
      </trkpt>
      <trkpt lat="45.80628" lon="5.45385">
        <ele>251</ele>
        <time>2021-06-06T09:24:58.450Z</time>
      </trkpt>
      <trkpt lat="45.80621" lon="5.45388">
        <ele>251</ele>
        <time>2021-06-06T09:24:59.450Z</time>
      </trkpt>
      <trkpt lat="45.80615" lon="5.45389">
        <ele>250</ele>
        <time>2021-06-06T09:25:00.450Z</time>
      </trkpt>
      <trkpt lat="45.80609" lon="5.45392">
        <ele>249</ele>
        <time>2021-06-06T09:25:01.450Z</time>
      </trkpt>
      <trkpt lat="45.80603" lon="5.45394">
        <ele>248</ele>
        <time>2021-06-06T09:25:02.450Z</time>
      </trkpt>
      <trkpt lat="45.80596" lon="5.45396">
        <ele>247</ele>
        <time>2021-06-06T09:25:03.450Z</time>
      </trkpt>
      <trkpt lat="45.80591" lon="5.45397">
        <ele>246</ele>
        <time>2021-06-06T09:25:04.450Z</time>
      </trkpt>
      <trkpt lat="45.80585" lon="5.45398">
        <ele>246</ele>
        <time>2021-06-06T09:25:05.450Z</time>
      </trkpt>
      <trkpt lat="45.80579" lon="5.45397">
        <ele>246</ele>
        <time>2021-06-06T09:25:06.449Z</time>
      </trkpt>
      <trkpt lat="45.80574" lon="5.45396">
        <ele>246</ele>
        <time>2021-06-06T09:25:07.450Z</time>
      </trkpt>
      <trkpt lat="45.80569" lon="5.45395">
        <ele>245</ele>
        <time>2021-06-06T09:25:08.450Z</time>
      </trkpt>
      <trkpt lat="45.80564" lon="5.45392">
        <ele>245</ele>
        <time>2021-06-06T09:25:09.450Z</time>
      </trkpt>
      <trkpt lat="45.80559" lon="5.45389">
        <ele>244</ele>
        <time>2021-06-06T09:25:10.450Z</time>
      </trkpt>
      <trkpt lat="45.80554" lon="5.45388">
        <ele>244</ele>
        <time>2021-06-06T09:25:11.450Z</time>
      </trkpt>
      <trkpt lat="45.80549" lon="5.45386">
        <ele>243</ele>
        <time>2021-06-06T09:25:12.450Z</time>
      </trkpt>
      <trkpt lat="45.80543" lon="5.45384">
        <ele>243</ele>
        <time>2021-06-06T09:25:13.450Z</time>
      </trkpt>
      <trkpt lat="45.80538" lon="5.45383">
        <ele>243</ele>
        <time>2021-06-06T09:25:14.449Z</time>
      </trkpt>
      <trkpt lat="45.80532" lon="5.45382">
        <ele>243</ele>
        <time>2021-06-06T09:25:15.449Z</time>
      </trkpt>
      <trkpt lat="45.80526" lon="5.45382">
        <ele>243</ele>
        <time>2021-06-06T09:25:16.449Z</time>
      </trkpt>
      <trkpt lat="45.8052" lon="5.45383">
        <ele>243</ele>
        <time>2021-06-06T09:25:17.450Z</time>
      </trkpt>
      <trkpt lat="45.80514" lon="5.45386">
        <ele>243</ele>
        <time>2021-06-06T09:25:18.450Z</time>
      </trkpt>
      <trkpt lat="45.80507" lon="5.4539">
        <ele>243</ele>
        <time>2021-06-06T09:25:19.450Z</time>
      </trkpt>
      <trkpt lat="45.80501" lon="5.45394">
        <ele>244</ele>
        <time>2021-06-06T09:25:20.449Z</time>
      </trkpt>
      <trkpt lat="45.80495" lon="5.45398">
        <ele>244</ele>
        <time>2021-06-06T09:25:21.449Z</time>
      </trkpt>
      <trkpt lat="45.80488" lon="5.45402">
        <ele>244</ele>
        <time>2021-06-06T09:25:22.449Z</time>
      </trkpt>
      <trkpt lat="45.80481" lon="5.45407">
        <ele>244</ele>
        <time>2021-06-06T09:25:23.450Z</time>
      </trkpt>
      <trkpt lat="45.80475" lon="5.45411">
        <ele>244</ele>
        <time>2021-06-06T09:25:24.449Z</time>
      </trkpt>
      <trkpt lat="45.80468" lon="5.45415">
        <ele>244</ele>
        <time>2021-06-06T09:25:25.450Z</time>
      </trkpt>
      <trkpt lat="45.80462" lon="5.4542">
        <ele>244</ele>
        <time>2021-06-06T09:25:26.450Z</time>
      </trkpt>
      <trkpt lat="45.80455" lon="5.45425">
        <ele>244</ele>
        <time>2021-06-06T09:25:27.449Z</time>
      </trkpt>
      <trkpt lat="45.80449" lon="5.45429">
        <ele>244</ele>
        <time>2021-06-06T09:25:28.449Z</time>
      </trkpt>
      <trkpt lat="45.80443" lon="5.45434">
        <ele>244</ele>
        <time>2021-06-06T09:25:29.450Z</time>
      </trkpt>
      <trkpt lat="45.80437" lon="5.45439">
        <ele>244</ele>
        <time>2021-06-06T09:25:30.450Z</time>
      </trkpt>
      <trkpt lat="45.80431" lon="5.45444">
        <ele>244</ele>
        <time>2021-06-06T09:25:31.450Z</time>
      </trkpt>
      <trkpt lat="45.80424" lon="5.4545">
        <ele>244</ele>
        <time>2021-06-06T09:25:32.450Z</time>
      </trkpt>
      <trkpt lat="45.80418" lon="5.45455">
        <ele>244</ele>
        <time>2021-06-06T09:25:33.449Z</time>
      </trkpt>
      <trkpt lat="45.80412" lon="5.45461">
        <ele>244</ele>
        <time>2021-06-06T09:25:34.450Z</time>
      </trkpt>
      <trkpt lat="45.80406" lon="5.45468">
        <ele>244</ele>
        <time>2021-06-06T09:25:35.449Z</time>
      </trkpt>
      <trkpt lat="45.804" lon="5.45474">
        <ele>244</ele>
        <time>2021-06-06T09:25:36.450Z</time>
      </trkpt>
      <trkpt lat="45.80394" lon="5.45481">
        <ele>244</ele>
        <time>2021-06-06T09:25:37.449Z</time>
      </trkpt>
      <trkpt lat="45.80388" lon="5.45487">
        <ele>244</ele>
        <time>2021-06-06T09:25:38.450Z</time>
      </trkpt>
      <trkpt lat="45.80382" lon="5.45494">
        <ele>243</ele>
        <time>2021-06-06T09:25:39.450Z</time>
      </trkpt>
      <trkpt lat="45.80376" lon="5.45501">
        <ele>243</ele>
        <time>2021-06-06T09:25:40.450Z</time>
      </trkpt>
      <trkpt lat="45.8037" lon="5.45507">
        <ele>242</ele>
        <time>2021-06-06T09:25:41.450Z</time>
      </trkpt>
      <trkpt lat="45.80364" lon="5.45513">
        <ele>242</ele>
        <time>2021-06-06T09:25:42.449Z</time>
      </trkpt>
      <trkpt lat="45.80357" lon="5.45518">
        <ele>242</ele>
        <time>2021-06-06T09:25:43.450Z</time>
      </trkpt>
      <trkpt lat="45.80351" lon="5.45524">
        <ele>241</ele>
        <time>2021-06-06T09:25:44.449Z</time>
      </trkpt>
      <trkpt lat="45.80344" lon="5.45528">
        <ele>241</ele>
        <time>2021-06-06T09:25:45.450Z</time>
      </trkpt>
      <trkpt lat="45.80338" lon="5.45533">
        <ele>240</ele>
        <time>2021-06-06T09:25:46.450Z</time>
      </trkpt>
      <trkpt lat="45.80331" lon="5.45537">
        <ele>240</ele>
        <time>2021-06-06T09:25:47.450Z</time>
      </trkpt>
      <trkpt lat="45.80324" lon="5.45541">
        <ele>240</ele>
        <time>2021-06-06T09:25:48.449Z</time>
      </trkpt>
      <trkpt lat="45.80317" lon="5.45546">
        <ele>239</ele>
        <time>2021-06-06T09:25:49.449Z</time>
      </trkpt>
      <trkpt lat="45.8031" lon="5.4555">
        <ele>239</ele>
        <time>2021-06-06T09:25:50.450Z</time>
      </trkpt>
      <trkpt lat="45.80303" lon="5.45555">
        <ele>238</ele>
        <time>2021-06-06T09:25:51.449Z</time>
      </trkpt>
      <trkpt lat="45.80296" lon="5.45559">
        <ele>237</ele>
        <time>2021-06-06T09:25:52.450Z</time>
      </trkpt>
      <trkpt lat="45.80288" lon="5.45564">
        <ele>237</ele>
        <time>2021-06-06T09:25:53.450Z</time>
      </trkpt>
      <trkpt lat="45.80281" lon="5.4557">
        <ele>237</ele>
        <time>2021-06-06T09:25:54.449Z</time>
      </trkpt>
      <trkpt lat="45.80273" lon="5.45575">
        <ele>236</ele>
        <time>2021-06-06T09:25:55.450Z</time>
      </trkpt>
      <trkpt lat="45.80265" lon="5.4558">
        <ele>236</ele>
        <time>2021-06-06T09:25:56.450Z</time>
      </trkpt>
      <trkpt lat="45.80257" lon="5.45585">
        <ele>236</ele>
        <time>2021-06-06T09:25:57.450Z</time>
      </trkpt>
      <trkpt lat="45.80249" lon="5.45591">
        <ele>236</ele>
        <time>2021-06-06T09:25:58.450Z</time>
      </trkpt>
      <trkpt lat="45.80241" lon="5.45596">
        <ele>236</ele>
        <time>2021-06-06T09:25:59.449Z</time>
      </trkpt>
      <trkpt lat="45.80233" lon="5.45602">
        <ele>236</ele>
        <time>2021-06-06T09:26:00.450Z</time>
      </trkpt>
      <trkpt lat="45.80225" lon="5.45608">
        <ele>236</ele>
        <time>2021-06-06T09:26:01.450Z</time>
      </trkpt>
      <trkpt lat="45.80217" lon="5.45614">
        <ele>236</ele>
        <time>2021-06-06T09:26:02.450Z</time>
      </trkpt>
      <trkpt lat="45.80208" lon="5.4562">
        <ele>236</ele>
        <time>2021-06-06T09:26:03.450Z</time>
      </trkpt>
      <trkpt lat="45.802" lon="5.45626">
        <ele>237</ele>
        <time>2021-06-06T09:26:04.450Z</time>
      </trkpt>
      <trkpt lat="45.80191" lon="5.45632">
        <ele>237</ele>
        <time>2021-06-06T09:26:05.450Z</time>
      </trkpt>
      <trkpt lat="45.80182" lon="5.45638">
        <ele>237</ele>
        <time>2021-06-06T09:26:06.450Z</time>
      </trkpt>
      <trkpt lat="45.80174" lon="5.45644">
        <ele>237</ele>
        <time>2021-06-06T09:26:07.450Z</time>
      </trkpt>
      <trkpt lat="45.80165" lon="5.45651">
        <ele>237</ele>
        <time>2021-06-06T09:26:08.450Z</time>
      </trkpt>
      <trkpt lat="45.80156" lon="5.45657">
        <ele>237</ele>
        <time>2021-06-06T09:26:09.450Z</time>
      </trkpt>
      <trkpt lat="45.80148" lon="5.45662">
        <ele>237</ele>
        <time>2021-06-06T09:26:10.449Z</time>
      </trkpt>
      <trkpt lat="45.80139" lon="5.45668">
        <ele>237</ele>
        <time>2021-06-06T09:26:11.449Z</time>
      </trkpt>
      <trkpt lat="45.8013" lon="5.45674">
        <ele>237</ele>
        <time>2021-06-06T09:26:12.450Z</time>
      </trkpt>
      <trkpt lat="45.80121" lon="5.4568">
        <ele>236</ele>
        <time>2021-06-06T09:26:13.449Z</time>
      </trkpt>
      <trkpt lat="45.80112" lon="5.45685">
        <ele>236</ele>
        <time>2021-06-06T09:26:14.450Z</time>
      </trkpt>
      <trkpt lat="45.80103" lon="5.45691">
        <ele>236</ele>
        <time>2021-06-06T09:26:15.450Z</time>
      </trkpt>
      <trkpt lat="45.80094" lon="5.45696">
        <ele>236</ele>
        <time>2021-06-06T09:26:16.450Z</time>
      </trkpt>
      <trkpt lat="45.80085" lon="5.45701">
        <ele>236</ele>
        <time>2021-06-06T09:26:17.450Z</time>
      </trkpt>
      <trkpt lat="45.80076" lon="5.45706">
        <ele>236</ele>
        <time>2021-06-06T09:26:18.449Z</time>
      </trkpt>
      <trkpt lat="45.80067" lon="5.4571">
        <ele>235</ele>
        <time>2021-06-06T09:26:19.450Z</time>
      </trkpt>
      <trkpt lat="45.80058" lon="5.45713">
        <ele>235</ele>
        <time>2021-06-06T09:26:20.449Z</time>
      </trkpt>
      <trkpt lat="45.80048" lon="5.45717">
        <ele>235</ele>
        <time>2021-06-06T09:26:21.449Z</time>
      </trkpt>
      <trkpt lat="45.8004" lon="5.45721">
        <ele>236</ele>
        <time>2021-06-06T09:26:22.450Z</time>
      </trkpt>
      <trkpt lat="45.80031" lon="5.45725">
        <ele>236</ele>
        <time>2021-06-06T09:26:23.450Z</time>
      </trkpt>
      <trkpt lat="45.80022" lon="5.45729">
        <ele>236</ele>
        <time>2021-06-06T09:26:24.450Z</time>
      </trkpt>
      <trkpt lat="45.80013" lon="5.45732">
        <ele>237</ele>
        <time>2021-06-06T09:26:25.450Z</time>
      </trkpt>
      <trkpt lat="45.80004" lon="5.45736">
        <ele>237</ele>
        <time>2021-06-06T09:26:26.450Z</time>
      </trkpt>
      <trkpt lat="45.79995" lon="5.4574">
        <ele>238</ele>
        <time>2021-06-06T09:26:27.450Z</time>
      </trkpt>
      <trkpt lat="45.79987" lon="5.45744">
        <ele>238</ele>
        <time>2021-06-06T09:26:28.450Z</time>
      </trkpt>
      <trkpt lat="45.79979" lon="5.45748">
        <ele>238</ele>
        <time>2021-06-06T09:26:29.450Z</time>
      </trkpt>
      <trkpt lat="45.79971" lon="5.45752">
        <ele>239</ele>
        <time>2021-06-06T09:26:30.449Z</time>
      </trkpt>
      <trkpt lat="45.79962" lon="5.45756">
        <ele>239</ele>
        <time>2021-06-06T09:26:31.450Z</time>
      </trkpt>
      <trkpt lat="45.79954" lon="5.4576">
        <ele>239</ele>
        <time>2021-06-06T09:26:32.449Z</time>
      </trkpt>
      <trkpt lat="45.79947" lon="5.45764">
        <ele>239</ele>
        <time>2021-06-06T09:26:33.450Z</time>
      </trkpt>
      <trkpt lat="45.79939" lon="5.45768">
        <ele>239</ele>
        <time>2021-06-06T09:26:34.449Z</time>
      </trkpt>
      <trkpt lat="45.79931" lon="5.45772">
        <ele>239</ele>
        <time>2021-06-06T09:26:35.450Z</time>
      </trkpt>
      <trkpt lat="45.79924" lon="5.45777">
        <ele>239</ele>
        <time>2021-06-06T09:26:36.450Z</time>
      </trkpt>
      <trkpt lat="45.79916" lon="5.45781">
        <ele>238</ele>
        <time>2021-06-06T09:26:37.450Z</time>
      </trkpt>
      <trkpt lat="45.79909" lon="5.45785">
        <ele>238</ele>
        <time>2021-06-06T09:26:38.450Z</time>
      </trkpt>
      <trkpt lat="45.79901" lon="5.4579">
        <ele>238</ele>
        <time>2021-06-06T09:26:39.450Z</time>
      </trkpt>
      <trkpt lat="45.79894" lon="5.45794">
        <ele>238</ele>
        <time>2021-06-06T09:26:40.449Z</time>
      </trkpt>
      <trkpt lat="45.79887" lon="5.45799">
        <ele>238</ele>
        <time>2021-06-06T09:26:41.450Z</time>
      </trkpt>
      <trkpt lat="45.7988" lon="5.45803">
        <ele>238</ele>
        <time>2021-06-06T09:26:42.450Z</time>
      </trkpt>
      <trkpt lat="45.79874" lon="5.45808">
        <ele>237</ele>
        <time>2021-06-06T09:26:43.450Z</time>
      </trkpt>
      <trkpt lat="45.79867" lon="5.45812">
        <ele>237</ele>
        <time>2021-06-06T09:26:44.450Z</time>
      </trkpt>
      <trkpt lat="45.79861" lon="5.45815">
        <ele>235</ele>
        <time>2021-06-06T09:26:45.450Z</time>
      </trkpt>
      <trkpt lat="45.79854" lon="5.45819">
        <ele>233</ele>
        <time>2021-06-06T09:26:46.450Z</time>
      </trkpt>
      <trkpt lat="45.79847" lon="5.45822">
        <ele>232</ele>
        <time>2021-06-06T09:26:47.450Z</time>
      </trkpt>
      <trkpt lat="45.79841" lon="5.45824">
        <ele>231</ele>
        <time>2021-06-06T09:26:48.450Z</time>
      </trkpt>
      <trkpt lat="45.79834" lon="5.45826">
        <ele>231</ele>
        <time>2021-06-06T09:26:49.450Z</time>
      </trkpt>
      <trkpt lat="45.79827" lon="5.45827">
        <ele>231</ele>
        <time>2021-06-06T09:26:50.449Z</time>
      </trkpt>
      <trkpt lat="45.7982" lon="5.45829">
        <ele>231</ele>
        <time>2021-06-06T09:26:51.450Z</time>
      </trkpt>
      <trkpt lat="45.79814" lon="5.4583">
        <ele>231</ele>
        <time>2021-06-06T09:26:52.449Z</time>
      </trkpt>
      <trkpt lat="45.79807" lon="5.45831">
        <ele>231</ele>
        <time>2021-06-06T09:26:53.450Z</time>
      </trkpt>
      <trkpt lat="45.79801" lon="5.45832">
        <ele>231</ele>
        <time>2021-06-06T09:26:54.450Z</time>
      </trkpt>
      <trkpt lat="45.79795" lon="5.45833">
        <ele>232</ele>
        <time>2021-06-06T09:26:55.450Z</time>
      </trkpt>
      <trkpt lat="45.79789" lon="5.45834">
        <ele>232</ele>
        <time>2021-06-06T09:26:56.450Z</time>
      </trkpt>
      <trkpt lat="45.79784" lon="5.45834">
        <ele>233</ele>
        <time>2021-06-06T09:26:57.450Z</time>
      </trkpt>
      <trkpt lat="45.79778" lon="5.45835">
        <ele>233</ele>
        <time>2021-06-06T09:26:58.450Z</time>
      </trkpt>
      <trkpt lat="45.79772" lon="5.45835">
        <ele>233</ele>
        <time>2021-06-06T09:26:59.449Z</time>
      </trkpt>
      <trkpt lat="45.79766" lon="5.45836">
        <ele>233</ele>
        <time>2021-06-06T09:27:00.449Z</time>
      </trkpt>
      <trkpt lat="45.79759" lon="5.45836">
        <ele>233</ele>
        <time>2021-06-06T09:27:01.450Z</time>
      </trkpt>
      <trkpt lat="45.79753" lon="5.45837">
        <ele>233</ele>
        <time>2021-06-06T09:27:02.450Z</time>
      </trkpt>
      <trkpt lat="45.79746" lon="5.45837">
        <ele>233</ele>
        <time>2021-06-06T09:27:03.449Z</time>
      </trkpt>
      <trkpt lat="45.7974" lon="5.45838">
        <ele>233</ele>
        <time>2021-06-06T09:27:04.450Z</time>
      </trkpt>
      <trkpt lat="45.79733" lon="5.45838">
        <ele>233</ele>
        <time>2021-06-06T09:27:05.450Z</time>
      </trkpt>
      <trkpt lat="45.79726" lon="5.45839">
        <ele>233</ele>
        <time>2021-06-06T09:27:06.450Z</time>
      </trkpt>
      <trkpt lat="45.7972" lon="5.45839">
        <ele>233</ele>
        <time>2021-06-06T09:27:07.450Z</time>
      </trkpt>
      <trkpt lat="45.79713" lon="5.4584">
        <ele>233</ele>
        <time>2021-06-06T09:27:08.450Z</time>
      </trkpt>
      <trkpt lat="45.79705" lon="5.4584">
        <ele>233</ele>
        <time>2021-06-06T09:27:09.450Z</time>
      </trkpt>
      <trkpt lat="45.79698" lon="5.45842">
        <ele>233</ele>
        <time>2021-06-06T09:27:10.450Z</time>
      </trkpt>
      <trkpt lat="45.79691" lon="5.45844">
        <ele>233</ele>
        <time>2021-06-06T09:27:11.450Z</time>
      </trkpt>
      <trkpt lat="45.79684" lon="5.45847">
        <ele>232</ele>
        <time>2021-06-06T09:27:12.449Z</time>
      </trkpt>
      <trkpt lat="45.79676" lon="5.45851">
        <ele>232</ele>
        <time>2021-06-06T09:27:13.449Z</time>
      </trkpt>
      <trkpt lat="45.79669" lon="5.45856">
        <ele>232</ele>
        <time>2021-06-06T09:27:14.449Z</time>
      </trkpt>
      <trkpt lat="45.79661" lon="5.45861">
        <ele>232</ele>
        <time>2021-06-06T09:27:15.449Z</time>
      </trkpt>
      <trkpt lat="45.79654" lon="5.45866">
        <ele>232</ele>
        <time>2021-06-06T09:27:16.450Z</time>
      </trkpt>
      <trkpt lat="45.79647" lon="5.45871">
        <ele>232</ele>
        <time>2021-06-06T09:27:17.450Z</time>
      </trkpt>
      <trkpt lat="45.7964" lon="5.45877">
        <ele>231</ele>
        <time>2021-06-06T09:27:18.450Z</time>
      </trkpt>
      <trkpt lat="45.79633" lon="5.45881">
        <ele>231</ele>
        <time>2021-06-06T09:27:19.450Z</time>
      </trkpt>
      <trkpt lat="45.79627" lon="5.45886">
        <ele>231</ele>
        <time>2021-06-06T09:27:20.450Z</time>
      </trkpt>
      <trkpt lat="45.79621" lon="5.45891">
        <ele>231</ele>
        <time>2021-06-06T09:27:21.449Z</time>
      </trkpt>
      <trkpt lat="45.79616" lon="5.45894">
        <ele>230</ele>
        <time>2021-06-06T09:27:22.450Z</time>
      </trkpt>
      <trkpt lat="45.79611" lon="5.45898">
        <ele>230</ele>
        <time>2021-06-06T09:27:23.450Z</time>
      </trkpt>
      <trkpt lat="45.79607" lon="5.45901">
        <ele>230</ele>
        <time>2021-06-06T09:27:24.449Z</time>
      </trkpt>
      <trkpt lat="45.79602" lon="5.45904">
        <ele>229</ele>
        <time>2021-06-06T09:27:25.450Z</time>
      </trkpt>
      <trkpt lat="45.79598" lon="5.45907">
        <ele>228</ele>
        <time>2021-06-06T09:27:26.449Z</time>
      </trkpt>
      <trkpt lat="45.79595" lon="5.45909">
        <ele>228</ele>
        <time>2021-06-06T09:27:27.449Z</time>
      </trkpt>
      <trkpt lat="45.79592" lon="5.45911">
        <ele>227</ele>
        <time>2021-06-06T09:27:28.449Z</time>
      </trkpt>
      <trkpt lat="45.7959" lon="5.45913">
        <ele>226</ele>
        <time>2021-06-06T09:27:29.449Z</time>
      </trkpt>
      <trkpt lat="45.79588" lon="5.45915">
        <ele>226</ele>
        <time>2021-06-06T09:27:30.449Z</time>
      </trkpt>
      <trkpt lat="45.79586" lon="5.45916">
        <ele>225</ele>
        <time>2021-06-06T09:27:31.449Z</time>
      </trkpt>
      <trkpt lat="45.79584" lon="5.45918">
        <ele>225</ele>
        <time>2021-06-06T09:27:32.449Z</time>
      </trkpt>
      <trkpt lat="45.79583" lon="5.4592">
        <ele>225</ele>
        <time>2021-06-06T09:27:33.450Z</time>
      </trkpt>
      <trkpt lat="45.79582" lon="5.45921">
        <ele>226</ele>
        <time>2021-06-06T09:27:34.450Z</time>
      </trkpt>
      <trkpt lat="45.7958" lon="5.45922">
        <ele>226</ele>
        <time>2021-06-06T09:27:35.449Z</time>
      </trkpt>
      <trkpt lat="45.7958" lon="5.45923">
        <ele>225</ele>
        <time>2021-06-06T09:27:36.449Z</time>
      </trkpt>
      <trkpt lat="45.79579" lon="5.45925">
        <ele>225</ele>
        <time>2021-06-06T09:27:37.450Z</time>
      </trkpt>
      <trkpt lat="45.79578" lon="5.45926">
        <ele>225</ele>
        <time>2021-06-06T09:27:38.450Z</time>
      </trkpt>
      <trkpt lat="45.79577" lon="5.45927">
        <ele>225</ele>
        <time>2021-06-06T09:27:39.450Z</time>
      </trkpt>
      <trkpt lat="45.79577" lon="5.45928">
        <ele>225</ele>
        <time>2021-06-06T09:27:40.450Z</time>
      </trkpt>
      <trkpt lat="45.79576" lon="5.45929">
        <ele>225</ele>
        <time>2021-06-06T09:27:41.450Z</time>
      </trkpt>
      <trkpt lat="45.79575" lon="5.4593">
        <ele>225</ele>
        <time>2021-06-06T09:27:42.449Z</time>
      </trkpt>
      <trkpt lat="45.79575" lon="5.4593">
        <ele>225</ele>
        <time>2021-06-06T09:27:43.450Z</time>
      </trkpt>
      <trkpt lat="45.79575" lon="5.4593">
        <ele>226</ele>
        <time>2021-06-06T09:27:44.450Z</time>
      </trkpt>
      <trkpt lat="45.79574" lon="5.45931">
        <ele>224</ele>
        <time>2021-06-06T09:27:45.451Z</time>
      </trkpt>
      <trkpt lat="45.79574" lon="5.45932">
        <ele>224</ele>
        <time>2021-06-06T09:27:46.451Z</time>
      </trkpt>
      <trkpt lat="45.79573" lon="5.45934">
        <ele>224</ele>
        <time>2021-06-06T09:27:47.450Z</time>
      </trkpt>
      <trkpt lat="45.79572" lon="5.45935">
        <ele>225</ele>
        <time>2021-06-06T09:27:48.451Z</time>
      </trkpt>
      <trkpt lat="45.79571" lon="5.45937">
        <ele>225</ele>
        <time>2021-06-06T09:27:49.451Z</time>
      </trkpt>
      <trkpt lat="45.7957" lon="5.45939">
        <ele>225</ele>
        <time>2021-06-06T09:27:50.451Z</time>
      </trkpt>
      <trkpt lat="45.79569" lon="5.45941">
        <ele>225</ele>
        <time>2021-06-06T09:27:51.451Z</time>
      </trkpt>
      <trkpt lat="45.79568" lon="5.45943">
        <ele>226</ele>
        <time>2021-06-06T09:27:52.450Z</time>
      </trkpt>
      <trkpt lat="45.79566" lon="5.45945">
        <ele>226</ele>
        <time>2021-06-06T09:27:53.451Z</time>
      </trkpt>
      <trkpt lat="45.79566" lon="5.45947">
        <ele>226</ele>
        <time>2021-06-06T09:27:54.451Z</time>
      </trkpt>
      <trkpt lat="45.79565" lon="5.45949">
        <ele>226</ele>
        <time>2021-06-06T09:27:55.450Z</time>
      </trkpt>
      <trkpt lat="45.79564" lon="5.4595">
        <ele>226</ele>
        <time>2021-06-06T09:27:56.451Z</time>
      </trkpt>
      <trkpt lat="45.79564" lon="5.45952">
        <ele>226</ele>
        <time>2021-06-06T09:27:57.450Z</time>
      </trkpt>
      <trkpt lat="45.79563" lon="5.45954">
        <ele>226</ele>
        <time>2021-06-06T09:27:58.451Z</time>
      </trkpt>
      <trkpt lat="45.79562" lon="5.45956">
        <ele>226</ele>
        <time>2021-06-06T09:27:59.451Z</time>
      </trkpt>
      <trkpt lat="45.79562" lon="5.45958">
        <ele>225</ele>
        <time>2021-06-06T09:28:00.450Z</time>
      </trkpt>
      <trkpt lat="45.7956" lon="5.45961">
        <ele>225</ele>
        <time>2021-06-06T09:28:01.451Z</time>
      </trkpt>
      <trkpt lat="45.79559" lon="5.45964">
        <ele>226</ele>
        <time>2021-06-06T09:28:02.450Z</time>
      </trkpt>
      <trkpt lat="45.79558" lon="5.45968">
        <ele>226</ele>
        <time>2021-06-06T09:28:03.450Z</time>
      </trkpt>
      <trkpt lat="45.79556" lon="5.45972">
        <ele>226</ele>
        <time>2021-06-06T09:28:04.451Z</time>
      </trkpt>
      <trkpt lat="45.79554" lon="5.45976">
        <ele>226</ele>
        <time>2021-06-06T09:28:05.451Z</time>
      </trkpt>
      <trkpt lat="45.79552" lon="5.4598">
        <ele>226</ele>
        <time>2021-06-06T09:28:06.450Z</time>
      </trkpt>
      <trkpt lat="45.7955" lon="5.45984">
        <ele>226</ele>
        <time>2021-06-06T09:28:07.451Z</time>
      </trkpt>
      <trkpt lat="45.79549" lon="5.45989">
        <ele>226</ele>
        <time>2021-06-06T09:28:08.451Z</time>
      </trkpt>
      <trkpt lat="45.79547" lon="5.45993">
        <ele>226</ele>
        <time>2021-06-06T09:28:09.451Z</time>
      </trkpt>
      <trkpt lat="45.79545" lon="5.45997">
        <ele>226</ele>
        <time>2021-06-06T09:28:10.451Z</time>
      </trkpt>
      <trkpt lat="45.79543" lon="5.46001">
        <ele>226</ele>
        <time>2021-06-06T09:28:11.450Z</time>
      </trkpt>
      <trkpt lat="45.7954" lon="5.46004">
        <ele>226</ele>
        <time>2021-06-06T09:28:12.451Z</time>
      </trkpt>
      <trkpt lat="45.79538" lon="5.46007">
        <ele>226</ele>
        <time>2021-06-06T09:28:13.451Z</time>
      </trkpt>
      <trkpt lat="45.79536" lon="5.46009">
        <ele>226</ele>
        <time>2021-06-06T09:28:14.451Z</time>
      </trkpt>
      <trkpt lat="45.79533" lon="5.46013">
        <ele>226</ele>
        <time>2021-06-06T09:28:15.451Z</time>
      </trkpt>
      <trkpt lat="45.7953" lon="5.46017">
        <ele>226</ele>
        <time>2021-06-06T09:28:16.451Z</time>
      </trkpt>
      <trkpt lat="45.79527" lon="5.46023">
        <ele>226</ele>
        <time>2021-06-06T09:28:17.451Z</time>
      </trkpt>
      <trkpt lat="45.79525" lon="5.46028">
        <ele>226</ele>
        <time>2021-06-06T09:28:18.450Z</time>
      </trkpt>
      <trkpt lat="45.79523" lon="5.46035">
        <ele>226</ele>
        <time>2021-06-06T09:28:19.450Z</time>
      </trkpt>
      <trkpt lat="45.79522" lon="5.46041">
        <ele>226</ele>
        <time>2021-06-06T09:28:20.451Z</time>
      </trkpt>
      <trkpt lat="45.7952" lon="5.46048">
        <ele>226</ele>
        <time>2021-06-06T09:28:21.450Z</time>
      </trkpt>
      <trkpt lat="45.79518" lon="5.46054">
        <ele>226</ele>
        <time>2021-06-06T09:28:22.450Z</time>
      </trkpt>
      <trkpt lat="45.79516" lon="5.4606">
        <ele>226</ele>
        <time>2021-06-06T09:28:23.451Z</time>
      </trkpt>
      <trkpt lat="45.79514" lon="5.46066">
        <ele>227</ele>
        <time>2021-06-06T09:28:24.450Z</time>
      </trkpt>
      <trkpt lat="45.79512" lon="5.46073">
        <ele>227</ele>
        <time>2021-06-06T09:28:25.451Z</time>
      </trkpt>
      <trkpt lat="45.7951" lon="5.4608">
        <ele>226</ele>
        <time>2021-06-06T09:28:26.450Z</time>
      </trkpt>
      <trkpt lat="45.79509" lon="5.46087">
        <ele>226</ele>
        <time>2021-06-06T09:28:27.450Z</time>
      </trkpt>
      <trkpt lat="45.79507" lon="5.46093">
        <ele>225</ele>
        <time>2021-06-06T09:28:28.450Z</time>
      </trkpt>
      <trkpt lat="45.79506" lon="5.46101">
        <ele>225</ele>
        <time>2021-06-06T09:28:29.451Z</time>
      </trkpt>
      <trkpt lat="45.79504" lon="5.46108">
        <ele>225</ele>
        <time>2021-06-06T09:28:30.450Z</time>
      </trkpt>
      <trkpt lat="45.79503" lon="5.46115">
        <ele>225</ele>
        <time>2021-06-06T09:28:31.451Z</time>
      </trkpt>
      <trkpt lat="45.79503" lon="5.46123">
        <ele>225</ele>
        <time>2021-06-06T09:28:32.451Z</time>
      </trkpt>
      <trkpt lat="45.79503" lon="5.4613">
        <ele>225</ele>
        <time>2021-06-06T09:28:33.451Z</time>
      </trkpt>
      <trkpt lat="45.79502" lon="5.46137">
        <ele>225</ele>
        <time>2021-06-06T09:28:34.451Z</time>
      </trkpt>
      <trkpt lat="45.79501" lon="5.46144">
        <ele>225</ele>
        <time>2021-06-06T09:28:35.451Z</time>
      </trkpt>
      <trkpt lat="45.795" lon="5.46151">
        <ele>225</ele>
        <time>2021-06-06T09:28:36.451Z</time>
      </trkpt>
      <trkpt lat="45.79498" lon="5.46158">
        <ele>225</ele>
        <time>2021-06-06T09:28:37.451Z</time>
      </trkpt>
      <trkpt lat="45.79496" lon="5.46165">
        <ele>225</ele>
        <time>2021-06-06T09:28:38.451Z</time>
      </trkpt>
      <trkpt lat="45.79492" lon="5.46171">
        <ele>225</ele>
        <time>2021-06-06T09:28:39.451Z</time>
      </trkpt>
      <trkpt lat="45.79488" lon="5.46176">
        <ele>225</ele>
        <time>2021-06-06T09:28:40.451Z</time>
      </trkpt>
      <trkpt lat="45.79483" lon="5.46179">
        <ele>225</ele>
        <time>2021-06-06T09:28:41.450Z</time>
      </trkpt>
      <trkpt lat="45.79479" lon="5.46182">
        <ele>226</ele>
        <time>2021-06-06T09:28:42.451Z</time>
      </trkpt>
      <trkpt lat="45.79474" lon="5.46184">
        <ele>226</ele>
        <time>2021-06-06T09:28:43.451Z</time>
      </trkpt>
      <trkpt lat="45.79469" lon="5.46185">
        <ele>227</ele>
        <time>2021-06-06T09:28:44.451Z</time>
      </trkpt>
      <trkpt lat="45.79464" lon="5.46185">
        <ele>227</ele>
        <time>2021-06-06T09:28:45.451Z</time>
      </trkpt>
      <trkpt lat="45.79459" lon="5.46184">
        <ele>227</ele>
        <time>2021-06-06T09:28:46.451Z</time>
      </trkpt>
      <trkpt lat="45.79454" lon="5.46183">
        <ele>227</ele>
        <time>2021-06-06T09:28:47.451Z</time>
      </trkpt>
      <trkpt lat="45.79449" lon="5.4618">
        <ele>228</ele>
        <time>2021-06-06T09:28:48.451Z</time>
      </trkpt>
      <trkpt lat="45.79445" lon="5.46175">
        <ele>228</ele>
        <time>2021-06-06T09:28:49.451Z</time>
      </trkpt>
      <trkpt lat="45.79442" lon="5.4617">
        <ele>227</ele>
        <time>2021-06-06T09:28:50.450Z</time>
      </trkpt>
      <trkpt lat="45.79439" lon="5.46163">
        <ele>227</ele>
        <time>2021-06-06T09:28:51.451Z</time>
      </trkpt>
      <trkpt lat="45.79436" lon="5.46157">
        <ele>227</ele>
        <time>2021-06-06T09:28:52.450Z</time>
      </trkpt>
      <trkpt lat="45.79433" lon="5.46149">
        <ele>226</ele>
        <time>2021-06-06T09:28:53.451Z</time>
      </trkpt>
      <trkpt lat="45.79431" lon="5.46142">
        <ele>226</ele>
        <time>2021-06-06T09:28:54.451Z</time>
      </trkpt>
      <trkpt lat="45.79428" lon="5.46135">
        <ele>226</ele>
        <time>2021-06-06T09:28:55.451Z</time>
      </trkpt>
      <trkpt lat="45.79425" lon="5.46127">
        <ele>226</ele>
        <time>2021-06-06T09:28:56.451Z</time>
      </trkpt>
      <trkpt lat="45.79423" lon="5.4612">
        <ele>226</ele>
        <time>2021-06-06T09:28:57.451Z</time>
      </trkpt>
      <trkpt lat="45.7942" lon="5.46112">
        <ele>226</ele>
        <time>2021-06-06T09:28:58.451Z</time>
      </trkpt>
      <trkpt lat="45.79417" lon="5.46104">
        <ele>226</ele>
        <time>2021-06-06T09:28:59.450Z</time>
      </trkpt>
      <trkpt lat="45.79414" lon="5.46096">
        <ele>226</ele>
        <time>2021-06-06T09:29:00.450Z</time>
      </trkpt>
      <trkpt lat="45.79411" lon="5.46088">
        <ele>225</ele>
        <time>2021-06-06T09:29:01.451Z</time>
      </trkpt>
      <trkpt lat="45.79408" lon="5.4608">
        <ele>225</ele>
        <time>2021-06-06T09:29:02.451Z</time>
      </trkpt>
      <trkpt lat="45.79405" lon="5.46072">
        <ele>225</ele>
        <time>2021-06-06T09:29:03.451Z</time>
      </trkpt>
      <trkpt lat="45.79401" lon="5.46064">
        <ele>225</ele>
        <time>2021-06-06T09:29:04.451Z</time>
      </trkpt>
      <trkpt lat="45.79397" lon="5.46056">
        <ele>225</ele>
        <time>2021-06-06T09:29:05.451Z</time>
      </trkpt>
      <trkpt lat="45.79394" lon="5.46048">
        <ele>226</ele>
        <time>2021-06-06T09:29:06.451Z</time>
      </trkpt>
      <trkpt lat="45.7939" lon="5.4604">
        <ele>226</ele>
        <time>2021-06-06T09:29:07.451Z</time>
      </trkpt>
      <trkpt lat="45.79386" lon="5.46032">
        <ele>226</ele>
        <time>2021-06-06T09:29:08.451Z</time>
      </trkpt>
      <trkpt lat="45.79382" lon="5.46025">
        <ele>226</ele>
        <time>2021-06-06T09:29:09.450Z</time>
      </trkpt>
      <trkpt lat="45.79378" lon="5.46018">
        <ele>227</ele>
        <time>2021-06-06T09:29:10.451Z</time>
      </trkpt>
      <trkpt lat="45.79374" lon="5.4601">
        <ele>227</ele>
        <time>2021-06-06T09:29:11.451Z</time>
      </trkpt>
      <trkpt lat="45.7937" lon="5.46005">
        <ele>227</ele>
        <time>2021-06-06T09:29:12.450Z</time>
      </trkpt>
      <trkpt lat="45.79365" lon="5.45998">
        <ele>228</ele>
        <time>2021-06-06T09:29:13.451Z</time>
      </trkpt>
      <trkpt lat="45.79361" lon="5.45992">
        <ele>229</ele>
        <time>2021-06-06T09:29:14.451Z</time>
      </trkpt>
      <trkpt lat="45.79356" lon="5.45985">
        <ele>229</ele>
        <time>2021-06-06T09:29:15.451Z</time>
      </trkpt>
      <trkpt lat="45.79352" lon="5.45978">
        <ele>230</ele>
        <time>2021-06-06T09:29:16.451Z</time>
      </trkpt>
      <trkpt lat="45.79347" lon="5.45971">
        <ele>230</ele>
        <time>2021-06-06T09:29:17.451Z</time>
      </trkpt>
      <trkpt lat="45.79342" lon="5.45964">
        <ele>230</ele>
        <time>2021-06-06T09:29:18.450Z</time>
      </trkpt>
      <trkpt lat="45.79337" lon="5.45957">
        <ele>229</ele>
        <time>2021-06-06T09:29:19.450Z</time>
      </trkpt>
      <trkpt lat="45.79332" lon="5.45949">
        <ele>229</ele>
        <time>2021-06-06T09:29:20.451Z</time>
      </trkpt>
      <trkpt lat="45.79327" lon="5.45941">
        <ele>229</ele>
        <time>2021-06-06T09:29:21.451Z</time>
      </trkpt>
      <trkpt lat="45.79321" lon="5.45934">
        <ele>228</ele>
        <time>2021-06-06T09:29:22.451Z</time>
      </trkpt>
      <trkpt lat="45.79316" lon="5.45925">
        <ele>228</ele>
        <time>2021-06-06T09:29:23.451Z</time>
      </trkpt>
      <trkpt lat="45.7931" lon="5.45917">
        <ele>228</ele>
        <time>2021-06-06T09:29:24.451Z</time>
      </trkpt>
      <trkpt lat="45.79305" lon="5.45909">
        <ele>228</ele>
        <time>2021-06-06T09:29:25.451Z</time>
      </trkpt>
      <trkpt lat="45.79299" lon="5.45901">
        <ele>228</ele>
        <time>2021-06-06T09:29:26.451Z</time>
      </trkpt>
      <trkpt lat="45.79293" lon="5.45893">
        <ele>227</ele>
        <time>2021-06-06T09:29:27.451Z</time>
      </trkpt>
      <trkpt lat="45.79286" lon="5.45885">
        <ele>227</ele>
        <time>2021-06-06T09:29:28.451Z</time>
      </trkpt>
      <trkpt lat="45.79279" lon="5.45878">
        <ele>227</ele>
        <time>2021-06-06T09:29:29.451Z</time>
      </trkpt>
      <trkpt lat="45.79272" lon="5.45871">
        <ele>227</ele>
        <time>2021-06-06T09:29:30.451Z</time>
      </trkpt>
      <trkpt lat="45.79265" lon="5.45865">
        <ele>227</ele>
        <time>2021-06-06T09:29:31.451Z</time>
      </trkpt>
      <trkpt lat="45.79258" lon="5.45859">
        <ele>227</ele>
        <time>2021-06-06T09:29:32.451Z</time>
      </trkpt>
      <trkpt lat="45.7925" lon="5.45853">
        <ele>226</ele>
        <time>2021-06-06T09:29:33.451Z</time>
      </trkpt>
      <trkpt lat="45.79243" lon="5.45847">
        <ele>227</ele>
        <time>2021-06-06T09:29:34.451Z</time>
      </trkpt>
      <trkpt lat="45.79236" lon="5.45841">
        <ele>227</ele>
        <time>2021-06-06T09:29:35.451Z</time>
      </trkpt>
      <trkpt lat="45.79228" lon="5.45835">
        <ele>227</ele>
        <time>2021-06-06T09:29:36.450Z</time>
      </trkpt>
      <trkpt lat="45.79221" lon="5.45829">
        <ele>228</ele>
        <time>2021-06-06T09:29:37.450Z</time>
      </trkpt>
      <trkpt lat="45.79213" lon="5.45823">
        <ele>228</ele>
        <time>2021-06-06T09:29:38.451Z</time>
      </trkpt>
      <trkpt lat="45.79205" lon="5.45816">
        <ele>229</ele>
        <time>2021-06-06T09:29:39.450Z</time>
      </trkpt>
      <trkpt lat="45.79197" lon="5.4581">
        <ele>230</ele>
        <time>2021-06-06T09:29:40.450Z</time>
      </trkpt>
      <trkpt lat="45.7919" lon="5.45803">
        <ele>230</ele>
        <time>2021-06-06T09:29:41.450Z</time>
      </trkpt>
      <trkpt lat="45.79182" lon="5.45796">
        <ele>230</ele>
        <time>2021-06-06T09:29:42.450Z</time>
      </trkpt>
      <trkpt lat="45.79175" lon="5.4579">
        <ele>230</ele>
        <time>2021-06-06T09:29:43.450Z</time>
      </trkpt>
      <trkpt lat="45.79167" lon="5.45784">
        <ele>230</ele>
        <time>2021-06-06T09:29:44.451Z</time>
      </trkpt>
      <trkpt lat="45.7916" lon="5.45778">
        <ele>230</ele>
        <time>2021-06-06T09:29:45.451Z</time>
      </trkpt>
      <trkpt lat="45.79152" lon="5.45773">
        <ele>230</ele>
        <time>2021-06-06T09:29:46.451Z</time>
      </trkpt>
      <trkpt lat="45.79145" lon="5.45767">
        <ele>230</ele>
        <time>2021-06-06T09:29:47.451Z</time>
      </trkpt>
      <trkpt lat="45.79137" lon="5.45761">
        <ele>230</ele>
        <time>2021-06-06T09:29:48.451Z</time>
      </trkpt>
      <trkpt lat="45.7913" lon="5.45755">
        <ele>230</ele>
        <time>2021-06-06T09:29:49.451Z</time>
      </trkpt>
      <trkpt lat="45.79122" lon="5.45749">
        <ele>229</ele>
        <time>2021-06-06T09:29:50.451Z</time>
      </trkpt>
      <trkpt lat="45.79114" lon="5.45743">
        <ele>229</ele>
        <time>2021-06-06T09:29:51.451Z</time>
      </trkpt>
      <trkpt lat="45.79107" lon="5.45737">
        <ele>228</ele>
        <time>2021-06-06T09:29:52.451Z</time>
      </trkpt>
      <trkpt lat="45.79099" lon="5.4573">
        <ele>228</ele>
        <time>2021-06-06T09:29:53.451Z</time>
      </trkpt>
      <trkpt lat="45.79091" lon="5.45724">
        <ele>228</ele>
        <time>2021-06-06T09:29:54.451Z</time>
      </trkpt>
      <trkpt lat="45.79083" lon="5.45718">
        <ele>227</ele>
        <time>2021-06-06T09:29:55.451Z</time>
      </trkpt>
      <trkpt lat="45.79076" lon="5.45712">
        <ele>227</ele>
        <time>2021-06-06T09:29:56.451Z</time>
      </trkpt>
      <trkpt lat="45.79068" lon="5.45705">
        <ele>226</ele>
        <time>2021-06-06T09:29:57.450Z</time>
      </trkpt>
      <trkpt lat="45.7906" lon="5.45699">
        <ele>226</ele>
        <time>2021-06-06T09:29:58.451Z</time>
      </trkpt>
      <trkpt lat="45.79053" lon="5.45693">
        <ele>226</ele>
        <time>2021-06-06T09:29:59.451Z</time>
      </trkpt>
      <trkpt lat="45.79045" lon="5.45687">
        <ele>226</ele>
        <time>2021-06-06T09:30:00.451Z</time>
      </trkpt>
      <trkpt lat="45.79037" lon="5.45681">
        <ele>226</ele>
        <time>2021-06-06T09:30:01.450Z</time>
      </trkpt>
      <trkpt lat="45.79029" lon="5.45675">
        <ele>226</ele>
        <time>2021-06-06T09:30:02.451Z</time>
      </trkpt>
      <trkpt lat="45.79021" lon="5.45669">
        <ele>226</ele>
        <time>2021-06-06T09:30:03.451Z</time>
      </trkpt>
      <trkpt lat="45.79014" lon="5.45663">
        <ele>226</ele>
        <time>2021-06-06T09:30:04.451Z</time>
      </trkpt>
      <trkpt lat="45.79006" lon="5.45657">
        <ele>226</ele>
        <time>2021-06-06T09:30:05.451Z</time>
      </trkpt>
      <trkpt lat="45.78998" lon="5.45651">
        <ele>226</ele>
        <time>2021-06-06T09:30:06.451Z</time>
      </trkpt>
      <trkpt lat="45.7899" lon="5.45644">
        <ele>226</ele>
        <time>2021-06-06T09:30:07.450Z</time>
      </trkpt>
      <trkpt lat="45.78983" lon="5.45638">
        <ele>226</ele>
        <time>2021-06-06T09:30:08.451Z</time>
      </trkpt>
      <trkpt lat="45.78975" lon="5.45632">
        <ele>225</ele>
        <time>2021-06-06T09:30:09.451Z</time>
      </trkpt>
      <trkpt lat="45.78967" lon="5.45625">
        <ele>225</ele>
        <time>2021-06-06T09:30:10.451Z</time>
      </trkpt>
      <trkpt lat="45.7896" lon="5.45619">
        <ele>225</ele>
        <time>2021-06-06T09:30:11.451Z</time>
      </trkpt>
      <trkpt lat="45.78952" lon="5.45613">
        <ele>224</ele>
        <time>2021-06-06T09:30:12.451Z</time>
      </trkpt>
      <trkpt lat="45.78945" lon="5.45607">
        <ele>224</ele>
        <time>2021-06-06T09:30:13.451Z</time>
      </trkpt>
      <trkpt lat="45.78937" lon="5.45601">
        <ele>223</ele>
        <time>2021-06-06T09:30:14.451Z</time>
      </trkpt>
      <trkpt lat="45.7893" lon="5.45594">
        <ele>223</ele>
        <time>2021-06-06T09:30:15.451Z</time>
      </trkpt>
      <trkpt lat="45.78922" lon="5.45588">
        <ele>223</ele>
        <time>2021-06-06T09:30:16.450Z</time>
      </trkpt>
      <trkpt lat="45.78914" lon="5.45581">
        <ele>222</ele>
        <time>2021-06-06T09:30:17.451Z</time>
      </trkpt>
      <trkpt lat="45.78907" lon="5.45575">
        <ele>222</ele>
        <time>2021-06-06T09:30:18.450Z</time>
      </trkpt>
      <trkpt lat="45.78899" lon="5.45569">
        <ele>221</ele>
        <time>2021-06-06T09:30:19.450Z</time>
      </trkpt>
      <trkpt lat="45.78892" lon="5.45563">
        <ele>221</ele>
        <time>2021-06-06T09:30:20.451Z</time>
      </trkpt>
      <trkpt lat="45.78885" lon="5.45556">
        <ele>220</ele>
        <time>2021-06-06T09:30:21.451Z</time>
      </trkpt>
      <trkpt lat="45.78877" lon="5.4555">
        <ele>220</ele>
        <time>2021-06-06T09:30:22.451Z</time>
      </trkpt>
      <trkpt lat="45.78869" lon="5.45544">
        <ele>220</ele>
        <time>2021-06-06T09:30:23.450Z</time>
      </trkpt>
      <trkpt lat="45.78862" lon="5.45538">
        <ele>220</ele>
        <time>2021-06-06T09:30:24.451Z</time>
      </trkpt>
      <trkpt lat="45.78854" lon="5.45532">
        <ele>219</ele>
        <time>2021-06-06T09:30:25.450Z</time>
      </trkpt>
      <trkpt lat="45.78847" lon="5.45526">
        <ele>219</ele>
        <time>2021-06-06T09:30:26.451Z</time>
      </trkpt>
      <trkpt lat="45.78839" lon="5.45519">
        <ele>218</ele>
        <time>2021-06-06T09:30:27.451Z</time>
      </trkpt>
      <trkpt lat="45.78832" lon="5.45513">
        <ele>217</ele>
        <time>2021-06-06T09:30:28.451Z</time>
      </trkpt>
      <trkpt lat="45.78824" lon="5.45507">
        <ele>216</ele>
        <time>2021-06-06T09:30:29.450Z</time>
      </trkpt>
      <trkpt lat="45.78816" lon="5.45501">
        <ele>216</ele>
        <time>2021-06-06T09:30:30.451Z</time>
      </trkpt>
      <trkpt lat="45.78809" lon="5.45494">
        <ele>215</ele>
        <time>2021-06-06T09:30:31.451Z</time>
      </trkpt>
      <trkpt lat="45.78801" lon="5.45488">
        <ele>215</ele>
        <time>2021-06-06T09:30:32.451Z</time>
      </trkpt>
      <trkpt lat="45.78794" lon="5.45482">
        <ele>215</ele>
        <time>2021-06-06T09:30:33.451Z</time>
      </trkpt>
      <trkpt lat="45.78786" lon="5.45476">
        <ele>214</ele>
        <time>2021-06-06T09:30:34.451Z</time>
      </trkpt>
      <trkpt lat="45.78779" lon="5.4547">
        <ele>214</ele>
        <time>2021-06-06T09:30:35.451Z</time>
      </trkpt>
      <trkpt lat="45.78771" lon="5.45463">
        <ele>213</ele>
        <time>2021-06-06T09:30:36.451Z</time>
      </trkpt>
      <trkpt lat="45.78763" lon="5.45456">
        <ele>213</ele>
        <time>2021-06-06T09:30:37.450Z</time>
      </trkpt>
      <trkpt lat="45.78756" lon="5.4545">
        <ele>212</ele>
        <time>2021-06-06T09:30:38.451Z</time>
      </trkpt>
      <trkpt lat="45.78748" lon="5.45444">
        <ele>212</ele>
        <time>2021-06-06T09:30:39.451Z</time>
      </trkpt>
      <trkpt lat="45.78741" lon="5.45438">
        <ele>212</ele>
        <time>2021-06-06T09:30:40.451Z</time>
      </trkpt>
      <trkpt lat="45.78733" lon="5.45431">
        <ele>212</ele>
        <time>2021-06-06T09:30:41.451Z</time>
      </trkpt>
      <trkpt lat="45.78726" lon="5.45425">
        <ele>211</ele>
        <time>2021-06-06T09:30:42.451Z</time>
      </trkpt>
      <trkpt lat="45.78719" lon="5.45419">
        <ele>211</ele>
        <time>2021-06-06T09:30:43.450Z</time>
      </trkpt>
      <trkpt lat="45.78711" lon="5.45413">
        <ele>211</ele>
        <time>2021-06-06T09:30:44.451Z</time>
      </trkpt>
      <trkpt lat="45.78704" lon="5.45407">
        <ele>210</ele>
        <time>2021-06-06T09:30:45.450Z</time>
      </trkpt>
      <trkpt lat="45.78697" lon="5.45402">
        <ele>210</ele>
        <time>2021-06-06T09:30:46.451Z</time>
      </trkpt>
      <trkpt lat="45.7869" lon="5.45395">
        <ele>209</ele>
        <time>2021-06-06T09:30:47.451Z</time>
      </trkpt>
      <trkpt lat="45.78684" lon="5.45389">
        <ele>209</ele>
        <time>2021-06-06T09:30:48.451Z</time>
      </trkpt>
      <trkpt lat="45.78678" lon="5.45383">
        <ele>209</ele>
        <time>2021-06-06T09:30:49.451Z</time>
      </trkpt>
      <trkpt lat="45.78672" lon="5.45376">
        <ele>209</ele>
        <time>2021-06-06T09:30:50.451Z</time>
      </trkpt>
      <trkpt lat="45.78667" lon="5.45368">
        <ele>209</ele>
        <time>2021-06-06T09:30:51.451Z</time>
      </trkpt>
      <trkpt lat="45.78662" lon="5.45361">
        <ele>209</ele>
        <time>2021-06-06T09:30:52.451Z</time>
      </trkpt>
      <trkpt lat="45.78656" lon="5.45354">
        <ele>209</ele>
        <time>2021-06-06T09:30:53.450Z</time>
      </trkpt>
      <trkpt lat="45.7865" lon="5.4535">
        <ele>209</ele>
        <time>2021-06-06T09:30:54.451Z</time>
      </trkpt>
      <trkpt lat="45.78643" lon="5.45346">
        <ele>209</ele>
        <time>2021-06-06T09:30:55.451Z</time>
      </trkpt>
      <trkpt lat="45.78635" lon="5.45343">
        <ele>210</ele>
        <time>2021-06-06T09:30:56.451Z</time>
      </trkpt>
      <trkpt lat="45.78628" lon="5.45339">
        <ele>209</ele>
        <time>2021-06-06T09:30:57.451Z</time>
      </trkpt>
      <trkpt lat="45.7862" lon="5.45335">
        <ele>209</ele>
        <time>2021-06-06T09:30:58.451Z</time>
      </trkpt>
      <trkpt lat="45.78612" lon="5.4533">
        <ele>209</ele>
        <time>2021-06-06T09:30:59.451Z</time>
      </trkpt>
      <trkpt lat="45.78605" lon="5.45324">
        <ele>209</ele>
        <time>2021-06-06T09:31:00.451Z</time>
      </trkpt>
      <trkpt lat="45.78597" lon="5.45319">
        <ele>209</ele>
        <time>2021-06-06T09:31:01.451Z</time>
      </trkpt>
      <trkpt lat="45.7859" lon="5.45313">
        <ele>209</ele>
        <time>2021-06-06T09:31:02.451Z</time>
      </trkpt>
      <trkpt lat="45.78582" lon="5.45307">
        <ele>209</ele>
        <time>2021-06-06T09:31:03.451Z</time>
      </trkpt>
      <trkpt lat="45.78575" lon="5.45301">
        <ele>209</ele>
        <time>2021-06-06T09:31:04.451Z</time>
      </trkpt>
      <trkpt lat="45.78567" lon="5.45296">
        <ele>209</ele>
        <time>2021-06-06T09:31:05.451Z</time>
      </trkpt>
      <trkpt lat="45.7856" lon="5.45289">
        <ele>208</ele>
        <time>2021-06-06T09:31:06.451Z</time>
      </trkpt>
      <trkpt lat="45.78552" lon="5.45284">
        <ele>209</ele>
        <time>2021-06-06T09:31:07.451Z</time>
      </trkpt>
      <trkpt lat="45.78545" lon="5.45278">
        <ele>208</ele>
        <time>2021-06-06T09:31:08.451Z</time>
      </trkpt>
      <trkpt lat="45.78537" lon="5.45272">
        <ele>208</ele>
        <time>2021-06-06T09:31:09.451Z</time>
      </trkpt>
      <trkpt lat="45.78529" lon="5.45267">
        <ele>208</ele>
        <time>2021-06-06T09:31:10.451Z</time>
      </trkpt>
      <trkpt lat="45.78521" lon="5.45261">
        <ele>208</ele>
        <time>2021-06-06T09:31:11.451Z</time>
      </trkpt>
      <trkpt lat="45.78514" lon="5.45256">
        <ele>208</ele>
        <time>2021-06-06T09:31:12.451Z</time>
      </trkpt>
      <trkpt lat="45.78507" lon="5.4525">
        <ele>208</ele>
        <time>2021-06-06T09:31:13.451Z</time>
      </trkpt>
      <trkpt lat="45.78499" lon="5.45245">
        <ele>207</ele>
        <time>2021-06-06T09:31:14.451Z</time>
      </trkpt>
      <trkpt lat="45.78492" lon="5.4524">
        <ele>207</ele>
        <time>2021-06-06T09:31:15.451Z</time>
      </trkpt>
      <trkpt lat="45.78486" lon="5.45236">
        <ele>206</ele>
        <time>2021-06-06T09:31:16.451Z</time>
      </trkpt>
      <trkpt lat="45.78479" lon="5.45231">
        <ele>206</ele>
        <time>2021-06-06T09:31:17.451Z</time>
      </trkpt>
      <trkpt lat="45.78472" lon="5.45226">
        <ele>206</ele>
        <time>2021-06-06T09:31:18.451Z</time>
      </trkpt>
      <trkpt lat="45.78466" lon="5.45222">
        <ele>206</ele>
        <time>2021-06-06T09:31:19.451Z</time>
      </trkpt>
      <trkpt lat="45.7846" lon="5.45218">
        <ele>206</ele>
        <time>2021-06-06T09:31:20.451Z</time>
      </trkpt>
      <trkpt lat="45.78453" lon="5.45214">
        <ele>205</ele>
        <time>2021-06-06T09:31:21.450Z</time>
      </trkpt>
      <trkpt lat="45.78447" lon="5.4521">
        <ele>205</ele>
        <time>2021-06-06T09:31:22.451Z</time>
      </trkpt>
      <trkpt lat="45.78441" lon="5.45206">
        <ele>205</ele>
        <time>2021-06-06T09:31:23.451Z</time>
      </trkpt>
      <trkpt lat="45.78436" lon="5.45202">
        <ele>205</ele>
        <time>2021-06-06T09:31:24.451Z</time>
      </trkpt>
      <trkpt lat="45.7843" lon="5.45198">
        <ele>205</ele>
        <time>2021-06-06T09:31:25.451Z</time>
      </trkpt>
      <trkpt lat="45.78425" lon="5.45194">
        <ele>206</ele>
        <time>2021-06-06T09:31:26.451Z</time>
      </trkpt>
      <trkpt lat="45.78419" lon="5.4519">
        <ele>207</ele>
        <time>2021-06-06T09:31:27.451Z</time>
      </trkpt>
      <trkpt lat="45.78414" lon="5.45186">
        <ele>207</ele>
        <time>2021-06-06T09:31:28.451Z</time>
      </trkpt>
      <trkpt lat="45.78408" lon="5.45183">
        <ele>208</ele>
        <time>2021-06-06T09:31:29.450Z</time>
      </trkpt>
      <trkpt lat="45.78403" lon="5.45179">
        <ele>208</ele>
        <time>2021-06-06T09:31:30.451Z</time>
      </trkpt>
      <trkpt lat="45.78397" lon="5.45176">
        <ele>209</ele>
        <time>2021-06-06T09:31:31.451Z</time>
      </trkpt>
      <trkpt lat="45.78393" lon="5.45173">
        <ele>210</ele>
        <time>2021-06-06T09:31:32.451Z</time>
      </trkpt>
      <trkpt lat="45.78388" lon="5.4517">
        <ele>210</ele>
        <time>2021-06-06T09:31:33.450Z</time>
      </trkpt>
      <trkpt lat="45.78383" lon="5.45166">
        <ele>210</ele>
        <time>2021-06-06T09:31:34.451Z</time>
      </trkpt>
      <trkpt lat="45.78378" lon="5.45163">
        <ele>210</ele>
        <time>2021-06-06T09:31:35.451Z</time>
      </trkpt>
      <trkpt lat="45.78373" lon="5.45159">
        <ele>210</ele>
        <time>2021-06-06T09:31:36.451Z</time>
      </trkpt>
      <trkpt lat="45.78368" lon="5.45156">
        <ele>210</ele>
        <time>2021-06-06T09:31:37.451Z</time>
      </trkpt>
      <trkpt lat="45.78362" lon="5.45152">
        <ele>210</ele>
        <time>2021-06-06T09:31:38.450Z</time>
      </trkpt>
      <trkpt lat="45.78357" lon="5.45148">
        <ele>210</ele>
        <time>2021-06-06T09:31:39.451Z</time>
      </trkpt>
      <trkpt lat="45.78352" lon="5.45145">
        <ele>210</ele>
        <time>2021-06-06T09:31:40.451Z</time>
      </trkpt>
      <trkpt lat="45.78346" lon="5.45141">
        <ele>211</ele>
        <time>2021-06-06T09:31:41.451Z</time>
      </trkpt>
      <trkpt lat="45.78341" lon="5.45137">
        <ele>211</ele>
        <time>2021-06-06T09:31:42.451Z</time>
      </trkpt>
      <trkpt lat="45.78335" lon="5.45133">
        <ele>212</ele>
        <time>2021-06-06T09:31:43.451Z</time>
      </trkpt>
      <trkpt lat="45.78329" lon="5.45129">
        <ele>212</ele>
        <time>2021-06-06T09:31:44.451Z</time>
      </trkpt>
      <trkpt lat="45.78323" lon="5.45124">
        <ele>212</ele>
        <time>2021-06-06T09:31:45.450Z</time>
      </trkpt>
      <trkpt lat="45.78317" lon="5.4512">
        <ele>212</ele>
        <time>2021-06-06T09:31:46.451Z</time>
      </trkpt>
      <trkpt lat="45.7831" lon="5.45116">
        <ele>213</ele>
        <time>2021-06-06T09:31:47.451Z</time>
      </trkpt>
      <trkpt lat="45.78304" lon="5.45111">
        <ele>213</ele>
        <time>2021-06-06T09:31:48.451Z</time>
      </trkpt>
      <trkpt lat="45.78297" lon="5.45107">
        <ele>214</ele>
        <time>2021-06-06T09:31:49.451Z</time>
      </trkpt>
      <trkpt lat="45.7829" lon="5.45102">
        <ele>214</ele>
        <time>2021-06-06T09:31:50.451Z</time>
      </trkpt>
      <trkpt lat="45.78284" lon="5.45098">
        <ele>214</ele>
        <time>2021-06-06T09:31:51.450Z</time>
      </trkpt>
      <trkpt lat="45.78277" lon="5.45093">
        <ele>214</ele>
        <time>2021-06-06T09:31:52.451Z</time>
      </trkpt>
      <trkpt lat="45.7827" lon="5.45088">
        <ele>213</ele>
        <time>2021-06-06T09:31:53.451Z</time>
      </trkpt>
      <trkpt lat="45.78263" lon="5.45082">
        <ele>213</ele>
        <time>2021-06-06T09:31:54.451Z</time>
      </trkpt>
      <trkpt lat="45.78256" lon="5.45077">
        <ele>212</ele>
        <time>2021-06-06T09:31:55.450Z</time>
      </trkpt>
      <trkpt lat="45.78249" lon="5.45072">
        <ele>212</ele>
        <time>2021-06-06T09:31:56.451Z</time>
      </trkpt>
      <trkpt lat="45.78241" lon="5.45068">
        <ele>211</ele>
        <time>2021-06-06T09:31:57.451Z</time>
      </trkpt>
      <trkpt lat="45.78234" lon="5.45062">
        <ele>211</ele>
        <time>2021-06-06T09:31:58.451Z</time>
      </trkpt>
      <trkpt lat="45.78228" lon="5.45057">
        <ele>211</ele>
        <time>2021-06-06T09:31:59.451Z</time>
      </trkpt>
      <trkpt lat="45.78221" lon="5.45052">
        <ele>211</ele>
        <time>2021-06-06T09:32:00.451Z</time>
      </trkpt>
      <trkpt lat="45.78214" lon="5.45048">
        <ele>211</ele>
        <time>2021-06-06T09:32:01.451Z</time>
      </trkpt>
      <trkpt lat="45.78208" lon="5.45043">
        <ele>211</ele>
        <time>2021-06-06T09:32:02.450Z</time>
      </trkpt>
      <trkpt lat="45.78201" lon="5.45038">
        <ele>212</ele>
        <time>2021-06-06T09:32:03.451Z</time>
      </trkpt>
      <trkpt lat="45.78195" lon="5.45033">
        <ele>212</ele>
        <time>2021-06-06T09:32:04.450Z</time>
      </trkpt>
      <trkpt lat="45.78189" lon="5.45028">
        <ele>213</ele>
        <time>2021-06-06T09:32:05.451Z</time>
      </trkpt>
      <trkpt lat="45.78182" lon="5.45022">
        <ele>212</ele>
        <time>2021-06-06T09:32:06.451Z</time>
      </trkpt>
      <trkpt lat="45.78177" lon="5.45016">
        <ele>212</ele>
        <time>2021-06-06T09:32:07.450Z</time>
      </trkpt>
      <trkpt lat="45.78171" lon="5.4501">
        <ele>213</ele>
        <time>2021-06-06T09:32:08.451Z</time>
      </trkpt>
      <trkpt lat="45.78165" lon="5.45005">
        <ele>213</ele>
        <time>2021-06-06T09:32:09.451Z</time>
      </trkpt>
      <trkpt lat="45.7816" lon="5.44999">
        <ele>213</ele>
        <time>2021-06-06T09:32:10.451Z</time>
      </trkpt>
      <trkpt lat="45.78155" lon="5.44993">
        <ele>213</ele>
        <time>2021-06-06T09:32:11.450Z</time>
      </trkpt>
      <trkpt lat="45.7815" lon="5.44988">
        <ele>214</ele>
        <time>2021-06-06T09:32:12.450Z</time>
      </trkpt>
      <trkpt lat="45.78146" lon="5.44982">
        <ele>214</ele>
        <time>2021-06-06T09:32:13.451Z</time>
      </trkpt>
      <trkpt lat="45.78141" lon="5.44976">
        <ele>214</ele>
        <time>2021-06-06T09:32:14.451Z</time>
      </trkpt>
      <trkpt lat="45.78137" lon="5.4497">
        <ele>214</ele>
        <time>2021-06-06T09:32:15.451Z</time>
      </trkpt>
      <trkpt lat="45.78133" lon="5.44965">
        <ele>215</ele>
        <time>2021-06-06T09:32:16.451Z</time>
      </trkpt>
      <trkpt lat="45.78129" lon="5.44959">
        <ele>215</ele>
        <time>2021-06-06T09:32:17.451Z</time>
      </trkpt>
      <trkpt lat="45.78125" lon="5.44954">
        <ele>215</ele>
        <time>2021-06-06T09:32:18.451Z</time>
      </trkpt>
      <trkpt lat="45.78122" lon="5.44948">
        <ele>215</ele>
        <time>2021-06-06T09:32:19.451Z</time>
      </trkpt>
      <trkpt lat="45.78118" lon="5.44942">
        <ele>215</ele>
        <time>2021-06-06T09:32:20.451Z</time>
      </trkpt>
      <trkpt lat="45.78114" lon="5.44937">
        <ele>215</ele>
        <time>2021-06-06T09:32:21.451Z</time>
      </trkpt>
      <trkpt lat="45.78111" lon="5.44931">
        <ele>215</ele>
        <time>2021-06-06T09:32:22.451Z</time>
      </trkpt>
      <trkpt lat="45.78108" lon="5.44926">
        <ele>215</ele>
        <time>2021-06-06T09:32:23.450Z</time>
      </trkpt>
      <trkpt lat="45.78104" lon="5.4492">
        <ele>215</ele>
        <time>2021-06-06T09:32:24.451Z</time>
      </trkpt>
      <trkpt lat="45.78101" lon="5.44915">
        <ele>215</ele>
        <time>2021-06-06T09:32:25.451Z</time>
      </trkpt>
      <trkpt lat="45.78098" lon="5.44909">
        <ele>215</ele>
        <time>2021-06-06T09:32:26.451Z</time>
      </trkpt>
      <trkpt lat="45.78094" lon="5.44903">
        <ele>215</ele>
        <time>2021-06-06T09:32:27.450Z</time>
      </trkpt>
      <trkpt lat="45.78091" lon="5.44897">
        <ele>215</ele>
        <time>2021-06-06T09:32:28.451Z</time>
      </trkpt>
      <trkpt lat="45.78088" lon="5.44891">
        <ele>214</ele>
        <time>2021-06-06T09:32:29.451Z</time>
      </trkpt>
      <trkpt lat="45.78086" lon="5.44885">
        <ele>215</ele>
        <time>2021-06-06T09:32:30.451Z</time>
      </trkpt>
      <trkpt lat="45.78083" lon="5.44878">
        <ele>215</ele>
        <time>2021-06-06T09:32:31.451Z</time>
      </trkpt>
      <trkpt lat="45.7808" lon="5.44872">
        <ele>215</ele>
        <time>2021-06-06T09:32:32.451Z</time>
      </trkpt>
      <trkpt lat="45.78077" lon="5.44865">
        <ele>215</ele>
        <time>2021-06-06T09:32:33.450Z</time>
      </trkpt>
      <trkpt lat="45.78074" lon="5.44858">
        <ele>216</ele>
        <time>2021-06-06T09:32:34.450Z</time>
      </trkpt>
      <trkpt lat="45.78072" lon="5.44851">
        <ele>216</ele>
        <time>2021-06-06T09:32:35.451Z</time>
      </trkpt>
      <trkpt lat="45.78069" lon="5.44845">
        <ele>216</ele>
        <time>2021-06-06T09:32:36.451Z</time>
      </trkpt>
      <trkpt lat="45.78066" lon="5.44838">
        <ele>216</ele>
        <time>2021-06-06T09:32:37.451Z</time>
      </trkpt>
      <trkpt lat="45.78064" lon="5.44831">
        <ele>216</ele>
        <time>2021-06-06T09:32:38.451Z</time>
      </trkpt>
      <trkpt lat="45.78061" lon="5.44825">
        <ele>216</ele>
        <time>2021-06-06T09:32:39.451Z</time>
      </trkpt>
      <trkpt lat="45.78059" lon="5.44818">
        <ele>217</ele>
        <time>2021-06-06T09:32:40.451Z</time>
      </trkpt>
      <trkpt lat="45.78056" lon="5.44811">
        <ele>217</ele>
        <time>2021-06-06T09:32:41.451Z</time>
      </trkpt>
      <trkpt lat="45.78054" lon="5.44805">
        <ele>218</ele>
        <time>2021-06-06T09:32:42.451Z</time>
      </trkpt>
      <trkpt lat="45.78051" lon="5.44798">
        <ele>218</ele>
        <time>2021-06-06T09:32:43.451Z</time>
      </trkpt>
      <trkpt lat="45.78049" lon="5.44791">
        <ele>218</ele>
        <time>2021-06-06T09:32:44.451Z</time>
      </trkpt>
      <trkpt lat="45.78046" lon="5.44784">
        <ele>219</ele>
        <time>2021-06-06T09:32:45.451Z</time>
      </trkpt>
      <trkpt lat="45.78043" lon="5.44777">
        <ele>218</ele>
        <time>2021-06-06T09:32:46.451Z</time>
      </trkpt>
      <trkpt lat="45.78041" lon="5.4477">
        <ele>218</ele>
        <time>2021-06-06T09:32:47.451Z</time>
      </trkpt>
      <trkpt lat="45.78038" lon="5.44763">
        <ele>219</ele>
        <time>2021-06-06T09:32:48.450Z</time>
      </trkpt>
      <trkpt lat="45.78035" lon="5.44756">
        <ele>219</ele>
        <time>2021-06-06T09:32:49.451Z</time>
      </trkpt>
      <trkpt lat="45.78032" lon="5.44749">
        <ele>219</ele>
        <time>2021-06-06T09:32:50.450Z</time>
      </trkpt>
      <trkpt lat="45.78029" lon="5.44742">
        <ele>220</ele>
        <time>2021-06-06T09:32:51.451Z</time>
      </trkpt>
      <trkpt lat="45.78026" lon="5.44734">
        <ele>220</ele>
        <time>2021-06-06T09:32:52.451Z</time>
      </trkpt>
      <trkpt lat="45.78024" lon="5.44727">
        <ele>221</ele>
        <time>2021-06-06T09:32:53.451Z</time>
      </trkpt>
      <trkpt lat="45.78021" lon="5.44719">
        <ele>221</ele>
        <time>2021-06-06T09:32:54.451Z</time>
      </trkpt>
      <trkpt lat="45.78018" lon="5.44712">
        <ele>221</ele>
        <time>2021-06-06T09:32:55.451Z</time>
      </trkpt>
      <trkpt lat="45.78015" lon="5.44704">
        <ele>222</ele>
        <time>2021-06-06T09:32:56.450Z</time>
      </trkpt>
      <trkpt lat="45.78012" lon="5.44696">
        <ele>222</ele>
        <time>2021-06-06T09:32:57.451Z</time>
      </trkpt>
      <trkpt lat="45.78009" lon="5.44689">
        <ele>222</ele>
        <time>2021-06-06T09:32:58.450Z</time>
      </trkpt>
      <trkpt lat="45.78006" lon="5.44681">
        <ele>222</ele>
        <time>2021-06-06T09:32:59.450Z</time>
      </trkpt>
      <trkpt lat="45.78003" lon="5.44673">
        <ele>222</ele>
        <time>2021-06-06T09:33:00.451Z</time>
      </trkpt>
      <trkpt lat="45.78" lon="5.44665">
        <ele>223</ele>
        <time>2021-06-06T09:33:01.451Z</time>
      </trkpt>
      <trkpt lat="45.77997" lon="5.44657">
        <ele>223</ele>
        <time>2021-06-06T09:33:02.451Z</time>
      </trkpt>
      <trkpt lat="45.77994" lon="5.44649">
        <ele>224</ele>
        <time>2021-06-06T09:33:03.450Z</time>
      </trkpt>
      <trkpt lat="45.77992" lon="5.44641">
        <ele>224</ele>
        <time>2021-06-06T09:33:04.451Z</time>
      </trkpt>
      <trkpt lat="45.77989" lon="5.44633">
        <ele>224</ele>
        <time>2021-06-06T09:33:05.451Z</time>
      </trkpt>
      <trkpt lat="45.77987" lon="5.44624">
        <ele>223</ele>
        <time>2021-06-06T09:33:06.450Z</time>
      </trkpt>
      <trkpt lat="45.77985" lon="5.44616">
        <ele>223</ele>
        <time>2021-06-06T09:33:07.451Z</time>
      </trkpt>
      <trkpt lat="45.77984" lon="5.44607">
        <ele>224</ele>
        <time>2021-06-06T09:33:08.450Z</time>
      </trkpt>
      <trkpt lat="45.77983" lon="5.44599">
        <ele>224</ele>
        <time>2021-06-06T09:33:09.450Z</time>
      </trkpt>
      <trkpt lat="45.77981" lon="5.4459">
        <ele>224</ele>
        <time>2021-06-06T09:33:10.451Z</time>
      </trkpt>
      <trkpt lat="45.7798" lon="5.44581">
        <ele>224</ele>
        <time>2021-06-06T09:33:11.451Z</time>
      </trkpt>
      <trkpt lat="45.7798" lon="5.44572">
        <ele>223</ele>
        <time>2021-06-06T09:33:12.451Z</time>
      </trkpt>
      <trkpt lat="45.77979" lon="5.44563">
        <ele>223</ele>
        <time>2021-06-06T09:33:13.451Z</time>
      </trkpt>
      <trkpt lat="45.77979" lon="5.44553">
        <ele>223</ele>
        <time>2021-06-06T09:33:14.451Z</time>
      </trkpt>
      <trkpt lat="45.7798" lon="5.44544">
        <ele>222</ele>
        <time>2021-06-06T09:33:15.450Z</time>
      </trkpt>
      <trkpt lat="45.77981" lon="5.44535">
        <ele>222</ele>
        <time>2021-06-06T09:33:16.451Z</time>
      </trkpt>
      <trkpt lat="45.77982" lon="5.44525">
        <ele>222</ele>
        <time>2021-06-06T09:33:17.450Z</time>
      </trkpt>
      <trkpt lat="45.77984" lon="5.44517">
        <ele>223</ele>
        <time>2021-06-06T09:33:18.451Z</time>
      </trkpt>
      <trkpt lat="45.77985" lon="5.44508">
        <ele>223</ele>
        <time>2021-06-06T09:33:19.451Z</time>
      </trkpt>
      <trkpt lat="45.77987" lon="5.44499">
        <ele>223</ele>
        <time>2021-06-06T09:33:20.451Z</time>
      </trkpt>
      <trkpt lat="45.77989" lon="5.4449">
        <ele>223</ele>
        <time>2021-06-06T09:33:21.451Z</time>
      </trkpt>
      <trkpt lat="45.77991" lon="5.44481">
        <ele>224</ele>
        <time>2021-06-06T09:33:22.451Z</time>
      </trkpt>
      <trkpt lat="45.77993" lon="5.44472">
        <ele>224</ele>
        <time>2021-06-06T09:33:23.450Z</time>
      </trkpt>
      <trkpt lat="45.77996" lon="5.44463">
        <ele>223</ele>
        <time>2021-06-06T09:33:24.451Z</time>
      </trkpt>
      <trkpt lat="45.77998" lon="5.44454">
        <ele>223</ele>
        <time>2021-06-06T09:33:25.451Z</time>
      </trkpt>
      <trkpt lat="45.78" lon="5.44444">
        <ele>223</ele>
        <time>2021-06-06T09:33:26.451Z</time>
      </trkpt>
      <trkpt lat="45.78002" lon="5.44434">
        <ele>223</ele>
        <time>2021-06-06T09:33:27.451Z</time>
      </trkpt>
      <trkpt lat="45.78004" lon="5.44424">
        <ele>223</ele>
        <time>2021-06-06T09:33:28.451Z</time>
      </trkpt>
      <trkpt lat="45.78006" lon="5.44414">
        <ele>224</ele>
        <time>2021-06-06T09:33:29.451Z</time>
      </trkpt>
      <trkpt lat="45.78009" lon="5.44405">
        <ele>225</ele>
        <time>2021-06-06T09:33:30.451Z</time>
      </trkpt>
      <trkpt lat="45.78011" lon="5.44395">
        <ele>225</ele>
        <time>2021-06-06T09:33:31.451Z</time>
      </trkpt>
      <trkpt lat="45.78014" lon="5.44385">
        <ele>225</ele>
        <time>2021-06-06T09:33:32.451Z</time>
      </trkpt>
      <trkpt lat="45.78016" lon="5.44376">
        <ele>225</ele>
        <time>2021-06-06T09:33:33.451Z</time>
      </trkpt>
      <trkpt lat="45.78019" lon="5.44366">
        <ele>225</ele>
        <time>2021-06-06T09:33:34.451Z</time>
      </trkpt>
      <trkpt lat="45.78021" lon="5.44357">
        <ele>225</ele>
        <time>2021-06-06T09:33:35.451Z</time>
      </trkpt>
      <trkpt lat="45.78024" lon="5.44347">
        <ele>224</ele>
        <time>2021-06-06T09:33:36.451Z</time>
      </trkpt>
      <trkpt lat="45.78026" lon="5.44338">
        <ele>224</ele>
        <time>2021-06-06T09:33:37.450Z</time>
      </trkpt>
      <trkpt lat="45.78028" lon="5.44329">
        <ele>223</ele>
        <time>2021-06-06T09:33:38.451Z</time>
      </trkpt>
      <trkpt lat="45.7803" lon="5.44319">
        <ele>223</ele>
        <time>2021-06-06T09:33:39.451Z</time>
      </trkpt>
      <trkpt lat="45.78032" lon="5.4431">
        <ele>223</ele>
        <time>2021-06-06T09:33:40.451Z</time>
      </trkpt>
      <trkpt lat="45.78034" lon="5.44301">
        <ele>224</ele>
        <time>2021-06-06T09:33:41.450Z</time>
      </trkpt>
      <trkpt lat="45.78036" lon="5.44291">
        <ele>224</ele>
        <time>2021-06-06T09:33:42.451Z</time>
      </trkpt>
      <trkpt lat="45.78038" lon="5.44282">
        <ele>224</ele>
        <time>2021-06-06T09:33:43.451Z</time>
      </trkpt>
      <trkpt lat="45.7804" lon="5.44273">
        <ele>224</ele>
        <time>2021-06-06T09:33:44.451Z</time>
      </trkpt>
      <trkpt lat="45.78042" lon="5.44264">
        <ele>224</ele>
        <time>2021-06-06T09:33:45.451Z</time>
      </trkpt>
      <trkpt lat="45.78044" lon="5.44255">
        <ele>224</ele>
        <time>2021-06-06T09:33:46.451Z</time>
      </trkpt>
      <trkpt lat="45.78046" lon="5.44246">
        <ele>224</ele>
        <time>2021-06-06T09:33:47.450Z</time>
      </trkpt>
      <trkpt lat="45.78048" lon="5.44238">
        <ele>223</ele>
        <time>2021-06-06T09:33:48.451Z</time>
      </trkpt>
      <trkpt lat="45.7805" lon="5.44229">
        <ele>223</ele>
        <time>2021-06-06T09:33:49.451Z</time>
      </trkpt>
      <trkpt lat="45.78051" lon="5.44221">
        <ele>223</ele>
        <time>2021-06-06T09:33:50.450Z</time>
      </trkpt>
      <trkpt lat="45.78053" lon="5.44213">
        <ele>223</ele>
        <time>2021-06-06T09:33:51.451Z</time>
      </trkpt>
      <trkpt lat="45.78054" lon="5.44206">
        <ele>223</ele>
        <time>2021-06-06T09:33:52.451Z</time>
      </trkpt>
      <trkpt lat="45.78056" lon="5.44199">
        <ele>224</ele>
        <time>2021-06-06T09:33:53.451Z</time>
      </trkpt>
      <trkpt lat="45.78056" lon="5.44193">
        <ele>224</ele>
        <time>2021-06-06T09:33:54.451Z</time>
      </trkpt>
      <trkpt lat="45.78056" lon="5.44187">
        <ele>224</ele>
        <time>2021-06-06T09:33:55.451Z</time>
      </trkpt>
      <trkpt lat="45.78055" lon="5.44182">
        <ele>225</ele>
        <time>2021-06-06T09:33:56.451Z</time>
      </trkpt>
      <trkpt lat="45.78052" lon="5.44178">
        <ele>225</ele>
        <time>2021-06-06T09:33:57.450Z</time>
      </trkpt>
      <trkpt lat="45.78047" lon="5.44175">
        <ele>225</ele>
        <time>2021-06-06T09:33:58.451Z</time>
      </trkpt>
      <trkpt lat="45.78043" lon="5.44172">
        <ele>224</ele>
        <time>2021-06-06T09:33:59.451Z</time>
      </trkpt>
      <trkpt lat="45.78038" lon="5.44169">
        <ele>224</ele>
        <time>2021-06-06T09:34:00.450Z</time>
      </trkpt>
      <trkpt lat="45.78033" lon="5.44166">
        <ele>224</ele>
        <time>2021-06-06T09:34:01.451Z</time>
      </trkpt>
      <trkpt lat="45.78028" lon="5.44163">
        <ele>224</ele>
        <time>2021-06-06T09:34:02.451Z</time>
      </trkpt>
      <trkpt lat="45.78022" lon="5.4416">
        <ele>224</ele>
        <time>2021-06-06T09:34:03.450Z</time>
      </trkpt>
      <trkpt lat="45.78016" lon="5.44157">
        <ele>224</ele>
        <time>2021-06-06T09:34:04.451Z</time>
      </trkpt>
      <trkpt lat="45.78011" lon="5.44153">
        <ele>224</ele>
        <time>2021-06-06T09:34:05.451Z</time>
      </trkpt>
      <trkpt lat="45.78005" lon="5.4415">
        <ele>224</ele>
        <time>2021-06-06T09:34:06.450Z</time>
      </trkpt>
      <trkpt lat="45.77999" lon="5.44146">
        <ele>224</ele>
        <time>2021-06-06T09:34:07.451Z</time>
      </trkpt>
      <trkpt lat="45.77993" lon="5.44143">
        <ele>224</ele>
        <time>2021-06-06T09:34:08.451Z</time>
      </trkpt>
      <trkpt lat="45.77987" lon="5.44139">
        <ele>224</ele>
        <time>2021-06-06T09:34:09.451Z</time>
      </trkpt>
      <trkpt lat="45.77981" lon="5.44135">
        <ele>223</ele>
        <time>2021-06-06T09:34:10.450Z</time>
      </trkpt>
      <trkpt lat="45.77975" lon="5.44132">
        <ele>223</ele>
        <time>2021-06-06T09:34:11.451Z</time>
      </trkpt>
      <trkpt lat="45.77969" lon="5.44128">
        <ele>222</ele>
        <time>2021-06-06T09:34:12.451Z</time>
      </trkpt>
      <trkpt lat="45.77963" lon="5.44124">
        <ele>222</ele>
        <time>2021-06-06T09:34:13.451Z</time>
      </trkpt>
      <trkpt lat="45.77957" lon="5.44121">
        <ele>222</ele>
        <time>2021-06-06T09:34:14.451Z</time>
      </trkpt>
      <trkpt lat="45.7795" lon="5.44117">
        <ele>221</ele>
        <time>2021-06-06T09:34:15.451Z</time>
      </trkpt>
      <trkpt lat="45.77945" lon="5.44114">
        <ele>221</ele>
        <time>2021-06-06T09:34:16.451Z</time>
      </trkpt>
      <trkpt lat="45.77939" lon="5.4411">
        <ele>221</ele>
        <time>2021-06-06T09:34:17.451Z</time>
      </trkpt>
      <trkpt lat="45.77932" lon="5.44106">
        <ele>221</ele>
        <time>2021-06-06T09:34:18.451Z</time>
      </trkpt>
      <trkpt lat="45.77927" lon="5.44102">
        <ele>220</ele>
        <time>2021-06-06T09:34:19.451Z</time>
      </trkpt>
      <trkpt lat="45.7792" lon="5.44098">
        <ele>220</ele>
        <time>2021-06-06T09:34:20.451Z</time>
      </trkpt>
      <trkpt lat="45.77914" lon="5.44094">
        <ele>220</ele>
        <time>2021-06-06T09:34:21.451Z</time>
      </trkpt>
      <trkpt lat="45.77908" lon="5.4409">
        <ele>219</ele>
        <time>2021-06-06T09:34:22.451Z</time>
      </trkpt>
      <trkpt lat="45.77902" lon="5.44086">
        <ele>219</ele>
        <time>2021-06-06T09:34:23.450Z</time>
      </trkpt>
      <trkpt lat="45.77896" lon="5.44083">
        <ele>219</ele>
        <time>2021-06-06T09:34:24.451Z</time>
      </trkpt>
      <trkpt lat="45.7789" lon="5.44079">
        <ele>219</ele>
        <time>2021-06-06T09:34:25.451Z</time>
      </trkpt>
      <trkpt lat="45.77884" lon="5.44075">
        <ele>219</ele>
        <time>2021-06-06T09:34:26.451Z</time>
      </trkpt>
      <trkpt lat="45.77877" lon="5.44071">
        <ele>220</ele>
        <time>2021-06-06T09:34:27.451Z</time>
      </trkpt>
      <trkpt lat="45.77871" lon="5.44067">
        <ele>220</ele>
        <time>2021-06-06T09:34:28.451Z</time>
      </trkpt>
      <trkpt lat="45.77865" lon="5.44063">
        <ele>220</ele>
        <time>2021-06-06T09:34:29.451Z</time>
      </trkpt>
      <trkpt lat="45.77859" lon="5.44059">
        <ele>220</ele>
        <time>2021-06-06T09:34:30.451Z</time>
      </trkpt>
      <trkpt lat="45.77852" lon="5.44055">
        <ele>220</ele>
        <time>2021-06-06T09:34:31.450Z</time>
      </trkpt>
      <trkpt lat="45.77846" lon="5.44051">
        <ele>221</ele>
        <time>2021-06-06T09:34:32.451Z</time>
      </trkpt>
      <trkpt lat="45.7784" lon="5.44047">
        <ele>221</ele>
        <time>2021-06-06T09:34:33.451Z</time>
      </trkpt>
      <trkpt lat="45.77834" lon="5.44043">
        <ele>221</ele>
        <time>2021-06-06T09:34:34.451Z</time>
      </trkpt>
      <trkpt lat="45.77828" lon="5.44039">
        <ele>221</ele>
        <time>2021-06-06T09:34:35.451Z</time>
      </trkpt>
      <trkpt lat="45.77822" lon="5.44034">
        <ele>221</ele>
        <time>2021-06-06T09:34:36.450Z</time>
      </trkpt>
      <trkpt lat="45.77817" lon="5.44029">
        <ele>220</ele>
        <time>2021-06-06T09:34:37.451Z</time>
      </trkpt>
      <trkpt lat="45.77811" lon="5.44024">
        <ele>220</ele>
        <time>2021-06-06T09:34:38.450Z</time>
      </trkpt>
      <trkpt lat="45.77805" lon="5.44019">
        <ele>219</ele>
        <time>2021-06-06T09:34:39.450Z</time>
      </trkpt>
      <trkpt lat="45.77799" lon="5.44013">
        <ele>219</ele>
        <time>2021-06-06T09:34:40.451Z</time>
      </trkpt>
      <trkpt lat="45.77794" lon="5.44007">
        <ele>219</ele>
        <time>2021-06-06T09:34:41.451Z</time>
      </trkpt>
      <trkpt lat="45.77788" lon="5.44001">
        <ele>220</ele>
        <time>2021-06-06T09:34:42.451Z</time>
      </trkpt>
      <trkpt lat="45.77783" lon="5.43995">
        <ele>220</ele>
        <time>2021-06-06T09:34:43.451Z</time>
      </trkpt>
      <trkpt lat="45.77777" lon="5.43989">
        <ele>219</ele>
        <time>2021-06-06T09:34:44.451Z</time>
      </trkpt>
      <trkpt lat="45.77771" lon="5.43983">
        <ele>219</ele>
        <time>2021-06-06T09:34:45.450Z</time>
      </trkpt>
      <trkpt lat="45.77766" lon="5.43976">
        <ele>219</ele>
        <time>2021-06-06T09:34:46.451Z</time>
      </trkpt>
      <trkpt lat="45.7776" lon="5.43969">
        <ele>218</ele>
        <time>2021-06-06T09:34:47.451Z</time>
      </trkpt>
      <trkpt lat="45.77754" lon="5.43962">
        <ele>218</ele>
        <time>2021-06-06T09:34:48.451Z</time>
      </trkpt>
      <trkpt lat="45.77749" lon="5.43955">
        <ele>217</ele>
        <time>2021-06-06T09:34:49.451Z</time>
      </trkpt>
      <trkpt lat="45.77743" lon="5.43948">
        <ele>217</ele>
        <time>2021-06-06T09:34:50.450Z</time>
      </trkpt>
      <trkpt lat="45.77738" lon="5.43941">
        <ele>217</ele>
        <time>2021-06-06T09:34:51.451Z</time>
      </trkpt>
      <trkpt lat="45.77733" lon="5.43933">
        <ele>217</ele>
        <time>2021-06-06T09:34:52.451Z</time>
      </trkpt>
      <trkpt lat="45.77727" lon="5.43926">
        <ele>218</ele>
        <time>2021-06-06T09:34:53.450Z</time>
      </trkpt>
      <trkpt lat="45.77722" lon="5.43918">
        <ele>218</ele>
        <time>2021-06-06T09:34:54.451Z</time>
      </trkpt>
      <trkpt lat="45.77718" lon="5.43911">
        <ele>219</ele>
        <time>2021-06-06T09:34:55.450Z</time>
      </trkpt>
      <trkpt lat="45.77713" lon="5.43903">
        <ele>219</ele>
        <time>2021-06-06T09:34:56.451Z</time>
      </trkpt>
      <trkpt lat="45.77708" lon="5.43895">
        <ele>219</ele>
        <time>2021-06-06T09:34:57.451Z</time>
      </trkpt>
      <trkpt lat="45.77703" lon="5.43886">
        <ele>219</ele>
        <time>2021-06-06T09:34:58.451Z</time>
      </trkpt>
      <trkpt lat="45.77699" lon="5.43878">
        <ele>219</ele>
        <time>2021-06-06T09:34:59.451Z</time>
      </trkpt>
      <trkpt lat="45.77694" lon="5.4387">
        <ele>219</ele>
        <time>2021-06-06T09:35:00.450Z</time>
      </trkpt>
      <trkpt lat="45.7769" lon="5.43862">
        <ele>219</ele>
        <time>2021-06-06T09:35:01.451Z</time>
      </trkpt>
      <trkpt lat="45.77686" lon="5.43854">
        <ele>219</ele>
        <time>2021-06-06T09:35:02.451Z</time>
      </trkpt>
      <trkpt lat="45.77681" lon="5.43846">
        <ele>219</ele>
        <time>2021-06-06T09:35:03.451Z</time>
      </trkpt>
      <trkpt lat="45.77678" lon="5.43838">
        <ele>220</ele>
        <time>2021-06-06T09:35:04.451Z</time>
      </trkpt>
      <trkpt lat="45.77674" lon="5.43829">
        <ele>220</ele>
        <time>2021-06-06T09:35:05.450Z</time>
      </trkpt>
      <trkpt lat="45.7767" lon="5.43821">
        <ele>220</ele>
        <time>2021-06-06T09:35:06.451Z</time>
      </trkpt>
      <trkpt lat="45.77666" lon="5.43813">
        <ele>220</ele>
        <time>2021-06-06T09:35:07.451Z</time>
      </trkpt>
      <trkpt lat="45.77663" lon="5.43804">
        <ele>220</ele>
        <time>2021-06-06T09:35:08.451Z</time>
      </trkpt>
      <trkpt lat="45.7766" lon="5.43795">
        <ele>220</ele>
        <time>2021-06-06T09:35:09.451Z</time>
      </trkpt>
      <trkpt lat="45.77657" lon="5.43786">
        <ele>220</ele>
        <time>2021-06-06T09:35:10.451Z</time>
      </trkpt>
      <trkpt lat="45.77654" lon="5.43777">
        <ele>220</ele>
        <time>2021-06-06T09:35:11.451Z</time>
      </trkpt>
      <trkpt lat="45.77651" lon="5.43769">
        <ele>221</ele>
        <time>2021-06-06T09:35:12.451Z</time>
      </trkpt>
      <trkpt lat="45.77648" lon="5.4376">
        <ele>221</ele>
        <time>2021-06-06T09:35:13.451Z</time>
      </trkpt>
      <trkpt lat="45.77645" lon="5.43751">
        <ele>222</ele>
        <time>2021-06-06T09:35:14.451Z</time>
      </trkpt>
      <trkpt lat="45.77642" lon="5.43742">
        <ele>222</ele>
        <time>2021-06-06T09:35:15.451Z</time>
      </trkpt>
      <trkpt lat="45.77639" lon="5.43733">
        <ele>222</ele>
        <time>2021-06-06T09:35:16.451Z</time>
      </trkpt>
      <trkpt lat="45.77637" lon="5.43724">
        <ele>222</ele>
        <time>2021-06-06T09:35:17.450Z</time>
      </trkpt>
      <trkpt lat="45.77633" lon="5.43715">
        <ele>223</ele>
        <time>2021-06-06T09:35:18.451Z</time>
      </trkpt>
      <trkpt lat="45.7763" lon="5.43706">
        <ele>223</ele>
        <time>2021-06-06T09:35:19.451Z</time>
      </trkpt>
      <trkpt lat="45.77627" lon="5.43697">
        <ele>223</ele>
        <time>2021-06-06T09:35:20.451Z</time>
      </trkpt>
      <trkpt lat="45.77624" lon="5.43689">
        <ele>223</ele>
        <time>2021-06-06T09:35:21.451Z</time>
      </trkpt>
      <trkpt lat="45.77621" lon="5.4368">
        <ele>223</ele>
        <time>2021-06-06T09:35:22.451Z</time>
      </trkpt>
      <trkpt lat="45.77618" lon="5.43671">
        <ele>222</ele>
        <time>2021-06-06T09:35:23.450Z</time>
      </trkpt>
      <trkpt lat="45.77615" lon="5.43662">
        <ele>222</ele>
        <time>2021-06-06T09:35:24.451Z</time>
      </trkpt>
      <trkpt lat="45.77612" lon="5.43653">
        <ele>222</ele>
        <time>2021-06-06T09:35:25.451Z</time>
      </trkpt>
      <trkpt lat="45.77609" lon="5.43644">
        <ele>222</ele>
        <time>2021-06-06T09:35:26.451Z</time>
      </trkpt>
      <trkpt lat="45.77606" lon="5.43636">
        <ele>222</ele>
        <time>2021-06-06T09:35:27.451Z</time>
      </trkpt>
      <trkpt lat="45.77603" lon="5.43627">
        <ele>223</ele>
        <time>2021-06-06T09:35:28.451Z</time>
      </trkpt>
      <trkpt lat="45.776" lon="5.43618">
        <ele>223</ele>
        <time>2021-06-06T09:35:29.451Z</time>
      </trkpt>
      <trkpt lat="45.77597" lon="5.43609">
        <ele>223</ele>
        <time>2021-06-06T09:35:30.450Z</time>
      </trkpt>
      <trkpt lat="45.77595" lon="5.436">
        <ele>223</ele>
        <time>2021-06-06T09:35:31.451Z</time>
      </trkpt>
      <trkpt lat="45.77592" lon="5.4359">
        <ele>222</ele>
        <time>2021-06-06T09:35:32.450Z</time>
      </trkpt>
      <trkpt lat="45.77589" lon="5.43581">
        <ele>222</ele>
        <time>2021-06-06T09:35:33.450Z</time>
      </trkpt>
      <trkpt lat="45.77587" lon="5.43572">
        <ele>221</ele>
        <time>2021-06-06T09:35:34.451Z</time>
      </trkpt>
      <trkpt lat="45.77585" lon="5.43563">
        <ele>221</ele>
        <time>2021-06-06T09:35:35.451Z</time>
      </trkpt>
      <trkpt lat="45.77583" lon="5.43554">
        <ele>221</ele>
        <time>2021-06-06T09:35:36.451Z</time>
      </trkpt>
      <trkpt lat="45.77582" lon="5.43545">
        <ele>221</ele>
        <time>2021-06-06T09:35:37.451Z</time>
      </trkpt>
      <trkpt lat="45.7758" lon="5.43535">
        <ele>221</ele>
        <time>2021-06-06T09:35:38.451Z</time>
      </trkpt>
      <trkpt lat="45.77579" lon="5.43526">
        <ele>221</ele>
        <time>2021-06-06T09:35:39.451Z</time>
      </trkpt>
      <trkpt lat="45.77578" lon="5.43516">
        <ele>222</ele>
        <time>2021-06-06T09:35:40.451Z</time>
      </trkpt>
      <trkpt lat="45.77577" lon="5.43507">
        <ele>223</ele>
        <time>2021-06-06T09:35:41.451Z</time>
      </trkpt>
      <trkpt lat="45.77577" lon="5.43498">
        <ele>224</ele>
        <time>2021-06-06T09:35:42.450Z</time>
      </trkpt>
      <trkpt lat="45.77576" lon="5.43488">
        <ele>226</ele>
        <time>2021-06-06T09:35:43.451Z</time>
      </trkpt>
      <trkpt lat="45.77576" lon="5.43479">
        <ele>227</ele>
        <time>2021-06-06T09:35:44.450Z</time>
      </trkpt>
      <trkpt lat="45.77576" lon="5.4347">
        <ele>228</ele>
        <time>2021-06-06T09:35:45.451Z</time>
      </trkpt>
      <trkpt lat="45.77575" lon="5.43461">
        <ele>229</ele>
        <time>2021-06-06T09:35:46.451Z</time>
      </trkpt>
      <trkpt lat="45.77575" lon="5.43452">
        <ele>229</ele>
        <time>2021-06-06T09:35:47.451Z</time>
      </trkpt>
      <trkpt lat="45.77574" lon="5.43444">
        <ele>230</ele>
        <time>2021-06-06T09:35:48.450Z</time>
      </trkpt>
      <trkpt lat="45.77573" lon="5.43435">
        <ele>230</ele>
        <time>2021-06-06T09:35:49.450Z</time>
      </trkpt>
      <trkpt lat="45.77573" lon="5.43427">
        <ele>230</ele>
        <time>2021-06-06T09:35:50.451Z</time>
      </trkpt>
      <trkpt lat="45.77572" lon="5.43419">
        <ele>230</ele>
        <time>2021-06-06T09:35:51.450Z</time>
      </trkpt>
      <trkpt lat="45.77571" lon="5.43412">
        <ele>230</ele>
        <time>2021-06-06T09:35:52.451Z</time>
      </trkpt>
      <trkpt lat="45.77571" lon="5.43404">
        <ele>230</ele>
        <time>2021-06-06T09:35:53.450Z</time>
      </trkpt>
      <trkpt lat="45.7757" lon="5.43397">
        <ele>229</ele>
        <time>2021-06-06T09:35:54.451Z</time>
      </trkpt>
      <trkpt lat="45.77569" lon="5.4339">
        <ele>229</ele>
        <time>2021-06-06T09:35:55.451Z</time>
      </trkpt>
      <trkpt lat="45.77569" lon="5.43383">
        <ele>229</ele>
        <time>2021-06-06T09:35:56.450Z</time>
      </trkpt>
      <trkpt lat="45.77568" lon="5.43376">
        <ele>228</ele>
        <time>2021-06-06T09:35:57.451Z</time>
      </trkpt>
      <trkpt lat="45.77567" lon="5.4337">
        <ele>228</ele>
        <time>2021-06-06T09:35:58.451Z</time>
      </trkpt>
      <trkpt lat="45.77566" lon="5.43363">
        <ele>228</ele>
        <time>2021-06-06T09:35:59.451Z</time>
      </trkpt>
      <trkpt lat="45.77566" lon="5.43356">
        <ele>228</ele>
        <time>2021-06-06T09:36:00.451Z</time>
      </trkpt>
      <trkpt lat="45.77565" lon="5.4335">
        <ele>228</ele>
        <time>2021-06-06T09:36:01.451Z</time>
      </trkpt>
      <trkpt lat="45.77564" lon="5.43344">
        <ele>228</ele>
        <time>2021-06-06T09:36:02.451Z</time>
      </trkpt>
      <trkpt lat="45.77563" lon="5.43338">
        <ele>228</ele>
        <time>2021-06-06T09:36:03.451Z</time>
      </trkpt>
      <trkpt lat="45.77561" lon="5.43333">
        <ele>228</ele>
        <time>2021-06-06T09:36:04.451Z</time>
      </trkpt>
      <trkpt lat="45.77559" lon="5.43329">
        <ele>227</ele>
        <time>2021-06-06T09:36:05.450Z</time>
      </trkpt>
      <trkpt lat="45.77555" lon="5.43327">
        <ele>227</ele>
        <time>2021-06-06T09:36:06.451Z</time>
      </trkpt>
      <trkpt lat="45.77551" lon="5.43326">
        <ele>226</ele>
        <time>2021-06-06T09:36:07.450Z</time>
      </trkpt>
      <trkpt lat="45.77547" lon="5.43325">
        <ele>226</ele>
        <time>2021-06-06T09:36:08.451Z</time>
      </trkpt>
      <trkpt lat="45.77543" lon="5.43325">
        <ele>226</ele>
        <time>2021-06-06T09:36:09.451Z</time>
      </trkpt>
      <trkpt lat="45.77537" lon="5.43325">
        <ele>227</ele>
        <time>2021-06-06T09:36:10.451Z</time>
      </trkpt>
      <trkpt lat="45.77532" lon="5.43324">
        <ele>226</ele>
        <time>2021-06-06T09:36:11.451Z</time>
      </trkpt>
      <trkpt lat="45.77526" lon="5.43323">
        <ele>226</ele>
        <time>2021-06-06T09:36:12.451Z</time>
      </trkpt>
      <trkpt lat="45.77519" lon="5.43322">
        <ele>226</ele>
        <time>2021-06-06T09:36:13.451Z</time>
      </trkpt>
      <trkpt lat="45.77513" lon="5.43321">
        <ele>225</ele>
        <time>2021-06-06T09:36:14.451Z</time>
      </trkpt>
      <trkpt lat="45.77507" lon="5.43319">
        <ele>225</ele>
        <time>2021-06-06T09:36:15.450Z</time>
      </trkpt>
      <trkpt lat="45.77501" lon="5.43318">
        <ele>224</ele>
        <time>2021-06-06T09:36:16.451Z</time>
      </trkpt>
      <trkpt lat="45.77494" lon="5.43316">
        <ele>224</ele>
        <time>2021-06-06T09:36:17.451Z</time>
      </trkpt>
      <trkpt lat="45.77488" lon="5.43314">
        <ele>223</ele>
        <time>2021-06-06T09:36:18.451Z</time>
      </trkpt>
      <trkpt lat="45.77481" lon="5.43312">
        <ele>223</ele>
        <time>2021-06-06T09:36:19.451Z</time>
      </trkpt>
      <trkpt lat="45.77475" lon="5.4331">
        <ele>222</ele>
        <time>2021-06-06T09:36:20.451Z</time>
      </trkpt>
      <trkpt lat="45.77468" lon="5.43307">
        <ele>222</ele>
        <time>2021-06-06T09:36:21.451Z</time>
      </trkpt>
      <trkpt lat="45.77461" lon="5.43305">
        <ele>222</ele>
        <time>2021-06-06T09:36:22.451Z</time>
      </trkpt>
      <trkpt lat="45.77455" lon="5.43302">
        <ele>222</ele>
        <time>2021-06-06T09:36:23.451Z</time>
      </trkpt>
      <trkpt lat="45.77448" lon="5.43299">
        <ele>221</ele>
        <time>2021-06-06T09:36:24.450Z</time>
      </trkpt>
      <trkpt lat="45.77442" lon="5.43296">
        <ele>221</ele>
        <time>2021-06-06T09:36:25.451Z</time>
      </trkpt>
      <trkpt lat="45.77436" lon="5.43293">
        <ele>221</ele>
        <time>2021-06-06T09:36:26.451Z</time>
      </trkpt>
      <trkpt lat="45.7743" lon="5.43288">
        <ele>221</ele>
        <time>2021-06-06T09:36:27.450Z</time>
      </trkpt>
      <trkpt lat="45.77424" lon="5.43283">
        <ele>220</ele>
        <time>2021-06-06T09:36:28.451Z</time>
      </trkpt>
      <trkpt lat="45.77419" lon="5.43278">
        <ele>220</ele>
        <time>2021-06-06T09:36:29.450Z</time>
      </trkpt>
      <trkpt lat="45.77413" lon="5.43273">
        <ele>220</ele>
        <time>2021-06-06T09:36:30.451Z</time>
      </trkpt>
      <trkpt lat="45.77408" lon="5.4327">
        <ele>221</ele>
        <time>2021-06-06T09:36:31.451Z</time>
      </trkpt>
      <trkpt lat="45.77403" lon="5.43266">
        <ele>220</ele>
        <time>2021-06-06T09:36:32.451Z</time>
      </trkpt>
      <trkpt lat="45.77398" lon="5.43263">
        <ele>220</ele>
        <time>2021-06-06T09:36:33.450Z</time>
      </trkpt>
      <trkpt lat="45.77394" lon="5.43261">
        <ele>220</ele>
        <time>2021-06-06T09:36:34.451Z</time>
      </trkpt>
      <trkpt lat="45.7739" lon="5.43258">
        <ele>220</ele>
        <time>2021-06-06T09:36:35.450Z</time>
      </trkpt>
      <trkpt lat="45.77385" lon="5.43256">
        <ele>221</ele>
        <time>2021-06-06T09:36:36.451Z</time>
      </trkpt>
      <trkpt lat="45.7738" lon="5.43252">
        <ele>221</ele>
        <time>2021-06-06T09:36:37.451Z</time>
      </trkpt>
      <trkpt lat="45.77376" lon="5.43249">
        <ele>222</ele>
        <time>2021-06-06T09:36:38.451Z</time>
      </trkpt>
      <trkpt lat="45.77371" lon="5.43245">
        <ele>222</ele>
        <time>2021-06-06T09:36:39.451Z</time>
      </trkpt>
      <trkpt lat="45.77366" lon="5.43241">
        <ele>222</ele>
        <time>2021-06-06T09:36:40.451Z</time>
      </trkpt>
      <trkpt lat="45.77361" lon="5.43237">
        <ele>223</ele>
        <time>2021-06-06T09:36:41.451Z</time>
      </trkpt>
      <trkpt lat="45.77355" lon="5.43233">
        <ele>223</ele>
        <time>2021-06-06T09:36:42.451Z</time>
      </trkpt>
      <trkpt lat="45.7735" lon="5.43228">
        <ele>223</ele>
        <time>2021-06-06T09:36:43.451Z</time>
      </trkpt>
      <trkpt lat="45.77344" lon="5.43222">
        <ele>223</ele>
        <time>2021-06-06T09:36:44.450Z</time>
      </trkpt>
      <trkpt lat="45.77338" lon="5.43217">
        <ele>223</ele>
        <time>2021-06-06T09:36:45.450Z</time>
      </trkpt>
      <trkpt lat="45.77333" lon="5.43212">
        <ele>223</ele>
        <time>2021-06-06T09:36:46.450Z</time>
      </trkpt>
      <trkpt lat="45.77328" lon="5.43206">
        <ele>222</ele>
        <time>2021-06-06T09:36:47.451Z</time>
      </trkpt>
      <trkpt lat="45.77322" lon="5.43201">
        <ele>222</ele>
        <time>2021-06-06T09:36:48.451Z</time>
      </trkpt>
      <trkpt lat="45.77317" lon="5.43195">
        <ele>222</ele>
        <time>2021-06-06T09:36:49.450Z</time>
      </trkpt>
      <trkpt lat="45.77312" lon="5.4319">
        <ele>222</ele>
        <time>2021-06-06T09:36:50.450Z</time>
      </trkpt>
      <trkpt lat="45.77307" lon="5.43184">
        <ele>221</ele>
        <time>2021-06-06T09:36:51.450Z</time>
      </trkpt>
      <trkpt lat="45.77302" lon="5.43178">
        <ele>221</ele>
        <time>2021-06-06T09:36:52.451Z</time>
      </trkpt>
      <trkpt lat="45.77297" lon="5.43172">
        <ele>221</ele>
        <time>2021-06-06T09:36:53.450Z</time>
      </trkpt>
      <trkpt lat="45.77292" lon="5.43166">
        <ele>221</ele>
        <time>2021-06-06T09:36:54.450Z</time>
      </trkpt>
      <trkpt lat="45.77287" lon="5.4316">
        <ele>221</ele>
        <time>2021-06-06T09:36:55.450Z</time>
      </trkpt>
      <trkpt lat="45.77282" lon="5.43154">
        <ele>220</ele>
        <time>2021-06-06T09:36:56.450Z</time>
      </trkpt>
      <trkpt lat="45.77278" lon="5.43147">
        <ele>220</ele>
        <time>2021-06-06T09:36:57.451Z</time>
      </trkpt>
      <trkpt lat="45.77273" lon="5.43141">
        <ele>220</ele>
        <time>2021-06-06T09:36:58.451Z</time>
      </trkpt>
      <trkpt lat="45.77269" lon="5.43135">
        <ele>220</ele>
        <time>2021-06-06T09:36:59.450Z</time>
      </trkpt>
      <trkpt lat="45.77265" lon="5.43128">
        <ele>219</ele>
        <time>2021-06-06T09:37:00.451Z</time>
      </trkpt>
      <trkpt lat="45.77261" lon="5.43122">
        <ele>219</ele>
        <time>2021-06-06T09:37:01.451Z</time>
      </trkpt>
      <trkpt lat="45.77257" lon="5.43115">
        <ele>220</ele>
        <time>2021-06-06T09:37:02.451Z</time>
      </trkpt>
      <trkpt lat="45.77253" lon="5.43108">
        <ele>220</ele>
        <time>2021-06-06T09:37:03.450Z</time>
      </trkpt>
      <trkpt lat="45.77248" lon="5.43102">
        <ele>220</ele>
        <time>2021-06-06T09:37:04.451Z</time>
      </trkpt>
      <trkpt lat="45.77245" lon="5.43095">
        <ele>220</ele>
        <time>2021-06-06T09:37:05.451Z</time>
      </trkpt>
      <trkpt lat="45.77241" lon="5.43089">
        <ele>221</ele>
        <time>2021-06-06T09:37:06.450Z</time>
      </trkpt>
      <trkpt lat="45.77237" lon="5.43083">
        <ele>221</ele>
        <time>2021-06-06T09:37:07.451Z</time>
      </trkpt>
      <trkpt lat="45.77234" lon="5.43077">
        <ele>222</ele>
        <time>2021-06-06T09:37:08.451Z</time>
      </trkpt>
      <trkpt lat="45.77231" lon="5.43071">
        <ele>222</ele>
        <time>2021-06-06T09:37:09.450Z</time>
      </trkpt>
      <trkpt lat="45.77228" lon="5.43065">
        <ele>223</ele>
        <time>2021-06-06T09:37:10.451Z</time>
      </trkpt>
      <trkpt lat="45.77226" lon="5.4306">
        <ele>223</ele>
        <time>2021-06-06T09:37:11.451Z</time>
      </trkpt>
      <trkpt lat="45.77223" lon="5.43054">
        <ele>223</ele>
        <time>2021-06-06T09:37:12.451Z</time>
      </trkpt>
      <trkpt lat="45.77221" lon="5.4305">
        <ele>224</ele>
        <time>2021-06-06T09:37:13.450Z</time>
      </trkpt>
      <trkpt lat="45.77219" lon="5.43046">
        <ele>224</ele>
        <time>2021-06-06T09:37:14.450Z</time>
      </trkpt>
      <trkpt lat="45.77217" lon="5.43043">
        <ele>224</ele>
        <time>2021-06-06T09:37:15.451Z</time>
      </trkpt>
      <trkpt lat="45.77215" lon="5.43042">
        <ele>224</ele>
        <time>2021-06-06T09:37:16.451Z</time>
      </trkpt>
      <trkpt lat="45.77212" lon="5.43043">
        <ele>224</ele>
        <time>2021-06-06T09:37:17.451Z</time>
      </trkpt>
      <trkpt lat="45.7721" lon="5.43044">
        <ele>224</ele>
        <time>2021-06-06T09:37:18.451Z</time>
      </trkpt>
      <trkpt lat="45.77207" lon="5.43046">
        <ele>223</ele>
        <time>2021-06-06T09:37:19.451Z</time>
      </trkpt>
      <trkpt lat="45.77204" lon="5.4305">
        <ele>223</ele>
        <time>2021-06-06T09:37:20.451Z</time>
      </trkpt>
      <trkpt lat="45.77201" lon="5.43053">
        <ele>223</ele>
        <time>2021-06-06T09:37:21.451Z</time>
      </trkpt>
      <trkpt lat="45.77197" lon="5.43058">
        <ele>222</ele>
        <time>2021-06-06T09:37:22.451Z</time>
      </trkpt>
      <trkpt lat="45.77194" lon="5.43063">
        <ele>222</ele>
        <time>2021-06-06T09:37:23.450Z</time>
      </trkpt>
      <trkpt lat="45.7719" lon="5.43068">
        <ele>221</ele>
        <time>2021-06-06T09:37:24.450Z</time>
      </trkpt>
      <trkpt lat="45.77185" lon="5.43075">
        <ele>221</ele>
        <time>2021-06-06T09:37:25.450Z</time>
      </trkpt>
      <trkpt lat="45.77181" lon="5.4308">
        <ele>220</ele>
        <time>2021-06-06T09:37:26.451Z</time>
      </trkpt>
      <trkpt lat="45.77177" lon="5.43087">
        <ele>219</ele>
        <time>2021-06-06T09:37:27.451Z</time>
      </trkpt>
      <trkpt lat="45.77175" lon="5.43094">
        <ele>218</ele>
        <time>2021-06-06T09:37:28.450Z</time>
      </trkpt>
      <trkpt lat="45.77174" lon="5.43102">
        <ele>218</ele>
        <time>2021-06-06T09:37:29.451Z</time>
      </trkpt>
      <trkpt lat="45.77175" lon="5.43108">
        <ele>218</ele>
        <time>2021-06-06T09:37:30.451Z</time>
      </trkpt>
      <trkpt lat="45.77177" lon="5.43115">
        <ele>218</ele>
        <time>2021-06-06T09:37:31.451Z</time>
      </trkpt>
      <trkpt lat="45.7718" lon="5.43122">
        <ele>218</ele>
        <time>2021-06-06T09:37:32.451Z</time>
      </trkpt>
      <trkpt lat="45.77184" lon="5.43129">
        <ele>218</ele>
        <time>2021-06-06T09:37:33.451Z</time>
      </trkpt>
      <trkpt lat="45.77188" lon="5.43136">
        <ele>218</ele>
        <time>2021-06-06T09:37:34.451Z</time>
      </trkpt>
      <trkpt lat="45.7719" lon="5.43142">
        <ele>219</ele>
        <time>2021-06-06T09:37:35.451Z</time>
      </trkpt>
      <trkpt lat="45.77191" lon="5.43149">
        <ele>219</ele>
        <time>2021-06-06T09:37:36.450Z</time>
      </trkpt>
      <trkpt lat="45.7719" lon="5.43155">
        <ele>219</ele>
        <time>2021-06-06T09:37:37.451Z</time>
      </trkpt>
      <trkpt lat="45.77187" lon="5.4316">
        <ele>219</ele>
        <time>2021-06-06T09:37:38.451Z</time>
      </trkpt>
      <trkpt lat="45.77184" lon="5.43165">
        <ele>219</ele>
        <time>2021-06-06T09:37:39.451Z</time>
      </trkpt>
      <trkpt lat="45.77179" lon="5.4317">
        <ele>219</ele>
        <time>2021-06-06T09:37:40.451Z</time>
      </trkpt>
      <trkpt lat="45.77175" lon="5.43174">
        <ele>219</ele>
        <time>2021-06-06T09:37:41.451Z</time>
      </trkpt>
      <trkpt lat="45.77171" lon="5.43179">
        <ele>219</ele>
        <time>2021-06-06T09:37:42.451Z</time>
      </trkpt>
      <trkpt lat="45.77166" lon="5.43184">
        <ele>219</ele>
        <time>2021-06-06T09:37:43.450Z</time>
      </trkpt>
      <trkpt lat="45.77161" lon="5.43188">
        <ele>219</ele>
        <time>2021-06-06T09:37:44.451Z</time>
      </trkpt>
      <trkpt lat="45.77157" lon="5.43192">
        <ele>219</ele>
        <time>2021-06-06T09:37:45.451Z</time>
      </trkpt>
      <trkpt lat="45.77153" lon="5.43196">
        <ele>219</ele>
        <time>2021-06-06T09:37:46.451Z</time>
      </trkpt>
      <trkpt lat="45.77148" lon="5.432">
        <ele>219</ele>
        <time>2021-06-06T09:37:47.450Z</time>
      </trkpt>
      <trkpt lat="45.77144" lon="5.43204">
        <ele>219</ele>
        <time>2021-06-06T09:37:48.451Z</time>
      </trkpt>
      <trkpt lat="45.7714" lon="5.43208">
        <ele>219</ele>
        <time>2021-06-06T09:37:49.451Z</time>
      </trkpt>
      <trkpt lat="45.77135" lon="5.43212">
        <ele>219</ele>
        <time>2021-06-06T09:37:50.451Z</time>
      </trkpt>
      <trkpt lat="45.77131" lon="5.43216">
        <ele>220</ele>
        <time>2021-06-06T09:37:51.451Z</time>
      </trkpt>
      <trkpt lat="45.77126" lon="5.4322">
        <ele>220</ele>
        <time>2021-06-06T09:37:52.451Z</time>
      </trkpt>
      <trkpt lat="45.77122" lon="5.43224">
        <ele>221</ele>
        <time>2021-06-06T09:37:53.450Z</time>
      </trkpt>
      <trkpt lat="45.77118" lon="5.43228">
        <ele>222</ele>
        <time>2021-06-06T09:37:54.451Z</time>
      </trkpt>
      <trkpt lat="45.77114" lon="5.43233">
        <ele>222</ele>
        <time>2021-06-06T09:37:55.451Z</time>
      </trkpt>
      <trkpt lat="45.77108" lon="5.43237">
        <ele>223</ele>
        <time>2021-06-06T09:37:56.451Z</time>
      </trkpt>
      <trkpt lat="45.77104" lon="5.43241">
        <ele>223</ele>
        <time>2021-06-06T09:37:57.450Z</time>
      </trkpt>
      <trkpt lat="45.771" lon="5.43245">
        <ele>224</ele>
        <time>2021-06-06T09:37:58.451Z</time>
      </trkpt>
      <trkpt lat="45.77097" lon="5.43249">
        <ele>225</ele>
        <time>2021-06-06T09:37:59.451Z</time>
      </trkpt>
      <trkpt lat="45.77093" lon="5.43255">
        <ele>226</ele>
        <time>2021-06-06T09:38:00.451Z</time>
      </trkpt>
      <trkpt lat="45.77091" lon="5.4326">
        <ele>227</ele>
        <time>2021-06-06T09:38:01.451Z</time>
      </trkpt>
      <trkpt lat="45.77089" lon="5.43267">
        <ele>228</ele>
        <time>2021-06-06T09:38:02.451Z</time>
      </trkpt>
      <trkpt lat="45.77087" lon="5.43273">
        <ele>228</ele>
        <time>2021-06-06T09:38:03.451Z</time>
      </trkpt>
      <trkpt lat="45.77087" lon="5.43279">
        <ele>229</ele>
        <time>2021-06-06T09:38:04.450Z</time>
      </trkpt>
      <trkpt lat="45.77087" lon="5.43287">
        <ele>229</ele>
        <time>2021-06-06T09:38:05.451Z</time>
      </trkpt>
      <trkpt lat="45.77086" lon="5.43295">
        <ele>229</ele>
        <time>2021-06-06T09:38:06.451Z</time>
      </trkpt>
      <trkpt lat="45.77086" lon="5.43302">
        <ele>229</ele>
        <time>2021-06-06T09:38:07.451Z</time>
      </trkpt>
      <trkpt lat="45.77086" lon="5.43309">
        <ele>229</ele>
        <time>2021-06-06T09:38:08.451Z</time>
      </trkpt>
      <trkpt lat="45.77085" lon="5.43315">
        <ele>230</ele>
        <time>2021-06-06T09:38:09.450Z</time>
      </trkpt>
      <trkpt lat="45.77085" lon="5.43322">
        <ele>230</ele>
        <time>2021-06-06T09:38:10.451Z</time>
      </trkpt>
      <trkpt lat="45.77085" lon="5.4333">
        <ele>230</ele>
        <time>2021-06-06T09:38:11.451Z</time>
      </trkpt>
      <trkpt lat="45.77086" lon="5.43337">
        <ele>230</ele>
        <time>2021-06-06T09:38:12.450Z</time>
      </trkpt>
      <trkpt lat="45.77086" lon="5.43344">
        <ele>230</ele>
        <time>2021-06-06T09:38:13.451Z</time>
      </trkpt>
      <trkpt lat="45.77087" lon="5.43351">
        <ele>230</ele>
        <time>2021-06-06T09:38:14.450Z</time>
      </trkpt>
      <trkpt lat="45.77088" lon="5.43358">
        <ele>230</ele>
        <time>2021-06-06T09:38:15.450Z</time>
      </trkpt>
      <trkpt lat="45.7709" lon="5.43365">
        <ele>230</ele>
        <time>2021-06-06T09:38:16.451Z</time>
      </trkpt>
      <trkpt lat="45.77091" lon="5.43373">
        <ele>230</ele>
        <time>2021-06-06T09:38:17.451Z</time>
      </trkpt>
      <trkpt lat="45.77092" lon="5.43381">
        <ele>230</ele>
        <time>2021-06-06T09:38:18.451Z</time>
      </trkpt>
      <trkpt lat="45.77093" lon="5.43388">
        <ele>229</ele>
        <time>2021-06-06T09:38:19.451Z</time>
      </trkpt>
      <trkpt lat="45.77094" lon="5.43395">
        <ele>229</ele>
        <time>2021-06-06T09:38:20.451Z</time>
      </trkpt>
      <trkpt lat="45.77092" lon="5.43402">
        <ele>228</ele>
        <time>2021-06-06T09:38:21.451Z</time>
      </trkpt>
      <trkpt lat="45.77089" lon="5.43407">
        <ele>228</ele>
        <time>2021-06-06T09:38:22.451Z</time>
      </trkpt>
      <trkpt lat="45.77085" lon="5.43411">
        <ele>227</ele>
        <time>2021-06-06T09:38:23.451Z</time>
      </trkpt>
      <trkpt lat="45.77079" lon="5.43414">
        <ele>227</ele>
        <time>2021-06-06T09:38:24.451Z</time>
      </trkpt>
      <trkpt lat="45.77074" lon="5.43417">
        <ele>227</ele>
        <time>2021-06-06T09:38:25.451Z</time>
      </trkpt>
      <trkpt lat="45.77068" lon="5.43419">
        <ele>227</ele>
        <time>2021-06-06T09:38:26.451Z</time>
      </trkpt>
      <trkpt lat="45.77062" lon="5.43421">
        <ele>227</ele>
        <time>2021-06-06T09:38:27.451Z</time>
      </trkpt>
      <trkpt lat="45.77057" lon="5.43422">
        <ele>226</ele>
        <time>2021-06-06T09:38:28.451Z</time>
      </trkpt>
      <trkpt lat="45.77053" lon="5.4342">
        <ele>226</ele>
        <time>2021-06-06T09:38:29.451Z</time>
      </trkpt>
      <trkpt lat="45.77049" lon="5.43415">
        <ele>225</ele>
        <time>2021-06-06T09:38:30.451Z</time>
      </trkpt>
      <trkpt lat="45.77046" lon="5.43409">
        <ele>225</ele>
        <time>2021-06-06T09:38:31.450Z</time>
      </trkpt>
      <trkpt lat="45.77044" lon="5.43403">
        <ele>225</ele>
        <time>2021-06-06T09:38:32.451Z</time>
      </trkpt>
      <trkpt lat="45.77042" lon="5.43395">
        <ele>225</ele>
        <time>2021-06-06T09:38:33.451Z</time>
      </trkpt>
      <trkpt lat="45.77041" lon="5.43388">
        <ele>225</ele>
        <time>2021-06-06T09:38:34.451Z</time>
      </trkpt>
      <trkpt lat="45.77039" lon="5.4338">
        <ele>225</ele>
        <time>2021-06-06T09:38:35.451Z</time>
      </trkpt>
      <trkpt lat="45.77037" lon="5.43372">
        <ele>224</ele>
        <time>2021-06-06T09:38:36.451Z</time>
      </trkpt>
      <trkpt lat="45.77035" lon="5.43364">
        <ele>224</ele>
        <time>2021-06-06T09:38:37.450Z</time>
      </trkpt>
      <trkpt lat="45.77033" lon="5.43357">
        <ele>224</ele>
        <time>2021-06-06T09:38:38.451Z</time>
      </trkpt>
      <trkpt lat="45.77031" lon="5.43349">
        <ele>224</ele>
        <time>2021-06-06T09:38:39.451Z</time>
      </trkpt>
      <trkpt lat="45.7703" lon="5.43342">
        <ele>224</ele>
        <time>2021-06-06T09:38:40.451Z</time>
      </trkpt>
      <trkpt lat="45.77028" lon="5.43334">
        <ele>224</ele>
        <time>2021-06-06T09:38:41.451Z</time>
      </trkpt>
      <trkpt lat="45.77026" lon="5.43327">
        <ele>224</ele>
        <time>2021-06-06T09:38:42.451Z</time>
      </trkpt>
      <trkpt lat="45.77024" lon="5.4332">
        <ele>224</ele>
        <time>2021-06-06T09:38:43.451Z</time>
      </trkpt>
      <trkpt lat="45.77022" lon="5.43312">
        <ele>224</ele>
        <time>2021-06-06T09:38:44.450Z</time>
      </trkpt>
      <trkpt lat="45.7702" lon="5.43305">
        <ele>224</ele>
        <time>2021-06-06T09:38:45.451Z</time>
      </trkpt>
      <trkpt lat="45.77018" lon="5.43298">
        <ele>224</ele>
        <time>2021-06-06T09:38:46.451Z</time>
      </trkpt>
      <trkpt lat="45.77016" lon="5.43291">
        <ele>224</ele>
        <time>2021-06-06T09:38:47.451Z</time>
      </trkpt>
      <trkpt lat="45.77015" lon="5.43283">
        <ele>224</ele>
        <time>2021-06-06T09:38:48.450Z</time>
      </trkpt>
      <trkpt lat="45.77013" lon="5.43275">
        <ele>225</ele>
        <time>2021-06-06T09:38:49.450Z</time>
      </trkpt>
      <trkpt lat="45.77011" lon="5.43268">
        <ele>225</ele>
        <time>2021-06-06T09:38:50.451Z</time>
      </trkpt>
      <trkpt lat="45.7701" lon="5.4326">
        <ele>225</ele>
        <time>2021-06-06T09:38:51.451Z</time>
      </trkpt>
      <trkpt lat="45.77009" lon="5.43252">
        <ele>224</ele>
        <time>2021-06-06T09:38:52.451Z</time>
      </trkpt>
      <trkpt lat="45.77007" lon="5.43244">
        <ele>224</ele>
        <time>2021-06-06T09:38:53.451Z</time>
      </trkpt>
      <trkpt lat="45.77006" lon="5.43236">
        <ele>224</ele>
        <time>2021-06-06T09:38:54.451Z</time>
      </trkpt>
      <trkpt lat="45.77005" lon="5.43228">
        <ele>224</ele>
        <time>2021-06-06T09:38:55.451Z</time>
      </trkpt>
      <trkpt lat="45.77003" lon="5.43221">
        <ele>224</ele>
        <time>2021-06-06T09:38:56.450Z</time>
      </trkpt>
      <trkpt lat="45.77001" lon="5.43213">
        <ele>224</ele>
        <time>2021-06-06T09:38:57.451Z</time>
      </trkpt>
      <trkpt lat="45.76998" lon="5.43206">
        <ele>223</ele>
        <time>2021-06-06T09:38:58.450Z</time>
      </trkpt>
      <trkpt lat="45.76996" lon="5.43198">
        <ele>223</ele>
        <time>2021-06-06T09:38:59.451Z</time>
      </trkpt>
      <trkpt lat="45.76993" lon="5.43191">
        <ele>222</ele>
        <time>2021-06-06T09:39:00.451Z</time>
      </trkpt>
      <trkpt lat="45.7699" lon="5.43184">
        <ele>222</ele>
        <time>2021-06-06T09:39:01.450Z</time>
      </trkpt>
      <trkpt lat="45.76987" lon="5.43177">
        <ele>222</ele>
        <time>2021-06-06T09:39:02.451Z</time>
      </trkpt>
      <trkpt lat="45.76985" lon="5.43171">
        <ele>222</ele>
        <time>2021-06-06T09:39:03.451Z</time>
      </trkpt>
      <trkpt lat="45.76983" lon="5.43164">
        <ele>221</ele>
        <time>2021-06-06T09:39:04.451Z</time>
      </trkpt>
      <trkpt lat="45.7698" lon="5.43157">
        <ele>221</ele>
        <time>2021-06-06T09:39:05.450Z</time>
      </trkpt>
      <trkpt lat="45.76977" lon="5.43151">
        <ele>221</ele>
        <time>2021-06-06T09:39:06.451Z</time>
      </trkpt>
      <trkpt lat="45.76975" lon="5.43144">
        <ele>220</ele>
        <time>2021-06-06T09:39:07.451Z</time>
      </trkpt>
      <trkpt lat="45.76972" lon="5.43136">
        <ele>220</ele>
        <time>2021-06-06T09:39:08.451Z</time>
      </trkpt>
      <trkpt lat="45.76969" lon="5.43128">
        <ele>219</ele>
        <time>2021-06-06T09:39:09.451Z</time>
      </trkpt>
      <trkpt lat="45.76966" lon="5.4312">
        <ele>219</ele>
        <time>2021-06-06T09:39:10.450Z</time>
      </trkpt>
      <trkpt lat="45.76963" lon="5.43112">
        <ele>219</ele>
        <time>2021-06-06T09:39:11.451Z</time>
      </trkpt>
      <trkpt lat="45.7696" lon="5.43103">
        <ele>218</ele>
        <time>2021-06-06T09:39:12.451Z</time>
      </trkpt>
      <trkpt lat="45.76958" lon="5.43095">
        <ele>218</ele>
        <time>2021-06-06T09:39:13.451Z</time>
      </trkpt>
      <trkpt lat="45.76955" lon="5.43087">
        <ele>218</ele>
        <time>2021-06-06T09:39:14.451Z</time>
      </trkpt>
      <trkpt lat="45.76952" lon="5.43079">
        <ele>218</ele>
        <time>2021-06-06T09:39:15.450Z</time>
      </trkpt>
      <trkpt lat="45.76949" lon="5.43071">
        <ele>218</ele>
        <time>2021-06-06T09:39:16.451Z</time>
      </trkpt>
      <trkpt lat="45.76947" lon="5.43063">
        <ele>218</ele>
        <time>2021-06-06T09:39:17.451Z</time>
      </trkpt>
      <trkpt lat="45.76944" lon="5.43055">
        <ele>218</ele>
        <time>2021-06-06T09:39:18.451Z</time>
      </trkpt>
      <trkpt lat="45.76941" lon="5.43047">
        <ele>218</ele>
        <time>2021-06-06T09:39:19.451Z</time>
      </trkpt>
      <trkpt lat="45.76939" lon="5.4304">
        <ele>219</ele>
        <time>2021-06-06T09:39:20.450Z</time>
      </trkpt>
      <trkpt lat="45.76935" lon="5.43032">
        <ele>219</ele>
        <time>2021-06-06T09:39:21.451Z</time>
      </trkpt>
      <trkpt lat="45.76932" lon="5.43024">
        <ele>219</ele>
        <time>2021-06-06T09:39:22.451Z</time>
      </trkpt>
      <trkpt lat="45.76929" lon="5.43016">
        <ele>219</ele>
        <time>2021-06-06T09:39:23.451Z</time>
      </trkpt>
      <trkpt lat="45.76926" lon="5.43009">
        <ele>218</ele>
        <time>2021-06-06T09:39:24.450Z</time>
      </trkpt>
      <trkpt lat="45.76923" lon="5.43002">
        <ele>218</ele>
        <time>2021-06-06T09:39:25.451Z</time>
      </trkpt>
      <trkpt lat="45.76921" lon="5.42995">
        <ele>218</ele>
        <time>2021-06-06T09:39:26.450Z</time>
      </trkpt>
      <trkpt lat="45.76919" lon="5.42987">
        <ele>218</ele>
        <time>2021-06-06T09:39:27.450Z</time>
      </trkpt>
      <trkpt lat="45.76917" lon="5.4298">
        <ele>218</ele>
        <time>2021-06-06T09:39:28.451Z</time>
      </trkpt>
      <trkpt lat="45.76915" lon="5.42972">
        <ele>218</ele>
        <time>2021-06-06T09:39:29.450Z</time>
      </trkpt>
      <trkpt lat="45.76914" lon="5.42963">
        <ele>218</ele>
        <time>2021-06-06T09:39:30.451Z</time>
      </trkpt>
      <trkpt lat="45.76912" lon="5.42954">
        <ele>219</ele>
        <time>2021-06-06T09:39:31.450Z</time>
      </trkpt>
      <trkpt lat="45.7691" lon="5.42944">
        <ele>219</ele>
        <time>2021-06-06T09:39:32.451Z</time>
      </trkpt>
      <trkpt lat="45.76907" lon="5.42933">
        <ele>220</ele>
        <time>2021-06-06T09:39:33.451Z</time>
      </trkpt>
      <trkpt lat="45.76904" lon="5.42923">
        <ele>220</ele>
        <time>2021-06-06T09:39:34.450Z</time>
      </trkpt>
      <trkpt lat="45.769" lon="5.42913">
        <ele>221</ele>
        <time>2021-06-06T09:39:35.450Z</time>
      </trkpt>
      <trkpt lat="45.76896" lon="5.42904">
        <ele>221</ele>
        <time>2021-06-06T09:39:36.451Z</time>
      </trkpt>
      <trkpt lat="45.76893" lon="5.42895">
        <ele>222</ele>
        <time>2021-06-06T09:39:37.451Z</time>
      </trkpt>
      <trkpt lat="45.76889" lon="5.42886">
        <ele>222</ele>
        <time>2021-06-06T09:39:38.451Z</time>
      </trkpt>
      <trkpt lat="45.76885" lon="5.42878">
        <ele>222</ele>
        <time>2021-06-06T09:39:39.451Z</time>
      </trkpt>
      <trkpt lat="45.7688" lon="5.4287">
        <ele>221</ele>
        <time>2021-06-06T09:39:40.450Z</time>
      </trkpt>
      <trkpt lat="45.76876" lon="5.42862">
        <ele>221</ele>
        <time>2021-06-06T09:39:41.450Z</time>
      </trkpt>
      <trkpt lat="45.76871" lon="5.42855">
        <ele>221</ele>
        <time>2021-06-06T09:39:42.451Z</time>
      </trkpt>
      <trkpt lat="45.76867" lon="5.42848">
        <ele>221</ele>
        <time>2021-06-06T09:39:43.451Z</time>
      </trkpt>
      <trkpt lat="45.76862" lon="5.42842">
        <ele>221</ele>
        <time>2021-06-06T09:39:44.450Z</time>
      </trkpt>
      <trkpt lat="45.76857" lon="5.42836">
        <ele>220</ele>
        <time>2021-06-06T09:39:45.451Z</time>
      </trkpt>
      <trkpt lat="45.76852" lon="5.42829">
        <ele>220</ele>
        <time>2021-06-06T09:39:46.450Z</time>
      </trkpt>
      <trkpt lat="45.76846" lon="5.42824">
        <ele>220</ele>
        <time>2021-06-06T09:39:47.451Z</time>
      </trkpt>
      <trkpt lat="45.76841" lon="5.42819">
        <ele>219</ele>
        <time>2021-06-06T09:39:48.451Z</time>
      </trkpt>
      <trkpt lat="45.76836" lon="5.42814">
        <ele>219</ele>
        <time>2021-06-06T09:39:49.451Z</time>
      </trkpt>
      <trkpt lat="45.76831" lon="5.42808">
        <ele>219</ele>
        <time>2021-06-06T09:39:50.450Z</time>
      </trkpt>
      <trkpt lat="45.76825" lon="5.42802">
        <ele>218</ele>
        <time>2021-06-06T09:39:51.451Z</time>
      </trkpt>
      <trkpt lat="45.7682" lon="5.42796">
        <ele>218</ele>
        <time>2021-06-06T09:39:52.451Z</time>
      </trkpt>
      <trkpt lat="45.76814" lon="5.42789">
        <ele>218</ele>
        <time>2021-06-06T09:39:53.450Z</time>
      </trkpt>
      <trkpt lat="45.76808" lon="5.42782">
        <ele>218</ele>
        <time>2021-06-06T09:39:54.451Z</time>
      </trkpt>
      <trkpt lat="45.76803" lon="5.42775">
        <ele>218</ele>
        <time>2021-06-06T09:39:55.451Z</time>
      </trkpt>
      <trkpt lat="45.76797" lon="5.42767">
        <ele>218</ele>
        <time>2021-06-06T09:39:56.451Z</time>
      </trkpt>
      <trkpt lat="45.76792" lon="5.4276">
        <ele>217</ele>
        <time>2021-06-06T09:39:57.450Z</time>
      </trkpt>
      <trkpt lat="45.76786" lon="5.42752">
        <ele>217</ele>
        <time>2021-06-06T09:39:58.450Z</time>
      </trkpt>
      <trkpt lat="45.76782" lon="5.42744">
        <ele>217</ele>
        <time>2021-06-06T09:39:59.451Z</time>
      </trkpt>
      <trkpt lat="45.76777" lon="5.42736">
        <ele>217</ele>
        <time>2021-06-06T09:40:00.450Z</time>
      </trkpt>
      <trkpt lat="45.76772" lon="5.42728">
        <ele>217</ele>
        <time>2021-06-06T09:40:01.450Z</time>
      </trkpt>
      <trkpt lat="45.76767" lon="5.42719">
        <ele>217</ele>
        <time>2021-06-06T09:40:02.451Z</time>
      </trkpt>
      <trkpt lat="45.76762" lon="5.4271">
        <ele>217</ele>
        <time>2021-06-06T09:40:03.451Z</time>
      </trkpt>
      <trkpt lat="45.76758" lon="5.42701">
        <ele>217</ele>
        <time>2021-06-06T09:40:04.450Z</time>
      </trkpt>
      <trkpt lat="45.76754" lon="5.42691">
        <ele>217</ele>
        <time>2021-06-06T09:40:05.451Z</time>
      </trkpt>
      <trkpt lat="45.7675" lon="5.42682">
        <ele>217</ele>
        <time>2021-06-06T09:40:06.451Z</time>
      </trkpt>
      <trkpt lat="45.76747" lon="5.42672">
        <ele>217</ele>
        <time>2021-06-06T09:40:07.451Z</time>
      </trkpt>
      <trkpt lat="45.76744" lon="5.42662">
        <ele>216</ele>
        <time>2021-06-06T09:40:08.451Z</time>
      </trkpt>
      <trkpt lat="45.7674" lon="5.42653">
        <ele>216</ele>
        <time>2021-06-06T09:40:09.450Z</time>
      </trkpt>
      <trkpt lat="45.76737" lon="5.42643">
        <ele>216</ele>
        <time>2021-06-06T09:40:10.451Z</time>
      </trkpt>
      <trkpt lat="45.76734" lon="5.42634">
        <ele>217</ele>
        <time>2021-06-06T09:40:11.451Z</time>
      </trkpt>
      <trkpt lat="45.7673" lon="5.42626">
        <ele>217</ele>
        <time>2021-06-06T09:40:12.451Z</time>
      </trkpt>
      <trkpt lat="45.76725" lon="5.42618">
        <ele>217</ele>
        <time>2021-06-06T09:40:13.451Z</time>
      </trkpt>
      <trkpt lat="45.76721" lon="5.4261">
        <ele>217</ele>
        <time>2021-06-06T09:40:14.451Z</time>
      </trkpt>
      <trkpt lat="45.76715" lon="5.42603">
        <ele>217</ele>
        <time>2021-06-06T09:40:15.451Z</time>
      </trkpt>
      <trkpt lat="45.7671" lon="5.42597">
        <ele>217</ele>
        <time>2021-06-06T09:40:16.450Z</time>
      </trkpt>
      <trkpt lat="45.76704" lon="5.42592">
        <ele>218</ele>
        <time>2021-06-06T09:40:17.451Z</time>
      </trkpt>
      <trkpt lat="45.76697" lon="5.42588">
        <ele>218</ele>
        <time>2021-06-06T09:40:18.451Z</time>
      </trkpt>
      <trkpt lat="45.76691" lon="5.42583">
        <ele>218</ele>
        <time>2021-06-06T09:40:19.451Z</time>
      </trkpt>
      <trkpt lat="45.76684" lon="5.42579">
        <ele>218</ele>
        <time>2021-06-06T09:40:20.450Z</time>
      </trkpt>
      <trkpt lat="45.76677" lon="5.42576">
        <ele>219</ele>
        <time>2021-06-06T09:40:21.451Z</time>
      </trkpt>
      <trkpt lat="45.7667" lon="5.42572">
        <ele>219</ele>
        <time>2021-06-06T09:40:22.451Z</time>
      </trkpt>
      <trkpt lat="45.76662" lon="5.42569">
        <ele>219</ele>
        <time>2021-06-06T09:40:23.451Z</time>
      </trkpt>
      <trkpt lat="45.76655" lon="5.42565">
        <ele>219</ele>
        <time>2021-06-06T09:40:24.450Z</time>
      </trkpt>
      <trkpt lat="45.76648" lon="5.42562">
        <ele>220</ele>
        <time>2021-06-06T09:40:25.451Z</time>
      </trkpt>
      <trkpt lat="45.76641" lon="5.42558">
        <ele>220</ele>
        <time>2021-06-06T09:40:26.451Z</time>
      </trkpt>
      <trkpt lat="45.76635" lon="5.42553">
        <ele>220</ele>
        <time>2021-06-06T09:40:27.451Z</time>
      </trkpt>
      <trkpt lat="45.76629" lon="5.42549">
        <ele>220</ele>
        <time>2021-06-06T09:40:28.451Z</time>
      </trkpt>
      <trkpt lat="45.76623" lon="5.42544">
        <ele>221</ele>
        <time>2021-06-06T09:40:29.451Z</time>
      </trkpt>
      <trkpt lat="45.76617" lon="5.42539">
        <ele>221</ele>
        <time>2021-06-06T09:40:30.451Z</time>
      </trkpt>
      <trkpt lat="45.76611" lon="5.42534">
        <ele>221</ele>
        <time>2021-06-06T09:40:31.451Z</time>
      </trkpt>
      <trkpt lat="45.76605" lon="5.4253">
        <ele>221</ele>
        <time>2021-06-06T09:40:32.450Z</time>
      </trkpt>
      <trkpt lat="45.76599" lon="5.42526">
        <ele>221</ele>
        <time>2021-06-06T09:40:33.451Z</time>
      </trkpt>
      <trkpt lat="45.76593" lon="5.42522">
        <ele>221</ele>
        <time>2021-06-06T09:40:34.451Z</time>
      </trkpt>
      <trkpt lat="45.76587" lon="5.42518">
        <ele>221</ele>
        <time>2021-06-06T09:40:35.451Z</time>
      </trkpt>
      <trkpt lat="45.76581" lon="5.42514">
        <ele>221</ele>
        <time>2021-06-06T09:40:36.451Z</time>
      </trkpt>
      <trkpt lat="45.76576" lon="5.4251">
        <ele>221</ele>
        <time>2021-06-06T09:40:37.451Z</time>
      </trkpt>
      <trkpt lat="45.7657" lon="5.42506">
        <ele>221</ele>
        <time>2021-06-06T09:40:38.451Z</time>
      </trkpt>
      <trkpt lat="45.76564" lon="5.42502">
        <ele>222</ele>
        <time>2021-06-06T09:40:39.451Z</time>
      </trkpt>
      <trkpt lat="45.76558" lon="5.42498">
        <ele>222</ele>
        <time>2021-06-06T09:40:40.451Z</time>
      </trkpt>
      <trkpt lat="45.76552" lon="5.42494">
        <ele>222</ele>
        <time>2021-06-06T09:40:41.451Z</time>
      </trkpt>
      <trkpt lat="45.76546" lon="5.42491">
        <ele>222</ele>
        <time>2021-06-06T09:40:42.451Z</time>
      </trkpt>
      <trkpt lat="45.7654" lon="5.42488">
        <ele>222</ele>
        <time>2021-06-06T09:40:43.451Z</time>
      </trkpt>
      <trkpt lat="45.76534" lon="5.42485">
        <ele>223</ele>
        <time>2021-06-06T09:40:44.451Z</time>
      </trkpt>
      <trkpt lat="45.76528" lon="5.42482">
        <ele>223</ele>
        <time>2021-06-06T09:40:45.451Z</time>
      </trkpt>
      <trkpt lat="45.76521" lon="5.42479">
        <ele>223</ele>
        <time>2021-06-06T09:40:46.451Z</time>
      </trkpt>
      <trkpt lat="45.76515" lon="5.42475">
        <ele>223</ele>
        <time>2021-06-06T09:40:47.450Z</time>
      </trkpt>
      <trkpt lat="45.76509" lon="5.42472">
        <ele>223</ele>
        <time>2021-06-06T09:40:48.451Z</time>
      </trkpt>
      <trkpt lat="45.76503" lon="5.42468">
        <ele>223</ele>
        <time>2021-06-06T09:40:49.451Z</time>
      </trkpt>
      <trkpt lat="45.76496" lon="5.42464">
        <ele>223</ele>
        <time>2021-06-06T09:40:50.450Z</time>
      </trkpt>
      <trkpt lat="45.7649" lon="5.4246">
        <ele>223</ele>
        <time>2021-06-06T09:40:51.450Z</time>
      </trkpt>
      <trkpt lat="45.76484" lon="5.42457">
        <ele>223</ele>
        <time>2021-06-06T09:40:52.451Z</time>
      </trkpt>
      <trkpt lat="45.76478" lon="5.42455">
        <ele>224</ele>
        <time>2021-06-06T09:40:53.450Z</time>
      </trkpt>
      <trkpt lat="45.76472" lon="5.42454">
        <ele>224</ele>
        <time>2021-06-06T09:40:54.451Z</time>
      </trkpt>
      <trkpt lat="45.76465" lon="5.42453">
        <ele>224</ele>
        <time>2021-06-06T09:40:55.451Z</time>
      </trkpt>
      <trkpt lat="45.76458" lon="5.42453">
        <ele>224</ele>
        <time>2021-06-06T09:40:56.451Z</time>
      </trkpt>
      <trkpt lat="45.76451" lon="5.42453">
        <ele>224</ele>
        <time>2021-06-06T09:40:57.450Z</time>
      </trkpt>
      <trkpt lat="45.76444" lon="5.42453">
        <ele>224</ele>
        <time>2021-06-06T09:40:58.451Z</time>
      </trkpt>
      <trkpt lat="45.76436" lon="5.42453">
        <ele>224</ele>
        <time>2021-06-06T09:40:59.451Z</time>
      </trkpt>
      <trkpt lat="45.76429" lon="5.42454">
        <ele>224</ele>
        <time>2021-06-06T09:41:00.451Z</time>
      </trkpt>
      <trkpt lat="45.76422" lon="5.42455">
        <ele>224</ele>
        <time>2021-06-06T09:41:01.450Z</time>
      </trkpt>
      <trkpt lat="45.76415" lon="5.42457">
        <ele>224</ele>
        <time>2021-06-06T09:41:02.450Z</time>
      </trkpt>
      <trkpt lat="45.76408" lon="5.4246">
        <ele>223</ele>
        <time>2021-06-06T09:41:03.450Z</time>
      </trkpt>
      <trkpt lat="45.76401" lon="5.42462">
        <ele>223</ele>
        <time>2021-06-06T09:41:04.451Z</time>
      </trkpt>
      <trkpt lat="45.76395" lon="5.42465">
        <ele>223</ele>
        <time>2021-06-06T09:41:05.451Z</time>
      </trkpt>
      <trkpt lat="45.76389" lon="5.42468">
        <ele>223</ele>
        <time>2021-06-06T09:41:06.451Z</time>
      </trkpt>
      <trkpt lat="45.76383" lon="5.42472">
        <ele>222</ele>
        <time>2021-06-06T09:41:07.451Z</time>
      </trkpt>
      <trkpt lat="45.76378" lon="5.42474">
        <ele>223</ele>
        <time>2021-06-06T09:41:08.451Z</time>
      </trkpt>
      <trkpt lat="45.76372" lon="5.42476">
        <ele>223</ele>
        <time>2021-06-06T09:41:09.451Z</time>
      </trkpt>
      <trkpt lat="45.76366" lon="5.42475">
        <ele>223</ele>
        <time>2021-06-06T09:41:10.451Z</time>
      </trkpt>
      <trkpt lat="45.76359" lon="5.42474">
        <ele>223</ele>
        <time>2021-06-06T09:41:11.451Z</time>
      </trkpt>
      <trkpt lat="45.76353" lon="5.4247">
        <ele>223</ele>
        <time>2021-06-06T09:41:12.451Z</time>
      </trkpt>
      <trkpt lat="45.76348" lon="5.42466">
        <ele>223</ele>
        <time>2021-06-06T09:41:13.451Z</time>
      </trkpt>
      <trkpt lat="45.76341" lon="5.42462">
        <ele>223</ele>
        <time>2021-06-06T09:41:14.451Z</time>
      </trkpt>
      <trkpt lat="45.76335" lon="5.42457">
        <ele>224</ele>
        <time>2021-06-06T09:41:15.451Z</time>
      </trkpt>
      <trkpt lat="45.76328" lon="5.42453">
        <ele>224</ele>
        <time>2021-06-06T09:41:16.451Z</time>
      </trkpt>
      <trkpt lat="45.76322" lon="5.42451">
        <ele>224</ele>
        <time>2021-06-06T09:41:17.451Z</time>
      </trkpt>
      <trkpt lat="45.76315" lon="5.4245">
        <ele>224</ele>
        <time>2021-06-06T09:41:18.451Z</time>
      </trkpt>
      <trkpt lat="45.7631" lon="5.42451">
        <ele>225</ele>
        <time>2021-06-06T09:41:19.451Z</time>
      </trkpt>
      <trkpt lat="45.76304" lon="5.42453">
        <ele>226</ele>
        <time>2021-06-06T09:41:20.451Z</time>
      </trkpt>
      <trkpt lat="45.76298" lon="5.42455">
        <ele>227</ele>
        <time>2021-06-06T09:41:21.451Z</time>
      </trkpt>
      <trkpt lat="45.76292" lon="5.42458">
        <ele>228</ele>
        <time>2021-06-06T09:41:22.451Z</time>
      </trkpt>
      <trkpt lat="45.76285" lon="5.42461">
        <ele>229</ele>
        <time>2021-06-06T09:41:23.451Z</time>
      </trkpt>
      <trkpt lat="45.76278" lon="5.42464">
        <ele>230</ele>
        <time>2021-06-06T09:41:24.451Z</time>
      </trkpt>
      <trkpt lat="45.76272" lon="5.42466">
        <ele>231</ele>
        <time>2021-06-06T09:41:25.451Z</time>
      </trkpt>
      <trkpt lat="45.76264" lon="5.42465">
        <ele>232</ele>
        <time>2021-06-06T09:41:26.451Z</time>
      </trkpt>
      <trkpt lat="45.76257" lon="5.42465">
        <ele>232</ele>
        <time>2021-06-06T09:41:27.451Z</time>
      </trkpt>
      <trkpt lat="45.7625" lon="5.42463">
        <ele>232</ele>
        <time>2021-06-06T09:41:28.450Z</time>
      </trkpt>
      <trkpt lat="45.76243" lon="5.42462">
        <ele>231</ele>
        <time>2021-06-06T09:41:29.450Z</time>
      </trkpt>
      <trkpt lat="45.76235" lon="5.4246">
        <ele>231</ele>
        <time>2021-06-06T09:41:30.451Z</time>
      </trkpt>
      <trkpt lat="45.76229" lon="5.4246">
        <ele>230</ele>
        <time>2021-06-06T09:41:31.451Z</time>
      </trkpt>
      <trkpt lat="45.76222" lon="5.42458">
        <ele>230</ele>
        <time>2021-06-06T09:41:32.451Z</time>
      </trkpt>
      <trkpt lat="45.76215" lon="5.42457">
        <ele>230</ele>
        <time>2021-06-06T09:41:33.451Z</time>
      </trkpt>
      <trkpt lat="45.76207" lon="5.42457">
        <ele>230</ele>
        <time>2021-06-06T09:41:34.451Z</time>
      </trkpt>
      <trkpt lat="45.762" lon="5.42458">
        <ele>230</ele>
        <time>2021-06-06T09:41:35.451Z</time>
      </trkpt>
      <trkpt lat="45.76194" lon="5.42459">
        <ele>230</ele>
        <time>2021-06-06T09:41:36.451Z</time>
      </trkpt>
      <trkpt lat="45.76187" lon="5.42459">
        <ele>230</ele>
        <time>2021-06-06T09:41:37.451Z</time>
      </trkpt>
      <trkpt lat="45.76181" lon="5.4246">
        <ele>230</ele>
        <time>2021-06-06T09:41:38.451Z</time>
      </trkpt>
      <trkpt lat="45.76174" lon="5.42461">
        <ele>230</ele>
        <time>2021-06-06T09:41:39.451Z</time>
      </trkpt>
      <trkpt lat="45.76168" lon="5.42463">
        <ele>230</ele>
        <time>2021-06-06T09:41:40.450Z</time>
      </trkpt>
      <trkpt lat="45.76162" lon="5.42464">
        <ele>230</ele>
        <time>2021-06-06T09:41:41.451Z</time>
      </trkpt>
      <trkpt lat="45.76155" lon="5.42465">
        <ele>231</ele>
        <time>2021-06-06T09:41:42.451Z</time>
      </trkpt>
      <trkpt lat="45.76149" lon="5.42466">
        <ele>231</ele>
        <time>2021-06-06T09:41:43.451Z</time>
      </trkpt>
      <trkpt lat="45.76144" lon="5.42466">
        <ele>231</ele>
        <time>2021-06-06T09:41:44.451Z</time>
      </trkpt>
      <trkpt lat="45.7614" lon="5.42467">
        <ele>230</ele>
        <time>2021-06-06T09:41:45.451Z</time>
      </trkpt>
      <trkpt lat="45.76136" lon="5.42467">
        <ele>230</ele>
        <time>2021-06-06T09:41:46.451Z</time>
      </trkpt>
      <trkpt lat="45.76132" lon="5.42468">
        <ele>230</ele>
        <time>2021-06-06T09:41:47.451Z</time>
      </trkpt>
      <trkpt lat="45.76128" lon="5.42469">
        <ele>230</ele>
        <time>2021-06-06T09:41:48.451Z</time>
      </trkpt>
      <trkpt lat="45.76124" lon="5.4247">
        <ele>230</ele>
        <time>2021-06-06T09:41:49.451Z</time>
      </trkpt>
      <trkpt lat="45.7612" lon="5.42472">
        <ele>230</ele>
        <time>2021-06-06T09:41:50.451Z</time>
      </trkpt>
      <trkpt lat="45.76115" lon="5.42474">
        <ele>229</ele>
        <time>2021-06-06T09:41:51.451Z</time>
      </trkpt>
      <trkpt lat="45.76111" lon="5.42478">
        <ele>229</ele>
        <time>2021-06-06T09:41:52.450Z</time>
      </trkpt>
      <trkpt lat="45.76106" lon="5.42481">
        <ele>228</ele>
        <time>2021-06-06T09:41:53.450Z</time>
      </trkpt>
      <trkpt lat="45.76101" lon="5.42485">
        <ele>228</ele>
        <time>2021-06-06T09:41:54.451Z</time>
      </trkpt>
      <trkpt lat="45.76096" lon="5.4249">
        <ele>227</ele>
        <time>2021-06-06T09:41:55.451Z</time>
      </trkpt>
      <trkpt lat="45.76091" lon="5.42495">
        <ele>227</ele>
        <time>2021-06-06T09:41:56.451Z</time>
      </trkpt>
      <trkpt lat="45.76086" lon="5.425">
        <ele>226</ele>
        <time>2021-06-06T09:41:57.451Z</time>
      </trkpt>
      <trkpt lat="45.76082" lon="5.42505">
        <ele>226</ele>
        <time>2021-06-06T09:41:58.451Z</time>
      </trkpt>
      <trkpt lat="45.76079" lon="5.4251">
        <ele>226</ele>
        <time>2021-06-06T09:41:59.451Z</time>
      </trkpt>
      <trkpt lat="45.76076" lon="5.42516">
        <ele>226</ele>
        <time>2021-06-06T09:42:00.450Z</time>
      </trkpt>
      <trkpt lat="45.76072" lon="5.42521">
        <ele>226</ele>
        <time>2021-06-06T09:42:01.450Z</time>
      </trkpt>
      <trkpt lat="45.76069" lon="5.42527">
        <ele>226</ele>
        <time>2021-06-06T09:42:02.451Z</time>
      </trkpt>
      <trkpt lat="45.76066" lon="5.42532">
        <ele>226</ele>
        <time>2021-06-06T09:42:03.451Z</time>
      </trkpt>
      <trkpt lat="45.76062" lon="5.42537">
        <ele>226</ele>
        <time>2021-06-06T09:42:04.450Z</time>
      </trkpt>
      <trkpt lat="45.76058" lon="5.42544">
        <ele>227</ele>
        <time>2021-06-06T09:42:05.450Z</time>
      </trkpt>
      <trkpt lat="45.76054" lon="5.42551">
        <ele>227</ele>
        <time>2021-06-06T09:42:06.450Z</time>
      </trkpt>
      <trkpt lat="45.76051" lon="5.42558">
        <ele>228</ele>
        <time>2021-06-06T09:42:07.450Z</time>
      </trkpt>
      <trkpt lat="45.76048" lon="5.42564">
        <ele>228</ele>
        <time>2021-06-06T09:42:08.451Z</time>
      </trkpt>
      <trkpt lat="45.76044" lon="5.4257">
        <ele>228</ele>
        <time>2021-06-06T09:42:09.451Z</time>
      </trkpt>
      <trkpt lat="45.7604" lon="5.42576">
        <ele>228</ele>
        <time>2021-06-06T09:42:10.451Z</time>
      </trkpt>
      <trkpt lat="45.76036" lon="5.42583">
        <ele>228</ele>
        <time>2021-06-06T09:42:11.451Z</time>
      </trkpt>
      <trkpt lat="45.76033" lon="5.42591">
        <ele>229</ele>
        <time>2021-06-06T09:42:12.451Z</time>
      </trkpt>
      <trkpt lat="45.76028" lon="5.42597">
        <ele>229</ele>
        <time>2021-06-06T09:42:13.451Z</time>
      </trkpt>
      <trkpt lat="45.76024" lon="5.42604">
        <ele>230</ele>
        <time>2021-06-06T09:42:14.451Z</time>
      </trkpt>
      <trkpt lat="45.76019" lon="5.4261">
        <ele>230</ele>
        <time>2021-06-06T09:42:15.451Z</time>
      </trkpt>
      <trkpt lat="45.76015" lon="5.42614">
        <ele>230</ele>
        <time>2021-06-06T09:42:16.451Z</time>
      </trkpt>
      <trkpt lat="45.76009" lon="5.42618">
        <ele>230</ele>
        <time>2021-06-06T09:42:17.451Z</time>
      </trkpt>
      <trkpt lat="45.76003" lon="5.4262">
        <ele>231</ele>
        <time>2021-06-06T09:42:18.450Z</time>
      </trkpt>
      <trkpt lat="45.75997" lon="5.42622">
        <ele>231</ele>
        <time>2021-06-06T09:42:19.450Z</time>
      </trkpt>
      <trkpt lat="45.75992" lon="5.42623">
        <ele>231</ele>
        <time>2021-06-06T09:42:20.450Z</time>
      </trkpt>
      <trkpt lat="45.75986" lon="5.42624">
        <ele>231</ele>
        <time>2021-06-06T09:42:21.450Z</time>
      </trkpt>
      <trkpt lat="45.7598" lon="5.42625">
        <ele>231</ele>
        <time>2021-06-06T09:42:22.451Z</time>
      </trkpt>
      <trkpt lat="45.75974" lon="5.42625">
        <ele>231</ele>
        <time>2021-06-06T09:42:23.451Z</time>
      </trkpt>
      <trkpt lat="45.75968" lon="5.42626">
        <ele>231</ele>
        <time>2021-06-06T09:42:24.450Z</time>
      </trkpt>
      <trkpt lat="45.75963" lon="5.42627">
        <ele>231</ele>
        <time>2021-06-06T09:42:25.451Z</time>
      </trkpt>
      <trkpt lat="45.75958" lon="5.42627">
        <ele>231</ele>
        <time>2021-06-06T09:42:26.451Z</time>
      </trkpt>
      <trkpt lat="45.75952" lon="5.42628">
        <ele>231</ele>
        <time>2021-06-06T09:42:27.451Z</time>
      </trkpt>
      <trkpt lat="45.75947" lon="5.42629">
        <ele>231</ele>
        <time>2021-06-06T09:42:28.451Z</time>
      </trkpt>
      <trkpt lat="45.75942" lon="5.42629">
        <ele>231</ele>
        <time>2021-06-06T09:42:29.451Z</time>
      </trkpt>
      <trkpt lat="45.75936" lon="5.4263">
        <ele>231</ele>
        <time>2021-06-06T09:42:30.451Z</time>
      </trkpt>
      <trkpt lat="45.7593" lon="5.42631">
        <ele>230</ele>
        <time>2021-06-06T09:42:31.451Z</time>
      </trkpt>
      <trkpt lat="45.75925" lon="5.42632">
        <ele>230</ele>
        <time>2021-06-06T09:42:32.451Z</time>
      </trkpt>
      <trkpt lat="45.75919" lon="5.42633">
        <ele>230</ele>
        <time>2021-06-06T09:42:33.451Z</time>
      </trkpt>
      <trkpt lat="45.75913" lon="5.42634">
        <ele>230</ele>
        <time>2021-06-06T09:42:34.451Z</time>
      </trkpt>
      <trkpt lat="45.75907" lon="5.42635">
        <ele>231</ele>
        <time>2021-06-06T09:42:35.451Z</time>
      </trkpt>
      <trkpt lat="45.759" lon="5.42636">
        <ele>231</ele>
        <time>2021-06-06T09:42:36.451Z</time>
      </trkpt>
      <trkpt lat="45.75895" lon="5.42637">
        <ele>231</ele>
        <time>2021-06-06T09:42:37.450Z</time>
      </trkpt>
      <trkpt lat="45.75888" lon="5.42638">
        <ele>232</ele>
        <time>2021-06-06T09:42:38.450Z</time>
      </trkpt>
      <trkpt lat="45.75881" lon="5.42639">
        <ele>232</ele>
        <time>2021-06-06T09:42:39.451Z</time>
      </trkpt>
      <trkpt lat="45.75874" lon="5.4264">
        <ele>232</ele>
        <time>2021-06-06T09:42:40.451Z</time>
      </trkpt>
      <trkpt lat="45.75867" lon="5.42641">
        <ele>231</ele>
        <time>2021-06-06T09:42:41.451Z</time>
      </trkpt>
      <trkpt lat="45.75861" lon="5.42642">
        <ele>231</ele>
        <time>2021-06-06T09:42:42.451Z</time>
      </trkpt>
      <trkpt lat="45.75854" lon="5.42643">
        <ele>231</ele>
        <time>2021-06-06T09:42:43.451Z</time>
      </trkpt>
      <trkpt lat="45.75847" lon="5.42644">
        <ele>230</ele>
        <time>2021-06-06T09:42:44.451Z</time>
      </trkpt>
      <trkpt lat="45.7584" lon="5.42645">
        <ele>230</ele>
        <time>2021-06-06T09:42:45.451Z</time>
      </trkpt>
      <trkpt lat="45.75833" lon="5.42646">
        <ele>230</ele>
        <time>2021-06-06T09:42:46.451Z</time>
      </trkpt>
      <trkpt lat="45.75827" lon="5.42646">
        <ele>230</ele>
        <time>2021-06-06T09:42:47.451Z</time>
      </trkpt>
      <trkpt lat="45.75819" lon="5.42647">
        <ele>230</ele>
        <time>2021-06-06T09:42:48.451Z</time>
      </trkpt>
      <trkpt lat="45.75812" lon="5.42648">
        <ele>230</ele>
        <time>2021-06-06T09:42:49.451Z</time>
      </trkpt>
      <trkpt lat="45.75806" lon="5.42649">
        <ele>230</ele>
        <time>2021-06-06T09:42:50.450Z</time>
      </trkpt>
      <trkpt lat="45.758" lon="5.42649">
        <ele>230</ele>
        <time>2021-06-06T09:42:51.451Z</time>
      </trkpt>
      <trkpt lat="45.75793" lon="5.42649">
        <ele>230</ele>
        <time>2021-06-06T09:42:52.451Z</time>
      </trkpt>
      <trkpt lat="45.75786" lon="5.42649">
        <ele>230</ele>
        <time>2021-06-06T09:42:53.451Z</time>
      </trkpt>
      <trkpt lat="45.7578" lon="5.42649">
        <ele>231</ele>
        <time>2021-06-06T09:42:54.451Z</time>
      </trkpt>
      <trkpt lat="45.75773" lon="5.42649">
        <ele>231</ele>
        <time>2021-06-06T09:42:55.451Z</time>
      </trkpt>
      <trkpt lat="45.75767" lon="5.42649">
        <ele>231</ele>
        <time>2021-06-06T09:42:56.451Z</time>
      </trkpt>
      <trkpt lat="45.75761" lon="5.42649">
        <ele>231</ele>
        <time>2021-06-06T09:42:57.451Z</time>
      </trkpt>
      <trkpt lat="45.75755" lon="5.42649">
        <ele>231</ele>
        <time>2021-06-06T09:42:58.451Z</time>
      </trkpt>
      <trkpt lat="45.75748" lon="5.42649">
        <ele>231</ele>
        <time>2021-06-06T09:42:59.451Z</time>
      </trkpt>
      <trkpt lat="45.75742" lon="5.42649">
        <ele>231</ele>
        <time>2021-06-06T09:43:00.451Z</time>
      </trkpt>
      <trkpt lat="45.75737" lon="5.4265">
        <ele>231</ele>
        <time>2021-06-06T09:43:01.451Z</time>
      </trkpt>
      <trkpt lat="45.7573" lon="5.42651">
        <ele>230</ele>
        <time>2021-06-06T09:43:02.450Z</time>
      </trkpt>
      <trkpt lat="45.75722" lon="5.42653">
        <ele>230</ele>
        <time>2021-06-06T09:43:03.450Z</time>
      </trkpt>
      <trkpt lat="45.75716" lon="5.42654">
        <ele>229</ele>
        <time>2021-06-06T09:43:04.451Z</time>
      </trkpt>
      <trkpt lat="45.75709" lon="5.42655">
        <ele>229</ele>
        <time>2021-06-06T09:43:05.451Z</time>
      </trkpt>
      <trkpt lat="45.75703" lon="5.42657">
        <ele>228</ele>
        <time>2021-06-06T09:43:06.451Z</time>
      </trkpt>
      <trkpt lat="45.75697" lon="5.42658">
        <ele>228</ele>
        <time>2021-06-06T09:43:07.450Z</time>
      </trkpt>
      <trkpt lat="45.75688" lon="5.4266">
        <ele>228</ele>
        <time>2021-06-06T09:43:08.451Z</time>
      </trkpt>
      <trkpt lat="45.75681" lon="5.42662">
        <ele>228</ele>
        <time>2021-06-06T09:43:09.451Z</time>
      </trkpt>
      <trkpt lat="45.75674" lon="5.42663">
        <ele>228</ele>
        <time>2021-06-06T09:43:10.451Z</time>
      </trkpt>
      <trkpt lat="45.75668" lon="5.42665">
        <ele>229</ele>
        <time>2021-06-06T09:43:11.451Z</time>
      </trkpt>
      <trkpt lat="45.75659" lon="5.42667">
        <ele>229</ele>
        <time>2021-06-06T09:43:12.451Z</time>
      </trkpt>
      <trkpt lat="45.75652" lon="5.42669">
        <ele>229</ele>
        <time>2021-06-06T09:43:13.450Z</time>
      </trkpt>
      <trkpt lat="45.75645" lon="5.42671">
        <ele>229</ele>
        <time>2021-06-06T09:43:14.451Z</time>
      </trkpt>
      <trkpt lat="45.75639" lon="5.42674">
        <ele>229</ele>
        <time>2021-06-06T09:43:15.451Z</time>
      </trkpt>
      <trkpt lat="45.75633" lon="5.42678">
        <ele>230</ele>
        <time>2021-06-06T09:43:16.451Z</time>
      </trkpt>
      <trkpt lat="45.75628" lon="5.42683">
        <ele>229</ele>
        <time>2021-06-06T09:43:17.450Z</time>
      </trkpt>
      <trkpt lat="45.75624" lon="5.42689">
        <ele>229</ele>
        <time>2021-06-06T09:43:18.450Z</time>
      </trkpt>
      <trkpt lat="45.75621" lon="5.42696">
        <ele>229</ele>
        <time>2021-06-06T09:43:19.451Z</time>
      </trkpt>
      <trkpt lat="45.75618" lon="5.42702">
        <ele>228</ele>
        <time>2021-06-06T09:43:20.451Z</time>
      </trkpt>
      <trkpt lat="45.75614" lon="5.42706">
        <ele>229</ele>
        <time>2021-06-06T09:43:21.451Z</time>
      </trkpt>
      <trkpt lat="45.75611" lon="5.42708">
        <ele>229</ele>
        <time>2021-06-06T09:43:22.451Z</time>
      </trkpt>
      <trkpt lat="45.75608" lon="5.42708">
        <ele>229</ele>
        <time>2021-06-06T09:43:23.451Z</time>
      </trkpt>
      <trkpt lat="45.75605" lon="5.42706">
        <ele>229</ele>
        <time>2021-06-06T09:43:24.451Z</time>
      </trkpt>
      <trkpt lat="45.75603" lon="5.42703">
        <ele>229</ele>
        <time>2021-06-06T09:43:25.451Z</time>
      </trkpt>
      <trkpt lat="45.75601" lon="5.42699">
        <ele>229</ele>
        <time>2021-06-06T09:43:26.451Z</time>
      </trkpt>
      <trkpt lat="45.75599" lon="5.42694">
        <ele>229</ele>
        <time>2021-06-06T09:43:27.451Z</time>
      </trkpt>
      <trkpt lat="45.75597" lon="5.42688">
        <ele>230</ele>
        <time>2021-06-06T09:43:28.451Z</time>
      </trkpt>
      <trkpt lat="45.75595" lon="5.42682">
        <ele>230</ele>
        <time>2021-06-06T09:43:29.451Z</time>
      </trkpt>
      <trkpt lat="45.75593" lon="5.42675">
        <ele>231</ele>
        <time>2021-06-06T09:43:30.451Z</time>
      </trkpt>
      <trkpt lat="45.75591" lon="5.42669">
        <ele>231</ele>
        <time>2021-06-06T09:43:31.451Z</time>
      </trkpt>
      <trkpt lat="45.75587" lon="5.4266">
        <ele>231</ele>
        <time>2021-06-06T09:43:32.451Z</time>
      </trkpt>
      <trkpt lat="45.75583" lon="5.42653">
        <ele>232</ele>
        <time>2021-06-06T09:43:33.451Z</time>
      </trkpt>
      <trkpt lat="45.75578" lon="5.42644">
        <ele>232</ele>
        <time>2021-06-06T09:43:34.450Z</time>
      </trkpt>
      <trkpt lat="45.75574" lon="5.42636">
        <ele>232</ele>
        <time>2021-06-06T09:43:35.450Z</time>
      </trkpt>
      <trkpt lat="45.75569" lon="5.42627">
        <ele>232</ele>
        <time>2021-06-06T09:43:36.451Z</time>
      </trkpt>
      <trkpt lat="45.75564" lon="5.42619">
        <ele>232</ele>
        <time>2021-06-06T09:43:37.451Z</time>
      </trkpt>
      <trkpt lat="45.7556" lon="5.42611">
        <ele>232</ele>
        <time>2021-06-06T09:43:38.450Z</time>
      </trkpt>
      <trkpt lat="45.75555" lon="5.42604">
        <ele>232</ele>
        <time>2021-06-06T09:43:39.450Z</time>
      </trkpt>
      <trkpt lat="45.7555" lon="5.42598">
        <ele>232</ele>
        <time>2021-06-06T09:43:40.451Z</time>
      </trkpt>
      <trkpt lat="45.75545" lon="5.42592">
        <ele>232</ele>
        <time>2021-06-06T09:43:41.451Z</time>
      </trkpt>
      <trkpt lat="45.7554" lon="5.42587">
        <ele>233</ele>
        <time>2021-06-06T09:43:42.450Z</time>
      </trkpt>
      <trkpt lat="45.75534" lon="5.42582">
        <ele>233</ele>
        <time>2021-06-06T09:43:43.451Z</time>
      </trkpt>
      <trkpt lat="45.75527" lon="5.42579">
        <ele>232</ele>
        <time>2021-06-06T09:43:44.450Z</time>
      </trkpt>
      <trkpt lat="45.7552" lon="5.42576">
        <ele>233</ele>
        <time>2021-06-06T09:43:45.451Z</time>
      </trkpt>
      <trkpt lat="45.75513" lon="5.42574">
        <ele>232</ele>
        <time>2021-06-06T09:43:46.450Z</time>
      </trkpt>
      <trkpt lat="45.75505" lon="5.42572">
        <ele>232</ele>
        <time>2021-06-06T09:43:47.450Z</time>
      </trkpt>
      <trkpt lat="45.75497" lon="5.42569">
        <ele>232</ele>
        <time>2021-06-06T09:43:48.451Z</time>
      </trkpt>
      <trkpt lat="45.75487" lon="5.42566">
        <ele>231</ele>
        <time>2021-06-06T09:43:49.451Z</time>
      </trkpt>
      <trkpt lat="45.75477" lon="5.42563">
        <ele>230</ele>
        <time>2021-06-06T09:43:50.451Z</time>
      </trkpt>
      <trkpt lat="45.75468" lon="5.42561">
        <ele>230</ele>
        <time>2021-06-06T09:43:51.451Z</time>
      </trkpt>
      <trkpt lat="45.75459" lon="5.42558">
        <ele>230</ele>
        <time>2021-06-06T09:43:52.451Z</time>
      </trkpt>
      <trkpt lat="45.7545" lon="5.42555">
        <ele>229</ele>
        <time>2021-06-06T09:43:53.451Z</time>
      </trkpt>
      <trkpt lat="45.75441" lon="5.42553">
        <ele>229</ele>
        <time>2021-06-06T09:43:54.451Z</time>
      </trkpt>
      <trkpt lat="45.75431" lon="5.42551">
        <ele>228</ele>
        <time>2021-06-06T09:43:55.451Z</time>
      </trkpt>
      <trkpt lat="45.75422" lon="5.4255">
        <ele>228</ele>
        <time>2021-06-06T09:43:56.450Z</time>
      </trkpt>
      <trkpt lat="45.75413" lon="5.42549">
        <ele>228</ele>
        <time>2021-06-06T09:43:57.450Z</time>
      </trkpt>
      <trkpt lat="45.75403" lon="5.42548">
        <ele>227</ele>
        <time>2021-06-06T09:43:58.451Z</time>
      </trkpt>
      <trkpt lat="45.75394" lon="5.42548">
        <ele>227</ele>
        <time>2021-06-06T09:43:59.451Z</time>
      </trkpt>
      <trkpt lat="45.75385" lon="5.42547">
        <ele>227</ele>
        <time>2021-06-06T09:44:00.451Z</time>
      </trkpt>
      <trkpt lat="45.75376" lon="5.42547">
        <ele>227</ele>
        <time>2021-06-06T09:44:01.451Z</time>
      </trkpt>
      <trkpt lat="45.75369" lon="5.42547">
        <ele>228</ele>
        <time>2021-06-06T09:44:02.451Z</time>
      </trkpt>
      <trkpt lat="45.75361" lon="5.42548">
        <ele>228</ele>
        <time>2021-06-06T09:44:03.451Z</time>
      </trkpt>
      <trkpt lat="45.75355" lon="5.42549">
        <ele>229</ele>
        <time>2021-06-06T09:44:04.451Z</time>
      </trkpt>
      <trkpt lat="45.75348" lon="5.42549">
        <ele>229</ele>
        <time>2021-06-06T09:44:05.451Z</time>
      </trkpt>
      <trkpt lat="45.75342" lon="5.42549">
        <ele>230</ele>
        <time>2021-06-06T09:44:06.450Z</time>
      </trkpt>
      <trkpt lat="45.75336" lon="5.42549">
        <ele>230</ele>
        <time>2021-06-06T09:44:07.451Z</time>
      </trkpt>
      <trkpt lat="45.7533" lon="5.42548">
        <ele>231</ele>
        <time>2021-06-06T09:44:08.451Z</time>
      </trkpt>
      <trkpt lat="45.75323" lon="5.42547">
        <ele>231</ele>
        <time>2021-06-06T09:44:09.450Z</time>
      </trkpt>
      <trkpt lat="45.75318" lon="5.42547">
        <ele>231</ele>
        <time>2021-06-06T09:44:10.450Z</time>
      </trkpt>
      <trkpt lat="45.7531" lon="5.42545">
        <ele>232</ele>
        <time>2021-06-06T09:44:11.451Z</time>
      </trkpt>
      <trkpt lat="45.753" lon="5.42542">
        <ele>232</ele>
        <time>2021-06-06T09:44:12.450Z</time>
      </trkpt>
      <trkpt lat="45.75293" lon="5.42541">
        <ele>232</ele>
        <time>2021-06-06T09:44:13.451Z</time>
      </trkpt>
      <trkpt lat="45.75285" lon="5.4254">
        <ele>232</ele>
        <time>2021-06-06T09:44:14.450Z</time>
      </trkpt>
      <trkpt lat="45.75277" lon="5.42539">
        <ele>232</ele>
        <time>2021-06-06T09:44:15.451Z</time>
      </trkpt>
      <trkpt lat="45.75269" lon="5.42537">
        <ele>232</ele>
        <time>2021-06-06T09:44:16.451Z</time>
      </trkpt>
      <trkpt lat="45.75261" lon="5.42536">
        <ele>231</ele>
        <time>2021-06-06T09:44:17.451Z</time>
      </trkpt>
      <trkpt lat="45.75253" lon="5.42535">
        <ele>232</ele>
        <time>2021-06-06T09:44:18.450Z</time>
      </trkpt>
      <trkpt lat="45.75245" lon="5.42534">
        <ele>232</ele>
        <time>2021-06-06T09:44:19.450Z</time>
      </trkpt>
      <trkpt lat="45.75237" lon="5.42533">
        <ele>232</ele>
        <time>2021-06-06T09:44:20.451Z</time>
      </trkpt>
      <trkpt lat="45.75229" lon="5.42532">
        <ele>232</ele>
        <time>2021-06-06T09:44:21.451Z</time>
      </trkpt>
      <trkpt lat="45.75221" lon="5.42531">
        <ele>232</ele>
        <time>2021-06-06T09:44:22.451Z</time>
      </trkpt>
      <trkpt lat="45.75214" lon="5.42531">
        <ele>232</ele>
        <time>2021-06-06T09:44:23.451Z</time>
      </trkpt>
      <trkpt lat="45.75206" lon="5.4253">
        <ele>232</ele>
        <time>2021-06-06T09:44:24.451Z</time>
      </trkpt>
      <trkpt lat="45.75199" lon="5.42529">
        <ele>232</ele>
        <time>2021-06-06T09:44:25.450Z</time>
      </trkpt>
      <trkpt lat="45.75194" lon="5.42527">
        <ele>232</ele>
        <time>2021-06-06T09:44:26.451Z</time>
      </trkpt>
      <trkpt lat="45.75186" lon="5.42525">
        <ele>232</ele>
        <time>2021-06-06T09:44:27.451Z</time>
      </trkpt>
      <trkpt lat="45.75178" lon="5.42524">
        <ele>232</ele>
        <time>2021-06-06T09:44:28.451Z</time>
      </trkpt>
      <trkpt lat="45.75171" lon="5.42522">
        <ele>233</ele>
        <time>2021-06-06T09:44:29.451Z</time>
      </trkpt>
      <trkpt lat="45.75165" lon="5.42521">
        <ele>233</ele>
        <time>2021-06-06T09:44:30.450Z</time>
      </trkpt>
      <trkpt lat="45.75158" lon="5.4252">
        <ele>233</ele>
        <time>2021-06-06T09:44:31.451Z</time>
      </trkpt>
      <trkpt lat="45.75151" lon="5.42519">
        <ele>233</ele>
        <time>2021-06-06T09:44:32.451Z</time>
      </trkpt>
      <trkpt lat="45.75143" lon="5.42518">
        <ele>233</ele>
        <time>2021-06-06T09:44:33.451Z</time>
      </trkpt>
      <trkpt lat="45.75136" lon="5.42517">
        <ele>233</ele>
        <time>2021-06-06T09:44:34.450Z</time>
      </trkpt>
      <trkpt lat="45.75129" lon="5.42516">
        <ele>233</ele>
        <time>2021-06-06T09:44:35.450Z</time>
      </trkpt>
      <trkpt lat="45.75123" lon="5.42515">
        <ele>234</ele>
        <time>2021-06-06T09:44:36.451Z</time>
      </trkpt>
      <trkpt lat="45.75118" lon="5.42514">
        <ele>234</ele>
        <time>2021-06-06T09:44:37.451Z</time>
      </trkpt>
      <trkpt lat="45.75111" lon="5.42514">
        <ele>234</ele>
        <time>2021-06-06T09:44:38.451Z</time>
      </trkpt>
      <trkpt lat="45.75105" lon="5.42513">
        <ele>235</ele>
        <time>2021-06-06T09:44:39.451Z</time>
      </trkpt>
      <trkpt lat="45.75098" lon="5.42511">
        <ele>235</ele>
        <time>2021-06-06T09:44:40.451Z</time>
      </trkpt>
      <trkpt lat="45.75092" lon="5.4251">
        <ele>235</ele>
        <time>2021-06-06T09:44:41.451Z</time>
      </trkpt>
      <trkpt lat="45.75085" lon="5.42509">
        <ele>236</ele>
        <time>2021-06-06T09:44:42.451Z</time>
      </trkpt>
      <trkpt lat="45.75079" lon="5.42509">
        <ele>236</ele>
        <time>2021-06-06T09:44:43.451Z</time>
      </trkpt>
      <trkpt lat="45.75071" lon="5.42509">
        <ele>236</ele>
        <time>2021-06-06T09:44:44.451Z</time>
      </trkpt>
      <trkpt lat="45.75065" lon="5.42508">
        <ele>236</ele>
        <time>2021-06-06T09:44:45.451Z</time>
      </trkpt>
      <trkpt lat="45.75058" lon="5.42507">
        <ele>237</ele>
        <time>2021-06-06T09:44:46.450Z</time>
      </trkpt>
      <trkpt lat="45.75051" lon="5.42506">
        <ele>237</ele>
        <time>2021-06-06T09:44:47.450Z</time>
      </trkpt>
      <trkpt lat="45.75045" lon="5.42505">
        <ele>237</ele>
        <time>2021-06-06T09:44:48.451Z</time>
      </trkpt>
      <trkpt lat="45.75039" lon="5.42504">
        <ele>237</ele>
        <time>2021-06-06T09:44:49.451Z</time>
      </trkpt>
      <trkpt lat="45.75034" lon="5.42504">
        <ele>237</ele>
        <time>2021-06-06T09:44:50.450Z</time>
      </trkpt>
      <trkpt lat="45.75028" lon="5.42503">
        <ele>237</ele>
        <time>2021-06-06T09:44:51.451Z</time>
      </trkpt>
      <trkpt lat="45.75022" lon="5.42503">
        <ele>237</ele>
        <time>2021-06-06T09:44:52.451Z</time>
      </trkpt>
      <trkpt lat="45.75017" lon="5.42504">
        <ele>237</ele>
        <time>2021-06-06T09:44:53.451Z</time>
      </trkpt>
      <trkpt lat="45.75011" lon="5.42504">
        <ele>237</ele>
        <time>2021-06-06T09:44:54.451Z</time>
      </trkpt>
      <trkpt lat="45.75005" lon="5.42505">
        <ele>236</ele>
        <time>2021-06-06T09:44:55.451Z</time>
      </trkpt>
      <trkpt lat="45.75" lon="5.42506">
        <ele>236</ele>
        <time>2021-06-06T09:44:56.451Z</time>
      </trkpt>
      <trkpt lat="45.74994" lon="5.42506">
        <ele>235</ele>
        <time>2021-06-06T09:44:57.451Z</time>
      </trkpt>
      <trkpt lat="45.74989" lon="5.42506">
        <ele>235</ele>
        <time>2021-06-06T09:44:58.451Z</time>
      </trkpt>
      <trkpt lat="45.74984" lon="5.42505">
        <ele>234</ele>
        <time>2021-06-06T09:44:59.451Z</time>
      </trkpt>
      <trkpt lat="45.7498" lon="5.42501">
        <ele>234</ele>
        <time>2021-06-06T09:45:00.450Z</time>
      </trkpt>
      <trkpt lat="45.74977" lon="5.42495">
        <ele>234</ele>
        <time>2021-06-06T09:45:01.450Z</time>
      </trkpt>
      <trkpt lat="45.74975" lon="5.42488">
        <ele>233</ele>
        <time>2021-06-06T09:45:02.451Z</time>
      </trkpt>
      <trkpt lat="45.74974" lon="5.4248">
        <ele>233</ele>
        <time>2021-06-06T09:45:03.451Z</time>
      </trkpt>
      <trkpt lat="45.74976" lon="5.42471">
        <ele>233</ele>
        <time>2021-06-06T09:45:04.451Z</time>
      </trkpt>
      <trkpt lat="45.74977" lon="5.42461">
        <ele>233</ele>
        <time>2021-06-06T09:45:05.451Z</time>
      </trkpt>
      <trkpt lat="45.74977" lon="5.42451">
        <ele>232</ele>
        <time>2021-06-06T09:45:06.450Z</time>
      </trkpt>
      <trkpt lat="45.74977" lon="5.42441">
        <ele>232</ele>
        <time>2021-06-06T09:45:07.450Z</time>
      </trkpt>
      <trkpt lat="45.74978" lon="5.42432">
        <ele>232</ele>
        <time>2021-06-06T09:45:08.451Z</time>
      </trkpt>
      <trkpt lat="45.74978" lon="5.42422">
        <ele>232</ele>
        <time>2021-06-06T09:45:09.451Z</time>
      </trkpt>
      <trkpt lat="45.74978" lon="5.42413">
        <ele>232</ele>
        <time>2021-06-06T09:45:10.451Z</time>
      </trkpt>
      <trkpt lat="45.74978" lon="5.42403">
        <ele>232</ele>
        <time>2021-06-06T09:45:11.451Z</time>
      </trkpt>
      <trkpt lat="45.74978" lon="5.42395">
        <ele>232</ele>
        <time>2021-06-06T09:45:12.451Z</time>
      </trkpt>
      <trkpt lat="45.74978" lon="5.42386">
        <ele>232</ele>
        <time>2021-06-06T09:45:13.450Z</time>
      </trkpt>
      <trkpt lat="45.74977" lon="5.42376">
        <ele>232</ele>
        <time>2021-06-06T09:45:14.451Z</time>
      </trkpt>
      <trkpt lat="45.74977" lon="5.42368">
        <ele>232</ele>
        <time>2021-06-06T09:45:15.451Z</time>
      </trkpt>
      <trkpt lat="45.74976" lon="5.42361">
        <ele>231</ele>
        <time>2021-06-06T09:45:16.451Z</time>
      </trkpt>
      <trkpt lat="45.74976" lon="5.42351">
        <ele>231</ele>
        <time>2021-06-06T09:45:17.451Z</time>
      </trkpt>
      <trkpt lat="45.74976" lon="5.42343">
        <ele>231</ele>
        <time>2021-06-06T09:45:18.451Z</time>
      </trkpt>
      <trkpt lat="45.74977" lon="5.42335">
        <ele>231</ele>
        <time>2021-06-06T09:45:19.451Z</time>
      </trkpt>
      <trkpt lat="45.74978" lon="5.42328">
        <ele>231</ele>
        <time>2021-06-06T09:45:20.450Z</time>
      </trkpt>
      <trkpt lat="45.74978" lon="5.42321">
        <ele>231</ele>
        <time>2021-06-06T09:45:21.451Z</time>
      </trkpt>
      <trkpt lat="45.74976" lon="5.42314">
        <ele>231</ele>
        <time>2021-06-06T09:45:22.451Z</time>
      </trkpt>
      <trkpt lat="45.74974" lon="5.42306">
        <ele>232</ele>
        <time>2021-06-06T09:45:23.451Z</time>
      </trkpt>
      <trkpt lat="45.74971" lon="5.42298">
        <ele>232</ele>
        <time>2021-06-06T09:45:24.451Z</time>
      </trkpt>
      <trkpt lat="45.74969" lon="5.4229">
        <ele>232</ele>
        <time>2021-06-06T09:45:25.451Z</time>
      </trkpt>
      <trkpt lat="45.74966" lon="5.42282">
        <ele>233</ele>
        <time>2021-06-06T09:45:26.451Z</time>
      </trkpt>
      <trkpt lat="45.74964" lon="5.42275">
        <ele>233</ele>
        <time>2021-06-06T09:45:27.451Z</time>
      </trkpt>
      <trkpt lat="45.74962" lon="5.42269">
        <ele>233</ele>
        <time>2021-06-06T09:45:28.450Z</time>
      </trkpt>
      <trkpt lat="45.7496" lon="5.42263">
        <ele>234</ele>
        <time>2021-06-06T09:45:29.451Z</time>
      </trkpt>
      <trkpt lat="45.74958" lon="5.42257">
        <ele>234</ele>
        <time>2021-06-06T09:45:30.451Z</time>
      </trkpt>
      <trkpt lat="45.74957" lon="5.4225">
        <ele>235</ele>
        <time>2021-06-06T09:45:31.451Z</time>
      </trkpt>
      <trkpt lat="45.74955" lon="5.42244">
        <ele>235</ele>
        <time>2021-06-06T09:45:32.451Z</time>
      </trkpt>
      <trkpt lat="45.74953" lon="5.42237">
        <ele>235</ele>
        <time>2021-06-06T09:45:33.451Z</time>
      </trkpt>
      <trkpt lat="45.74951" lon="5.42231">
        <ele>236</ele>
        <time>2021-06-06T09:45:34.451Z</time>
      </trkpt>
      <trkpt lat="45.74949" lon="5.42224">
        <ele>236</ele>
        <time>2021-06-06T09:45:35.451Z</time>
      </trkpt>
      <trkpt lat="45.74947" lon="5.42217">
        <ele>236</ele>
        <time>2021-06-06T09:45:36.451Z</time>
      </trkpt>
      <trkpt lat="45.74945" lon="5.4221">
        <ele>237</ele>
        <time>2021-06-06T09:45:37.450Z</time>
      </trkpt>
      <trkpt lat="45.74942" lon="5.42202">
        <ele>237</ele>
        <time>2021-06-06T09:45:38.451Z</time>
      </trkpt>
      <trkpt lat="45.7494" lon="5.42196">
        <ele>237</ele>
        <time>2021-06-06T09:45:39.451Z</time>
      </trkpt>
      <trkpt lat="45.74937" lon="5.4219">
        <ele>238</ele>
        <time>2021-06-06T09:45:40.450Z</time>
      </trkpt>
      <trkpt lat="45.74935" lon="5.42184">
        <ele>238</ele>
        <time>2021-06-06T09:45:41.451Z</time>
      </trkpt>
      <trkpt lat="45.74933" lon="5.42177">
        <ele>238</ele>
        <time>2021-06-06T09:45:42.451Z</time>
      </trkpt>
      <trkpt lat="45.7493" lon="5.42171">
        <ele>238</ele>
        <time>2021-06-06T09:45:43.451Z</time>
      </trkpt>
      <trkpt lat="45.74927" lon="5.42165">
        <ele>239</ele>
        <time>2021-06-06T09:45:44.451Z</time>
      </trkpt>
      <trkpt lat="45.74924" lon="5.42158">
        <ele>239</ele>
        <time>2021-06-06T09:45:45.451Z</time>
      </trkpt>
      <trkpt lat="45.74922" lon="5.42152">
        <ele>239</ele>
        <time>2021-06-06T09:45:46.450Z</time>
      </trkpt>
      <trkpt lat="45.7492" lon="5.42146">
        <ele>240</ele>
        <time>2021-06-06T09:45:47.451Z</time>
      </trkpt>
      <trkpt lat="45.74918" lon="5.4214">
        <ele>240</ele>
        <time>2021-06-06T09:45:48.451Z</time>
      </trkpt>
      <trkpt lat="45.74916" lon="5.42133">
        <ele>240</ele>
        <time>2021-06-06T09:45:49.451Z</time>
      </trkpt>
      <trkpt lat="45.74913" lon="5.42127">
        <ele>240</ele>
        <time>2021-06-06T09:45:50.451Z</time>
      </trkpt>
      <trkpt lat="45.74911" lon="5.42121">
        <ele>240</ele>
        <time>2021-06-06T09:45:51.450Z</time>
      </trkpt>
      <trkpt lat="45.74909" lon="5.42116">
        <ele>241</ele>
        <time>2021-06-06T09:45:52.450Z</time>
      </trkpt>
      <trkpt lat="45.74906" lon="5.4211">
        <ele>241</ele>
        <time>2021-06-06T09:45:53.451Z</time>
      </trkpt>
      <trkpt lat="45.74904" lon="5.42104">
        <ele>241</ele>
        <time>2021-06-06T09:45:54.450Z</time>
      </trkpt>
      <trkpt lat="45.74901" lon="5.42097">
        <ele>241</ele>
        <time>2021-06-06T09:45:55.450Z</time>
      </trkpt>
      <trkpt lat="45.74899" lon="5.42091">
        <ele>241</ele>
        <time>2021-06-06T09:45:56.451Z</time>
      </trkpt>
      <trkpt lat="45.74896" lon="5.42084">
        <ele>240</ele>
        <time>2021-06-06T09:45:57.451Z</time>
      </trkpt>
      <trkpt lat="45.74893" lon="5.42077">
        <ele>240</ele>
        <time>2021-06-06T09:45:58.450Z</time>
      </trkpt>
      <trkpt lat="45.7489" lon="5.4207">
        <ele>240</ele>
        <time>2021-06-06T09:45:59.451Z</time>
      </trkpt>
      <trkpt lat="45.74887" lon="5.42063">
        <ele>240</ele>
        <time>2021-06-06T09:46:00.451Z</time>
      </trkpt>
      <trkpt lat="45.74884" lon="5.42056">
        <ele>240</ele>
        <time>2021-06-06T09:46:01.451Z</time>
      </trkpt>
      <trkpt lat="45.74881" lon="5.42049">
        <ele>240</ele>
        <time>2021-06-06T09:46:02.451Z</time>
      </trkpt>
      <trkpt lat="45.74878" lon="5.42042">
        <ele>240</ele>
        <time>2021-06-06T09:46:03.451Z</time>
      </trkpt>
      <trkpt lat="45.74876" lon="5.42035">
        <ele>240</ele>
        <time>2021-06-06T09:46:04.451Z</time>
      </trkpt>
      <trkpt lat="45.74873" lon="5.42029">
        <ele>240</ele>
        <time>2021-06-06T09:46:05.451Z</time>
      </trkpt>
      <trkpt lat="45.7487" lon="5.42022">
        <ele>241</ele>
        <time>2021-06-06T09:46:06.450Z</time>
      </trkpt>
      <trkpt lat="45.74867" lon="5.42016">
        <ele>240</ele>
        <time>2021-06-06T09:46:07.451Z</time>
      </trkpt>
      <trkpt lat="45.74864" lon="5.42009">
        <ele>240</ele>
        <time>2021-06-06T09:46:08.451Z</time>
      </trkpt>
      <trkpt lat="45.74862" lon="5.42002">
        <ele>240</ele>
        <time>2021-06-06T09:46:09.451Z</time>
      </trkpt>
      <trkpt lat="45.74859" lon="5.41995">
        <ele>240</ele>
        <time>2021-06-06T09:46:10.451Z</time>
      </trkpt>
      <trkpt lat="45.74856" lon="5.41989">
        <ele>241</ele>
        <time>2021-06-06T09:46:11.451Z</time>
      </trkpt>
      <trkpt lat="45.74853" lon="5.41983">
        <ele>241</ele>
        <time>2021-06-06T09:46:12.451Z</time>
      </trkpt>
      <trkpt lat="45.74849" lon="5.41976">
        <ele>242</ele>
        <time>2021-06-06T09:46:13.450Z</time>
      </trkpt>
      <trkpt lat="45.74846" lon="5.4197">
        <ele>242</ele>
        <time>2021-06-06T09:46:14.451Z</time>
      </trkpt>
      <trkpt lat="45.74842" lon="5.41965">
        <ele>241</ele>
        <time>2021-06-06T09:46:15.451Z</time>
      </trkpt>
      <trkpt lat="45.74839" lon="5.41959">
        <ele>241</ele>
        <time>2021-06-06T09:46:16.451Z</time>
      </trkpt>
      <trkpt lat="45.74835" lon="5.41954">
        <ele>241</ele>
        <time>2021-06-06T09:46:17.451Z</time>
      </trkpt>
      <trkpt lat="45.74831" lon="5.41948">
        <ele>241</ele>
        <time>2021-06-06T09:46:18.450Z</time>
      </trkpt>
      <trkpt lat="45.74827" lon="5.41943">
        <ele>241</ele>
        <time>2021-06-06T09:46:19.451Z</time>
      </trkpt>
      <trkpt lat="45.74824" lon="5.41938">
        <ele>241</ele>
        <time>2021-06-06T09:46:20.451Z</time>
      </trkpt>
      <trkpt lat="45.74819" lon="5.41933">
        <ele>241</ele>
        <time>2021-06-06T09:46:21.451Z</time>
      </trkpt>
      <trkpt lat="45.74815" lon="5.41928">
        <ele>240</ele>
        <time>2021-06-06T09:46:22.451Z</time>
      </trkpt>
      <trkpt lat="45.74811" lon="5.41922">
        <ele>240</ele>
        <time>2021-06-06T09:46:23.451Z</time>
      </trkpt>
      <trkpt lat="45.74807" lon="5.41917">
        <ele>240</ele>
        <time>2021-06-06T09:46:24.451Z</time>
      </trkpt>
      <trkpt lat="45.74803" lon="5.41911">
        <ele>240</ele>
        <time>2021-06-06T09:46:25.450Z</time>
      </trkpt>
      <trkpt lat="45.74799" lon="5.41906">
        <ele>240</ele>
        <time>2021-06-06T09:46:26.451Z</time>
      </trkpt>
      <trkpt lat="45.74795" lon="5.419">
        <ele>240</ele>
        <time>2021-06-06T09:46:27.451Z</time>
      </trkpt>
      <trkpt lat="45.74791" lon="5.41894">
        <ele>240</ele>
        <time>2021-06-06T09:46:28.450Z</time>
      </trkpt>
      <trkpt lat="45.74787" lon="5.41888">
        <ele>240</ele>
        <time>2021-06-06T09:46:29.451Z</time>
      </trkpt>
      <trkpt lat="45.74783" lon="5.41882">
        <ele>240</ele>
        <time>2021-06-06T09:46:30.450Z</time>
      </trkpt>
      <trkpt lat="45.74779" lon="5.41876">
        <ele>240</ele>
        <time>2021-06-06T09:46:31.451Z</time>
      </trkpt>
      <trkpt lat="45.74774" lon="5.4187">
        <ele>241</ele>
        <time>2021-06-06T09:46:32.451Z</time>
      </trkpt>
      <trkpt lat="45.7477" lon="5.41863">
        <ele>241</ele>
        <time>2021-06-06T09:46:33.451Z</time>
      </trkpt>
      <trkpt lat="45.74765" lon="5.41857">
        <ele>240</ele>
        <time>2021-06-06T09:46:34.451Z</time>
      </trkpt>
      <trkpt lat="45.7476" lon="5.41851">
        <ele>240</ele>
        <time>2021-06-06T09:46:35.451Z</time>
      </trkpt>
      <trkpt lat="45.74755" lon="5.41846">
        <ele>240</ele>
        <time>2021-06-06T09:46:36.451Z</time>
      </trkpt>
      <trkpt lat="45.7475" lon="5.4184">
        <ele>239</ele>
        <time>2021-06-06T09:46:37.451Z</time>
      </trkpt>
      <trkpt lat="45.74745" lon="5.41835">
        <ele>239</ele>
        <time>2021-06-06T09:46:38.451Z</time>
      </trkpt>
      <trkpt lat="45.74739" lon="5.4183">
        <ele>239</ele>
        <time>2021-06-06T09:46:39.450Z</time>
      </trkpt>
      <trkpt lat="45.74733" lon="5.41825">
        <ele>239</ele>
        <time>2021-06-06T09:46:40.451Z</time>
      </trkpt>
      <trkpt lat="45.74727" lon="5.4182">
        <ele>239</ele>
        <time>2021-06-06T09:46:41.451Z</time>
      </trkpt>
      <trkpt lat="45.74721" lon="5.41816">
        <ele>239</ele>
        <time>2021-06-06T09:46:42.451Z</time>
      </trkpt>
      <trkpt lat="45.74716" lon="5.41812">
        <ele>239</ele>
        <time>2021-06-06T09:46:43.451Z</time>
      </trkpt>
      <trkpt lat="45.7471" lon="5.41809">
        <ele>239</ele>
        <time>2021-06-06T09:46:44.450Z</time>
      </trkpt>
      <trkpt lat="45.74704" lon="5.41806">
        <ele>239</ele>
        <time>2021-06-06T09:46:45.450Z</time>
      </trkpt>
      <trkpt lat="45.74697" lon="5.41803">
        <ele>239</ele>
        <time>2021-06-06T09:46:46.451Z</time>
      </trkpt>
      <trkpt lat="45.74692" lon="5.418">
        <ele>239</ele>
        <time>2021-06-06T09:46:47.451Z</time>
      </trkpt>
      <trkpt lat="45.74686" lon="5.41797">
        <ele>239</ele>
        <time>2021-06-06T09:46:48.451Z</time>
      </trkpt>
      <trkpt lat="45.7468" lon="5.41794">
        <ele>240</ele>
        <time>2021-06-06T09:46:49.450Z</time>
      </trkpt>
      <trkpt lat="45.74674" lon="5.4179">
        <ele>240</ele>
        <time>2021-06-06T09:46:50.451Z</time>
      </trkpt>
      <trkpt lat="45.74667" lon="5.41786">
        <ele>240</ele>
        <time>2021-06-06T09:46:51.451Z</time>
      </trkpt>
      <trkpt lat="45.74661" lon="5.41783">
        <ele>240</ele>
        <time>2021-06-06T09:46:52.450Z</time>
      </trkpt>
      <trkpt lat="45.74655" lon="5.41779">
        <ele>240</ele>
        <time>2021-06-06T09:46:53.450Z</time>
      </trkpt>
      <trkpt lat="45.74649" lon="5.41775">
        <ele>239</ele>
        <time>2021-06-06T09:46:54.450Z</time>
      </trkpt>
      <trkpt lat="45.74643" lon="5.41771">
        <ele>239</ele>
        <time>2021-06-06T09:46:55.451Z</time>
      </trkpt>
      <trkpt lat="45.74637" lon="5.41768">
        <ele>239</ele>
        <time>2021-06-06T09:46:56.451Z</time>
      </trkpt>
      <trkpt lat="45.7463" lon="5.41764">
        <ele>239</ele>
        <time>2021-06-06T09:46:57.451Z</time>
      </trkpt>
      <trkpt lat="45.74624" lon="5.4176">
        <ele>239</ele>
        <time>2021-06-06T09:46:58.451Z</time>
      </trkpt>
      <trkpt lat="45.74618" lon="5.41757">
        <ele>239</ele>
        <time>2021-06-06T09:46:59.451Z</time>
      </trkpt>
      <trkpt lat="45.74612" lon="5.41753">
        <ele>239</ele>
        <time>2021-06-06T09:47:00.451Z</time>
      </trkpt>
      <trkpt lat="45.74606" lon="5.41749">
        <ele>240</ele>
        <time>2021-06-06T09:47:01.451Z</time>
      </trkpt>
      <trkpt lat="45.74599" lon="5.41745">
        <ele>240</ele>
        <time>2021-06-06T09:47:02.451Z</time>
      </trkpt>
      <trkpt lat="45.74593" lon="5.4174">
        <ele>240</ele>
        <time>2021-06-06T09:47:03.450Z</time>
      </trkpt>
      <trkpt lat="45.74587" lon="5.41736">
        <ele>240</ele>
        <time>2021-06-06T09:47:04.451Z</time>
      </trkpt>
      <trkpt lat="45.74581" lon="5.4173">
        <ele>240</ele>
        <time>2021-06-06T09:47:05.451Z</time>
      </trkpt>
      <trkpt lat="45.74575" lon="5.41725">
        <ele>240</ele>
        <time>2021-06-06T09:47:06.451Z</time>
      </trkpt>
      <trkpt lat="45.74569" lon="5.41719">
        <ele>240</ele>
        <time>2021-06-06T09:47:07.451Z</time>
      </trkpt>
      <trkpt lat="45.74564" lon="5.41713">
        <ele>240</ele>
        <time>2021-06-06T09:47:08.450Z</time>
      </trkpt>
      <trkpt lat="45.74558" lon="5.41707">
        <ele>240</ele>
        <time>2021-06-06T09:47:09.450Z</time>
      </trkpt>
      <trkpt lat="45.74553" lon="5.41701">
        <ele>240</ele>
        <time>2021-06-06T09:47:10.450Z</time>
      </trkpt>
      <trkpt lat="45.74548" lon="5.41695">
        <ele>240</ele>
        <time>2021-06-06T09:47:11.451Z</time>
      </trkpt>
      <trkpt lat="45.74543" lon="5.41689">
        <ele>240</ele>
        <time>2021-06-06T09:47:12.450Z</time>
      </trkpt>
      <trkpt lat="45.74537" lon="5.41683">
        <ele>240</ele>
        <time>2021-06-06T09:47:13.451Z</time>
      </trkpt>
      <trkpt lat="45.74531" lon="5.41678">
        <ele>240</ele>
        <time>2021-06-06T09:47:14.451Z</time>
      </trkpt>
      <trkpt lat="45.74525" lon="5.41674">
        <ele>241</ele>
        <time>2021-06-06T09:47:15.451Z</time>
      </trkpt>
      <trkpt lat="45.74519" lon="5.4167">
        <ele>241</ele>
        <time>2021-06-06T09:47:16.450Z</time>
      </trkpt>
      <trkpt lat="45.74513" lon="5.41667">
        <ele>241</ele>
        <time>2021-06-06T09:47:17.450Z</time>
      </trkpt>
      <trkpt lat="45.74508" lon="5.41664">
        <ele>241</ele>
        <time>2021-06-06T09:47:18.450Z</time>
      </trkpt>
      <trkpt lat="45.74502" lon="5.41661">
        <ele>241</ele>
        <time>2021-06-06T09:47:19.451Z</time>
      </trkpt>
      <trkpt lat="45.74497" lon="5.41659">
        <ele>241</ele>
        <time>2021-06-06T09:47:20.451Z</time>
      </trkpt>
      <trkpt lat="45.74492" lon="5.41657">
        <ele>241</ele>
        <time>2021-06-06T09:47:21.450Z</time>
      </trkpt>
      <trkpt lat="45.74488" lon="5.41654">
        <ele>240</ele>
        <time>2021-06-06T09:47:22.450Z</time>
      </trkpt>
      <trkpt lat="45.74482" lon="5.41651">
        <ele>240</ele>
        <time>2021-06-06T09:47:23.451Z</time>
      </trkpt>
      <trkpt lat="45.74477" lon="5.41649">
        <ele>240</ele>
        <time>2021-06-06T09:47:24.451Z</time>
      </trkpt>
      <trkpt lat="45.74472" lon="5.41645">
        <ele>240</ele>
        <time>2021-06-06T09:47:25.451Z</time>
      </trkpt>
      <trkpt lat="45.74467" lon="5.41642">
        <ele>240</ele>
        <time>2021-06-06T09:47:26.450Z</time>
      </trkpt>
      <trkpt lat="45.74462" lon="5.41638">
        <ele>240</ele>
        <time>2021-06-06T09:47:27.451Z</time>
      </trkpt>
      <trkpt lat="45.74456" lon="5.41633">
        <ele>240</ele>
        <time>2021-06-06T09:47:28.451Z</time>
      </trkpt>
      <trkpt lat="45.74451" lon="5.41628">
        <ele>240</ele>
        <time>2021-06-06T09:47:29.451Z</time>
      </trkpt>
      <trkpt lat="45.74446" lon="5.41623">
        <ele>241</ele>
        <time>2021-06-06T09:47:30.451Z</time>
      </trkpt>
      <trkpt lat="45.74441" lon="5.41617">
        <ele>241</ele>
        <time>2021-06-06T09:47:31.451Z</time>
      </trkpt>
      <trkpt lat="45.74436" lon="5.41611">
        <ele>241</ele>
        <time>2021-06-06T09:47:32.451Z</time>
      </trkpt>
      <trkpt lat="45.74432" lon="5.41605">
        <ele>241</ele>
        <time>2021-06-06T09:47:33.451Z</time>
      </trkpt>
      <trkpt lat="45.74427" lon="5.41598">
        <ele>241</ele>
        <time>2021-06-06T09:47:34.451Z</time>
      </trkpt>
      <trkpt lat="45.74422" lon="5.41592">
        <ele>241</ele>
        <time>2021-06-06T09:47:35.451Z</time>
      </trkpt>
      <trkpt lat="45.74417" lon="5.41586">
        <ele>241</ele>
        <time>2021-06-06T09:47:36.451Z</time>
      </trkpt>
      <trkpt lat="45.74412" lon="5.41579">
        <ele>241</ele>
        <time>2021-06-06T09:47:37.450Z</time>
      </trkpt>
      <trkpt lat="45.74407" lon="5.41573">
        <ele>241</ele>
        <time>2021-06-06T09:47:38.451Z</time>
      </trkpt>
      <trkpt lat="45.74403" lon="5.41567">
        <ele>241</ele>
        <time>2021-06-06T09:47:39.451Z</time>
      </trkpt>
      <trkpt lat="45.74398" lon="5.41561">
        <ele>242</ele>
        <time>2021-06-06T09:47:40.451Z</time>
      </trkpt>
      <trkpt lat="45.74393" lon="5.41554">
        <ele>242</ele>
        <time>2021-06-06T09:47:41.451Z</time>
      </trkpt>
      <trkpt lat="45.74388" lon="5.41548">
        <ele>242</ele>
        <time>2021-06-06T09:47:42.451Z</time>
      </trkpt>
      <trkpt lat="45.74383" lon="5.41542">
        <ele>242</ele>
        <time>2021-06-06T09:47:43.451Z</time>
      </trkpt>
      <trkpt lat="45.74379" lon="5.41536">
        <ele>242</ele>
        <time>2021-06-06T09:47:44.450Z</time>
      </trkpt>
      <trkpt lat="45.74374" lon="5.4153">
        <ele>242</ele>
        <time>2021-06-06T09:47:45.451Z</time>
      </trkpt>
      <trkpt lat="45.74369" lon="5.41524">
        <ele>242</ele>
        <time>2021-06-06T09:47:46.450Z</time>
      </trkpt>
      <trkpt lat="45.74364" lon="5.41517">
        <ele>242</ele>
        <time>2021-06-06T09:47:47.451Z</time>
      </trkpt>
      <trkpt lat="45.7436" lon="5.41511">
        <ele>242</ele>
        <time>2021-06-06T09:47:48.451Z</time>
      </trkpt>
      <trkpt lat="45.74355" lon="5.41504">
        <ele>243</ele>
        <time>2021-06-06T09:47:49.451Z</time>
      </trkpt>
      <trkpt lat="45.74351" lon="5.41497">
        <ele>243</ele>
        <time>2021-06-06T09:47:50.450Z</time>
      </trkpt>
      <trkpt lat="45.74346" lon="5.4149">
        <ele>243</ele>
        <time>2021-06-06T09:47:51.451Z</time>
      </trkpt>
      <trkpt lat="45.74341" lon="5.41483">
        <ele>243</ele>
        <time>2021-06-06T09:47:52.451Z</time>
      </trkpt>
      <trkpt lat="45.74337" lon="5.41475">
        <ele>243</ele>
        <time>2021-06-06T09:47:53.451Z</time>
      </trkpt>
      <trkpt lat="45.74333" lon="5.41467">
        <ele>244</ele>
        <time>2021-06-06T09:47:54.451Z</time>
      </trkpt>
      <trkpt lat="45.7433" lon="5.41459">
        <ele>244</ele>
        <time>2021-06-06T09:47:55.451Z</time>
      </trkpt>
      <trkpt lat="45.74326" lon="5.41451">
        <ele>244</ele>
        <time>2021-06-06T09:47:56.451Z</time>
      </trkpt>
      <trkpt lat="45.74322" lon="5.41443">
        <ele>244</ele>
        <time>2021-06-06T09:47:57.450Z</time>
      </trkpt>
      <trkpt lat="45.74319" lon="5.41434">
        <ele>244</ele>
        <time>2021-06-06T09:47:58.451Z</time>
      </trkpt>
      <trkpt lat="45.74315" lon="5.41426">
        <ele>244</ele>
        <time>2021-06-06T09:47:59.451Z</time>
      </trkpt>
      <trkpt lat="45.74311" lon="5.41418">
        <ele>245</ele>
        <time>2021-06-06T09:48:00.451Z</time>
      </trkpt>
      <trkpt lat="45.74308" lon="5.41408">
        <ele>245</ele>
        <time>2021-06-06T09:48:01.451Z</time>
      </trkpt>
      <trkpt lat="45.74304" lon="5.41399">
        <ele>246</ele>
        <time>2021-06-06T09:48:02.451Z</time>
      </trkpt>
      <trkpt lat="45.74301" lon="5.4139">
        <ele>246</ele>
        <time>2021-06-06T09:48:03.451Z</time>
      </trkpt>
      <trkpt lat="45.74297" lon="5.41381">
        <ele>246</ele>
        <time>2021-06-06T09:48:04.451Z</time>
      </trkpt>
      <trkpt lat="45.74293" lon="5.41373">
        <ele>246</ele>
        <time>2021-06-06T09:48:05.450Z</time>
      </trkpt>
      <trkpt lat="45.74289" lon="5.41364">
        <ele>246</ele>
        <time>2021-06-06T09:48:06.451Z</time>
      </trkpt>
      <trkpt lat="45.74286" lon="5.41356">
        <ele>246</ele>
        <time>2021-06-06T09:48:07.451Z</time>
      </trkpt>
      <trkpt lat="45.74282" lon="5.41348">
        <ele>247</ele>
        <time>2021-06-06T09:48:08.451Z</time>
      </trkpt>
      <trkpt lat="45.74278" lon="5.4134">
        <ele>247</ele>
        <time>2021-06-06T09:48:09.451Z</time>
      </trkpt>
      <trkpt lat="45.74274" lon="5.41332">
        <ele>247</ele>
        <time>2021-06-06T09:48:10.451Z</time>
      </trkpt>
      <trkpt lat="45.74269" lon="5.41326">
        <ele>246</ele>
        <time>2021-06-06T09:48:11.451Z</time>
      </trkpt>
      <trkpt lat="45.74264" lon="5.4132">
        <ele>246</ele>
        <time>2021-06-06T09:48:12.451Z</time>
      </trkpt>
      <trkpt lat="45.74258" lon="5.41315">
        <ele>246</ele>
        <time>2021-06-06T09:48:13.451Z</time>
      </trkpt>
      <trkpt lat="45.74252" lon="5.41311">
        <ele>246</ele>
        <time>2021-06-06T09:48:14.450Z</time>
      </trkpt>
      <trkpt lat="45.74247" lon="5.41307">
        <ele>246</ele>
        <time>2021-06-06T09:48:15.451Z</time>
      </trkpt>
      <trkpt lat="45.7424" lon="5.41306">
        <ele>246</ele>
        <time>2021-06-06T09:48:16.451Z</time>
      </trkpt>
      <trkpt lat="45.74234" lon="5.41305">
        <ele>247</ele>
        <time>2021-06-06T09:48:17.451Z</time>
      </trkpt>
      <trkpt lat="45.74227" lon="5.41305">
        <ele>247</ele>
        <time>2021-06-06T09:48:18.451Z</time>
      </trkpt>
      <trkpt lat="45.7422" lon="5.41305">
        <ele>247</ele>
        <time>2021-06-06T09:48:19.451Z</time>
      </trkpt>
      <trkpt lat="45.74213" lon="5.41305">
        <ele>247</ele>
        <time>2021-06-06T09:48:20.451Z</time>
      </trkpt>
      <trkpt lat="45.74206" lon="5.41304">
        <ele>246</ele>
        <time>2021-06-06T09:48:21.451Z</time>
      </trkpt>
      <trkpt lat="45.74199" lon="5.41302">
        <ele>246</ele>
        <time>2021-06-06T09:48:22.451Z</time>
      </trkpt>
      <trkpt lat="45.74193" lon="5.413">
        <ele>246</ele>
        <time>2021-06-06T09:48:23.451Z</time>
      </trkpt>
      <trkpt lat="45.74186" lon="5.41298">
        <ele>246</ele>
        <time>2021-06-06T09:48:24.450Z</time>
      </trkpt>
      <trkpt lat="45.7418" lon="5.41295">
        <ele>246</ele>
        <time>2021-06-06T09:48:25.451Z</time>
      </trkpt>
      <trkpt lat="45.74173" lon="5.41292">
        <ele>247</ele>
        <time>2021-06-06T09:48:26.451Z</time>
      </trkpt>
      <trkpt lat="45.74166" lon="5.4129">
        <ele>247</ele>
        <time>2021-06-06T09:48:27.451Z</time>
      </trkpt>
      <trkpt lat="45.74159" lon="5.41288">
        <ele>246</ele>
        <time>2021-06-06T09:48:28.451Z</time>
      </trkpt>
      <trkpt lat="45.74152" lon="5.41285">
        <ele>246</ele>
        <time>2021-06-06T09:48:29.451Z</time>
      </trkpt>
      <trkpt lat="45.74145" lon="5.41284">
        <ele>246</ele>
        <time>2021-06-06T09:48:30.451Z</time>
      </trkpt>
      <trkpt lat="45.74138" lon="5.41282">
        <ele>246</ele>
        <time>2021-06-06T09:48:31.451Z</time>
      </trkpt>
      <trkpt lat="45.74132" lon="5.41281">
        <ele>246</ele>
        <time>2021-06-06T09:48:32.451Z</time>
      </trkpt>
      <trkpt lat="45.74125" lon="5.4128">
        <ele>245</ele>
        <time>2021-06-06T09:48:33.451Z</time>
      </trkpt>
      <trkpt lat="45.74119" lon="5.41279">
        <ele>246</ele>
        <time>2021-06-06T09:48:34.451Z</time>
      </trkpt>
      <trkpt lat="45.74112" lon="5.41278">
        <ele>246</ele>
        <time>2021-06-06T09:48:35.451Z</time>
      </trkpt>
      <trkpt lat="45.74105" lon="5.41277">
        <ele>246</ele>
        <time>2021-06-06T09:48:36.450Z</time>
      </trkpt>
      <trkpt lat="45.74098" lon="5.41276">
        <ele>246</ele>
        <time>2021-06-06T09:48:37.451Z</time>
      </trkpt>
      <trkpt lat="45.74092" lon="5.41274">
        <ele>246</ele>
        <time>2021-06-06T09:48:38.451Z</time>
      </trkpt>
      <trkpt lat="45.74085" lon="5.41272">
        <ele>247</ele>
        <time>2021-06-06T09:48:39.451Z</time>
      </trkpt>
      <trkpt lat="45.74078" lon="5.4127">
        <ele>247</ele>
        <time>2021-06-06T09:48:40.451Z</time>
      </trkpt>
      <trkpt lat="45.74071" lon="5.41267">
        <ele>247</ele>
        <time>2021-06-06T09:48:41.451Z</time>
      </trkpt>
      <trkpt lat="45.74064" lon="5.41263">
        <ele>247</ele>
        <time>2021-06-06T09:48:42.451Z</time>
      </trkpt>
      <trkpt lat="45.74056" lon="5.4126">
        <ele>246</ele>
        <time>2021-06-06T09:48:43.451Z</time>
      </trkpt>
      <trkpt lat="45.74049" lon="5.41257">
        <ele>246</ele>
        <time>2021-06-06T09:48:44.451Z</time>
      </trkpt>
      <trkpt lat="45.74041" lon="5.41254">
        <ele>246</ele>
        <time>2021-06-06T09:48:45.451Z</time>
      </trkpt>
      <trkpt lat="45.74034" lon="5.41251">
        <ele>246</ele>
        <time>2021-06-06T09:48:46.451Z</time>
      </trkpt>
      <trkpt lat="45.74026" lon="5.41248">
        <ele>246</ele>
        <time>2021-06-06T09:48:47.451Z</time>
      </trkpt>
      <trkpt lat="45.74018" lon="5.41245">
        <ele>246</ele>
        <time>2021-06-06T09:48:48.451Z</time>
      </trkpt>
      <trkpt lat="45.7401" lon="5.41243">
        <ele>246</ele>
        <time>2021-06-06T09:48:49.451Z</time>
      </trkpt>
      <trkpt lat="45.74002" lon="5.41241">
        <ele>246</ele>
        <time>2021-06-06T09:48:50.451Z</time>
      </trkpt>
      <trkpt lat="45.73994" lon="5.41238">
        <ele>246</ele>
        <time>2021-06-06T09:48:51.451Z</time>
      </trkpt>
      <trkpt lat="45.73986" lon="5.41235">
        <ele>246</ele>
        <time>2021-06-06T09:48:52.450Z</time>
      </trkpt>
      <trkpt lat="45.73978" lon="5.41232">
        <ele>246</ele>
        <time>2021-06-06T09:48:53.450Z</time>
      </trkpt>
      <trkpt lat="45.7397" lon="5.41228">
        <ele>246</ele>
        <time>2021-06-06T09:48:54.451Z</time>
      </trkpt>
      <trkpt lat="45.73962" lon="5.41225">
        <ele>246</ele>
        <time>2021-06-06T09:48:55.451Z</time>
      </trkpt>
      <trkpt lat="45.73954" lon="5.41221">
        <ele>246</ele>
        <time>2021-06-06T09:48:56.450Z</time>
      </trkpt>
      <trkpt lat="45.73947" lon="5.41217">
        <ele>246</ele>
        <time>2021-06-06T09:48:57.451Z</time>
      </trkpt>
      <trkpt lat="45.73939" lon="5.41213">
        <ele>246</ele>
        <time>2021-06-06T09:48:58.451Z</time>
      </trkpt>
      <trkpt lat="45.73932" lon="5.41209">
        <ele>246</ele>
        <time>2021-06-06T09:48:59.450Z</time>
      </trkpt>
      <trkpt lat="45.73925" lon="5.41206">
        <ele>245</ele>
        <time>2021-06-06T09:49:00.451Z</time>
      </trkpt>
      <trkpt lat="45.73917" lon="5.41202">
        <ele>245</ele>
        <time>2021-06-06T09:49:01.450Z</time>
      </trkpt>
      <trkpt lat="45.7391" lon="5.41199">
        <ele>245</ele>
        <time>2021-06-06T09:49:02.451Z</time>
      </trkpt>
      <trkpt lat="45.73903" lon="5.41195">
        <ele>245</ele>
        <time>2021-06-06T09:49:03.451Z</time>
      </trkpt>
      <trkpt lat="45.73895" lon="5.41191">
        <ele>245</ele>
        <time>2021-06-06T09:49:04.450Z</time>
      </trkpt>
      <trkpt lat="45.73887" lon="5.41187">
        <ele>245</ele>
        <time>2021-06-06T09:49:05.451Z</time>
      </trkpt>
      <trkpt lat="45.7388" lon="5.41184">
        <ele>245</ele>
        <time>2021-06-06T09:49:06.451Z</time>
      </trkpt>
      <trkpt lat="45.73873" lon="5.41181">
        <ele>245</ele>
        <time>2021-06-06T09:49:07.451Z</time>
      </trkpt>
      <trkpt lat="45.73865" lon="5.41179">
        <ele>245</ele>
        <time>2021-06-06T09:49:08.450Z</time>
      </trkpt>
      <trkpt lat="45.73858" lon="5.41179">
        <ele>245</ele>
        <time>2021-06-06T09:49:09.451Z</time>
      </trkpt>
      <trkpt lat="45.7385" lon="5.4118">
        <ele>245</ele>
        <time>2021-06-06T09:49:10.451Z</time>
      </trkpt>
      <trkpt lat="45.73842" lon="5.41182">
        <ele>245</ele>
        <time>2021-06-06T09:49:11.451Z</time>
      </trkpt>
      <trkpt lat="45.73835" lon="5.41184">
        <ele>245</ele>
        <time>2021-06-06T09:49:12.451Z</time>
      </trkpt>
      <trkpt lat="45.73827" lon="5.41187">
        <ele>245</ele>
        <time>2021-06-06T09:49:13.451Z</time>
      </trkpt>
      <trkpt lat="45.73819" lon="5.4119">
        <ele>246</ele>
        <time>2021-06-06T09:49:14.451Z</time>
      </trkpt>
      <trkpt lat="45.73811" lon="5.41193">
        <ele>246</ele>
        <time>2021-06-06T09:49:15.451Z</time>
      </trkpt>
      <trkpt lat="45.73803" lon="5.41196">
        <ele>246</ele>
        <time>2021-06-06T09:49:16.451Z</time>
      </trkpt>
      <trkpt lat="45.73795" lon="5.41199">
        <ele>246</ele>
        <time>2021-06-06T09:49:17.451Z</time>
      </trkpt>
      <trkpt lat="45.73787" lon="5.41202">
        <ele>246</ele>
        <time>2021-06-06T09:49:18.451Z</time>
      </trkpt>
      <trkpt lat="45.73779" lon="5.41204">
        <ele>246</ele>
        <time>2021-06-06T09:49:19.451Z</time>
      </trkpt>
      <trkpt lat="45.73771" lon="5.41206">
        <ele>247</ele>
        <time>2021-06-06T09:49:20.451Z</time>
      </trkpt>
      <trkpt lat="45.73763" lon="5.41208">
        <ele>247</ele>
        <time>2021-06-06T09:49:21.451Z</time>
      </trkpt>
      <trkpt lat="45.73755" lon="5.4121">
        <ele>247</ele>
        <time>2021-06-06T09:49:22.451Z</time>
      </trkpt>
      <trkpt lat="45.73747" lon="5.41212">
        <ele>246</ele>
        <time>2021-06-06T09:49:23.451Z</time>
      </trkpt>
      <trkpt lat="45.73739" lon="5.41214">
        <ele>246</ele>
        <time>2021-06-06T09:49:24.451Z</time>
      </trkpt>
      <trkpt lat="45.73731" lon="5.41216">
        <ele>246</ele>
        <time>2021-06-06T09:49:25.451Z</time>
      </trkpt>
      <trkpt lat="45.73723" lon="5.41219">
        <ele>246</ele>
        <time>2021-06-06T09:49:26.451Z</time>
      </trkpt>
      <trkpt lat="45.73715" lon="5.41223">
        <ele>246</ele>
        <time>2021-06-06T09:49:27.451Z</time>
      </trkpt>
      <trkpt lat="45.73707" lon="5.41227">
        <ele>246</ele>
        <time>2021-06-06T09:49:28.450Z</time>
      </trkpt>
      <trkpt lat="45.73698" lon="5.41231">
        <ele>247</ele>
        <time>2021-06-06T09:49:29.451Z</time>
      </trkpt>
      <trkpt lat="45.7369" lon="5.41234">
        <ele>247</ele>
        <time>2021-06-06T09:49:30.451Z</time>
      </trkpt>
      <trkpt lat="45.73682" lon="5.41237">
        <ele>247</ele>
        <time>2021-06-06T09:49:31.451Z</time>
      </trkpt>
      <trkpt lat="45.73674" lon="5.4124">
        <ele>247</ele>
        <time>2021-06-06T09:49:32.450Z</time>
      </trkpt>
      <trkpt lat="45.73667" lon="5.41243">
        <ele>247</ele>
        <time>2021-06-06T09:49:33.451Z</time>
      </trkpt>
      <trkpt lat="45.73659" lon="5.41246">
        <ele>246</ele>
        <time>2021-06-06T09:49:34.451Z</time>
      </trkpt>
      <trkpt lat="45.73651" lon="5.4125">
        <ele>246</ele>
        <time>2021-06-06T09:49:35.451Z</time>
      </trkpt>
      <trkpt lat="45.73644" lon="5.41255">
        <ele>246</ele>
        <time>2021-06-06T09:49:36.450Z</time>
      </trkpt>
      <trkpt lat="45.73636" lon="5.4126">
        <ele>246</ele>
        <time>2021-06-06T09:49:37.451Z</time>
      </trkpt>
      <trkpt lat="45.73629" lon="5.41265">
        <ele>245</ele>
        <time>2021-06-06T09:49:38.450Z</time>
      </trkpt>
      <trkpt lat="45.73622" lon="5.41271">
        <ele>245</ele>
        <time>2021-06-06T09:49:39.451Z</time>
      </trkpt>
      <trkpt lat="45.73615" lon="5.41276">
        <ele>245</ele>
        <time>2021-06-06T09:49:40.451Z</time>
      </trkpt>
      <trkpt lat="45.73607" lon="5.4128">
        <ele>245</ele>
        <time>2021-06-06T09:49:41.451Z</time>
      </trkpt>
      <trkpt lat="45.736" lon="5.41285">
        <ele>244</ele>
        <time>2021-06-06T09:49:42.450Z</time>
      </trkpt>
      <trkpt lat="45.73592" lon="5.41288">
        <ele>244</ele>
        <time>2021-06-06T09:49:43.450Z</time>
      </trkpt>
      <trkpt lat="45.73584" lon="5.41292">
        <ele>244</ele>
        <time>2021-06-06T09:49:44.451Z</time>
      </trkpt>
      <trkpt lat="45.73577" lon="5.41295">
        <ele>244</ele>
        <time>2021-06-06T09:49:45.451Z</time>
      </trkpt>
      <trkpt lat="45.73569" lon="5.41298">
        <ele>244</ele>
        <time>2021-06-06T09:49:46.451Z</time>
      </trkpt>
      <trkpt lat="45.73562" lon="5.41301">
        <ele>244</ele>
        <time>2021-06-06T09:49:47.451Z</time>
      </trkpt>
      <trkpt lat="45.73554" lon="5.41304">
        <ele>244</ele>
        <time>2021-06-06T09:49:48.451Z</time>
      </trkpt>
      <trkpt lat="45.73546" lon="5.41307">
        <ele>244</ele>
        <time>2021-06-06T09:49:49.451Z</time>
      </trkpt>
      <trkpt lat="45.73538" lon="5.4131">
        <ele>244</ele>
        <time>2021-06-06T09:49:50.451Z</time>
      </trkpt>
      <trkpt lat="45.73531" lon="5.41313">
        <ele>244</ele>
        <time>2021-06-06T09:49:51.451Z</time>
      </trkpt>
      <trkpt lat="45.73523" lon="5.41316">
        <ele>244</ele>
        <time>2021-06-06T09:49:52.450Z</time>
      </trkpt>
      <trkpt lat="45.73516" lon="5.41319">
        <ele>244</ele>
        <time>2021-06-06T09:49:53.450Z</time>
      </trkpt>
      <trkpt lat="45.73509" lon="5.41322">
        <ele>243</ele>
        <time>2021-06-06T09:49:54.450Z</time>
      </trkpt>
      <trkpt lat="45.73502" lon="5.41325">
        <ele>243</ele>
        <time>2021-06-06T09:49:55.451Z</time>
      </trkpt>
      <trkpt lat="45.73496" lon="5.41327">
        <ele>243</ele>
        <time>2021-06-06T09:49:56.451Z</time>
      </trkpt>
      <trkpt lat="45.73489" lon="5.4133">
        <ele>244</ele>
        <time>2021-06-06T09:49:57.451Z</time>
      </trkpt>
      <trkpt lat="45.73482" lon="5.41332">
        <ele>245</ele>
        <time>2021-06-06T09:49:58.450Z</time>
      </trkpt>
      <trkpt lat="45.73475" lon="5.41333">
        <ele>246</ele>
        <time>2021-06-06T09:49:59.451Z</time>
      </trkpt>
      <trkpt lat="45.73469" lon="5.41335">
        <ele>246</ele>
        <time>2021-06-06T09:50:00.451Z</time>
      </trkpt>
      <trkpt lat="45.73462" lon="5.41336">
        <ele>246</ele>
        <time>2021-06-06T09:50:01.451Z</time>
      </trkpt>
      <trkpt lat="45.73455" lon="5.41337">
        <ele>247</ele>
        <time>2021-06-06T09:50:02.450Z</time>
      </trkpt>
      <trkpt lat="45.73448" lon="5.41337">
        <ele>247</ele>
        <time>2021-06-06T09:50:03.451Z</time>
      </trkpt>
      <trkpt lat="45.73441" lon="5.41338">
        <ele>247</ele>
        <time>2021-06-06T09:50:04.450Z</time>
      </trkpt>
      <trkpt lat="45.73435" lon="5.41338">
        <ele>248</ele>
        <time>2021-06-06T09:50:05.451Z</time>
      </trkpt>
      <trkpt lat="45.73428" lon="5.41338">
        <ele>249</ele>
        <time>2021-06-06T09:50:06.451Z</time>
      </trkpt>
      <trkpt lat="45.73422" lon="5.41338">
        <ele>249</ele>
        <time>2021-06-06T09:50:07.451Z</time>
      </trkpt>
      <trkpt lat="45.73415" lon="5.41338">
        <ele>249</ele>
        <time>2021-06-06T09:50:08.450Z</time>
      </trkpt>
      <trkpt lat="45.73408" lon="5.41338">
        <ele>249</ele>
        <time>2021-06-06T09:50:09.450Z</time>
      </trkpt>
      <trkpt lat="45.73402" lon="5.41337">
        <ele>249</ele>
        <time>2021-06-06T09:50:10.450Z</time>
      </trkpt>
      <trkpt lat="45.73395" lon="5.41337">
        <ele>249</ele>
        <time>2021-06-06T09:50:11.450Z</time>
      </trkpt>
      <trkpt lat="45.73388" lon="5.41336">
        <ele>249</ele>
        <time>2021-06-06T09:50:12.451Z</time>
      </trkpt>
      <trkpt lat="45.73382" lon="5.41336">
        <ele>249</ele>
        <time>2021-06-06T09:50:13.451Z</time>
      </trkpt>
      <trkpt lat="45.73375" lon="5.41336">
        <ele>248</ele>
        <time>2021-06-06T09:50:14.451Z</time>
      </trkpt>
      <trkpt lat="45.73368" lon="5.41335">
        <ele>248</ele>
        <time>2021-06-06T09:50:15.450Z</time>
      </trkpt>
      <trkpt lat="45.73361" lon="5.41335">
        <ele>248</ele>
        <time>2021-06-06T09:50:16.451Z</time>
      </trkpt>
      <trkpt lat="45.73354" lon="5.41335">
        <ele>248</ele>
        <time>2021-06-06T09:50:17.451Z</time>
      </trkpt>
      <trkpt lat="45.73347" lon="5.41334">
        <ele>248</ele>
        <time>2021-06-06T09:50:18.450Z</time>
      </trkpt>
      <trkpt lat="45.7334" lon="5.41333">
        <ele>248</ele>
        <time>2021-06-06T09:50:19.451Z</time>
      </trkpt>
      <trkpt lat="45.73332" lon="5.41332">
        <ele>248</ele>
        <time>2021-06-06T09:50:20.451Z</time>
      </trkpt>
      <trkpt lat="45.73325" lon="5.41331">
        <ele>247</ele>
        <time>2021-06-06T09:50:21.450Z</time>
      </trkpt>
      <trkpt lat="45.73318" lon="5.41331">
        <ele>247</ele>
        <time>2021-06-06T09:50:22.450Z</time>
      </trkpt>
      <trkpt lat="45.7331" lon="5.4133">
        <ele>247</ele>
        <time>2021-06-06T09:50:23.451Z</time>
      </trkpt>
      <trkpt lat="45.73302" lon="5.4133">
        <ele>247</ele>
        <time>2021-06-06T09:50:24.451Z</time>
      </trkpt>
      <trkpt lat="45.73294" lon="5.41331">
        <ele>247</ele>
        <time>2021-06-06T09:50:25.451Z</time>
      </trkpt>
      <trkpt lat="45.73287" lon="5.41331">
        <ele>247</ele>
        <time>2021-06-06T09:50:26.451Z</time>
      </trkpt>
      <trkpt lat="45.73279" lon="5.41331">
        <ele>247</ele>
        <time>2021-06-06T09:50:27.450Z</time>
      </trkpt>
      <trkpt lat="45.73272" lon="5.4133">
        <ele>247</ele>
        <time>2021-06-06T09:50:28.451Z</time>
      </trkpt>
      <trkpt lat="45.73264" lon="5.41328">
        <ele>247</ele>
        <time>2021-06-06T09:50:29.451Z</time>
      </trkpt>
      <trkpt lat="45.73256" lon="5.41326">
        <ele>247</ele>
        <time>2021-06-06T09:50:30.451Z</time>
      </trkpt>
      <trkpt lat="45.73249" lon="5.41323">
        <ele>247</ele>
        <time>2021-06-06T09:50:31.450Z</time>
      </trkpt>
      <trkpt lat="45.73241" lon="5.4132">
        <ele>247</ele>
        <time>2021-06-06T09:50:32.451Z</time>
      </trkpt>
      <trkpt lat="45.73234" lon="5.41317">
        <ele>247</ele>
        <time>2021-06-06T09:50:33.451Z</time>
      </trkpt>
      <trkpt lat="45.73227" lon="5.41314">
        <ele>247</ele>
        <time>2021-06-06T09:50:34.451Z</time>
      </trkpt>
      <trkpt lat="45.73219" lon="5.41311">
        <ele>247</ele>
        <time>2021-06-06T09:50:35.451Z</time>
      </trkpt>
      <trkpt lat="45.73212" lon="5.41307">
        <ele>247</ele>
        <time>2021-06-06T09:50:36.451Z</time>
      </trkpt>
      <trkpt lat="45.73205" lon="5.41304">
        <ele>247</ele>
        <time>2021-06-06T09:50:37.451Z</time>
      </trkpt>
      <trkpt lat="45.73198" lon="5.413">
        <ele>247</ele>
        <time>2021-06-06T09:50:38.451Z</time>
      </trkpt>
      <trkpt lat="45.73192" lon="5.41297">
        <ele>247</ele>
        <time>2021-06-06T09:50:39.451Z</time>
      </trkpt>
      <trkpt lat="45.73185" lon="5.41293">
        <ele>247</ele>
        <time>2021-06-06T09:50:40.451Z</time>
      </trkpt>
      <trkpt lat="45.73178" lon="5.4129">
        <ele>248</ele>
        <time>2021-06-06T09:50:41.451Z</time>
      </trkpt>
      <trkpt lat="45.73172" lon="5.41286">
        <ele>248</ele>
        <time>2021-06-06T09:50:42.451Z</time>
      </trkpt>
      <trkpt lat="45.73165" lon="5.41283">
        <ele>248</ele>
        <time>2021-06-06T09:50:43.451Z</time>
      </trkpt>
      <trkpt lat="45.73158" lon="5.4128">
        <ele>248</ele>
        <time>2021-06-06T09:50:44.451Z</time>
      </trkpt>
      <trkpt lat="45.73151" lon="5.41276">
        <ele>249</ele>
        <time>2021-06-06T09:50:45.451Z</time>
      </trkpt>
      <trkpt lat="45.73144" lon="5.41273">
        <ele>249</ele>
        <time>2021-06-06T09:50:46.451Z</time>
      </trkpt>
      <trkpt lat="45.73137" lon="5.4127">
        <ele>249</ele>
        <time>2021-06-06T09:50:47.451Z</time>
      </trkpt>
      <trkpt lat="45.7313" lon="5.41268">
        <ele>249</ele>
        <time>2021-06-06T09:50:48.450Z</time>
      </trkpt>
      <trkpt lat="45.73123" lon="5.41265">
        <ele>249</ele>
        <time>2021-06-06T09:50:49.450Z</time>
      </trkpt>
      <trkpt lat="45.73116" lon="5.41262">
        <ele>249</ele>
        <time>2021-06-06T09:50:50.451Z</time>
      </trkpt>
      <trkpt lat="45.7311" lon="5.4126">
        <ele>249</ele>
        <time>2021-06-06T09:50:51.451Z</time>
      </trkpt>
      <trkpt lat="45.73103" lon="5.41257">
        <ele>250</ele>
        <time>2021-06-06T09:50:52.451Z</time>
      </trkpt>
      <trkpt lat="45.73096" lon="5.41254">
        <ele>250</ele>
        <time>2021-06-06T09:50:53.451Z</time>
      </trkpt>
      <trkpt lat="45.7309" lon="5.41251">
        <ele>249</ele>
        <time>2021-06-06T09:50:54.450Z</time>
      </trkpt>
      <trkpt lat="45.73084" lon="5.41248">
        <ele>249</ele>
        <time>2021-06-06T09:50:55.451Z</time>
      </trkpt>
      <trkpt lat="45.73077" lon="5.41245">
        <ele>249</ele>
        <time>2021-06-06T09:50:56.451Z</time>
      </trkpt>
      <trkpt lat="45.73071" lon="5.41242">
        <ele>249</ele>
        <time>2021-06-06T09:50:57.450Z</time>
      </trkpt>
      <trkpt lat="45.73065" lon="5.4124">
        <ele>250</ele>
        <time>2021-06-06T09:50:58.451Z</time>
      </trkpt>
      <trkpt lat="45.73058" lon="5.41237">
        <ele>250</ele>
        <time>2021-06-06T09:50:59.451Z</time>
      </trkpt>
      <trkpt lat="45.73052" lon="5.41236">
        <ele>250</ele>
        <time>2021-06-06T09:51:00.450Z</time>
      </trkpt>
      <trkpt lat="45.73045" lon="5.41235">
        <ele>249</ele>
        <time>2021-06-06T09:51:01.451Z</time>
      </trkpt>
      <trkpt lat="45.73039" lon="5.41234">
        <ele>249</ele>
        <time>2021-06-06T09:51:02.450Z</time>
      </trkpt>
      <trkpt lat="45.73032" lon="5.41233">
        <ele>249</ele>
        <time>2021-06-06T09:51:03.450Z</time>
      </trkpt>
      <trkpt lat="45.73026" lon="5.41233">
        <ele>250</ele>
        <time>2021-06-06T09:51:04.451Z</time>
      </trkpt>
      <trkpt lat="45.7302" lon="5.41231">
        <ele>250</ele>
        <time>2021-06-06T09:51:05.450Z</time>
      </trkpt>
      <trkpt lat="45.73013" lon="5.4123">
        <ele>250</ele>
        <time>2021-06-06T09:51:06.451Z</time>
      </trkpt>
      <trkpt lat="45.73007" lon="5.41228">
        <ele>250</ele>
        <time>2021-06-06T09:51:07.451Z</time>
      </trkpt>
      <trkpt lat="45.73" lon="5.41226">
        <ele>250</ele>
        <time>2021-06-06T09:51:08.451Z</time>
      </trkpt>
      <trkpt lat="45.72994" lon="5.41224">
        <ele>249</ele>
        <time>2021-06-06T09:51:09.451Z</time>
      </trkpt>
      <trkpt lat="45.72988" lon="5.41221">
        <ele>249</ele>
        <time>2021-06-06T09:51:10.450Z</time>
      </trkpt>
      <trkpt lat="45.72982" lon="5.41218">
        <ele>250</ele>
        <time>2021-06-06T09:51:11.451Z</time>
      </trkpt>
      <trkpt lat="45.72976" lon="5.41215">
        <ele>250</ele>
        <time>2021-06-06T09:51:12.450Z</time>
      </trkpt>
      <trkpt lat="45.72971" lon="5.41212">
        <ele>250</ele>
        <time>2021-06-06T09:51:13.450Z</time>
      </trkpt>
      <trkpt lat="45.72965" lon="5.41209">
        <ele>250</ele>
        <time>2021-06-06T09:51:14.451Z</time>
      </trkpt>
      <trkpt lat="45.7296" lon="5.41205">
        <ele>250</ele>
        <time>2021-06-06T09:51:15.451Z</time>
      </trkpt>
      <trkpt lat="45.72954" lon="5.41201">
        <ele>250</ele>
        <time>2021-06-06T09:51:16.450Z</time>
      </trkpt>
      <trkpt lat="45.7295" lon="5.41196">
        <ele>251</ele>
        <time>2021-06-06T09:51:17.451Z</time>
      </trkpt>
      <trkpt lat="45.72946" lon="5.41192">
        <ele>251</ele>
        <time>2021-06-06T09:51:18.450Z</time>
      </trkpt>
      <trkpt lat="45.72941" lon="5.41186">
        <ele>251</ele>
        <time>2021-06-06T09:51:19.451Z</time>
      </trkpt>
      <trkpt lat="45.72937" lon="5.4118">
        <ele>251</ele>
        <time>2021-06-06T09:51:20.451Z</time>
      </trkpt>
      <trkpt lat="45.72934" lon="5.41174">
        <ele>251</ele>
        <time>2021-06-06T09:51:21.451Z</time>
      </trkpt>
      <trkpt lat="45.7293" lon="5.41168">
        <ele>251</ele>
        <time>2021-06-06T09:51:22.450Z</time>
      </trkpt>
      <trkpt lat="45.72927" lon="5.41161">
        <ele>251</ele>
        <time>2021-06-06T09:51:23.450Z</time>
      </trkpt>
      <trkpt lat="45.72923" lon="5.41154">
        <ele>252</ele>
        <time>2021-06-06T09:51:24.451Z</time>
      </trkpt>
      <trkpt lat="45.72919" lon="5.41147">
        <ele>252</ele>
        <time>2021-06-06T09:51:25.451Z</time>
      </trkpt>
      <trkpt lat="45.72916" lon="5.41139">
        <ele>252</ele>
        <time>2021-06-06T09:51:26.451Z</time>
      </trkpt>
      <trkpt lat="45.72913" lon="5.41132">
        <ele>253</ele>
        <time>2021-06-06T09:51:27.450Z</time>
      </trkpt>
      <trkpt lat="45.7291" lon="5.41125">
        <ele>252</ele>
        <time>2021-06-06T09:51:28.450Z</time>
      </trkpt>
      <trkpt lat="45.72908" lon="5.41118">
        <ele>253</ele>
        <time>2021-06-06T09:51:29.451Z</time>
      </trkpt>
      <trkpt lat="45.72905" lon="5.41112">
        <ele>253</ele>
        <time>2021-06-06T09:51:30.450Z</time>
      </trkpt>
      <trkpt lat="45.72903" lon="5.41106">
        <ele>253</ele>
        <time>2021-06-06T09:51:31.451Z</time>
      </trkpt>
      <trkpt lat="45.72901" lon="5.411">
        <ele>253</ele>
        <time>2021-06-06T09:51:32.450Z</time>
      </trkpt>
      <trkpt lat="45.729" lon="5.41094">
        <ele>253</ele>
        <time>2021-06-06T09:51:33.450Z</time>
      </trkpt>
      <trkpt lat="45.72898" lon="5.41088">
        <ele>253</ele>
        <time>2021-06-06T09:51:34.451Z</time>
      </trkpt>
      <trkpt lat="45.72897" lon="5.41082">
        <ele>252</ele>
        <time>2021-06-06T09:51:35.450Z</time>
      </trkpt>
      <trkpt lat="45.72896" lon="5.41076">
        <ele>252</ele>
        <time>2021-06-06T09:51:36.451Z</time>
      </trkpt>
      <trkpt lat="45.72895" lon="5.4107">
        <ele>252</ele>
        <time>2021-06-06T09:51:37.450Z</time>
      </trkpt>
      <trkpt lat="45.72895" lon="5.41064">
        <ele>252</ele>
        <time>2021-06-06T09:51:38.450Z</time>
      </trkpt>
      <trkpt lat="45.72894" lon="5.41058">
        <ele>252</ele>
        <time>2021-06-06T09:51:39.451Z</time>
      </trkpt>
      <trkpt lat="45.72894" lon="5.41053">
        <ele>252</ele>
        <time>2021-06-06T09:51:40.451Z</time>
      </trkpt>
      <trkpt lat="45.72893" lon="5.41047">
        <ele>252</ele>
        <time>2021-06-06T09:51:41.450Z</time>
      </trkpt>
      <trkpt lat="45.72893" lon="5.41041">
        <ele>252</ele>
        <time>2021-06-06T09:51:42.450Z</time>
      </trkpt>
      <trkpt lat="45.72892" lon="5.41036">
        <ele>252</ele>
        <time>2021-06-06T09:51:43.450Z</time>
      </trkpt>
      <trkpt lat="45.72891" lon="5.4103">
        <ele>253</ele>
        <time>2021-06-06T09:51:44.451Z</time>
      </trkpt>
      <trkpt lat="45.72891" lon="5.41024">
        <ele>253</ele>
        <time>2021-06-06T09:51:45.451Z</time>
      </trkpt>
      <trkpt lat="45.72891" lon="5.41018">
        <ele>254</ele>
        <time>2021-06-06T09:51:46.450Z</time>
      </trkpt>
      <trkpt lat="45.72891" lon="5.41012">
        <ele>254</ele>
        <time>2021-06-06T09:51:47.450Z</time>
      </trkpt>
      <trkpt lat="45.7289" lon="5.41006">
        <ele>254</ele>
        <time>2021-06-06T09:51:48.450Z</time>
      </trkpt>
      <trkpt lat="45.72889" lon="5.40999">
        <ele>255</ele>
        <time>2021-06-06T09:51:49.450Z</time>
      </trkpt>
      <trkpt lat="45.72888" lon="5.40993">
        <ele>255</ele>
        <time>2021-06-06T09:51:50.451Z</time>
      </trkpt>
      <trkpt lat="45.72887" lon="5.40986">
        <ele>255</ele>
        <time>2021-06-06T09:51:51.450Z</time>
      </trkpt>
      <trkpt lat="45.72885" lon="5.4098">
        <ele>255</ele>
        <time>2021-06-06T09:51:52.450Z</time>
      </trkpt>
      <trkpt lat="45.72883" lon="5.40975">
        <ele>255</ele>
        <time>2021-06-06T09:51:53.450Z</time>
      </trkpt>
      <trkpt lat="45.7288" lon="5.4097">
        <ele>255</ele>
        <time>2021-06-06T09:51:54.450Z</time>
      </trkpt>
      <trkpt lat="45.72876" lon="5.40964">
        <ele>255</ele>
        <time>2021-06-06T09:51:55.450Z</time>
      </trkpt>
      <trkpt lat="45.72871" lon="5.40959">
        <ele>255</ele>
        <time>2021-06-06T09:51:56.450Z</time>
      </trkpt>
      <trkpt lat="45.72867" lon="5.40955">
        <ele>254</ele>
        <time>2021-06-06T09:51:57.451Z</time>
      </trkpt>
      <trkpt lat="45.72862" lon="5.40952">
        <ele>254</ele>
        <time>2021-06-06T09:51:58.451Z</time>
      </trkpt>
      <trkpt lat="45.72857" lon="5.40949">
        <ele>254</ele>
        <time>2021-06-06T09:51:59.451Z</time>
      </trkpt>
      <trkpt lat="45.72852" lon="5.40945">
        <ele>254</ele>
        <time>2021-06-06T09:52:00.451Z</time>
      </trkpt>
      <trkpt lat="45.72847" lon="5.40942">
        <ele>254</ele>
        <time>2021-06-06T09:52:01.451Z</time>
      </trkpt>
      <trkpt lat="45.72842" lon="5.4094">
        <ele>254</ele>
        <time>2021-06-06T09:52:02.451Z</time>
      </trkpt>
      <trkpt lat="45.72838" lon="5.40937">
        <ele>254</ele>
        <time>2021-06-06T09:52:03.450Z</time>
      </trkpt>
      <trkpt lat="45.72833" lon="5.40934">
        <ele>254</ele>
        <time>2021-06-06T09:52:04.451Z</time>
      </trkpt>
      <trkpt lat="45.72829" lon="5.40931">
        <ele>254</ele>
        <time>2021-06-06T09:52:05.451Z</time>
      </trkpt>
      <trkpt lat="45.72825" lon="5.40927">
        <ele>255</ele>
        <time>2021-06-06T09:52:06.450Z</time>
      </trkpt>
      <trkpt lat="45.72823" lon="5.40923">
        <ele>255</ele>
        <time>2021-06-06T09:52:07.451Z</time>
      </trkpt>
      <trkpt lat="45.72819" lon="5.40917">
        <ele>254</ele>
        <time>2021-06-06T09:52:08.450Z</time>
      </trkpt>
      <trkpt lat="45.72816" lon="5.40912">
        <ele>255</ele>
        <time>2021-06-06T09:52:09.451Z</time>
      </trkpt>
      <trkpt lat="45.72814" lon="5.40907">
        <ele>255</ele>
        <time>2021-06-06T09:52:10.450Z</time>
      </trkpt>
      <trkpt lat="45.72812" lon="5.40902">
        <ele>255</ele>
        <time>2021-06-06T09:52:11.451Z</time>
      </trkpt>
      <trkpt lat="45.72811" lon="5.40898">
        <ele>255</ele>
        <time>2021-06-06T09:52:12.450Z</time>
      </trkpt>
      <trkpt lat="45.7281" lon="5.40894">
        <ele>255</ele>
        <time>2021-06-06T09:52:13.451Z</time>
      </trkpt>
      <trkpt lat="45.72808" lon="5.40889">
        <ele>255</ele>
        <time>2021-06-06T09:52:14.450Z</time>
      </trkpt>
      <trkpt lat="45.72807" lon="5.40886">
        <ele>255</ele>
        <time>2021-06-06T09:52:15.451Z</time>
      </trkpt>
      <trkpt lat="45.72806" lon="5.40882">
        <ele>255</ele>
        <time>2021-06-06T09:52:16.450Z</time>
      </trkpt>
      <trkpt lat="45.72805" lon="5.4088">
        <ele>255</ele>
        <time>2021-06-06T09:52:17.451Z</time>
      </trkpt>
      <trkpt lat="45.72805" lon="5.40877">
        <ele>256</ele>
        <time>2021-06-06T09:52:18.451Z</time>
      </trkpt>
      <trkpt lat="45.72804" lon="5.40875">
        <ele>256</ele>
        <time>2021-06-06T09:52:19.451Z</time>
      </trkpt>
      <trkpt lat="45.72804" lon="5.40873">
        <ele>256</ele>
        <time>2021-06-06T09:52:20.451Z</time>
      </trkpt>
      <trkpt lat="45.72803" lon="5.4087">
        <ele>256</ele>
        <time>2021-06-06T09:52:21.450Z</time>
      </trkpt>
      <trkpt lat="45.72803" lon="5.40866">
        <ele>257</ele>
        <time>2021-06-06T09:52:22.451Z</time>
      </trkpt>
      <trkpt lat="45.72803" lon="5.40863">
        <ele>257</ele>
        <time>2021-06-06T09:52:23.451Z</time>
      </trkpt>
      <trkpt lat="45.72803" lon="5.40858">
        <ele>257</ele>
        <time>2021-06-06T09:52:24.451Z</time>
      </trkpt>
      <trkpt lat="45.72803" lon="5.40853">
        <ele>256</ele>
        <time>2021-06-06T09:52:25.451Z</time>
      </trkpt>
      <trkpt lat="45.72802" lon="5.40847">
        <ele>256</ele>
        <time>2021-06-06T09:52:26.451Z</time>
      </trkpt>
      <trkpt lat="45.72802" lon="5.40841">
        <ele>256</ele>
        <time>2021-06-06T09:52:27.450Z</time>
      </trkpt>
      <trkpt lat="45.72802" lon="5.40835">
        <ele>257</ele>
        <time>2021-06-06T09:52:28.451Z</time>
      </trkpt>
      <trkpt lat="45.72802" lon="5.40829">
        <ele>257</ele>
        <time>2021-06-06T09:52:29.451Z</time>
      </trkpt>
      <trkpt lat="45.72802" lon="5.40824">
        <ele>258</ele>
        <time>2021-06-06T09:52:30.451Z</time>
      </trkpt>
      <trkpt lat="45.72802" lon="5.40818">
        <ele>259</ele>
        <time>2021-06-06T09:52:31.450Z</time>
      </trkpt>
      <trkpt lat="45.72802" lon="5.40813">
        <ele>259</ele>
        <time>2021-06-06T09:52:32.451Z</time>
      </trkpt>
      <trkpt lat="45.72802" lon="5.40808">
        <ele>260</ele>
        <time>2021-06-06T09:52:33.450Z</time>
      </trkpt>
      <trkpt lat="45.72802" lon="5.40803">
        <ele>260</ele>
        <time>2021-06-06T09:52:34.451Z</time>
      </trkpt>
      <trkpt lat="45.72801" lon="5.40798">
        <ele>260</ele>
        <time>2021-06-06T09:52:35.451Z</time>
      </trkpt>
      <trkpt lat="45.72801" lon="5.40793">
        <ele>260</ele>
        <time>2021-06-06T09:52:36.451Z</time>
      </trkpt>
      <trkpt lat="45.72799" lon="5.40788">
        <ele>261</ele>
        <time>2021-06-06T09:52:37.451Z</time>
      </trkpt>
      <trkpt lat="45.72797" lon="5.40783">
        <ele>261</ele>
        <time>2021-06-06T09:52:38.451Z</time>
      </trkpt>
      <trkpt lat="45.72795" lon="5.40779">
        <ele>261</ele>
        <time>2021-06-06T09:52:39.450Z</time>
      </trkpt>
      <trkpt lat="45.72793" lon="5.40774">
        <ele>262</ele>
        <time>2021-06-06T09:52:40.451Z</time>
      </trkpt>
      <trkpt lat="45.7279" lon="5.4077">
        <ele>262</ele>
        <time>2021-06-06T09:52:41.451Z</time>
      </trkpt>
      <trkpt lat="45.72788" lon="5.40765">
        <ele>261</ele>
        <time>2021-06-06T09:52:42.450Z</time>
      </trkpt>
      <trkpt lat="45.72785" lon="5.4076">
        <ele>261</ele>
        <time>2021-06-06T09:52:43.450Z</time>
      </trkpt>
      <trkpt lat="45.72783" lon="5.40755">
        <ele>261</ele>
        <time>2021-06-06T09:52:44.451Z</time>
      </trkpt>
      <trkpt lat="45.72781" lon="5.40751">
        <ele>261</ele>
        <time>2021-06-06T09:52:45.451Z</time>
      </trkpt>
      <trkpt lat="45.72778" lon="5.40746">
        <ele>261</ele>
        <time>2021-06-06T09:52:46.451Z</time>
      </trkpt>
      <trkpt lat="45.72776" lon="5.40741">
        <ele>261</ele>
        <time>2021-06-06T09:52:47.451Z</time>
      </trkpt>
      <trkpt lat="45.72774" lon="5.40737">
        <ele>261</ele>
        <time>2021-06-06T09:52:48.451Z</time>
      </trkpt>
      <trkpt lat="45.72771" lon="5.40733">
        <ele>261</ele>
        <time>2021-06-06T09:52:49.450Z</time>
      </trkpt>
      <trkpt lat="45.72769" lon="5.40728">
        <ele>261</ele>
        <time>2021-06-06T09:52:50.451Z</time>
      </trkpt>
      <trkpt lat="45.72767" lon="5.40724">
        <ele>261</ele>
        <time>2021-06-06T09:52:51.451Z</time>
      </trkpt>
      <trkpt lat="45.72765" lon="5.40721">
        <ele>261</ele>
        <time>2021-06-06T09:52:52.451Z</time>
      </trkpt>
      <trkpt lat="45.72762" lon="5.40717">
        <ele>261</ele>
        <time>2021-06-06T09:52:53.451Z</time>
      </trkpt>
      <trkpt lat="45.7276" lon="5.40714">
        <ele>261</ele>
        <time>2021-06-06T09:52:54.450Z</time>
      </trkpt>
      <trkpt lat="45.72758" lon="5.40711">
        <ele>261</ele>
        <time>2021-06-06T09:52:55.451Z</time>
      </trkpt>
      <trkpt lat="45.72756" lon="5.40709">
        <ele>262</ele>
        <time>2021-06-06T09:52:56.451Z</time>
      </trkpt>
      <trkpt lat="45.72754" lon="5.40706">
        <ele>262</ele>
        <time>2021-06-06T09:52:57.451Z</time>
      </trkpt>
      <trkpt lat="45.72752" lon="5.40704">
        <ele>262</ele>
        <time>2021-06-06T09:52:58.451Z</time>
      </trkpt>
      <trkpt lat="45.7275" lon="5.40702">
        <ele>262</ele>
        <time>2021-06-06T09:52:59.451Z</time>
      </trkpt>
      <trkpt lat="45.72749" lon="5.40701">
        <ele>262</ele>
        <time>2021-06-06T09:53:00.450Z</time>
      </trkpt>
      <trkpt lat="45.72747" lon="5.40699">
        <ele>261</ele>
        <time>2021-06-06T09:53:01.451Z</time>
      </trkpt>
      <trkpt lat="45.72746" lon="5.40698">
        <ele>261</ele>
        <time>2021-06-06T09:53:02.450Z</time>
      </trkpt>
      <trkpt lat="45.72745" lon="5.40697">
        <ele>260</ele>
        <time>2021-06-06T09:53:03.450Z</time>
      </trkpt>
      <trkpt lat="45.72744" lon="5.40696">
        <ele>260</ele>
        <time>2021-06-06T09:53:04.450Z</time>
      </trkpt>
      <trkpt lat="45.72744" lon="5.40696">
        <ele>259</ele>
        <time>2021-06-06T09:53:05.450Z</time>
      </trkpt>
      <trkpt lat="45.72744" lon="5.40696">
        <ele>259</ele>
        <time>2021-06-06T09:53:06.450Z</time>
      </trkpt>
      <trkpt lat="45.72744" lon="5.40697">
        <ele>259</ele>
        <time>2021-06-06T09:53:07.450Z</time>
      </trkpt>
      <trkpt lat="45.72738" lon="5.40696">
        <ele>260</ele>
        <time>2021-06-06T09:53:08.450Z</time>
      </trkpt>
      <trkpt lat="45.72735" lon="5.40695">
        <ele>260</ele>
        <time>2021-06-06T09:53:09.451Z</time>
      </trkpt>
      <trkpt lat="45.72732" lon="5.40696">
        <ele>260</ele>
        <time>2021-06-06T09:53:10.450Z</time>
      </trkpt>
      <trkpt lat="45.72728" lon="5.40697">
        <ele>260</ele>
        <time>2021-06-06T09:53:11.451Z</time>
      </trkpt>
      <trkpt lat="45.72724" lon="5.40697">
        <ele>260</ele>
        <time>2021-06-06T09:53:12.451Z</time>
      </trkpt>
      <trkpt lat="45.7272" lon="5.40697">
        <ele>260</ele>
        <time>2021-06-06T09:53:13.451Z</time>
      </trkpt>
      <trkpt lat="45.72715" lon="5.40696">
        <ele>261</ele>
        <time>2021-06-06T09:53:14.451Z</time>
      </trkpt>
      <trkpt lat="45.72711" lon="5.40695">
        <ele>260</ele>
        <time>2021-06-06T09:53:15.451Z</time>
      </trkpt>
      <trkpt lat="45.72705" lon="5.40693">
        <ele>260</ele>
        <time>2021-06-06T09:53:16.451Z</time>
      </trkpt>
      <trkpt lat="45.727" lon="5.4069">
        <ele>260</ele>
        <time>2021-06-06T09:53:17.451Z</time>
      </trkpt>
      <trkpt lat="45.72695" lon="5.40686">
        <ele>260</ele>
        <time>2021-06-06T09:53:18.450Z</time>
      </trkpt>
      <trkpt lat="45.72689" lon="5.40682">
        <ele>260</ele>
        <time>2021-06-06T09:53:19.450Z</time>
      </trkpt>
      <trkpt lat="45.72685" lon="5.40678">
        <ele>259</ele>
        <time>2021-06-06T09:53:20.451Z</time>
      </trkpt>
      <trkpt lat="45.72677" lon="5.40673">
        <ele>259</ele>
        <time>2021-06-06T09:53:21.450Z</time>
      </trkpt>
      <trkpt lat="45.72671" lon="5.40668">
        <ele>259</ele>
        <time>2021-06-06T09:53:22.451Z</time>
      </trkpt>
      <trkpt lat="45.72665" lon="5.40664">
        <ele>259</ele>
        <time>2021-06-06T09:53:23.451Z</time>
      </trkpt>
      <trkpt lat="45.72658" lon="5.40659">
        <ele>258</ele>
        <time>2021-06-06T09:53:24.451Z</time>
      </trkpt>
      <trkpt lat="45.72652" lon="5.40654">
        <ele>258</ele>
        <time>2021-06-06T09:53:25.450Z</time>
      </trkpt>
      <trkpt lat="45.72645" lon="5.40649">
        <ele>257</ele>
        <time>2021-06-06T09:53:26.451Z</time>
      </trkpt>
      <trkpt lat="45.72639" lon="5.40644">
        <ele>257</ele>
        <time>2021-06-06T09:53:27.451Z</time>
      </trkpt>
      <trkpt lat="45.72633" lon="5.40639">
        <ele>257</ele>
        <time>2021-06-06T09:53:28.451Z</time>
      </trkpt>
      <trkpt lat="45.72627" lon="5.40634">
        <ele>256</ele>
        <time>2021-06-06T09:53:29.450Z</time>
      </trkpt>
      <trkpt lat="45.72621" lon="5.40629">
        <ele>256</ele>
        <time>2021-06-06T09:53:30.451Z</time>
      </trkpt>
      <trkpt lat="45.72615" lon="5.40624">
        <ele>256</ele>
        <time>2021-06-06T09:53:31.451Z</time>
      </trkpt>
      <trkpt lat="45.72609" lon="5.40618">
        <ele>256</ele>
        <time>2021-06-06T09:53:32.451Z</time>
      </trkpt>
      <trkpt lat="45.72604" lon="5.40614">
        <ele>256</ele>
        <time>2021-06-06T09:53:33.450Z</time>
      </trkpt>
      <trkpt lat="45.72599" lon="5.4061">
        <ele>256</ele>
        <time>2021-06-06T09:53:34.451Z</time>
      </trkpt>
      <trkpt lat="45.72594" lon="5.40606">
        <ele>256</ele>
        <time>2021-06-06T09:53:35.451Z</time>
      </trkpt>
      <trkpt lat="45.7259" lon="5.40602">
        <ele>255</ele>
        <time>2021-06-06T09:53:36.451Z</time>
      </trkpt>
      <trkpt lat="45.72586" lon="5.40599">
        <ele>255</ele>
        <time>2021-06-06T09:53:37.450Z</time>
      </trkpt>
      <trkpt lat="45.72583" lon="5.40596">
        <ele>255</ele>
        <time>2021-06-06T09:53:38.451Z</time>
      </trkpt>
      <trkpt lat="45.72579" lon="5.40593">
        <ele>255</ele>
        <time>2021-06-06T09:53:39.450Z</time>
      </trkpt>
      <trkpt lat="45.72575" lon="5.40591">
        <ele>254</ele>
        <time>2021-06-06T09:53:40.451Z</time>
      </trkpt>
      <trkpt lat="45.72571" lon="5.40587">
        <ele>254</ele>
        <time>2021-06-06T09:53:41.451Z</time>
      </trkpt>
      <trkpt lat="45.72567" lon="5.40583">
        <ele>254</ele>
        <time>2021-06-06T09:53:42.451Z</time>
      </trkpt>
      <trkpt lat="45.72562" lon="5.40579">
        <ele>254</ele>
        <time>2021-06-06T09:53:43.451Z</time>
      </trkpt>
      <trkpt lat="45.72558" lon="5.40574">
        <ele>254</ele>
        <time>2021-06-06T09:53:44.451Z</time>
      </trkpt>
      <trkpt lat="45.72553" lon="5.4057">
        <ele>254</ele>
        <time>2021-06-06T09:53:45.450Z</time>
      </trkpt>
      <trkpt lat="45.72547" lon="5.40566">
        <ele>255</ele>
        <time>2021-06-06T09:53:46.451Z</time>
      </trkpt>
      <trkpt lat="45.72542" lon="5.40561">
        <ele>256</ele>
        <time>2021-06-06T09:53:47.451Z</time>
      </trkpt>
      <trkpt lat="45.72537" lon="5.40557">
        <ele>256</ele>
        <time>2021-06-06T09:53:48.451Z</time>
      </trkpt>
      <trkpt lat="45.72532" lon="5.40553">
        <ele>257</ele>
        <time>2021-06-06T09:53:49.450Z</time>
      </trkpt>
      <trkpt lat="45.72528" lon="5.40549">
        <ele>257</ele>
        <time>2021-06-06T09:53:50.451Z</time>
      </trkpt>
      <trkpt lat="45.72523" lon="5.40545">
        <ele>257</ele>
        <time>2021-06-06T09:53:51.451Z</time>
      </trkpt>
      <trkpt lat="45.72519" lon="5.40541">
        <ele>257</ele>
        <time>2021-06-06T09:53:52.451Z</time>
      </trkpt>
      <trkpt lat="45.72514" lon="5.40537">
        <ele>257</ele>
        <time>2021-06-06T09:53:53.451Z</time>
      </trkpt>
      <trkpt lat="45.72509" lon="5.40533">
        <ele>256</ele>
        <time>2021-06-06T09:53:54.451Z</time>
      </trkpt>
      <trkpt lat="45.72504" lon="5.40529">
        <ele>256</ele>
        <time>2021-06-06T09:53:55.451Z</time>
      </trkpt>
      <trkpt lat="45.72499" lon="5.40525">
        <ele>255</ele>
        <time>2021-06-06T09:53:56.451Z</time>
      </trkpt>
      <trkpt lat="45.72494" lon="5.4052">
        <ele>255</ele>
        <time>2021-06-06T09:53:57.451Z</time>
      </trkpt>
      <trkpt lat="45.72489" lon="5.40516">
        <ele>255</ele>
        <time>2021-06-06T09:53:58.451Z</time>
      </trkpt>
      <trkpt lat="45.72483" lon="5.40511">
        <ele>255</ele>
        <time>2021-06-06T09:53:59.450Z</time>
      </trkpt>
      <trkpt lat="45.72478" lon="5.40506">
        <ele>254</ele>
        <time>2021-06-06T09:54:00.451Z</time>
      </trkpt>
      <trkpt lat="45.72472" lon="5.40502">
        <ele>254</ele>
        <time>2021-06-06T09:54:01.450Z</time>
      </trkpt>
      <trkpt lat="45.72466" lon="5.40497">
        <ele>253</ele>
        <time>2021-06-06T09:54:02.451Z</time>
      </trkpt>
      <trkpt lat="45.72459" lon="5.40493">
        <ele>253</ele>
        <time>2021-06-06T09:54:03.451Z</time>
      </trkpt>
      <trkpt lat="45.72453" lon="5.40489">
        <ele>252</ele>
        <time>2021-06-06T09:54:04.451Z</time>
      </trkpt>
      <trkpt lat="45.72447" lon="5.40486">
        <ele>251</ele>
        <time>2021-06-06T09:54:05.451Z</time>
      </trkpt>
      <trkpt lat="45.7244" lon="5.40483">
        <ele>251</ele>
        <time>2021-06-06T09:54:06.451Z</time>
      </trkpt>
      <trkpt lat="45.72433" lon="5.4048">
        <ele>250</ele>
        <time>2021-06-06T09:54:07.451Z</time>
      </trkpt>
      <trkpt lat="45.72427" lon="5.40477">
        <ele>249</ele>
        <time>2021-06-06T09:54:08.451Z</time>
      </trkpt>
      <trkpt lat="45.7242" lon="5.40475">
        <ele>249</ele>
        <time>2021-06-06T09:54:09.451Z</time>
      </trkpt>
      <trkpt lat="45.72413" lon="5.40472">
        <ele>249</ele>
        <time>2021-06-06T09:54:10.451Z</time>
      </trkpt>
      <trkpt lat="45.72406" lon="5.40469">
        <ele>249</ele>
        <time>2021-06-06T09:54:11.451Z</time>
      </trkpt>
      <trkpt lat="45.72399" lon="5.40465">
        <ele>248</ele>
        <time>2021-06-06T09:54:12.451Z</time>
      </trkpt>
      <trkpt lat="45.72391" lon="5.40462">
        <ele>248</ele>
        <time>2021-06-06T09:54:13.451Z</time>
      </trkpt>
      <trkpt lat="45.72384" lon="5.40459">
        <ele>247</ele>
        <time>2021-06-06T09:54:14.451Z</time>
      </trkpt>
      <trkpt lat="45.72376" lon="5.40456">
        <ele>247</ele>
        <time>2021-06-06T09:54:15.451Z</time>
      </trkpt>
      <trkpt lat="45.72368" lon="5.40453">
        <ele>247</ele>
        <time>2021-06-06T09:54:16.451Z</time>
      </trkpt>
      <trkpt lat="45.7236" lon="5.40449">
        <ele>246</ele>
        <time>2021-06-06T09:54:17.451Z</time>
      </trkpt>
      <trkpt lat="45.72352" lon="5.40446">
        <ele>246</ele>
        <time>2021-06-06T09:54:18.450Z</time>
      </trkpt>
      <trkpt lat="45.72344" lon="5.40442">
        <ele>246</ele>
        <time>2021-06-06T09:54:19.451Z</time>
      </trkpt>
      <trkpt lat="45.72335" lon="5.40438">
        <ele>246</ele>
        <time>2021-06-06T09:54:20.451Z</time>
      </trkpt>
      <trkpt lat="45.72326" lon="5.40434">
        <ele>246</ele>
        <time>2021-06-06T09:54:21.450Z</time>
      </trkpt>
      <trkpt lat="45.72317" lon="5.4043">
        <ele>246</ele>
        <time>2021-06-06T09:54:22.450Z</time>
      </trkpt>
      <trkpt lat="45.72307" lon="5.40426">
        <ele>246</ele>
        <time>2021-06-06T09:54:23.451Z</time>
      </trkpt>
      <trkpt lat="45.72298" lon="5.40421">
        <ele>245</ele>
        <time>2021-06-06T09:54:24.451Z</time>
      </trkpt>
      <trkpt lat="45.72288" lon="5.40415">
        <ele>244</ele>
        <time>2021-06-06T09:54:25.451Z</time>
      </trkpt>
      <trkpt lat="45.72279" lon="5.40409">
        <ele>243</ele>
        <time>2021-06-06T09:54:26.451Z</time>
      </trkpt>
      <trkpt lat="45.7227" lon="5.40403">
        <ele>243</ele>
        <time>2021-06-06T09:54:27.451Z</time>
      </trkpt>
      <trkpt lat="45.72261" lon="5.40395">
        <ele>242</ele>
        <time>2021-06-06T09:54:28.451Z</time>
      </trkpt>
      <trkpt lat="45.72252" lon="5.40388">
        <ele>241</ele>
        <time>2021-06-06T09:54:29.450Z</time>
      </trkpt>
      <trkpt lat="45.72244" lon="5.40379">
        <ele>240</ele>
        <time>2021-06-06T09:54:30.451Z</time>
      </trkpt>
      <trkpt lat="45.72235" lon="5.40371">
        <ele>240</ele>
        <time>2021-06-06T09:54:31.451Z</time>
      </trkpt>
      <trkpt lat="45.72227" lon="5.40363">
        <ele>239</ele>
        <time>2021-06-06T09:54:32.450Z</time>
      </trkpt>
      <trkpt lat="45.72219" lon="5.40355">
        <ele>239</ele>
        <time>2021-06-06T09:54:33.451Z</time>
      </trkpt>
      <trkpt lat="45.72211" lon="5.40347">
        <ele>239</ele>
        <time>2021-06-06T09:54:34.451Z</time>
      </trkpt>
      <trkpt lat="45.72203" lon="5.4034">
        <ele>239</ele>
        <time>2021-06-06T09:54:35.451Z</time>
      </trkpt>
      <trkpt lat="45.72196" lon="5.40332">
        <ele>238</ele>
        <time>2021-06-06T09:54:36.451Z</time>
      </trkpt>
      <trkpt lat="45.72188" lon="5.40325">
        <ele>238</ele>
        <time>2021-06-06T09:54:37.451Z</time>
      </trkpt>
      <trkpt lat="45.7218" lon="5.40317">
        <ele>238</ele>
        <time>2021-06-06T09:54:38.451Z</time>
      </trkpt>
      <trkpt lat="45.72173" lon="5.40309">
        <ele>238</ele>
        <time>2021-06-06T09:54:39.451Z</time>
      </trkpt>
      <trkpt lat="45.72166" lon="5.40302">
        <ele>238</ele>
        <time>2021-06-06T09:54:40.451Z</time>
      </trkpt>
      <trkpt lat="45.72159" lon="5.40295">
        <ele>237</ele>
        <time>2021-06-06T09:54:41.451Z</time>
      </trkpt>
      <trkpt lat="45.72152" lon="5.40288">
        <ele>237</ele>
        <time>2021-06-06T09:54:42.451Z</time>
      </trkpt>
      <trkpt lat="45.72145" lon="5.40282">
        <ele>237</ele>
        <time>2021-06-06T09:54:43.450Z</time>
      </trkpt>
      <trkpt lat="45.72138" lon="5.40275">
        <ele>237</ele>
        <time>2021-06-06T09:54:44.451Z</time>
      </trkpt>
      <trkpt lat="45.72131" lon="5.40269">
        <ele>237</ele>
        <time>2021-06-06T09:54:45.451Z</time>
      </trkpt>
      <trkpt lat="45.72125" lon="5.40263">
        <ele>238</ele>
        <time>2021-06-06T09:54:46.450Z</time>
      </trkpt>
      <trkpt lat="45.72119" lon="5.40258">
        <ele>238</ele>
        <time>2021-06-06T09:54:47.451Z</time>
      </trkpt>
      <trkpt lat="45.72114" lon="5.40254">
        <ele>239</ele>
        <time>2021-06-06T09:54:48.451Z</time>
      </trkpt>
      <trkpt lat="45.72109" lon="5.40251">
        <ele>239</ele>
        <time>2021-06-06T09:54:49.451Z</time>
      </trkpt>
      <trkpt lat="45.72105" lon="5.4025">
        <ele>240</ele>
        <time>2021-06-06T09:54:50.451Z</time>
      </trkpt>
      <trkpt lat="45.72103" lon="5.40251">
        <ele>240</ele>
        <time>2021-06-06T09:54:51.451Z</time>
      </trkpt>
      <trkpt lat="45.72101" lon="5.40254">
        <ele>241</ele>
        <time>2021-06-06T09:54:52.451Z</time>
      </trkpt>
      <trkpt lat="45.721" lon="5.40255">
        <ele>242</ele>
        <time>2021-06-06T09:54:53.451Z</time>
      </trkpt>
      <trkpt lat="45.721" lon="5.40257">
        <ele>242</ele>
        <time>2021-06-06T09:54:54.451Z</time>
      </trkpt>
      <trkpt lat="45.721" lon="5.40258">
        <ele>243</ele>
        <time>2021-06-06T09:54:55.451Z</time>
      </trkpt>
      <trkpt lat="45.721" lon="5.40258">
        <ele>244</ele>
        <time>2021-06-06T09:54:56.451Z</time>
      </trkpt>
      <trkpt lat="45.72099" lon="5.40258">
        <ele>244</ele>
        <time>2021-06-06T09:54:57.451Z</time>
      </trkpt>
      <trkpt lat="45.72099" lon="5.40258">
        <ele>245</ele>
        <time>2021-06-06T09:54:58.450Z</time>
      </trkpt>
      <trkpt lat="45.72099" lon="5.40259">
        <ele>245</ele>
        <time>2021-06-06T09:54:59.451Z</time>
      </trkpt>
      <trkpt lat="45.72098" lon="5.4026">
        <ele>246</ele>
        <time>2021-06-06T09:55:00.451Z</time>
      </trkpt>
      <trkpt lat="45.72098" lon="5.4026">
        <ele>246</ele>
        <time>2021-06-06T09:55:01.451Z</time>
      </trkpt>
      <trkpt lat="45.72097" lon="5.40261">
        <ele>246</ele>
        <time>2021-06-06T09:55:02.451Z</time>
      </trkpt>
      <trkpt lat="45.72097" lon="5.4026">
        <ele>246</ele>
        <time>2021-06-06T09:55:03.451Z</time>
      </trkpt>
      <trkpt lat="45.72097" lon="5.4026">
        <ele>246</ele>
        <time>2021-06-06T09:55:04.451Z</time>
      </trkpt>
      <trkpt lat="45.72101" lon="5.40265">
        <ele>248</ele>
        <time>2021-06-06T09:55:05.451Z</time>
      </trkpt>
      <trkpt lat="45.72101" lon="5.40266">
        <ele>248</ele>
        <time>2021-06-06T09:55:06.451Z</time>
      </trkpt>
      <trkpt lat="45.721" lon="5.40267">
        <ele>248</ele>
        <time>2021-06-06T09:55:07.450Z</time>
      </trkpt>
      <trkpt lat="45.721" lon="5.40268">
        <ele>248</ele>
        <time>2021-06-06T09:55:08.451Z</time>
      </trkpt>
      <trkpt lat="45.721" lon="5.40268">
        <ele>248</ele>
        <time>2021-06-06T09:55:09.450Z</time>
      </trkpt>
      <trkpt lat="45.721" lon="5.40268">
        <ele>248</ele>
        <time>2021-06-06T09:55:10.450Z</time>
      </trkpt>
      <trkpt lat="45.721" lon="5.40269">
        <ele>248</ele>
        <time>2021-06-06T09:55:11.451Z</time>
      </trkpt>
      <trkpt lat="45.72099" lon="5.4027">
        <ele>248</ele>
        <time>2021-06-06T09:55:12.450Z</time>
      </trkpt>
      <trkpt lat="45.72098" lon="5.40271">
        <ele>247</ele>
        <time>2021-06-06T09:55:13.451Z</time>
      </trkpt>
      <trkpt lat="45.72098" lon="5.40271">
        <ele>247</ele>
        <time>2021-06-06T09:55:14.451Z</time>
      </trkpt>
      <trkpt lat="45.72098" lon="5.40272">
        <ele>247</ele>
        <time>2021-06-06T09:55:15.451Z</time>
      </trkpt>
      <trkpt lat="45.72099" lon="5.40272">
        <ele>247</ele>
        <time>2021-06-06T09:55:16.451Z</time>
      </trkpt>
      <trkpt lat="45.72099" lon="5.40272">
        <ele>247</ele>
        <time>2021-06-06T09:55:17.451Z</time>
      </trkpt>
      <trkpt lat="45.72099" lon="5.40272">
        <ele>247</ele>
        <time>2021-06-06T09:55:18.451Z</time>
      </trkpt>
      <trkpt lat="45.72102" lon="5.40272">
        <ele>247</ele>
        <time>2021-06-06T09:55:19.451Z</time>
      </trkpt>
      <trkpt lat="45.721" lon="5.40274">
        <ele>244</ele>
        <time>2021-06-06T09:55:20.451Z</time>
      </trkpt>
      <trkpt lat="45.721" lon="5.40274">
        <ele>243</ele>
        <time>2021-06-06T09:55:21.451Z</time>
      </trkpt>
      <trkpt lat="45.72099" lon="5.40274">
        <ele>243</ele>
        <time>2021-06-06T09:55:22.451Z</time>
      </trkpt>
      <trkpt lat="45.72097" lon="5.40274">
        <ele>244</ele>
        <time>2021-06-06T09:55:23.451Z</time>
      </trkpt>
      <trkpt lat="45.72097" lon="5.40274">
        <ele>244</ele>
        <time>2021-06-06T09:55:24.450Z</time>
      </trkpt>
      <trkpt lat="45.72096" lon="5.40274">
        <ele>244</ele>
        <time>2021-06-06T09:55:25.451Z</time>
      </trkpt>
      <trkpt lat="45.72096" lon="5.40274">
        <ele>244</ele>
        <time>2021-06-06T09:55:26.451Z</time>
      </trkpt>
      <trkpt lat="45.72096" lon="5.40272">
        <ele>245</ele>
        <time>2021-06-06T09:55:27.452Z</time>
      </trkpt>
      <trkpt lat="45.72097" lon="5.40271">
        <ele>246</ele>
        <time>2021-06-06T09:55:28.452Z</time>
      </trkpt>
      <trkpt lat="45.72097" lon="5.40269">
        <ele>246</ele>
        <time>2021-06-06T09:55:29.451Z</time>
      </trkpt>
      <trkpt lat="45.72097" lon="5.40268">
        <ele>246</ele>
        <time>2021-06-06T09:55:30.452Z</time>
      </trkpt>
      <trkpt lat="45.72097" lon="5.40267">
        <ele>246</ele>
        <time>2021-06-06T09:55:31.451Z</time>
      </trkpt>
      <trkpt lat="45.72098" lon="5.40266">
        <ele>246</ele>
        <time>2021-06-06T09:55:32.451Z</time>
      </trkpt>
      <trkpt lat="45.72099" lon="5.40267">
        <ele>246</ele>
        <time>2021-06-06T09:55:33.452Z</time>
      </trkpt>
      <trkpt lat="45.721" lon="5.40267">
        <ele>247</ele>
        <time>2021-06-06T09:55:34.452Z</time>
      </trkpt>
      <trkpt lat="45.72102" lon="5.40266">
        <ele>247</ele>
        <time>2021-06-06T09:55:35.452Z</time>
      </trkpt>
      <trkpt lat="45.72103" lon="5.40264">
        <ele>248</ele>
        <time>2021-06-06T09:55:36.451Z</time>
      </trkpt>
      <trkpt lat="45.72104" lon="5.40262">
        <ele>248</ele>
        <time>2021-06-06T09:55:37.452Z</time>
      </trkpt>
      <trkpt lat="45.72106" lon="5.4026">
        <ele>248</ele>
        <time>2021-06-06T09:55:38.452Z</time>
      </trkpt>
      <trkpt lat="45.72107" lon="5.40258">
        <ele>249</ele>
        <time>2021-06-06T09:55:39.451Z</time>
      </trkpt>
      <trkpt lat="45.72108" lon="5.40256">
        <ele>249</ele>
        <time>2021-06-06T09:55:40.452Z</time>
      </trkpt>
      <trkpt lat="45.72109" lon="5.40255">
        <ele>249</ele>
        <time>2021-06-06T09:55:41.451Z</time>
      </trkpt>
      <trkpt lat="45.72109" lon="5.40254">
        <ele>249</ele>
        <time>2021-06-06T09:55:42.452Z</time>
      </trkpt>
      <trkpt lat="45.72109" lon="5.40254">
        <ele>249</ele>
        <time>2021-06-06T09:55:43.452Z</time>
      </trkpt>
      <trkpt lat="45.72109" lon="5.40254">
        <ele>249</ele>
        <time>2021-06-06T09:55:44.451Z</time>
      </trkpt>
      <trkpt lat="45.72109" lon="5.40254">
        <ele>249</ele>
        <time>2021-06-06T09:55:45.452Z</time>
      </trkpt>
      <trkpt lat="45.7211" lon="5.4025">
        <ele>247</ele>
        <time>2021-06-06T09:55:46.452Z</time>
      </trkpt>
      <trkpt lat="45.72109" lon="5.40249">
        <ele>246</ele>
        <time>2021-06-06T09:55:47.452Z</time>
      </trkpt>
      <trkpt lat="45.72109" lon="5.40247">
        <ele>246</ele>
        <time>2021-06-06T09:55:48.452Z</time>
      </trkpt>
      <trkpt lat="45.72107" lon="5.40244">
        <ele>245</ele>
        <time>2021-06-06T09:55:49.452Z</time>
      </trkpt>
      <trkpt lat="45.72105" lon="5.4024">
        <ele>244</ele>
        <time>2021-06-06T09:55:50.452Z</time>
      </trkpt>
      <trkpt lat="45.72102" lon="5.40237">
        <ele>243</ele>
        <time>2021-06-06T09:55:51.452Z</time>
      </trkpt>
      <trkpt lat="45.72099" lon="5.40234">
        <ele>243</ele>
        <time>2021-06-06T09:55:52.452Z</time>
      </trkpt>
      <trkpt lat="45.72095" lon="5.40231">
        <ele>242</ele>
        <time>2021-06-06T09:55:53.452Z</time>
      </trkpt>
      <trkpt lat="45.72092" lon="5.40227">
        <ele>242</ele>
        <time>2021-06-06T09:55:54.452Z</time>
      </trkpt>
      <trkpt lat="45.72088" lon="5.40223">
        <ele>242</ele>
        <time>2021-06-06T09:55:55.452Z</time>
      </trkpt>
      <trkpt lat="45.72084" lon="5.40218">
        <ele>242</ele>
        <time>2021-06-06T09:55:56.452Z</time>
      </trkpt>
      <trkpt lat="45.72079" lon="5.40214">
        <ele>242</ele>
        <time>2021-06-06T09:55:57.452Z</time>
      </trkpt>
      <trkpt lat="45.72074" lon="5.40209">
        <ele>242</ele>
        <time>2021-06-06T09:55:58.452Z</time>
      </trkpt>
      <trkpt lat="45.72069" lon="5.40204">
        <ele>242</ele>
        <time>2021-06-06T09:55:59.452Z</time>
      </trkpt>
      <trkpt lat="45.72064" lon="5.40199">
        <ele>242</ele>
        <time>2021-06-06T09:56:00.452Z</time>
      </trkpt>
      <trkpt lat="45.72059" lon="5.40194">
        <ele>242</ele>
        <time>2021-06-06T09:56:01.452Z</time>
      </trkpt>
      <trkpt lat="45.72054" lon="5.4019">
        <ele>242</ele>
        <time>2021-06-06T09:56:02.452Z</time>
      </trkpt>
      <trkpt lat="45.7205" lon="5.40185">
        <ele>242</ele>
        <time>2021-06-06T09:56:03.452Z</time>
      </trkpt>
      <trkpt lat="45.72045" lon="5.40181">
        <ele>243</ele>
        <time>2021-06-06T09:56:04.452Z</time>
      </trkpt>
      <trkpt lat="45.7204" lon="5.40176">
        <ele>243</ele>
        <time>2021-06-06T09:56:05.452Z</time>
      </trkpt>
      <trkpt lat="45.72036" lon="5.40172">
        <ele>243</ele>
        <time>2021-06-06T09:56:06.452Z</time>
      </trkpt>
      <trkpt lat="45.72031" lon="5.40167">
        <ele>244</ele>
        <time>2021-06-06T09:56:07.452Z</time>
      </trkpt>
      <trkpt lat="45.72026" lon="5.40162">
        <ele>244</ele>
        <time>2021-06-06T09:56:08.451Z</time>
      </trkpt>
      <trkpt lat="45.72021" lon="5.40157">
        <ele>244</ele>
        <time>2021-06-06T09:56:09.451Z</time>
      </trkpt>
      <trkpt lat="45.72015" lon="5.40152">
        <ele>244</ele>
        <time>2021-06-06T09:56:10.452Z</time>
      </trkpt>
      <trkpt lat="45.7201" lon="5.40147">
        <ele>245</ele>
        <time>2021-06-06T09:56:11.451Z</time>
      </trkpt>
      <trkpt lat="45.72005" lon="5.40143">
        <ele>246</ele>
        <time>2021-06-06T09:56:12.452Z</time>
      </trkpt>
      <trkpt lat="45.72" lon="5.40138">
        <ele>247</ele>
        <time>2021-06-06T09:56:13.451Z</time>
      </trkpt>
      <trkpt lat="45.71995" lon="5.40132">
        <ele>247</ele>
        <time>2021-06-06T09:56:14.452Z</time>
      </trkpt>
      <trkpt lat="45.71991" lon="5.40128">
        <ele>247</ele>
        <time>2021-06-06T09:56:15.452Z</time>
      </trkpt>
      <trkpt lat="45.71986" lon="5.40123">
        <ele>247</ele>
        <time>2021-06-06T09:56:16.452Z</time>
      </trkpt>
      <trkpt lat="45.71982" lon="5.40118">
        <ele>247</ele>
        <time>2021-06-06T09:56:17.452Z</time>
      </trkpt>
      <trkpt lat="45.71977" lon="5.40113">
        <ele>247</ele>
        <time>2021-06-06T09:56:18.452Z</time>
      </trkpt>
      <trkpt lat="45.71972" lon="5.40109">
        <ele>247</ele>
        <time>2021-06-06T09:56:19.452Z</time>
      </trkpt>
      <trkpt lat="45.71967" lon="5.40104">
        <ele>248</ele>
        <time>2021-06-06T09:56:20.452Z</time>
      </trkpt>
      <trkpt lat="45.71962" lon="5.40099">
        <ele>249</ele>
        <time>2021-06-06T09:56:21.452Z</time>
      </trkpt>
      <trkpt lat="45.71957" lon="5.40095">
        <ele>249</ele>
        <time>2021-06-06T09:56:22.452Z</time>
      </trkpt>
      <trkpt lat="45.71952" lon="5.40089">
        <ele>250</ele>
        <time>2021-06-06T09:56:23.452Z</time>
      </trkpt>
      <trkpt lat="45.71947" lon="5.40085">
        <ele>250</ele>
        <time>2021-06-06T09:56:24.452Z</time>
      </trkpt>
      <trkpt lat="45.71942" lon="5.4008">
        <ele>251</ele>
        <time>2021-06-06T09:56:25.452Z</time>
      </trkpt>
      <trkpt lat="45.71936" lon="5.40075">
        <ele>251</ele>
        <time>2021-06-06T09:56:26.452Z</time>
      </trkpt>
      <trkpt lat="45.7193" lon="5.4007">
        <ele>252</ele>
        <time>2021-06-06T09:56:27.452Z</time>
      </trkpt>
      <trkpt lat="45.71924" lon="5.40064">
        <ele>252</ele>
        <time>2021-06-06T09:56:28.452Z</time>
      </trkpt>
      <trkpt lat="45.71918" lon="5.40058">
        <ele>252</ele>
        <time>2021-06-06T09:56:29.451Z</time>
      </trkpt>
      <trkpt lat="45.71912" lon="5.40052">
        <ele>252</ele>
        <time>2021-06-06T09:56:30.452Z</time>
      </trkpt>
      <trkpt lat="45.71906" lon="5.40046">
        <ele>252</ele>
        <time>2021-06-06T09:56:31.452Z</time>
      </trkpt>
      <trkpt lat="45.71899" lon="5.4004">
        <ele>251</ele>
        <time>2021-06-06T09:56:32.452Z</time>
      </trkpt>
      <trkpt lat="45.71893" lon="5.40033">
        <ele>252</ele>
        <time>2021-06-06T09:56:33.452Z</time>
      </trkpt>
      <trkpt lat="45.71887" lon="5.40027">
        <ele>252</ele>
        <time>2021-06-06T09:56:34.452Z</time>
      </trkpt>
      <trkpt lat="45.7188" lon="5.4002">
        <ele>252</ele>
        <time>2021-06-06T09:56:35.451Z</time>
      </trkpt>
      <trkpt lat="45.71873" lon="5.40013">
        <ele>252</ele>
        <time>2021-06-06T09:56:36.452Z</time>
      </trkpt>
      <trkpt lat="45.71867" lon="5.40006">
        <ele>252</ele>
        <time>2021-06-06T09:56:37.451Z</time>
      </trkpt>
      <trkpt lat="45.7186" lon="5.39999">
        <ele>252</ele>
        <time>2021-06-06T09:56:38.451Z</time>
      </trkpt>
      <trkpt lat="45.71853" lon="5.39992">
        <ele>251</ele>
        <time>2021-06-06T09:56:39.452Z</time>
      </trkpt>
      <trkpt lat="45.71846" lon="5.39985">
        <ele>251</ele>
        <time>2021-06-06T09:56:40.452Z</time>
      </trkpt>
      <trkpt lat="45.71839" lon="5.39979">
        <ele>251</ele>
        <time>2021-06-06T09:56:41.452Z</time>
      </trkpt>
      <trkpt lat="45.71832" lon="5.39972">
        <ele>251</ele>
        <time>2021-06-06T09:56:42.452Z</time>
      </trkpt>
      <trkpt lat="45.71825" lon="5.39966">
        <ele>251</ele>
        <time>2021-06-06T09:56:43.452Z</time>
      </trkpt>
      <trkpt lat="45.71818" lon="5.39959">
        <ele>251</ele>
        <time>2021-06-06T09:56:44.451Z</time>
      </trkpt>
      <trkpt lat="45.71811" lon="5.39953">
        <ele>251</ele>
        <time>2021-06-06T09:56:45.452Z</time>
      </trkpt>
      <trkpt lat="45.71804" lon="5.39946">
        <ele>251</ele>
        <time>2021-06-06T09:56:46.451Z</time>
      </trkpt>
      <trkpt lat="45.71797" lon="5.3994">
        <ele>252</ele>
        <time>2021-06-06T09:56:47.451Z</time>
      </trkpt>
      <trkpt lat="45.7179" lon="5.39933">
        <ele>252</ele>
        <time>2021-06-06T09:56:48.452Z</time>
      </trkpt>
      <trkpt lat="45.71783" lon="5.39927">
        <ele>252</ele>
        <time>2021-06-06T09:56:49.452Z</time>
      </trkpt>
      <trkpt lat="45.71776" lon="5.39921">
        <ele>252</ele>
        <time>2021-06-06T09:56:50.451Z</time>
      </trkpt>
      <trkpt lat="45.71769" lon="5.39916">
        <ele>253</ele>
        <time>2021-06-06T09:56:51.452Z</time>
      </trkpt>
      <trkpt lat="45.71762" lon="5.3991">
        <ele>253</ele>
        <time>2021-06-06T09:56:52.452Z</time>
      </trkpt>
      <trkpt lat="45.71754" lon="5.39905">
        <ele>253</ele>
        <time>2021-06-06T09:56:53.452Z</time>
      </trkpt>
      <trkpt lat="45.71747" lon="5.39901">
        <ele>254</ele>
        <time>2021-06-06T09:56:54.452Z</time>
      </trkpt>
      <trkpt lat="45.71739" lon="5.39897">
        <ele>254</ele>
        <time>2021-06-06T09:56:55.452Z</time>
      </trkpt>
      <trkpt lat="45.71731" lon="5.39893">
        <ele>255</ele>
        <time>2021-06-06T09:56:56.452Z</time>
      </trkpt>
      <trkpt lat="45.71723" lon="5.39889">
        <ele>256</ele>
        <time>2021-06-06T09:56:57.451Z</time>
      </trkpt>
      <trkpt lat="45.71716" lon="5.39885">
        <ele>256</ele>
        <time>2021-06-06T09:56:58.452Z</time>
      </trkpt>
      <trkpt lat="45.71708" lon="5.3988">
        <ele>256</ele>
        <time>2021-06-06T09:56:59.451Z</time>
      </trkpt>
      <trkpt lat="45.717" lon="5.39876">
        <ele>256</ele>
        <time>2021-06-06T09:57:00.451Z</time>
      </trkpt>
      <trkpt lat="45.71691" lon="5.39872">
        <ele>255</ele>
        <time>2021-06-06T09:57:01.452Z</time>
      </trkpt>
      <trkpt lat="45.71683" lon="5.39868">
        <ele>255</ele>
        <time>2021-06-06T09:57:02.451Z</time>
      </trkpt>
      <trkpt lat="45.71675" lon="5.39863">
        <ele>255</ele>
        <time>2021-06-06T09:57:03.452Z</time>
      </trkpt>
      <trkpt lat="45.71667" lon="5.39859">
        <ele>255</ele>
        <time>2021-06-06T09:57:04.451Z</time>
      </trkpt>
      <trkpt lat="45.71659" lon="5.39854">
        <ele>255</ele>
        <time>2021-06-06T09:57:05.452Z</time>
      </trkpt>
      <trkpt lat="45.71652" lon="5.39849">
        <ele>255</ele>
        <time>2021-06-06T09:57:06.452Z</time>
      </trkpt>
      <trkpt lat="45.71644" lon="5.39844">
        <ele>255</ele>
        <time>2021-06-06T09:57:07.452Z</time>
      </trkpt>
      <trkpt lat="45.71636" lon="5.39838">
        <ele>254</ele>
        <time>2021-06-06T09:57:08.452Z</time>
      </trkpt>
      <trkpt lat="45.71629" lon="5.39831">
        <ele>254</ele>
        <time>2021-06-06T09:57:09.452Z</time>
      </trkpt>
      <trkpt lat="45.71622" lon="5.39823">
        <ele>254</ele>
        <time>2021-06-06T09:57:10.452Z</time>
      </trkpt>
      <trkpt lat="45.71615" lon="5.39815">
        <ele>254</ele>
        <time>2021-06-06T09:57:11.452Z</time>
      </trkpt>
      <trkpt lat="45.71608" lon="5.39807">
        <ele>254</ele>
        <time>2021-06-06T09:57:12.452Z</time>
      </trkpt>
      <trkpt lat="45.71602" lon="5.39798">
        <ele>254</ele>
        <time>2021-06-06T09:57:13.452Z</time>
      </trkpt>
      <trkpt lat="45.71596" lon="5.39789">
        <ele>254</ele>
        <time>2021-06-06T09:57:14.452Z</time>
      </trkpt>
      <trkpt lat="45.7159" lon="5.3978">
        <ele>254</ele>
        <time>2021-06-06T09:57:15.452Z</time>
      </trkpt>
      <trkpt lat="45.71584" lon="5.39771">
        <ele>254</ele>
        <time>2021-06-06T09:57:16.452Z</time>
      </trkpt>
      <trkpt lat="45.71577" lon="5.39762">
        <ele>254</ele>
        <time>2021-06-06T09:57:17.452Z</time>
      </trkpt>
      <trkpt lat="45.71571" lon="5.39753">
        <ele>254</ele>
        <time>2021-06-06T09:57:18.452Z</time>
      </trkpt>
      <trkpt lat="45.71565" lon="5.39744">
        <ele>255</ele>
        <time>2021-06-06T09:57:19.452Z</time>
      </trkpt>
      <trkpt lat="45.71559" lon="5.39734">
        <ele>255</ele>
        <time>2021-06-06T09:57:20.452Z</time>
      </trkpt>
      <trkpt lat="45.71553" lon="5.39725">
        <ele>255</ele>
        <time>2021-06-06T09:57:21.451Z</time>
      </trkpt>
      <trkpt lat="45.71546" lon="5.39716">
        <ele>255</ele>
        <time>2021-06-06T09:57:22.452Z</time>
      </trkpt>
      <trkpt lat="45.71539" lon="5.39706">
        <ele>255</ele>
        <time>2021-06-06T09:57:23.452Z</time>
      </trkpt>
      <trkpt lat="45.71533" lon="5.39697">
        <ele>255</ele>
        <time>2021-06-06T09:57:24.452Z</time>
      </trkpt>
      <trkpt lat="45.71526" lon="5.39689">
        <ele>254</ele>
        <time>2021-06-06T09:57:25.452Z</time>
      </trkpt>
      <trkpt lat="45.71518" lon="5.3968">
        <ele>254</ele>
        <time>2021-06-06T09:57:26.452Z</time>
      </trkpt>
      <trkpt lat="45.7151" lon="5.39673">
        <ele>254</ele>
        <time>2021-06-06T09:57:27.452Z</time>
      </trkpt>
      <trkpt lat="45.71502" lon="5.39666">
        <ele>254</ele>
        <time>2021-06-06T09:57:28.452Z</time>
      </trkpt>
      <trkpt lat="45.71493" lon="5.39661">
        <ele>254</ele>
        <time>2021-06-06T09:57:29.452Z</time>
      </trkpt>
      <trkpt lat="45.71484" lon="5.39656">
        <ele>254</ele>
        <time>2021-06-06T09:57:30.451Z</time>
      </trkpt>
      <trkpt lat="45.71475" lon="5.39652">
        <ele>254</ele>
        <time>2021-06-06T09:57:31.452Z</time>
      </trkpt>
      <trkpt lat="45.71465" lon="5.39649">
        <ele>254</ele>
        <time>2021-06-06T09:57:32.451Z</time>
      </trkpt>
      <trkpt lat="45.71455" lon="5.39647">
        <ele>255</ele>
        <time>2021-06-06T09:57:33.452Z</time>
      </trkpt>
      <trkpt lat="45.71445" lon="5.39646">
        <ele>255</ele>
        <time>2021-06-06T09:57:34.452Z</time>
      </trkpt>
      <trkpt lat="45.71435" lon="5.39646">
        <ele>254</ele>
        <time>2021-06-06T09:57:35.451Z</time>
      </trkpt>
      <trkpt lat="45.71425" lon="5.39646">
        <ele>254</ele>
        <time>2021-06-06T09:57:36.452Z</time>
      </trkpt>
      <trkpt lat="45.71414" lon="5.39648">
        <ele>253</ele>
        <time>2021-06-06T09:57:37.452Z</time>
      </trkpt>
      <trkpt lat="45.71404" lon="5.39649">
        <ele>253</ele>
        <time>2021-06-06T09:57:38.452Z</time>
      </trkpt>
      <trkpt lat="45.71393" lon="5.39652">
        <ele>253</ele>
        <time>2021-06-06T09:57:39.451Z</time>
      </trkpt>
      <trkpt lat="45.71385" lon="5.39654">
        <ele>254</ele>
        <time>2021-06-06T09:57:40.452Z</time>
      </trkpt>
      <trkpt lat="45.71372" lon="5.39657">
        <ele>254</ele>
        <time>2021-06-06T09:57:41.452Z</time>
      </trkpt>
      <trkpt lat="45.71361" lon="5.3966">
        <ele>254</ele>
        <time>2021-06-06T09:57:42.451Z</time>
      </trkpt>
      <trkpt lat="45.7135" lon="5.39662">
        <ele>254</ele>
        <time>2021-06-06T09:57:43.452Z</time>
      </trkpt>
      <trkpt lat="45.71339" lon="5.39665">
        <ele>254</ele>
        <time>2021-06-06T09:57:44.452Z</time>
      </trkpt>
      <trkpt lat="45.7133" lon="5.39667">
        <ele>254</ele>
        <time>2021-06-06T09:57:45.452Z</time>
      </trkpt>
      <trkpt lat="45.71319" lon="5.3967">
        <ele>253</ele>
        <time>2021-06-06T09:57:46.452Z</time>
      </trkpt>
      <trkpt lat="45.71306" lon="5.39673">
        <ele>253</ele>
        <time>2021-06-06T09:57:47.452Z</time>
      </trkpt>
      <trkpt lat="45.71295" lon="5.39676">
        <ele>253</ele>
        <time>2021-06-06T09:57:48.452Z</time>
      </trkpt>
      <trkpt lat="45.71284" lon="5.39679">
        <ele>252</ele>
        <time>2021-06-06T09:57:49.452Z</time>
      </trkpt>
      <trkpt lat="45.71275" lon="5.39681">
        <ele>252</ele>
        <time>2021-06-06T09:57:50.452Z</time>
      </trkpt>
      <trkpt lat="45.71262" lon="5.39684">
        <ele>251</ele>
        <time>2021-06-06T09:57:51.452Z</time>
      </trkpt>
      <trkpt lat="45.71251" lon="5.39686">
        <ele>251</ele>
        <time>2021-06-06T09:57:52.452Z</time>
      </trkpt>
      <trkpt lat="45.7124" lon="5.39688">
        <ele>251</ele>
        <time>2021-06-06T09:57:53.452Z</time>
      </trkpt>
      <trkpt lat="45.71229" lon="5.3969">
        <ele>251</ele>
        <time>2021-06-06T09:57:54.452Z</time>
      </trkpt>
      <trkpt lat="45.71218" lon="5.39692">
        <ele>251</ele>
        <time>2021-06-06T09:57:55.452Z</time>
      </trkpt>
      <trkpt lat="45.71207" lon="5.39693">
        <ele>250</ele>
        <time>2021-06-06T09:57:56.452Z</time>
      </trkpt>
      <trkpt lat="45.71196" lon="5.39693">
        <ele>250</ele>
        <time>2021-06-06T09:57:57.452Z</time>
      </trkpt>
      <trkpt lat="45.71185" lon="5.39692">
        <ele>249</ele>
        <time>2021-06-06T09:57:58.452Z</time>
      </trkpt>
      <trkpt lat="45.71174" lon="5.39692">
        <ele>249</ele>
        <time>2021-06-06T09:57:59.452Z</time>
      </trkpt>
      <trkpt lat="45.71163" lon="5.39691">
        <ele>248</ele>
        <time>2021-06-06T09:58:00.452Z</time>
      </trkpt>
      <trkpt lat="45.71153" lon="5.3969">
        <ele>248</ele>
        <time>2021-06-06T09:58:01.452Z</time>
      </trkpt>
      <trkpt lat="45.71144" lon="5.39689">
        <ele>247</ele>
        <time>2021-06-06T09:58:02.451Z</time>
      </trkpt>
      <trkpt lat="45.71131" lon="5.39688">
        <ele>247</ele>
        <time>2021-06-06T09:58:03.452Z</time>
      </trkpt>
      <trkpt lat="45.71123" lon="5.39687">
        <ele>247</ele>
        <time>2021-06-06T09:58:04.452Z</time>
      </trkpt>
      <trkpt lat="45.71112" lon="5.39686">
        <ele>246</ele>
        <time>2021-06-06T09:58:05.452Z</time>
      </trkpt>
      <trkpt lat="45.71101" lon="5.39685">
        <ele>246</ele>
        <time>2021-06-06T09:58:06.451Z</time>
      </trkpt>
      <trkpt lat="45.71089" lon="5.39683">
        <ele>246</ele>
        <time>2021-06-06T09:58:07.452Z</time>
      </trkpt>
      <trkpt lat="45.71078" lon="5.3968">
        <ele>245</ele>
        <time>2021-06-06T09:58:08.452Z</time>
      </trkpt>
      <trkpt lat="45.7107" lon="5.39678">
        <ele>245</ele>
        <time>2021-06-06T09:58:09.452Z</time>
      </trkpt>
      <trkpt lat="45.7106" lon="5.39674">
        <ele>245</ele>
        <time>2021-06-06T09:58:10.452Z</time>
      </trkpt>
      <trkpt lat="45.71048" lon="5.39668">
        <ele>245</ele>
        <time>2021-06-06T09:58:11.452Z</time>
      </trkpt>
      <trkpt lat="45.71038" lon="5.39663">
        <ele>245</ele>
        <time>2021-06-06T09:58:12.452Z</time>
      </trkpt>
      <trkpt lat="45.71028" lon="5.39659">
        <ele>245</ele>
        <time>2021-06-06T09:58:13.451Z</time>
      </trkpt>
      <trkpt lat="45.71021" lon="5.39655">
        <ele>245</ele>
        <time>2021-06-06T09:58:14.451Z</time>
      </trkpt>
      <trkpt lat="45.71009" lon="5.39648">
        <ele>244</ele>
        <time>2021-06-06T09:58:15.451Z</time>
      </trkpt>
      <trkpt lat="45.71" lon="5.39643">
        <ele>244</ele>
        <time>2021-06-06T09:58:16.452Z</time>
      </trkpt>
      <trkpt lat="45.7099" lon="5.39639">
        <ele>244</ele>
        <time>2021-06-06T09:58:17.452Z</time>
      </trkpt>
      <trkpt lat="45.70981" lon="5.39634">
        <ele>244</ele>
        <time>2021-06-06T09:58:18.452Z</time>
      </trkpt>
      <trkpt lat="45.70971" lon="5.39629">
        <ele>243</ele>
        <time>2021-06-06T09:58:19.452Z</time>
      </trkpt>
      <trkpt lat="45.70962" lon="5.39624">
        <ele>243</ele>
        <time>2021-06-06T09:58:20.452Z</time>
      </trkpt>
      <trkpt lat="45.70952" lon="5.39619">
        <ele>243</ele>
        <time>2021-06-06T09:58:21.452Z</time>
      </trkpt>
      <trkpt lat="45.70943" lon="5.39615">
        <ele>243</ele>
        <time>2021-06-06T09:58:22.452Z</time>
      </trkpt>
      <trkpt lat="45.70933" lon="5.3961">
        <ele>243</ele>
        <time>2021-06-06T09:58:23.452Z</time>
      </trkpt>
      <trkpt lat="45.70924" lon="5.39605">
        <ele>243</ele>
        <time>2021-06-06T09:58:24.451Z</time>
      </trkpt>
      <trkpt lat="45.70915" lon="5.396">
        <ele>242</ele>
        <time>2021-06-06T09:58:25.452Z</time>
      </trkpt>
      <trkpt lat="45.70905" lon="5.39596">
        <ele>242</ele>
        <time>2021-06-06T09:58:26.452Z</time>
      </trkpt>
      <trkpt lat="45.70896" lon="5.39591">
        <ele>242</ele>
        <time>2021-06-06T09:58:27.452Z</time>
      </trkpt>
      <trkpt lat="45.70889" lon="5.39587">
        <ele>242</ele>
        <time>2021-06-06T09:58:28.451Z</time>
      </trkpt>
      <trkpt lat="45.70877" lon="5.39582">
        <ele>242</ele>
        <time>2021-06-06T09:58:29.452Z</time>
      </trkpt>
      <trkpt lat="45.70868" lon="5.39578">
        <ele>242</ele>
        <time>2021-06-06T09:58:30.452Z</time>
      </trkpt>
      <trkpt lat="45.70859" lon="5.39573">
        <ele>242</ele>
        <time>2021-06-06T09:58:31.451Z</time>
      </trkpt>
      <trkpt lat="45.7085" lon="5.39569">
        <ele>242</ele>
        <time>2021-06-06T09:58:32.452Z</time>
      </trkpt>
      <trkpt lat="45.70841" lon="5.39564">
        <ele>241</ele>
        <time>2021-06-06T09:58:33.452Z</time>
      </trkpt>
      <trkpt lat="45.70831" lon="5.3956">
        <ele>242</ele>
        <time>2021-06-06T09:58:34.451Z</time>
      </trkpt>
      <trkpt lat="45.70822" lon="5.39555">
        <ele>242</ele>
        <time>2021-06-06T09:58:35.451Z</time>
      </trkpt>
      <trkpt lat="45.70813" lon="5.39551">
        <ele>243</ele>
        <time>2021-06-06T09:58:36.451Z</time>
      </trkpt>
      <trkpt lat="45.70803" lon="5.39546">
        <ele>243</ele>
        <time>2021-06-06T09:58:37.451Z</time>
      </trkpt>
      <trkpt lat="45.70794" lon="5.39541">
        <ele>243</ele>
        <time>2021-06-06T09:58:38.452Z</time>
      </trkpt>
      <trkpt lat="45.70784" lon="5.39537">
        <ele>243</ele>
        <time>2021-06-06T09:58:39.451Z</time>
      </trkpt>
      <trkpt lat="45.70775" lon="5.39532">
        <ele>243</ele>
        <time>2021-06-06T09:58:40.452Z</time>
      </trkpt>
      <trkpt lat="45.70765" lon="5.39527">
        <ele>243</ele>
        <time>2021-06-06T09:58:41.452Z</time>
      </trkpt>
      <trkpt lat="45.70757" lon="5.39523">
        <ele>243</ele>
        <time>2021-06-06T09:58:42.451Z</time>
      </trkpt>
      <trkpt lat="45.70746" lon="5.39517">
        <ele>243</ele>
        <time>2021-06-06T09:58:43.451Z</time>
      </trkpt>
      <trkpt lat="45.70736" lon="5.39512">
        <ele>242</ele>
        <time>2021-06-06T09:58:44.452Z</time>
      </trkpt>
      <trkpt lat="45.70726" lon="5.39508">
        <ele>242</ele>
        <time>2021-06-06T09:58:45.452Z</time>
      </trkpt>
      <trkpt lat="45.70717" lon="5.39503">
        <ele>242</ele>
        <time>2021-06-06T09:58:46.452Z</time>
      </trkpt>
      <trkpt lat="45.70707" lon="5.39498">
        <ele>242</ele>
        <time>2021-06-06T09:58:47.451Z</time>
      </trkpt>
      <trkpt lat="45.707" lon="5.39494">
        <ele>241</ele>
        <time>2021-06-06T09:58:48.451Z</time>
      </trkpt>
      <trkpt lat="45.70688" lon="5.39488">
        <ele>242</ele>
        <time>2021-06-06T09:58:49.452Z</time>
      </trkpt>
      <trkpt lat="45.70679" lon="5.39484">
        <ele>242</ele>
        <time>2021-06-06T09:58:50.452Z</time>
      </trkpt>
      <trkpt lat="45.70669" lon="5.39479">
        <ele>242</ele>
        <time>2021-06-06T09:58:51.452Z</time>
      </trkpt>
      <trkpt lat="45.7066" lon="5.39474">
        <ele>241</ele>
        <time>2021-06-06T09:58:52.452Z</time>
      </trkpt>
      <trkpt lat="45.70651" lon="5.39469">
        <ele>241</ele>
        <time>2021-06-06T09:58:53.452Z</time>
      </trkpt>
      <trkpt lat="45.70641" lon="5.39464">
        <ele>241</ele>
        <time>2021-06-06T09:58:54.452Z</time>
      </trkpt>
      <trkpt lat="45.70632" lon="5.39458">
        <ele>241</ele>
        <time>2021-06-06T09:58:55.451Z</time>
      </trkpt>
      <trkpt lat="45.70622" lon="5.39452">
        <ele>240</ele>
        <time>2021-06-06T09:58:56.452Z</time>
      </trkpt>
      <trkpt lat="45.70613" lon="5.39445">
        <ele>240</ele>
        <time>2021-06-06T09:58:57.451Z</time>
      </trkpt>
      <trkpt lat="45.70604" lon="5.39438">
        <ele>240</ele>
        <time>2021-06-06T09:58:58.451Z</time>
      </trkpt>
      <trkpt lat="45.70595" lon="5.3943">
        <ele>239</ele>
        <time>2021-06-06T09:58:59.452Z</time>
      </trkpt>
      <trkpt lat="45.70585" lon="5.39422">
        <ele>239</ele>
        <time>2021-06-06T09:59:00.451Z</time>
      </trkpt>
      <trkpt lat="45.70576" lon="5.39413">
        <ele>239</ele>
        <time>2021-06-06T09:59:01.452Z</time>
      </trkpt>
      <trkpt lat="45.70568" lon="5.39404">
        <ele>239</ele>
        <time>2021-06-06T09:59:02.452Z</time>
      </trkpt>
      <trkpt lat="45.70559" lon="5.39395">
        <ele>239</ele>
        <time>2021-06-06T09:59:03.452Z</time>
      </trkpt>
      <trkpt lat="45.7055" lon="5.39385">
        <ele>239</ele>
        <time>2021-06-06T09:59:04.452Z</time>
      </trkpt>
      <trkpt lat="45.70542" lon="5.39375">
        <ele>238</ele>
        <time>2021-06-06T09:59:05.452Z</time>
      </trkpt>
      <trkpt lat="45.70534" lon="5.39365">
        <ele>238</ele>
        <time>2021-06-06T09:59:06.452Z</time>
      </trkpt>
      <trkpt lat="45.70526" lon="5.39354">
        <ele>238</ele>
        <time>2021-06-06T09:59:07.452Z</time>
      </trkpt>
      <trkpt lat="45.70518" lon="5.39344">
        <ele>238</ele>
        <time>2021-06-06T09:59:08.451Z</time>
      </trkpt>
      <trkpt lat="45.7051" lon="5.39334">
        <ele>238</ele>
        <time>2021-06-06T09:59:09.452Z</time>
      </trkpt>
      <trkpt lat="45.70502" lon="5.39323">
        <ele>238</ele>
        <time>2021-06-06T09:59:10.452Z</time>
      </trkpt>
      <trkpt lat="45.70495" lon="5.39313">
        <ele>238</ele>
        <time>2021-06-06T09:59:11.452Z</time>
      </trkpt>
      <trkpt lat="45.70487" lon="5.39303">
        <ele>237</ele>
        <time>2021-06-06T09:59:12.452Z</time>
      </trkpt>
      <trkpt lat="45.70481" lon="5.39295">
        <ele>237</ele>
        <time>2021-06-06T09:59:13.452Z</time>
      </trkpt>
      <trkpt lat="45.70471" lon="5.39282">
        <ele>236</ele>
        <time>2021-06-06T09:59:14.452Z</time>
      </trkpt>
      <trkpt lat="45.70463" lon="5.39272">
        <ele>236</ele>
        <time>2021-06-06T09:59:15.452Z</time>
      </trkpt>
      <trkpt lat="45.70455" lon="5.39262">
        <ele>236</ele>
        <time>2021-06-06T09:59:16.451Z</time>
      </trkpt>
      <trkpt lat="45.70447" lon="5.39251">
        <ele>236</ele>
        <time>2021-06-06T09:59:17.452Z</time>
      </trkpt>
      <trkpt lat="45.70439" lon="5.39241">
        <ele>236</ele>
        <time>2021-06-06T09:59:18.452Z</time>
      </trkpt>
      <trkpt lat="45.70431" lon="5.3923">
        <ele>235</ele>
        <time>2021-06-06T09:59:19.452Z</time>
      </trkpt>
      <trkpt lat="45.70423" lon="5.3922">
        <ele>235</ele>
        <time>2021-06-06T09:59:20.452Z</time>
      </trkpt>
      <trkpt lat="45.70415" lon="5.39209">
        <ele>235</ele>
        <time>2021-06-06T09:59:21.452Z</time>
      </trkpt>
      <trkpt lat="45.70407" lon="5.39199">
        <ele>235</ele>
        <time>2021-06-06T09:59:22.451Z</time>
      </trkpt>
      <trkpt lat="45.70399" lon="5.39188">
        <ele>234</ele>
        <time>2021-06-06T09:59:23.452Z</time>
      </trkpt>
      <trkpt lat="45.70391" lon="5.39177">
        <ele>234</ele>
        <time>2021-06-06T09:59:24.452Z</time>
      </trkpt>
      <trkpt lat="45.70382" lon="5.39167">
        <ele>234</ele>
        <time>2021-06-06T09:59:25.451Z</time>
      </trkpt>
      <trkpt lat="45.70374" lon="5.39157">
        <ele>235</ele>
        <time>2021-06-06T09:59:26.452Z</time>
      </trkpt>
      <trkpt lat="45.70366" lon="5.39146">
        <ele>235</ele>
        <time>2021-06-06T09:59:27.452Z</time>
      </trkpt>
      <trkpt lat="45.70358" lon="5.39136">
        <ele>235</ele>
        <time>2021-06-06T09:59:28.452Z</time>
      </trkpt>
      <trkpt lat="45.7035" lon="5.39125">
        <ele>234</ele>
        <time>2021-06-06T09:59:29.452Z</time>
      </trkpt>
      <trkpt lat="45.70343" lon="5.39115">
        <ele>234</ele>
        <time>2021-06-06T09:59:30.452Z</time>
      </trkpt>
      <trkpt lat="45.70334" lon="5.39105">
        <ele>234</ele>
        <time>2021-06-06T09:59:31.451Z</time>
      </trkpt>
      <trkpt lat="45.70326" lon="5.39095">
        <ele>233</ele>
        <time>2021-06-06T09:59:32.452Z</time>
      </trkpt>
      <trkpt lat="45.70319" lon="5.39084">
        <ele>233</ele>
        <time>2021-06-06T09:59:33.452Z</time>
      </trkpt>
      <trkpt lat="45.70311" lon="5.39074">
        <ele>232</ele>
        <time>2021-06-06T09:59:34.452Z</time>
      </trkpt>
      <trkpt lat="45.70303" lon="5.39064">
        <ele>232</ele>
        <time>2021-06-06T09:59:35.452Z</time>
      </trkpt>
      <trkpt lat="45.70295" lon="5.39054">
        <ele>232</ele>
        <time>2021-06-06T09:59:36.452Z</time>
      </trkpt>
      <trkpt lat="45.70288" lon="5.39044">
        <ele>232</ele>
        <time>2021-06-06T09:59:37.452Z</time>
      </trkpt>
      <trkpt lat="45.7028" lon="5.39034">
        <ele>232</ele>
        <time>2021-06-06T09:59:38.452Z</time>
      </trkpt>
      <trkpt lat="45.70272" lon="5.39025">
        <ele>232</ele>
        <time>2021-06-06T09:59:39.452Z</time>
      </trkpt>
      <trkpt lat="45.70265" lon="5.39015">
        <ele>231</ele>
        <time>2021-06-06T09:59:40.451Z</time>
      </trkpt>
      <trkpt lat="45.70259" lon="5.39007">
        <ele>232</ele>
        <time>2021-06-06T09:59:41.451Z</time>
      </trkpt>
      <trkpt lat="45.7025" lon="5.38996">
        <ele>232</ele>
        <time>2021-06-06T09:59:42.451Z</time>
      </trkpt>
      <trkpt lat="45.70242" lon="5.38986">
        <ele>231</ele>
        <time>2021-06-06T09:59:43.451Z</time>
      </trkpt>
      <trkpt lat="45.70235" lon="5.38977">
        <ele>231</ele>
        <time>2021-06-06T09:59:44.452Z</time>
      </trkpt>
      <trkpt lat="45.70228" lon="5.38968">
        <ele>231</ele>
        <time>2021-06-06T09:59:45.452Z</time>
      </trkpt>
      <trkpt lat="45.70222" lon="5.3896">
        <ele>231</ele>
        <time>2021-06-06T09:59:46.451Z</time>
      </trkpt>
      <trkpt lat="45.70213" lon="5.38949">
        <ele>231</ele>
        <time>2021-06-06T09:59:47.451Z</time>
      </trkpt>
      <trkpt lat="45.70208" lon="5.38942">
        <ele>231</ele>
        <time>2021-06-06T09:59:48.452Z</time>
      </trkpt>
      <trkpt lat="45.70199" lon="5.38931">
        <ele>231</ele>
        <time>2021-06-06T09:59:49.451Z</time>
      </trkpt>
      <trkpt lat="45.70194" lon="5.38924">
        <ele>231</ele>
        <time>2021-06-06T09:59:50.451Z</time>
      </trkpt>
      <trkpt lat="45.70187" lon="5.38916">
        <ele>231</ele>
        <time>2021-06-06T09:59:51.451Z</time>
      </trkpt>
      <trkpt lat="45.70178" lon="5.38905">
        <ele>231</ele>
        <time>2021-06-06T09:59:52.452Z</time>
      </trkpt>
      <trkpt lat="45.70171" lon="5.38896">
        <ele>231</ele>
        <time>2021-06-06T09:59:53.451Z</time>
      </trkpt>
      <trkpt lat="45.70164" lon="5.38887">
        <ele>231</ele>
        <time>2021-06-06T09:59:54.451Z</time>
      </trkpt>
      <trkpt lat="45.70158" lon="5.38879">
        <ele>230</ele>
        <time>2021-06-06T09:59:55.452Z</time>
      </trkpt>
      <trkpt lat="45.70152" lon="5.38872">
        <ele>230</ele>
        <time>2021-06-06T09:59:56.452Z</time>
      </trkpt>
      <trkpt lat="45.70145" lon="5.38863">
        <ele>230</ele>
        <time>2021-06-06T09:59:57.452Z</time>
      </trkpt>
      <trkpt lat="45.70139" lon="5.38854">
        <ele>231</ele>
        <time>2021-06-06T09:59:58.451Z</time>
      </trkpt>
      <trkpt lat="45.70132" lon="5.38845">
        <ele>230</ele>
        <time>2021-06-06T09:59:59.452Z</time>
      </trkpt>
      <trkpt lat="45.70125" lon="5.38836">
        <ele>230</ele>
        <time>2021-06-06T10:00:00.452Z</time>
      </trkpt>
      <trkpt lat="45.70118" lon="5.38828">
        <ele>230</ele>
        <time>2021-06-06T10:00:01.452Z</time>
      </trkpt>
      <trkpt lat="45.70112" lon="5.38819">
        <ele>230</ele>
        <time>2021-06-06T10:00:02.452Z</time>
      </trkpt>
      <trkpt lat="45.70103" lon="5.38809">
        <ele>230</ele>
        <time>2021-06-06T10:00:03.452Z</time>
      </trkpt>
      <trkpt lat="45.70098" lon="5.38802">
        <ele>230</ele>
        <time>2021-06-06T10:00:04.452Z</time>
      </trkpt>
      <trkpt lat="45.70091" lon="5.38793">
        <ele>229</ele>
        <time>2021-06-06T10:00:05.452Z</time>
      </trkpt>
      <trkpt lat="45.70085" lon="5.38785">
        <ele>230</ele>
        <time>2021-06-06T10:00:06.452Z</time>
      </trkpt>
      <trkpt lat="45.70077" lon="5.38775">
        <ele>230</ele>
        <time>2021-06-06T10:00:07.452Z</time>
      </trkpt>
      <trkpt lat="45.70071" lon="5.38768">
        <ele>229</ele>
        <time>2021-06-06T10:00:08.452Z</time>
      </trkpt>
      <trkpt lat="45.70064" lon="5.38758">
        <ele>230</ele>
        <time>2021-06-06T10:00:09.451Z</time>
      </trkpt>
      <trkpt lat="45.70057" lon="5.38749">
        <ele>230</ele>
        <time>2021-06-06T10:00:10.452Z</time>
      </trkpt>
      <trkpt lat="45.70052" lon="5.38742">
        <ele>230</ele>
        <time>2021-06-06T10:00:11.452Z</time>
      </trkpt>
      <trkpt lat="45.70045" lon="5.38734">
        <ele>229</ele>
        <time>2021-06-06T10:00:12.452Z</time>
      </trkpt>
      <trkpt lat="45.70038" lon="5.38725">
        <ele>229</ele>
        <time>2021-06-06T10:00:13.452Z</time>
      </trkpt>
      <trkpt lat="45.70032" lon="5.38717">
        <ele>229</ele>
        <time>2021-06-06T10:00:14.451Z</time>
      </trkpt>
      <trkpt lat="45.70025" lon="5.38708">
        <ele>229</ele>
        <time>2021-06-06T10:00:15.452Z</time>
      </trkpt>
      <trkpt lat="45.70019" lon="5.387">
        <ele>230</ele>
        <time>2021-06-06T10:00:16.451Z</time>
      </trkpt>
      <trkpt lat="45.70012" lon="5.38691">
        <ele>230</ele>
        <time>2021-06-06T10:00:17.452Z</time>
      </trkpt>
      <trkpt lat="45.70006" lon="5.38683">
        <ele>230</ele>
        <time>2021-06-06T10:00:18.452Z</time>
      </trkpt>
      <trkpt lat="45.69999" lon="5.38674">
        <ele>230</ele>
        <time>2021-06-06T10:00:19.452Z</time>
      </trkpt>
      <trkpt lat="45.69992" lon="5.38666">
        <ele>230</ele>
        <time>2021-06-06T10:00:20.452Z</time>
      </trkpt>
      <trkpt lat="45.69986" lon="5.38658">
        <ele>229</ele>
        <time>2021-06-06T10:00:21.451Z</time>
      </trkpt>
      <trkpt lat="45.69978" lon="5.38648">
        <ele>229</ele>
        <time>2021-06-06T10:00:22.452Z</time>
      </trkpt>
      <trkpt lat="45.69971" lon="5.3864">
        <ele>228</ele>
        <time>2021-06-06T10:00:23.451Z</time>
      </trkpt>
      <trkpt lat="45.69965" lon="5.38631">
        <ele>228</ele>
        <time>2021-06-06T10:00:24.451Z</time>
      </trkpt>
      <trkpt lat="45.6996" lon="5.38624">
        <ele>228</ele>
        <time>2021-06-06T10:00:25.452Z</time>
      </trkpt>
      <trkpt lat="45.69953" lon="5.38616">
        <ele>227</ele>
        <time>2021-06-06T10:00:26.451Z</time>
      </trkpt>
      <trkpt lat="45.69947" lon="5.38608">
        <ele>227</ele>
        <time>2021-06-06T10:00:27.452Z</time>
      </trkpt>
      <trkpt lat="45.6994" lon="5.38599">
        <ele>227</ele>
        <time>2021-06-06T10:00:28.451Z</time>
      </trkpt>
      <trkpt lat="45.69933" lon="5.38589">
        <ele>227</ele>
        <time>2021-06-06T10:00:29.452Z</time>
      </trkpt>
      <trkpt lat="45.69927" lon="5.38583">
        <ele>227</ele>
        <time>2021-06-06T10:00:30.451Z</time>
      </trkpt>
      <trkpt lat="45.69921" lon="5.38574">
        <ele>227</ele>
        <time>2021-06-06T10:00:31.452Z</time>
      </trkpt>
      <trkpt lat="45.69913" lon="5.38564">
        <ele>227</ele>
        <time>2021-06-06T10:00:32.452Z</time>
      </trkpt>
      <trkpt lat="45.69908" lon="5.38558">
        <ele>226</ele>
        <time>2021-06-06T10:00:33.451Z</time>
      </trkpt>
      <trkpt lat="45.69902" lon="5.38549">
        <ele>226</ele>
        <time>2021-06-06T10:00:34.451Z</time>
      </trkpt>
      <trkpt lat="45.69895" lon="5.38541">
        <ele>226</ele>
        <time>2021-06-06T10:00:35.452Z</time>
      </trkpt>
      <trkpt lat="45.69889" lon="5.38532">
        <ele>225</ele>
        <time>2021-06-06T10:00:36.452Z</time>
      </trkpt>
      <trkpt lat="45.69881" lon="5.38522">
        <ele>226</ele>
        <time>2021-06-06T10:00:37.452Z</time>
      </trkpt>
      <trkpt lat="45.69874" lon="5.38513">
        <ele>226</ele>
        <time>2021-06-06T10:00:38.452Z</time>
      </trkpt>
      <trkpt lat="45.69868" lon="5.38506">
        <ele>226</ele>
        <time>2021-06-06T10:00:39.452Z</time>
      </trkpt>
      <trkpt lat="45.69862" lon="5.38497">
        <ele>227</ele>
        <time>2021-06-06T10:00:40.451Z</time>
      </trkpt>
      <trkpt lat="45.69855" lon="5.38488">
        <ele>226</ele>
        <time>2021-06-06T10:00:41.452Z</time>
      </trkpt>
      <trkpt lat="45.69848" lon="5.3848">
        <ele>226</ele>
        <time>2021-06-06T10:00:42.451Z</time>
      </trkpt>
      <trkpt lat="45.6984" lon="5.38469">
        <ele>226</ele>
        <time>2021-06-06T10:00:43.452Z</time>
      </trkpt>
      <trkpt lat="45.69834" lon="5.38462">
        <ele>226</ele>
        <time>2021-06-06T10:00:44.451Z</time>
      </trkpt>
      <trkpt lat="45.69827" lon="5.38454">
        <ele>226</ele>
        <time>2021-06-06T10:00:45.452Z</time>
      </trkpt>
      <trkpt lat="45.69821" lon="5.38446">
        <ele>225</ele>
        <time>2021-06-06T10:00:46.451Z</time>
      </trkpt>
      <trkpt lat="45.69815" lon="5.38438">
        <ele>224</ele>
        <time>2021-06-06T10:00:47.452Z</time>
      </trkpt>
      <trkpt lat="45.69808" lon="5.3843">
        <ele>224</ele>
        <time>2021-06-06T10:00:48.451Z</time>
      </trkpt>
      <trkpt lat="45.69803" lon="5.38422">
        <ele>223</ele>
        <time>2021-06-06T10:00:49.452Z</time>
      </trkpt>
      <trkpt lat="45.69797" lon="5.38415">
        <ele>223</ele>
        <time>2021-06-06T10:00:50.452Z</time>
      </trkpt>
      <trkpt lat="45.69791" lon="5.38408">
        <ele>224</ele>
        <time>2021-06-06T10:00:51.452Z</time>
      </trkpt>
      <trkpt lat="45.69785" lon="5.38401">
        <ele>224</ele>
        <time>2021-06-06T10:00:52.452Z</time>
      </trkpt>
      <trkpt lat="45.6978" lon="5.38394">
        <ele>224</ele>
        <time>2021-06-06T10:00:53.452Z</time>
      </trkpt>
      <trkpt lat="45.69774" lon="5.38387">
        <ele>224</ele>
        <time>2021-06-06T10:00:54.451Z</time>
      </trkpt>
      <trkpt lat="45.69769" lon="5.38381">
        <ele>224</ele>
        <time>2021-06-06T10:00:55.452Z</time>
      </trkpt>
      <trkpt lat="45.69764" lon="5.38374">
        <ele>225</ele>
        <time>2021-06-06T10:00:56.452Z</time>
      </trkpt>
      <trkpt lat="45.69759" lon="5.38367">
        <ele>225</ele>
        <time>2021-06-06T10:00:57.452Z</time>
      </trkpt>
      <trkpt lat="45.69753" lon="5.38359">
        <ele>226</ele>
        <time>2021-06-06T10:00:58.452Z</time>
      </trkpt>
      <trkpt lat="45.69748" lon="5.38353">
        <ele>226</ele>
        <time>2021-06-06T10:00:59.452Z</time>
      </trkpt>
      <trkpt lat="45.69744" lon="5.38347">
        <ele>226</ele>
        <time>2021-06-06T10:01:00.452Z</time>
      </trkpt>
      <trkpt lat="45.69738" lon="5.3834">
        <ele>226</ele>
        <time>2021-06-06T10:01:01.452Z</time>
      </trkpt>
      <trkpt lat="45.69733" lon="5.38334">
        <ele>226</ele>
        <time>2021-06-06T10:01:02.452Z</time>
      </trkpt>
      <trkpt lat="45.69728" lon="5.38327">
        <ele>226</ele>
        <time>2021-06-06T10:01:03.452Z</time>
      </trkpt>
      <trkpt lat="45.69723" lon="5.38321">
        <ele>226</ele>
        <time>2021-06-06T10:01:04.452Z</time>
      </trkpt>
      <trkpt lat="45.69717" lon="5.38314">
        <ele>226</ele>
        <time>2021-06-06T10:01:05.452Z</time>
      </trkpt>
      <trkpt lat="45.69712" lon="5.38308">
        <ele>226</ele>
        <time>2021-06-06T10:01:06.452Z</time>
      </trkpt>
      <trkpt lat="45.69707" lon="5.38301">
        <ele>227</ele>
        <time>2021-06-06T10:01:07.451Z</time>
      </trkpt>
      <trkpt lat="45.69701" lon="5.38294">
        <ele>227</ele>
        <time>2021-06-06T10:01:08.452Z</time>
      </trkpt>
      <trkpt lat="45.69696" lon="5.38287">
        <ele>227</ele>
        <time>2021-06-06T10:01:09.451Z</time>
      </trkpt>
      <trkpt lat="45.69691" lon="5.3828">
        <ele>227</ele>
        <time>2021-06-06T10:01:10.452Z</time>
      </trkpt>
      <trkpt lat="45.69685" lon="5.38273">
        <ele>228</ele>
        <time>2021-06-06T10:01:11.452Z</time>
      </trkpt>
      <trkpt lat="45.69679" lon="5.38265">
        <ele>228</ele>
        <time>2021-06-06T10:01:12.452Z</time>
      </trkpt>
      <trkpt lat="45.69674" lon="5.38258">
        <ele>228</ele>
        <time>2021-06-06T10:01:13.451Z</time>
      </trkpt>
      <trkpt lat="45.69668" lon="5.38251">
        <ele>229</ele>
        <time>2021-06-06T10:01:14.452Z</time>
      </trkpt>
      <trkpt lat="45.69662" lon="5.38243">
        <ele>229</ele>
        <time>2021-06-06T10:01:15.452Z</time>
      </trkpt>
      <trkpt lat="45.69656" lon="5.38236">
        <ele>229</ele>
        <time>2021-06-06T10:01:16.451Z</time>
      </trkpt>
      <trkpt lat="45.6965" lon="5.38228">
        <ele>229</ele>
        <time>2021-06-06T10:01:17.451Z</time>
      </trkpt>
      <trkpt lat="45.69644" lon="5.3822">
        <ele>229</ele>
        <time>2021-06-06T10:01:18.452Z</time>
      </trkpt>
      <trkpt lat="45.69638" lon="5.38213">
        <ele>229</ele>
        <time>2021-06-06T10:01:19.452Z</time>
      </trkpt>
      <trkpt lat="45.69632" lon="5.38205">
        <ele>228</ele>
        <time>2021-06-06T10:01:20.452Z</time>
      </trkpt>
      <trkpt lat="45.69626" lon="5.38197">
        <ele>228</ele>
        <time>2021-06-06T10:01:21.451Z</time>
      </trkpt>
      <trkpt lat="45.6962" lon="5.38189">
        <ele>228</ele>
        <time>2021-06-06T10:01:22.451Z</time>
      </trkpt>
      <trkpt lat="45.69612" lon="5.38179">
        <ele>228</ele>
        <time>2021-06-06T10:01:23.452Z</time>
      </trkpt>
      <trkpt lat="45.69606" lon="5.38171">
        <ele>228</ele>
        <time>2021-06-06T10:01:24.452Z</time>
      </trkpt>
      <trkpt lat="45.69601" lon="5.38165">
        <ele>228</ele>
        <time>2021-06-06T10:01:25.452Z</time>
      </trkpt>
      <trkpt lat="45.69595" lon="5.38157">
        <ele>228</ele>
        <time>2021-06-06T10:01:26.452Z</time>
      </trkpt>
      <trkpt lat="45.69589" lon="5.38148">
        <ele>228</ele>
        <time>2021-06-06T10:01:27.452Z</time>
      </trkpt>
      <trkpt lat="45.69582" lon="5.3814">
        <ele>228</ele>
        <time>2021-06-06T10:01:28.452Z</time>
      </trkpt>
      <trkpt lat="45.69575" lon="5.38132">
        <ele>228</ele>
        <time>2021-06-06T10:01:29.452Z</time>
      </trkpt>
      <trkpt lat="45.69569" lon="5.38124">
        <ele>228</ele>
        <time>2021-06-06T10:01:30.452Z</time>
      </trkpt>
      <trkpt lat="45.69561" lon="5.38113">
        <ele>228</ele>
        <time>2021-06-06T10:01:31.452Z</time>
      </trkpt>
      <trkpt lat="45.69554" lon="5.38105">
        <ele>228</ele>
        <time>2021-06-06T10:01:32.452Z</time>
      </trkpt>
      <trkpt lat="45.69548" lon="5.38096">
        <ele>228</ele>
        <time>2021-06-06T10:01:33.452Z</time>
      </trkpt>
      <trkpt lat="45.69542" lon="5.38089">
        <ele>228</ele>
        <time>2021-06-06T10:01:34.451Z</time>
      </trkpt>
      <trkpt lat="45.69536" lon="5.38081">
        <ele>229</ele>
        <time>2021-06-06T10:01:35.452Z</time>
      </trkpt>
      <trkpt lat="45.69527" lon="5.38071">
        <ele>229</ele>
        <time>2021-06-06T10:01:36.451Z</time>
      </trkpt>
      <trkpt lat="45.69521" lon="5.38062">
        <ele>229</ele>
        <time>2021-06-06T10:01:37.451Z</time>
      </trkpt>
      <trkpt lat="45.69515" lon="5.38055">
        <ele>229</ele>
        <time>2021-06-06T10:01:38.452Z</time>
      </trkpt>
      <trkpt lat="45.69509" lon="5.38046">
        <ele>230</ele>
        <time>2021-06-06T10:01:39.452Z</time>
      </trkpt>
      <trkpt lat="45.69502" lon="5.38037">
        <ele>230</ele>
        <time>2021-06-06T10:01:40.452Z</time>
      </trkpt>
      <trkpt lat="45.69495" lon="5.38029">
        <ele>230</ele>
        <time>2021-06-06T10:01:41.452Z</time>
      </trkpt>
      <trkpt lat="45.69488" lon="5.3802">
        <ele>230</ele>
        <time>2021-06-06T10:01:42.452Z</time>
      </trkpt>
      <trkpt lat="45.6948" lon="5.3801">
        <ele>230</ele>
        <time>2021-06-06T10:01:43.452Z</time>
      </trkpt>
      <trkpt lat="45.69473" lon="5.38001">
        <ele>230</ele>
        <time>2021-06-06T10:01:44.451Z</time>
      </trkpt>
      <trkpt lat="45.69466" lon="5.37991">
        <ele>229</ele>
        <time>2021-06-06T10:01:45.452Z</time>
      </trkpt>
      <trkpt lat="45.69458" lon="5.37982">
        <ele>229</ele>
        <time>2021-06-06T10:01:46.452Z</time>
      </trkpt>
      <trkpt lat="45.69451" lon="5.37973">
        <ele>229</ele>
        <time>2021-06-06T10:01:47.451Z</time>
      </trkpt>
      <trkpt lat="45.69442" lon="5.37962">
        <ele>229</ele>
        <time>2021-06-06T10:01:48.452Z</time>
      </trkpt>
      <trkpt lat="45.69437" lon="5.37954">
        <ele>229</ele>
        <time>2021-06-06T10:01:49.451Z</time>
      </trkpt>
      <trkpt lat="45.6943" lon="5.37945">
        <ele>229</ele>
        <time>2021-06-06T10:01:50.452Z</time>
      </trkpt>
      <trkpt lat="45.69422" lon="5.37936">
        <ele>229</ele>
        <time>2021-06-06T10:01:51.452Z</time>
      </trkpt>
      <trkpt lat="45.69415" lon="5.37927">
        <ele>228</ele>
        <time>2021-06-06T10:01:52.452Z</time>
      </trkpt>
      <trkpt lat="45.69408" lon="5.37918">
        <ele>228</ele>
        <time>2021-06-06T10:01:53.451Z</time>
      </trkpt>
      <trkpt lat="45.69401" lon="5.3791">
        <ele>228</ele>
        <time>2021-06-06T10:01:54.452Z</time>
      </trkpt>
      <trkpt lat="45.69394" lon="5.37901">
        <ele>227</ele>
        <time>2021-06-06T10:01:55.451Z</time>
      </trkpt>
      <trkpt lat="45.69388" lon="5.37893">
        <ele>227</ele>
        <time>2021-06-06T10:01:56.452Z</time>
      </trkpt>
      <trkpt lat="45.6938" lon="5.37882">
        <ele>227</ele>
        <time>2021-06-06T10:01:57.452Z</time>
      </trkpt>
      <trkpt lat="45.69373" lon="5.37874">
        <ele>227</ele>
        <time>2021-06-06T10:01:58.452Z</time>
      </trkpt>
      <trkpt lat="45.69367" lon="5.37866">
        <ele>227</ele>
        <time>2021-06-06T10:01:59.452Z</time>
      </trkpt>
      <trkpt lat="45.69362" lon="5.37859">
        <ele>228</ele>
        <time>2021-06-06T10:02:00.452Z</time>
      </trkpt>
      <trkpt lat="45.69354" lon="5.37849">
        <ele>228</ele>
        <time>2021-06-06T10:02:01.452Z</time>
      </trkpt>
      <trkpt lat="45.69348" lon="5.37841">
        <ele>228</ele>
        <time>2021-06-06T10:02:02.452Z</time>
      </trkpt>
      <trkpt lat="45.69341" lon="5.37833">
        <ele>228</ele>
        <time>2021-06-06T10:02:03.452Z</time>
      </trkpt>
      <trkpt lat="45.69336" lon="5.37826">
        <ele>229</ele>
        <time>2021-06-06T10:02:04.452Z</time>
      </trkpt>
      <trkpt lat="45.6933" lon="5.37818">
        <ele>229</ele>
        <time>2021-06-06T10:02:05.452Z</time>
      </trkpt>
      <trkpt lat="45.69322" lon="5.37808">
        <ele>229</ele>
        <time>2021-06-06T10:02:06.451Z</time>
      </trkpt>
      <trkpt lat="45.69317" lon="5.37801">
        <ele>230</ele>
        <time>2021-06-06T10:02:07.452Z</time>
      </trkpt>
      <trkpt lat="45.69311" lon="5.37793">
        <ele>230</ele>
        <time>2021-06-06T10:02:08.451Z</time>
      </trkpt>
      <trkpt lat="45.69303" lon="5.37784">
        <ele>230</ele>
        <time>2021-06-06T10:02:09.451Z</time>
      </trkpt>
      <trkpt lat="45.69298" lon="5.37777">
        <ele>230</ele>
        <time>2021-06-06T10:02:10.452Z</time>
      </trkpt>
      <trkpt lat="45.69291" lon="5.37769">
        <ele>229</ele>
        <time>2021-06-06T10:02:11.452Z</time>
      </trkpt>
      <trkpt lat="45.69285" lon="5.37761">
        <ele>229</ele>
        <time>2021-06-06T10:02:12.451Z</time>
      </trkpt>
      <trkpt lat="45.69279" lon="5.37753">
        <ele>229</ele>
        <time>2021-06-06T10:02:13.452Z</time>
      </trkpt>
      <trkpt lat="45.69272" lon="5.37745">
        <ele>229</ele>
        <time>2021-06-06T10:02:14.452Z</time>
      </trkpt>
      <trkpt lat="45.69266" lon="5.37737">
        <ele>229</ele>
        <time>2021-06-06T10:02:15.452Z</time>
      </trkpt>
      <trkpt lat="45.6926" lon="5.37728">
        <ele>228</ele>
        <time>2021-06-06T10:02:16.452Z</time>
      </trkpt>
      <trkpt lat="45.69252" lon="5.37719">
        <ele>228</ele>
        <time>2021-06-06T10:02:17.452Z</time>
      </trkpt>
      <trkpt lat="45.69245" lon="5.3771">
        <ele>228</ele>
        <time>2021-06-06T10:02:18.452Z</time>
      </trkpt>
      <trkpt lat="45.6924" lon="5.37704">
        <ele>228</ele>
        <time>2021-06-06T10:02:19.452Z</time>
      </trkpt>
      <trkpt lat="45.69233" lon="5.37696">
        <ele>228</ele>
        <time>2021-06-06T10:02:20.452Z</time>
      </trkpt>
      <trkpt lat="45.69226" lon="5.37686">
        <ele>228</ele>
        <time>2021-06-06T10:02:21.452Z</time>
      </trkpt>
      <trkpt lat="45.69219" lon="5.37677">
        <ele>229</ele>
        <time>2021-06-06T10:02:22.451Z</time>
      </trkpt>
      <trkpt lat="45.69213" lon="5.37669">
        <ele>229</ele>
        <time>2021-06-06T10:02:23.452Z</time>
      </trkpt>
      <trkpt lat="45.69206" lon="5.3766">
        <ele>229</ele>
        <time>2021-06-06T10:02:24.452Z</time>
      </trkpt>
      <trkpt lat="45.692" lon="5.37652">
        <ele>229</ele>
        <time>2021-06-06T10:02:25.452Z</time>
      </trkpt>
      <trkpt lat="45.69194" lon="5.37645">
        <ele>229</ele>
        <time>2021-06-06T10:02:26.451Z</time>
      </trkpt>
      <trkpt lat="45.69187" lon="5.37636">
        <ele>229</ele>
        <time>2021-06-06T10:02:27.452Z</time>
      </trkpt>
      <trkpt lat="45.6918" lon="5.37627">
        <ele>229</ele>
        <time>2021-06-06T10:02:28.451Z</time>
      </trkpt>
      <trkpt lat="45.69175" lon="5.3762">
        <ele>229</ele>
        <time>2021-06-06T10:02:29.451Z</time>
      </trkpt>
      <trkpt lat="45.69167" lon="5.3761">
        <ele>229</ele>
        <time>2021-06-06T10:02:30.452Z</time>
      </trkpt>
      <trkpt lat="45.6916" lon="5.37603">
        <ele>229</ele>
        <time>2021-06-06T10:02:31.452Z</time>
      </trkpt>
      <trkpt lat="45.69154" lon="5.37594">
        <ele>228</ele>
        <time>2021-06-06T10:02:32.452Z</time>
      </trkpt>
      <trkpt lat="45.69147" lon="5.37586">
        <ele>228</ele>
        <time>2021-06-06T10:02:33.451Z</time>
      </trkpt>
      <trkpt lat="45.69142" lon="5.37579">
        <ele>228</ele>
        <time>2021-06-06T10:02:34.452Z</time>
      </trkpt>
      <trkpt lat="45.69135" lon="5.37571">
        <ele>228</ele>
        <time>2021-06-06T10:02:35.452Z</time>
      </trkpt>
      <trkpt lat="45.69129" lon="5.37563">
        <ele>228</ele>
        <time>2021-06-06T10:02:36.451Z</time>
      </trkpt>
      <trkpt lat="45.69121" lon="5.37552">
        <ele>228</ele>
        <time>2021-06-06T10:02:37.452Z</time>
      </trkpt>
      <trkpt lat="45.69114" lon="5.37544">
        <ele>228</ele>
        <time>2021-06-06T10:02:38.452Z</time>
      </trkpt>
      <trkpt lat="45.69108" lon="5.37537">
        <ele>228</ele>
        <time>2021-06-06T10:02:39.451Z</time>
      </trkpt>
      <trkpt lat="45.69102" lon="5.37528">
        <ele>228</ele>
        <time>2021-06-06T10:02:40.451Z</time>
      </trkpt>
      <trkpt lat="45.69094" lon="5.37518">
        <ele>228</ele>
        <time>2021-06-06T10:02:41.451Z</time>
      </trkpt>
      <trkpt lat="45.69087" lon="5.37509">
        <ele>228</ele>
        <time>2021-06-06T10:02:42.452Z</time>
      </trkpt>
      <trkpt lat="45.6908" lon="5.375">
        <ele>228</ele>
        <time>2021-06-06T10:02:43.451Z</time>
      </trkpt>
      <trkpt lat="45.69075" lon="5.37493">
        <ele>228</ele>
        <time>2021-06-06T10:02:44.452Z</time>
      </trkpt>
      <trkpt lat="45.69068" lon="5.37484">
        <ele>228</ele>
        <time>2021-06-06T10:02:45.451Z</time>
      </trkpt>
      <trkpt lat="45.69061" lon="5.37476">
        <ele>228</ele>
        <time>2021-06-06T10:02:46.452Z</time>
      </trkpt>
      <trkpt lat="45.69055" lon="5.37467">
        <ele>227</ele>
        <time>2021-06-06T10:02:47.452Z</time>
      </trkpt>
      <trkpt lat="45.69047" lon="5.37457">
        <ele>227</ele>
        <time>2021-06-06T10:02:48.452Z</time>
      </trkpt>
      <trkpt lat="45.69042" lon="5.37451">
        <ele>226</ele>
        <time>2021-06-06T10:02:49.452Z</time>
      </trkpt>
      <trkpt lat="45.69035" lon="5.37443">
        <ele>225</ele>
        <time>2021-06-06T10:02:50.452Z</time>
      </trkpt>
      <trkpt lat="45.69029" lon="5.37435">
        <ele>225</ele>
        <time>2021-06-06T10:02:51.452Z</time>
      </trkpt>
      <trkpt lat="45.69024" lon="5.37427">
        <ele>225</ele>
        <time>2021-06-06T10:02:52.452Z</time>
      </trkpt>
      <trkpt lat="45.69018" lon="5.37421">
        <ele>225</ele>
        <time>2021-06-06T10:02:53.452Z</time>
      </trkpt>
      <trkpt lat="45.69013" lon="5.37415">
        <ele>224</ele>
        <time>2021-06-06T10:02:54.452Z</time>
      </trkpt>
      <trkpt lat="45.69009" lon="5.37411">
        <ele>224</ele>
        <time>2021-06-06T10:02:55.452Z</time>
      </trkpt>
      <trkpt lat="45.69006" lon="5.37406">
        <ele>223</ele>
        <time>2021-06-06T10:02:56.452Z</time>
      </trkpt>
      <trkpt lat="45.69003" lon="5.37402">
        <ele>223</ele>
        <time>2021-06-06T10:02:57.452Z</time>
      </trkpt>
      <trkpt lat="45.69003" lon="5.374">
        <ele>223</ele>
        <time>2021-06-06T10:02:58.451Z</time>
      </trkpt>
      <trkpt lat="45.69002" lon="5.37398">
        <ele>223</ele>
        <time>2021-06-06T10:02:59.452Z</time>
      </trkpt>
      <trkpt lat="45.69002" lon="5.37398">
        <ele>223</ele>
        <time>2021-06-06T10:03:00.452Z</time>
      </trkpt>
      <trkpt lat="45.69002" lon="5.37398">
        <ele>222</ele>
        <time>2021-06-06T10:03:01.452Z</time>
      </trkpt>
      <trkpt lat="45.69002" lon="5.37399">
        <ele>221</ele>
        <time>2021-06-06T10:03:02.452Z</time>
      </trkpt>
      <trkpt lat="45.69001" lon="5.37398">
        <ele>219</ele>
        <time>2021-06-06T10:03:03.451Z</time>
      </trkpt>
      <trkpt lat="45.69" lon="5.37397">
        <ele>220</ele>
        <time>2021-06-06T10:03:04.452Z</time>
      </trkpt>
      <trkpt lat="45.68999" lon="5.37395">
        <ele>220</ele>
        <time>2021-06-06T10:03:05.452Z</time>
      </trkpt>
      <trkpt lat="45.68997" lon="5.37393">
        <ele>220</ele>
        <time>2021-06-06T10:03:06.452Z</time>
      </trkpt>
      <trkpt lat="45.68994" lon="5.37391">
        <ele>220</ele>
        <time>2021-06-06T10:03:07.452Z</time>
      </trkpt>
      <trkpt lat="45.68991" lon="5.3739">
        <ele>220</ele>
        <time>2021-06-06T10:03:08.452Z</time>
      </trkpt>
      <trkpt lat="45.68988" lon="5.37388">
        <ele>220</ele>
        <time>2021-06-06T10:03:09.452Z</time>
      </trkpt>
      <trkpt lat="45.68985" lon="5.37386">
        <ele>220</ele>
        <time>2021-06-06T10:03:10.452Z</time>
      </trkpt>
      <trkpt lat="45.68981" lon="5.37382">
        <ele>221</ele>
        <time>2021-06-06T10:03:11.451Z</time>
      </trkpt>
      <trkpt lat="45.68978" lon="5.37377">
        <ele>221</ele>
        <time>2021-06-06T10:03:12.452Z</time>
      </trkpt>
      <trkpt lat="45.68975" lon="5.37372">
        <ele>221</ele>
        <time>2021-06-06T10:03:13.452Z</time>
      </trkpt>
      <trkpt lat="45.68972" lon="5.37364">
        <ele>221</ele>
        <time>2021-06-06T10:03:14.452Z</time>
      </trkpt>
      <trkpt lat="45.68968" lon="5.37358">
        <ele>222</ele>
        <time>2021-06-06T10:03:15.452Z</time>
      </trkpt>
      <trkpt lat="45.68965" lon="5.37353">
        <ele>221</ele>
        <time>2021-06-06T10:03:16.452Z</time>
      </trkpt>
      <trkpt lat="45.6896" lon="5.37347">
        <ele>221</ele>
        <time>2021-06-06T10:03:17.452Z</time>
      </trkpt>
      <trkpt lat="45.68956" lon="5.37341">
        <ele>221</ele>
        <time>2021-06-06T10:03:18.452Z</time>
      </trkpt>
      <trkpt lat="45.6895" lon="5.37333">
        <ele>221</ele>
        <time>2021-06-06T10:03:19.452Z</time>
      </trkpt>
      <trkpt lat="45.68946" lon="5.37328">
        <ele>221</ele>
        <time>2021-06-06T10:03:20.452Z</time>
      </trkpt>
      <trkpt lat="45.68941" lon="5.37322">
        <ele>220</ele>
        <time>2021-06-06T10:03:21.452Z</time>
      </trkpt>
      <trkpt lat="45.68935" lon="5.37315">
        <ele>219</ele>
        <time>2021-06-06T10:03:22.452Z</time>
      </trkpt>
      <trkpt lat="45.68929" lon="5.37308">
        <ele>219</ele>
        <time>2021-06-06T10:03:23.452Z</time>
      </trkpt>
      <trkpt lat="45.68924" lon="5.37302">
        <ele>218</ele>
        <time>2021-06-06T10:03:24.452Z</time>
      </trkpt>
      <trkpt lat="45.68918" lon="5.37294">
        <ele>219</ele>
        <time>2021-06-06T10:03:25.451Z</time>
      </trkpt>
      <trkpt lat="45.68912" lon="5.37287">
        <ele>219</ele>
        <time>2021-06-06T10:03:26.451Z</time>
      </trkpt>
      <trkpt lat="45.68906" lon="5.37279">
        <ele>219</ele>
        <time>2021-06-06T10:03:27.452Z</time>
      </trkpt>
      <trkpt lat="45.68899" lon="5.3727">
        <ele>219</ele>
        <time>2021-06-06T10:03:28.452Z</time>
      </trkpt>
      <trkpt lat="45.68893" lon="5.37263">
        <ele>219</ele>
        <time>2021-06-06T10:03:29.452Z</time>
      </trkpt>
      <trkpt lat="45.68888" lon="5.37257">
        <ele>219</ele>
        <time>2021-06-06T10:03:30.452Z</time>
      </trkpt>
      <trkpt lat="45.68882" lon="5.3725">
        <ele>219</ele>
        <time>2021-06-06T10:03:31.452Z</time>
      </trkpt>
      <trkpt lat="45.68876" lon="5.37242">
        <ele>219</ele>
        <time>2021-06-06T10:03:32.451Z</time>
      </trkpt>
      <trkpt lat="45.6887" lon="5.37235">
        <ele>219</ele>
        <time>2021-06-06T10:03:33.452Z</time>
      </trkpt>
      <trkpt lat="45.68864" lon="5.37227">
        <ele>220</ele>
        <time>2021-06-06T10:03:34.452Z</time>
      </trkpt>
      <trkpt lat="45.68858" lon="5.37219">
        <ele>220</ele>
        <time>2021-06-06T10:03:35.452Z</time>
      </trkpt>
      <trkpt lat="45.68851" lon="5.37211">
        <ele>221</ele>
        <time>2021-06-06T10:03:36.451Z</time>
      </trkpt>
      <trkpt lat="45.68845" lon="5.37204">
        <ele>221</ele>
        <time>2021-06-06T10:03:37.451Z</time>
      </trkpt>
      <trkpt lat="45.68839" lon="5.37196">
        <ele>221</ele>
        <time>2021-06-06T10:03:38.452Z</time>
      </trkpt>
      <trkpt lat="45.68833" lon="5.37188">
        <ele>221</ele>
        <time>2021-06-06T10:03:39.452Z</time>
      </trkpt>
      <trkpt lat="45.68826" lon="5.37181">
        <ele>221</ele>
        <time>2021-06-06T10:03:40.452Z</time>
      </trkpt>
      <trkpt lat="45.6882" lon="5.37173">
        <ele>221</ele>
        <time>2021-06-06T10:03:41.451Z</time>
      </trkpt>
      <trkpt lat="45.68813" lon="5.37165">
        <ele>221</ele>
        <time>2021-06-06T10:03:42.451Z</time>
      </trkpt>
      <trkpt lat="45.68807" lon="5.37158">
        <ele>220</ele>
        <time>2021-06-06T10:03:43.451Z</time>
      </trkpt>
      <trkpt lat="45.68801" lon="5.3715">
        <ele>220</ele>
        <time>2021-06-06T10:03:44.452Z</time>
      </trkpt>
      <trkpt lat="45.68794" lon="5.37142">
        <ele>220</ele>
        <time>2021-06-06T10:03:45.451Z</time>
      </trkpt>
      <trkpt lat="45.68787" lon="5.37134">
        <ele>220</ele>
        <time>2021-06-06T10:03:46.451Z</time>
      </trkpt>
      <trkpt lat="45.68781" lon="5.37127">
        <ele>220</ele>
        <time>2021-06-06T10:03:47.451Z</time>
      </trkpt>
      <trkpt lat="45.68774" lon="5.37119">
        <ele>220</ele>
        <time>2021-06-06T10:03:48.452Z</time>
      </trkpt>
      <trkpt lat="45.68767" lon="5.37111">
        <ele>220</ele>
        <time>2021-06-06T10:03:49.452Z</time>
      </trkpt>
      <trkpt lat="45.68761" lon="5.37103">
        <ele>220</ele>
        <time>2021-06-06T10:03:50.452Z</time>
      </trkpt>
      <trkpt lat="45.68754" lon="5.37095">
        <ele>220</ele>
        <time>2021-06-06T10:03:51.452Z</time>
      </trkpt>
      <trkpt lat="45.68747" lon="5.37087">
        <ele>220</ele>
        <time>2021-06-06T10:03:52.451Z</time>
      </trkpt>
      <trkpt lat="45.68741" lon="5.37079">
        <ele>220</ele>
        <time>2021-06-06T10:03:53.452Z</time>
      </trkpt>
      <trkpt lat="45.68734" lon="5.37071">
        <ele>220</ele>
        <time>2021-06-06T10:03:54.452Z</time>
      </trkpt>
      <trkpt lat="45.68727" lon="5.37063">
        <ele>220</ele>
        <time>2021-06-06T10:03:55.452Z</time>
      </trkpt>
      <trkpt lat="45.6872" lon="5.37055">
        <ele>221</ele>
        <time>2021-06-06T10:03:56.451Z</time>
      </trkpt>
      <trkpt lat="45.68713" lon="5.37047">
        <ele>221</ele>
        <time>2021-06-06T10:03:57.451Z</time>
      </trkpt>
      <trkpt lat="45.68706" lon="5.37039">
        <ele>221</ele>
        <time>2021-06-06T10:03:58.452Z</time>
      </trkpt>
      <trkpt lat="45.68699" lon="5.37031">
        <ele>221</ele>
        <time>2021-06-06T10:03:59.452Z</time>
      </trkpt>
      <trkpt lat="45.68693" lon="5.37022">
        <ele>221</ele>
        <time>2021-06-06T10:04:00.452Z</time>
      </trkpt>
      <trkpt lat="45.68685" lon="5.37014">
        <ele>221</ele>
        <time>2021-06-06T10:04:01.452Z</time>
      </trkpt>
      <trkpt lat="45.68679" lon="5.37006">
        <ele>221</ele>
        <time>2021-06-06T10:04:02.452Z</time>
      </trkpt>
      <trkpt lat="45.68672" lon="5.36997">
        <ele>221</ele>
        <time>2021-06-06T10:04:03.452Z</time>
      </trkpt>
      <trkpt lat="45.68665" lon="5.36989">
        <ele>221</ele>
        <time>2021-06-06T10:04:04.452Z</time>
      </trkpt>
      <trkpt lat="45.68658" lon="5.36981">
        <ele>221</ele>
        <time>2021-06-06T10:04:05.452Z</time>
      </trkpt>
      <trkpt lat="45.68651" lon="5.36972">
        <ele>221</ele>
        <time>2021-06-06T10:04:06.452Z</time>
      </trkpt>
      <trkpt lat="45.68645" lon="5.36964">
        <ele>221</ele>
        <time>2021-06-06T10:04:07.452Z</time>
      </trkpt>
      <trkpt lat="45.68638" lon="5.36957">
        <ele>221</ele>
        <time>2021-06-06T10:04:08.452Z</time>
      </trkpt>
      <trkpt lat="45.68631" lon="5.36949">
        <ele>221</ele>
        <time>2021-06-06T10:04:09.452Z</time>
      </trkpt>
      <trkpt lat="45.68624" lon="5.3694">
        <ele>221</ele>
        <time>2021-06-06T10:04:10.451Z</time>
      </trkpt>
      <trkpt lat="45.68617" lon="5.36932">
        <ele>220</ele>
        <time>2021-06-06T10:04:11.452Z</time>
      </trkpt>
      <trkpt lat="45.68611" lon="5.36924">
        <ele>220</ele>
        <time>2021-06-06T10:04:12.451Z</time>
      </trkpt>
      <trkpt lat="45.68604" lon="5.36916">
        <ele>220</ele>
        <time>2021-06-06T10:04:13.452Z</time>
      </trkpt>
      <trkpt lat="45.68597" lon="5.36908">
        <ele>221</ele>
        <time>2021-06-06T10:04:14.452Z</time>
      </trkpt>
      <trkpt lat="45.6859" lon="5.369">
        <ele>221</ele>
        <time>2021-06-06T10:04:15.451Z</time>
      </trkpt>
      <trkpt lat="45.68583" lon="5.36892">
        <ele>221</ele>
        <time>2021-06-06T10:04:16.452Z</time>
      </trkpt>
      <trkpt lat="45.68576" lon="5.36883">
        <ele>222</ele>
        <time>2021-06-06T10:04:17.452Z</time>
      </trkpt>
      <trkpt lat="45.68569" lon="5.36875">
        <ele>222</ele>
        <time>2021-06-06T10:04:18.452Z</time>
      </trkpt>
      <trkpt lat="45.68562" lon="5.36867">
        <ele>222</ele>
        <time>2021-06-06T10:04:19.452Z</time>
      </trkpt>
      <trkpt lat="45.68554" lon="5.36858">
        <ele>222</ele>
        <time>2021-06-06T10:04:20.451Z</time>
      </trkpt>
      <trkpt lat="45.68547" lon="5.36849">
        <ele>222</ele>
        <time>2021-06-06T10:04:21.452Z</time>
      </trkpt>
      <trkpt lat="45.6854" lon="5.36841">
        <ele>222</ele>
        <time>2021-06-06T10:04:22.452Z</time>
      </trkpt>
      <trkpt lat="45.68533" lon="5.36832">
        <ele>222</ele>
        <time>2021-06-06T10:04:23.452Z</time>
      </trkpt>
      <trkpt lat="45.68526" lon="5.36823">
        <ele>223</ele>
        <time>2021-06-06T10:04:24.452Z</time>
      </trkpt>
      <trkpt lat="45.68519" lon="5.36815">
        <ele>223</ele>
        <time>2021-06-06T10:04:25.452Z</time>
      </trkpt>
      <trkpt lat="45.68511" lon="5.36806">
        <ele>223</ele>
        <time>2021-06-06T10:04:26.452Z</time>
      </trkpt>
      <trkpt lat="45.68504" lon="5.36798">
        <ele>223</ele>
        <time>2021-06-06T10:04:27.452Z</time>
      </trkpt>
      <trkpt lat="45.68497" lon="5.36789">
        <ele>223</ele>
        <time>2021-06-06T10:04:28.452Z</time>
      </trkpt>
      <trkpt lat="45.68488" lon="5.36779">
        <ele>223</ele>
        <time>2021-06-06T10:04:29.452Z</time>
      </trkpt>
      <trkpt lat="45.68483" lon="5.36772">
        <ele>223</ele>
        <time>2021-06-06T10:04:30.452Z</time>
      </trkpt>
      <trkpt lat="45.68476" lon="5.36764">
        <ele>223</ele>
        <time>2021-06-06T10:04:31.452Z</time>
      </trkpt>
      <trkpt lat="45.68469" lon="5.36756">
        <ele>223</ele>
        <time>2021-06-06T10:04:32.451Z</time>
      </trkpt>
      <trkpt lat="45.68462" lon="5.36747">
        <ele>223</ele>
        <time>2021-06-06T10:04:33.452Z</time>
      </trkpt>
      <trkpt lat="45.68455" lon="5.36738">
        <ele>223</ele>
        <time>2021-06-06T10:04:34.451Z</time>
      </trkpt>
      <trkpt lat="45.68448" lon="5.3673">
        <ele>223</ele>
        <time>2021-06-06T10:04:35.452Z</time>
      </trkpt>
      <trkpt lat="45.68441" lon="5.36722">
        <ele>223</ele>
        <time>2021-06-06T10:04:36.451Z</time>
      </trkpt>
      <trkpt lat="45.68434" lon="5.36713">
        <ele>224</ele>
        <time>2021-06-06T10:04:37.452Z</time>
      </trkpt>
      <trkpt lat="45.68427" lon="5.36705">
        <ele>224</ele>
        <time>2021-06-06T10:04:38.451Z</time>
      </trkpt>
      <trkpt lat="45.6842" lon="5.36697">
        <ele>223</ele>
        <time>2021-06-06T10:04:39.452Z</time>
      </trkpt>
      <trkpt lat="45.68413" lon="5.36689">
        <ele>223</ele>
        <time>2021-06-06T10:04:40.451Z</time>
      </trkpt>
      <trkpt lat="45.68406" lon="5.36681">
        <ele>223</ele>
        <time>2021-06-06T10:04:41.452Z</time>
      </trkpt>
      <trkpt lat="45.68399" lon="5.36673">
        <ele>223</ele>
        <time>2021-06-06T10:04:42.452Z</time>
      </trkpt>
      <trkpt lat="45.68392" lon="5.36664">
        <ele>223</ele>
        <time>2021-06-06T10:04:43.452Z</time>
      </trkpt>
      <trkpt lat="45.68385" lon="5.36656">
        <ele>223</ele>
        <time>2021-06-06T10:04:44.451Z</time>
      </trkpt>
      <trkpt lat="45.68378" lon="5.36647">
        <ele>223</ele>
        <time>2021-06-06T10:04:45.452Z</time>
      </trkpt>
      <trkpt lat="45.6837" lon="5.36639">
        <ele>223</ele>
        <time>2021-06-06T10:04:46.452Z</time>
      </trkpt>
      <trkpt lat="45.68363" lon="5.3663">
        <ele>223</ele>
        <time>2021-06-06T10:04:47.452Z</time>
      </trkpt>
      <trkpt lat="45.68356" lon="5.36622">
        <ele>222</ele>
        <time>2021-06-06T10:04:48.451Z</time>
      </trkpt>
      <trkpt lat="45.68349" lon="5.36614">
        <ele>222</ele>
        <time>2021-06-06T10:04:49.452Z</time>
      </trkpt>
      <trkpt lat="45.68342" lon="5.36605">
        <ele>222</ele>
        <time>2021-06-06T10:04:50.451Z</time>
      </trkpt>
      <trkpt lat="45.68335" lon="5.36597">
        <ele>222</ele>
        <time>2021-06-06T10:04:51.452Z</time>
      </trkpt>
      <trkpt lat="45.68328" lon="5.36588">
        <ele>222</ele>
        <time>2021-06-06T10:04:52.452Z</time>
      </trkpt>
      <trkpt lat="45.68319" lon="5.36579">
        <ele>222</ele>
        <time>2021-06-06T10:04:53.452Z</time>
      </trkpt>
      <trkpt lat="45.68313" lon="5.36572">
        <ele>222</ele>
        <time>2021-06-06T10:04:54.452Z</time>
      </trkpt>
      <trkpt lat="45.68306" lon="5.36564">
        <ele>222</ele>
        <time>2021-06-06T10:04:55.452Z</time>
      </trkpt>
      <trkpt lat="45.68298" lon="5.36556">
        <ele>222</ele>
        <time>2021-06-06T10:04:56.452Z</time>
      </trkpt>
      <trkpt lat="45.68291" lon="5.36548">
        <ele>222</ele>
        <time>2021-06-06T10:04:57.451Z</time>
      </trkpt>
      <trkpt lat="45.68284" lon="5.3654">
        <ele>221</ele>
        <time>2021-06-06T10:04:58.451Z</time>
      </trkpt>
      <trkpt lat="45.68277" lon="5.36532">
        <ele>221</ele>
        <time>2021-06-06T10:04:59.452Z</time>
      </trkpt>
      <trkpt lat="45.6827" lon="5.36524">
        <ele>221</ele>
        <time>2021-06-06T10:05:00.451Z</time>
      </trkpt>
      <trkpt lat="45.68263" lon="5.36516">
        <ele>221</ele>
        <time>2021-06-06T10:05:01.452Z</time>
      </trkpt>
      <trkpt lat="45.68256" lon="5.36508">
        <ele>220</ele>
        <time>2021-06-06T10:05:02.452Z</time>
      </trkpt>
      <trkpt lat="45.68249" lon="5.365">
        <ele>220</ele>
        <time>2021-06-06T10:05:03.452Z</time>
      </trkpt>
      <trkpt lat="45.68242" lon="5.36491">
        <ele>220</ele>
        <time>2021-06-06T10:05:04.451Z</time>
      </trkpt>
      <trkpt lat="45.68236" lon="5.36483">
        <ele>221</ele>
        <time>2021-06-06T10:05:05.452Z</time>
      </trkpt>
      <trkpt lat="45.68229" lon="5.36474">
        <ele>220</ele>
        <time>2021-06-06T10:05:06.452Z</time>
      </trkpt>
      <trkpt lat="45.68222" lon="5.36466">
        <ele>220</ele>
        <time>2021-06-06T10:05:07.452Z</time>
      </trkpt>
      <trkpt lat="45.68215" lon="5.36457">
        <ele>220</ele>
        <time>2021-06-06T10:05:08.452Z</time>
      </trkpt>
      <trkpt lat="45.68208" lon="5.36449">
        <ele>220</ele>
        <time>2021-06-06T10:05:09.452Z</time>
      </trkpt>
      <trkpt lat="45.68201" lon="5.36441">
        <ele>220</ele>
        <time>2021-06-06T10:05:10.452Z</time>
      </trkpt>
      <trkpt lat="45.68194" lon="5.36433">
        <ele>220</ele>
        <time>2021-06-06T10:05:11.452Z</time>
      </trkpt>
      <trkpt lat="45.68187" lon="5.36425">
        <ele>219</ele>
        <time>2021-06-06T10:05:12.452Z</time>
      </trkpt>
      <trkpt lat="45.6818" lon="5.36417">
        <ele>219</ele>
        <time>2021-06-06T10:05:13.452Z</time>
      </trkpt>
      <trkpt lat="45.68174" lon="5.36408">
        <ele>219</ele>
        <time>2021-06-06T10:05:14.452Z</time>
      </trkpt>
      <trkpt lat="45.68168" lon="5.364">
        <ele>219</ele>
        <time>2021-06-06T10:05:15.452Z</time>
      </trkpt>
      <trkpt lat="45.68161" lon="5.36391">
        <ele>220</ele>
        <time>2021-06-06T10:05:16.452Z</time>
      </trkpt>
      <trkpt lat="45.68155" lon="5.36383">
        <ele>220</ele>
        <time>2021-06-06T10:05:17.452Z</time>
      </trkpt>
      <trkpt lat="45.68148" lon="5.36376">
        <ele>220</ele>
        <time>2021-06-06T10:05:18.452Z</time>
      </trkpt>
      <trkpt lat="45.6814" lon="5.36366">
        <ele>220</ele>
        <time>2021-06-06T10:05:19.452Z</time>
      </trkpt>
      <trkpt lat="45.68135" lon="5.3636">
        <ele>220</ele>
        <time>2021-06-06T10:05:20.452Z</time>
      </trkpt>
      <trkpt lat="45.68128" lon="5.36352">
        <ele>220</ele>
        <time>2021-06-06T10:05:21.452Z</time>
      </trkpt>
      <trkpt lat="45.68122" lon="5.36345">
        <ele>220</ele>
        <time>2021-06-06T10:05:22.452Z</time>
      </trkpt>
      <trkpt lat="45.68115" lon="5.36338">
        <ele>220</ele>
        <time>2021-06-06T10:05:23.452Z</time>
      </trkpt>
      <trkpt lat="45.68107" lon="5.36331">
        <ele>221</ele>
        <time>2021-06-06T10:05:24.452Z</time>
      </trkpt>
      <trkpt lat="45.681" lon="5.36325">
        <ele>221</ele>
        <time>2021-06-06T10:05:25.452Z</time>
      </trkpt>
      <trkpt lat="45.68092" lon="5.36319">
        <ele>221</ele>
        <time>2021-06-06T10:05:26.452Z</time>
      </trkpt>
      <trkpt lat="45.68084" lon="5.36314">
        <ele>221</ele>
        <time>2021-06-06T10:05:27.451Z</time>
      </trkpt>
      <trkpt lat="45.68076" lon="5.3631">
        <ele>222</ele>
        <time>2021-06-06T10:05:28.451Z</time>
      </trkpt>
      <trkpt lat="45.68068" lon="5.36305">
        <ele>222</ele>
        <time>2021-06-06T10:05:29.452Z</time>
      </trkpt>
      <trkpt lat="45.68059" lon="5.36301">
        <ele>222</ele>
        <time>2021-06-06T10:05:30.452Z</time>
      </trkpt>
      <trkpt lat="45.68051" lon="5.36297">
        <ele>222</ele>
        <time>2021-06-06T10:05:31.452Z</time>
      </trkpt>
      <trkpt lat="45.68042" lon="5.36294">
        <ele>222</ele>
        <time>2021-06-06T10:05:32.452Z</time>
      </trkpt>
      <trkpt lat="45.68034" lon="5.3629">
        <ele>222</ele>
        <time>2021-06-06T10:05:33.451Z</time>
      </trkpt>
      <trkpt lat="45.68025" lon="5.36287">
        <ele>222</ele>
        <time>2021-06-06T10:05:34.451Z</time>
      </trkpt>
      <trkpt lat="45.68017" lon="5.36283">
        <ele>222</ele>
        <time>2021-06-06T10:05:35.452Z</time>
      </trkpt>
      <trkpt lat="45.68008" lon="5.36279">
        <ele>221</ele>
        <time>2021-06-06T10:05:36.452Z</time>
      </trkpt>
      <trkpt lat="45.67999" lon="5.36276">
        <ele>221</ele>
        <time>2021-06-06T10:05:37.452Z</time>
      </trkpt>
      <trkpt lat="45.6799" lon="5.36272">
        <ele>221</ele>
        <time>2021-06-06T10:05:38.451Z</time>
      </trkpt>
      <trkpt lat="45.67982" lon="5.36269">
        <ele>220</ele>
        <time>2021-06-06T10:05:39.452Z</time>
      </trkpt>
      <trkpt lat="45.67973" lon="5.36265">
        <ele>220</ele>
        <time>2021-06-06T10:05:40.452Z</time>
      </trkpt>
      <trkpt lat="45.67964" lon="5.36261">
        <ele>221</ele>
        <time>2021-06-06T10:05:41.452Z</time>
      </trkpt>
      <trkpt lat="45.67955" lon="5.36258">
        <ele>221</ele>
        <time>2021-06-06T10:05:42.452Z</time>
      </trkpt>
      <trkpt lat="45.67947" lon="5.36254">
        <ele>221</ele>
        <time>2021-06-06T10:05:43.452Z</time>
      </trkpt>
      <trkpt lat="45.67938" lon="5.36251">
        <ele>221</ele>
        <time>2021-06-06T10:05:44.452Z</time>
      </trkpt>
      <trkpt lat="45.67929" lon="5.36247">
        <ele>222</ele>
        <time>2021-06-06T10:05:45.452Z</time>
      </trkpt>
      <trkpt lat="45.6792" lon="5.36244">
        <ele>222</ele>
        <time>2021-06-06T10:05:46.452Z</time>
      </trkpt>
      <trkpt lat="45.67911" lon="5.3624">
        <ele>222</ele>
        <time>2021-06-06T10:05:47.452Z</time>
      </trkpt>
      <trkpt lat="45.67902" lon="5.36237">
        <ele>222</ele>
        <time>2021-06-06T10:05:48.452Z</time>
      </trkpt>
      <trkpt lat="45.67893" lon="5.36233">
        <ele>222</ele>
        <time>2021-06-06T10:05:49.452Z</time>
      </trkpt>
      <trkpt lat="45.67884" lon="5.36229">
        <ele>222</ele>
        <time>2021-06-06T10:05:50.451Z</time>
      </trkpt>
      <trkpt lat="45.67875" lon="5.36225">
        <ele>222</ele>
        <time>2021-06-06T10:05:51.452Z</time>
      </trkpt>
      <trkpt lat="45.67865" lon="5.36221">
        <ele>222</ele>
        <time>2021-06-06T10:05:52.451Z</time>
      </trkpt>
      <trkpt lat="45.67856" lon="5.36218">
        <ele>222</ele>
        <time>2021-06-06T10:05:53.452Z</time>
      </trkpt>
      <trkpt lat="45.67847" lon="5.36214">
        <ele>222</ele>
        <time>2021-06-06T10:05:54.452Z</time>
      </trkpt>
      <trkpt lat="45.67837" lon="5.3621">
        <ele>222</ele>
        <time>2021-06-06T10:05:55.452Z</time>
      </trkpt>
      <trkpt lat="45.67828" lon="5.36206">
        <ele>222</ele>
        <time>2021-06-06T10:05:56.451Z</time>
      </trkpt>
      <trkpt lat="45.67818" lon="5.36202">
        <ele>222</ele>
        <time>2021-06-06T10:05:57.452Z</time>
      </trkpt>
      <trkpt lat="45.67809" lon="5.36197">
        <ele>222</ele>
        <time>2021-06-06T10:05:58.452Z</time>
      </trkpt>
      <trkpt lat="45.67799" lon="5.36193">
        <ele>222</ele>
        <time>2021-06-06T10:05:59.452Z</time>
      </trkpt>
      <trkpt lat="45.6779" lon="5.36189">
        <ele>222</ele>
        <time>2021-06-06T10:06:00.452Z</time>
      </trkpt>
      <trkpt lat="45.67781" lon="5.36185">
        <ele>222</ele>
        <time>2021-06-06T10:06:01.452Z</time>
      </trkpt>
      <trkpt lat="45.67771" lon="5.36181">
        <ele>222</ele>
        <time>2021-06-06T10:06:02.452Z</time>
      </trkpt>
      <trkpt lat="45.67761" lon="5.36177">
        <ele>222</ele>
        <time>2021-06-06T10:06:03.452Z</time>
      </trkpt>
      <trkpt lat="45.67752" lon="5.36173">
        <ele>222</ele>
        <time>2021-06-06T10:06:04.451Z</time>
      </trkpt>
      <trkpt lat="45.67742" lon="5.36169">
        <ele>222</ele>
        <time>2021-06-06T10:06:05.452Z</time>
      </trkpt>
      <trkpt lat="45.67733" lon="5.36165">
        <ele>222</ele>
        <time>2021-06-06T10:06:06.451Z</time>
      </trkpt>
      <trkpt lat="45.67723" lon="5.36161">
        <ele>221</ele>
        <time>2021-06-06T10:06:07.452Z</time>
      </trkpt>
      <trkpt lat="45.67713" lon="5.36157">
        <ele>221</ele>
        <time>2021-06-06T10:06:08.452Z</time>
      </trkpt>
      <trkpt lat="45.67704" lon="5.36152">
        <ele>221</ele>
        <time>2021-06-06T10:06:09.452Z</time>
      </trkpt>
      <trkpt lat="45.67694" lon="5.36148">
        <ele>220</ele>
        <time>2021-06-06T10:06:10.452Z</time>
      </trkpt>
      <trkpt lat="45.67684" lon="5.36143">
        <ele>220</ele>
        <time>2021-06-06T10:06:11.452Z</time>
      </trkpt>
      <trkpt lat="45.67675" lon="5.36139">
        <ele>220</ele>
        <time>2021-06-06T10:06:12.452Z</time>
      </trkpt>
      <trkpt lat="45.67665" lon="5.36135">
        <ele>220</ele>
        <time>2021-06-06T10:06:13.452Z</time>
      </trkpt>
      <trkpt lat="45.67655" lon="5.36131">
        <ele>220</ele>
        <time>2021-06-06T10:06:14.452Z</time>
      </trkpt>
      <trkpt lat="45.67645" lon="5.36127">
        <ele>220</ele>
        <time>2021-06-06T10:06:15.452Z</time>
      </trkpt>
      <trkpt lat="45.67635" lon="5.36123">
        <ele>220</ele>
        <time>2021-06-06T10:06:16.451Z</time>
      </trkpt>
      <trkpt lat="45.67625" lon="5.36118">
        <ele>219</ele>
        <time>2021-06-06T10:06:17.452Z</time>
      </trkpt>
      <trkpt lat="45.67615" lon="5.36114">
        <ele>219</ele>
        <time>2021-06-06T10:06:18.451Z</time>
      </trkpt>
      <trkpt lat="45.67606" lon="5.3611">
        <ele>219</ele>
        <time>2021-06-06T10:06:19.452Z</time>
      </trkpt>
      <trkpt lat="45.67596" lon="5.36105">
        <ele>219</ele>
        <time>2021-06-06T10:06:20.451Z</time>
      </trkpt>
      <trkpt lat="45.67586" lon="5.36101">
        <ele>219</ele>
        <time>2021-06-06T10:06:21.452Z</time>
      </trkpt>
      <trkpt lat="45.67577" lon="5.36097">
        <ele>219</ele>
        <time>2021-06-06T10:06:22.452Z</time>
      </trkpt>
      <trkpt lat="45.67567" lon="5.36092">
        <ele>219</ele>
        <time>2021-06-06T10:06:23.451Z</time>
      </trkpt>
      <trkpt lat="45.67557" lon="5.36088">
        <ele>218</ele>
        <time>2021-06-06T10:06:24.451Z</time>
      </trkpt>
      <trkpt lat="45.67547" lon="5.36084">
        <ele>218</ele>
        <time>2021-06-06T10:06:25.452Z</time>
      </trkpt>
      <trkpt lat="45.67537" lon="5.3608">
        <ele>218</ele>
        <time>2021-06-06T10:06:26.451Z</time>
      </trkpt>
      <trkpt lat="45.67527" lon="5.36076">
        <ele>219</ele>
        <time>2021-06-06T10:06:27.451Z</time>
      </trkpt>
      <trkpt lat="45.67517" lon="5.36072">
        <ele>219</ele>
        <time>2021-06-06T10:06:28.452Z</time>
      </trkpt>
      <trkpt lat="45.67507" lon="5.36068">
        <ele>219</ele>
        <time>2021-06-06T10:06:29.452Z</time>
      </trkpt>
      <trkpt lat="45.67497" lon="5.36064">
        <ele>219</ele>
        <time>2021-06-06T10:06:30.452Z</time>
      </trkpt>
      <trkpt lat="45.67485" lon="5.36059">
        <ele>219</ele>
        <time>2021-06-06T10:06:31.452Z</time>
      </trkpt>
      <trkpt lat="45.67477" lon="5.36056">
        <ele>219</ele>
        <time>2021-06-06T10:06:32.452Z</time>
      </trkpt>
      <trkpt lat="45.67467" lon="5.36051">
        <ele>219</ele>
        <time>2021-06-06T10:06:33.452Z</time>
      </trkpt>
      <trkpt lat="45.67457" lon="5.36047">
        <ele>218</ele>
        <time>2021-06-06T10:06:34.452Z</time>
      </trkpt>
      <trkpt lat="45.67447" lon="5.36043">
        <ele>218</ele>
        <time>2021-06-06T10:06:35.451Z</time>
      </trkpt>
      <trkpt lat="45.67438" lon="5.36039">
        <ele>217</ele>
        <time>2021-06-06T10:06:36.451Z</time>
      </trkpt>
      <trkpt lat="45.67429" lon="5.36035">
        <ele>217</ele>
        <time>2021-06-06T10:06:37.452Z</time>
      </trkpt>
      <trkpt lat="45.67419" lon="5.36031">
        <ele>217</ele>
        <time>2021-06-06T10:06:38.451Z</time>
      </trkpt>
      <trkpt lat="45.6741" lon="5.36026">
        <ele>217</ele>
        <time>2021-06-06T10:06:39.452Z</time>
      </trkpt>
      <trkpt lat="45.67401" lon="5.36022">
        <ele>217</ele>
        <time>2021-06-06T10:06:40.452Z</time>
      </trkpt>
      <trkpt lat="45.67391" lon="5.36018">
        <ele>216</ele>
        <time>2021-06-06T10:06:41.452Z</time>
      </trkpt>
      <trkpt lat="45.67382" lon="5.36014">
        <ele>216</ele>
        <time>2021-06-06T10:06:42.452Z</time>
      </trkpt>
      <trkpt lat="45.67373" lon="5.3601">
        <ele>216</ele>
        <time>2021-06-06T10:06:43.451Z</time>
      </trkpt>
      <trkpt lat="45.67364" lon="5.36006">
        <ele>216</ele>
        <time>2021-06-06T10:06:44.452Z</time>
      </trkpt>
      <trkpt lat="45.67354" lon="5.36003">
        <ele>216</ele>
        <time>2021-06-06T10:06:45.452Z</time>
      </trkpt>
      <trkpt lat="45.67345" lon="5.35999">
        <ele>216</ele>
        <time>2021-06-06T10:06:46.452Z</time>
      </trkpt>
      <trkpt lat="45.67336" lon="5.35995">
        <ele>216</ele>
        <time>2021-06-06T10:06:47.452Z</time>
      </trkpt>
      <trkpt lat="45.67327" lon="5.35991">
        <ele>216</ele>
        <time>2021-06-06T10:06:48.451Z</time>
      </trkpt>
      <trkpt lat="45.67318" lon="5.35987">
        <ele>217</ele>
        <time>2021-06-06T10:06:49.452Z</time>
      </trkpt>
      <trkpt lat="45.67309" lon="5.35984">
        <ele>217</ele>
        <time>2021-06-06T10:06:50.452Z</time>
      </trkpt>
      <trkpt lat="45.673" lon="5.3598">
        <ele>217</ele>
        <time>2021-06-06T10:06:51.451Z</time>
      </trkpt>
      <trkpt lat="45.67291" lon="5.35976">
        <ele>217</ele>
        <time>2021-06-06T10:06:52.452Z</time>
      </trkpt>
      <trkpt lat="45.67282" lon="5.35972">
        <ele>217</ele>
        <time>2021-06-06T10:06:53.452Z</time>
      </trkpt>
      <trkpt lat="45.67274" lon="5.35968">
        <ele>218</ele>
        <time>2021-06-06T10:06:54.452Z</time>
      </trkpt>
      <trkpt lat="45.67265" lon="5.35964">
        <ele>218</ele>
        <time>2021-06-06T10:06:55.452Z</time>
      </trkpt>
      <trkpt lat="45.67256" lon="5.3596">
        <ele>218</ele>
        <time>2021-06-06T10:06:56.452Z</time>
      </trkpt>
      <trkpt lat="45.67247" lon="5.35956">
        <ele>217</ele>
        <time>2021-06-06T10:06:57.452Z</time>
      </trkpt>
      <trkpt lat="45.67238" lon="5.35952">
        <ele>217</ele>
        <time>2021-06-06T10:06:58.452Z</time>
      </trkpt>
      <trkpt lat="45.6723" lon="5.35948">
        <ele>217</ele>
        <time>2021-06-06T10:06:59.452Z</time>
      </trkpt>
      <trkpt lat="45.67221" lon="5.35945">
        <ele>216</ele>
        <time>2021-06-06T10:07:00.452Z</time>
      </trkpt>
      <trkpt lat="45.67212" lon="5.35941">
        <ele>216</ele>
        <time>2021-06-06T10:07:01.452Z</time>
      </trkpt>
      <trkpt lat="45.67203" lon="5.35937">
        <ele>216</ele>
        <time>2021-06-06T10:07:02.452Z</time>
      </trkpt>
      <trkpt lat="45.67194" lon="5.35934">
        <ele>216</ele>
        <time>2021-06-06T10:07:03.452Z</time>
      </trkpt>
      <trkpt lat="45.67184" lon="5.3593">
        <ele>216</ele>
        <time>2021-06-06T10:07:04.451Z</time>
      </trkpt>
      <trkpt lat="45.67175" lon="5.35926">
        <ele>215</ele>
        <time>2021-06-06T10:07:05.452Z</time>
      </trkpt>
      <trkpt lat="45.67166" lon="5.35922">
        <ele>215</ele>
        <time>2021-06-06T10:07:06.452Z</time>
      </trkpt>
      <trkpt lat="45.67157" lon="5.35918">
        <ele>215</ele>
        <time>2021-06-06T10:07:07.452Z</time>
      </trkpt>
      <trkpt lat="45.67148" lon="5.35914">
        <ele>215</ele>
        <time>2021-06-06T10:07:08.451Z</time>
      </trkpt>
      <trkpt lat="45.67139" lon="5.3591">
        <ele>215</ele>
        <time>2021-06-06T10:07:09.451Z</time>
      </trkpt>
      <trkpt lat="45.6713" lon="5.35906">
        <ele>214</ele>
        <time>2021-06-06T10:07:10.452Z</time>
      </trkpt>
      <trkpt lat="45.67121" lon="5.35902">
        <ele>214</ele>
        <time>2021-06-06T10:07:11.452Z</time>
      </trkpt>
      <trkpt lat="45.67112" lon="5.35898">
        <ele>214</ele>
        <time>2021-06-06T10:07:12.452Z</time>
      </trkpt>
      <trkpt lat="45.67103" lon="5.35895">
        <ele>214</ele>
        <time>2021-06-06T10:07:13.452Z</time>
      </trkpt>
      <trkpt lat="45.67094" lon="5.35891">
        <ele>214</ele>
        <time>2021-06-06T10:07:14.452Z</time>
      </trkpt>
      <trkpt lat="45.67085" lon="5.35887">
        <ele>215</ele>
        <time>2021-06-06T10:07:15.452Z</time>
      </trkpt>
      <trkpt lat="45.67076" lon="5.35884">
        <ele>215</ele>
        <time>2021-06-06T10:07:16.452Z</time>
      </trkpt>
      <trkpt lat="45.67067" lon="5.3588">
        <ele>215</ele>
        <time>2021-06-06T10:07:17.452Z</time>
      </trkpt>
      <trkpt lat="45.67058" lon="5.35877">
        <ele>216</ele>
        <time>2021-06-06T10:07:18.451Z</time>
      </trkpt>
      <trkpt lat="45.6705" lon="5.35873">
        <ele>216</ele>
        <time>2021-06-06T10:07:19.452Z</time>
      </trkpt>
      <trkpt lat="45.67041" lon="5.35869">
        <ele>216</ele>
        <time>2021-06-06T10:07:20.452Z</time>
      </trkpt>
      <trkpt lat="45.67032" lon="5.35865">
        <ele>216</ele>
        <time>2021-06-06T10:07:21.452Z</time>
      </trkpt>
      <trkpt lat="45.67023" lon="5.35861">
        <ele>216</ele>
        <time>2021-06-06T10:07:22.452Z</time>
      </trkpt>
      <trkpt lat="45.67015" lon="5.35857">
        <ele>216</ele>
        <time>2021-06-06T10:07:23.452Z</time>
      </trkpt>
      <trkpt lat="45.67006" lon="5.35853">
        <ele>216</ele>
        <time>2021-06-06T10:07:24.452Z</time>
      </trkpt>
      <trkpt lat="45.66998" lon="5.35849">
        <ele>216</ele>
        <time>2021-06-06T10:07:25.452Z</time>
      </trkpt>
      <trkpt lat="45.66989" lon="5.35845">
        <ele>216</ele>
        <time>2021-06-06T10:07:26.452Z</time>
      </trkpt>
      <trkpt lat="45.66981" lon="5.35841">
        <ele>216</ele>
        <time>2021-06-06T10:07:27.452Z</time>
      </trkpt>
      <trkpt lat="45.66972" lon="5.35837">
        <ele>216</ele>
        <time>2021-06-06T10:07:28.452Z</time>
      </trkpt>
      <trkpt lat="45.66964" lon="5.35834">
        <ele>216</ele>
        <time>2021-06-06T10:07:29.452Z</time>
      </trkpt>
      <trkpt lat="45.66956" lon="5.3583">
        <ele>217</ele>
        <time>2021-06-06T10:07:30.452Z</time>
      </trkpt>
      <trkpt lat="45.66948" lon="5.35825">
        <ele>217</ele>
        <time>2021-06-06T10:07:31.452Z</time>
      </trkpt>
      <trkpt lat="45.66941" lon="5.3582">
        <ele>217</ele>
        <time>2021-06-06T10:07:32.452Z</time>
      </trkpt>
      <trkpt lat="45.66934" lon="5.35815">
        <ele>217</ele>
        <time>2021-06-06T10:07:33.451Z</time>
      </trkpt>
      <trkpt lat="45.66928" lon="5.3581">
        <ele>217</ele>
        <time>2021-06-06T10:07:34.451Z</time>
      </trkpt>
      <trkpt lat="45.66922" lon="5.35804">
        <ele>217</ele>
        <time>2021-06-06T10:07:35.452Z</time>
      </trkpt>
      <trkpt lat="45.66916" lon="5.35798">
        <ele>218</ele>
        <time>2021-06-06T10:07:36.452Z</time>
      </trkpt>
      <trkpt lat="45.66911" lon="5.35791">
        <ele>218</ele>
        <time>2021-06-06T10:07:37.451Z</time>
      </trkpt>
      <trkpt lat="45.66906" lon="5.35784">
        <ele>218</ele>
        <time>2021-06-06T10:07:38.452Z</time>
      </trkpt>
      <trkpt lat="45.66901" lon="5.35777">
        <ele>218</ele>
        <time>2021-06-06T10:07:39.452Z</time>
      </trkpt>
      <trkpt lat="45.66897" lon="5.35769">
        <ele>219</ele>
        <time>2021-06-06T10:07:40.451Z</time>
      </trkpt>
      <trkpt lat="45.66893" lon="5.35761">
        <ele>219</ele>
        <time>2021-06-06T10:07:41.452Z</time>
      </trkpt>
      <trkpt lat="45.6689" lon="5.35752">
        <ele>219</ele>
        <time>2021-06-06T10:07:42.452Z</time>
      </trkpt>
      <trkpt lat="45.66887" lon="5.35744">
        <ele>220</ele>
        <time>2021-06-06T10:07:43.451Z</time>
      </trkpt>
      <trkpt lat="45.66884" lon="5.35735">
        <ele>220</ele>
        <time>2021-06-06T10:07:44.451Z</time>
      </trkpt>
      <trkpt lat="45.66881" lon="5.35727">
        <ele>220</ele>
        <time>2021-06-06T10:07:45.452Z</time>
      </trkpt>
      <trkpt lat="45.66879" lon="5.35718">
        <ele>221</ele>
        <time>2021-06-06T10:07:46.452Z</time>
      </trkpt>
      <trkpt lat="45.66877" lon="5.3571">
        <ele>221</ele>
        <time>2021-06-06T10:07:47.451Z</time>
      </trkpt>
      <trkpt lat="45.66875" lon="5.35701">
        <ele>221</ele>
        <time>2021-06-06T10:07:48.451Z</time>
      </trkpt>
      <trkpt lat="45.66873" lon="5.35692">
        <ele>222</ele>
        <time>2021-06-06T10:07:49.452Z</time>
      </trkpt>
      <trkpt lat="45.66873" lon="5.35684">
        <ele>222</ele>
        <time>2021-06-06T10:07:50.451Z</time>
      </trkpt>
      <trkpt lat="45.66872" lon="5.35675">
        <ele>222</ele>
        <time>2021-06-06T10:07:51.452Z</time>
      </trkpt>
      <trkpt lat="45.66873" lon="5.35667">
        <ele>222</ele>
        <time>2021-06-06T10:07:52.452Z</time>
      </trkpt>
      <trkpt lat="45.66873" lon="5.35658">
        <ele>222</ele>
        <time>2021-06-06T10:07:53.452Z</time>
      </trkpt>
      <trkpt lat="45.66875" lon="5.3565">
        <ele>223</ele>
        <time>2021-06-06T10:07:54.452Z</time>
      </trkpt>
      <trkpt lat="45.66876" lon="5.35642">
        <ele>223</ele>
        <time>2021-06-06T10:07:55.452Z</time>
      </trkpt>
      <trkpt lat="45.66878" lon="5.35634">
        <ele>224</ele>
        <time>2021-06-06T10:07:56.452Z</time>
      </trkpt>
      <trkpt lat="45.6688" lon="5.35625">
        <ele>224</ele>
        <time>2021-06-06T10:07:57.452Z</time>
      </trkpt>
      <trkpt lat="45.66883" lon="5.35617">
        <ele>225</ele>
        <time>2021-06-06T10:07:58.452Z</time>
      </trkpt>
      <trkpt lat="45.66885" lon="5.35609">
        <ele>226</ele>
        <time>2021-06-06T10:07:59.452Z</time>
      </trkpt>
      <trkpt lat="45.66887" lon="5.35602">
        <ele>227</ele>
        <time>2021-06-06T10:08:00.452Z</time>
      </trkpt>
      <trkpt lat="45.66889" lon="5.35594">
        <ele>227</ele>
        <time>2021-06-06T10:08:01.452Z</time>
      </trkpt>
      <trkpt lat="45.66892" lon="5.35586">
        <ele>228</ele>
        <time>2021-06-06T10:08:02.452Z</time>
      </trkpt>
      <trkpt lat="45.66894" lon="5.35578">
        <ele>228</ele>
        <time>2021-06-06T10:08:03.452Z</time>
      </trkpt>
      <trkpt lat="45.66896" lon="5.35571">
        <ele>229</ele>
        <time>2021-06-06T10:08:04.452Z</time>
      </trkpt>
      <trkpt lat="45.66898" lon="5.35563">
        <ele>230</ele>
        <time>2021-06-06T10:08:05.452Z</time>
      </trkpt>
      <trkpt lat="45.669" lon="5.35555">
        <ele>230</ele>
        <time>2021-06-06T10:08:06.452Z</time>
      </trkpt>
      <trkpt lat="45.66902" lon="5.35548">
        <ele>231</ele>
        <time>2021-06-06T10:08:07.452Z</time>
      </trkpt>
      <trkpt lat="45.66903" lon="5.3554">
        <ele>231</ele>
        <time>2021-06-06T10:08:08.452Z</time>
      </trkpt>
      <trkpt lat="45.66905" lon="5.35533">
        <ele>232</ele>
        <time>2021-06-06T10:08:09.452Z</time>
      </trkpt>
      <trkpt lat="45.66906" lon="5.35525">
        <ele>232</ele>
        <time>2021-06-06T10:08:10.452Z</time>
      </trkpt>
      <trkpt lat="45.66907" lon="5.35518">
        <ele>232</ele>
        <time>2021-06-06T10:08:11.452Z</time>
      </trkpt>
      <trkpt lat="45.66908" lon="5.35511">
        <ele>233</ele>
        <time>2021-06-06T10:08:12.452Z</time>
      </trkpt>
      <trkpt lat="45.66909" lon="5.35504">
        <ele>233</ele>
        <time>2021-06-06T10:08:13.452Z</time>
      </trkpt>
      <trkpt lat="45.6691" lon="5.35497">
        <ele>233</ele>
        <time>2021-06-06T10:08:14.452Z</time>
      </trkpt>
      <trkpt lat="45.6691" lon="5.3549">
        <ele>233</ele>
        <time>2021-06-06T10:08:15.452Z</time>
      </trkpt>
      <trkpt lat="45.66911" lon="5.35483">
        <ele>233</ele>
        <time>2021-06-06T10:08:16.451Z</time>
      </trkpt>
      <trkpt lat="45.66912" lon="5.35476">
        <ele>233</ele>
        <time>2021-06-06T10:08:17.452Z</time>
      </trkpt>
      <trkpt lat="45.66912" lon="5.3547">
        <ele>232</ele>
        <time>2021-06-06T10:08:18.451Z</time>
      </trkpt>
      <trkpt lat="45.66912" lon="5.35463">
        <ele>232</ele>
        <time>2021-06-06T10:08:19.452Z</time>
      </trkpt>
      <trkpt lat="45.66912" lon="5.35456">
        <ele>232</ele>
        <time>2021-06-06T10:08:20.452Z</time>
      </trkpt>
      <trkpt lat="45.66912" lon="5.3545">
        <ele>232</ele>
        <time>2021-06-06T10:08:21.452Z</time>
      </trkpt>
      <trkpt lat="45.66912" lon="5.35443">
        <ele>232</ele>
        <time>2021-06-06T10:08:22.452Z</time>
      </trkpt>
      <trkpt lat="45.66912" lon="5.35436">
        <ele>232</ele>
        <time>2021-06-06T10:08:23.452Z</time>
      </trkpt>
      <trkpt lat="45.66912" lon="5.35429">
        <ele>232</ele>
        <time>2021-06-06T10:08:24.452Z</time>
      </trkpt>
      <trkpt lat="45.66911" lon="5.35422">
        <ele>232</ele>
        <time>2021-06-06T10:08:25.451Z</time>
      </trkpt>
      <trkpt lat="45.66911" lon="5.35415">
        <ele>232</ele>
        <time>2021-06-06T10:08:26.451Z</time>
      </trkpt>
      <trkpt lat="45.66911" lon="5.35408">
        <ele>232</ele>
        <time>2021-06-06T10:08:27.452Z</time>
      </trkpt>
      <trkpt lat="45.66911" lon="5.35401">
        <ele>232</ele>
        <time>2021-06-06T10:08:28.452Z</time>
      </trkpt>
      <trkpt lat="45.6691" lon="5.35393">
        <ele>232</ele>
        <time>2021-06-06T10:08:31.546Z</time>
      </trkpt>
      <trkpt lat="45.6691" lon="5.35386">
        <ele>232</ele>
        <time>2021-06-06T10:08:32.545Z</time>
      </trkpt>
      <trkpt lat="45.6691" lon="5.35379">
        <ele>232</ele>
        <time>2021-06-06T10:08:33.546Z</time>
      </trkpt>
      <trkpt lat="45.66909" lon="5.35372">
        <ele>232</ele>
        <time>2021-06-06T10:08:34.546Z</time>
      </trkpt>
      <trkpt lat="45.66908" lon="5.35365">
        <ele>233</ele>
        <time>2021-06-06T10:08:35.546Z</time>
      </trkpt>
      <trkpt lat="45.66908" lon="5.35358">
        <ele>233</ele>
        <time>2021-06-06T10:08:36.545Z</time>
      </trkpt>
      <trkpt lat="45.66907" lon="5.35351">
        <ele>233</ele>
        <time>2021-06-06T10:08:37.546Z</time>
      </trkpt>
      <trkpt lat="45.66907" lon="5.35344">
        <ele>233</ele>
        <time>2021-06-06T10:08:38.545Z</time>
      </trkpt>
      <trkpt lat="45.66906" lon="5.35337">
        <ele>232</ele>
        <time>2021-06-06T10:08:39.546Z</time>
      </trkpt>
      <trkpt lat="45.66905" lon="5.3533">
        <ele>232</ele>
        <time>2021-06-06T10:08:40.545Z</time>
      </trkpt>
      <trkpt lat="45.66904" lon="5.35323">
        <ele>232</ele>
        <time>2021-06-06T10:08:41.545Z</time>
      </trkpt>
      <trkpt lat="45.66903" lon="5.35316">
        <ele>232</ele>
        <time>2021-06-06T10:08:42.545Z</time>
      </trkpt>
      <trkpt lat="45.66903" lon="5.35309">
        <ele>233</ele>
        <time>2021-06-06T10:08:43.546Z</time>
      </trkpt>
      <trkpt lat="45.66902" lon="5.35302">
        <ele>233</ele>
        <time>2021-06-06T10:08:44.546Z</time>
      </trkpt>
      <trkpt lat="45.66901" lon="5.35295">
        <ele>233</ele>
        <time>2021-06-06T10:08:45.546Z</time>
      </trkpt>
      <trkpt lat="45.669" lon="5.35288">
        <ele>232</ele>
        <time>2021-06-06T10:08:46.546Z</time>
      </trkpt>
      <trkpt lat="45.66899" lon="5.35282">
        <ele>232</ele>
        <time>2021-06-06T10:08:47.546Z</time>
      </trkpt>
      <trkpt lat="45.66898" lon="5.35275">
        <ele>232</ele>
        <time>2021-06-06T10:08:52.547Z</time>
      </trkpt>
      <trkpt lat="45.66897" lon="5.35268">
        <ele>232</ele>
        <time>2021-06-06T10:08:53.547Z</time>
      </trkpt>
      <trkpt lat="45.66896" lon="5.35261">
        <ele>232</ele>
        <time>2021-06-06T10:08:54.546Z</time>
      </trkpt>
      <trkpt lat="45.66895" lon="5.35255">
        <ele>231</ele>
        <time>2021-06-06T10:09:00.313Z</time>
      </trkpt>
      <trkpt lat="45.66895" lon="5.35248">
        <ele>231</ele>
        <time>2021-06-06T10:09:01.312Z</time>
      </trkpt>
      <trkpt lat="45.66894" lon="5.35241">
        <ele>231</ele>
        <time>2021-06-06T10:09:40.424Z</time>
      </trkpt>
      <trkpt lat="45.66893" lon="5.35235">
        <ele>231</ele>
        <time>2021-06-06T10:09:41.424Z</time>
      </trkpt>
      <trkpt lat="45.66892" lon="5.35228">
        <ele>231</ele>
        <time>2021-06-06T10:09:42.424Z</time>
      </trkpt>
      <trkpt lat="45.66892" lon="5.35222">
        <ele>230</ele>
        <time>2021-06-06T10:10:49.548Z</time>
      </trkpt>
      <trkpt lat="45.66891" lon="5.35215">
        <ele>230</ele>
        <time>2021-06-06T10:10:50.547Z</time>
      </trkpt>
      <trkpt lat="45.6689" lon="5.35208">
        <ele>230</ele>
        <time>2021-06-06T10:10:51.548Z</time>
      </trkpt>
      <trkpt lat="45.66889" lon="5.35201">
        <ele>230</ele>
        <time>2021-06-06T10:10:52.547Z</time>
      </trkpt>
      <trkpt lat="45.66888" lon="5.35194">
        <ele>230</ele>
        <time>2021-06-06T10:10:53.548Z</time>
      </trkpt>
      <trkpt lat="45.66887" lon="5.35187">
        <ele>231</ele>
        <time>2021-06-06T10:10:54.548Z</time>
      </trkpt>
      <trkpt lat="45.66886" lon="5.3518">
        <ele>232</ele>
        <time>2021-06-06T10:10:55.548Z</time>
      </trkpt>
      <trkpt lat="45.66885" lon="5.35172">
        <ele>233</ele>
        <time>2021-06-06T10:10:56.547Z</time>
      </trkpt>
      <trkpt lat="45.66884" lon="5.35165">
        <ele>234</ele>
        <time>2021-06-06T10:10:57.548Z</time>
      </trkpt>
      <trkpt lat="45.66883" lon="5.35158">
        <ele>235</ele>
        <time>2021-06-06T10:10:58.548Z</time>
      </trkpt>
      <trkpt lat="45.66882" lon="5.3515">
        <ele>235</ele>
        <time>2021-06-06T10:10:59.547Z</time>
      </trkpt>
      <trkpt lat="45.66881" lon="5.35143">
        <ele>236</ele>
        <time>2021-06-06T10:11:00.548Z</time>
      </trkpt>
      <trkpt lat="45.6688" lon="5.35136">
        <ele>237</ele>
        <time>2021-06-06T10:11:01.548Z</time>
      </trkpt>
      <trkpt lat="45.66879" lon="5.35129">
        <ele>237</ele>
        <time>2021-06-06T10:11:02.548Z</time>
      </trkpt>
      <trkpt lat="45.66878" lon="5.35121">
        <ele>238</ele>
        <time>2021-06-06T10:11:03.547Z</time>
      </trkpt>
      <trkpt lat="45.66877" lon="5.35114">
        <ele>238</ele>
        <time>2021-06-06T10:11:04.548Z</time>
      </trkpt>
      <trkpt lat="45.66876" lon="5.35106">
        <ele>239</ele>
        <time>2021-06-06T10:11:05.547Z</time>
      </trkpt>
      <trkpt lat="45.66875" lon="5.35099">
        <ele>240</ele>
        <time>2021-06-06T10:11:06.548Z</time>
      </trkpt>
      <trkpt lat="45.66874" lon="5.3509">
        <ele>240</ele>
        <time>2021-06-06T10:11:07.548Z</time>
      </trkpt>
      <trkpt lat="45.66873" lon="5.35083">
        <ele>241</ele>
        <time>2021-06-06T10:11:08.548Z</time>
      </trkpt>
      <trkpt lat="45.66872" lon="5.35075">
        <ele>241</ele>
        <time>2021-06-06T10:11:09.548Z</time>
      </trkpt>
      <trkpt lat="45.66871" lon="5.35068">
        <ele>242</ele>
        <time>2021-06-06T10:11:10.548Z</time>
      </trkpt>
      <trkpt lat="45.6687" lon="5.3506">
        <ele>242</ele>
        <time>2021-06-06T10:11:11.548Z</time>
      </trkpt>
      <trkpt lat="45.66869" lon="5.35051">
        <ele>241</ele>
        <time>2021-06-06T10:11:12.548Z</time>
      </trkpt>
      <trkpt lat="45.66868" lon="5.35045">
        <ele>241</ele>
        <time>2021-06-06T10:11:13.547Z</time>
      </trkpt>
      <trkpt lat="45.66867" lon="5.35037">
        <ele>241</ele>
        <time>2021-06-06T10:11:14.548Z</time>
      </trkpt>
      <trkpt lat="45.66867" lon="5.35029">
        <ele>240</ele>
        <time>2021-06-06T10:11:15.547Z</time>
      </trkpt>
      <trkpt lat="45.66866" lon="5.35021">
        <ele>239</ele>
        <time>2021-06-06T10:11:16.548Z</time>
      </trkpt>
      <trkpt lat="45.66865" lon="5.35013">
        <ele>239</ele>
        <time>2021-06-06T10:11:17.548Z</time>
      </trkpt>
      <trkpt lat="45.66864" lon="5.35006">
        <ele>238</ele>
        <time>2021-06-06T10:11:18.548Z</time>
      </trkpt>
      <trkpt lat="45.66863" lon="5.34998">
        <ele>237</ele>
        <time>2021-06-06T10:11:19.547Z</time>
      </trkpt>
      <trkpt lat="45.66862" lon="5.34991">
        <ele>237</ele>
        <time>2021-06-06T10:11:20.548Z</time>
      </trkpt>
      <trkpt lat="45.66861" lon="5.34983">
        <ele>236</ele>
        <time>2021-06-06T10:11:21.547Z</time>
      </trkpt>
      <trkpt lat="45.66859" lon="5.34976">
        <ele>236</ele>
        <time>2021-06-06T10:11:22.548Z</time>
      </trkpt>
      <trkpt lat="45.66858" lon="5.34968">
        <ele>236</ele>
        <time>2021-06-06T10:11:23.548Z</time>
      </trkpt>
      <trkpt lat="45.66857" lon="5.34961">
        <ele>235</ele>
        <time>2021-06-06T10:11:24.548Z</time>
      </trkpt>
      <trkpt lat="45.66856" lon="5.34953">
        <ele>235</ele>
        <time>2021-06-06T10:11:25.547Z</time>
      </trkpt>
      <trkpt lat="45.66854" lon="5.34945">
        <ele>235</ele>
        <time>2021-06-06T10:11:26.548Z</time>
      </trkpt>
      <trkpt lat="45.66853" lon="5.34937">
        <ele>235</ele>
        <time>2021-06-06T10:11:27.548Z</time>
      </trkpt>
      <trkpt lat="45.66851" lon="5.34929">
        <ele>235</ele>
        <time>2021-06-06T10:11:28.548Z</time>
      </trkpt>
      <trkpt lat="45.66849" lon="5.3492">
        <ele>235</ele>
        <time>2021-06-06T10:11:29.548Z</time>
      </trkpt>
      <trkpt lat="45.66847" lon="5.34912">
        <ele>235</ele>
        <time>2021-06-06T10:11:30.548Z</time>
      </trkpt>
      <trkpt lat="45.66845" lon="5.34904">
        <ele>235</ele>
        <time>2021-06-06T10:11:31.548Z</time>
      </trkpt>
      <trkpt lat="45.66843" lon="5.34895">
        <ele>235</ele>
        <time>2021-06-06T10:11:32.548Z</time>
      </trkpt>
      <trkpt lat="45.66841" lon="5.34887">
        <ele>235</ele>
        <time>2021-06-06T10:11:33.548Z</time>
      </trkpt>
      <trkpt lat="45.66838" lon="5.34879">
        <ele>235</ele>
        <time>2021-06-06T10:11:34.548Z</time>
      </trkpt>
      <trkpt lat="45.66835" lon="5.34871">
        <ele>235</ele>
        <time>2021-06-06T10:11:35.547Z</time>
      </trkpt>
      <trkpt lat="45.66832" lon="5.3486">
        <ele>236</ele>
        <time>2021-06-06T10:11:36.548Z</time>
      </trkpt>
      <trkpt lat="45.6683" lon="5.34854">
        <ele>236</ele>
        <time>2021-06-06T10:11:37.548Z</time>
      </trkpt>
      <trkpt lat="45.66827" lon="5.34845">
        <ele>237</ele>
        <time>2021-06-06T10:11:38.548Z</time>
      </trkpt>
      <trkpt lat="45.66824" lon="5.34836">
        <ele>237</ele>
        <time>2021-06-06T10:11:39.548Z</time>
      </trkpt>
      <trkpt lat="45.66822" lon="5.34827">
        <ele>237</ele>
        <time>2021-06-06T10:11:40.548Z</time>
      </trkpt>
      <trkpt lat="45.6682" lon="5.34817">
        <ele>238</ele>
        <time>2021-06-06T10:11:41.547Z</time>
      </trkpt>
      <trkpt lat="45.66818" lon="5.34807">
        <ele>238</ele>
        <time>2021-06-06T10:11:42.548Z</time>
      </trkpt>
      <trkpt lat="45.66816" lon="5.34797">
        <ele>238</ele>
        <time>2021-06-06T10:11:43.547Z</time>
      </trkpt>
      <trkpt lat="45.66815" lon="5.34786">
        <ele>239</ele>
        <time>2021-06-06T10:11:44.548Z</time>
      </trkpt>
      <trkpt lat="45.66814" lon="5.34776">
        <ele>239</ele>
        <time>2021-06-06T10:11:45.547Z</time>
      </trkpt>
      <trkpt lat="45.66814" lon="5.34765">
        <ele>239</ele>
        <time>2021-06-06T10:11:46.547Z</time>
      </trkpt>
      <trkpt lat="45.66814" lon="5.34754">
        <ele>239</ele>
        <time>2021-06-06T10:11:47.548Z</time>
      </trkpt>
      <trkpt lat="45.66814" lon="5.34742">
        <ele>239</ele>
        <time>2021-06-06T10:11:48.548Z</time>
      </trkpt>
      <trkpt lat="45.66814" lon="5.34731">
        <ele>239</ele>
        <time>2021-06-06T10:11:49.548Z</time>
      </trkpt>
      <trkpt lat="45.66814" lon="5.34719">
        <ele>239</ele>
        <time>2021-06-06T10:11:50.547Z</time>
      </trkpt>
      <trkpt lat="45.66814" lon="5.34708">
        <ele>239</ele>
        <time>2021-06-06T10:11:51.547Z</time>
      </trkpt>
      <trkpt lat="45.66814" lon="5.34696">
        <ele>240</ele>
        <time>2021-06-06T10:11:52.548Z</time>
      </trkpt>
      <trkpt lat="45.66815" lon="5.34685">
        <ele>240</ele>
        <time>2021-06-06T10:11:53.547Z</time>
      </trkpt>
      <trkpt lat="45.66815" lon="5.34673">
        <ele>240</ele>
        <time>2021-06-06T10:11:54.547Z</time>
      </trkpt>
      <trkpt lat="45.66816" lon="5.34662">
        <ele>241</ele>
        <time>2021-06-06T10:11:55.548Z</time>
      </trkpt>
      <trkpt lat="45.66817" lon="5.3465">
        <ele>240</ele>
        <time>2021-06-06T10:11:56.548Z</time>
      </trkpt>
      <trkpt lat="45.66817" lon="5.34639">
        <ele>240</ele>
        <time>2021-06-06T10:11:57.548Z</time>
      </trkpt>
      <trkpt lat="45.66818" lon="5.34627">
        <ele>240</ele>
        <time>2021-06-06T10:11:58.548Z</time>
      </trkpt>
      <trkpt lat="45.66818" lon="5.34615">
        <ele>240</ele>
        <time>2021-06-06T10:11:59.547Z</time>
      </trkpt>
      <trkpt lat="45.66819" lon="5.34603">
        <ele>240</ele>
        <time>2021-06-06T10:12:00.548Z</time>
      </trkpt>
      <trkpt lat="45.66819" lon="5.34591">
        <ele>240</ele>
        <time>2021-06-06T10:12:01.547Z</time>
      </trkpt>
      <trkpt lat="45.6682" lon="5.34579">
        <ele>240</ele>
        <time>2021-06-06T10:12:02.548Z</time>
      </trkpt>
      <trkpt lat="45.6682" lon="5.34568">
        <ele>239</ele>
        <time>2021-06-06T10:12:03.547Z</time>
      </trkpt>
      <trkpt lat="45.66821" lon="5.34556">
        <ele>240</ele>
        <time>2021-06-06T10:12:04.548Z</time>
      </trkpt>
      <trkpt lat="45.66821" lon="5.34544">
        <ele>240</ele>
        <time>2021-06-06T10:12:05.548Z</time>
      </trkpt>
      <trkpt lat="45.66821" lon="5.34533">
        <ele>240</ele>
        <time>2021-06-06T10:12:06.548Z</time>
      </trkpt>
      <trkpt lat="45.66822" lon="5.3452">
        <ele>240</ele>
        <time>2021-06-06T10:12:07.547Z</time>
      </trkpt>
      <trkpt lat="45.66822" lon="5.34509">
        <ele>241</ele>
        <time>2021-06-06T10:12:08.548Z</time>
      </trkpt>
      <trkpt lat="45.66822" lon="5.34497">
        <ele>241</ele>
        <time>2021-06-06T10:12:09.547Z</time>
      </trkpt>
      <trkpt lat="45.66823" lon="5.34482">
        <ele>241</ele>
        <time>2021-06-06T10:12:10.547Z</time>
      </trkpt>
      <trkpt lat="45.66824" lon="5.3447">
        <ele>242</ele>
        <time>2021-06-06T10:12:11.548Z</time>
      </trkpt>
      <trkpt lat="45.66824" lon="5.3446">
        <ele>242</ele>
        <time>2021-06-06T10:12:12.548Z</time>
      </trkpt>
      <trkpt lat="45.66824" lon="5.34448">
        <ele>242</ele>
        <time>2021-06-06T10:12:13.548Z</time>
      </trkpt>
      <trkpt lat="45.66825" lon="5.34436">
        <ele>243</ele>
        <time>2021-06-06T10:12:14.548Z</time>
      </trkpt>
      <trkpt lat="45.66825" lon="5.34423">
        <ele>243</ele>
        <time>2021-06-06T10:12:15.547Z</time>
      </trkpt>
      <trkpt lat="45.66826" lon="5.34411">
        <ele>243</ele>
        <time>2021-06-06T10:12:16.547Z</time>
      </trkpt>
      <trkpt lat="45.66826" lon="5.34399">
        <ele>243</ele>
        <time>2021-06-06T10:12:17.548Z</time>
      </trkpt>
      <trkpt lat="45.66826" lon="5.34384">
        <ele>243</ele>
        <time>2021-06-06T10:12:18.547Z</time>
      </trkpt>
      <trkpt lat="45.66827" lon="5.34374">
        <ele>243</ele>
        <time>2021-06-06T10:12:19.548Z</time>
      </trkpt>
      <trkpt lat="45.66827" lon="5.34359">
        <ele>243</ele>
        <time>2021-06-06T10:12:20.548Z</time>
      </trkpt>
      <trkpt lat="45.66828" lon="5.34349">
        <ele>243</ele>
        <time>2021-06-06T10:12:21.547Z</time>
      </trkpt>
      <trkpt lat="45.66828" lon="5.34337">
        <ele>243</ele>
        <time>2021-06-06T10:12:22.548Z</time>
      </trkpt>
      <trkpt lat="45.66829" lon="5.34324">
        <ele>243</ele>
        <time>2021-06-06T10:12:23.548Z</time>
      </trkpt>
      <trkpt lat="45.6683" lon="5.34309">
        <ele>243</ele>
        <time>2021-06-06T10:12:24.547Z</time>
      </trkpt>
      <trkpt lat="45.6683" lon="5.34299">
        <ele>243</ele>
        <time>2021-06-06T10:12:25.548Z</time>
      </trkpt>
      <trkpt lat="45.66831" lon="5.34286">
        <ele>244</ele>
        <time>2021-06-06T10:12:26.548Z</time>
      </trkpt>
      <trkpt lat="45.66831" lon="5.34273">
        <ele>244</ele>
        <time>2021-06-06T10:12:27.547Z</time>
      </trkpt>
      <trkpt lat="45.66831" lon="5.34261">
        <ele>244</ele>
        <time>2021-06-06T10:12:28.548Z</time>
      </trkpt>
      <trkpt lat="45.66832" lon="5.34248">
        <ele>244</ele>
        <time>2021-06-06T10:12:29.548Z</time>
      </trkpt>
      <trkpt lat="45.66832" lon="5.34235">
        <ele>244</ele>
        <time>2021-06-06T10:12:30.547Z</time>
      </trkpt>
      <trkpt lat="45.66832" lon="5.34223">
        <ele>243</ele>
        <time>2021-06-06T10:12:31.547Z</time>
      </trkpt>
      <trkpt lat="45.66832" lon="5.3421">
        <ele>242</ele>
        <time>2021-06-06T10:12:32.547Z</time>
      </trkpt>
      <trkpt lat="45.66833" lon="5.34197">
        <ele>242</ele>
        <time>2021-06-06T10:12:33.548Z</time>
      </trkpt>
      <trkpt lat="45.66833" lon="5.34185">
        <ele>241</ele>
        <time>2021-06-06T10:12:34.548Z</time>
      </trkpt>
      <trkpt lat="45.66834" lon="5.34172">
        <ele>241</ele>
        <time>2021-06-06T10:12:35.547Z</time>
      </trkpt>
      <trkpt lat="45.66834" lon="5.34158">
        <ele>240</ele>
        <time>2021-06-06T10:12:36.548Z</time>
      </trkpt>
      <trkpt lat="45.66834" lon="5.34143">
        <ele>240</ele>
        <time>2021-06-06T10:12:37.548Z</time>
      </trkpt>
      <trkpt lat="45.66834" lon="5.34132">
        <ele>240</ele>
        <time>2021-06-06T10:12:38.548Z</time>
      </trkpt>
      <trkpt lat="45.66835" lon="5.34116">
        <ele>240</ele>
        <time>2021-06-06T10:12:39.548Z</time>
      </trkpt>
      <trkpt lat="45.66835" lon="5.34105">
        <ele>241</ele>
        <time>2021-06-06T10:12:40.547Z</time>
      </trkpt>
      <trkpt lat="45.66836" lon="5.34092">
        <ele>241</ele>
        <time>2021-06-06T10:12:41.548Z</time>
      </trkpt>
      <trkpt lat="45.66836" lon="5.34078">
        <ele>241</ele>
        <time>2021-06-06T10:12:42.548Z</time>
      </trkpt>
      <trkpt lat="45.66836" lon="5.34065">
        <ele>241</ele>
        <time>2021-06-06T10:12:43.547Z</time>
      </trkpt>
      <trkpt lat="45.66837" lon="5.34049">
        <ele>241</ele>
        <time>2021-06-06T10:12:44.547Z</time>
      </trkpt>
      <trkpt lat="45.66837" lon="5.34039">
        <ele>241</ele>
        <time>2021-06-06T10:12:45.548Z</time>
      </trkpt>
      <trkpt lat="45.66838" lon="5.34026">
        <ele>241</ele>
        <time>2021-06-06T10:12:46.548Z</time>
      </trkpt>
      <trkpt lat="45.66838" lon="5.34014">
        <ele>240</ele>
        <time>2021-06-06T10:12:47.548Z</time>
      </trkpt>
      <trkpt lat="45.66838" lon="5.34001">
        <ele>240</ele>
        <time>2021-06-06T10:12:48.548Z</time>
      </trkpt>
      <trkpt lat="45.66839" lon="5.33986">
        <ele>240</ele>
        <time>2021-06-06T10:12:49.548Z</time>
      </trkpt>
      <trkpt lat="45.66839" lon="5.33977">
        <ele>239</ele>
        <time>2021-06-06T10:12:50.548Z</time>
      </trkpt>
      <trkpt lat="45.6684" lon="5.33964">
        <ele>239</ele>
        <time>2021-06-06T10:12:51.547Z</time>
      </trkpt>
      <trkpt lat="45.66841" lon="5.33952">
        <ele>239</ele>
        <time>2021-06-06T10:12:52.548Z</time>
      </trkpt>
      <trkpt lat="45.66841" lon="5.3394">
        <ele>239</ele>
        <time>2021-06-06T10:12:53.548Z</time>
      </trkpt>
      <trkpt lat="45.66842" lon="5.33925">
        <ele>239</ele>
        <time>2021-06-06T10:12:54.547Z</time>
      </trkpt>
      <trkpt lat="45.66842" lon="5.33916">
        <ele>239</ele>
        <time>2021-06-06T10:12:55.548Z</time>
      </trkpt>
      <trkpt lat="45.66843" lon="5.33903">
        <ele>239</ele>
        <time>2021-06-06T10:12:56.547Z</time>
      </trkpt>
      <trkpt lat="45.66843" lon="5.33891">
        <ele>240</ele>
        <time>2021-06-06T10:12:57.548Z</time>
      </trkpt>
      <trkpt lat="45.66844" lon="5.33879">
        <ele>240</ele>
        <time>2021-06-06T10:12:58.548Z</time>
      </trkpt>
      <trkpt lat="45.66845" lon="5.33865">
        <ele>241</ele>
        <time>2021-06-06T10:12:59.547Z</time>
      </trkpt>
      <trkpt lat="45.66845" lon="5.33853">
        <ele>241</ele>
        <time>2021-06-06T10:13:00.547Z</time>
      </trkpt>
      <trkpt lat="45.66845" lon="5.33844">
        <ele>241</ele>
        <time>2021-06-06T10:13:01.548Z</time>
      </trkpt>
      <trkpt lat="45.66846" lon="5.33832">
        <ele>241</ele>
        <time>2021-06-06T10:13:02.547Z</time>
      </trkpt>
      <trkpt lat="45.66847" lon="5.33817">
        <ele>241</ele>
        <time>2021-06-06T10:13:03.548Z</time>
      </trkpt>
      <trkpt lat="45.66847" lon="5.33805">
        <ele>241</ele>
        <time>2021-06-06T10:13:04.548Z</time>
      </trkpt>
      <trkpt lat="45.66848" lon="5.33796">
        <ele>241</ele>
        <time>2021-06-06T10:13:05.547Z</time>
      </trkpt>
      <trkpt lat="45.66848" lon="5.33783">
        <ele>241</ele>
        <time>2021-06-06T10:13:06.548Z</time>
      </trkpt>
      <trkpt lat="45.66849" lon="5.33769">
        <ele>241</ele>
        <time>2021-06-06T10:13:07.548Z</time>
      </trkpt>
      <trkpt lat="45.66849" lon="5.33756">
        <ele>242</ele>
        <time>2021-06-06T10:13:08.548Z</time>
      </trkpt>
      <trkpt lat="45.6685" lon="5.33744">
        <ele>242</ele>
        <time>2021-06-06T10:13:09.548Z</time>
      </trkpt>
      <trkpt lat="45.6685" lon="5.33734">
        <ele>242</ele>
        <time>2021-06-06T10:13:10.548Z</time>
      </trkpt>
      <trkpt lat="45.66851" lon="5.33721">
        <ele>243</ele>
        <time>2021-06-06T10:13:11.548Z</time>
      </trkpt>
      <trkpt lat="45.66852" lon="5.33706">
        <ele>243</ele>
        <time>2021-06-06T10:13:12.548Z</time>
      </trkpt>
      <trkpt lat="45.66852" lon="5.33694">
        <ele>243</ele>
        <time>2021-06-06T10:13:13.548Z</time>
      </trkpt>
      <trkpt lat="45.66853" lon="5.33681">
        <ele>243</ele>
        <time>2021-06-06T10:13:14.548Z</time>
      </trkpt>
      <trkpt lat="45.66853" lon="5.3367">
        <ele>243</ele>
        <time>2021-06-06T10:13:15.548Z</time>
      </trkpt>
      <trkpt lat="45.66854" lon="5.33658">
        <ele>243</ele>
        <time>2021-06-06T10:13:16.547Z</time>
      </trkpt>
      <trkpt lat="45.66855" lon="5.33645">
        <ele>243</ele>
        <time>2021-06-06T10:13:17.548Z</time>
      </trkpt>
      <trkpt lat="45.66855" lon="5.33633">
        <ele>242</ele>
        <time>2021-06-06T10:13:18.548Z</time>
      </trkpt>
      <trkpt lat="45.66856" lon="5.3362">
        <ele>241</ele>
        <time>2021-06-06T10:13:19.547Z</time>
      </trkpt>
      <trkpt lat="45.66856" lon="5.33607">
        <ele>241</ele>
        <time>2021-06-06T10:13:20.547Z</time>
      </trkpt>
      <trkpt lat="45.66856" lon="5.33591">
        <ele>241</ele>
        <time>2021-06-06T10:13:21.547Z</time>
      </trkpt>
      <trkpt lat="45.66856" lon="5.3358">
        <ele>241</ele>
        <time>2021-06-06T10:13:22.548Z</time>
      </trkpt>
      <trkpt lat="45.66856" lon="5.33566">
        <ele>241</ele>
        <time>2021-06-06T10:13:23.548Z</time>
      </trkpt>
      <trkpt lat="45.66856" lon="5.33553">
        <ele>241</ele>
        <time>2021-06-06T10:13:24.547Z</time>
      </trkpt>
      <trkpt lat="45.66856" lon="5.33539">
        <ele>240</ele>
        <time>2021-06-06T10:13:25.547Z</time>
      </trkpt>
      <trkpt lat="45.66855" lon="5.33522">
        <ele>240</ele>
        <time>2021-06-06T10:13:26.548Z</time>
      </trkpt>
      <trkpt lat="45.66854" lon="5.33512">
        <ele>239</ele>
        <time>2021-06-06T10:13:27.548Z</time>
      </trkpt>
      <trkpt lat="45.66852" lon="5.33495">
        <ele>239</ele>
        <time>2021-06-06T10:13:28.548Z</time>
      </trkpt>
      <trkpt lat="45.6685" lon="5.33485">
        <ele>238</ele>
        <time>2021-06-06T10:13:29.547Z</time>
      </trkpt>
      <trkpt lat="45.66847" lon="5.33471">
        <ele>237</ele>
        <time>2021-06-06T10:13:30.547Z</time>
      </trkpt>
      <trkpt lat="45.66843" lon="5.33458">
        <ele>236</ele>
        <time>2021-06-06T10:13:31.548Z</time>
      </trkpt>
      <trkpt lat="45.66839" lon="5.33445">
        <ele>235</ele>
        <time>2021-06-06T10:13:32.548Z</time>
      </trkpt>
      <trkpt lat="45.66835" lon="5.33431">
        <ele>234</ele>
        <time>2021-06-06T10:13:33.548Z</time>
      </trkpt>
      <trkpt lat="45.66831" lon="5.33418">
        <ele>233</ele>
        <time>2021-06-06T10:13:34.548Z</time>
      </trkpt>
      <trkpt lat="45.66826" lon="5.33404">
        <ele>233</ele>
        <time>2021-06-06T10:13:35.547Z</time>
      </trkpt>
      <trkpt lat="45.66822" lon="5.3339">
        <ele>232</ele>
        <time>2021-06-06T10:13:36.548Z</time>
      </trkpt>
      <trkpt lat="45.66817" lon="5.33376">
        <ele>231</ele>
        <time>2021-06-06T10:13:37.548Z</time>
      </trkpt>
      <trkpt lat="45.66812" lon="5.33362">
        <ele>230</ele>
        <time>2021-06-06T10:13:38.548Z</time>
      </trkpt>
      <trkpt lat="45.66808" lon="5.33347">
        <ele>230</ele>
        <time>2021-06-06T10:13:39.548Z</time>
      </trkpt>
      <trkpt lat="45.66803" lon="5.33333">
        <ele>230</ele>
        <time>2021-06-06T10:13:40.548Z</time>
      </trkpt>
      <trkpt lat="45.66798" lon="5.33319">
        <ele>230</ele>
        <time>2021-06-06T10:13:41.548Z</time>
      </trkpt>
      <trkpt lat="45.66793" lon="5.33304">
        <ele>229</ele>
        <time>2021-06-06T10:13:42.548Z</time>
      </trkpt>
      <trkpt lat="45.66788" lon="5.33289">
        <ele>229</ele>
        <time>2021-06-06T10:13:43.548Z</time>
      </trkpt>
      <trkpt lat="45.66783" lon="5.33274">
        <ele>228</ele>
        <time>2021-06-06T10:13:44.548Z</time>
      </trkpt>
      <trkpt lat="45.66778" lon="5.33259">
        <ele>228</ele>
        <time>2021-06-06T10:13:45.547Z</time>
      </trkpt>
      <trkpt lat="45.66774" lon="5.33244">
        <ele>228</ele>
        <time>2021-06-06T10:13:46.547Z</time>
      </trkpt>
      <trkpt lat="45.66769" lon="5.33229">
        <ele>227</ele>
        <time>2021-06-06T10:13:47.547Z</time>
      </trkpt>
      <trkpt lat="45.66764" lon="5.33214">
        <ele>227</ele>
        <time>2021-06-06T10:13:48.548Z</time>
      </trkpt>
      <trkpt lat="45.66759" lon="5.33199">
        <ele>226</ele>
        <time>2021-06-06T10:13:49.548Z</time>
      </trkpt>
      <trkpt lat="45.66753" lon="5.33184">
        <ele>226</ele>
        <time>2021-06-06T10:13:50.547Z</time>
      </trkpt>
      <trkpt lat="45.66748" lon="5.33169">
        <ele>225</ele>
        <time>2021-06-06T10:13:51.547Z</time>
      </trkpt>
      <trkpt lat="45.66743" lon="5.33154">
        <ele>225</ele>
        <time>2021-06-06T10:13:52.548Z</time>
      </trkpt>
      <trkpt lat="45.66738" lon="5.33139">
        <ele>225</ele>
        <time>2021-06-06T10:13:53.548Z</time>
      </trkpt>
      <trkpt lat="45.66732" lon="5.33124">
        <ele>224</ele>
        <time>2021-06-06T10:13:54.548Z</time>
      </trkpt>
      <trkpt lat="45.66727" lon="5.3311">
        <ele>224</ele>
        <time>2021-06-06T10:13:55.548Z</time>
      </trkpt>
      <trkpt lat="45.66722" lon="5.33095">
        <ele>224</ele>
        <time>2021-06-06T10:13:56.547Z</time>
      </trkpt>
      <trkpt lat="45.66716" lon="5.33081">
        <ele>224</ele>
        <time>2021-06-06T10:13:57.547Z</time>
      </trkpt>
      <trkpt lat="45.66711" lon="5.33067">
        <ele>224</ele>
        <time>2021-06-06T10:13:58.548Z</time>
      </trkpt>
      <trkpt lat="45.66706" lon="5.33053">
        <ele>224</ele>
        <time>2021-06-06T10:13:59.548Z</time>
      </trkpt>
      <trkpt lat="45.667" lon="5.33039">
        <ele>224</ele>
        <time>2021-06-06T10:14:00.547Z</time>
      </trkpt>
      <trkpt lat="45.66695" lon="5.33026">
        <ele>224</ele>
        <time>2021-06-06T10:14:01.548Z</time>
      </trkpt>
      <trkpt lat="45.6669" lon="5.33012">
        <ele>224</ele>
        <time>2021-06-06T10:14:02.548Z</time>
      </trkpt>
      <trkpt lat="45.66683" lon="5.32997">
        <ele>224</ele>
        <time>2021-06-06T10:14:03.548Z</time>
      </trkpt>
      <trkpt lat="45.66678" lon="5.32988">
        <ele>224</ele>
        <time>2021-06-06T10:14:04.548Z</time>
      </trkpt>
      <trkpt lat="45.66671" lon="5.32976">
        <ele>225</ele>
        <time>2021-06-06T10:14:05.548Z</time>
      </trkpt>
      <trkpt lat="45.66664" lon="5.32965">
        <ele>225</ele>
        <time>2021-06-06T10:14:06.547Z</time>
      </trkpt>
      <trkpt lat="45.66657" lon="5.32954">
        <ele>225</ele>
        <time>2021-06-06T10:14:07.548Z</time>
      </trkpt>
      <trkpt lat="45.6665" lon="5.32944">
        <ele>224</ele>
        <time>2021-06-06T10:14:08.547Z</time>
      </trkpt>
      <trkpt lat="45.66642" lon="5.32935">
        <ele>224</ele>
        <time>2021-06-06T10:14:09.548Z</time>
      </trkpt>
      <trkpt lat="45.66634" lon="5.32926">
        <ele>224</ele>
        <time>2021-06-06T10:14:10.547Z</time>
      </trkpt>
      <trkpt lat="45.66624" lon="5.32916">
        <ele>225</ele>
        <time>2021-06-06T10:14:11.547Z</time>
      </trkpt>
      <trkpt lat="45.66617" lon="5.3291">
        <ele>225</ele>
        <time>2021-06-06T10:14:12.548Z</time>
      </trkpt>
      <trkpt lat="45.66609" lon="5.32902">
        <ele>225</ele>
        <time>2021-06-06T10:14:13.548Z</time>
      </trkpt>
      <trkpt lat="45.666" lon="5.32895">
        <ele>226</ele>
        <time>2021-06-06T10:14:14.548Z</time>
      </trkpt>
      <trkpt lat="45.66591" lon="5.32888">
        <ele>226</ele>
        <time>2021-06-06T10:14:15.547Z</time>
      </trkpt>
      <trkpt lat="45.66582" lon="5.32882">
        <ele>226</ele>
        <time>2021-06-06T10:14:16.548Z</time>
      </trkpt>
      <trkpt lat="45.66573" lon="5.32875">
        <ele>226</ele>
        <time>2021-06-06T10:14:17.548Z</time>
      </trkpt>
      <trkpt lat="45.66564" lon="5.32868">
        <ele>226</ele>
        <time>2021-06-06T10:14:18.548Z</time>
      </trkpt>
      <trkpt lat="45.66555" lon="5.32861">
        <ele>226</ele>
        <time>2021-06-06T10:14:19.548Z</time>
      </trkpt>
      <trkpt lat="45.66546" lon="5.32855">
        <ele>226</ele>
        <time>2021-06-06T10:14:20.548Z</time>
      </trkpt>
      <trkpt lat="45.66538" lon="5.32848">
        <ele>225</ele>
        <time>2021-06-06T10:14:21.547Z</time>
      </trkpt>
      <trkpt lat="45.66529" lon="5.32841">
        <ele>225</ele>
        <time>2021-06-06T10:14:22.548Z</time>
      </trkpt>
      <trkpt lat="45.6652" lon="5.32835">
        <ele>225</ele>
        <time>2021-06-06T10:14:23.548Z</time>
      </trkpt>
      <trkpt lat="45.66511" lon="5.32828">
        <ele>225</ele>
        <time>2021-06-06T10:14:24.548Z</time>
      </trkpt>
      <trkpt lat="45.66502" lon="5.32822">
        <ele>225</ele>
        <time>2021-06-06T10:14:25.548Z</time>
      </trkpt>
      <trkpt lat="45.66493" lon="5.32815">
        <ele>225</ele>
        <time>2021-06-06T10:14:26.548Z</time>
      </trkpt>
      <trkpt lat="45.66484" lon="5.32809">
        <ele>225</ele>
        <time>2021-06-06T10:14:27.547Z</time>
      </trkpt>
      <trkpt lat="45.66475" lon="5.32802">
        <ele>226</ele>
        <time>2021-06-06T10:14:28.548Z</time>
      </trkpt>
      <trkpt lat="45.66466" lon="5.32796">
        <ele>226</ele>
        <time>2021-06-06T10:14:29.548Z</time>
      </trkpt>
      <trkpt lat="45.66457" lon="5.32789">
        <ele>226</ele>
        <time>2021-06-06T10:14:30.548Z</time>
      </trkpt>
      <trkpt lat="45.66448" lon="5.32783">
        <ele>226</ele>
        <time>2021-06-06T10:14:31.548Z</time>
      </trkpt>
      <trkpt lat="45.66439" lon="5.32776">
        <ele>226</ele>
        <time>2021-06-06T10:14:32.548Z</time>
      </trkpt>
      <trkpt lat="45.6643" lon="5.3277">
        <ele>226</ele>
        <time>2021-06-06T10:14:33.547Z</time>
      </trkpt>
      <trkpt lat="45.66421" lon="5.32763">
        <ele>226</ele>
        <time>2021-06-06T10:14:34.548Z</time>
      </trkpt>
      <trkpt lat="45.66412" lon="5.32757">
        <ele>226</ele>
        <time>2021-06-06T10:14:35.547Z</time>
      </trkpt>
      <trkpt lat="45.66403" lon="5.3275">
        <ele>226</ele>
        <time>2021-06-06T10:14:36.548Z</time>
      </trkpt>
      <trkpt lat="45.66393" lon="5.32744">
        <ele>226</ele>
        <time>2021-06-06T10:14:37.548Z</time>
      </trkpt>
      <trkpt lat="45.66384" lon="5.32737">
        <ele>226</ele>
        <time>2021-06-06T10:14:38.548Z</time>
      </trkpt>
      <trkpt lat="45.66375" lon="5.3273">
        <ele>227</ele>
        <time>2021-06-06T10:14:39.547Z</time>
      </trkpt>
      <trkpt lat="45.66366" lon="5.32723">
        <ele>227</ele>
        <time>2021-06-06T10:14:40.548Z</time>
      </trkpt>
      <trkpt lat="45.66357" lon="5.32716">
        <ele>227</ele>
        <time>2021-06-06T10:14:41.547Z</time>
      </trkpt>
      <trkpt lat="45.66348" lon="5.32709">
        <ele>227</ele>
        <time>2021-06-06T10:14:42.547Z</time>
      </trkpt>
      <trkpt lat="45.66339" lon="5.32701">
        <ele>227</ele>
        <time>2021-06-06T10:14:43.548Z</time>
      </trkpt>
      <trkpt lat="45.6633" lon="5.32692">
        <ele>227</ele>
        <time>2021-06-06T10:14:44.548Z</time>
      </trkpt>
      <trkpt lat="45.66322" lon="5.32683">
        <ele>227</ele>
        <time>2021-06-06T10:14:45.547Z</time>
      </trkpt>
      <trkpt lat="45.66314" lon="5.32673">
        <ele>227</ele>
        <time>2021-06-06T10:14:46.547Z</time>
      </trkpt>
      <trkpt lat="45.66306" lon="5.32662">
        <ele>227</ele>
        <time>2021-06-06T10:14:47.548Z</time>
      </trkpt>
      <trkpt lat="45.66298" lon="5.32651">
        <ele>227</ele>
        <time>2021-06-06T10:14:48.548Z</time>
      </trkpt>
      <trkpt lat="45.66291" lon="5.32641">
        <ele>227</ele>
        <time>2021-06-06T10:14:49.548Z</time>
      </trkpt>
      <trkpt lat="45.66283" lon="5.32629">
        <ele>226</ele>
        <time>2021-06-06T10:14:50.548Z</time>
      </trkpt>
      <trkpt lat="45.66275" lon="5.32618">
        <ele>226</ele>
        <time>2021-06-06T10:14:51.547Z</time>
      </trkpt>
      <trkpt lat="45.66268" lon="5.32607">
        <ele>225</ele>
        <time>2021-06-06T10:14:52.548Z</time>
      </trkpt>
      <trkpt lat="45.6626" lon="5.32596">
        <ele>225</ele>
        <time>2021-06-06T10:14:53.548Z</time>
      </trkpt>
      <trkpt lat="45.66253" lon="5.32585">
        <ele>225</ele>
        <time>2021-06-06T10:14:54.548Z</time>
      </trkpt>
      <trkpt lat="45.66245" lon="5.32574">
        <ele>225</ele>
        <time>2021-06-06T10:14:55.548Z</time>
      </trkpt>
      <trkpt lat="45.66238" lon="5.32563">
        <ele>225</ele>
        <time>2021-06-06T10:14:56.548Z</time>
      </trkpt>
      <trkpt lat="45.6623" lon="5.32552">
        <ele>225</ele>
        <time>2021-06-06T10:14:57.548Z</time>
      </trkpt>
      <trkpt lat="45.66223" lon="5.32541">
        <ele>225</ele>
        <time>2021-06-06T10:14:58.548Z</time>
      </trkpt>
      <trkpt lat="45.66214" lon="5.3253">
        <ele>224</ele>
        <time>2021-06-06T10:14:59.548Z</time>
      </trkpt>
      <trkpt lat="45.66206" lon="5.32521">
        <ele>224</ele>
        <time>2021-06-06T10:15:00.548Z</time>
      </trkpt>
      <trkpt lat="45.66197" lon="5.32513">
        <ele>224</ele>
        <time>2021-06-06T10:15:01.548Z</time>
      </trkpt>
      <trkpt lat="45.66189" lon="5.32503">
        <ele>223</ele>
        <time>2021-06-06T10:15:02.548Z</time>
      </trkpt>
      <trkpt lat="45.6618" lon="5.32491">
        <ele>223</ele>
        <time>2021-06-06T10:15:03.547Z</time>
      </trkpt>
      <trkpt lat="45.66174" lon="5.32483">
        <ele>222</ele>
        <time>2021-06-06T10:15:04.548Z</time>
      </trkpt>
      <trkpt lat="45.66167" lon="5.32472">
        <ele>222</ele>
        <time>2021-06-06T10:15:05.547Z</time>
      </trkpt>
      <trkpt lat="45.66161" lon="5.3246">
        <ele>222</ele>
        <time>2021-06-06T10:15:06.548Z</time>
      </trkpt>
      <trkpt lat="45.66155" lon="5.32448">
        <ele>222</ele>
        <time>2021-06-06T10:15:07.547Z</time>
      </trkpt>
      <trkpt lat="45.66149" lon="5.32436">
        <ele>222</ele>
        <time>2021-06-06T10:15:08.548Z</time>
      </trkpt>
      <trkpt lat="45.66143" lon="5.32425">
        <ele>222</ele>
        <time>2021-06-06T10:15:09.548Z</time>
      </trkpt>
      <trkpt lat="45.66137" lon="5.32413">
        <ele>222</ele>
        <time>2021-06-06T10:15:10.547Z</time>
      </trkpt>
      <trkpt lat="45.6613" lon="5.32403">
        <ele>222</ele>
        <time>2021-06-06T10:15:11.548Z</time>
      </trkpt>
      <trkpt lat="45.66123" lon="5.32392">
        <ele>223</ele>
        <time>2021-06-06T10:15:12.548Z</time>
      </trkpt>
      <trkpt lat="45.66116" lon="5.32382">
        <ele>222</ele>
        <time>2021-06-06T10:15:13.548Z</time>
      </trkpt>
      <trkpt lat="45.66109" lon="5.32373">
        <ele>222</ele>
        <time>2021-06-06T10:15:14.548Z</time>
      </trkpt>
      <trkpt lat="45.66101" lon="5.32365">
        <ele>222</ele>
        <time>2021-06-06T10:15:15.548Z</time>
      </trkpt>
      <trkpt lat="45.66093" lon="5.32357">
        <ele>221</ele>
        <time>2021-06-06T10:15:16.548Z</time>
      </trkpt>
      <trkpt lat="45.66083" lon="5.32347">
        <ele>221</ele>
        <time>2021-06-06T10:15:17.548Z</time>
      </trkpt>
      <trkpt lat="45.66078" lon="5.3234">
        <ele>221</ele>
        <time>2021-06-06T10:15:18.547Z</time>
      </trkpt>
      <trkpt lat="45.66071" lon="5.32329">
        <ele>222</ele>
        <time>2021-06-06T10:15:19.548Z</time>
      </trkpt>
      <trkpt lat="45.66064" lon="5.3232">
        <ele>222</ele>
        <time>2021-06-06T10:15:20.548Z</time>
      </trkpt>
      <trkpt lat="45.66058" lon="5.32309">
        <ele>221</ele>
        <time>2021-06-06T10:15:21.548Z</time>
      </trkpt>
      <trkpt lat="45.66053" lon="5.32299">
        <ele>221</ele>
        <time>2021-06-06T10:15:22.548Z</time>
      </trkpt>
      <trkpt lat="45.66047" lon="5.32288">
        <ele>221</ele>
        <time>2021-06-06T10:15:23.547Z</time>
      </trkpt>
      <trkpt lat="45.66041" lon="5.32278">
        <ele>221</ele>
        <time>2021-06-06T10:15:24.547Z</time>
      </trkpt>
      <trkpt lat="45.66035" lon="5.32268">
        <ele>221</ele>
        <time>2021-06-06T10:15:25.547Z</time>
      </trkpt>
      <trkpt lat="45.66029" lon="5.32258">
        <ele>221</ele>
        <time>2021-06-06T10:15:26.548Z</time>
      </trkpt>
      <trkpt lat="45.66022" lon="5.32248">
        <ele>221</ele>
        <time>2021-06-06T10:15:27.548Z</time>
      </trkpt>
      <trkpt lat="45.66016" lon="5.32238">
        <ele>221</ele>
        <time>2021-06-06T10:15:28.548Z</time>
      </trkpt>
      <trkpt lat="45.66009" lon="5.32229">
        <ele>221</ele>
        <time>2021-06-06T10:15:29.548Z</time>
      </trkpt>
      <trkpt lat="45.66003" lon="5.32219">
        <ele>221</ele>
        <time>2021-06-06T10:15:30.548Z</time>
      </trkpt>
      <trkpt lat="45.65996" lon="5.3221">
        <ele>221</ele>
        <time>2021-06-06T10:15:31.548Z</time>
      </trkpt>
      <trkpt lat="45.65989" lon="5.32201">
        <ele>222</ele>
        <time>2021-06-06T10:15:32.548Z</time>
      </trkpt>
      <trkpt lat="45.65982" lon="5.32191">
        <ele>222</ele>
        <time>2021-06-06T10:15:33.548Z</time>
      </trkpt>
      <trkpt lat="45.65975" lon="5.32182">
        <ele>222</ele>
        <time>2021-06-06T10:15:34.547Z</time>
      </trkpt>
      <trkpt lat="45.65968" lon="5.32172">
        <ele>222</ele>
        <time>2021-06-06T10:15:35.547Z</time>
      </trkpt>
      <trkpt lat="45.65961" lon="5.32162">
        <ele>223</ele>
        <time>2021-06-06T10:15:36.548Z</time>
      </trkpt>
      <trkpt lat="45.65954" lon="5.32152">
        <ele>223</ele>
        <time>2021-06-06T10:15:37.548Z</time>
      </trkpt>
      <trkpt lat="45.65947" lon="5.32142">
        <ele>223</ele>
        <time>2021-06-06T10:15:38.548Z</time>
      </trkpt>
      <trkpt lat="45.6594" lon="5.32132">
        <ele>223</ele>
        <time>2021-06-06T10:15:39.548Z</time>
      </trkpt>
      <trkpt lat="45.65933" lon="5.32122">
        <ele>223</ele>
        <time>2021-06-06T10:15:40.548Z</time>
      </trkpt>
      <trkpt lat="45.65926" lon="5.32112">
        <ele>223</ele>
        <time>2021-06-06T10:15:41.548Z</time>
      </trkpt>
      <trkpt lat="45.65919" lon="5.32103">
        <ele>223</ele>
        <time>2021-06-06T10:15:42.548Z</time>
      </trkpt>
      <trkpt lat="45.65912" lon="5.32093">
        <ele>222</ele>
        <time>2021-06-06T10:15:43.548Z</time>
      </trkpt>
      <trkpt lat="45.65905" lon="5.32083">
        <ele>222</ele>
        <time>2021-06-06T10:15:44.548Z</time>
      </trkpt>
      <trkpt lat="45.65898" lon="5.32072">
        <ele>222</ele>
        <time>2021-06-06T10:15:45.548Z</time>
      </trkpt>
      <trkpt lat="45.65891" lon="5.32062">
        <ele>222</ele>
        <time>2021-06-06T10:15:46.548Z</time>
      </trkpt>
      <trkpt lat="45.65884" lon="5.32052">
        <ele>222</ele>
        <time>2021-06-06T10:15:47.548Z</time>
      </trkpt>
      <trkpt lat="45.65878" lon="5.32042">
        <ele>221</ele>
        <time>2021-06-06T10:15:48.547Z</time>
      </trkpt>
      <trkpt lat="45.65871" lon="5.32032">
        <ele>221</ele>
        <time>2021-06-06T10:15:49.548Z</time>
      </trkpt>
      <trkpt lat="45.65864" lon="5.32022">
        <ele>220</ele>
        <time>2021-06-06T10:15:50.548Z</time>
      </trkpt>
      <trkpt lat="45.65857" lon="5.32012">
        <ele>221</ele>
        <time>2021-06-06T10:15:51.547Z</time>
      </trkpt>
      <trkpt lat="45.6585" lon="5.32002">
        <ele>221</ele>
        <time>2021-06-06T10:15:52.548Z</time>
      </trkpt>
      <trkpt lat="45.65843" lon="5.31992">
        <ele>221</ele>
        <time>2021-06-06T10:15:53.547Z</time>
      </trkpt>
      <trkpt lat="45.65836" lon="5.31982">
        <ele>222</ele>
        <time>2021-06-06T10:15:54.548Z</time>
      </trkpt>
      <trkpt lat="45.6583" lon="5.31972">
        <ele>222</ele>
        <time>2021-06-06T10:15:55.548Z</time>
      </trkpt>
      <trkpt lat="45.65823" lon="5.31962">
        <ele>222</ele>
        <time>2021-06-06T10:15:56.548Z</time>
      </trkpt>
      <trkpt lat="45.65817" lon="5.31952">
        <ele>222</ele>
        <time>2021-06-06T10:15:57.548Z</time>
      </trkpt>
      <trkpt lat="45.6581" lon="5.31943">
        <ele>222</ele>
        <time>2021-06-06T10:15:58.548Z</time>
      </trkpt>
      <trkpt lat="45.65803" lon="5.31933">
        <ele>221</ele>
        <time>2021-06-06T10:15:59.548Z</time>
      </trkpt>
      <trkpt lat="45.65795" lon="5.31921">
        <ele>221</ele>
        <time>2021-06-06T10:16:00.548Z</time>
      </trkpt>
      <trkpt lat="45.65788" lon="5.31912">
        <ele>221</ele>
        <time>2021-06-06T10:16:01.548Z</time>
      </trkpt>
      <trkpt lat="45.65781" lon="5.31902">
        <ele>221</ele>
        <time>2021-06-06T10:16:02.547Z</time>
      </trkpt>
      <trkpt lat="45.65776" lon="5.31894">
        <ele>221</ele>
        <time>2021-06-06T10:16:03.548Z</time>
      </trkpt>
      <trkpt lat="45.6577" lon="5.31885">
        <ele>221</ele>
        <time>2021-06-06T10:16:04.548Z</time>
      </trkpt>
      <trkpt lat="45.65763" lon="5.31875">
        <ele>221</ele>
        <time>2021-06-06T10:16:05.548Z</time>
      </trkpt>
      <trkpt lat="45.65755" lon="5.31863">
        <ele>221</ele>
        <time>2021-06-06T10:16:06.547Z</time>
      </trkpt>
      <trkpt lat="45.65748" lon="5.31854">
        <ele>221</ele>
        <time>2021-06-06T10:16:07.548Z</time>
      </trkpt>
      <trkpt lat="45.65743" lon="5.31846">
        <ele>221</ele>
        <time>2021-06-06T10:16:08.548Z</time>
      </trkpt>
      <trkpt lat="45.65736" lon="5.31837">
        <ele>222</ele>
        <time>2021-06-06T10:16:09.548Z</time>
      </trkpt>
      <trkpt lat="45.6573" lon="5.31827">
        <ele>222</ele>
        <time>2021-06-06T10:16:10.548Z</time>
      </trkpt>
      <trkpt lat="45.65722" lon="5.31815">
        <ele>222</ele>
        <time>2021-06-06T10:16:11.547Z</time>
      </trkpt>
      <trkpt lat="45.65715" lon="5.31806">
        <ele>223</ele>
        <time>2021-06-06T10:16:12.547Z</time>
      </trkpt>
      <trkpt lat="45.65708" lon="5.31796">
        <ele>223</ele>
        <time>2021-06-06T10:16:13.547Z</time>
      </trkpt>
      <trkpt lat="45.65703" lon="5.31789">
        <ele>223</ele>
        <time>2021-06-06T10:16:14.547Z</time>
      </trkpt>
      <trkpt lat="45.65697" lon="5.31779">
        <ele>223</ele>
        <time>2021-06-06T10:16:15.548Z</time>
      </trkpt>
      <trkpt lat="45.6569" lon="5.31769">
        <ele>223</ele>
        <time>2021-06-06T10:16:16.548Z</time>
      </trkpt>
      <trkpt lat="45.65683" lon="5.3176">
        <ele>222</ele>
        <time>2021-06-06T10:16:17.548Z</time>
      </trkpt>
      <trkpt lat="45.65676" lon="5.31748">
        <ele>222</ele>
        <time>2021-06-06T10:16:18.548Z</time>
      </trkpt>
      <trkpt lat="45.6567" lon="5.31741">
        <ele>222</ele>
        <time>2021-06-06T10:16:19.548Z</time>
      </trkpt>
      <trkpt lat="45.65664" lon="5.31731">
        <ele>222</ele>
        <time>2021-06-06T10:16:20.548Z</time>
      </trkpt>
      <trkpt lat="45.65656" lon="5.3172">
        <ele>221</ele>
        <time>2021-06-06T10:16:21.548Z</time>
      </trkpt>
      <trkpt lat="45.65649" lon="5.31711">
        <ele>222</ele>
        <time>2021-06-06T10:16:22.548Z</time>
      </trkpt>
      <trkpt lat="45.65644" lon="5.31704">
        <ele>222</ele>
        <time>2021-06-06T10:16:23.547Z</time>
      </trkpt>
      <trkpt lat="45.65638" lon="5.31694">
        <ele>222</ele>
        <time>2021-06-06T10:16:24.547Z</time>
      </trkpt>
      <trkpt lat="45.65631" lon="5.31685">
        <ele>222</ele>
        <time>2021-06-06T10:16:25.547Z</time>
      </trkpt>
      <trkpt lat="45.65624" lon="5.31676">
        <ele>223</ele>
        <time>2021-06-06T10:16:26.548Z</time>
      </trkpt>
      <trkpt lat="45.65618" lon="5.31666">
        <ele>222</ele>
        <time>2021-06-06T10:16:27.547Z</time>
      </trkpt>
      <trkpt lat="45.6561" lon="5.31655">
        <ele>222</ele>
        <time>2021-06-06T10:16:28.548Z</time>
      </trkpt>
      <trkpt lat="45.65605" lon="5.31648">
        <ele>222</ele>
        <time>2021-06-06T10:16:29.548Z</time>
      </trkpt>
      <trkpt lat="45.65598" lon="5.31638">
        <ele>221</ele>
        <time>2021-06-06T10:16:30.548Z</time>
      </trkpt>
      <trkpt lat="45.65591" lon="5.31629">
        <ele>221</ele>
        <time>2021-06-06T10:16:31.548Z</time>
      </trkpt>
      <trkpt lat="45.65584" lon="5.31617">
        <ele>220</ele>
        <time>2021-06-06T10:16:32.547Z</time>
      </trkpt>
      <trkpt lat="45.65578" lon="5.3161">
        <ele>220</ele>
        <time>2021-06-06T10:16:33.547Z</time>
      </trkpt>
      <trkpt lat="45.65572" lon="5.316">
        <ele>220</ele>
        <time>2021-06-06T10:16:34.548Z</time>
      </trkpt>
      <trkpt lat="45.65565" lon="5.3159">
        <ele>220</ele>
        <time>2021-06-06T10:16:35.548Z</time>
      </trkpt>
      <trkpt lat="45.65558" lon="5.31581">
        <ele>219</ele>
        <time>2021-06-06T10:16:36.548Z</time>
      </trkpt>
      <trkpt lat="45.65552" lon="5.31571">
        <ele>219</ele>
        <time>2021-06-06T10:16:37.548Z</time>
      </trkpt>
      <trkpt lat="45.65545" lon="5.31562">
        <ele>219</ele>
        <time>2021-06-06T10:16:38.548Z</time>
      </trkpt>
      <trkpt lat="45.65538" lon="5.31552">
        <ele>219</ele>
        <time>2021-06-06T10:16:39.547Z</time>
      </trkpt>
      <trkpt lat="45.65532" lon="5.31542">
        <ele>219</ele>
        <time>2021-06-06T10:16:40.548Z</time>
      </trkpt>
      <trkpt lat="45.65525" lon="5.31533">
        <ele>219</ele>
        <time>2021-06-06T10:16:41.548Z</time>
      </trkpt>
      <trkpt lat="45.65518" lon="5.31523">
        <ele>219</ele>
        <time>2021-06-06T10:16:42.547Z</time>
      </trkpt>
      <trkpt lat="45.65511" lon="5.31513">
        <ele>219</ele>
        <time>2021-06-06T10:16:43.548Z</time>
      </trkpt>
      <trkpt lat="45.65505" lon="5.31504">
        <ele>219</ele>
        <time>2021-06-06T10:16:44.548Z</time>
      </trkpt>
      <trkpt lat="45.65498" lon="5.31495">
        <ele>220</ele>
        <time>2021-06-06T10:16:45.547Z</time>
      </trkpt>
      <trkpt lat="45.65491" lon="5.31485">
        <ele>219</ele>
        <time>2021-06-06T10:16:46.547Z</time>
      </trkpt>
      <trkpt lat="45.65485" lon="5.31476">
        <ele>219</ele>
        <time>2021-06-06T10:16:47.547Z</time>
      </trkpt>
      <trkpt lat="45.65477" lon="5.31464">
        <ele>219</ele>
        <time>2021-06-06T10:16:48.547Z</time>
      </trkpt>
      <trkpt lat="45.65472" lon="5.31457">
        <ele>219</ele>
        <time>2021-06-06T10:16:49.548Z</time>
      </trkpt>
      <trkpt lat="45.65465" lon="5.31447">
        <ele>219</ele>
        <time>2021-06-06T10:16:50.548Z</time>
      </trkpt>
      <trkpt lat="45.65457" lon="5.31436">
        <ele>219</ele>
        <time>2021-06-06T10:16:51.548Z</time>
      </trkpt>
      <trkpt lat="45.65451" lon="5.31429">
        <ele>219</ele>
        <time>2021-06-06T10:16:52.548Z</time>
      </trkpt>
      <trkpt lat="45.65445" lon="5.3142">
        <ele>219</ele>
        <time>2021-06-06T10:16:53.548Z</time>
      </trkpt>
      <trkpt lat="45.65438" lon="5.3141">
        <ele>220</ele>
        <time>2021-06-06T10:16:54.548Z</time>
      </trkpt>
      <trkpt lat="45.65432" lon="5.31401">
        <ele>220</ele>
        <time>2021-06-06T10:16:55.548Z</time>
      </trkpt>
      <trkpt lat="45.65425" lon="5.31391">
        <ele>220</ele>
        <time>2021-06-06T10:16:56.548Z</time>
      </trkpt>
      <trkpt lat="45.65419" lon="5.31381">
        <ele>220</ele>
        <time>2021-06-06T10:16:57.548Z</time>
      </trkpt>
      <trkpt lat="45.65412" lon="5.31372">
        <ele>220</ele>
        <time>2021-06-06T10:16:58.548Z</time>
      </trkpt>
      <trkpt lat="45.65406" lon="5.31362">
        <ele>220</ele>
        <time>2021-06-06T10:16:59.548Z</time>
      </trkpt>
      <trkpt lat="45.65399" lon="5.31353">
        <ele>220</ele>
        <time>2021-06-06T10:17:00.548Z</time>
      </trkpt>
      <trkpt lat="45.65392" lon="5.31344">
        <ele>220</ele>
        <time>2021-06-06T10:17:01.547Z</time>
      </trkpt>
      <trkpt lat="45.65385" lon="5.31334">
        <ele>220</ele>
        <time>2021-06-06T10:17:02.547Z</time>
      </trkpt>
      <trkpt lat="45.65379" lon="5.31324">
        <ele>220</ele>
        <time>2021-06-06T10:17:03.547Z</time>
      </trkpt>
      <trkpt lat="45.65372" lon="5.31314">
        <ele>220</ele>
        <time>2021-06-06T10:17:04.547Z</time>
      </trkpt>
      <trkpt lat="45.65366" lon="5.31305">
        <ele>220</ele>
        <time>2021-06-06T10:17:05.547Z</time>
      </trkpt>
      <trkpt lat="45.65359" lon="5.31295">
        <ele>220</ele>
        <time>2021-06-06T10:17:06.547Z</time>
      </trkpt>
      <trkpt lat="45.65353" lon="5.31286">
        <ele>220</ele>
        <time>2021-06-06T10:17:07.548Z</time>
      </trkpt>
      <trkpt lat="45.65346" lon="5.31276">
        <ele>220</ele>
        <time>2021-06-06T10:17:08.548Z</time>
      </trkpt>
      <trkpt lat="45.65338" lon="5.31265">
        <ele>220</ele>
        <time>2021-06-06T10:17:09.547Z</time>
      </trkpt>
      <trkpt lat="45.65333" lon="5.31257">
        <ele>219</ele>
        <time>2021-06-06T10:17:10.548Z</time>
      </trkpt>
      <trkpt lat="45.65326" lon="5.31248">
        <ele>219</ele>
        <time>2021-06-06T10:17:11.547Z</time>
      </trkpt>
      <trkpt lat="45.6532" lon="5.31238">
        <ele>219</ele>
        <time>2021-06-06T10:17:12.548Z</time>
      </trkpt>
      <trkpt lat="45.65312" lon="5.31227">
        <ele>219</ele>
        <time>2021-06-06T10:17:13.548Z</time>
      </trkpt>
      <trkpt lat="45.65306" lon="5.31219">
        <ele>219</ele>
        <time>2021-06-06T10:17:14.548Z</time>
      </trkpt>
      <trkpt lat="45.653" lon="5.3121">
        <ele>219</ele>
        <time>2021-06-06T10:17:15.547Z</time>
      </trkpt>
      <trkpt lat="45.65293" lon="5.312">
        <ele>220</ele>
        <time>2021-06-06T10:17:16.548Z</time>
      </trkpt>
      <trkpt lat="45.65287" lon="5.31191">
        <ele>220</ele>
        <time>2021-06-06T10:17:17.548Z</time>
      </trkpt>
      <trkpt lat="45.6528" lon="5.31181">
        <ele>219</ele>
        <time>2021-06-06T10:17:18.548Z</time>
      </trkpt>
      <trkpt lat="45.65274" lon="5.31172">
        <ele>219</ele>
        <time>2021-06-06T10:17:19.548Z</time>
      </trkpt>
      <trkpt lat="45.65267" lon="5.31162">
        <ele>219</ele>
        <time>2021-06-06T10:17:20.548Z</time>
      </trkpt>
      <trkpt lat="45.65261" lon="5.31153">
        <ele>219</ele>
        <time>2021-06-06T10:17:21.548Z</time>
      </trkpt>
      <trkpt lat="45.65254" lon="5.31143">
        <ele>219</ele>
        <time>2021-06-06T10:17:22.548Z</time>
      </trkpt>
      <trkpt lat="45.65248" lon="5.31134">
        <ele>219</ele>
        <time>2021-06-06T10:17:23.548Z</time>
      </trkpt>
      <trkpt lat="45.65241" lon="5.31125">
        <ele>219</ele>
        <time>2021-06-06T10:17:24.548Z</time>
      </trkpt>
      <trkpt lat="45.65235" lon="5.31115">
        <ele>218</ele>
        <time>2021-06-06T10:17:25.548Z</time>
      </trkpt>
      <trkpt lat="45.65228" lon="5.31106">
        <ele>218</ele>
        <time>2021-06-06T10:17:26.548Z</time>
      </trkpt>
      <trkpt lat="45.65222" lon="5.31097">
        <ele>218</ele>
        <time>2021-06-06T10:17:27.548Z</time>
      </trkpt>
      <trkpt lat="45.65215" lon="5.31087">
        <ele>218</ele>
        <time>2021-06-06T10:17:28.548Z</time>
      </trkpt>
      <trkpt lat="45.65209" lon="5.31078">
        <ele>219</ele>
        <time>2021-06-06T10:17:29.548Z</time>
      </trkpt>
      <trkpt lat="45.65202" lon="5.31069">
        <ele>219</ele>
        <time>2021-06-06T10:17:30.548Z</time>
      </trkpt>
      <trkpt lat="45.65196" lon="5.31059">
        <ele>220</ele>
        <time>2021-06-06T10:17:31.548Z</time>
      </trkpt>
      <trkpt lat="45.65189" lon="5.3105">
        <ele>220</ele>
        <time>2021-06-06T10:17:32.547Z</time>
      </trkpt>
      <trkpt lat="45.65183" lon="5.3104">
        <ele>220</ele>
        <time>2021-06-06T10:17:33.548Z</time>
      </trkpt>
      <trkpt lat="45.65176" lon="5.31031">
        <ele>220</ele>
        <time>2021-06-06T10:17:34.547Z</time>
      </trkpt>
      <trkpt lat="45.6517" lon="5.31021">
        <ele>219</ele>
        <time>2021-06-06T10:17:35.547Z</time>
      </trkpt>
      <trkpt lat="45.65163" lon="5.31012">
        <ele>219</ele>
        <time>2021-06-06T10:17:36.547Z</time>
      </trkpt>
      <trkpt lat="45.65157" lon="5.31003">
        <ele>218</ele>
        <time>2021-06-06T10:17:37.548Z</time>
      </trkpt>
      <trkpt lat="45.65149" lon="5.30992">
        <ele>219</ele>
        <time>2021-06-06T10:17:38.548Z</time>
      </trkpt>
      <trkpt lat="45.65143" lon="5.30985">
        <ele>219</ele>
        <time>2021-06-06T10:17:39.548Z</time>
      </trkpt>
      <trkpt lat="45.65137" lon="5.30976">
        <ele>219</ele>
        <time>2021-06-06T10:17:40.548Z</time>
      </trkpt>
      <trkpt lat="45.6513" lon="5.30967">
        <ele>219</ele>
        <time>2021-06-06T10:17:41.548Z</time>
      </trkpt>
      <trkpt lat="45.65124" lon="5.30957">
        <ele>218</ele>
        <time>2021-06-06T10:17:42.548Z</time>
      </trkpt>
      <trkpt lat="45.65116" lon="5.30946">
        <ele>218</ele>
        <time>2021-06-06T10:17:43.548Z</time>
      </trkpt>
      <trkpt lat="45.65111" lon="5.30938">
        <ele>218</ele>
        <time>2021-06-06T10:17:44.548Z</time>
      </trkpt>
      <trkpt lat="45.65104" lon="5.30929">
        <ele>218</ele>
        <time>2021-06-06T10:17:45.548Z</time>
      </trkpt>
      <trkpt lat="45.65097" lon="5.30919">
        <ele>219</ele>
        <time>2021-06-06T10:17:46.548Z</time>
      </trkpt>
      <trkpt lat="45.65091" lon="5.3091">
        <ele>219</ele>
        <time>2021-06-06T10:17:47.548Z</time>
      </trkpt>
      <trkpt lat="45.65085" lon="5.309">
        <ele>219</ele>
        <time>2021-06-06T10:17:48.548Z</time>
      </trkpt>
      <trkpt lat="45.65078" lon="5.30891">
        <ele>219</ele>
        <time>2021-06-06T10:17:49.548Z</time>
      </trkpt>
      <trkpt lat="45.65071" lon="5.30881">
        <ele>219</ele>
        <time>2021-06-06T10:17:50.547Z</time>
      </trkpt>
      <trkpt lat="45.65065" lon="5.30872">
        <ele>219</ele>
        <time>2021-06-06T10:17:51.548Z</time>
      </trkpt>
      <trkpt lat="45.65057" lon="5.30861">
        <ele>219</ele>
        <time>2021-06-06T10:17:52.548Z</time>
      </trkpt>
      <trkpt lat="45.65051" lon="5.30854">
        <ele>219</ele>
        <time>2021-06-06T10:17:53.548Z</time>
      </trkpt>
      <trkpt lat="45.65045" lon="5.30845">
        <ele>219</ele>
        <time>2021-06-06T10:17:54.548Z</time>
      </trkpt>
      <trkpt lat="45.65038" lon="5.30836">
        <ele>219</ele>
        <time>2021-06-06T10:17:55.548Z</time>
      </trkpt>
      <trkpt lat="45.65032" lon="5.30826">
        <ele>219</ele>
        <time>2021-06-06T10:17:56.548Z</time>
      </trkpt>
      <trkpt lat="45.65026" lon="5.30818">
        <ele>218</ele>
        <time>2021-06-06T10:17:57.548Z</time>
      </trkpt>
      <trkpt lat="45.65019" lon="5.30809">
        <ele>218</ele>
        <time>2021-06-06T10:17:58.548Z</time>
      </trkpt>
      <trkpt lat="45.65012" lon="5.30798">
        <ele>218</ele>
        <time>2021-06-06T10:17:59.548Z</time>
      </trkpt>
      <trkpt lat="45.65007" lon="5.30791">
        <ele>218</ele>
        <time>2021-06-06T10:18:00.548Z</time>
      </trkpt>
      <trkpt lat="45.65" lon="5.30782">
        <ele>218</ele>
        <time>2021-06-06T10:18:01.548Z</time>
      </trkpt>
      <trkpt lat="45.64994" lon="5.30773">
        <ele>218</ele>
        <time>2021-06-06T10:18:02.548Z</time>
      </trkpt>
      <trkpt lat="45.64986" lon="5.30762">
        <ele>218</ele>
        <time>2021-06-06T10:18:03.548Z</time>
      </trkpt>
      <trkpt lat="45.6498" lon="5.30753">
        <ele>218</ele>
        <time>2021-06-06T10:18:04.548Z</time>
      </trkpt>
      <trkpt lat="45.64975" lon="5.30746">
        <ele>218</ele>
        <time>2021-06-06T10:18:05.548Z</time>
      </trkpt>
      <trkpt lat="45.64969" lon="5.30737">
        <ele>218</ele>
        <time>2021-06-06T10:18:06.548Z</time>
      </trkpt>
      <trkpt lat="45.64961" lon="5.30726">
        <ele>217</ele>
        <time>2021-06-06T10:18:07.547Z</time>
      </trkpt>
      <trkpt lat="45.64957" lon="5.30718">
        <ele>218</ele>
        <time>2021-06-06T10:18:08.548Z</time>
      </trkpt>
      <trkpt lat="45.6495" lon="5.30709">
        <ele>217</ele>
        <time>2021-06-06T10:18:09.548Z</time>
      </trkpt>
      <trkpt lat="45.64943" lon="5.30698">
        <ele>217</ele>
        <time>2021-06-06T10:18:10.548Z</time>
      </trkpt>
      <trkpt lat="45.64938" lon="5.30691">
        <ele>217</ele>
        <time>2021-06-06T10:18:11.547Z</time>
      </trkpt>
      <trkpt lat="45.6493" lon="5.3068">
        <ele>217</ele>
        <time>2021-06-06T10:18:12.548Z</time>
      </trkpt>
      <trkpt lat="45.64924" lon="5.3067">
        <ele>217</ele>
        <time>2021-06-06T10:18:13.548Z</time>
      </trkpt>
      <trkpt lat="45.64917" lon="5.30661">
        <ele>217</ele>
        <time>2021-06-06T10:18:14.548Z</time>
      </trkpt>
      <trkpt lat="45.64911" lon="5.30652">
        <ele>217</ele>
        <time>2021-06-06T10:18:15.547Z</time>
      </trkpt>
      <trkpt lat="45.64906" lon="5.30644">
        <ele>217</ele>
        <time>2021-06-06T10:18:16.548Z</time>
      </trkpt>
      <trkpt lat="45.649" lon="5.30634">
        <ele>217</ele>
        <time>2021-06-06T10:18:17.548Z</time>
      </trkpt>
      <trkpt lat="45.64893" lon="5.30625">
        <ele>216</ele>
        <time>2021-06-06T10:18:18.548Z</time>
      </trkpt>
      <trkpt lat="45.64887" lon="5.30616">
        <ele>216</ele>
        <time>2021-06-06T10:18:19.547Z</time>
      </trkpt>
      <trkpt lat="45.6488" lon="5.30606">
        <ele>216</ele>
        <time>2021-06-06T10:18:20.548Z</time>
      </trkpt>
      <trkpt lat="45.64874" lon="5.30597">
        <ele>216</ele>
        <time>2021-06-06T10:18:21.548Z</time>
      </trkpt>
      <trkpt lat="45.64867" lon="5.30587">
        <ele>216</ele>
        <time>2021-06-06T10:18:22.548Z</time>
      </trkpt>
      <trkpt lat="45.64861" lon="5.30578">
        <ele>216</ele>
        <time>2021-06-06T10:18:23.548Z</time>
      </trkpt>
      <trkpt lat="45.64854" lon="5.30569">
        <ele>216</ele>
        <time>2021-06-06T10:18:24.548Z</time>
      </trkpt>
      <trkpt lat="45.64847" lon="5.30559">
        <ele>216</ele>
        <time>2021-06-06T10:18:25.547Z</time>
      </trkpt>
      <trkpt lat="45.64841" lon="5.3055">
        <ele>216</ele>
        <time>2021-06-06T10:18:26.548Z</time>
      </trkpt>
      <trkpt lat="45.64834" lon="5.3054">
        <ele>216</ele>
        <time>2021-06-06T10:18:27.548Z</time>
      </trkpt>
      <trkpt lat="45.64828" lon="5.30531">
        <ele>216</ele>
        <time>2021-06-06T10:18:28.548Z</time>
      </trkpt>
      <trkpt lat="45.64821" lon="5.30521">
        <ele>216</ele>
        <time>2021-06-06T10:18:29.548Z</time>
      </trkpt>
      <trkpt lat="45.64815" lon="5.30512">
        <ele>217</ele>
        <time>2021-06-06T10:18:30.547Z</time>
      </trkpt>
      <trkpt lat="45.64808" lon="5.30502">
        <ele>217</ele>
        <time>2021-06-06T10:18:31.548Z</time>
      </trkpt>
      <trkpt lat="45.64801" lon="5.30493">
        <ele>217</ele>
        <time>2021-06-06T10:18:32.548Z</time>
      </trkpt>
      <trkpt lat="45.64795" lon="5.30483">
        <ele>217</ele>
        <time>2021-06-06T10:18:33.548Z</time>
      </trkpt>
      <trkpt lat="45.64788" lon="5.30474">
        <ele>217</ele>
        <time>2021-06-06T10:18:34.548Z</time>
      </trkpt>
      <trkpt lat="45.64781" lon="5.30464">
        <ele>217</ele>
        <time>2021-06-06T10:18:35.548Z</time>
      </trkpt>
      <trkpt lat="45.64774" lon="5.30455">
        <ele>216</ele>
        <time>2021-06-06T10:18:36.548Z</time>
      </trkpt>
      <trkpt lat="45.64768" lon="5.30445">
        <ele>216</ele>
        <time>2021-06-06T10:18:37.547Z</time>
      </trkpt>
      <trkpt lat="45.64761" lon="5.30436">
        <ele>216</ele>
        <time>2021-06-06T10:18:38.548Z</time>
      </trkpt>
      <trkpt lat="45.64754" lon="5.30427">
        <ele>215</ele>
        <time>2021-06-06T10:18:39.548Z</time>
      </trkpt>
      <trkpt lat="45.64748" lon="5.30417">
        <ele>215</ele>
        <time>2021-06-06T10:18:40.548Z</time>
      </trkpt>
      <trkpt lat="45.64741" lon="5.30407">
        <ele>216</ele>
        <time>2021-06-06T10:18:41.548Z</time>
      </trkpt>
      <trkpt lat="45.64734" lon="5.30398">
        <ele>216</ele>
        <time>2021-06-06T10:18:42.548Z</time>
      </trkpt>
      <trkpt lat="45.64728" lon="5.30388">
        <ele>216</ele>
        <time>2021-06-06T10:18:43.548Z</time>
      </trkpt>
      <trkpt lat="45.64721" lon="5.30378">
        <ele>217</ele>
        <time>2021-06-06T10:18:44.548Z</time>
      </trkpt>
      <trkpt lat="45.64715" lon="5.30369">
        <ele>217</ele>
        <time>2021-06-06T10:18:45.548Z</time>
      </trkpt>
      <trkpt lat="45.64708" lon="5.30359">
        <ele>217</ele>
        <time>2021-06-06T10:18:46.547Z</time>
      </trkpt>
      <trkpt lat="45.64701" lon="5.30348">
        <ele>217</ele>
        <time>2021-06-06T10:18:47.548Z</time>
      </trkpt>
      <trkpt lat="45.64695" lon="5.3034">
        <ele>218</ele>
        <time>2021-06-06T10:18:48.548Z</time>
      </trkpt>
      <trkpt lat="45.64688" lon="5.30329">
        <ele>218</ele>
        <time>2021-06-06T10:18:49.548Z</time>
      </trkpt>
      <trkpt lat="45.64682" lon="5.30321">
        <ele>219</ele>
        <time>2021-06-06T10:18:50.547Z</time>
      </trkpt>
      <trkpt lat="45.64676" lon="5.30312">
        <ele>219</ele>
        <time>2021-06-06T10:18:51.548Z</time>
      </trkpt>
      <trkpt lat="45.6467" lon="5.30302">
        <ele>219</ele>
        <time>2021-06-06T10:18:52.548Z</time>
      </trkpt>
      <trkpt lat="45.64664" lon="5.30293">
        <ele>219</ele>
        <time>2021-06-06T10:18:53.547Z</time>
      </trkpt>
      <trkpt lat="45.64658" lon="5.30283">
        <ele>218</ele>
        <time>2021-06-06T10:18:54.547Z</time>
      </trkpt>
      <trkpt lat="45.64652" lon="5.30273">
        <ele>218</ele>
        <time>2021-06-06T10:18:55.548Z</time>
      </trkpt>
      <trkpt lat="45.64646" lon="5.30263">
        <ele>218</ele>
        <time>2021-06-06T10:18:56.547Z</time>
      </trkpt>
      <trkpt lat="45.6464" lon="5.30252">
        <ele>218</ele>
        <time>2021-06-06T10:18:57.548Z</time>
      </trkpt>
      <trkpt lat="45.64635" lon="5.30245">
        <ele>218</ele>
        <time>2021-06-06T10:18:58.547Z</time>
      </trkpt>
      <trkpt lat="45.64629" lon="5.30237">
        <ele>217</ele>
        <time>2021-06-06T10:18:59.548Z</time>
      </trkpt>
      <trkpt lat="45.64622" lon="5.3023">
        <ele>217</ele>
        <time>2021-06-06T10:19:00.548Z</time>
      </trkpt>
      <trkpt lat="45.64616" lon="5.30225">
        <ele>217</ele>
        <time>2021-06-06T10:19:01.548Z</time>
      </trkpt>
      <trkpt lat="45.6461" lon="5.30218">
        <ele>217</ele>
        <time>2021-06-06T10:19:02.548Z</time>
      </trkpt>
      <trkpt lat="45.64606" lon="5.3021">
        <ele>217</ele>
        <time>2021-06-06T10:19:03.547Z</time>
      </trkpt>
      <trkpt lat="45.64603" lon="5.30201">
        <ele>217</ele>
        <time>2021-06-06T10:19:04.547Z</time>
      </trkpt>
      <trkpt lat="45.646" lon="5.30192">
        <ele>217</ele>
        <time>2021-06-06T10:19:05.548Z</time>
      </trkpt>
      <trkpt lat="45.64596" lon="5.30183">
        <ele>216</ele>
        <time>2021-06-06T10:19:06.548Z</time>
      </trkpt>
      <trkpt lat="45.64591" lon="5.30175">
        <ele>216</ele>
        <time>2021-06-06T10:19:07.548Z</time>
      </trkpt>
      <trkpt lat="45.64585" lon="5.30169">
        <ele>216</ele>
        <time>2021-06-06T10:19:08.547Z</time>
      </trkpt>
      <trkpt lat="45.64578" lon="5.30163">
        <ele>216</ele>
        <time>2021-06-06T10:19:09.548Z</time>
      </trkpt>
      <trkpt lat="45.64572" lon="5.30158">
        <ele>217</ele>
        <time>2021-06-06T10:19:10.548Z</time>
      </trkpt>
      <trkpt lat="45.64566" lon="5.30151">
        <ele>217</ele>
        <time>2021-06-06T10:19:11.547Z</time>
      </trkpt>
      <trkpt lat="45.6456" lon="5.30145">
        <ele>217</ele>
        <time>2021-06-06T10:19:12.548Z</time>
      </trkpt>
      <trkpt lat="45.64554" lon="5.30137">
        <ele>217</ele>
        <time>2021-06-06T10:19:13.548Z</time>
      </trkpt>
      <trkpt lat="45.64548" lon="5.3013">
        <ele>217</ele>
        <time>2021-06-06T10:19:14.548Z</time>
      </trkpt>
      <trkpt lat="45.64542" lon="5.30122">
        <ele>217</ele>
        <time>2021-06-06T10:19:15.547Z</time>
      </trkpt>
      <trkpt lat="45.64537" lon="5.30114">
        <ele>218</ele>
        <time>2021-06-06T10:19:16.548Z</time>
      </trkpt>
      <trkpt lat="45.64531" lon="5.30106">
        <ele>218</ele>
        <time>2021-06-06T10:19:17.547Z</time>
      </trkpt>
      <trkpt lat="45.64526" lon="5.30098">
        <ele>218</ele>
        <time>2021-06-06T10:19:18.547Z</time>
      </trkpt>
      <trkpt lat="45.64519" lon="5.30088">
        <ele>218</ele>
        <time>2021-06-06T10:19:19.548Z</time>
      </trkpt>
      <trkpt lat="45.64514" lon="5.30082">
        <ele>218</ele>
        <time>2021-06-06T10:19:20.547Z</time>
      </trkpt>
      <trkpt lat="45.64509" lon="5.30074">
        <ele>218</ele>
        <time>2021-06-06T10:19:21.547Z</time>
      </trkpt>
      <trkpt lat="45.64503" lon="5.30066">
        <ele>219</ele>
        <time>2021-06-06T10:19:22.547Z</time>
      </trkpt>
      <trkpt lat="45.64498" lon="5.30058">
        <ele>219</ele>
        <time>2021-06-06T10:19:23.548Z</time>
      </trkpt>
      <trkpt lat="45.64492" lon="5.3005">
        <ele>219</ele>
        <time>2021-06-06T10:19:24.548Z</time>
      </trkpt>
      <trkpt lat="45.64487" lon="5.30041">
        <ele>219</ele>
        <time>2021-06-06T10:19:25.547Z</time>
      </trkpt>
      <trkpt lat="45.64481" lon="5.30033">
        <ele>220</ele>
        <time>2021-06-06T10:19:26.548Z</time>
      </trkpt>
      <trkpt lat="45.64475" lon="5.30025">
        <ele>220</ele>
        <time>2021-06-06T10:19:27.548Z</time>
      </trkpt>
      <trkpt lat="45.6447" lon="5.30016">
        <ele>219</ele>
        <time>2021-06-06T10:19:28.548Z</time>
      </trkpt>
      <trkpt lat="45.64465" lon="5.30008">
        <ele>219</ele>
        <time>2021-06-06T10:19:29.548Z</time>
      </trkpt>
      <trkpt lat="45.64459" lon="5.29999">
        <ele>219</ele>
        <time>2021-06-06T10:19:30.548Z</time>
      </trkpt>
      <trkpt lat="45.64454" lon="5.29992">
        <ele>219</ele>
        <time>2021-06-06T10:19:31.548Z</time>
      </trkpt>
      <trkpt lat="45.64448" lon="5.29984">
        <ele>219</ele>
        <time>2021-06-06T10:19:32.547Z</time>
      </trkpt>
      <trkpt lat="45.64443" lon="5.29976">
        <ele>219</ele>
        <time>2021-06-06T10:19:33.548Z</time>
      </trkpt>
      <trkpt lat="45.64437" lon="5.29968">
        <ele>219</ele>
        <time>2021-06-06T10:19:34.547Z</time>
      </trkpt>
      <trkpt lat="45.64432" lon="5.2996">
        <ele>220</ele>
        <time>2021-06-06T10:19:35.548Z</time>
      </trkpt>
      <trkpt lat="45.64426" lon="5.29952">
        <ele>220</ele>
        <time>2021-06-06T10:19:36.548Z</time>
      </trkpt>
      <trkpt lat="45.64421" lon="5.29944">
        <ele>220</ele>
        <time>2021-06-06T10:19:37.547Z</time>
      </trkpt>
      <trkpt lat="45.64416" lon="5.29936">
        <ele>220</ele>
        <time>2021-06-06T10:19:38.547Z</time>
      </trkpt>
      <trkpt lat="45.64409" lon="5.29927">
        <ele>220</ele>
        <time>2021-06-06T10:19:39.548Z</time>
      </trkpt>
      <trkpt lat="45.64405" lon="5.29921">
        <ele>221</ele>
        <time>2021-06-06T10:19:40.547Z</time>
      </trkpt>
      <trkpt lat="45.644" lon="5.29913">
        <ele>221</ele>
        <time>2021-06-06T10:19:41.548Z</time>
      </trkpt>
      <trkpt lat="45.64394" lon="5.29905">
        <ele>222</ele>
        <time>2021-06-06T10:19:42.547Z</time>
      </trkpt>
      <trkpt lat="45.64389" lon="5.29897">
        <ele>221</ele>
        <time>2021-06-06T10:19:43.548Z</time>
      </trkpt>
      <trkpt lat="45.64383" lon="5.29889">
        <ele>221</ele>
        <time>2021-06-06T10:19:44.548Z</time>
      </trkpt>
      <trkpt lat="45.64378" lon="5.29881">
        <ele>221</ele>
        <time>2021-06-06T10:19:45.548Z</time>
      </trkpt>
      <trkpt lat="45.64372" lon="5.29874">
        <ele>221</ele>
        <time>2021-06-06T10:19:46.547Z</time>
      </trkpt>
      <trkpt lat="45.64366" lon="5.29866">
        <ele>220</ele>
        <time>2021-06-06T10:19:47.548Z</time>
      </trkpt>
      <trkpt lat="45.64361" lon="5.29858">
        <ele>220</ele>
        <time>2021-06-06T10:19:48.547Z</time>
      </trkpt>
      <trkpt lat="45.64355" lon="5.2985">
        <ele>220</ele>
        <time>2021-06-06T10:19:49.548Z</time>
      </trkpt>
      <trkpt lat="45.64349" lon="5.29842">
        <ele>221</ele>
        <time>2021-06-06T10:19:50.547Z</time>
      </trkpt>
      <trkpt lat="45.64343" lon="5.29834">
        <ele>221</ele>
        <time>2021-06-06T10:19:51.547Z</time>
      </trkpt>
      <trkpt lat="45.64337" lon="5.29826">
        <ele>221</ele>
        <time>2021-06-06T10:19:52.547Z</time>
      </trkpt>
      <trkpt lat="45.64332" lon="5.29817">
        <ele>221</ele>
        <time>2021-06-06T10:19:53.548Z</time>
      </trkpt>
      <trkpt lat="45.64326" lon="5.29809">
        <ele>221</ele>
        <time>2021-06-06T10:19:54.548Z</time>
      </trkpt>
      <trkpt lat="45.6432" lon="5.29801">
        <ele>221</ele>
        <time>2021-06-06T10:19:55.548Z</time>
      </trkpt>
      <trkpt lat="45.64314" lon="5.29792">
        <ele>221</ele>
        <time>2021-06-06T10:19:56.548Z</time>
      </trkpt>
      <trkpt lat="45.64308" lon="5.29783">
        <ele>221</ele>
        <time>2021-06-06T10:19:57.547Z</time>
      </trkpt>
      <trkpt lat="45.64301" lon="5.29774">
        <ele>220</ele>
        <time>2021-06-06T10:19:58.547Z</time>
      </trkpt>
      <trkpt lat="45.64295" lon="5.29766">
        <ele>220</ele>
        <time>2021-06-06T10:19:59.548Z</time>
      </trkpt>
      <trkpt lat="45.64288" lon="5.29757">
        <ele>220</ele>
        <time>2021-06-06T10:20:00.548Z</time>
      </trkpt>
      <trkpt lat="45.64281" lon="5.29749">
        <ele>220</ele>
        <time>2021-06-06T10:20:01.548Z</time>
      </trkpt>
      <trkpt lat="45.64274" lon="5.2974">
        <ele>220</ele>
        <time>2021-06-06T10:20:02.548Z</time>
      </trkpt>
      <trkpt lat="45.64267" lon="5.29733">
        <ele>221</ele>
        <time>2021-06-06T10:20:03.548Z</time>
      </trkpt>
      <trkpt lat="45.6426" lon="5.29725">
        <ele>221</ele>
        <time>2021-06-06T10:20:04.548Z</time>
      </trkpt>
      <trkpt lat="45.64252" lon="5.29718">
        <ele>221</ele>
        <time>2021-06-06T10:20:05.548Z</time>
      </trkpt>
      <trkpt lat="45.64243" lon="5.29712">
        <ele>221</ele>
        <time>2021-06-06T10:20:06.548Z</time>
      </trkpt>
      <trkpt lat="45.64235" lon="5.29706">
        <ele>221</ele>
        <time>2021-06-06T10:20:07.547Z</time>
      </trkpt>
      <trkpt lat="45.64227" lon="5.29701">
        <ele>221</ele>
        <time>2021-06-06T10:20:08.548Z</time>
      </trkpt>
      <trkpt lat="45.64216" lon="5.29695">
        <ele>221</ele>
        <time>2021-06-06T10:20:09.547Z</time>
      </trkpt>
      <trkpt lat="45.64209" lon="5.29692">
        <ele>221</ele>
        <time>2021-06-06T10:20:10.548Z</time>
      </trkpt>
      <trkpt lat="45.642" lon="5.29688">
        <ele>221</ele>
        <time>2021-06-06T10:20:11.548Z</time>
      </trkpt>
      <trkpt lat="45.64191" lon="5.29685">
        <ele>220</ele>
        <time>2021-06-06T10:20:12.548Z</time>
      </trkpt>
      <trkpt lat="45.64182" lon="5.29683">
        <ele>220</ele>
        <time>2021-06-06T10:20:13.548Z</time>
      </trkpt>
      <trkpt lat="45.64173" lon="5.2968">
        <ele>219</ele>
        <time>2021-06-06T10:20:14.548Z</time>
      </trkpt>
      <trkpt lat="45.64162" lon="5.29678">
        <ele>219</ele>
        <time>2021-06-06T10:20:15.548Z</time>
      </trkpt>
      <trkpt lat="45.64154" lon="5.29676">
        <ele>219</ele>
        <time>2021-06-06T10:20:16.548Z</time>
      </trkpt>
      <trkpt lat="45.64145" lon="5.29675">
        <ele>219</ele>
        <time>2021-06-06T10:20:17.548Z</time>
      </trkpt>
      <trkpt lat="45.64136" lon="5.29673">
        <ele>219</ele>
        <time>2021-06-06T10:20:18.548Z</time>
      </trkpt>
      <trkpt lat="45.64127" lon="5.29672">
        <ele>219</ele>
        <time>2021-06-06T10:20:19.548Z</time>
      </trkpt>
      <trkpt lat="45.64117" lon="5.29671">
        <ele>220</ele>
        <time>2021-06-06T10:20:20.548Z</time>
      </trkpt>
      <trkpt lat="45.64108" lon="5.29669">
        <ele>220</ele>
        <time>2021-06-06T10:20:21.548Z</time>
      </trkpt>
      <trkpt lat="45.64099" lon="5.29668">
        <ele>220</ele>
        <time>2021-06-06T10:20:22.548Z</time>
      </trkpt>
      <trkpt lat="45.6409" lon="5.29666">
        <ele>220</ele>
        <time>2021-06-06T10:20:23.548Z</time>
      </trkpt>
      <trkpt lat="45.64081" lon="5.29665">
        <ele>220</ele>
        <time>2021-06-06T10:20:24.548Z</time>
      </trkpt>
      <trkpt lat="45.64072" lon="5.29664">
        <ele>221</ele>
        <time>2021-06-06T10:20:25.548Z</time>
      </trkpt>
      <trkpt lat="45.64063" lon="5.29662">
        <ele>220</ele>
        <time>2021-06-06T10:20:26.548Z</time>
      </trkpt>
      <trkpt lat="45.64054" lon="5.29661">
        <ele>220</ele>
        <time>2021-06-06T10:20:27.548Z</time>
      </trkpt>
      <trkpt lat="45.64045" lon="5.29659">
        <ele>220</ele>
        <time>2021-06-06T10:20:28.548Z</time>
      </trkpt>
      <trkpt lat="45.64036" lon="5.29658">
        <ele>220</ele>
        <time>2021-06-06T10:20:29.548Z</time>
      </trkpt>
      <trkpt lat="45.64026" lon="5.29657">
        <ele>220</ele>
        <time>2021-06-06T10:20:30.548Z</time>
      </trkpt>
      <trkpt lat="45.64017" lon="5.29656">
        <ele>221</ele>
        <time>2021-06-06T10:20:31.547Z</time>
      </trkpt>
      <trkpt lat="45.64008" lon="5.29654">
        <ele>221</ele>
        <time>2021-06-06T10:20:32.548Z</time>
      </trkpt>
      <trkpt lat="45.63999" lon="5.29653">
        <ele>221</ele>
        <time>2021-06-06T10:20:33.548Z</time>
      </trkpt>
      <trkpt lat="45.63989" lon="5.29652">
        <ele>220</ele>
        <time>2021-06-06T10:20:34.548Z</time>
      </trkpt>
      <trkpt lat="45.6398" lon="5.2965">
        <ele>220</ele>
        <time>2021-06-06T10:20:35.548Z</time>
      </trkpt>
      <trkpt lat="45.63971" lon="5.29649">
        <ele>220</ele>
        <time>2021-06-06T10:20:36.548Z</time>
      </trkpt>
      <trkpt lat="45.63962" lon="5.29648">
        <ele>219</ele>
        <time>2021-06-06T10:20:37.548Z</time>
      </trkpt>
      <trkpt lat="45.63953" lon="5.29647">
        <ele>219</ele>
        <time>2021-06-06T10:20:38.547Z</time>
      </trkpt>
      <trkpt lat="45.63943" lon="5.29646">
        <ele>219</ele>
        <time>2021-06-06T10:20:39.548Z</time>
      </trkpt>
      <trkpt lat="45.63935" lon="5.29644">
        <ele>218</ele>
        <time>2021-06-06T10:20:40.547Z</time>
      </trkpt>
      <trkpt lat="45.63926" lon="5.29643">
        <ele>218</ele>
        <time>2021-06-06T10:20:41.548Z</time>
      </trkpt>
      <trkpt lat="45.63917" lon="5.29641">
        <ele>218</ele>
        <time>2021-06-06T10:20:42.548Z</time>
      </trkpt>
      <trkpt lat="45.63908" lon="5.2964">
        <ele>218</ele>
        <time>2021-06-06T10:20:43.548Z</time>
      </trkpt>
      <trkpt lat="45.639" lon="5.29639">
        <ele>218</ele>
        <time>2021-06-06T10:20:44.548Z</time>
      </trkpt>
      <trkpt lat="45.63891" lon="5.29638">
        <ele>218</ele>
        <time>2021-06-06T10:20:45.548Z</time>
      </trkpt>
      <trkpt lat="45.63882" lon="5.29637">
        <ele>218</ele>
        <time>2021-06-06T10:20:46.547Z</time>
      </trkpt>
      <trkpt lat="45.63873" lon="5.29636">
        <ele>218</ele>
        <time>2021-06-06T10:20:47.547Z</time>
      </trkpt>
      <trkpt lat="45.63865" lon="5.29634">
        <ele>217</ele>
        <time>2021-06-06T10:20:48.548Z</time>
      </trkpt>
      <trkpt lat="45.63856" lon="5.29633">
        <ele>217</ele>
        <time>2021-06-06T10:20:49.548Z</time>
      </trkpt>
      <trkpt lat="45.63847" lon="5.29632">
        <ele>217</ele>
        <time>2021-06-06T10:20:50.548Z</time>
      </trkpt>
      <trkpt lat="45.63838" lon="5.2963">
        <ele>217</ele>
        <time>2021-06-06T10:20:51.548Z</time>
      </trkpt>
      <trkpt lat="45.6383" lon="5.29629">
        <ele>217</ele>
        <time>2021-06-06T10:20:52.548Z</time>
      </trkpt>
      <trkpt lat="45.63821" lon="5.29628">
        <ele>218</ele>
        <time>2021-06-06T10:20:53.548Z</time>
      </trkpt>
      <trkpt lat="45.63812" lon="5.29626">
        <ele>218</ele>
        <time>2021-06-06T10:20:54.548Z</time>
      </trkpt>
      <trkpt lat="45.63804" lon="5.29625">
        <ele>218</ele>
        <time>2021-06-06T10:20:55.548Z</time>
      </trkpt>
      <trkpt lat="45.63795" lon="5.29623">
        <ele>219</ele>
        <time>2021-06-06T10:20:56.547Z</time>
      </trkpt>
      <trkpt lat="45.63786" lon="5.29622">
        <ele>219</ele>
        <time>2021-06-06T10:20:57.547Z</time>
      </trkpt>
      <trkpt lat="45.63778" lon="5.29621">
        <ele>220</ele>
        <time>2021-06-06T10:20:58.548Z</time>
      </trkpt>
      <trkpt lat="45.63769" lon="5.29619">
        <ele>220</ele>
        <time>2021-06-06T10:20:59.548Z</time>
      </trkpt>
      <trkpt lat="45.6376" lon="5.29618">
        <ele>220</ele>
        <time>2021-06-06T10:21:00.547Z</time>
      </trkpt>
      <trkpt lat="45.63751" lon="5.29616">
        <ele>221</ele>
        <time>2021-06-06T10:21:01.548Z</time>
      </trkpt>
      <trkpt lat="45.63742" lon="5.29615">
        <ele>221</ele>
        <time>2021-06-06T10:21:02.548Z</time>
      </trkpt>
      <trkpt lat="45.63733" lon="5.29614">
        <ele>221</ele>
        <time>2021-06-06T10:21:03.547Z</time>
      </trkpt>
      <trkpt lat="45.63725" lon="5.29613">
        <ele>221</ele>
        <time>2021-06-06T10:21:04.548Z</time>
      </trkpt>
      <trkpt lat="45.63716" lon="5.29611">
        <ele>221</ele>
        <time>2021-06-06T10:21:05.548Z</time>
      </trkpt>
      <trkpt lat="45.63707" lon="5.2961">
        <ele>221</ele>
        <time>2021-06-06T10:21:06.547Z</time>
      </trkpt>
      <trkpt lat="45.63696" lon="5.29608">
        <ele>221</ele>
        <time>2021-06-06T10:21:07.548Z</time>
      </trkpt>
      <trkpt lat="45.63689" lon="5.29607">
        <ele>221</ele>
        <time>2021-06-06T10:21:08.548Z</time>
      </trkpt>
      <trkpt lat="45.6368" lon="5.29605">
        <ele>221</ele>
        <time>2021-06-06T10:21:09.548Z</time>
      </trkpt>
      <trkpt lat="45.63671" lon="5.29604">
        <ele>220</ele>
        <time>2021-06-06T10:21:10.548Z</time>
      </trkpt>
      <trkpt lat="45.63662" lon="5.29603">
        <ele>220</ele>
        <time>2021-06-06T10:21:11.548Z</time>
      </trkpt>
      <trkpt lat="45.63651" lon="5.29601">
        <ele>220</ele>
        <time>2021-06-06T10:21:12.548Z</time>
      </trkpt>
      <trkpt lat="45.63643" lon="5.296">
        <ele>220</ele>
        <time>2021-06-06T10:21:13.548Z</time>
      </trkpt>
      <trkpt lat="45.63633" lon="5.29599">
        <ele>220</ele>
        <time>2021-06-06T10:21:14.548Z</time>
      </trkpt>
      <trkpt lat="45.63624" lon="5.29598">
        <ele>220</ele>
        <time>2021-06-06T10:21:15.548Z</time>
      </trkpt>
      <trkpt lat="45.63615" lon="5.29596">
        <ele>220</ele>
        <time>2021-06-06T10:21:16.547Z</time>
      </trkpt>
      <trkpt lat="45.63605" lon="5.29595">
        <ele>220</ele>
        <time>2021-06-06T10:21:17.547Z</time>
      </trkpt>
      <trkpt lat="45.63596" lon="5.29593">
        <ele>220</ele>
        <time>2021-06-06T10:21:18.548Z</time>
      </trkpt>
      <trkpt lat="45.63586" lon="5.29592">
        <ele>220</ele>
        <time>2021-06-06T10:21:19.547Z</time>
      </trkpt>
      <trkpt lat="45.63577" lon="5.2959">
        <ele>220</ele>
        <time>2021-06-06T10:21:20.548Z</time>
      </trkpt>
      <trkpt lat="45.63567" lon="5.29589">
        <ele>220</ele>
        <time>2021-06-06T10:21:21.548Z</time>
      </trkpt>
      <trkpt lat="45.63555" lon="5.29588">
        <ele>220</ele>
        <time>2021-06-06T10:21:22.547Z</time>
      </trkpt>
      <trkpt lat="45.63547" lon="5.29587">
        <ele>220</ele>
        <time>2021-06-06T10:21:23.547Z</time>
      </trkpt>
      <trkpt lat="45.63537" lon="5.29585">
        <ele>220</ele>
        <time>2021-06-06T10:21:24.548Z</time>
      </trkpt>
      <trkpt lat="45.63527" lon="5.29584">
        <ele>220</ele>
        <time>2021-06-06T10:21:25.547Z</time>
      </trkpt>
      <trkpt lat="45.63518" lon="5.29583">
        <ele>220</ele>
        <time>2021-06-06T10:21:26.548Z</time>
      </trkpt>
      <trkpt lat="45.63508" lon="5.29581">
        <ele>220</ele>
        <time>2021-06-06T10:21:27.547Z</time>
      </trkpt>
      <trkpt lat="45.63498" lon="5.29579">
        <ele>220</ele>
        <time>2021-06-06T10:21:28.548Z</time>
      </trkpt>
      <trkpt lat="45.63488" lon="5.29578">
        <ele>220</ele>
        <time>2021-06-06T10:21:29.547Z</time>
      </trkpt>
      <trkpt lat="45.63477" lon="5.29576">
        <ele>220</ele>
        <time>2021-06-06T10:21:30.548Z</time>
      </trkpt>
      <trkpt lat="45.63467" lon="5.29574">
        <ele>220</ele>
        <time>2021-06-06T10:21:31.548Z</time>
      </trkpt>
      <trkpt lat="45.63457" lon="5.29572">
        <ele>220</ele>
        <time>2021-06-06T10:21:32.547Z</time>
      </trkpt>
      <trkpt lat="45.63448" lon="5.29569">
        <ele>219</ele>
        <time>2021-06-06T10:21:33.548Z</time>
      </trkpt>
      <trkpt lat="45.63438" lon="5.29566">
        <ele>219</ele>
        <time>2021-06-06T10:21:34.548Z</time>
      </trkpt>
      <trkpt lat="45.63428" lon="5.29562">
        <ele>219</ele>
        <time>2021-06-06T10:21:35.548Z</time>
      </trkpt>
      <trkpt lat="45.63418" lon="5.29558">
        <ele>219</ele>
        <time>2021-06-06T10:21:36.548Z</time>
      </trkpt>
      <trkpt lat="45.63408" lon="5.29554">
        <ele>219</ele>
        <time>2021-06-06T10:21:37.548Z</time>
      </trkpt>
      <trkpt lat="45.63399" lon="5.29548">
        <ele>219</ele>
        <time>2021-06-06T10:21:38.547Z</time>
      </trkpt>
      <trkpt lat="45.6339" lon="5.29543">
        <ele>219</ele>
        <time>2021-06-06T10:21:39.548Z</time>
      </trkpt>
      <trkpt lat="45.63381" lon="5.29536">
        <ele>219</ele>
        <time>2021-06-06T10:21:40.547Z</time>
      </trkpt>
      <trkpt lat="45.63373" lon="5.29529">
        <ele>220</ele>
        <time>2021-06-06T10:21:41.548Z</time>
      </trkpt>
      <trkpt lat="45.63365" lon="5.29521">
        <ele>220</ele>
        <time>2021-06-06T10:21:42.547Z</time>
      </trkpt>
      <trkpt lat="45.63357" lon="5.29513">
        <ele>220</ele>
        <time>2021-06-06T10:21:43.548Z</time>
      </trkpt>
      <trkpt lat="45.63349" lon="5.29505">
        <ele>220</ele>
        <time>2021-06-06T10:21:44.548Z</time>
      </trkpt>
      <trkpt lat="45.63342" lon="5.29497">
        <ele>220</ele>
        <time>2021-06-06T10:21:45.548Z</time>
      </trkpt>
      <trkpt lat="45.63334" lon="5.29489">
        <ele>220</ele>
        <time>2021-06-06T10:21:46.548Z</time>
      </trkpt>
      <trkpt lat="45.63326" lon="5.29481">
        <ele>220</ele>
        <time>2021-06-06T10:21:47.548Z</time>
      </trkpt>
      <trkpt lat="45.63318" lon="5.29473">
        <ele>220</ele>
        <time>2021-06-06T10:21:48.547Z</time>
      </trkpt>
      <trkpt lat="45.63311" lon="5.29465">
        <ele>220</ele>
        <time>2021-06-06T10:21:49.547Z</time>
      </trkpt>
      <trkpt lat="45.63303" lon="5.29457">
        <ele>220</ele>
        <time>2021-06-06T10:21:50.547Z</time>
      </trkpt>
      <trkpt lat="45.63296" lon="5.29449">
        <ele>220</ele>
        <time>2021-06-06T10:21:51.547Z</time>
      </trkpt>
      <trkpt lat="45.63288" lon="5.29441">
        <ele>220</ele>
        <time>2021-06-06T10:21:52.547Z</time>
      </trkpt>
      <trkpt lat="45.63281" lon="5.29433">
        <ele>220</ele>
        <time>2021-06-06T10:21:53.548Z</time>
      </trkpt>
      <trkpt lat="45.63274" lon="5.29425">
        <ele>220</ele>
        <time>2021-06-06T10:21:54.548Z</time>
      </trkpt>
      <trkpt lat="45.63266" lon="5.29417">
        <ele>220</ele>
        <time>2021-06-06T10:21:55.548Z</time>
      </trkpt>
      <trkpt lat="45.63259" lon="5.29409">
        <ele>220</ele>
        <time>2021-06-06T10:21:56.548Z</time>
      </trkpt>
      <trkpt lat="45.63252" lon="5.29401">
        <ele>220</ele>
        <time>2021-06-06T10:21:57.548Z</time>
      </trkpt>
      <trkpt lat="45.63245" lon="5.29393">
        <ele>220</ele>
        <time>2021-06-06T10:21:58.548Z</time>
      </trkpt>
      <trkpt lat="45.63238" lon="5.29384">
        <ele>220</ele>
        <time>2021-06-06T10:21:59.548Z</time>
      </trkpt>
      <trkpt lat="45.63231" lon="5.29376">
        <ele>219</ele>
        <time>2021-06-06T10:22:00.547Z</time>
      </trkpt>
      <trkpt lat="45.63224" lon="5.29367">
        <ele>219</ele>
        <time>2021-06-06T10:22:01.547Z</time>
      </trkpt>
      <trkpt lat="45.63217" lon="5.29359">
        <ele>219</ele>
        <time>2021-06-06T10:22:02.548Z</time>
      </trkpt>
      <trkpt lat="45.6321" lon="5.29351">
        <ele>219</ele>
        <time>2021-06-06T10:22:03.547Z</time>
      </trkpt>
      <trkpt lat="45.63203" lon="5.29342">
        <ele>219</ele>
        <time>2021-06-06T10:22:04.548Z</time>
      </trkpt>
      <trkpt lat="45.63196" lon="5.29334">
        <ele>218</ele>
        <time>2021-06-06T10:22:05.547Z</time>
      </trkpt>
      <trkpt lat="45.6319" lon="5.29325">
        <ele>218</ele>
        <time>2021-06-06T10:22:06.548Z</time>
      </trkpt>
      <trkpt lat="45.63183" lon="5.29316">
        <ele>219</ele>
        <time>2021-06-06T10:22:07.548Z</time>
      </trkpt>
      <trkpt lat="45.63176" lon="5.29308">
        <ele>218</ele>
        <time>2021-06-06T10:22:08.548Z</time>
      </trkpt>
      <trkpt lat="45.63169" lon="5.29299">
        <ele>218</ele>
        <time>2021-06-06T10:22:09.548Z</time>
      </trkpt>
      <trkpt lat="45.63162" lon="5.29291">
        <ele>218</ele>
        <time>2021-06-06T10:22:10.548Z</time>
      </trkpt>
      <trkpt lat="45.63155" lon="5.29283">
        <ele>218</ele>
        <time>2021-06-06T10:22:11.548Z</time>
      </trkpt>
      <trkpt lat="45.63147" lon="5.29272">
        <ele>219</ele>
        <time>2021-06-06T10:22:12.548Z</time>
      </trkpt>
      <trkpt lat="45.63142" lon="5.29265">
        <ele>219</ele>
        <time>2021-06-06T10:22:13.548Z</time>
      </trkpt>
      <trkpt lat="45.63134" lon="5.29255">
        <ele>219</ele>
        <time>2021-06-06T10:22:14.548Z</time>
      </trkpt>
      <trkpt lat="45.63129" lon="5.29248">
        <ele>219</ele>
        <time>2021-06-06T10:22:15.548Z</time>
      </trkpt>
      <trkpt lat="45.63122" lon="5.29239">
        <ele>219</ele>
        <time>2021-06-06T10:22:16.548Z</time>
      </trkpt>
      <trkpt lat="45.63114" lon="5.29229">
        <ele>219</ele>
        <time>2021-06-06T10:22:17.547Z</time>
      </trkpt>
      <trkpt lat="45.63109" lon="5.29222">
        <ele>219</ele>
        <time>2021-06-06T10:22:18.548Z</time>
      </trkpt>
      <trkpt lat="45.63101" lon="5.29212">
        <ele>219</ele>
        <time>2021-06-06T10:22:19.548Z</time>
      </trkpt>
      <trkpt lat="45.63096" lon="5.29205">
        <ele>218</ele>
        <time>2021-06-06T10:22:20.548Z</time>
      </trkpt>
      <trkpt lat="45.63089" lon="5.29196">
        <ele>218</ele>
        <time>2021-06-06T10:22:21.548Z</time>
      </trkpt>
      <trkpt lat="45.63081" lon="5.29186">
        <ele>218</ele>
        <time>2021-06-06T10:22:22.548Z</time>
      </trkpt>
      <trkpt lat="45.63074" lon="5.29178">
        <ele>218</ele>
        <time>2021-06-06T10:22:23.547Z</time>
      </trkpt>
      <trkpt lat="45.63067" lon="5.2917">
        <ele>218</ele>
        <time>2021-06-06T10:22:24.548Z</time>
      </trkpt>
      <trkpt lat="45.63062" lon="5.29163">
        <ele>218</ele>
        <time>2021-06-06T10:22:25.548Z</time>
      </trkpt>
      <trkpt lat="45.63056" lon="5.29154">
        <ele>218</ele>
        <time>2021-06-06T10:22:26.547Z</time>
      </trkpt>
      <trkpt lat="45.63048" lon="5.29143">
        <ele>219</ele>
        <time>2021-06-06T10:22:27.548Z</time>
      </trkpt>
      <trkpt lat="45.63041" lon="5.29134">
        <ele>219</ele>
        <time>2021-06-06T10:22:28.548Z</time>
      </trkpt>
      <trkpt lat="45.63035" lon="5.29126">
        <ele>219</ele>
        <time>2021-06-06T10:22:29.548Z</time>
      </trkpt>
      <trkpt lat="45.63028" lon="5.29118">
        <ele>220</ele>
        <time>2021-06-06T10:22:30.548Z</time>
      </trkpt>
      <trkpt lat="45.63022" lon="5.29109">
        <ele>219</ele>
        <time>2021-06-06T10:22:31.548Z</time>
      </trkpt>
      <trkpt lat="45.63016" lon="5.29101">
        <ele>219</ele>
        <time>2021-06-06T10:22:32.548Z</time>
      </trkpt>
      <trkpt lat="45.63009" lon="5.29093">
        <ele>219</ele>
        <time>2021-06-06T10:22:33.548Z</time>
      </trkpt>
      <trkpt lat="45.63004" lon="5.29086">
        <ele>219</ele>
        <time>2021-06-06T10:22:34.548Z</time>
      </trkpt>
      <trkpt lat="45.62996" lon="5.29077">
        <ele>219</ele>
        <time>2021-06-06T10:22:35.548Z</time>
      </trkpt>
      <trkpt lat="45.62989" lon="5.29068">
        <ele>219</ele>
        <time>2021-06-06T10:22:36.548Z</time>
      </trkpt>
      <trkpt lat="45.62983" lon="5.2906">
        <ele>220</ele>
        <time>2021-06-06T10:22:37.548Z</time>
      </trkpt>
      <trkpt lat="45.62977" lon="5.29053">
        <ele>220</ele>
        <time>2021-06-06T10:22:38.547Z</time>
      </trkpt>
      <trkpt lat="45.62971" lon="5.29045">
        <ele>220</ele>
        <time>2021-06-06T10:22:39.547Z</time>
      </trkpt>
      <trkpt lat="45.62965" lon="5.29037">
        <ele>219</ele>
        <time>2021-06-06T10:22:40.547Z</time>
      </trkpt>
      <trkpt lat="45.62957" lon="5.29027">
        <ele>219</ele>
        <time>2021-06-06T10:22:41.547Z</time>
      </trkpt>
      <trkpt lat="45.62952" lon="5.2902">
        <ele>219</ele>
        <time>2021-06-06T10:22:42.548Z</time>
      </trkpt>
      <trkpt lat="45.62946" lon="5.29012">
        <ele>218</ele>
        <time>2021-06-06T10:22:43.548Z</time>
      </trkpt>
      <trkpt lat="45.6294" lon="5.29004">
        <ele>218</ele>
        <time>2021-06-06T10:22:44.548Z</time>
      </trkpt>
      <trkpt lat="45.62933" lon="5.28996">
        <ele>217</ele>
        <time>2021-06-06T10:22:45.548Z</time>
      </trkpt>
      <trkpt lat="45.62927" lon="5.28988">
        <ele>217</ele>
        <time>2021-06-06T10:22:46.548Z</time>
      </trkpt>
      <trkpt lat="45.62921" lon="5.2898">
        <ele>217</ele>
        <time>2021-06-06T10:22:47.547Z</time>
      </trkpt>
      <trkpt lat="45.62915" lon="5.28972">
        <ele>217</ele>
        <time>2021-06-06T10:22:48.548Z</time>
      </trkpt>
      <trkpt lat="45.62909" lon="5.28964">
        <ele>217</ele>
        <time>2021-06-06T10:22:49.548Z</time>
      </trkpt>
      <trkpt lat="45.62903" lon="5.28956">
        <ele>217</ele>
        <time>2021-06-06T10:22:50.548Z</time>
      </trkpt>
      <trkpt lat="45.62898" lon="5.28948">
        <ele>217</ele>
        <time>2021-06-06T10:22:51.548Z</time>
      </trkpt>
      <trkpt lat="45.62892" lon="5.28941">
        <ele>217</ele>
        <time>2021-06-06T10:22:52.548Z</time>
      </trkpt>
      <trkpt lat="45.62887" lon="5.28934">
        <ele>217</ele>
        <time>2021-06-06T10:22:53.548Z</time>
      </trkpt>
      <trkpt lat="45.6288" lon="5.28925">
        <ele>216</ele>
        <time>2021-06-06T10:22:54.548Z</time>
      </trkpt>
      <trkpt lat="45.62876" lon="5.28919">
        <ele>217</ele>
        <time>2021-06-06T10:22:55.547Z</time>
      </trkpt>
      <trkpt lat="45.62869" lon="5.28911">
        <ele>217</ele>
        <time>2021-06-06T10:22:56.548Z</time>
      </trkpt>
      <trkpt lat="45.62864" lon="5.28905">
        <ele>217</ele>
        <time>2021-06-06T10:22:57.548Z</time>
      </trkpt>
      <trkpt lat="45.62859" lon="5.28898">
        <ele>217</ele>
        <time>2021-06-06T10:22:58.548Z</time>
      </trkpt>
      <trkpt lat="45.62852" lon="5.28889">
        <ele>218</ele>
        <time>2021-06-06T10:22:59.547Z</time>
      </trkpt>
      <trkpt lat="45.62846" lon="5.28881">
        <ele>218</ele>
        <time>2021-06-06T10:23:00.547Z</time>
      </trkpt>
      <trkpt lat="45.6284" lon="5.28874">
        <ele>218</ele>
        <time>2021-06-06T10:23:01.548Z</time>
      </trkpt>
      <trkpt lat="45.62835" lon="5.28868">
        <ele>217</ele>
        <time>2021-06-06T10:23:02.548Z</time>
      </trkpt>
      <trkpt lat="45.62829" lon="5.2886">
        <ele>217</ele>
        <time>2021-06-06T10:23:03.548Z</time>
      </trkpt>
      <trkpt lat="45.62822" lon="5.28851">
        <ele>217</ele>
        <time>2021-06-06T10:23:04.547Z</time>
      </trkpt>
      <trkpt lat="45.62816" lon="5.28843">
        <ele>217</ele>
        <time>2021-06-06T10:23:05.547Z</time>
      </trkpt>
      <trkpt lat="45.6281" lon="5.28835">
        <ele>217</ele>
        <time>2021-06-06T10:23:06.548Z</time>
      </trkpt>
      <trkpt lat="45.62805" lon="5.28828">
        <ele>217</ele>
        <time>2021-06-06T10:23:07.548Z</time>
      </trkpt>
      <trkpt lat="45.62799" lon="5.2882">
        <ele>217</ele>
        <time>2021-06-06T10:23:08.547Z</time>
      </trkpt>
      <trkpt lat="45.62792" lon="5.28811">
        <ele>217</ele>
        <time>2021-06-06T10:23:09.547Z</time>
      </trkpt>
      <trkpt lat="45.62786" lon="5.28803">
        <ele>218</ele>
        <time>2021-06-06T10:23:10.547Z</time>
      </trkpt>
      <trkpt lat="45.62781" lon="5.28797">
        <ele>218</ele>
        <time>2021-06-06T10:23:11.548Z</time>
      </trkpt>
      <trkpt lat="45.62775" lon="5.2879">
        <ele>218</ele>
        <time>2021-06-06T10:23:12.548Z</time>
      </trkpt>
      <trkpt lat="45.62767" lon="5.2878">
        <ele>218</ele>
        <time>2021-06-06T10:23:13.547Z</time>
      </trkpt>
      <trkpt lat="45.62761" lon="5.28773">
        <ele>218</ele>
        <time>2021-06-06T10:23:14.548Z</time>
      </trkpt>
      <trkpt lat="45.62755" lon="5.28765">
        <ele>218</ele>
        <time>2021-06-06T10:23:15.547Z</time>
      </trkpt>
      <trkpt lat="45.6275" lon="5.28759">
        <ele>218</ele>
        <time>2021-06-06T10:23:16.548Z</time>
      </trkpt>
      <trkpt lat="45.62744" lon="5.28751">
        <ele>219</ele>
        <time>2021-06-06T10:23:17.547Z</time>
      </trkpt>
      <trkpt lat="45.62737" lon="5.28741">
        <ele>219</ele>
        <time>2021-06-06T10:23:18.548Z</time>
      </trkpt>
      <trkpt lat="45.62732" lon="5.28735">
        <ele>219</ele>
        <time>2021-06-06T10:23:19.548Z</time>
      </trkpt>
      <trkpt lat="45.62726" lon="5.28728">
        <ele>219</ele>
        <time>2021-06-06T10:23:20.547Z</time>
      </trkpt>
      <trkpt lat="45.6272" lon="5.28721">
        <ele>219</ele>
        <time>2021-06-06T10:23:21.547Z</time>
      </trkpt>
      <trkpt lat="45.62714" lon="5.28715">
        <ele>220</ele>
        <time>2021-06-06T10:23:22.548Z</time>
      </trkpt>
      <trkpt lat="45.62707" lon="5.28709">
        <ele>220</ele>
        <time>2021-06-06T10:23:23.548Z</time>
      </trkpt>
      <trkpt lat="45.62698" lon="5.28704">
        <ele>220</ele>
        <time>2021-06-06T10:23:24.548Z</time>
      </trkpt>
      <trkpt lat="45.6269" lon="5.28701">
        <ele>220</ele>
        <time>2021-06-06T10:23:25.547Z</time>
      </trkpt>
      <trkpt lat="45.62684" lon="5.28699">
        <ele>220</ele>
        <time>2021-06-06T10:23:26.548Z</time>
      </trkpt>
      <trkpt lat="45.62674" lon="5.28697">
        <ele>220</ele>
        <time>2021-06-06T10:23:27.548Z</time>
      </trkpt>
      <trkpt lat="45.62666" lon="5.28694">
        <ele>220</ele>
        <time>2021-06-06T10:23:28.548Z</time>
      </trkpt>
      <trkpt lat="45.62658" lon="5.28691">
        <ele>220</ele>
        <time>2021-06-06T10:23:29.548Z</time>
      </trkpt>
      <trkpt lat="45.62652" lon="5.28688">
        <ele>219</ele>
        <time>2021-06-06T10:23:30.548Z</time>
      </trkpt>
      <trkpt lat="45.62644" lon="5.28685">
        <ele>219</ele>
        <time>2021-06-06T10:23:31.548Z</time>
      </trkpt>
      <trkpt lat="45.62636" lon="5.28681">
        <ele>219</ele>
        <time>2021-06-06T10:23:32.548Z</time>
      </trkpt>
      <trkpt lat="45.62627" lon="5.28678">
        <ele>219</ele>
        <time>2021-06-06T10:23:33.548Z</time>
      </trkpt>
      <trkpt lat="45.6262" lon="5.28675">
        <ele>219</ele>
        <time>2021-06-06T10:23:34.548Z</time>
      </trkpt>
      <trkpt lat="45.62614" lon="5.28672">
        <ele>219</ele>
        <time>2021-06-06T10:23:35.547Z</time>
      </trkpt>
      <trkpt lat="45.62606" lon="5.28666">
        <ele>219</ele>
        <time>2021-06-06T10:23:36.547Z</time>
      </trkpt>
      <trkpt lat="45.62601" lon="5.28662">
        <ele>219</ele>
        <time>2021-06-06T10:23:37.547Z</time>
      </trkpt>
      <trkpt lat="45.62595" lon="5.28657">
        <ele>219</ele>
        <time>2021-06-06T10:23:38.548Z</time>
      </trkpt>
      <trkpt lat="45.62588" lon="5.28652">
        <ele>219</ele>
        <time>2021-06-06T10:23:39.548Z</time>
      </trkpt>
      <trkpt lat="45.62581" lon="5.28648">
        <ele>220</ele>
        <time>2021-06-06T10:23:40.547Z</time>
      </trkpt>
      <trkpt lat="45.62573" lon="5.28641">
        <ele>220</ele>
        <time>2021-06-06T10:23:41.547Z</time>
      </trkpt>
      <trkpt lat="45.62567" lon="5.28635">
        <ele>220</ele>
        <time>2021-06-06T10:23:42.547Z</time>
      </trkpt>
      <trkpt lat="45.62561" lon="5.28627">
        <ele>220</ele>
        <time>2021-06-06T10:23:43.548Z</time>
      </trkpt>
      <trkpt lat="45.62556" lon="5.2862">
        <ele>220</ele>
        <time>2021-06-06T10:23:44.548Z</time>
      </trkpt>
      <trkpt lat="45.6255" lon="5.28612">
        <ele>220</ele>
        <time>2021-06-06T10:23:45.548Z</time>
      </trkpt>
      <trkpt lat="45.62544" lon="5.28604">
        <ele>220</ele>
        <time>2021-06-06T10:23:46.547Z</time>
      </trkpt>
      <trkpt lat="45.62537" lon="5.28594">
        <ele>220</ele>
        <time>2021-06-06T10:23:47.548Z</time>
      </trkpt>
      <trkpt lat="45.62532" lon="5.28588">
        <ele>220</ele>
        <time>2021-06-06T10:23:48.548Z</time>
      </trkpt>
      <trkpt lat="45.62526" lon="5.28581">
        <ele>220</ele>
        <time>2021-06-06T10:23:49.548Z</time>
      </trkpt>
      <trkpt lat="45.62519" lon="5.28572">
        <ele>220</ele>
        <time>2021-06-06T10:23:50.547Z</time>
      </trkpt>
      <trkpt lat="45.62513" lon="5.28563">
        <ele>220</ele>
        <time>2021-06-06T10:23:51.548Z</time>
      </trkpt>
      <trkpt lat="45.62508" lon="5.28557">
        <ele>220</ele>
        <time>2021-06-06T10:23:52.548Z</time>
      </trkpt>
      <trkpt lat="45.62503" lon="5.28548">
        <ele>220</ele>
        <time>2021-06-06T10:23:53.548Z</time>
      </trkpt>
      <trkpt lat="45.62498" lon="5.28539">
        <ele>219</ele>
        <time>2021-06-06T10:23:54.547Z</time>
      </trkpt>
      <trkpt lat="45.62492" lon="5.28527">
        <ele>220</ele>
        <time>2021-06-06T10:23:55.548Z</time>
      </trkpt>
      <trkpt lat="45.62488" lon="5.28516">
        <ele>220</ele>
        <time>2021-06-06T10:23:56.548Z</time>
      </trkpt>
      <trkpt lat="45.62486" lon="5.28507">
        <ele>220</ele>
        <time>2021-06-06T10:23:57.547Z</time>
      </trkpt>
      <trkpt lat="45.62483" lon="5.28495">
        <ele>220</ele>
        <time>2021-06-06T10:23:58.547Z</time>
      </trkpt>
      <trkpt lat="45.62481" lon="5.28482">
        <ele>220</ele>
        <time>2021-06-06T10:23:59.548Z</time>
      </trkpt>
      <trkpt lat="45.62479" lon="5.2847">
        <ele>220</ele>
        <time>2021-06-06T10:24:00.548Z</time>
      </trkpt>
      <trkpt lat="45.62477" lon="5.28455">
        <ele>219</ele>
        <time>2021-06-06T10:24:01.548Z</time>
      </trkpt>
      <trkpt lat="45.62475" lon="5.28445">
        <ele>220</ele>
        <time>2021-06-06T10:24:02.547Z</time>
      </trkpt>
      <trkpt lat="45.62473" lon="5.28433">
        <ele>221</ele>
        <time>2021-06-06T10:24:03.548Z</time>
      </trkpt>
      <trkpt lat="45.6247" lon="5.28421">
        <ele>221</ele>
        <time>2021-06-06T10:24:04.548Z</time>
      </trkpt>
      <trkpt lat="45.62467" lon="5.28409">
        <ele>221</ele>
        <time>2021-06-06T10:24:05.548Z</time>
      </trkpt>
      <trkpt lat="45.62463" lon="5.28398">
        <ele>221</ele>
        <time>2021-06-06T10:24:06.547Z</time>
      </trkpt>
      <trkpt lat="45.62459" lon="5.28388">
        <ele>220</ele>
        <time>2021-06-06T10:24:07.548Z</time>
      </trkpt>
      <trkpt lat="45.62454" lon="5.28379">
        <ele>220</ele>
        <time>2021-06-06T10:24:08.548Z</time>
      </trkpt>
      <trkpt lat="45.62447" lon="5.28368">
        <ele>219</ele>
        <time>2021-06-06T10:24:09.548Z</time>
      </trkpt>
      <trkpt lat="45.62442" lon="5.28362">
        <ele>219</ele>
        <time>2021-06-06T10:24:10.547Z</time>
      </trkpt>
      <trkpt lat="45.62434" lon="5.28352">
        <ele>219</ele>
        <time>2021-06-06T10:24:11.547Z</time>
      </trkpt>
      <trkpt lat="45.62429" lon="5.28345">
        <ele>219</ele>
        <time>2021-06-06T10:24:12.548Z</time>
      </trkpt>
      <trkpt lat="45.62423" lon="5.28337">
        <ele>219</ele>
        <time>2021-06-06T10:24:13.548Z</time>
      </trkpt>
      <trkpt lat="45.62415" lon="5.28327">
        <ele>218</ele>
        <time>2021-06-06T10:24:14.547Z</time>
      </trkpt>
      <trkpt lat="45.62409" lon="5.28319">
        <ele>218</ele>
        <time>2021-06-06T10:24:15.547Z</time>
      </trkpt>
      <trkpt lat="45.62403" lon="5.28311">
        <ele>218</ele>
        <time>2021-06-06T10:24:16.547Z</time>
      </trkpt>
      <trkpt lat="45.62398" lon="5.28304">
        <ele>218</ele>
        <time>2021-06-06T10:24:17.548Z</time>
      </trkpt>
      <trkpt lat="45.6239" lon="5.28295">
        <ele>218</ele>
        <time>2021-06-06T10:24:18.547Z</time>
      </trkpt>
      <trkpt lat="45.62384" lon="5.28287">
        <ele>219</ele>
        <time>2021-06-06T10:24:19.547Z</time>
      </trkpt>
      <trkpt lat="45.62378" lon="5.2828">
        <ele>219</ele>
        <time>2021-06-06T10:24:20.547Z</time>
      </trkpt>
      <trkpt lat="45.62373" lon="5.28274">
        <ele>220</ele>
        <time>2021-06-06T10:24:21.548Z</time>
      </trkpt>
      <trkpt lat="45.62367" lon="5.28266">
        <ele>220</ele>
        <time>2021-06-06T10:24:22.547Z</time>
      </trkpt>
      <trkpt lat="45.6236" lon="5.28257">
        <ele>221</ele>
        <time>2021-06-06T10:24:23.547Z</time>
      </trkpt>
      <trkpt lat="45.62355" lon="5.28251">
        <ele>221</ele>
        <time>2021-06-06T10:24:24.547Z</time>
      </trkpt>
      <trkpt lat="45.62349" lon="5.28244">
        <ele>221</ele>
        <time>2021-06-06T10:24:25.547Z</time>
      </trkpt>
      <trkpt lat="45.62343" lon="5.28237">
        <ele>221</ele>
        <time>2021-06-06T10:24:26.548Z</time>
      </trkpt>
      <trkpt lat="45.62338" lon="5.28229">
        <ele>220</ele>
        <time>2021-06-06T10:24:27.547Z</time>
      </trkpt>
      <trkpt lat="45.62332" lon="5.28222">
        <ele>220</ele>
        <time>2021-06-06T10:24:28.547Z</time>
      </trkpt>
      <trkpt lat="45.62326" lon="5.28215">
        <ele>220</ele>
        <time>2021-06-06T10:24:29.547Z</time>
      </trkpt>
      <trkpt lat="45.62319" lon="5.28206">
        <ele>220</ele>
        <time>2021-06-06T10:24:30.547Z</time>
      </trkpt>
      <trkpt lat="45.62315" lon="5.282">
        <ele>220</ele>
        <time>2021-06-06T10:24:31.548Z</time>
      </trkpt>
      <trkpt lat="45.62309" lon="5.28192">
        <ele>220</ele>
        <time>2021-06-06T10:24:32.548Z</time>
      </trkpt>
      <trkpt lat="45.62304" lon="5.28187">
        <ele>220</ele>
        <time>2021-06-06T10:24:33.547Z</time>
      </trkpt>
      <trkpt lat="45.62299" lon="5.2818">
        <ele>220</ele>
        <time>2021-06-06T10:24:34.547Z</time>
      </trkpt>
      <trkpt lat="45.62294" lon="5.28173">
        <ele>220</ele>
        <time>2021-06-06T10:24:35.547Z</time>
      </trkpt>
      <trkpt lat="45.62289" lon="5.28167">
        <ele>220</ele>
        <time>2021-06-06T10:24:36.547Z</time>
      </trkpt>
      <trkpt lat="45.62284" lon="5.2816">
        <ele>219</ele>
        <time>2021-06-06T10:24:37.547Z</time>
      </trkpt>
      <trkpt lat="45.62279" lon="5.28154">
        <ele>219</ele>
        <time>2021-06-06T10:24:38.547Z</time>
      </trkpt>
      <trkpt lat="45.62273" lon="5.28146">
        <ele>220</ele>
        <time>2021-06-06T10:24:39.547Z</time>
      </trkpt>
      <trkpt lat="45.62269" lon="5.28141">
        <ele>220</ele>
        <time>2021-06-06T10:24:40.547Z</time>
      </trkpt>
      <trkpt lat="45.62264" lon="5.28135">
        <ele>221</ele>
        <time>2021-06-06T10:24:41.547Z</time>
      </trkpt>
      <trkpt lat="45.62259" lon="5.28129">
        <ele>221</ele>
        <time>2021-06-06T10:24:42.547Z</time>
      </trkpt>
      <trkpt lat="45.62254" lon="5.28123">
        <ele>221</ele>
        <time>2021-06-06T10:24:43.547Z</time>
      </trkpt>
      <trkpt lat="45.62249" lon="5.28117">
        <ele>221</ele>
        <time>2021-06-06T10:24:44.547Z</time>
      </trkpt>
      <trkpt lat="45.62244" lon="5.2811">
        <ele>221</ele>
        <time>2021-06-06T10:24:45.548Z</time>
      </trkpt>
      <trkpt lat="45.62239" lon="5.28105">
        <ele>221</ele>
        <time>2021-06-06T10:24:46.547Z</time>
      </trkpt>
      <trkpt lat="45.62235" lon="5.28099">
        <ele>221</ele>
        <time>2021-06-06T10:24:47.547Z</time>
      </trkpt>
      <trkpt lat="45.6223" lon="5.28093">
        <ele>222</ele>
        <time>2021-06-06T10:24:48.548Z</time>
      </trkpt>
      <trkpt lat="45.62226" lon="5.28088">
        <ele>222</ele>
        <time>2021-06-06T10:24:49.548Z</time>
      </trkpt>
      <trkpt lat="45.62221" lon="5.28082">
        <ele>223</ele>
        <time>2021-06-06T10:24:50.547Z</time>
      </trkpt>
      <trkpt lat="45.62216" lon="5.28075">
        <ele>223</ele>
        <time>2021-06-06T10:24:51.547Z</time>
      </trkpt>
      <trkpt lat="45.62212" lon="5.28071">
        <ele>224</ele>
        <time>2021-06-06T10:24:52.547Z</time>
      </trkpt>
      <trkpt lat="45.62207" lon="5.28064">
        <ele>225</ele>
        <time>2021-06-06T10:24:53.548Z</time>
      </trkpt>
      <trkpt lat="45.62203" lon="5.28059">
        <ele>225</ele>
        <time>2021-06-06T10:24:54.548Z</time>
      </trkpt>
      <trkpt lat="45.62199" lon="5.28053">
        <ele>226</ele>
        <time>2021-06-06T10:24:55.548Z</time>
      </trkpt>
      <trkpt lat="45.62194" lon="5.28047">
        <ele>226</ele>
        <time>2021-06-06T10:24:56.548Z</time>
      </trkpt>
      <trkpt lat="45.62188" lon="5.2804">
        <ele>226</ele>
        <time>2021-06-06T10:24:57.547Z</time>
      </trkpt>
      <trkpt lat="45.62184" lon="5.28034">
        <ele>226</ele>
        <time>2021-06-06T10:24:58.547Z</time>
      </trkpt>
      <trkpt lat="45.6218" lon="5.2803">
        <ele>226</ele>
        <time>2021-06-06T10:24:59.548Z</time>
      </trkpt>
      <trkpt lat="45.62176" lon="5.28024">
        <ele>226</ele>
        <time>2021-06-06T10:25:00.548Z</time>
      </trkpt>
      <trkpt lat="45.62171" lon="5.28016">
        <ele>226</ele>
        <time>2021-06-06T10:25:01.548Z</time>
      </trkpt>
      <trkpt lat="45.62167" lon="5.28011">
        <ele>226</ele>
        <time>2021-06-06T10:25:02.547Z</time>
      </trkpt>
      <trkpt lat="45.62162" lon="5.28005">
        <ele>226</ele>
        <time>2021-06-06T10:25:03.548Z</time>
      </trkpt>
      <trkpt lat="45.62158" lon="5.27998">
        <ele>227</ele>
        <time>2021-06-06T10:25:04.547Z</time>
      </trkpt>
      <trkpt lat="45.62154" lon="5.27992">
        <ele>227</ele>
        <time>2021-06-06T10:25:05.548Z</time>
      </trkpt>
      <trkpt lat="45.62149" lon="5.27984">
        <ele>227</ele>
        <time>2021-06-06T10:25:06.548Z</time>
      </trkpt>
      <trkpt lat="45.62145" lon="5.27979">
        <ele>227</ele>
        <time>2021-06-06T10:25:07.548Z</time>
      </trkpt>
      <trkpt lat="45.62141" lon="5.27972">
        <ele>228</ele>
        <time>2021-06-06T10:25:08.547Z</time>
      </trkpt>
      <trkpt lat="45.62137" lon="5.27966">
        <ele>228</ele>
        <time>2021-06-06T10:25:09.548Z</time>
      </trkpt>
      <trkpt lat="45.62132" lon="5.27959">
        <ele>228</ele>
        <time>2021-06-06T10:25:10.548Z</time>
      </trkpt>
      <trkpt lat="45.62128" lon="5.2795">
        <ele>227</ele>
        <time>2021-06-06T10:25:11.548Z</time>
      </trkpt>
      <trkpt lat="45.62123" lon="5.27943">
        <ele>227</ele>
        <time>2021-06-06T10:25:12.547Z</time>
      </trkpt>
      <trkpt lat="45.6212" lon="5.27938">
        <ele>226</ele>
        <time>2021-06-06T10:25:13.548Z</time>
      </trkpt>
      <trkpt lat="45.62115" lon="5.27929">
        <ele>226</ele>
        <time>2021-06-06T10:25:14.548Z</time>
      </trkpt>
      <trkpt lat="45.62111" lon="5.27922">
        <ele>226</ele>
        <time>2021-06-06T10:25:15.548Z</time>
      </trkpt>
      <trkpt lat="45.62107" lon="5.27914">
        <ele>226</ele>
        <time>2021-06-06T10:25:16.547Z</time>
      </trkpt>
      <trkpt lat="45.62104" lon="5.27908">
        <ele>225</ele>
        <time>2021-06-06T10:25:17.548Z</time>
      </trkpt>
      <trkpt lat="45.621" lon="5.27901">
        <ele>225</ele>
        <time>2021-06-06T10:25:18.548Z</time>
      </trkpt>
      <trkpt lat="45.62095" lon="5.27891">
        <ele>225</ele>
        <time>2021-06-06T10:25:19.548Z</time>
      </trkpt>
      <trkpt lat="45.62091" lon="5.27884">
        <ele>225</ele>
        <time>2021-06-06T10:25:20.547Z</time>
      </trkpt>
      <trkpt lat="45.62087" lon="5.27876">
        <ele>225</ele>
        <time>2021-06-06T10:25:21.547Z</time>
      </trkpt>
      <trkpt lat="45.62083" lon="5.27867">
        <ele>224</ele>
        <time>2021-06-06T10:25:22.548Z</time>
      </trkpt>
      <trkpt lat="45.6208" lon="5.27859">
        <ele>224</ele>
        <time>2021-06-06T10:25:23.547Z</time>
      </trkpt>
      <trkpt lat="45.62076" lon="5.2785">
        <ele>224</ele>
        <time>2021-06-06T10:25:24.547Z</time>
      </trkpt>
      <trkpt lat="45.62073" lon="5.27843">
        <ele>224</ele>
        <time>2021-06-06T10:25:25.548Z</time>
      </trkpt>
      <trkpt lat="45.62069" lon="5.27835">
        <ele>223</ele>
        <time>2021-06-06T10:25:26.548Z</time>
      </trkpt>
      <trkpt lat="45.62066" lon="5.27826">
        <ele>223</ele>
        <time>2021-06-06T10:25:27.547Z</time>
      </trkpt>
      <trkpt lat="45.62062" lon="5.27818">
        <ele>224</ele>
        <time>2021-06-06T10:25:28.547Z</time>
      </trkpt>
      <trkpt lat="45.62058" lon="5.27807">
        <ele>224</ele>
        <time>2021-06-06T10:25:29.547Z</time>
      </trkpt>
      <trkpt lat="45.62054" lon="5.27798">
        <ele>224</ele>
        <time>2021-06-06T10:25:30.548Z</time>
      </trkpt>
      <trkpt lat="45.62051" lon="5.27791">
        <ele>224</ele>
        <time>2021-06-06T10:25:31.548Z</time>
      </trkpt>
      <trkpt lat="45.62048" lon="5.27781">
        <ele>223</ele>
        <time>2021-06-06T10:25:32.548Z</time>
      </trkpt>
      <trkpt lat="45.62044" lon="5.2777">
        <ele>223</ele>
        <time>2021-06-06T10:25:33.548Z</time>
      </trkpt>
      <trkpt lat="45.62041" lon="5.27762">
        <ele>224</ele>
        <time>2021-06-06T10:25:34.548Z</time>
      </trkpt>
      <trkpt lat="45.62036" lon="5.2775">
        <ele>224</ele>
        <time>2021-06-06T10:25:35.548Z</time>
      </trkpt>
      <trkpt lat="45.62034" lon="5.27741">
        <ele>224</ele>
        <time>2021-06-06T10:25:36.547Z</time>
      </trkpt>
      <trkpt lat="45.62029" lon="5.27728">
        <ele>224</ele>
        <time>2021-06-06T10:25:37.547Z</time>
      </trkpt>
      <trkpt lat="45.62026" lon="5.27718">
        <ele>224</ele>
        <time>2021-06-06T10:25:38.547Z</time>
      </trkpt>
      <trkpt lat="45.6202" lon="5.27705">
        <ele>224</ele>
        <time>2021-06-06T10:25:39.548Z</time>
      </trkpt>
      <trkpt lat="45.62017" lon="5.27695">
        <ele>224</ele>
        <time>2021-06-06T10:25:40.547Z</time>
      </trkpt>
      <trkpt lat="45.62011" lon="5.27684">
        <ele>224</ele>
        <time>2021-06-06T10:25:41.547Z</time>
      </trkpt>
      <trkpt lat="45.62005" lon="5.2767">
        <ele>225</ele>
        <time>2021-06-06T10:25:42.548Z</time>
      </trkpt>
      <trkpt lat="45.61999" lon="5.27659">
        <ele>225</ele>
        <time>2021-06-06T10:25:43.548Z</time>
      </trkpt>
      <trkpt lat="45.61995" lon="5.27649">
        <ele>224</ele>
        <time>2021-06-06T10:25:44.548Z</time>
      </trkpt>
      <trkpt lat="45.6199" lon="5.27638">
        <ele>224</ele>
        <time>2021-06-06T10:25:45.548Z</time>
      </trkpt>
      <trkpt lat="45.61985" lon="5.27627">
        <ele>224</ele>
        <time>2021-06-06T10:25:46.548Z</time>
      </trkpt>
      <trkpt lat="45.61979" lon="5.27618">
        <ele>224</ele>
        <time>2021-06-06T10:25:47.547Z</time>
      </trkpt>
      <trkpt lat="45.61973" lon="5.27609">
        <ele>224</ele>
        <time>2021-06-06T10:25:48.547Z</time>
      </trkpt>
      <trkpt lat="45.61968" lon="5.276">
        <ele>223</ele>
        <time>2021-06-06T10:25:52.601Z</time>
      </trkpt>
      <trkpt lat="45.61962" lon="5.2759">
        <ele>222</ele>
        <time>2021-06-06T10:25:53.602Z</time>
      </trkpt>
      <trkpt lat="45.61957" lon="5.27582">
        <ele>221</ele>
        <time>2021-06-06T10:28:52.459Z</time>
      </trkpt>
      <trkpt lat="45.6195" lon="5.27573">
        <ele>221</ele>
        <time>2021-06-06T10:28:53.458Z</time>
      </trkpt>
      <trkpt lat="45.61944" lon="5.27566">
        <ele>221</ele>
        <time>2021-06-06T10:28:54.458Z</time>
      </trkpt>
      <trkpt lat="45.61939" lon="5.27561">
        <ele>221</ele>
        <time>2021-06-06T10:28:55.458Z</time>
      </trkpt>
      <trkpt lat="45.61933" lon="5.27555">
        <ele>221</ele>
        <time>2021-06-06T10:28:56.459Z</time>
      </trkpt>
      <trkpt lat="45.61926" lon="5.27548">
        <ele>221</ele>
        <time>2021-06-06T10:28:57.459Z</time>
      </trkpt>
      <trkpt lat="45.61922" lon="5.27544">
        <ele>221</ele>
        <time>2021-06-06T10:28:58.459Z</time>
      </trkpt>
      <trkpt lat="45.61915" lon="5.27538">
        <ele>221</ele>
        <time>2021-06-06T10:28:59.459Z</time>
      </trkpt>
      <trkpt lat="45.6191" lon="5.27535">
        <ele>221</ele>
        <time>2021-06-06T10:29:00.459Z</time>
      </trkpt>
      <trkpt lat="45.61905" lon="5.2753">
        <ele>221</ele>
        <time>2021-06-06T10:29:01.458Z</time>
      </trkpt>
      <trkpt lat="45.61899" lon="5.27525">
        <ele>221</ele>
        <time>2021-06-06T10:29:02.459Z</time>
      </trkpt>
      <trkpt lat="45.61895" lon="5.27522">
        <ele>221</ele>
        <time>2021-06-06T10:29:03.458Z</time>
      </trkpt>
      <trkpt lat="45.6189" lon="5.27519">
        <ele>221</ele>
        <time>2021-06-06T10:29:04.459Z</time>
      </trkpt>
      <trkpt lat="45.61885" lon="5.27515">
        <ele>220</ele>
        <time>2021-06-06T10:29:05.458Z</time>
      </trkpt>
      <trkpt lat="45.6188" lon="5.27512">
        <ele>220</ele>
        <time>2021-06-06T10:29:06.458Z</time>
      </trkpt>
      <trkpt lat="45.61875" lon="5.27508">
        <ele>220</ele>
        <time>2021-06-06T10:29:07.458Z</time>
      </trkpt>
      <trkpt lat="45.6187" lon="5.27505">
        <ele>220</ele>
        <time>2021-06-06T10:29:08.459Z</time>
      </trkpt>
      <trkpt lat="45.61866" lon="5.27501">
        <ele>220</ele>
        <time>2021-06-06T10:29:09.459Z</time>
      </trkpt>
      <trkpt lat="45.61861" lon="5.27497">
        <ele>220</ele>
        <time>2021-06-06T10:29:10.459Z</time>
      </trkpt>
      <trkpt lat="45.61856" lon="5.27493">
        <ele>220</ele>
        <time>2021-06-06T10:29:11.459Z</time>
      </trkpt>
      <trkpt lat="45.61851" lon="5.2749">
        <ele>219</ele>
        <time>2021-06-06T10:29:12.459Z</time>
      </trkpt>
      <trkpt lat="45.61847" lon="5.27486">
        <ele>220</ele>
        <time>2021-06-06T10:29:13.459Z</time>
      </trkpt>
      <trkpt lat="45.61841" lon="5.27484">
        <ele>220</ele>
        <time>2021-06-06T10:29:14.458Z</time>
      </trkpt>
      <trkpt lat="45.61837" lon="5.27484">
        <ele>220</ele>
        <time>2021-06-06T10:29:15.459Z</time>
      </trkpt>
      <trkpt lat="45.61832" lon="5.27485">
        <ele>221</ele>
        <time>2021-06-06T10:29:16.459Z</time>
      </trkpt>
      <trkpt lat="45.61827" lon="5.27489">
        <ele>221</ele>
        <time>2021-06-06T10:29:17.459Z</time>
      </trkpt>
      <trkpt lat="45.61824" lon="5.27493">
        <ele>221</ele>
        <time>2021-06-06T10:29:18.458Z</time>
      </trkpt>
      <trkpt lat="45.61822" lon="5.27499">
        <ele>221</ele>
        <time>2021-06-06T10:29:19.458Z</time>
      </trkpt>
      <trkpt lat="45.6182" lon="5.27505">
        <ele>221</ele>
        <time>2021-06-06T10:29:20.459Z</time>
      </trkpt>
      <trkpt lat="45.61818" lon="5.27513">
        <ele>221</ele>
        <time>2021-06-06T10:29:21.459Z</time>
      </trkpt>
      <trkpt lat="45.61816" lon="5.2752">
        <ele>221</ele>
        <time>2021-06-06T10:29:22.458Z</time>
      </trkpt>
      <trkpt lat="45.61814" lon="5.27527">
        <ele>221</ele>
        <time>2021-06-06T10:29:23.459Z</time>
      </trkpt>
      <trkpt lat="45.61813" lon="5.27533">
        <ele>221</ele>
        <time>2021-06-06T10:29:24.458Z</time>
      </trkpt>
      <trkpt lat="45.61811" lon="5.2754">
        <ele>221</ele>
        <time>2021-06-06T10:29:25.459Z</time>
      </trkpt>
      <trkpt lat="45.61809" lon="5.27546">
        <ele>221</ele>
        <time>2021-06-06T10:29:26.458Z</time>
      </trkpt>
      <trkpt lat="45.61808" lon="5.27553">
        <ele>221</ele>
        <time>2021-06-06T10:29:27.459Z</time>
      </trkpt>
      <trkpt lat="45.61806" lon="5.2756">
        <ele>221</ele>
        <time>2021-06-06T10:29:28.459Z</time>
      </trkpt>
      <trkpt lat="45.61804" lon="5.27566">
        <ele>221</ele>
        <time>2021-06-06T10:29:29.459Z</time>
      </trkpt>
      <trkpt lat="45.61803" lon="5.27573">
        <ele>221</ele>
        <time>2021-06-06T10:29:30.459Z</time>
      </trkpt>
      <trkpt lat="45.61801" lon="5.2758">
        <ele>221</ele>
        <time>2021-06-06T10:29:31.459Z</time>
      </trkpt>
      <trkpt lat="45.61799" lon="5.27587">
        <ele>221</ele>
        <time>2021-06-06T10:29:32.459Z</time>
      </trkpt>
      <trkpt lat="45.61798" lon="5.27592">
        <ele>221</ele>
        <time>2021-06-06T10:29:33.459Z</time>
      </trkpt>
      <trkpt lat="45.61796" lon="5.27599">
        <ele>221</ele>
        <time>2021-06-06T10:29:34.459Z</time>
      </trkpt>
      <trkpt lat="45.61795" lon="5.27605">
        <ele>221</ele>
        <time>2021-06-06T10:29:35.458Z</time>
      </trkpt>
      <trkpt lat="45.61793" lon="5.27611">
        <ele>221</ele>
        <time>2021-06-06T10:29:36.459Z</time>
      </trkpt>
      <trkpt lat="45.61792" lon="5.27617">
        <ele>221</ele>
        <time>2021-06-06T10:29:37.459Z</time>
      </trkpt>
      <trkpt lat="45.6179" lon="5.27623">
        <ele>221</ele>
        <time>2021-06-06T10:29:38.459Z</time>
      </trkpt>
      <trkpt lat="45.61788" lon="5.2763">
        <ele>221</ele>
        <time>2021-06-06T10:29:39.459Z</time>
      </trkpt>
      <trkpt lat="45.61787" lon="5.27635">
        <ele>221</ele>
        <time>2021-06-06T10:29:40.459Z</time>
      </trkpt>
      <trkpt lat="45.61785" lon="5.27641">
        <ele>222</ele>
        <time>2021-06-06T10:29:41.459Z</time>
      </trkpt>
      <trkpt lat="45.61784" lon="5.27646">
        <ele>221</ele>
        <time>2021-06-06T10:29:42.459Z</time>
      </trkpt>
      <trkpt lat="45.61782" lon="5.27651">
        <ele>221</ele>
        <time>2021-06-06T10:29:43.459Z</time>
      </trkpt>
      <trkpt lat="45.6178" lon="5.27658">
        <ele>221</ele>
        <time>2021-06-06T10:29:44.459Z</time>
      </trkpt>
      <trkpt lat="45.61779" lon="5.27662">
        <ele>221</ele>
        <time>2021-06-06T10:29:45.458Z</time>
      </trkpt>
      <trkpt lat="45.61777" lon="5.27667">
        <ele>221</ele>
        <time>2021-06-06T10:29:46.459Z</time>
      </trkpt>
      <trkpt lat="45.61776" lon="5.27672">
        <ele>221</ele>
        <time>2021-06-06T10:29:47.459Z</time>
      </trkpt>
      <trkpt lat="45.61774" lon="5.27677">
        <ele>222</ele>
        <time>2021-06-06T10:29:48.459Z</time>
      </trkpt>
      <trkpt lat="45.61773" lon="5.27681">
        <ele>222</ele>
        <time>2021-06-06T10:29:49.459Z</time>
      </trkpt>
      <trkpt lat="45.61771" lon="5.27685">
        <ele>222</ele>
        <time>2021-06-06T10:29:50.459Z</time>
      </trkpt>
      <trkpt lat="45.61769" lon="5.27688">
        <ele>222</ele>
        <time>2021-06-06T10:29:51.459Z</time>
      </trkpt>
      <trkpt lat="45.61767" lon="5.2769">
        <ele>222</ele>
        <time>2021-06-06T10:29:52.459Z</time>
      </trkpt>
      <trkpt lat="45.61764" lon="5.27692">
        <ele>223</ele>
        <time>2021-06-06T10:29:53.459Z</time>
      </trkpt>
      <trkpt lat="45.61761" lon="5.27692">
        <ele>222</ele>
        <time>2021-06-06T10:29:54.459Z</time>
      </trkpt>
      <trkpt lat="45.61757" lon="5.27691">
        <ele>222</ele>
        <time>2021-06-06T10:29:55.459Z</time>
      </trkpt>
      <trkpt lat="45.61754" lon="5.2769">
        <ele>222</ele>
        <time>2021-06-06T10:29:56.459Z</time>
      </trkpt>
      <trkpt lat="45.6175" lon="5.27688">
        <ele>221</ele>
        <time>2021-06-06T10:29:57.459Z</time>
      </trkpt>
      <trkpt lat="45.61745" lon="5.27686">
        <ele>221</ele>
        <time>2021-06-06T10:29:58.459Z</time>
      </trkpt>
      <trkpt lat="45.61742" lon="5.27684">
        <ele>221</ele>
        <time>2021-06-06T10:29:59.459Z</time>
      </trkpt>
      <trkpt lat="45.61737" lon="5.27682">
        <ele>221</ele>
        <time>2021-06-06T10:30:00.459Z</time>
      </trkpt>
      <trkpt lat="45.61733" lon="5.2768">
        <ele>221</ele>
        <time>2021-06-06T10:30:01.459Z</time>
      </trkpt>
      <trkpt lat="45.61729" lon="5.27678">
        <ele>222</ele>
        <time>2021-06-06T10:30:02.459Z</time>
      </trkpt>
      <trkpt lat="45.61724" lon="5.27676">
        <ele>222</ele>
        <time>2021-06-06T10:30:03.459Z</time>
      </trkpt>
      <trkpt lat="45.61719" lon="5.27673">
        <ele>222</ele>
        <time>2021-06-06T10:30:04.459Z</time>
      </trkpt>
      <trkpt lat="45.61716" lon="5.27671">
        <ele>223</ele>
        <time>2021-06-06T10:30:05.459Z</time>
      </trkpt>
      <trkpt lat="45.61711" lon="5.27669">
        <ele>223</ele>
        <time>2021-06-06T10:30:06.458Z</time>
      </trkpt>
      <trkpt lat="45.61707" lon="5.27666">
        <ele>224</ele>
        <time>2021-06-06T10:30:07.459Z</time>
      </trkpt>
      <trkpt lat="45.61702" lon="5.27664">
        <ele>224</ele>
        <time>2021-06-06T10:30:08.459Z</time>
      </trkpt>
      <trkpt lat="45.61697" lon="5.27661">
        <ele>224</ele>
        <time>2021-06-06T10:30:09.459Z</time>
      </trkpt>
      <trkpt lat="45.61693" lon="5.27659">
        <ele>225</ele>
        <time>2021-06-06T10:30:10.459Z</time>
      </trkpt>
      <trkpt lat="45.61689" lon="5.27657">
        <ele>225</ele>
        <time>2021-06-06T10:30:11.459Z</time>
      </trkpt>
      <trkpt lat="45.61684" lon="5.27654">
        <ele>225</ele>
        <time>2021-06-06T10:30:12.459Z</time>
      </trkpt>
      <trkpt lat="45.61681" lon="5.27652">
        <ele>225</ele>
        <time>2021-06-06T10:30:13.459Z</time>
      </trkpt>
      <trkpt lat="45.61676" lon="5.2765">
        <ele>224</ele>
        <time>2021-06-06T10:30:14.459Z</time>
      </trkpt>
      <trkpt lat="45.61672" lon="5.27648">
        <ele>225</ele>
        <time>2021-06-06T10:30:15.458Z</time>
      </trkpt>
      <trkpt lat="45.61668" lon="5.27645">
        <ele>225</ele>
        <time>2021-06-06T10:30:16.458Z</time>
      </trkpt>
      <trkpt lat="45.61663" lon="5.27643">
        <ele>225</ele>
        <time>2021-06-06T10:30:17.459Z</time>
      </trkpt>
      <trkpt lat="45.61659" lon="5.2764">
        <ele>225</ele>
        <time>2021-06-06T10:30:18.458Z</time>
      </trkpt>
      <trkpt lat="45.61655" lon="5.27638">
        <ele>224</ele>
        <time>2021-06-06T10:30:19.458Z</time>
      </trkpt>
      <trkpt lat="45.61651" lon="5.27636">
        <ele>224</ele>
        <time>2021-06-06T10:30:20.459Z</time>
      </trkpt>
      <trkpt lat="45.61646" lon="5.27633">
        <ele>224</ele>
        <time>2021-06-06T10:30:21.458Z</time>
      </trkpt>
      <trkpt lat="45.61642" lon="5.27631">
        <ele>224</ele>
        <time>2021-06-06T10:30:22.458Z</time>
      </trkpt>
      <trkpt lat="45.61639" lon="5.27629">
        <ele>224</ele>
        <time>2021-06-06T10:30:23.458Z</time>
      </trkpt>
      <trkpt lat="45.61635" lon="5.27626">
        <ele>224</ele>
        <time>2021-06-06T10:30:24.458Z</time>
      </trkpt>
      <trkpt lat="45.61631" lon="5.27624">
        <ele>224</ele>
        <time>2021-06-06T10:30:25.459Z</time>
      </trkpt>
      <trkpt lat="45.61627" lon="5.27622">
        <ele>224</ele>
        <time>2021-06-06T10:30:26.458Z</time>
      </trkpt>
      <trkpt lat="45.61622" lon="5.27619">
        <ele>224</ele>
        <time>2021-06-06T10:30:27.458Z</time>
      </trkpt>
      <trkpt lat="45.61619" lon="5.27617">
        <ele>224</ele>
        <time>2021-06-06T10:30:28.458Z</time>
      </trkpt>
      <trkpt lat="45.61615" lon="5.27615">
        <ele>224</ele>
        <time>2021-06-06T10:30:29.459Z</time>
      </trkpt>
      <trkpt lat="45.6161" lon="5.27613">
        <ele>224</ele>
        <time>2021-06-06T10:30:30.459Z</time>
      </trkpt>
      <trkpt lat="45.61606" lon="5.2761">
        <ele>224</ele>
        <time>2021-06-06T10:30:31.459Z</time>
      </trkpt>
      <trkpt lat="45.61602" lon="5.27609">
        <ele>224</ele>
        <time>2021-06-06T10:30:32.459Z</time>
      </trkpt>
      <trkpt lat="45.61598" lon="5.27607">
        <ele>225</ele>
        <time>2021-06-06T10:30:33.459Z</time>
      </trkpt>
      <trkpt lat="45.61594" lon="5.27604">
        <ele>225</ele>
        <time>2021-06-06T10:30:34.458Z</time>
      </trkpt>
      <trkpt lat="45.6159" lon="5.27602">
        <ele>226</ele>
        <time>2021-06-06T10:30:35.459Z</time>
      </trkpt>
      <trkpt lat="45.61586" lon="5.27599">
        <ele>226</ele>
        <time>2021-06-06T10:30:36.458Z</time>
      </trkpt>
      <trkpt lat="45.61582" lon="5.27596">
        <ele>226</ele>
        <time>2021-06-06T10:30:37.459Z</time>
      </trkpt>
      <trkpt lat="45.61578" lon="5.27594">
        <ele>226</ele>
        <time>2021-06-06T10:30:38.458Z</time>
      </trkpt>
      <trkpt lat="45.61574" lon="5.27591">
        <ele>227</ele>
        <time>2021-06-06T10:30:39.459Z</time>
      </trkpt>
      <trkpt lat="45.61569" lon="5.27589">
        <ele>227</ele>
        <time>2021-06-06T10:30:40.459Z</time>
      </trkpt>
      <trkpt lat="45.61566" lon="5.27586">
        <ele>227</ele>
        <time>2021-06-06T10:30:41.459Z</time>
      </trkpt>
      <trkpt lat="45.61563" lon="5.27584">
        <ele>227</ele>
        <time>2021-06-06T10:30:42.458Z</time>
      </trkpt>
      <trkpt lat="45.61558" lon="5.27582">
        <ele>227</ele>
        <time>2021-06-06T10:30:43.458Z</time>
      </trkpt>
      <trkpt lat="45.61555" lon="5.27581">
        <ele>227</ele>
        <time>2021-06-06T10:30:44.459Z</time>
      </trkpt>
      <trkpt lat="45.61552" lon="5.27579">
        <ele>227</ele>
        <time>2021-06-06T10:30:45.459Z</time>
      </trkpt>
      <trkpt lat="45.61548" lon="5.27578">
        <ele>227</ele>
        <time>2021-06-06T10:30:46.459Z</time>
      </trkpt>
      <trkpt lat="45.61545" lon="5.27576">
        <ele>227</ele>
        <time>2021-06-06T10:30:47.458Z</time>
      </trkpt>
      <trkpt lat="45.61542" lon="5.27575">
        <ele>227</ele>
        <time>2021-06-06T10:30:48.459Z</time>
      </trkpt>
      <trkpt lat="45.61539" lon="5.27573">
        <ele>228</ele>
        <time>2021-06-06T10:30:49.459Z</time>
      </trkpt>
      <trkpt lat="45.61537" lon="5.27572">
        <ele>228</ele>
        <time>2021-06-06T10:30:50.459Z</time>
      </trkpt>
      <trkpt lat="45.61534" lon="5.2757">
        <ele>228</ele>
        <time>2021-06-06T10:30:51.459Z</time>
      </trkpt>
      <trkpt lat="45.61531" lon="5.27568">
        <ele>228</ele>
        <time>2021-06-06T10:30:52.459Z</time>
      </trkpt>
      <trkpt lat="45.61529" lon="5.27567">
        <ele>228</ele>
        <time>2021-06-06T10:30:53.459Z</time>
      </trkpt>
      <trkpt lat="45.61526" lon="5.27564">
        <ele>228</ele>
        <time>2021-06-06T10:30:54.459Z</time>
      </trkpt>
      <trkpt lat="45.61524" lon="5.27562">
        <ele>228</ele>
        <time>2021-06-06T10:30:55.458Z</time>
      </trkpt>
      <trkpt lat="45.61523" lon="5.27558">
        <ele>227</ele>
        <time>2021-06-06T10:30:56.459Z</time>
      </trkpt>
      <trkpt lat="45.61523" lon="5.27554">
        <ele>227</ele>
        <time>2021-06-06T10:30:57.458Z</time>
      </trkpt>
      <trkpt lat="45.61523" lon="5.2755">
        <ele>227</ele>
        <time>2021-06-06T10:30:58.458Z</time>
      </trkpt>
      <trkpt lat="45.61524" lon="5.27545">
        <ele>227</ele>
        <time>2021-06-06T10:30:59.459Z</time>
      </trkpt>
      <trkpt lat="45.61524" lon="5.2754">
        <ele>227</ele>
        <time>2021-06-06T10:31:00.459Z</time>
      </trkpt>
      <trkpt lat="45.61525" lon="5.27533">
        <ele>227</ele>
        <time>2021-06-06T10:31:01.458Z</time>
      </trkpt>
      <trkpt lat="45.61527" lon="5.27527">
        <ele>227</ele>
        <time>2021-06-06T10:31:02.458Z</time>
      </trkpt>
      <trkpt lat="45.61528" lon="5.27521">
        <ele>226</ele>
        <time>2021-06-06T10:31:03.459Z</time>
      </trkpt>
      <trkpt lat="45.61529" lon="5.27516">
        <ele>226</ele>
        <time>2021-06-06T10:31:04.459Z</time>
      </trkpt>
      <trkpt lat="45.61531" lon="5.27508">
        <ele>226</ele>
        <time>2021-06-06T10:31:05.459Z</time>
      </trkpt>
      <trkpt lat="45.61532" lon="5.27502">
        <ele>225</ele>
        <time>2021-06-06T10:31:06.458Z</time>
      </trkpt>
      <trkpt lat="45.61533" lon="5.27496">
        <ele>225</ele>
        <time>2021-06-06T10:31:07.459Z</time>
      </trkpt>
      <trkpt lat="45.61534" lon="5.27492">
        <ele>224</ele>
        <time>2021-06-06T10:31:08.459Z</time>
      </trkpt>
      <trkpt lat="45.61534" lon="5.27487">
        <ele>224</ele>
        <time>2021-06-06T10:31:09.459Z</time>
      </trkpt>
      <trkpt lat="45.61532" lon="5.27482">
        <ele>224</ele>
        <time>2021-06-06T10:31:10.459Z</time>
      </trkpt>
      <trkpt lat="45.6153" lon="5.27479">
        <ele>223</ele>
        <time>2021-06-06T10:31:11.459Z</time>
      </trkpt>
      <trkpt lat="45.61527" lon="5.27477">
        <ele>223</ele>
        <time>2021-06-06T10:31:12.458Z</time>
      </trkpt>
      <trkpt lat="45.61523" lon="5.27476">
        <ele>222</ele>
        <time>2021-06-06T10:31:13.458Z</time>
      </trkpt>
      <trkpt lat="45.6152" lon="5.27474">
        <ele>222</ele>
        <time>2021-06-06T10:31:14.458Z</time>
      </trkpt>
      <trkpt lat="45.61517" lon="5.27473">
        <ele>222</ele>
        <time>2021-06-06T10:31:15.459Z</time>
      </trkpt>
      <trkpt lat="45.61513" lon="5.27472">
        <ele>222</ele>
        <time>2021-06-06T10:31:16.459Z</time>
      </trkpt>
      <trkpt lat="45.6151" lon="5.27471">
        <ele>221</ele>
        <time>2021-06-06T10:31:17.459Z</time>
      </trkpt>
      <trkpt lat="45.61506" lon="5.2747">
        <ele>221</ele>
        <time>2021-06-06T10:31:18.458Z</time>
      </trkpt>
      <trkpt lat="45.61503" lon="5.27469">
        <ele>222</ele>
        <time>2021-06-06T10:31:19.458Z</time>
      </trkpt>
      <trkpt lat="45.615" lon="5.27467">
        <ele>222</ele>
        <time>2021-06-06T10:31:20.458Z</time>
      </trkpt>
      <trkpt lat="45.61497" lon="5.27466">
        <ele>222</ele>
        <time>2021-06-06T10:31:21.459Z</time>
      </trkpt>
      <trkpt lat="45.61496" lon="5.27465">
        <ele>222</ele>
        <time>2021-06-06T10:31:22.459Z</time>
      </trkpt>
      <trkpt lat="45.61494" lon="5.27465">
        <ele>223</ele>
        <time>2021-06-06T10:31:23.459Z</time>
      </trkpt>
      <trkpt lat="45.61493" lon="5.27465">
        <ele>223</ele>
        <time>2021-06-06T10:31:24.459Z</time>
      </trkpt>
      <trkpt lat="45.61493" lon="5.27465">
        <ele>223</ele>
        <time>2021-06-06T10:31:25.459Z</time>
      </trkpt>
      <trkpt lat="45.61492" lon="5.27466">
        <ele>222</ele>
        <time>2021-06-06T10:31:26.459Z</time>
      </trkpt>
    </trkseg>
  </trk>
</gpx>